<?xml version='1.0' encoding='UTF-8'?><gpx version="1.1" creator="JPX - https://github.com/jenetics/jpx" xmlns="http://www.topografix.com/GPX/1/1"><trk><trkseg><trkpt lat="42.0578866" lon="13.1015991"><ele>786.0</ele><time>2026-05-03T08:02:32.076Z</time></trkpt><trkpt lat="42.0579444" lon="13.1015107"><ele>786.0</ele><time>2026-05-03T08:02:34.086Z</time></trkpt><trkpt lat="42.0579576" lon="13.1016083"><ele>786.0</ele><time>2026-05-03T08:02:37.086Z</time></trkpt><trkpt lat="42.0579167" lon="13.1017184"><ele>786.0</ele><time>2026-05-03T08:02:39.078Z</time></trkpt><trkpt lat="42.0578548" lon="13.101817"><ele>786.0</ele><time>2026-05-03T08:02:41.081Z</time></trkpt><trkpt lat="42.0577637" lon="13.1019505"><ele>786.0</ele><time>2026-05-03T08:02:43.09Z</time></trkpt><trkpt lat="42.0577057" lon="13.1020154"><ele>786.0</ele><time>2026-05-03T08:02:44.087Z</time></trkpt><trkpt lat="42.0576451" lon="13.1020855"><ele>786.0</ele><time>2026-05-03T08:02:45.111Z</time></trkpt><trkpt lat="42.0575786" lon="13.1021685"><ele>786.0</ele><time>2026-05-03T08:02:46.085Z</time></trkpt><trkpt lat="42.0574987" lon="13.1022428"><ele>786.0</ele><time>2026-05-03T08:02:47.085Z</time></trkpt><trkpt lat="42.0574215" lon="13.1023226"><ele>786.0</ele><time>2026-05-03T08:02:48.085Z</time></trkpt><trkpt lat="42.0573493" lon="13.1023921"><ele>784.8333333333334</ele><time>2026-05-03T08:02:49.08Z</time></trkpt><trkpt lat="42.0572873" lon="13.1024584"><ele>783.6666666666667</ele><time>2026-05-03T08:02:50.082Z</time></trkpt><trkpt lat="42.0572293" lon="13.1025209"><ele>782.5</ele><time>2026-05-03T08:02:51.082Z</time></trkpt><trkpt lat="42.0571732" lon="13.1025814"><ele>781.3333333333334</ele><time>2026-05-03T08:02:52.085Z</time></trkpt><trkpt lat="42.0571255" lon="13.1026584"><ele>780.1666666666667</ele><time>2026-05-03T08:02:53.091Z</time></trkpt><trkpt lat="42.0570846" lon="13.1027712"><ele>779.0</ele><time>2026-05-03T08:02:54.09Z</time></trkpt><trkpt lat="42.0570708" lon="13.1028958"><ele>779.0</ele><time>2026-05-03T08:02:55.085Z</time></trkpt><trkpt lat="42.0570328" lon="13.1030143"><ele>779.0</ele><time>2026-05-03T08:02:56.082Z</time></trkpt><trkpt lat="42.0570102" lon="13.1031399"><ele>779.0</ele><time>2026-05-03T08:02:57.107Z</time></trkpt><trkpt lat="42.0569804" lon="13.1032692"><ele>779.0</ele><time>2026-05-03T08:02:58.087Z</time></trkpt><trkpt lat="42.056951" lon="13.1033824"><ele>779.0</ele><time>2026-05-03T08:02:59.085Z</time></trkpt><trkpt lat="42.0569196" lon="13.1035064"><ele>780.6</ele><time>2026-05-03T08:03:00.082Z</time></trkpt><trkpt lat="42.056887" lon="13.1036236"><ele>782.2</ele><time>2026-05-03T08:03:01.085Z</time></trkpt><trkpt lat="42.0568464" lon="13.1037497"><ele>783.8000000000001</ele><time>2026-05-03T08:03:02.088Z</time></trkpt><trkpt lat="42.056802" lon="13.1038615"><ele>785.4000000000001</ele><time>2026-05-03T08:03:03.091Z</time></trkpt><trkpt lat="42.0567584" lon="13.1039756"><ele>787.0</ele><time>2026-05-03T08:03:04.089Z</time></trkpt><trkpt lat="42.0567157" lon="13.104079"><ele>786.0</ele><time>2026-05-03T08:03:05.085Z</time></trkpt><trkpt lat="42.0566802" lon="13.1041738"><ele>785.0</ele><time>2026-05-03T08:03:06.087Z</time></trkpt><trkpt lat="42.0566144" lon="13.1043066"><ele>784.0</ele><time>2026-05-03T08:03:08.076Z</time></trkpt><trkpt lat="42.0565678" lon="13.1044098"><ele>783.0</ele><time>2026-05-03T08:03:10.088Z</time></trkpt><trkpt lat="42.0565365" lon="13.1045133"><ele>782.0</ele><time>2026-05-03T08:03:12.089Z</time></trkpt><trkpt lat="42.0564733" lon="13.104641"><ele>782.0000000000001</ele><time>2026-05-03T08:03:14.08Z</time></trkpt><trkpt lat="42.0564298" lon="13.1047339"><ele>782.0</ele><time>2026-05-03T08:03:15.077Z</time></trkpt><trkpt lat="42.0563932" lon="13.1048324"><ele>782.0</ele><time>2026-05-03T08:03:16.078Z</time></trkpt><trkpt lat="42.0563471" lon="13.1049381"><ele>782.0</ele><time>2026-05-03T08:03:17.081Z</time></trkpt><trkpt lat="42.0563059" lon="13.1050373"><ele>782.0000000000001</ele><time>2026-05-03T08:03:18.084Z</time></trkpt><trkpt lat="42.0562649" lon="13.1051298"><ele>782.0</ele><time>2026-05-03T08:03:19.08Z</time></trkpt><trkpt lat="42.0562274" lon="13.1052232"><ele>783.6666666666667</ele><time>2026-05-03T08:03:20.074Z</time></trkpt><trkpt lat="42.0561829" lon="13.1053064"><ele>785.3333333333334</ele><time>2026-05-03T08:03:21.1Z</time></trkpt><trkpt lat="42.0561365" lon="13.1053851"><ele>787.0</ele><time>2026-05-03T08:03:22.085Z</time></trkpt><trkpt lat="42.0560928" lon="13.105463"><ele>788.6666666666667</ele><time>2026-05-03T08:03:23.084Z</time></trkpt><trkpt lat="42.0560142" lon="13.1055859"><ele>790.3333333333334</ele><time>2026-05-03T08:03:25.079Z</time></trkpt><trkpt lat="42.0559674" lon="13.1056743"><ele>792.0</ele><time>2026-05-03T08:03:27.078Z</time></trkpt><trkpt lat="42.0559747" lon="13.1057622"><ele>792.0</ele><time>2026-05-03T08:03:29.076Z</time></trkpt><trkpt lat="42.0560601" lon="13.105784"><ele>792.0</ele><time>2026-05-03T08:03:31.08Z</time></trkpt><trkpt lat="42.0561441" lon="13.1056505"><ele>792.0</ele><time>2026-05-03T08:03:33.091Z</time></trkpt><trkpt lat="42.0561851" lon="13.1055696"><ele>792.0</ele><time>2026-05-03T08:03:34.081Z</time></trkpt><trkpt lat="42.0562369" lon="13.1054943"><ele>792.0</ele><time>2026-05-03T08:03:35.087Z</time></trkpt><trkpt lat="42.0562856" lon="13.1054153"><ele>792.0</ele><time>2026-05-03T08:03:36.08Z</time></trkpt><trkpt lat="42.0563441" lon="13.1053281"><ele>792.0</ele><time>2026-05-03T08:03:37.091Z</time></trkpt><trkpt lat="42.0564103" lon="13.1052292"><ele>792.0</ele><time>2026-05-03T08:03:38.082Z</time></trkpt><trkpt lat="42.0564797" lon="13.105149"><ele>792.0</ele><time>2026-05-03T08:03:39.082Z</time></trkpt><trkpt lat="42.0565522" lon="13.1050632"><ele>792.0</ele><time>2026-05-03T08:03:40.121Z</time></trkpt><trkpt lat="42.0566178" lon="13.1049725"><ele>792.0</ele><time>2026-05-03T08:03:41.082Z</time></trkpt><trkpt lat="42.0566829" lon="13.1048782"><ele>793.2</ele><time>2026-05-03T08:03:42.078Z</time></trkpt><trkpt lat="42.0567484" lon="13.1047864"><ele>794.4000000000001</ele><time>2026-05-03T08:03:43.078Z</time></trkpt><trkpt lat="42.0568242" lon="13.1046982"><ele>795.5999999999999</ele><time>2026-05-03T08:03:44.084Z</time></trkpt><trkpt lat="42.0569001" lon="13.1046094"><ele>796.8</ele><time>2026-05-03T08:03:45.076Z</time></trkpt><trkpt lat="42.0569698" lon="13.1045332"><ele>798.0</ele><time>2026-05-03T08:03:46.092Z</time></trkpt><trkpt lat="42.0570382" lon="13.1044601"><ele>798.0</ele><time>2026-05-03T08:03:47.083Z</time></trkpt><trkpt lat="42.0571115" lon="13.1043931"><ele>798.0</ele><time>2026-05-03T08:03:48.088Z</time></trkpt><trkpt lat="42.0571797" lon="13.1043225"><ele>798.0</ele><time>2026-05-03T08:03:49.082Z</time></trkpt><trkpt lat="42.0572565" lon="13.1042656"><ele>798.0</ele><time>2026-05-03T08:03:50.077Z</time></trkpt><trkpt lat="42.0573448" lon="13.1042083"><ele>798.0</ele><time>2026-05-03T08:03:51.079Z</time></trkpt><trkpt lat="42.0574307" lon="13.1041539"><ele>799.8</ele><time>2026-05-03T08:03:52.08Z</time></trkpt><trkpt lat="42.0575175" lon="13.1040963"><ele>801.5999999999999</ele><time>2026-05-03T08:03:53.074Z</time></trkpt><trkpt lat="42.0576001" lon="13.104022"><ele>803.4000000000001</ele><time>2026-05-03T08:03:54.079Z</time></trkpt><trkpt lat="42.0576809" lon="13.1039356"><ele>805.2</ele><time>2026-05-03T08:03:55.082Z</time></trkpt><trkpt lat="42.0577704" lon="13.1038679"><ele>807.0</ele><time>2026-05-03T08:03:56.096Z</time></trkpt><trkpt lat="42.0578581" lon="13.103813"><ele>807.0</ele><time>2026-05-03T08:03:57.09Z</time></trkpt><trkpt lat="42.0579386" lon="13.1037586"><ele>807.0</ele><time>2026-05-03T08:03:58.087Z</time></trkpt><trkpt lat="42.0580092" lon="13.1036995"><ele>807.0</ele><time>2026-05-03T08:03:59.082Z</time></trkpt><trkpt lat="42.0580954" lon="13.1036213"><ele>807.0</ele><time>2026-05-03T08:04:01.075Z</time></trkpt><trkpt lat="42.0581575" lon="13.1036444"><ele>807.0</ele><time>2026-05-03T08:04:03.081Z</time></trkpt><trkpt lat="42.0581621" lon="13.1038167"><ele>807.0</ele><time>2026-05-03T08:04:05.072Z</time></trkpt><trkpt lat="42.0581262" lon="13.1039066"><ele>807.0</ele><time>2026-05-03T08:04:06.083Z</time></trkpt><trkpt lat="42.0580554" lon="13.1039908"><ele>807.0</ele><time>2026-05-03T08:04:07.115Z</time></trkpt><trkpt lat="42.0579867" lon="13.104069"><ele>807.0</ele><time>2026-05-03T08:04:08.079Z</time></trkpt><trkpt lat="42.0579164" lon="13.104164"><ele>807.0</ele><time>2026-05-03T08:04:09.077Z</time></trkpt><trkpt lat="42.0578336" lon="13.1042594"><ele>811.5</ele><time>2026-05-03T08:04:10.08Z</time></trkpt><trkpt lat="42.0577432" lon="13.104364"><ele>816.0</ele><time>2026-05-03T08:04:11.075Z</time></trkpt><trkpt lat="42.0576676" lon="13.1044651"><ele>820.5</ele><time>2026-05-03T08:04:12.08Z</time></trkpt><trkpt lat="42.0575847" lon="13.1045698"><ele>825.0</ele><time>2026-05-03T08:04:13.084Z</time></trkpt><trkpt lat="42.057495" lon="13.1046718"><ele>822.75</ele><time>2026-05-03T08:04:14.084Z</time></trkpt><trkpt lat="42.0573989" lon="13.1047584"><ele>820.5</ele><time>2026-05-03T08:04:15.08Z</time></trkpt><trkpt lat="42.0573052" lon="13.1048472"><ele>818.25</ele><time>2026-05-03T08:04:16.085Z</time></trkpt><trkpt lat="42.0572093" lon="13.1049336"><ele>816.0</ele><time>2026-05-03T08:04:17.078Z</time></trkpt><trkpt lat="42.0571158" lon="13.1050267"><ele>816.0</ele><time>2026-05-03T08:04:18.079Z</time></trkpt><trkpt lat="42.0570364" lon="13.105143"><ele>816.0</ele><time>2026-05-03T08:04:19.077Z</time></trkpt><trkpt lat="42.0569695" lon="13.1052753"><ele>816.0</ele><time>2026-05-03T08:04:20.087Z</time></trkpt><trkpt lat="42.0569079" lon="13.1054293"><ele>816.0</ele><time>2026-05-03T08:04:21.079Z</time></trkpt><trkpt lat="42.0568454" lon="13.1055989"><ele>814.25</ele><time>2026-05-03T08:04:22.078Z</time></trkpt><trkpt lat="42.056782" lon="13.105765"><ele>812.5</ele><time>2026-05-03T08:04:23.083Z</time></trkpt><trkpt lat="42.056718" lon="13.1059359"><ele>810.75</ele><time>2026-05-03T08:04:24.076Z</time></trkpt><trkpt lat="42.0566607" lon="13.1061055"><ele>809.0</ele><time>2026-05-03T08:04:25.117Z</time></trkpt><trkpt lat="42.0566092" lon="13.1062854"><ele>809.0</ele><time>2026-05-03T08:04:26.083Z</time></trkpt><trkpt lat="42.0565848" lon="13.1064667"><ele>809.0</ele><time>2026-05-03T08:04:27.072Z</time></trkpt><trkpt lat="42.0565742" lon="13.1066335"><ele>809.0</ele><time>2026-05-03T08:04:28.074Z</time></trkpt><trkpt lat="42.0565611" lon="13.1067939"><ele>809.0</ele><time>2026-05-03T08:04:29.077Z</time></trkpt><trkpt lat="42.0565453" lon="13.106949"><ele>813.0</ele><time>2026-05-03T08:04:30.071Z</time></trkpt><trkpt lat="42.0565" lon="13.1070843"><ele>817.0</ele><time>2026-05-03T08:04:31.081Z</time></trkpt><trkpt lat="42.0564255" lon="13.1072158"><ele>821.0</ele><time>2026-05-03T08:04:32.085Z</time></trkpt><trkpt lat="42.0563494" lon="13.1073551"><ele>825.0</ele><time>2026-05-03T08:04:33.079Z</time></trkpt><trkpt lat="42.0562762" lon="13.107481"><ele>827.8</ele><time>2026-05-03T08:04:34.079Z</time></trkpt><trkpt lat="42.0562189" lon="13.1076028"><ele>830.6</ele><time>2026-05-03T08:04:35.091Z</time></trkpt><trkpt lat="42.0561868" lon="13.1077255"><ele>833.4000000000001</ele><time>2026-05-03T08:04:36.085Z</time></trkpt><trkpt lat="42.0561834" lon="13.1078845"><ele>836.2</ele><time>2026-05-03T08:04:37.094Z</time></trkpt><trkpt lat="42.0561998" lon="13.1080405"><ele>839.0</ele><time>2026-05-03T08:04:38.081Z</time></trkpt><trkpt lat="42.0562111" lon="13.1081963"><ele>842.1666666666667</ele><time>2026-05-03T08:04:39.082Z</time></trkpt><trkpt lat="42.0561957" lon="13.1083206"><ele>845.3333333333334</ele><time>2026-05-03T08:04:40.084Z</time></trkpt><trkpt lat="42.0561592" lon="13.1084116"><ele>848.5</ele><time>2026-05-03T08:04:41.084Z</time></trkpt><trkpt lat="42.0560852" lon="13.1084493"><ele>851.6666666666667</ele><time>2026-05-03T08:04:42.114Z</time></trkpt><trkpt lat="42.0559971" lon="13.1084706"><ele>854.8333333333334</ele><time>2026-05-03T08:04:43.086Z</time></trkpt><trkpt lat="42.0559022" lon="13.1084797"><ele>858.0</ele><time>2026-05-03T08:04:44.084Z</time></trkpt><trkpt lat="42.0558047" lon="13.108503"><ele>858.8</ele><time>2026-05-03T08:04:45.081Z</time></trkpt><trkpt lat="42.055722" lon="13.1085818"><ele>859.5999999999999</ele><time>2026-05-03T08:04:46.078Z</time></trkpt><trkpt lat="42.0556592" lon="13.1087095"><ele>860.4000000000001</ele><time>2026-05-03T08:04:47.077Z</time></trkpt><trkpt lat="42.0556103" lon="13.1088437"><ele>861.2</ele><time>2026-05-03T08:04:48.077Z</time></trkpt><trkpt lat="42.0555617" lon="13.1089685"><ele>862.0</ele><time>2026-05-03T08:04:49.113Z</time></trkpt><trkpt lat="42.0555146" lon="13.1090837"><ele>862.8</ele><time>2026-05-03T08:04:50.088Z</time></trkpt><trkpt lat="42.0554687" lon="13.1091744"><ele>863.6</ele><time>2026-05-03T08:04:51.083Z</time></trkpt><trkpt lat="42.0554678" lon="13.1093165"><ele>864.3999999999999</ele><time>2026-05-03T08:04:53.082Z</time></trkpt><trkpt lat="42.0555239" lon="13.1093845"><ele>865.1999999999999</ele><time>2026-05-03T08:04:54.078Z</time></trkpt><trkpt lat="42.0556363" lon="13.109322"><ele>866.0</ele><time>2026-05-03T08:04:56.084Z</time></trkpt><trkpt lat="42.0556927" lon="13.1092272"><ele>866.0</ele><time>2026-05-03T08:04:57.081Z</time></trkpt><trkpt lat="42.055739" lon="13.1091169"><ele>865.9999999999999</ele><time>2026-05-03T08:04:58.111Z</time></trkpt><trkpt lat="42.0558015" lon="13.1090091"><ele>865.9999999999999</ele><time>2026-05-03T08:04:59.09Z</time></trkpt><trkpt lat="42.0558842" lon="13.1089355"><ele>866.0</ele><time>2026-05-03T08:05:00.084Z</time></trkpt><trkpt lat="42.0559959" lon="13.1089116"><ele>866.0</ele><time>2026-05-03T08:05:01.087Z</time></trkpt><trkpt lat="42.0560853" lon="13.1089771"><ele>867.1999999999999</ele><time>2026-05-03T08:05:02.079Z</time></trkpt><trkpt lat="42.0561614" lon="13.1090523"><ele>868.3999999999999</ele><time>2026-05-03T08:05:03.086Z</time></trkpt><trkpt lat="42.0562424" lon="13.1091494"><ele>869.6</ele><time>2026-05-03T08:05:04.079Z</time></trkpt><trkpt lat="42.0563335" lon="13.1092462"><ele>870.8</ele><time>2026-05-03T08:05:05.086Z</time></trkpt><trkpt lat="42.0564287" lon="13.1093147"><ele>872.0</ele><time>2026-05-03T08:05:06.087Z</time></trkpt><trkpt lat="42.0565288" lon="13.1093294"><ele>874.0</ele><time>2026-05-03T08:05:07.083Z</time></trkpt><trkpt lat="42.0566256" lon="13.1093094"><ele>876.0</ele><time>2026-05-03T08:05:08.113Z</time></trkpt><trkpt lat="42.0567345" lon="13.1092685"><ele>878.0</ele><time>2026-05-03T08:05:09.084Z</time></trkpt><trkpt lat="42.0568609" lon="13.1092127"><ele>880.0</ele><time>2026-05-03T08:05:10.082Z</time></trkpt><trkpt lat="42.0569628" lon="13.1091292"><ele>877.25</ele><time>2026-05-03T08:05:11.085Z</time></trkpt><trkpt lat="42.0570502" lon="13.1090189"><ele>874.5</ele><time>2026-05-03T08:05:12.077Z</time></trkpt><trkpt lat="42.0571143" lon="13.1088772"><ele>871.75</ele><time>2026-05-03T08:05:13.085Z</time></trkpt><trkpt lat="42.0571698" lon="13.1087333"><ele>869.0</ele><time>2026-05-03T08:05:14.107Z</time></trkpt><trkpt lat="42.0572358" lon="13.1085868"><ele>869.0</ele><time>2026-05-03T08:05:15.085Z</time></trkpt><trkpt lat="42.0573107" lon="13.1084535"><ele>869.0</ele><time>2026-05-03T08:05:16.076Z</time></trkpt><trkpt lat="42.0573851" lon="13.1083152"><ele>869.0</ele><time>2026-05-03T08:05:17.081Z</time></trkpt><trkpt lat="42.0574717" lon="13.108172"><ele>869.0</ele><time>2026-05-03T08:05:18.079Z</time></trkpt><trkpt lat="42.0575547" lon="13.1080322"><ele>873.0</ele><time>2026-05-03T08:05:19.082Z</time></trkpt><trkpt lat="42.0576366" lon="13.1078889"><ele>877.0</ele><time>2026-05-03T08:05:20.081Z</time></trkpt><trkpt lat="42.0577242" lon="13.1077501"><ele>881.0</ele><time>2026-05-03T08:05:21.078Z</time></trkpt><trkpt lat="42.0578028" lon="13.1076212"><ele>885.0</ele><time>2026-05-03T08:05:22.128Z</time></trkpt><trkpt lat="42.0578812" lon="13.1075"><ele>883.5</ele><time>2026-05-03T08:05:23.08Z</time></trkpt><trkpt lat="42.0579603" lon="13.1073892"><ele>882.0</ele><time>2026-05-03T08:05:24.083Z</time></trkpt><trkpt lat="42.0580462" lon="13.1072787"><ele>880.5</ele><time>2026-05-03T08:05:25.081Z</time></trkpt><trkpt lat="42.0581396" lon="13.1071552"><ele>879.0</ele><time>2026-05-03T08:05:26.093Z</time></trkpt><trkpt lat="42.058242" lon="13.1070323"><ele>883.5</ele><time>2026-05-03T08:05:27.077Z</time></trkpt><trkpt lat="42.0583458" lon="13.1069169"><ele>888.0</ele><time>2026-05-03T08:05:28.091Z</time></trkpt><trkpt lat="42.0584557" lon="13.1068033"><ele>892.5</ele><time>2026-05-03T08:05:29.079Z</time></trkpt><trkpt lat="42.0585455" lon="13.1066939"><ele>897.0</ele><time>2026-05-03T08:05:30.086Z</time></trkpt><trkpt lat="42.0586254" lon="13.1065957"><ele>897.0</ele><time>2026-05-03T08:05:31.096Z</time></trkpt><trkpt lat="42.0586979" lon="13.1065052"><ele>897.0</ele><time>2026-05-03T08:05:32.098Z</time></trkpt><trkpt lat="42.0588035" lon="13.1064718"><ele>897.0</ele><time>2026-05-03T08:05:34.085Z</time></trkpt><trkpt lat="42.0588537" lon="13.1065722"><ele>897.0</ele><time>2026-05-03T08:05:36.088Z</time></trkpt><trkpt lat="42.0587568" lon="13.1066886"><ele>897.0</ele><time>2026-05-03T08:05:38.088Z</time></trkpt><trkpt lat="42.0586886" lon="13.106737"><ele>897.0</ele><time>2026-05-03T08:05:39.084Z</time></trkpt><trkpt lat="42.0586315" lon="13.1068138"><ele>897.0</ele><time>2026-05-03T08:05:40.092Z</time></trkpt><trkpt lat="42.058568" lon="13.1069028"><ele>897.0</ele><time>2026-05-03T08:05:41.091Z</time></trkpt><trkpt lat="42.0585182" lon="13.1070288"><ele>897.0</ele><time>2026-05-03T08:05:42.101Z</time></trkpt><trkpt lat="42.0584843" lon="13.1071895"><ele>897.0</ele><time>2026-05-03T08:05:43.082Z</time></trkpt><trkpt lat="42.0584432" lon="13.1073512"><ele>898.75</ele><time>2026-05-03T08:05:44.079Z</time></trkpt><trkpt lat="42.0584011" lon="13.1075027"><ele>900.5</ele><time>2026-05-03T08:05:45.084Z</time></trkpt><trkpt lat="42.0583539" lon="13.107651"><ele>902.25</ele><time>2026-05-03T08:05:46.079Z</time></trkpt><trkpt lat="42.0583078" lon="13.1078102"><ele>904.0</ele><time>2026-05-03T08:05:47.077Z</time></trkpt><trkpt lat="42.058259" lon="13.1079892"><ele>901.0</ele><time>2026-05-03T08:05:48.084Z</time></trkpt><trkpt lat="42.0582192" lon="13.1081745"><ele>898.0</ele><time>2026-05-03T08:05:49.083Z</time></trkpt><trkpt lat="42.0581765" lon="13.1083499"><ele>895.0</ele><time>2026-05-03T08:05:50.097Z</time></trkpt><trkpt lat="42.0581362" lon="13.1085258"><ele>892.0</ele><time>2026-05-03T08:05:51.078Z</time></trkpt><trkpt lat="42.0581032" lon="13.1087064"><ele>892.0</ele><time>2026-05-03T08:05:52.083Z</time></trkpt><trkpt lat="42.0580692" lon="13.1088827"><ele>892.0</ele><time>2026-05-03T08:05:53.085Z</time></trkpt><trkpt lat="42.0580413" lon="13.1090568"><ele>892.0</ele><time>2026-05-03T08:05:54.073Z</time></trkpt><trkpt lat="42.0580044" lon="13.1092142"><ele>892.0</ele><time>2026-05-03T08:05:55.089Z</time></trkpt><trkpt lat="42.0579693" lon="13.1093609"><ele>893.6</ele><time>2026-05-03T08:05:56.082Z</time></trkpt><trkpt lat="42.0579354" lon="13.1095007"><ele>895.2</ele><time>2026-05-03T08:05:57.079Z</time></trkpt><trkpt lat="42.057909" lon="13.1096347"><ele>896.8</ele><time>2026-05-03T08:05:58.074Z</time></trkpt><trkpt lat="42.0578964" lon="13.1097395"><ele>898.4</ele><time>2026-05-03T08:05:59.08Z</time></trkpt><trkpt lat="42.0579325" lon="13.1098474"><ele>900.0</ele><time>2026-05-03T08:06:01.074Z</time></trkpt><trkpt lat="42.058055" lon="13.1098035"><ele>900.0</ele><time>2026-05-03T08:06:03.084Z</time></trkpt><trkpt lat="42.0580942" lon="13.1096394"><ele>900.0</ele><time>2026-05-03T08:06:05.08Z</time></trkpt><trkpt lat="42.0581149" lon="13.1095354"><ele>900.0</ele><time>2026-05-03T08:06:06.085Z</time></trkpt><trkpt lat="42.0581704" lon="13.1094284"><ele>900.0</ele><time>2026-05-03T08:06:07.083Z</time></trkpt><trkpt lat="42.0582499" lon="13.1093416"><ele>900.0</ele><time>2026-05-03T08:06:08.085Z</time></trkpt><trkpt lat="42.0583399" lon="13.1092351"><ele>902.6</ele><time>2026-05-03T08:06:09.088Z</time></trkpt><trkpt lat="42.0584299" lon="13.1091292"><ele>905.2</ele><time>2026-05-03T08:06:10.079Z</time></trkpt><trkpt lat="42.0585121" lon="13.1090325"><ele>907.8</ele><time>2026-05-03T08:06:11.092Z</time></trkpt><trkpt lat="42.0585824" lon="13.1089306"><ele>910.4</ele><time>2026-05-03T08:06:12.087Z</time></trkpt><trkpt lat="42.0586385" lon="13.108832"><ele>913.0</ele><time>2026-05-03T08:06:13.085Z</time></trkpt><trkpt lat="42.0586802" lon="13.1087387"><ele>913.0</ele><time>2026-05-03T08:06:14.112Z</time></trkpt><trkpt lat="42.0587689" lon="13.1086711"><ele>913.0</ele><time>2026-05-03T08:06:16.081Z</time></trkpt><trkpt lat="42.0588375" lon="13.1087667"><ele>913.0</ele><time>2026-05-03T08:06:18.078Z</time></trkpt><trkpt lat="42.0587996" lon="13.1088915"><ele>913.0</ele><time>2026-05-03T08:06:20.081Z</time></trkpt><trkpt lat="42.0587555" lon="13.1090277"><ele>913.0</ele><time>2026-05-03T08:06:22.081Z</time></trkpt><trkpt lat="42.0587256" lon="13.1091399"><ele>915.2</ele><time>2026-05-03T08:06:29.075Z</time></trkpt><trkpt lat="42.0587074" lon="13.1092337"><ele>917.4</ele><time>2026-05-03T08:06:30.078Z</time></trkpt><trkpt lat="42.0586677" lon="13.1093494"><ele>919.6000000000001</ele><time>2026-05-03T08:06:31.077Z</time></trkpt><trkpt lat="42.0586327" lon="13.1094818"><ele>921.8000000000001</ele><time>2026-05-03T08:06:32.089Z</time></trkpt><trkpt lat="42.0586055" lon="13.1096287"><ele>924.0</ele><time>2026-05-03T08:06:33.081Z</time></trkpt><trkpt lat="42.0585772" lon="13.1097887"><ele>926.25</ele><time>2026-05-03T08:06:34.083Z</time></trkpt><trkpt lat="42.0585358" lon="13.1099559"><ele>928.5</ele><time>2026-05-03T08:06:35.08Z</time></trkpt><trkpt lat="42.0584729" lon="13.1101006"><ele>930.75</ele><time>2026-05-03T08:06:36.091Z</time></trkpt><trkpt lat="42.0584098" lon="13.1102541"><ele>933.0</ele><time>2026-05-03T08:06:37.086Z</time></trkpt><trkpt lat="42.0583434" lon="13.1103971"><ele>933.25</ele><time>2026-05-03T08:06:38.084Z</time></trkpt><trkpt lat="42.0582711" lon="13.1105249"><ele>933.5</ele><time>2026-05-03T08:06:39.11Z</time></trkpt><trkpt lat="42.0581881" lon="13.1106354"><ele>933.75</ele><time>2026-05-03T08:06:40.077Z</time></trkpt><trkpt lat="42.0580909" lon="13.1107421"><ele>934.0</ele><time>2026-05-03T08:06:41.081Z</time></trkpt><trkpt lat="42.0579888" lon="13.1108449"><ele>934.0</ele><time>2026-05-03T08:06:42.086Z</time></trkpt><trkpt lat="42.0578946" lon="13.1109641"><ele>934.0</ele><time>2026-05-03T08:06:43.08Z</time></trkpt><trkpt lat="42.0578058" lon="13.1111004"><ele>934.0</ele><time>2026-05-03T08:06:44.074Z</time></trkpt><trkpt lat="42.0577321" lon="13.1112577"><ele>934.0</ele><time>2026-05-03T08:06:45.076Z</time></trkpt><trkpt lat="42.0576675" lon="13.1114205"><ele>934.25</ele><time>2026-05-03T08:06:46.081Z</time></trkpt><trkpt lat="42.0575972" lon="13.1115779"><ele>934.5</ele><time>2026-05-03T08:06:47.082Z</time></trkpt><trkpt lat="42.0575267" lon="13.1117429"><ele>934.75</ele><time>2026-05-03T08:06:48.082Z</time></trkpt><trkpt lat="42.0574472" lon="13.111902"><ele>935.0</ele><time>2026-05-03T08:06:49.078Z</time></trkpt><trkpt lat="42.0573565" lon="13.112062"><ele>935.0</ele><time>2026-05-03T08:06:50.08Z</time></trkpt><trkpt lat="42.0572668" lon="13.1122154"><ele>935.0</ele><time>2026-05-03T08:06:51.082Z</time></trkpt><trkpt lat="42.0571712" lon="13.1123514"><ele>935.0</ele><time>2026-05-03T08:06:52.097Z</time></trkpt><trkpt lat="42.0570807" lon="13.1124891"><ele>935.0</ele><time>2026-05-03T08:06:53.079Z</time></trkpt><trkpt lat="42.0569909" lon="13.1126267"><ele>934.5</ele><time>2026-05-03T08:06:54.083Z</time></trkpt><trkpt lat="42.0568923" lon="13.1127481"><ele>934.0</ele><time>2026-05-03T08:06:55.082Z</time></trkpt><trkpt lat="42.0567849" lon="13.1128667"><ele>933.5</ele><time>2026-05-03T08:06:56.08Z</time></trkpt><trkpt lat="42.0566658" lon="13.1129968"><ele>933.0</ele><time>2026-05-03T08:06:57.084Z</time></trkpt><trkpt lat="42.0565423" lon="13.113121"><ele>939.0</ele><time>2026-05-03T08:06:58.076Z</time></trkpt><trkpt lat="42.0564151" lon="13.1132435"><ele>945.0</ele><time>2026-05-03T08:06:59.078Z</time></trkpt><trkpt lat="42.0562956" lon="13.1133599"><ele>951.0</ele><time>2026-05-03T08:07:00.08Z</time></trkpt><trkpt lat="42.0561788" lon="13.11346"><ele>957.0</ele><time>2026-05-03T08:07:01.077Z</time></trkpt><trkpt lat="42.0560677" lon="13.1135671"><ele>957.0</ele><time>2026-05-03T08:07:02.096Z</time></trkpt><trkpt lat="42.0559671" lon="13.1136918"><ele>957.0</ele><time>2026-05-03T08:07:03.078Z</time></trkpt><trkpt lat="42.0558707" lon="13.1138195"><ele>957.0</ele><time>2026-05-03T08:07:04.08Z</time></trkpt><trkpt lat="42.0557795" lon="13.1139633"><ele>957.0</ele><time>2026-05-03T08:07:05.076Z</time></trkpt><trkpt lat="42.0556929" lon="13.1141174"><ele>956.0</ele><time>2026-05-03T08:07:06.077Z</time></trkpt><trkpt lat="42.0556123" lon="13.1142783"><ele>955.0</ele><time>2026-05-03T08:07:07.084Z</time></trkpt><trkpt lat="42.0555299" lon="13.1144371"><ele>954.0</ele><time>2026-05-03T08:07:08.079Z</time></trkpt><trkpt lat="42.0554546" lon="13.1146188"><ele>953.0</ele><time>2026-05-03T08:07:09.092Z</time></trkpt><trkpt lat="42.0553824" lon="13.114798"><ele>957.5</ele><time>2026-05-03T08:07:10.09Z</time></trkpt><trkpt lat="42.0553215" lon="13.1149747"><ele>962.0</ele><time>2026-05-03T08:07:11.082Z</time></trkpt><trkpt lat="42.0552567" lon="13.1151522"><ele>966.5</ele><time>2026-05-03T08:07:12.077Z</time></trkpt><trkpt lat="42.0551928" lon="13.1153435"><ele>971.0</ele><time>2026-05-03T08:07:13.082Z</time></trkpt><trkpt lat="42.0551202" lon="13.1155266"><ele>971.0</ele><time>2026-05-03T08:07:14.078Z</time></trkpt><trkpt lat="42.055036" lon="13.1157006"><ele>971.0</ele><time>2026-05-03T08:07:15.077Z</time></trkpt><trkpt lat="42.0549634" lon="13.1158712"><ele>971.0</ele><time>2026-05-03T08:07:16.077Z</time></trkpt><trkpt lat="42.0548974" lon="13.1160235"><ele>971.0</ele><time>2026-05-03T08:07:17.081Z</time></trkpt><trkpt lat="42.0548397" lon="13.1161573"><ele>973.1999999999999</ele><time>2026-05-03T08:07:18.081Z</time></trkpt><trkpt lat="42.054783" lon="13.1162774"><ele>975.3999999999999</ele><time>2026-05-03T08:07:19.074Z</time></trkpt><trkpt lat="42.0547158" lon="13.1163871"><ele>977.6</ele><time>2026-05-03T08:07:20.087Z</time></trkpt><trkpt lat="42.0546391" lon="13.1164561"><ele>979.8</ele><time>2026-05-03T08:07:21.083Z</time></trkpt><trkpt lat="42.054546" lon="13.1164609"><ele>982.0</ele><time>2026-05-03T08:07:22.082Z</time></trkpt><trkpt lat="42.054459" lon="13.1164501"><ele>982.0</ele><time>2026-05-03T08:07:23.079Z</time></trkpt><trkpt lat="42.05434" lon="13.1164738"><ele>982.0</ele><time>2026-05-03T08:07:25.081Z</time></trkpt><trkpt lat="42.0542635" lon="13.1165674"><ele>982.0</ele><time>2026-05-03T08:07:27.077Z</time></trkpt><trkpt lat="42.054301" lon="13.116695"><ele>982.0</ele><time>2026-05-03T08:07:29.079Z</time></trkpt><trkpt lat="42.0544025" lon="13.1167171"><ele>982.0</ele><time>2026-05-03T08:07:31.077Z</time></trkpt><trkpt lat="42.0544607" lon="13.1166785"><ele>982.0</ele><time>2026-05-03T08:07:32.075Z</time></trkpt><trkpt lat="42.0545213" lon="13.1166222"><ele>982.0</ele><time>2026-05-03T08:07:33.075Z</time></trkpt><trkpt lat="42.0546112" lon="13.1165762"><ele>982.0</ele><time>2026-05-03T08:07:34.076Z</time></trkpt><trkpt lat="42.0547143" lon="13.1165328"><ele>982.0</ele><time>2026-05-03T08:07:35.096Z</time></trkpt><trkpt lat="42.0548062" lon="13.1164828"><ele>982.0</ele><time>2026-05-03T08:07:36.084Z</time></trkpt><trkpt lat="42.0548892" lon="13.1163946"><ele>983.8</ele><time>2026-05-03T08:07:37.083Z</time></trkpt><trkpt lat="42.0549686" lon="13.116286"><ele>985.6</ele><time>2026-05-03T08:07:38.123Z</time></trkpt><trkpt lat="42.0550415" lon="13.1161603"><ele>987.3999999999999</ele><time>2026-05-03T08:07:39.078Z</time></trkpt><trkpt lat="42.0551127" lon="13.116051"><ele>989.1999999999999</ele><time>2026-05-03T08:07:40.078Z</time></trkpt><trkpt lat="42.0551921" lon="13.1159536"><ele>991.0</ele><time>2026-05-03T08:07:41.079Z</time></trkpt><trkpt lat="42.0552665" lon="13.1158724"><ele>991.0</ele><time>2026-05-03T08:07:42.083Z</time></trkpt><trkpt lat="42.0553553" lon="13.1158113"><ele>990.9999999999999</ele><time>2026-05-03T08:07:43.092Z</time></trkpt><trkpt lat="42.0554497" lon="13.1157696"><ele>990.9999999999999</ele><time>2026-05-03T08:07:44.084Z</time></trkpt><trkpt lat="42.0555522" lon="13.1157208"><ele>991.0</ele><time>2026-05-03T08:07:45.119Z</time></trkpt><trkpt lat="42.0556516" lon="13.1156852"><ele>991.0</ele><time>2026-05-03T08:07:46.072Z</time></trkpt><trkpt lat="42.0557398" lon="13.1156346"><ele>992.4</ele><time>2026-05-03T08:07:47.078Z</time></trkpt><trkpt lat="42.0557949" lon="13.1155619"><ele>993.8</ele><time>2026-05-03T08:07:48.084Z</time></trkpt><trkpt lat="42.0558536" lon="13.115462"><ele>995.1999999999999</ele><time>2026-05-03T08:07:49.074Z</time></trkpt><trkpt lat="42.0559161" lon="13.1153509"><ele>996.5999999999999</ele><time>2026-05-03T08:07:50.083Z</time></trkpt><trkpt lat="42.0559847" lon="13.1152214"><ele>998.0</ele><time>2026-05-03T08:07:51.081Z</time></trkpt><trkpt lat="42.0560563" lon="13.1150896"><ele>998.0</ele><time>2026-05-03T08:07:52.114Z</time></trkpt><trkpt lat="42.0561395" lon="13.1149666"><ele>998.0</ele><time>2026-05-03T08:07:53.084Z</time></trkpt><trkpt lat="42.0562284" lon="13.1148575"><ele>998.0</ele><time>2026-05-03T08:07:54.086Z</time></trkpt><trkpt lat="42.0563097" lon="13.1147674"><ele>998.0</ele><time>2026-05-03T08:07:55.086Z</time></trkpt><trkpt lat="42.0563913" lon="13.1146906"><ele>998.0</ele><time>2026-05-03T08:07:56.082Z</time></trkpt><trkpt lat="42.0564554" lon="13.1146487"><ele>998.0000000000001</ele><time>2026-05-03T08:07:57.085Z</time></trkpt><trkpt lat="42.0565225" lon="13.1146399"><ele>998.0</ele><time>2026-05-03T08:07:58.082Z</time></trkpt><trkpt lat="42.0565831" lon="13.1146844"><ele>998.0000000000001</ele><time>2026-05-03T08:07:59.1Z</time></trkpt><trkpt lat="42.0566249" lon="13.1147483"><ele>998.0000000000001</ele><time>2026-05-03T08:08:00.082Z</time></trkpt><trkpt lat="42.0566026" lon="13.1148416"><ele>998.0</ele><time>2026-05-03T08:08:01.075Z</time></trkpt><trkpt lat="42.0565666" lon="13.114916"><ele>998.0000000000001</ele><time>2026-05-03T08:08:02.075Z</time></trkpt><trkpt lat="42.0564898" lon="13.1150105"><ele>998.0000000000001</ele><time>2026-05-03T08:08:03.074Z</time></trkpt><trkpt lat="42.0563976" lon="13.1151153"><ele>998.0</ele><time>2026-05-03T08:08:04.073Z</time></trkpt><trkpt lat="42.0563089" lon="13.1152389"><ele>998.0</ele><time>2026-05-03T08:08:05.083Z</time></trkpt><trkpt lat="42.0562413" lon="13.1153796"><ele>998.0</ele><time>2026-05-03T08:08:06.081Z</time></trkpt><trkpt lat="42.0561826" lon="13.1155002"><ele>998.0</ele><time>2026-05-03T08:08:07.084Z</time></trkpt><trkpt lat="42.0561132" lon="13.1156055"><ele>998.0</ele><time>2026-05-03T08:08:08.08Z</time></trkpt><trkpt lat="42.0560441" lon="13.115705"><ele>998.0</ele><time>2026-05-03T08:08:09.08Z</time></trkpt><trkpt lat="42.0559675" lon="13.1157988"><ele>998.0</ele><time>2026-05-03T08:08:10.084Z</time></trkpt><trkpt lat="42.0558821" lon="13.1158888"><ele>998.0</ele><time>2026-05-03T08:08:11.08Z</time></trkpt><trkpt lat="42.0557936" lon="13.1159661"><ele>998.0</ele><time>2026-05-03T08:08:12.082Z</time></trkpt><trkpt lat="42.0556916" lon="13.1160297"><ele>996.5999999999999</ele><time>2026-05-03T08:08:13.085Z</time></trkpt><trkpt lat="42.0555994" lon="13.1160788"><ele>995.1999999999999</ele><time>2026-05-03T08:08:14.089Z</time></trkpt><trkpt lat="42.05552" lon="13.1161376"><ele>993.8</ele><time>2026-05-03T08:08:15.081Z</time></trkpt><trkpt lat="42.0554484" lon="13.1162124"><ele>992.4</ele><time>2026-05-03T08:08:16.109Z</time></trkpt><trkpt lat="42.0553746" lon="13.1163041"><ele>991.0</ele><time>2026-05-03T08:08:17.08Z</time></trkpt><trkpt lat="42.0553147" lon="13.1164049"><ele>991.0</ele><time>2026-05-03T08:08:18.09Z</time></trkpt><trkpt lat="42.0552505" lon="13.1165137"><ele>990.9999999999999</ele><time>2026-05-03T08:08:19.089Z</time></trkpt><trkpt lat="42.0551865" lon="13.1166437"><ele>990.9999999999999</ele><time>2026-05-03T08:08:20.085Z</time></trkpt><trkpt lat="42.055111" lon="13.1167509"><ele>991.0</ele><time>2026-05-03T08:08:21.078Z</time></trkpt><trkpt lat="42.0550465" lon="13.1168403"><ele>991.0</ele><time>2026-05-03T08:08:22.081Z</time></trkpt><trkpt lat="42.0549895" lon="13.116944"><ele>992.4</ele><time>2026-05-03T08:08:23.078Z</time></trkpt><trkpt lat="42.0549369" lon="13.1170648"><ele>993.8</ele><time>2026-05-03T08:08:24.08Z</time></trkpt><trkpt lat="42.054892" lon="13.117191"><ele>995.1999999999999</ele><time>2026-05-03T08:08:25.08Z</time></trkpt><trkpt lat="42.0548375" lon="13.1172968"><ele>996.5999999999999</ele><time>2026-05-03T08:08:26.076Z</time></trkpt><trkpt lat="42.054792" lon="13.1173792"><ele>998.0</ele><time>2026-05-03T08:08:27.081Z</time></trkpt><trkpt lat="42.054735" lon="13.1174522"><ele>1001.8333333333334</ele><time>2026-05-03T08:08:28.08Z</time></trkpt><trkpt lat="42.0546748" lon="13.1175039"><ele>1005.6666666666667</ele><time>2026-05-03T08:08:29.098Z</time></trkpt><trkpt lat="42.0546075" lon="13.1175341"><ele>1009.5</ele><time>2026-05-03T08:08:30.082Z</time></trkpt><trkpt lat="42.0545389" lon="13.1175791"><ele>1013.3333333333333</ele><time>2026-05-03T08:08:31.081Z</time></trkpt><trkpt lat="42.0544677" lon="13.1176383"><ele>1017.1666666666666</ele><time>2026-05-03T08:08:32.085Z</time></trkpt><trkpt lat="42.0543799" lon="13.117693"><ele>1021.0</ele><time>2026-05-03T08:08:33.08Z</time></trkpt><trkpt lat="42.0542914" lon="13.1177593"><ele>1021.0</ele><time>2026-05-03T08:08:34.079Z</time></trkpt><trkpt lat="42.0541922" lon="13.1178227"><ele>1020.9999999999999</ele><time>2026-05-03T08:08:35.076Z</time></trkpt><trkpt lat="42.0540887" lon="13.1178823"><ele>1020.9999999999999</ele><time>2026-05-03T08:08:36.117Z</time></trkpt><trkpt lat="42.0539944" lon="13.1179473"><ele>1021.0</ele><time>2026-05-03T08:08:37.084Z</time></trkpt><trkpt lat="42.0539091" lon="13.1180082"><ele>1021.0</ele><time>2026-05-03T08:08:38.078Z</time></trkpt><trkpt lat="42.0538274" lon="13.1180634"><ele>1020.5999999999999</ele><time>2026-05-03T08:08:39.076Z</time></trkpt><trkpt lat="42.0537506" lon="13.1181186"><ele>1020.1999999999999</ele><time>2026-05-03T08:08:40.08Z</time></trkpt><trkpt lat="42.0536806" lon="13.1182002"><ele>1019.8000000000001</ele><time>2026-05-03T08:08:41.079Z</time></trkpt><trkpt lat="42.0536218" lon="13.1182854"><ele>1019.4000000000001</ele><time>2026-05-03T08:08:42.085Z</time></trkpt><trkpt lat="42.0535706" lon="13.1183941"><ele>1019.0</ele><time>2026-05-03T08:08:43.084Z</time></trkpt><trkpt lat="42.0535331" lon="13.1185226"><ele>1021.8000000000001</ele><time>2026-05-03T08:08:44.077Z</time></trkpt><trkpt lat="42.0534891" lon="13.1186255"><ele>1024.6000000000001</ele><time>2026-05-03T08:08:45.084Z</time></trkpt><trkpt lat="42.0534428" lon="13.118697"><ele>1027.4</ele><time>2026-05-03T08:08:46.081Z</time></trkpt><trkpt lat="42.0533405" lon="13.1187981"><ele>1030.2</ele><time>2026-05-03T08:08:48.078Z</time></trkpt><trkpt lat="42.0532104" lon="13.1188081"><ele>1033.0</ele><time>2026-05-03T08:08:50.076Z</time></trkpt><trkpt lat="42.053116" lon="13.118775"><ele>1034.0</ele><time>2026-05-03T08:08:51.077Z</time></trkpt><trkpt lat="42.0530119" lon="13.1187577"><ele>1035.0</ele><time>2026-05-03T08:08:52.076Z</time></trkpt><trkpt lat="42.0528931" lon="13.1187477"><ele>1036.0</ele><time>2026-05-03T08:08:53.071Z</time></trkpt><trkpt lat="42.0527709" lon="13.1187441"><ele>1037.0</ele><time>2026-05-03T08:08:54.075Z</time></trkpt><trkpt lat="42.0526488" lon="13.1187444"><ele>1037.0</ele><time>2026-05-03T08:08:55.076Z</time></trkpt><trkpt lat="42.0525209" lon="13.1187449"><ele>1037.0</ele><time>2026-05-03T08:08:56.077Z</time></trkpt><trkpt lat="42.052397" lon="13.1187476"><ele>1037.0</ele><time>2026-05-03T08:08:57.081Z</time></trkpt><trkpt lat="42.0522669" lon="13.1187486"><ele>1037.0</ele><time>2026-05-03T08:08:58.078Z</time></trkpt><trkpt lat="42.0521344" lon="13.1187534"><ele>1038.25</ele><time>2026-05-03T08:08:59.098Z</time></trkpt><trkpt lat="42.0520012" lon="13.1187521"><ele>1039.5</ele><time>2026-05-03T08:09:00.079Z</time></trkpt><trkpt lat="42.0518751" lon="13.1187332"><ele>1040.75</ele><time>2026-05-03T08:09:01.068Z</time></trkpt><trkpt lat="42.0517558" lon="13.118722"><ele>1042.0</ele><time>2026-05-03T08:09:02.072Z</time></trkpt><trkpt lat="42.05164" lon="13.1187087"><ele>1043.25</ele><time>2026-05-03T08:09:03.075Z</time></trkpt><trkpt lat="42.0515202" lon="13.1186807"><ele>1044.5</ele><time>2026-05-03T08:09:04.073Z</time></trkpt><trkpt lat="42.0513968" lon="13.1186402"><ele>1045.75</ele><time>2026-05-03T08:09:05.072Z</time></trkpt><trkpt lat="42.0512728" lon="13.1185739"><ele>1047.0</ele><time>2026-05-03T08:09:06.084Z</time></trkpt><trkpt lat="42.0511539" lon="13.1185002"><ele>1047.0</ele><time>2026-05-03T08:09:07.08Z</time></trkpt><trkpt lat="42.0510492" lon="13.1184287"><ele>1047.0</ele><time>2026-05-03T08:09:08.08Z</time></trkpt><trkpt lat="42.0509519" lon="13.118346"><ele>1047.0</ele><time>2026-05-03T08:09:09.082Z</time></trkpt><trkpt lat="42.0508612" lon="13.1182812"><ele>1047.0</ele><time>2026-05-03T08:09:10.084Z</time></trkpt><trkpt lat="42.0507928" lon="13.1182389"><ele>1047.0</ele><time>2026-05-03T08:09:11.074Z</time></trkpt><trkpt lat="42.050723" lon="13.1182262"><ele>1045.1428571428573</ele><time>2026-05-03T08:09:12.077Z</time></trkpt><trkpt lat="42.0506519" lon="13.1182463"><ele>1043.2857142857142</ele><time>2026-05-03T08:09:13.079Z</time></trkpt><trkpt lat="42.0505847" lon="13.1182872"><ele>1041.4285714285716</ele><time>2026-05-03T08:09:14.083Z</time></trkpt><trkpt lat="42.050527" lon="13.1183547"><ele>1039.5714285714287</ele><time>2026-05-03T08:09:15.085Z</time></trkpt><trkpt lat="42.0504775" lon="13.1184237"><ele>1037.7142857142858</ele><time>2026-05-03T08:09:16.081Z</time></trkpt><trkpt lat="42.0504339" lon="13.1185055"><ele>1035.857142857143</ele><time>2026-05-03T08:09:17.091Z</time></trkpt><trkpt lat="42.0503862" lon="13.1185853"><ele>1034.0</ele><time>2026-05-03T08:09:18.081Z</time></trkpt><trkpt lat="42.0503329" lon="13.1186706"><ele>1034.0</ele><time>2026-05-03T08:09:19.078Z</time></trkpt><trkpt lat="42.0502713" lon="13.118758"><ele>1034.0</ele><time>2026-05-03T08:09:20.089Z</time></trkpt><trkpt lat="42.0502113" lon="13.1188472"><ele>1034.0</ele><time>2026-05-03T08:09:21.088Z</time></trkpt><trkpt lat="42.050153" lon="13.1189311"><ele>1034.0</ele><time>2026-05-03T08:09:22.083Z</time></trkpt><trkpt lat="42.0501047" lon="13.1190193"><ele>1034.0</ele><time>2026-05-03T08:09:23.081Z</time></trkpt><trkpt lat="42.0500548" lon="13.1191071"><ele>1034.0</ele><time>2026-05-03T08:09:24.083Z</time></trkpt><trkpt lat="42.050008" lon="13.1192011"><ele>1033.5</ele><time>2026-05-03T08:09:25.092Z</time></trkpt><trkpt lat="42.0499666" lon="13.1193017"><ele>1033.0</ele><time>2026-05-03T08:09:26.116Z</time></trkpt><trkpt lat="42.049926" lon="13.1194036"><ele>1032.5</ele><time>2026-05-03T08:09:27.087Z</time></trkpt><trkpt lat="42.0498837" lon="13.1194996"><ele>1032.0</ele><time>2026-05-03T08:09:28.088Z</time></trkpt><trkpt lat="42.0498345" lon="13.1195938"><ele>1031.5</ele><time>2026-05-03T08:09:29.089Z</time></trkpt><trkpt lat="42.049779" lon="13.1196748"><ele>1031.0</ele><time>2026-05-03T08:09:30.087Z</time></trkpt><trkpt lat="42.0497157" lon="13.1197412"><ele>1031.0</ele><time>2026-05-03T08:09:31.086Z</time></trkpt><trkpt lat="42.0496531" lon="13.1198062"><ele>1031.0</ele><time>2026-05-03T08:09:32.085Z</time></trkpt><trkpt lat="42.0495918" lon="13.1198759"><ele>1031.0</ele><time>2026-05-03T08:09:33.091Z</time></trkpt><trkpt lat="42.049534" lon="13.1199477"><ele>1031.0</ele><time>2026-05-03T08:09:34.089Z</time></trkpt><trkpt lat="42.0494834" lon="13.1200355"><ele>1031.0</ele><time>2026-05-03T08:09:35.128Z</time></trkpt><trkpt lat="42.0494558" lon="13.1201375"><ele>1031.0</ele><time>2026-05-03T08:09:36.085Z</time></trkpt><trkpt lat="42.0494211" lon="13.1202493"><ele>1035.6</ele><time>2026-05-03T08:09:37.084Z</time></trkpt><trkpt lat="42.0493882" lon="13.1203685"><ele>1040.1999999999998</ele><time>2026-05-03T08:09:38.083Z</time></trkpt><trkpt lat="42.0493518" lon="13.120482"><ele>1044.8000000000002</ele><time>2026-05-03T08:09:39.088Z</time></trkpt><trkpt lat="42.0493148" lon="13.1206169"><ele>1049.4</ele><time>2026-05-03T08:09:40.086Z</time></trkpt><trkpt lat="42.049271" lon="13.1207562"><ele>1054.0</ele><time>2026-05-03T08:09:41.108Z</time></trkpt><trkpt lat="42.0492226" lon="13.1209011"><ele>1051.0</ele><time>2026-05-03T08:09:42.084Z</time></trkpt><trkpt lat="42.049173" lon="13.1210425"><ele>1048.0</ele><time>2026-05-03T08:09:43.087Z</time></trkpt><trkpt lat="42.0491307" lon="13.1211657"><ele>1045.0</ele><time>2026-05-03T08:09:44.076Z</time></trkpt><trkpt lat="42.0490916" lon="13.121273"><ele>1042.0</ele><time>2026-05-03T08:09:45.082Z</time></trkpt><trkpt lat="42.0490561" lon="13.1213822"><ele>1039.0</ele><time>2026-05-03T08:09:46.083Z</time></trkpt><trkpt lat="42.0490232" lon="13.12148"><ele>1042.0</ele><time>2026-05-03T08:09:47.076Z</time></trkpt><trkpt lat="42.0489855" lon="13.1215727"><ele>1045.0</ele><time>2026-05-03T08:09:48.086Z</time></trkpt><trkpt lat="42.0489537" lon="13.1216558"><ele>1048.0</ele><time>2026-05-03T08:09:49.081Z</time></trkpt><trkpt lat="42.048918" lon="13.1217432"><ele>1051.0</ele><time>2026-05-03T08:09:50.094Z</time></trkpt><trkpt lat="42.048876" lon="13.1218382"><ele>1054.0</ele><time>2026-05-03T08:09:51.084Z</time></trkpt><trkpt lat="42.0488342" lon="13.1219374"><ele>1057.0</ele><time>2026-05-03T08:09:52.078Z</time></trkpt><trkpt lat="42.0488075" lon="13.1220455"><ele>1057.0</ele><time>2026-05-03T08:09:53.085Z</time></trkpt><trkpt lat="42.0487689" lon="13.1221608"><ele>1057.0</ele><time>2026-05-03T08:09:54.08Z</time></trkpt><trkpt lat="42.0487371" lon="13.1222746"><ele>1057.0</ele><time>2026-05-03T08:09:55.079Z</time></trkpt><trkpt lat="42.0487062" lon="13.1224019"><ele>1057.0</ele><time>2026-05-03T08:09:56.101Z</time></trkpt><trkpt lat="42.0486599" lon="13.1225572"><ele>1057.0</ele><time>2026-05-03T08:09:57.077Z</time></trkpt><trkpt lat="42.0486069" lon="13.1227266"><ele>1061.0</ele><time>2026-05-03T08:09:58.079Z</time></trkpt><trkpt lat="42.0485658" lon="13.1228957"><ele>1065.0</ele><time>2026-05-03T08:09:59.099Z</time></trkpt><trkpt lat="42.04853" lon="13.1230531"><ele>1069.0</ele><time>2026-05-03T08:10:00.075Z</time></trkpt><trkpt lat="42.0484912" lon="13.1232117"><ele>1073.0</ele><time>2026-05-03T08:10:01.078Z</time></trkpt><trkpt lat="42.0484431" lon="13.1233546"><ele>1070.75</ele><time>2026-05-03T08:10:02.077Z</time></trkpt><trkpt lat="42.0483858" lon="13.1234932"><ele>1068.5</ele><time>2026-05-03T08:10:03.074Z</time></trkpt><trkpt lat="42.0483321" lon="13.1236263"><ele>1066.25</ele><time>2026-05-03T08:10:04.071Z</time></trkpt><trkpt lat="42.0482725" lon="13.1237517"><ele>1064.0</ele><time>2026-05-03T08:10:05.082Z</time></trkpt><trkpt lat="42.0482159" lon="13.1238795"><ele>1064.0</ele><time>2026-05-03T08:10:06.076Z</time></trkpt><trkpt lat="42.048156" lon="13.1239979"><ele>1064.0</ele><time>2026-05-03T08:10:07.08Z</time></trkpt><trkpt lat="42.0480937" lon="13.1241013"><ele>1064.0</ele><time>2026-05-03T08:10:08.086Z</time></trkpt><trkpt lat="42.0480197" lon="13.1241787"><ele>1064.0</ele><time>2026-05-03T08:10:09.078Z</time></trkpt><trkpt lat="42.04795" lon="13.1242592"><ele>1064.0</ele><time>2026-05-03T08:10:10.104Z</time></trkpt><trkpt lat="42.0478843" lon="13.1243385"><ele>1068.5</ele><time>2026-05-03T08:10:11.085Z</time></trkpt><trkpt lat="42.0478321" lon="13.1244085"><ele>1073.0</ele><time>2026-05-03T08:10:12.08Z</time></trkpt><trkpt lat="42.0477782" lon="13.1244707"><ele>1077.5</ele><time>2026-05-03T08:10:13.082Z</time></trkpt><trkpt lat="42.0477152" lon="13.1245304"><ele>1082.0</ele><time>2026-05-03T08:10:14.079Z</time></trkpt><trkpt lat="42.047646" lon="13.1245855"><ele>1086.5</ele><time>2026-05-03T08:10:15.085Z</time></trkpt><trkpt lat="42.047576" lon="13.1246458"><ele>1091.0</ele><time>2026-05-03T08:10:16.085Z</time></trkpt><trkpt lat="42.0475034" lon="13.1247153"><ele>1090.6666666666667</ele><time>2026-05-03T08:10:17.116Z</time></trkpt><trkpt lat="42.0474189" lon="13.1247831"><ele>1090.3333333333335</ele><time>2026-05-03T08:10:18.084Z</time></trkpt><trkpt lat="42.0473328" lon="13.1248483"><ele>1090.0</ele><time>2026-05-03T08:10:19.084Z</time></trkpt><trkpt lat="42.0472526" lon="13.1249136"><ele>1089.6666666666667</ele><time>2026-05-03T08:10:20.086Z</time></trkpt><trkpt lat="42.0471869" lon="13.1249765"><ele>1089.3333333333333</ele><time>2026-05-03T08:10:21.078Z</time></trkpt><trkpt lat="42.0471395" lon="13.1250399"><ele>1089.0</ele><time>2026-05-03T08:10:22.131Z</time></trkpt><trkpt lat="42.0470966" lon="13.1251135"><ele>1089.0</ele><time>2026-05-03T08:10:23.087Z</time></trkpt><trkpt lat="42.0470563" lon="13.1252021"><ele>1089.0</ele><time>2026-05-03T08:10:24.086Z</time></trkpt><trkpt lat="42.0470363" lon="13.1252847"><ele>1089.0</ele><time>2026-05-03T08:10:25.082Z</time></trkpt><trkpt lat="42.0470577" lon="13.1254391"><ele>1089.0</ele><time>2026-05-03T08:10:27.086Z</time></trkpt><trkpt lat="42.0471052" lon="13.1255062"><ele>1089.0</ele><time>2026-05-03T08:10:28.082Z</time></trkpt><trkpt lat="42.0472213" lon="13.1255521"><ele>1089.0</ele><time>2026-05-03T08:10:30.084Z</time></trkpt><trkpt lat="42.047317" lon="13.1255988"><ele>1089.0</ele><time>2026-05-03T08:10:32.083Z</time></trkpt><trkpt lat="42.0473636" lon="13.1256954"><ele>1089.0</ele><time>2026-05-03T08:10:34.082Z</time></trkpt><trkpt lat="42.047353" lon="13.1258011"><ele>1089.0</ele><time>2026-05-03T08:10:36.083Z</time></trkpt><trkpt lat="42.0473498" lon="13.125943"><ele>1089.0</ele><time>2026-05-03T08:10:38.084Z</time></trkpt><trkpt lat="42.0473492" lon="13.126047"><ele>1089.0</ele><time>2026-05-03T08:10:39.082Z</time></trkpt><trkpt lat="42.047362" lon="13.1261546"><ele>1089.0</ele><time>2026-05-03T08:10:40.081Z</time></trkpt><trkpt lat="42.0473811" lon="13.126266"><ele>1090.6000000000001</ele><time>2026-05-03T08:10:41.084Z</time></trkpt><trkpt lat="42.0474304" lon="13.1263652"><ele>1092.2</ele><time>2026-05-03T08:10:42.087Z</time></trkpt><trkpt lat="42.0474889" lon="13.1264456"><ele>1093.8000000000002</ele><time>2026-05-03T08:10:43.083Z</time></trkpt><trkpt lat="42.0475659" lon="13.1265187"><ele>1095.4</ele><time>2026-05-03T08:10:44.082Z</time></trkpt><trkpt lat="42.047646" lon="13.1265749"><ele>1097.0</ele><time>2026-05-03T08:10:45.079Z</time></trkpt><trkpt lat="42.0477404" lon="13.1266203"><ele>1100.4</ele><time>2026-05-03T08:10:46.09Z</time></trkpt><trkpt lat="42.0478434" lon="13.1266546"><ele>1103.8000000000002</ele><time>2026-05-03T08:10:47.084Z</time></trkpt><trkpt lat="42.0479365" lon="13.1266845"><ele>1107.2</ele><time>2026-05-03T08:10:48.086Z</time></trkpt><trkpt lat="42.0480135" lon="13.1267333"><ele>1110.6000000000001</ele><time>2026-05-03T08:10:49.085Z</time></trkpt><trkpt lat="42.048072" lon="13.1267786"><ele>1114.0</ele><time>2026-05-03T08:10:50.1Z</time></trkpt><trkpt lat="42.0481505" lon="13.1268802"><ele>1114.0</ele><time>2026-05-03T08:10:52.077Z</time></trkpt><trkpt lat="42.048145" lon="13.1270494"><ele>1114.0</ele><time>2026-05-03T08:10:54.083Z</time></trkpt><trkpt lat="42.048117" lon="13.1271535"><ele>1114.0</ele><time>2026-05-03T08:10:55.075Z</time></trkpt><trkpt lat="42.0480777" lon="13.1272759"><ele>1114.0</ele><time>2026-05-03T08:10:56.103Z</time></trkpt><trkpt lat="42.0480325" lon="13.1274098"><ele>1114.0</ele><time>2026-05-03T08:10:57.085Z</time></trkpt><trkpt lat="42.0480002" lon="13.1275593"><ele>1114.2</ele><time>2026-05-03T08:10:58.081Z</time></trkpt><trkpt lat="42.0479854" lon="13.1276901"><ele>1114.4</ele><time>2026-05-03T08:10:59.083Z</time></trkpt><trkpt lat="42.0479667" lon="13.1277947"><ele>1114.6</ele><time>2026-05-03T08:11:00.079Z</time></trkpt><trkpt lat="42.0478759" lon="13.127912"><ele>1114.8</ele><time>2026-05-03T08:11:02.08Z</time></trkpt><trkpt lat="42.0478062" lon="13.1279491"><ele>1115.0</ele><time>2026-05-03T08:11:03.083Z</time></trkpt><trkpt lat="42.047724" lon="13.1279823"><ele>1115.0</ele><time>2026-05-03T08:11:04.07Z</time></trkpt><trkpt lat="42.0476532" lon="13.1280321"><ele>1115.0</ele><time>2026-05-03T08:11:05.087Z</time></trkpt><trkpt lat="42.047594" lon="13.1281125"><ele>1115.0</ele><time>2026-05-03T08:11:06.08Z</time></trkpt><trkpt lat="42.0475666" lon="13.1281998"><ele>1115.0</ele><time>2026-05-03T08:11:07.083Z</time></trkpt><trkpt lat="42.0475571" lon="13.128306"><ele>1115.0</ele><time>2026-05-03T08:11:08.074Z</time></trkpt><trkpt lat="42.0475475" lon="13.128435"><ele>1115.0</ele><time>2026-05-03T08:11:09.081Z</time></trkpt><trkpt lat="42.0475524" lon="13.1286054"><ele>1117.0</ele><time>2026-05-03T08:11:10.076Z</time></trkpt><trkpt lat="42.0475551" lon="13.1288028"><ele>1119.0</ele><time>2026-05-03T08:11:11.082Z</time></trkpt><trkpt lat="42.0475527" lon="13.1290172"><ele>1121.0</ele><time>2026-05-03T08:11:12.08Z</time></trkpt><trkpt lat="42.0475544" lon="13.12921"><ele>1123.0</ele><time>2026-05-03T08:11:13.083Z</time></trkpt><trkpt lat="42.0475617" lon="13.1293705"><ele>1123.6666666666665</ele><time>2026-05-03T08:11:14.075Z</time></trkpt><trkpt lat="42.0475618" lon="13.1295019"><ele>1124.3333333333333</ele><time>2026-05-03T08:11:15.089Z</time></trkpt><trkpt lat="42.0475539" lon="13.1296167"><ele>1125.0</ele><time>2026-05-03T08:11:16.078Z</time></trkpt><trkpt lat="42.047541" lon="13.1297112"><ele>1125.6666666666667</ele><time>2026-05-03T08:11:17.085Z</time></trkpt><trkpt lat="42.0475145" lon="13.1298033"><ele>1126.3333333333335</ele><time>2026-05-03T08:11:18.075Z</time></trkpt><trkpt lat="42.0474445" lon="13.1299007"><ele>1127.0</ele><time>2026-05-03T08:11:19.083Z</time></trkpt><trkpt lat="42.0473542" lon="13.1300227"><ele>1125.0</ele><time>2026-05-03T08:11:20.077Z</time></trkpt><trkpt lat="42.0472725" lon="13.1301677"><ele>1123.0</ele><time>2026-05-03T08:11:21.083Z</time></trkpt><trkpt lat="42.0471981" lon="13.1303351"><ele>1121.0</ele><time>2026-05-03T08:11:22.079Z</time></trkpt><trkpt lat="42.0471262" lon="13.1304997"><ele>1119.0</ele><time>2026-05-03T08:11:23.08Z</time></trkpt><trkpt lat="42.0470536" lon="13.1306394"><ele>1121.0</ele><time>2026-05-03T08:11:24.083Z</time></trkpt><trkpt lat="42.0469897" lon="13.1307634"><ele>1123.0</ele><time>2026-05-03T08:11:25.081Z</time></trkpt><trkpt lat="42.0469258" lon="13.1308786"><ele>1125.0</ele><time>2026-05-03T08:11:26.08Z</time></trkpt><trkpt lat="42.0468676" lon="13.1309871"><ele>1127.0</ele><time>2026-05-03T08:11:27.083Z</time></trkpt><trkpt lat="42.0468063" lon="13.131101"><ele>1129.0</ele><time>2026-05-03T08:11:28.08Z</time></trkpt><trkpt lat="42.0467454" lon="13.131225"><ele>1129.0</ele><time>2026-05-03T08:11:29.084Z</time></trkpt><trkpt lat="42.0466959" lon="13.1313647"><ele>1129.0</ele><time>2026-05-03T08:11:30.079Z</time></trkpt><trkpt lat="42.0466479" lon="13.1315271"><ele>1129.0</ele><time>2026-05-03T08:11:31.094Z</time></trkpt><trkpt lat="42.0466083" lon="13.1316807"><ele>1129.0</ele><time>2026-05-03T08:11:32.084Z</time></trkpt><trkpt lat="42.0465818" lon="13.1318173"><ele>1127.6000000000001</ele><time>2026-05-03T08:11:33.086Z</time></trkpt><trkpt lat="42.0465633" lon="13.131955"><ele>1126.2</ele><time>2026-05-03T08:11:34.087Z</time></trkpt><trkpt lat="42.0465636" lon="13.1320897"><ele>1124.8000000000002</ele><time>2026-05-03T08:11:35.081Z</time></trkpt><trkpt lat="42.0465642" lon="13.1322204"><ele>1123.4</ele><time>2026-05-03T08:11:36.082Z</time></trkpt><trkpt lat="42.0465463" lon="13.132348"><ele>1122.0</ele><time>2026-05-03T08:11:37.085Z</time></trkpt><trkpt lat="42.0465038" lon="13.1324429"><ele>1122.0</ele><time>2026-05-03T08:11:38.109Z</time></trkpt><trkpt lat="42.0464516" lon="13.1325344"><ele>1122.0</ele><time>2026-05-03T08:11:39.078Z</time></trkpt><trkpt lat="42.0464024" lon="13.1326407"><ele>1122.0</ele><time>2026-05-03T08:11:40.082Z</time></trkpt><trkpt lat="42.0463452" lon="13.1327501"><ele>1122.0</ele><time>2026-05-03T08:11:41.078Z</time></trkpt><trkpt lat="42.0463093" lon="13.132888"><ele>1122.0</ele><time>2026-05-03T08:11:42.085Z</time></trkpt><trkpt lat="42.0462866" lon="13.1330554"><ele>1123.6</ele><time>2026-05-03T08:11:43.082Z</time></trkpt><trkpt lat="42.0462773" lon="13.1332269"><ele>1125.2</ele><time>2026-05-03T08:11:44.109Z</time></trkpt><trkpt lat="42.0462662" lon="13.1333916"><ele>1126.8</ele><time>2026-05-03T08:11:45.081Z</time></trkpt><trkpt lat="42.0462528" lon="13.1335333"><ele>1128.4</ele><time>2026-05-03T08:11:46.084Z</time></trkpt><trkpt lat="42.0462395" lon="13.133654"><ele>1130.0</ele><time>2026-05-03T08:11:47.082Z</time></trkpt><trkpt lat="42.0462321" lon="13.1337483"><ele>1130.0</ele><time>2026-05-03T08:11:48.078Z</time></trkpt><trkpt lat="42.0462367" lon="13.1338376"><ele>1130.0</ele><time>2026-05-03T08:11:49.087Z</time></trkpt><trkpt lat="42.0462635" lon="13.1340155"><ele>1130.0</ele><time>2026-05-03T08:11:51.079Z</time></trkpt><trkpt lat="42.0462783" lon="13.1341221"><ele>1130.0</ele><time>2026-05-03T08:11:52.087Z</time></trkpt><trkpt lat="42.0463076" lon="13.1342264"><ele>1130.0</ele><time>2026-05-03T08:11:53.08Z</time></trkpt><trkpt lat="42.0463244" lon="13.1343465"><ele>1130.2</ele><time>2026-05-03T08:11:54.081Z</time></trkpt><trkpt lat="42.0463505" lon="13.13448"><ele>1130.4</ele><time>2026-05-03T08:11:55.08Z</time></trkpt><trkpt lat="42.0463757" lon="13.1346226"><ele>1130.6</ele><time>2026-05-03T08:11:56.092Z</time></trkpt><trkpt lat="42.0463944" lon="13.1347545"><ele>1130.8</ele><time>2026-05-03T08:11:57.081Z</time></trkpt><trkpt lat="42.046406" lon="13.1348803"><ele>1131.0</ele><time>2026-05-03T08:11:58.131Z</time></trkpt><trkpt lat="42.0464207" lon="13.1349966"><ele>1131.5</ele><time>2026-05-03T08:11:59.083Z</time></trkpt><trkpt lat="42.046423" lon="13.1351173"><ele>1132.0</ele><time>2026-05-03T08:12:00.082Z</time></trkpt><trkpt lat="42.0464153" lon="13.1352343"><ele>1132.5</ele><time>2026-05-03T08:12:01.084Z</time></trkpt><trkpt lat="42.046409" lon="13.1353473"><ele>1133.0</ele><time>2026-05-03T08:12:02.081Z</time></trkpt><trkpt lat="42.0464151" lon="13.135454"><ele>1133.5</ele><time>2026-05-03T08:12:03.087Z</time></trkpt><trkpt lat="42.0464357" lon="13.1355539"><ele>1134.0</ele><time>2026-05-03T08:12:04.099Z</time></trkpt><trkpt lat="42.0464638" lon="13.1356773"><ele>1135.75</ele><time>2026-05-03T08:12:05.083Z</time></trkpt><trkpt lat="42.0464904" lon="13.1358206"><ele>1137.5</ele><time>2026-05-03T08:12:06.083Z</time></trkpt><trkpt lat="42.0465134" lon="13.1359683"><ele>1139.25</ele><time>2026-05-03T08:12:07.084Z</time></trkpt><trkpt lat="42.0465329" lon="13.1361223"><ele>1141.0</ele><time>2026-05-03T08:12:08.082Z</time></trkpt><trkpt lat="42.0465566" lon="13.1362723"><ele>1141.0</ele><time>2026-05-03T08:12:09.108Z</time></trkpt><trkpt lat="42.0465756" lon="13.1364279"><ele>1141.0</ele><time>2026-05-03T08:12:10.083Z</time></trkpt><trkpt lat="42.0465894" lon="13.1365758"><ele>1141.0</ele><time>2026-05-03T08:12:11.084Z</time></trkpt><trkpt lat="42.0465861" lon="13.1367078"><ele>1141.0</ele><time>2026-05-03T08:12:12.079Z</time></trkpt><trkpt lat="42.0465731" lon="13.1368439"><ele>1141.0</ele><time>2026-05-03T08:12:13.082Z</time></trkpt><trkpt lat="42.0465469" lon="13.1369923"><ele>1142.5</ele><time>2026-05-03T08:12:14.085Z</time></trkpt><trkpt lat="42.0465147" lon="13.1371336"><ele>1144.0</ele><time>2026-05-03T08:12:15.08Z</time></trkpt><trkpt lat="42.0464863" lon="13.1372653"><ele>1145.5</ele><time>2026-05-03T08:12:16.079Z</time></trkpt><trkpt lat="42.046464" lon="13.137375"><ele>1147.0</ele><time>2026-05-03T08:12:17.08Z</time></trkpt><trkpt lat="42.0464456" lon="13.1374639"><ele>1148.5</ele><time>2026-05-03T08:12:18.087Z</time></trkpt><trkpt lat="42.0464408" lon="13.1375499"><ele>1150.0</ele><time>2026-05-03T08:12:19.078Z</time></trkpt><trkpt lat="42.0464517" lon="13.1376345"><ele>1151.3333333333333</ele><time>2026-05-03T08:12:20.079Z</time></trkpt><trkpt lat="42.0464853" lon="13.137711"><ele>1152.6666666666665</ele><time>2026-05-03T08:12:21.082Z</time></trkpt><trkpt lat="42.0465708" lon="13.1378171"><ele>1154.0</ele><time>2026-05-03T08:12:23.078Z</time></trkpt><trkpt lat="42.046599" lon="13.1378942"><ele>1155.3333333333333</ele><time>2026-05-03T08:12:24.081Z</time></trkpt><trkpt lat="42.0466307" lon="13.1379783"><ele>1156.6666666666667</ele><time>2026-05-03T08:12:25.089Z</time></trkpt><trkpt lat="42.0466657" lon="13.1380746"><ele>1158.0</ele><time>2026-05-03T08:12:26.078Z</time></trkpt><trkpt lat="42.0467003" lon="13.1381687"><ele>1158.4</ele><time>2026-05-03T08:12:27.087Z</time></trkpt><trkpt lat="42.0467271" lon="13.1382494"><ele>1158.8</ele><time>2026-05-03T08:12:28.078Z</time></trkpt><trkpt lat="42.0467627" lon="13.1383823"><ele>1159.2</ele><time>2026-05-03T08:12:30.082Z</time></trkpt><trkpt lat="42.0467165" lon="13.1385181"><ele>1159.6</ele><time>2026-05-03T08:12:32.079Z</time></trkpt><trkpt lat="42.0466389" lon="13.1386491"><ele>1160.0</ele><time>2026-05-03T08:12:34.082Z</time></trkpt><trkpt lat="42.0465892" lon="13.1387024"><ele>1160.0</ele><time>2026-05-03T08:12:35.074Z</time></trkpt><trkpt lat="42.0465419" lon="13.138774"><ele>1160.0</ele><time>2026-05-03T08:12:36.078Z</time></trkpt><trkpt lat="42.0464958" lon="13.1388635"><ele>1160.0</ele><time>2026-05-03T08:12:37.077Z</time></trkpt><trkpt lat="42.0464711" lon="13.1389856"><ele>1160.0</ele><time>2026-05-03T08:12:38.096Z</time></trkpt><trkpt lat="42.0464571" lon="13.1391275"><ele>1160.0</ele><time>2026-05-03T08:12:39.082Z</time></trkpt><trkpt lat="42.0464455" lon="13.1392804"><ele>1161.6</ele><time>2026-05-03T08:12:40.079Z</time></trkpt><trkpt lat="42.0464355" lon="13.1394249"><ele>1163.2</ele><time>2026-05-03T08:12:41.083Z</time></trkpt><trkpt lat="42.0464114" lon="13.1395765"><ele>1164.8</ele><time>2026-05-03T08:12:42.076Z</time></trkpt><trkpt lat="42.0463919" lon="13.1397229"><ele>1166.4</ele><time>2026-05-03T08:12:43.085Z</time></trkpt><trkpt lat="42.0463666" lon="13.1398535"><ele>1168.0</ele><time>2026-05-03T08:12:44.081Z</time></trkpt><trkpt lat="42.0463208" lon="13.1399785"><ele>1171.5</ele><time>2026-05-03T08:12:45.09Z</time></trkpt><trkpt lat="42.0462543" lon="13.1401005"><ele>1175.0</ele><time>2026-05-03T08:12:46.074Z</time></trkpt><trkpt lat="42.0461817" lon="13.1402402"><ele>1178.5</ele><time>2026-05-03T08:12:47.077Z</time></trkpt><trkpt lat="42.0461202" lon="13.1403943"><ele>1182.0</ele><time>2026-05-03T08:12:48.086Z</time></trkpt><trkpt lat="42.046071" lon="13.1405424"><ele>1182.0</ele><time>2026-05-03T08:12:49.076Z</time></trkpt><trkpt lat="42.0460325" lon="13.1406745"><ele>1182.0</ele><time>2026-05-03T08:12:50.076Z</time></trkpt><trkpt lat="42.0459942" lon="13.1407882"><ele>1182.0</ele><time>2026-05-03T08:12:51.079Z</time></trkpt><trkpt lat="42.0459481" lon="13.1408906"><ele>1182.0</ele><time>2026-05-03T08:12:52.082Z</time></trkpt><trkpt lat="42.0458983" lon="13.1409823"><ele>1182.0</ele><time>2026-05-03T08:12:53.077Z</time></trkpt><trkpt lat="42.0458403" lon="13.1410625"><ele>1181.8333333333333</ele><time>2026-05-03T08:12:54.08Z</time></trkpt><trkpt lat="42.0457738" lon="13.1411082"><ele>1181.6666666666667</ele><time>2026-05-03T08:12:55.079Z</time></trkpt><trkpt lat="42.0457054" lon="13.1411465"><ele>1181.5</ele><time>2026-05-03T08:12:56.078Z</time></trkpt><trkpt lat="42.0456237" lon="13.1412782"><ele>1181.3333333333335</ele><time>2026-05-03T08:12:58.083Z</time></trkpt><trkpt lat="42.045603" lon="13.1413594"><ele>1181.1666666666667</ele><time>2026-05-03T08:12:59.073Z</time></trkpt><trkpt lat="42.0455894" lon="13.1414492"><ele>1181.0</ele><time>2026-05-03T08:13:00.076Z</time></trkpt><trkpt lat="42.045559" lon="13.1416168"><ele>1181.0</ele><time>2026-05-03T08:13:02.072Z</time></trkpt><trkpt lat="42.0455459" lon="13.1417157"><ele>1181.0</ele><time>2026-05-03T08:13:03.084Z</time></trkpt><trkpt lat="42.0455364" lon="13.1418134"><ele>1181.0</ele><time>2026-05-03T08:13:04.082Z</time></trkpt><trkpt lat="42.0455273" lon="13.1419216"><ele>1181.0</ele><time>2026-05-03T08:13:05.094Z</time></trkpt><trkpt lat="42.0455186" lon="13.1420267"><ele>1181.0</ele><time>2026-05-03T08:13:06.081Z</time></trkpt><trkpt lat="42.0455078" lon="13.142141"><ele>1181.0</ele><time>2026-05-03T08:13:07.084Z</time></trkpt><trkpt lat="42.0454893" lon="13.1422684"><ele>1184.0</ele><time>2026-05-03T08:13:08.078Z</time></trkpt><trkpt lat="42.0454645" lon="13.1424052"><ele>1187.0</ele><time>2026-05-03T08:13:09.08Z</time></trkpt><trkpt lat="42.0454123" lon="13.1425529"><ele>1190.0</ele><time>2026-05-03T08:13:10.079Z</time></trkpt><trkpt lat="42.0453411" lon="13.1427318"><ele>1193.0</ele><time>2026-05-03T08:13:11.076Z</time></trkpt><trkpt lat="42.0452638" lon="13.1428971"><ele>1193.0</ele><time>2026-05-03T08:13:12.104Z</time></trkpt><trkpt lat="42.0451874" lon="13.1430573"><ele>1193.0</ele><time>2026-05-03T08:13:13.077Z</time></trkpt><trkpt lat="42.0451158" lon="13.1431974"><ele>1193.0</ele><time>2026-05-03T08:13:14.079Z</time></trkpt><trkpt lat="42.0450485" lon="13.1433432"><ele>1193.0</ele><time>2026-05-03T08:13:15.074Z</time></trkpt><trkpt lat="42.0449889" lon="13.1434924"><ele>1191.8</ele><time>2026-05-03T08:13:16.078Z</time></trkpt><trkpt lat="42.0449338" lon="13.1436282"><ele>1190.6</ele><time>2026-05-03T08:13:17.079Z</time></trkpt><trkpt lat="42.0448697" lon="13.1437621"><ele>1189.4</ele><time>2026-05-03T08:13:18.077Z</time></trkpt><trkpt lat="42.044812" lon="13.1438802"><ele>1188.2</ele><time>2026-05-03T08:13:19.119Z</time></trkpt><trkpt lat="42.0447506" lon="13.1439808"><ele>1187.0</ele><time>2026-05-03T08:13:20.079Z</time></trkpt><trkpt lat="42.0446824" lon="13.144079"><ele>1190.4</ele><time>2026-05-03T08:13:21.077Z</time></trkpt><trkpt lat="42.0446168" lon="13.1441754"><ele>1193.8000000000002</ele><time>2026-05-03T08:13:22.079Z</time></trkpt><trkpt lat="42.0445524" lon="13.1442808"><ele>1197.2</ele><time>2026-05-03T08:13:23.077Z</time></trkpt><trkpt lat="42.0444907" lon="13.1443938"><ele>1200.6000000000001</ele><time>2026-05-03T08:13:24.075Z</time></trkpt><trkpt lat="42.0444383" lon="13.1445071"><ele>1204.0</ele><time>2026-05-03T08:13:25.078Z</time></trkpt><trkpt lat="42.0443773" lon="13.1446283"><ele>1204.0</ele><time>2026-05-03T08:13:26.078Z</time></trkpt><trkpt lat="42.0443099" lon="13.1447465"><ele>1204.0</ele><time>2026-05-03T08:13:27.073Z</time></trkpt><trkpt lat="42.0442361" lon="13.1448476"><ele>1204.0</ele><time>2026-05-03T08:13:28.103Z</time></trkpt><trkpt lat="42.0441667" lon="13.1449403"><ele>1204.0</ele><time>2026-05-03T08:13:29.077Z</time></trkpt><trkpt lat="42.0440913" lon="13.1450077"><ele>1204.0</ele><time>2026-05-03T08:13:30.081Z</time></trkpt><trkpt lat="42.044009" lon="13.1450649"><ele>1204.2</ele><time>2026-05-03T08:13:31.086Z</time></trkpt><trkpt lat="42.043923" lon="13.1451151"><ele>1204.4</ele><time>2026-05-03T08:13:32.084Z</time></trkpt><trkpt lat="42.0438459" lon="13.1451907"><ele>1204.6</ele><time>2026-05-03T08:13:33.084Z</time></trkpt><trkpt lat="42.0437887" lon="13.1452875"><ele>1204.8</ele><time>2026-05-03T08:13:34.08Z</time></trkpt><trkpt lat="42.0437362" lon="13.1453863"><ele>1205.0</ele><time>2026-05-03T08:13:35.079Z</time></trkpt><trkpt lat="42.0436854" lon="13.1454997"><ele>1205.0</ele><time>2026-05-03T08:13:36.084Z</time></trkpt><trkpt lat="42.0436196" lon="13.1456017"><ele>1205.0</ele><time>2026-05-03T08:13:37.113Z</time></trkpt><trkpt lat="42.0435428" lon="13.1456863"><ele>1205.0</ele><time>2026-05-03T08:13:38.082Z</time></trkpt><trkpt lat="42.0434586" lon="13.1457537"><ele>1205.0</ele><time>2026-05-03T08:13:39.084Z</time></trkpt><trkpt lat="42.0433819" lon="13.145833"><ele>1205.0</ele><time>2026-05-03T08:13:40.08Z</time></trkpt><trkpt lat="42.0433169" lon="13.1459078"><ele>1205.25</ele><time>2026-05-03T08:13:41.081Z</time></trkpt><trkpt lat="42.0432594" lon="13.1460196"><ele>1205.5</ele><time>2026-05-03T08:13:42.08Z</time></trkpt><trkpt lat="42.0431996" lon="13.1461718"><ele>1205.75</ele><time>2026-05-03T08:13:43.082Z</time></trkpt><trkpt lat="42.0431275" lon="13.1463681"><ele>1206.0</ele><time>2026-05-03T08:13:44.078Z</time></trkpt><trkpt lat="42.0430441" lon="13.1465685"><ele>1206.0</ele><time>2026-05-03T08:13:45.085Z</time></trkpt><trkpt lat="42.0429809" lon="13.1467338"><ele>1206.0</ele><time>2026-05-03T08:13:46.101Z</time></trkpt><trkpt lat="42.0429014" lon="13.1468714"><ele>1206.0</ele><time>2026-05-03T08:13:47.082Z</time></trkpt><trkpt lat="42.0428309" lon="13.1469983"><ele>1206.0</ele><time>2026-05-03T08:13:48.079Z</time></trkpt><trkpt lat="42.0427449" lon="13.1471269"><ele>1206.0</ele><time>2026-05-03T08:13:49.08Z</time></trkpt><trkpt lat="42.0426534" lon="13.1472464"><ele>1206.0</ele><time>2026-05-03T08:13:50.079Z</time></trkpt><trkpt lat="42.042555" lon="13.1473558"><ele>1206.0</ele><time>2026-05-03T08:13:51.08Z</time></trkpt><trkpt lat="42.0424546" lon="13.1474612"><ele>1206.0</ele><time>2026-05-03T08:13:52.08Z</time></trkpt><trkpt lat="42.0423494" lon="13.1475527"><ele>1204.8</ele><time>2026-05-03T08:13:53.108Z</time></trkpt><trkpt lat="42.0422375" lon="13.1476435"><ele>1203.6</ele><time>2026-05-03T08:13:54.074Z</time></trkpt><trkpt lat="42.0421289" lon="13.1477213"><ele>1202.4</ele><time>2026-05-03T08:13:55.08Z</time></trkpt><trkpt lat="42.0420463" lon="13.1477801"><ele>1201.2</ele><time>2026-05-03T08:13:56.078Z</time></trkpt><trkpt lat="42.0419755" lon="13.14783"><ele>1200.0</ele><time>2026-05-03T08:13:57.073Z</time></trkpt><trkpt lat="42.0419154" lon="13.1478744"><ele>1200.0</ele><time>2026-05-03T08:13:58.075Z</time></trkpt><trkpt lat="42.0418471" lon="13.1479473"><ele>1200.0</ele><time>2026-05-03T08:13:59.083Z</time></trkpt><trkpt lat="42.0417612" lon="13.1480815"><ele>1200.0</ele><time>2026-05-03T08:14:00.081Z</time></trkpt><trkpt lat="42.0416523" lon="13.1482491"><ele>1200.0</ele><time>2026-05-03T08:14:01.119Z</time></trkpt><trkpt lat="42.0415396" lon="13.1483686"><ele>1198.5</ele><time>2026-05-03T08:14:02.08Z</time></trkpt><trkpt lat="42.0414556" lon="13.1484789"><ele>1197.0</ele><time>2026-05-03T08:14:03.076Z</time></trkpt><trkpt lat="42.0413659" lon="13.148577"><ele>1195.5</ele><time>2026-05-03T08:14:04.081Z</time></trkpt><trkpt lat="42.0412906" lon="13.1486929"><ele>1194.0</ele><time>2026-05-03T08:14:05.079Z</time></trkpt><trkpt lat="42.0412122" lon="13.1488268"><ele>1194.0</ele><time>2026-05-03T08:14:06.078Z</time></trkpt><trkpt lat="42.0411373" lon="13.148959"><ele>1194.0</ele><time>2026-05-03T08:14:07.082Z</time></trkpt><trkpt lat="42.0410707" lon="13.1490752"><ele>1194.0</ele><time>2026-05-03T08:14:08.101Z</time></trkpt><trkpt lat="42.0410282" lon="13.1491905"><ele>1194.0</ele><time>2026-05-03T08:14:09.083Z</time></trkpt><trkpt lat="42.0409938" lon="13.1492941"><ele>1194.0</ele><time>2026-05-03T08:14:10.077Z</time></trkpt><trkpt lat="42.0409677" lon="13.1493931"><ele>1197.0</ele><time>2026-05-03T08:14:11.079Z</time></trkpt><trkpt lat="42.0409684" lon="13.1494921"><ele>1200.0</ele><time>2026-05-03T08:14:12.082Z</time></trkpt><trkpt lat="42.0409812" lon="13.1496053"><ele>1203.0</ele><time>2026-05-03T08:14:13.087Z</time></trkpt><trkpt lat="42.0409851" lon="13.149708"><ele>1206.0</ele><time>2026-05-03T08:14:14.084Z</time></trkpt><trkpt lat="42.0409666" lon="13.1498091"><ele>1209.0</ele><time>2026-05-03T08:14:15.087Z</time></trkpt><trkpt lat="42.0409345" lon="13.1499133"><ele>1212.0</ele><time>2026-05-03T08:14:16.078Z</time></trkpt><trkpt lat="42.0408889" lon="13.1500134"><ele>1209.75</ele><time>2026-05-03T08:14:17.073Z</time></trkpt><trkpt lat="42.0408102" lon="13.1501109"><ele>1207.5</ele><time>2026-05-03T08:14:18.088Z</time></trkpt><trkpt lat="42.040711" lon="13.1502218"><ele>1205.25</ele><time>2026-05-03T08:14:19.08Z</time></trkpt><trkpt lat="42.0406132" lon="13.1503505"><ele>1203.0</ele><time>2026-05-03T08:14:20.079Z</time></trkpt><trkpt lat="42.0405186" lon="13.1504852"><ele>1203.0</ele><time>2026-05-03T08:14:21.099Z</time></trkpt><trkpt lat="42.0404361" lon="13.1506168"><ele>1203.0</ele><time>2026-05-03T08:14:22.08Z</time></trkpt><trkpt lat="42.040359" lon="13.1507452"><ele>1203.0</ele><time>2026-05-03T08:14:23.079Z</time></trkpt><trkpt lat="42.0402829" lon="13.1508782"><ele>1203.0</ele><time>2026-05-03T08:14:24.084Z</time></trkpt><trkpt lat="42.0402082" lon="13.1510002"><ele>1201.25</ele><time>2026-05-03T08:14:25.078Z</time></trkpt><trkpt lat="42.0401226" lon="13.1511145"><ele>1199.5</ele><time>2026-05-03T08:14:26.081Z</time></trkpt><trkpt lat="42.0400364" lon="13.1512517"><ele>1197.75</ele><time>2026-05-03T08:14:27.076Z</time></trkpt><trkpt lat="42.0399614" lon="13.1513802"><ele>1196.0</ele><time>2026-05-03T08:14:28.075Z</time></trkpt><trkpt lat="42.0398915" lon="13.1514885"><ele>1200.2</ele><time>2026-05-03T08:14:29.078Z</time></trkpt><trkpt lat="42.0398086" lon="13.1515724"><ele>1204.3999999999999</ele><time>2026-05-03T08:14:30.077Z</time></trkpt><trkpt lat="42.0397212" lon="13.1516041"><ele>1208.6</ele><time>2026-05-03T08:14:31.071Z</time></trkpt><trkpt lat="42.0396262" lon="13.1516278"><ele>1212.8</ele><time>2026-05-03T08:14:32.104Z</time></trkpt><trkpt lat="42.0395348" lon="13.1516507"><ele>1217.0</ele><time>2026-05-03T08:14:33.078Z</time></trkpt><trkpt lat="42.0394437" lon="13.1516797"><ele>1217.0</ele><time>2026-05-03T08:14:34.079Z</time></trkpt><trkpt lat="42.039361" lon="13.151732"><ele>1217.0</ele><time>2026-05-03T08:14:35.076Z</time></trkpt><trkpt lat="42.039281" lon="13.1518204"><ele>1217.0</ele><time>2026-05-03T08:14:36.077Z</time></trkpt><trkpt lat="42.039198" lon="13.1519276"><ele>1217.0</ele><time>2026-05-03T08:14:37.086Z</time></trkpt><trkpt lat="42.0391005" lon="13.1520475"><ele>1217.0</ele><time>2026-05-03T08:14:38.08Z</time></trkpt><trkpt lat="42.0389775" lon="13.1521618"><ele>1215.5</ele><time>2026-05-03T08:14:39.08Z</time></trkpt><trkpt lat="42.0388391" lon="13.1522741"><ele>1214.0</ele><time>2026-05-03T08:14:40.102Z</time></trkpt><trkpt lat="42.0387193" lon="13.1523711"><ele>1212.5</ele><time>2026-05-03T08:14:41.083Z</time></trkpt><trkpt lat="42.0386001" lon="13.1524555"><ele>1211.0</ele><time>2026-05-03T08:14:42.081Z</time></trkpt><trkpt lat="42.0384698" lon="13.1525323"><ele>1214.75</ele><time>2026-05-03T08:14:43.077Z</time></trkpt><trkpt lat="42.0383388" lon="13.1526022"><ele>1218.5</ele><time>2026-05-03T08:14:44.08Z</time></trkpt><trkpt lat="42.0381974" lon="13.1526882"><ele>1222.25</ele><time>2026-05-03T08:14:45.08Z</time></trkpt><trkpt lat="42.0380681" lon="13.15278"><ele>1226.0</ele><time>2026-05-03T08:14:46.084Z</time></trkpt><trkpt lat="42.0379411" lon="13.1528544"><ele>1226.0</ele><time>2026-05-03T08:14:47.099Z</time></trkpt><trkpt lat="42.03783" lon="13.1529099"><ele>1226.0</ele><time>2026-05-03T08:14:48.08Z</time></trkpt><trkpt lat="42.0377406" lon="13.1529619"><ele>1226.0</ele><time>2026-05-03T08:14:49.081Z</time></trkpt><trkpt lat="42.0376529" lon="13.1530204"><ele>1226.0</ele><time>2026-05-03T08:14:50.082Z</time></trkpt><trkpt lat="42.0375586" lon="13.1530577"><ele>1226.0</ele><time>2026-05-03T08:14:51.077Z</time></trkpt><trkpt lat="42.0374667" lon="13.1530672"><ele>1225.0</ele><time>2026-05-03T08:14:52.077Z</time></trkpt><trkpt lat="42.0373917" lon="13.1530543"><ele>1224.0</ele><time>2026-05-03T08:14:53.078Z</time></trkpt><trkpt lat="42.0372937" lon="13.1529619"><ele>1223.0</ele><time>2026-05-03T08:14:55.078Z</time></trkpt><trkpt lat="42.0372417" lon="13.1528242"><ele>1222.0</ele><time>2026-05-03T08:14:57.089Z</time></trkpt><trkpt lat="42.037174" lon="13.1527359"><ele>1221.0</ele><time>2026-05-03T08:14:59.076Z</time></trkpt><trkpt lat="42.0370599" lon="13.1527553"><ele>1221.0</ele><time>2026-05-03T08:15:01.075Z</time></trkpt><trkpt lat="42.0369943" lon="13.1527888"><ele>1221.0</ele><time>2026-05-03T08:15:02.073Z</time></trkpt><trkpt lat="42.0369221" lon="13.1528314"><ele>1221.0</ele><time>2026-05-03T08:15:03.073Z</time></trkpt><trkpt lat="42.0368692" lon="13.1528865"><ele>1221.0</ele><time>2026-05-03T08:15:04.081Z</time></trkpt><trkpt lat="42.0368319" lon="13.1529709"><ele>1221.0</ele><time>2026-05-03T08:15:05.084Z</time></trkpt><trkpt lat="42.0368106" lon="13.153077"><ele>1221.0</ele><time>2026-05-03T08:15:06.082Z</time></trkpt><trkpt lat="42.0367979" lon="13.1532147"><ele>1223.0</ele><time>2026-05-03T08:15:07.083Z</time></trkpt><trkpt lat="42.0367896" lon="13.1533464"><ele>1225.0</ele><time>2026-05-03T08:15:08.076Z</time></trkpt><trkpt lat="42.0367564" lon="13.1534754"><ele>1227.0</ele><time>2026-05-03T08:15:09.076Z</time></trkpt><trkpt lat="42.0367046" lon="13.1535892"><ele>1229.0</ele><time>2026-05-03T08:15:10.115Z</time></trkpt><trkpt lat="42.0366499" lon="13.1537074"><ele>1231.0</ele><time>2026-05-03T08:15:11.076Z</time></trkpt><trkpt lat="42.036586" lon="13.1538424"><ele>1231.0</ele><time>2026-05-03T08:15:12.079Z</time></trkpt><trkpt lat="42.0365394" lon="13.1539584"><ele>1231.0</ele><time>2026-05-03T08:15:13.087Z</time></trkpt><trkpt lat="42.0365019" lon="13.1540544"><ele>1231.0</ele><time>2026-05-03T08:15:14.08Z</time></trkpt><trkpt lat="42.036463" lon="13.1541238"><ele>1231.0</ele><time>2026-05-03T08:15:15.11Z</time></trkpt><trkpt lat="42.0363388" lon="13.1541921"><ele>1231.0</ele><time>2026-05-03T08:15:17.078Z</time></trkpt><trkpt lat="42.0362468" lon="13.1541996"><ele>1230.6</ele><time>2026-05-03T08:15:18.077Z</time></trkpt><trkpt lat="42.0361574" lon="13.1542119"><ele>1230.1999999999998</ele><time>2026-05-03T08:15:19.074Z</time></trkpt><trkpt lat="42.0360645" lon="13.154256"><ele>1229.8000000000002</ele><time>2026-05-03T08:15:20.079Z</time></trkpt><trkpt lat="42.0359807" lon="13.1543502"><ele>1229.4</ele><time>2026-05-03T08:15:21.076Z</time></trkpt><trkpt lat="42.0358753" lon="13.1544573"><ele>1229.0</ele><time>2026-05-03T08:15:22.08Z</time></trkpt><trkpt lat="42.0357668" lon="13.154566"><ele>1229.0</ele><time>2026-05-03T08:15:23.075Z</time></trkpt><trkpt lat="42.0356591" lon="13.1546508"><ele>1229.0</ele><time>2026-05-03T08:15:24.104Z</time></trkpt><trkpt lat="42.0355566" lon="13.1547511"><ele>1229.0</ele><time>2026-05-03T08:15:25.081Z</time></trkpt><trkpt lat="42.0354636" lon="13.1548373"><ele>1229.0</ele><time>2026-05-03T08:15:26.081Z</time></trkpt><trkpt lat="42.0353757" lon="13.1549178"><ele>1230.2</ele><time>2026-05-03T08:15:27.078Z</time></trkpt><trkpt lat="42.0353045" lon="13.1550107"><ele>1231.4</ele><time>2026-05-03T08:15:28.079Z</time></trkpt><trkpt lat="42.0352557" lon="13.1551191"><ele>1232.6</ele><time>2026-05-03T08:15:29.083Z</time></trkpt><trkpt lat="42.0352092" lon="13.1552472"><ele>1233.8</ele><time>2026-05-03T08:15:30.08Z</time></trkpt><trkpt lat="42.0351672" lon="13.1553814"><ele>1235.0</ele><time>2026-05-03T08:15:31.073Z</time></trkpt><trkpt lat="42.0351341" lon="13.1555088"><ele>1235.0</ele><time>2026-05-03T08:15:32.083Z</time></trkpt><trkpt lat="42.0351121" lon="13.1556204"><ele>1235.0</ele><time>2026-05-03T08:15:33.078Z</time></trkpt><trkpt lat="42.0350994" lon="13.1557385"><ele>1235.0</ele><time>2026-05-03T08:15:34.081Z</time></trkpt><trkpt lat="42.0350778" lon="13.1558299"><ele>1235.0</ele><time>2026-05-03T08:15:35.076Z</time></trkpt><trkpt lat="42.0350381" lon="13.1559018"><ele>1235.0</ele><time>2026-05-03T08:15:36.076Z</time></trkpt><trkpt lat="42.0349833" lon="13.1559589"><ele>1235.0</ele><time>2026-05-03T08:15:37.074Z</time></trkpt><trkpt lat="42.0349222" lon="13.1560394"><ele>1237.25</ele><time>2026-05-03T08:15:38.071Z</time></trkpt><trkpt lat="42.0348582" lon="13.1561589"><ele>1239.5</ele><time>2026-05-03T08:15:39.08Z</time></trkpt><trkpt lat="42.034801" lon="13.1563013"><ele>1241.75</ele><time>2026-05-03T08:15:40.084Z</time></trkpt><trkpt lat="42.0347498" lon="13.156448"><ele>1244.0</ele><time>2026-05-03T08:15:41.078Z</time></trkpt><trkpt lat="42.0347225" lon="13.1565966"><ele>1244.75</ele><time>2026-05-03T08:15:42.077Z</time></trkpt><trkpt lat="42.0346909" lon="13.1567243"><ele>1245.5</ele><time>2026-05-03T08:15:43.074Z</time></trkpt><trkpt lat="42.0346458" lon="13.1568517"><ele>1246.25</ele><time>2026-05-03T08:15:44.08Z</time></trkpt><trkpt lat="42.0345803" lon="13.1569863"><ele>1247.0</ele><time>2026-05-03T08:15:45.076Z</time></trkpt><trkpt lat="42.0344758" lon="13.1571152"><ele>1247.0</ele><time>2026-05-03T08:15:46.077Z</time></trkpt><trkpt lat="42.0343585" lon="13.1572535"><ele>1247.0</ele><time>2026-05-03T08:15:47.08Z</time></trkpt><trkpt lat="42.034262" lon="13.1573947"><ele>1247.0</ele><time>2026-05-03T08:15:48.071Z</time></trkpt><trkpt lat="42.0341899" lon="13.1575275"><ele>1247.0</ele><time>2026-05-03T08:15:49.075Z</time></trkpt><trkpt lat="42.0341119" lon="13.1576467"><ele>1248.0</ele><time>2026-05-03T08:15:50.087Z</time></trkpt><trkpt lat="42.0340303" lon="13.1577548"><ele>1249.0</ele><time>2026-05-03T08:15:51.083Z</time></trkpt><trkpt lat="42.0339631" lon="13.1578642"><ele>1250.0</ele><time>2026-05-03T08:15:52.077Z</time></trkpt><trkpt lat="42.0339004" lon="13.1579855"><ele>1251.0</ele><time>2026-05-03T08:15:53.083Z</time></trkpt><trkpt lat="42.0338584" lon="13.1581135"><ele>1252.0</ele><time>2026-05-03T08:15:54.082Z</time></trkpt><trkpt lat="42.0338371" lon="13.1582435"><ele>1252.0</ele><time>2026-05-03T08:15:55.078Z</time></trkpt><trkpt lat="42.033831" lon="13.1583954"><ele>1252.0</ele><time>2026-05-03T08:15:56.076Z</time></trkpt><trkpt lat="42.0338331" lon="13.158548"><ele>1252.0</ele><time>2026-05-03T08:15:57.071Z</time></trkpt><trkpt lat="42.033824" lon="13.1587099"><ele>1252.0</ele><time>2026-05-03T08:15:58.075Z</time></trkpt><trkpt lat="42.0337915" lon="13.1588602"><ele>1252.0</ele><time>2026-05-03T08:15:59.079Z</time></trkpt><trkpt lat="42.0337319" lon="13.1590131"><ele>1252.0</ele><time>2026-05-03T08:16:00.08Z</time></trkpt><trkpt lat="42.0336636" lon="13.1591595"><ele>1252.0</ele><time>2026-05-03T08:16:01.076Z</time></trkpt><trkpt lat="42.0335912" lon="13.1592997"><ele>1252.0</ele><time>2026-05-03T08:16:02.073Z</time></trkpt><trkpt lat="42.0335094" lon="13.1594433"><ele>1252.0</ele><time>2026-05-03T08:16:03.078Z</time></trkpt><trkpt lat="42.0334311" lon="13.1595758"><ele>1252.0</ele><time>2026-05-03T08:16:04.075Z</time></trkpt><trkpt lat="42.0333568" lon="13.159685"><ele>1252.0</ele><time>2026-05-03T08:16:05.074Z</time></trkpt><trkpt lat="42.0332825" lon="13.1597817"><ele>1252.0</ele><time>2026-05-03T08:16:06.077Z</time></trkpt><trkpt lat="42.0332042" lon="13.1598605"><ele>1252.0</ele><time>2026-05-03T08:16:07.078Z</time></trkpt><trkpt lat="42.0331157" lon="13.1599067"><ele>1255.0</ele><time>2026-05-03T08:16:08.076Z</time></trkpt><trkpt lat="42.033008" lon="13.1599436"><ele>1258.0</ele><time>2026-05-03T08:16:09.078Z</time></trkpt><trkpt lat="42.0328949" lon="13.1599854"><ele>1261.0</ele><time>2026-05-03T08:16:10.079Z</time></trkpt><trkpt lat="42.0327963" lon="13.1600452"><ele>1264.0</ele><time>2026-05-03T08:16:11.079Z</time></trkpt><trkpt lat="42.0326958" lon="13.1601307"><ele>1264.0</ele><time>2026-05-03T08:16:12.078Z</time></trkpt><trkpt lat="42.0325919" lon="13.1602469"><ele>1264.0</ele><time>2026-05-03T08:16:13.08Z</time></trkpt><trkpt lat="42.0324872" lon="13.1603753"><ele>1264.0</ele><time>2026-05-03T08:16:14.074Z</time></trkpt><trkpt lat="42.0323922" lon="13.160501"><ele>1264.0</ele><time>2026-05-03T08:16:15.081Z</time></trkpt><trkpt lat="42.0322982" lon="13.1606308"><ele>1267.5</ele><time>2026-05-03T08:16:16.083Z</time></trkpt><trkpt lat="42.0322143" lon="13.1607754"><ele>1271.0</ele><time>2026-05-03T08:16:17.083Z</time></trkpt><trkpt lat="42.0321158" lon="13.1609163"><ele>1274.5</ele><time>2026-05-03T08:16:18.083Z</time></trkpt><trkpt lat="42.0320012" lon="13.1610548"><ele>1278.0</ele><time>2026-05-03T08:16:19.085Z</time></trkpt><trkpt lat="42.0318787" lon="13.1611746"><ele>1278.0</ele><time>2026-05-03T08:16:20.074Z</time></trkpt><trkpt lat="42.0317612" lon="13.1612815"><ele>1278.0</ele><time>2026-05-03T08:16:21.082Z</time></trkpt><trkpt lat="42.0316792" lon="13.1613677"><ele>1278.0</ele><time>2026-05-03T08:16:22.077Z</time></trkpt><trkpt lat="42.0316069" lon="13.1614652"><ele>1278.0</ele><time>2026-05-03T08:16:23.081Z</time></trkpt><trkpt lat="42.0315511" lon="13.1615721"><ele>1278.0</ele><time>2026-05-03T08:16:24.079Z</time></trkpt><trkpt lat="42.03151" lon="13.1617039"><ele>1282.0</ele><time>2026-05-03T08:16:25.078Z</time></trkpt><trkpt lat="42.0314676" lon="13.1618541"><ele>1286.0</ele><time>2026-05-03T08:16:26.082Z</time></trkpt><trkpt lat="42.0314122" lon="13.1619994"><ele>1290.0</ele><time>2026-05-03T08:16:27.081Z</time></trkpt><trkpt lat="42.0313438" lon="13.1621383"><ele>1294.0</ele><time>2026-05-03T08:16:28.124Z</time></trkpt><trkpt lat="42.0312484" lon="13.1622584"><ele>1290.25</ele><time>2026-05-03T08:16:29.08Z</time></trkpt><trkpt lat="42.0311407" lon="13.1623733"><ele>1286.5</ele><time>2026-05-03T08:16:30.082Z</time></trkpt><trkpt lat="42.0310404" lon="13.1624844"><ele>1282.75</ele><time>2026-05-03T08:16:31.079Z</time></trkpt><trkpt lat="42.0309306" lon="13.1625737"><ele>1279.0</ele><time>2026-05-03T08:16:32.08Z</time></trkpt><trkpt lat="42.0308253" lon="13.1626731"><ele>1284.75</ele><time>2026-05-03T08:16:33.081Z</time></trkpt><trkpt lat="42.0307333" lon="13.162777"><ele>1290.5</ele><time>2026-05-03T08:16:34.082Z</time></trkpt><trkpt lat="42.0306499" lon="13.162901"><ele>1296.25</ele><time>2026-05-03T08:16:35.082Z</time></trkpt><trkpt lat="42.0305821" lon="13.1630427"><ele>1302.0</ele><time>2026-05-03T08:16:36.082Z</time></trkpt><trkpt lat="42.0305133" lon="13.1631973"><ele>1298.25</ele><time>2026-05-03T08:16:37.084Z</time></trkpt><trkpt lat="42.0304127" lon="13.1633391"><ele>1294.5</ele><time>2026-05-03T08:16:38.08Z</time></trkpt><trkpt lat="42.0303049" lon="13.163477"><ele>1290.75</ele><time>2026-05-03T08:16:39.079Z</time></trkpt><trkpt lat="42.0302085" lon="13.1636029"><ele>1287.0</ele><time>2026-05-03T08:16:40.079Z</time></trkpt><trkpt lat="42.0301025" lon="13.1637089"><ele>1287.0</ele><time>2026-05-03T08:16:41.078Z</time></trkpt><trkpt lat="42.0299949" lon="13.1638323"><ele>1287.0</ele><time>2026-05-03T08:16:42.078Z</time></trkpt><trkpt lat="42.0298977" lon="13.1639783"><ele>1287.0</ele><time>2026-05-03T08:16:43.081Z</time></trkpt><trkpt lat="42.0298183" lon="13.1641311"><ele>1287.0</ele><time>2026-05-03T08:16:44.077Z</time></trkpt><trkpt lat="42.0297495" lon="13.1642735"><ele>1289.25</ele><time>2026-05-03T08:16:45.081Z</time></trkpt><trkpt lat="42.0296815" lon="13.1643888"><ele>1291.5</ele><time>2026-05-03T08:16:46.085Z</time></trkpt><trkpt lat="42.0296048" lon="13.1644978"><ele>1293.75</ele><time>2026-05-03T08:16:47.085Z</time></trkpt><trkpt lat="42.029523" lon="13.1646222"><ele>1296.0</ele><time>2026-05-03T08:16:48.08Z</time></trkpt><trkpt lat="42.029429" lon="13.1647362"><ele>1296.0</ele><time>2026-05-03T08:16:49.081Z</time></trkpt><trkpt lat="42.029331" lon="13.1648554"><ele>1296.0</ele><time>2026-05-03T08:16:50.074Z</time></trkpt><trkpt lat="42.0292362" lon="13.1649899"><ele>1296.0</ele><time>2026-05-03T08:16:51.074Z</time></trkpt><trkpt lat="42.0291418" lon="13.165118"><ele>1296.0</ele><time>2026-05-03T08:16:52.081Z</time></trkpt><trkpt lat="42.029063" lon="13.1652328"><ele>1297.0</ele><time>2026-05-03T08:16:53.082Z</time></trkpt><trkpt lat="42.0290012" lon="13.1653473"><ele>1298.0</ele><time>2026-05-03T08:16:54.095Z</time></trkpt><trkpt lat="42.0289559" lon="13.1654756"><ele>1299.0</ele><time>2026-05-03T08:16:55.078Z</time></trkpt><trkpt lat="42.0289443" lon="13.1656029"><ele>1300.0</ele><time>2026-05-03T08:16:56.078Z</time></trkpt><trkpt lat="42.0289466" lon="13.1657518"><ele>1301.0</ele><time>2026-05-03T08:16:57.074Z</time></trkpt><trkpt lat="42.0289402" lon="13.1658993"><ele>1301.0</ele><time>2026-05-03T08:16:58.08Z</time></trkpt><trkpt lat="42.0289102" lon="13.1660444"><ele>1301.0</ele><time>2026-05-03T08:16:59.079Z</time></trkpt><trkpt lat="42.028848" lon="13.1661992"><ele>1301.0</ele><time>2026-05-03T08:17:00.078Z</time></trkpt><trkpt lat="42.0288049" lon="13.1663742"><ele>1301.0</ele><time>2026-05-03T08:17:01.106Z</time></trkpt><trkpt lat="42.0287623" lon="13.1665409"><ele>1300.75</ele><time>2026-05-03T08:17:02.088Z</time></trkpt><trkpt lat="42.0287188" lon="13.1667011"><ele>1300.5</ele><time>2026-05-03T08:17:03.08Z</time></trkpt><trkpt lat="42.0286763" lon="13.1668547"><ele>1300.25</ele><time>2026-05-03T08:17:04.071Z</time></trkpt><trkpt lat="42.0286296" lon="13.1669939"><ele>1300.0</ele><time>2026-05-03T08:17:05.083Z</time></trkpt><trkpt lat="42.0285738" lon="13.1671368"><ele>1300.0</ele><time>2026-05-03T08:17:06.086Z</time></trkpt><trkpt lat="42.0285081" lon="13.1672617"><ele>1300.0</ele><time>2026-05-03T08:17:07.085Z</time></trkpt><trkpt lat="42.0284395" lon="13.1673879"><ele>1300.0</ele><time>2026-05-03T08:17:08.114Z</time></trkpt><trkpt lat="42.0283672" lon="13.1675302"><ele>1300.0</ele><time>2026-05-03T08:17:09.079Z</time></trkpt><trkpt lat="42.0282891" lon="13.1676972"><ele>1300.5</ele><time>2026-05-03T08:17:10.082Z</time></trkpt><trkpt lat="42.0282099" lon="13.1678609"><ele>1301.0</ele><time>2026-05-03T08:17:11.082Z</time></trkpt><trkpt lat="42.0281189" lon="13.168025"><ele>1301.5</ele><time>2026-05-03T08:17:12.087Z</time></trkpt><trkpt lat="42.0280229" lon="13.1681819"><ele>1302.0</ele><time>2026-05-03T08:17:13.084Z</time></trkpt><trkpt lat="42.0279249" lon="13.1683321"><ele>1302.0</ele><time>2026-05-03T08:17:14.088Z</time></trkpt><trkpt lat="42.0278324" lon="13.1684991"><ele>1302.0</ele><time>2026-05-03T08:17:15.084Z</time></trkpt><trkpt lat="42.0277399" lon="13.1686694"><ele>1302.0</ele><time>2026-05-03T08:17:16.083Z</time></trkpt><trkpt lat="42.0276494" lon="13.1688372"><ele>1302.0</ele><time>2026-05-03T08:17:17.087Z</time></trkpt><trkpt lat="42.0275588" lon="13.1689879"><ele>1302.0</ele><time>2026-05-03T08:17:18.075Z</time></trkpt><trkpt lat="42.0274786" lon="13.1691273"><ele>1302.0</ele><time>2026-05-03T08:17:19.08Z</time></trkpt><trkpt lat="42.0273896" lon="13.1692625"><ele>1302.0</ele><time>2026-05-03T08:17:20.102Z</time></trkpt><trkpt lat="42.0272961" lon="13.1693722"><ele>1303.5</ele><time>2026-05-03T08:17:21.076Z</time></trkpt><trkpt lat="42.0271955" lon="13.169484"><ele>1305.0</ele><time>2026-05-03T08:17:22.081Z</time></trkpt><trkpt lat="42.0271033" lon="13.1695973"><ele>1306.5</ele><time>2026-05-03T08:17:23.078Z</time></trkpt><trkpt lat="42.0270026" lon="13.1697163"><ele>1308.0</ele><time>2026-05-03T08:17:24.086Z</time></trkpt><trkpt lat="42.0269059" lon="13.1698406"><ele>1308.0</ele><time>2026-05-03T08:17:25.083Z</time></trkpt><trkpt lat="42.026813" lon="13.1699668"><ele>1308.0</ele><time>2026-05-03T08:17:26.076Z</time></trkpt><trkpt lat="42.026722" lon="13.1700989"><ele>1308.0</ele><time>2026-05-03T08:17:27.08Z</time></trkpt><trkpt lat="42.0266325" lon="13.1702443"><ele>1308.0</ele><time>2026-05-03T08:17:28.081Z</time></trkpt><trkpt lat="42.0265421" lon="13.1703919"><ele>1307.75</ele><time>2026-05-03T08:17:29.081Z</time></trkpt><trkpt lat="42.0264579" lon="13.1705366"><ele>1307.5</ele><time>2026-05-03T08:17:30.083Z</time></trkpt><trkpt lat="42.026373" lon="13.170702"><ele>1307.25</ele><time>2026-05-03T08:17:31.081Z</time></trkpt><trkpt lat="42.0262983" lon="13.1708834"><ele>1307.0</ele><time>2026-05-03T08:17:32.081Z</time></trkpt><trkpt lat="42.026223" lon="13.1710714"><ele>1307.0</ele><time>2026-05-03T08:17:33.081Z</time></trkpt><trkpt lat="42.0261502" lon="13.1712455"><ele>1307.0</ele><time>2026-05-03T08:17:34.084Z</time></trkpt><trkpt lat="42.0260777" lon="13.171406"><ele>1307.0</ele><time>2026-05-03T08:17:35.082Z</time></trkpt><trkpt lat="42.0260293" lon="13.1715499"><ele>1307.0</ele><time>2026-05-03T08:17:36.082Z</time></trkpt><trkpt lat="42.0259975" lon="13.1717074"><ele>1307.75</ele><time>2026-05-03T08:17:37.094Z</time></trkpt><trkpt lat="42.0259662" lon="13.1718779"><ele>1308.5</ele><time>2026-05-03T08:17:38.083Z</time></trkpt><trkpt lat="42.0259319" lon="13.17205"><ele>1309.25</ele><time>2026-05-03T08:17:39.082Z</time></trkpt><trkpt lat="42.0258781" lon="13.1722132"><ele>1310.0</ele><time>2026-05-03T08:17:40.079Z</time></trkpt><trkpt lat="42.0258135" lon="13.1723972"><ele>1313.75</ele><time>2026-05-03T08:17:41.08Z</time></trkpt><trkpt lat="42.0257478" lon="13.1725638"><ele>1317.5</ele><time>2026-05-03T08:17:42.081Z</time></trkpt><trkpt lat="42.0256827" lon="13.1727031"><ele>1321.25</ele><time>2026-05-03T08:17:43.081Z</time></trkpt><trkpt lat="42.025623" lon="13.1728417"><ele>1325.0</ele><time>2026-05-03T08:17:44.083Z</time></trkpt><trkpt lat="42.0255941" lon="13.1729859"><ele>1325.0</ele><time>2026-05-03T08:17:45.08Z</time></trkpt><trkpt lat="42.0255852" lon="13.173127"><ele>1325.0</ele><time>2026-05-03T08:17:46.083Z</time></trkpt><trkpt lat="42.0255676" lon="13.1732549"><ele>1325.0</ele><time>2026-05-03T08:17:47.086Z</time></trkpt><trkpt lat="42.0255426" lon="13.1733553"><ele>1325.0</ele><time>2026-05-03T08:17:48.106Z</time></trkpt><trkpt lat="42.0255025" lon="13.1734284"><ele>1325.0</ele><time>2026-05-03T08:17:49.084Z</time></trkpt><trkpt lat="42.0254411" lon="13.1734972"><ele>1325.0</ele><time>2026-05-03T08:17:50.079Z</time></trkpt><trkpt lat="42.0253754" lon="13.1735629"><ele>1325.0</ele><time>2026-05-03T08:17:51.082Z</time></trkpt><trkpt lat="42.025305" lon="13.1736702"><ele>1325.0</ele><time>2026-05-03T08:17:52.082Z</time></trkpt><trkpt lat="42.0252199" lon="13.1737978"><ele>1325.0</ele><time>2026-05-03T08:17:53.08Z</time></trkpt><trkpt lat="42.0251264" lon="13.1739268"><ele>1325.0</ele><time>2026-05-03T08:17:54.075Z</time></trkpt><trkpt lat="42.025034" lon="13.1740604"><ele>1327.75</ele><time>2026-05-03T08:17:55.083Z</time></trkpt><trkpt lat="42.0249396" lon="13.1741811"><ele>1330.5</ele><time>2026-05-03T08:17:56.113Z</time></trkpt><trkpt lat="42.0248552" lon="13.1742823"><ele>1333.25</ele><time>2026-05-03T08:17:57.077Z</time></trkpt><trkpt lat="42.024775" lon="13.1743837"><ele>1336.0</ele><time>2026-05-03T08:17:58.079Z</time></trkpt><trkpt lat="42.0247063" lon="13.1745018"><ele>1336.0</ele><time>2026-05-03T08:17:59.084Z</time></trkpt><trkpt lat="42.0246517" lon="13.1746191"><ele>1336.0</ele><time>2026-05-03T08:18:00.081Z</time></trkpt><trkpt lat="42.0245925" lon="13.1747336"><ele>1336.0</ele><time>2026-05-03T08:18:01.099Z</time></trkpt><trkpt lat="42.0245089" lon="13.1748322"><ele>1336.0</ele><time>2026-05-03T08:18:02.082Z</time></trkpt><trkpt lat="42.0244162" lon="13.1749359"><ele>1336.0</ele><time>2026-05-03T08:18:03.078Z</time></trkpt><trkpt lat="42.0243285" lon="13.1750469"><ele>1336.0</ele><time>2026-05-03T08:18:04.082Z</time></trkpt><trkpt lat="42.0242467" lon="13.1751765"><ele>1336.0</ele><time>2026-05-03T08:18:05.075Z</time></trkpt><trkpt lat="42.0241797" lon="13.1753218"><ele>1336.0</ele><time>2026-05-03T08:18:06.094Z</time></trkpt><trkpt lat="42.0241194" lon="13.1754478"><ele>1336.0</ele><time>2026-05-03T08:18:07.087Z</time></trkpt><trkpt lat="42.0240554" lon="13.1755472"><ele>1337.0</ele><time>2026-05-03T08:18:08.083Z</time></trkpt><trkpt lat="42.0239769" lon="13.1756326"><ele>1338.0</ele><time>2026-05-03T08:18:09.078Z</time></trkpt><trkpt lat="42.0238884" lon="13.1757267"><ele>1339.0</ele><time>2026-05-03T08:18:10.078Z</time></trkpt><trkpt lat="42.0237892" lon="13.1758403"><ele>1340.0</ele><time>2026-05-03T08:18:11.081Z</time></trkpt><trkpt lat="42.0236806" lon="13.1759625"><ele>1340.0</ele><time>2026-05-03T08:18:12.074Z</time></trkpt><trkpt lat="42.0235525" lon="13.1760988"><ele>1340.0</ele><time>2026-05-03T08:18:13.118Z</time></trkpt><trkpt lat="42.0234304" lon="13.1762361"><ele>1340.0</ele><time>2026-05-03T08:18:14.078Z</time></trkpt><trkpt lat="42.0233215" lon="13.1763706"><ele>1343.6</ele><time>2026-05-03T08:18:15.075Z</time></trkpt><trkpt lat="42.0232434" lon="13.1764855"><ele>1347.2</ele><time>2026-05-03T08:18:16.081Z</time></trkpt><trkpt lat="42.0231815" lon="13.176594"><ele>1350.8000000000002</ele><time>2026-05-03T08:18:17.08Z</time></trkpt><trkpt lat="42.0231174" lon="13.1767064"><ele>1354.4</ele><time>2026-05-03T08:18:18.082Z</time></trkpt><trkpt lat="42.0230551" lon="13.1768407"><ele>1358.0</ele><time>2026-05-03T08:18:19.081Z</time></trkpt><trkpt lat="42.0229957" lon="13.1770011"><ele>1358.0</ele><time>2026-05-03T08:18:20.097Z</time></trkpt><trkpt lat="42.0229341" lon="13.1771707"><ele>1358.0</ele><time>2026-05-03T08:18:21.084Z</time></trkpt><trkpt lat="42.022864" lon="13.1773492"><ele>1358.0</ele><time>2026-05-03T08:18:22.08Z</time></trkpt><trkpt lat="42.0227938" lon="13.1775276"><ele>1358.0</ele><time>2026-05-03T08:18:23.079Z</time></trkpt><trkpt lat="42.0227258" lon="13.1776987"><ele>1357.0</ele><time>2026-05-03T08:18:24.08Z</time></trkpt><trkpt lat="42.0226533" lon="13.1778606"><ele>1356.0</ele><time>2026-05-03T08:18:25.084Z</time></trkpt><trkpt lat="42.0225724" lon="13.1780135"><ele>1355.0</ele><time>2026-05-03T08:18:26.078Z</time></trkpt><trkpt lat="42.0224782" lon="13.1781642"><ele>1354.0</ele><time>2026-05-03T08:18:27.121Z</time></trkpt><trkpt lat="42.0223787" lon="13.1783209"><ele>1353.6666666666665</ele><time>2026-05-03T08:18:28.076Z</time></trkpt><trkpt lat="42.0222732" lon="13.1784761"><ele>1353.3333333333333</ele><time>2026-05-03T08:18:29.081Z</time></trkpt><trkpt lat="42.0221648" lon="13.1786421"><ele>1353.0</ele><time>2026-05-03T08:18:30.078Z</time></trkpt><trkpt lat="42.0220651" lon="13.1788147"><ele>1353.0</ele><time>2026-05-03T08:18:31.079Z</time></trkpt><trkpt lat="42.0219737" lon="13.1789804"><ele>1353.0</ele><time>2026-05-03T08:18:32.083Z</time></trkpt><trkpt lat="42.0218879" lon="13.1791443"><ele>1353.0</ele><time>2026-05-03T08:18:33.085Z</time></trkpt><trkpt lat="42.0218055" lon="13.179311"><ele>1350.75</ele><time>2026-05-03T08:18:34.115Z</time></trkpt><trkpt lat="42.0217234" lon="13.1794621"><ele>1348.5</ele><time>2026-05-03T08:18:35.082Z</time></trkpt><trkpt lat="42.0216413" lon="13.1796198"><ele>1346.25</ele><time>2026-05-03T08:18:36.079Z</time></trkpt><trkpt lat="42.0215732" lon="13.1797664"><ele>1344.0</ele><time>2026-05-03T08:18:37.079Z</time></trkpt><trkpt lat="42.0215205" lon="13.1799014"><ele>1349.5</ele><time>2026-05-03T08:18:38.082Z</time></trkpt><trkpt lat="42.0214906" lon="13.1800428"><ele>1355.0</ele><time>2026-05-03T08:18:39.081Z</time></trkpt><trkpt lat="42.0214621" lon="13.1802154"><ele>1360.5</ele><time>2026-05-03T08:18:40.085Z</time></trkpt><trkpt lat="42.0214215" lon="13.1804091"><ele>1366.0</ele><time>2026-05-03T08:18:41.114Z</time></trkpt><trkpt lat="42.0213793" lon="13.1806291"><ele>1363.0</ele><time>2026-05-03T08:18:42.082Z</time></trkpt><trkpt lat="42.0213289" lon="13.1808599"><ele>1360.0</ele><time>2026-05-03T08:18:43.078Z</time></trkpt><trkpt lat="42.0212937" lon="13.1810783"><ele>1357.0</ele><time>2026-05-03T08:18:44.08Z</time></trkpt><trkpt lat="42.0212507" lon="13.1812728"><ele>1357.0</ele><time>2026-05-03T08:18:45.077Z</time></trkpt><trkpt lat="42.0211992" lon="13.1814555"><ele>1357.0</ele><time>2026-05-03T08:18:46.079Z</time></trkpt><trkpt lat="42.0211494" lon="13.1816302"><ele>1357.0</ele><time>2026-05-03T08:18:47.078Z</time></trkpt><trkpt lat="42.0210932" lon="13.1817976"><ele>1357.0</ele><time>2026-05-03T08:18:48.077Z</time></trkpt><trkpt lat="42.0210357" lon="13.1819655"><ele>1357.5</ele><time>2026-05-03T08:18:49.107Z</time></trkpt><trkpt lat="42.0209701" lon="13.1821381"><ele>1358.0</ele><time>2026-05-03T08:18:50.079Z</time></trkpt><trkpt lat="42.0209072" lon="13.1823129"><ele>1358.5</ele><time>2026-05-03T08:18:51.08Z</time></trkpt><trkpt lat="42.0208497" lon="13.1824915"><ele>1359.0</ele><time>2026-05-03T08:18:52.078Z</time></trkpt><trkpt lat="42.0207951" lon="13.1826603"><ele>1359.0</ele><time>2026-05-03T08:18:53.08Z</time></trkpt><trkpt lat="42.0207526" lon="13.1828207"><ele>1359.0</ele><time>2026-05-03T08:18:54.08Z</time></trkpt><trkpt lat="42.0206996" lon="13.1829747"><ele>1359.0</ele><time>2026-05-03T08:18:55.081Z</time></trkpt><trkpt lat="42.0206535" lon="13.1831302"><ele>1359.0</ele><time>2026-05-03T08:18:56.085Z</time></trkpt><trkpt lat="42.0206184" lon="13.183291"><ele>1357.0</ele><time>2026-05-03T08:18:57.075Z</time></trkpt><trkpt lat="42.0205754" lon="13.1834421"><ele>1355.0</ele><time>2026-05-03T08:18:58.094Z</time></trkpt><trkpt lat="42.0205263" lon="13.1835809"><ele>1353.0</ele><time>2026-05-03T08:18:59.085Z</time></trkpt><trkpt lat="42.0204609" lon="13.183705"><ele>1351.0</ele><time>2026-05-03T08:19:00.086Z</time></trkpt><trkpt lat="42.0203835" lon="13.1838499"><ele>1346.6666666666665</ele><time>2026-05-03T08:19:01.08Z</time></trkpt><trkpt lat="42.0203171" lon="13.1840205"><ele>1342.3333333333333</ele><time>2026-05-03T08:19:02.083Z</time></trkpt><trkpt lat="42.0202527" lon="13.1842166"><ele>1338.0</ele><time>2026-05-03T08:19:03.118Z</time></trkpt><trkpt lat="42.0201949" lon="13.1844188"><ele>1338.0</ele><time>2026-05-03T08:19:04.093Z</time></trkpt><trkpt lat="42.0201203" lon="13.1846184"><ele>1338.0</ele><time>2026-05-03T08:19:05.084Z</time></trkpt><trkpt lat="42.0200472" lon="13.1847942"><ele>1338.0</ele><time>2026-05-03T08:19:06.088Z</time></trkpt><trkpt lat="42.0199712" lon="13.1849646"><ele>1341.25</ele><time>2026-05-03T08:19:07.082Z</time></trkpt><trkpt lat="42.0199082" lon="13.1851385"><ele>1344.5</ele><time>2026-05-03T08:19:08.119Z</time></trkpt><trkpt lat="42.0198603" lon="13.1853066"><ele>1347.75</ele><time>2026-05-03T08:19:09.078Z</time></trkpt><trkpt lat="42.0198161" lon="13.1854545"><ele>1351.0</ele><time>2026-05-03T08:19:10.083Z</time></trkpt><trkpt lat="42.0197878" lon="13.1855678"><ele>1351.0</ele><time>2026-05-03T08:19:11.086Z</time></trkpt><trkpt lat="42.019765" lon="13.1856588"><ele>1351.0</ele><time>2026-05-03T08:19:12.083Z</time></trkpt><trkpt lat="42.0197137" lon="13.1857834"><ele>1351.0</ele><time>2026-05-03T08:19:14.083Z</time></trkpt><trkpt lat="42.0196438" lon="13.1859294"><ele>1351.0</ele><time>2026-05-03T08:19:16.083Z</time></trkpt><trkpt lat="42.0196046" lon="13.1860115"><ele>1351.0</ele><time>2026-05-03T08:19:17.099Z</time></trkpt><trkpt lat="42.0195648" lon="13.1860783"><ele>1351.0</ele><time>2026-05-03T08:19:18.082Z</time></trkpt><trkpt lat="42.0194943" lon="13.1862097"><ele>1347.6666666666665</ele><time>2026-05-03T08:19:20.091Z</time></trkpt><trkpt lat="42.0194289" lon="13.1863436"><ele>1344.3333333333333</ele><time>2026-05-03T08:19:22.081Z</time></trkpt><trkpt lat="42.0193826" lon="13.1864341"><ele>1341.0</ele><time>2026-05-03T08:19:24.075Z</time></trkpt><trkpt lat="42.0193412" lon="13.1865336"><ele>1337.6666666666667</ele><time>2026-05-03T08:19:29.088Z</time></trkpt><trkpt lat="42.0193131" lon="13.1866213"><ele>1334.3333333333335</ele><time>2026-05-03T08:19:33.085Z</time></trkpt><trkpt lat="42.0192792" lon="13.186715"><ele>1331.0</ele><time>2026-05-03T08:19:36.127Z</time></trkpt><trkpt lat="42.0192378" lon="13.1868082"><ele>1330.8333333333335</ele><time>2026-05-03T08:19:39.076Z</time></trkpt><trkpt lat="42.0191892" lon="13.1868931"><ele>1330.6666666666667</ele><time>2026-05-03T08:19:42.079Z</time></trkpt><trkpt lat="42.019131" lon="13.1870075"><ele>1330.5</ele><time>2026-05-03T08:19:44.079Z</time></trkpt><trkpt lat="42.0190845" lon="13.1870796"><ele>1330.3333333333333</ele><time>2026-05-03T08:19:45.077Z</time></trkpt><trkpt lat="42.0190251" lon="13.1871576"><ele>1330.1666666666665</ele><time>2026-05-03T08:19:46.078Z</time></trkpt><trkpt lat="42.0189686" lon="13.1872695"><ele>1330.0</ele><time>2026-05-03T08:19:47.083Z</time></trkpt><trkpt lat="42.0189289" lon="13.1874006"><ele>1330.0</ele><time>2026-05-03T08:19:48.083Z</time></trkpt><trkpt lat="42.0188949" lon="13.1875405"><ele>1330.0</ele><time>2026-05-03T08:19:49.081Z</time></trkpt><trkpt lat="42.01885" lon="13.1876793"><ele>1330.0</ele><time>2026-05-03T08:19:50.093Z</time></trkpt><trkpt lat="42.0187826" lon="13.187806"><ele>1330.0</ele><time>2026-05-03T08:19:51.085Z</time></trkpt><trkpt lat="42.018708" lon="13.1879352"><ele>1330.0</ele><time>2026-05-03T08:19:52.082Z</time></trkpt><trkpt lat="42.0186303" lon="13.1880694"><ele>1330.0</ele><time>2026-05-03T08:19:53.085Z</time></trkpt><trkpt lat="42.0185518" lon="13.1881865"><ele>1330.0</ele><time>2026-05-03T08:19:54.081Z</time></trkpt><trkpt lat="42.0184811" lon="13.1882806"><ele>1330.0</ele><time>2026-05-03T08:19:55.082Z</time></trkpt><trkpt lat="42.0184265" lon="13.1883923"><ele>1330.0</ele><time>2026-05-03T08:19:56.079Z</time></trkpt><trkpt lat="42.0183913" lon="13.1885185"><ele>1329.2</ele><time>2026-05-03T08:19:57.078Z</time></trkpt><trkpt lat="42.0183475" lon="13.1886459"><ele>1328.4</ele><time>2026-05-03T08:19:58.071Z</time></trkpt><trkpt lat="42.0183134" lon="13.1887837"><ele>1327.6</ele><time>2026-05-03T08:19:59.082Z</time></trkpt><trkpt lat="42.018289" lon="13.188939"><ele>1326.8</ele><time>2026-05-03T08:20:00.078Z</time></trkpt><trkpt lat="42.018276" lon="13.18909"><ele>1326.0</ele><time>2026-05-03T08:20:01.108Z</time></trkpt><trkpt lat="42.0182577" lon="13.1892283"><ele>1326.1999999999998</ele><time>2026-05-03T08:20:02.084Z</time></trkpt><trkpt lat="42.0182323" lon="13.1893488"><ele>1326.3999999999999</ele><time>2026-05-03T08:20:03.08Z</time></trkpt><trkpt lat="42.0182079" lon="13.1894829"><ele>1326.6</ele><time>2026-05-03T08:20:04.079Z</time></trkpt><trkpt lat="42.0181858" lon="13.189604"><ele>1326.8</ele><time>2026-05-03T08:20:05.081Z</time></trkpt><trkpt lat="42.0181581" lon="13.1897265"><ele>1327.0</ele><time>2026-05-03T08:20:06.081Z</time></trkpt><trkpt lat="42.0181064" lon="13.1898686"><ele>1327.0</ele><time>2026-05-03T08:20:07.083Z</time></trkpt><trkpt lat="42.0180476" lon="13.1900137"><ele>1327.0</ele><time>2026-05-03T08:20:08.081Z</time></trkpt><trkpt lat="42.0179914" lon="13.1901575"><ele>1327.0</ele><time>2026-05-03T08:20:09.083Z</time></trkpt><trkpt lat="42.0179261" lon="13.1903134"><ele>1327.0</ele><time>2026-05-03T08:20:10.075Z</time></trkpt><trkpt lat="42.0178654" lon="13.1904675"><ele>1327.0</ele><time>2026-05-03T08:20:11.082Z</time></trkpt><trkpt lat="42.0178106" lon="13.1906197"><ele>1327.0</ele><time>2026-05-03T08:20:12.078Z</time></trkpt><trkpt lat="42.0177576" lon="13.1907596"><ele>1327.0</ele><time>2026-05-03T08:20:13.081Z</time></trkpt><trkpt lat="42.0176967" lon="13.1908912"><ele>1327.0</ele><time>2026-05-03T08:20:14.088Z</time></trkpt><trkpt lat="42.0176364" lon="13.1910241"><ele>1327.25</ele><time>2026-05-03T08:20:15.081Z</time></trkpt><trkpt lat="42.017579" lon="13.1911569"><ele>1327.5</ele><time>2026-05-03T08:20:16.08Z</time></trkpt><trkpt lat="42.0175289" lon="13.1912966"><ele>1327.75</ele><time>2026-05-03T08:20:17.08Z</time></trkpt><trkpt lat="42.0174891" lon="13.1914419"><ele>1328.0</ele><time>2026-05-03T08:20:18.078Z</time></trkpt><trkpt lat="42.0174567" lon="13.1915821"><ele>1328.0</ele><time>2026-05-03T08:20:19.082Z</time></trkpt><trkpt lat="42.0174352" lon="13.1917201"><ele>1328.0</ele><time>2026-05-03T08:20:20.078Z</time></trkpt><trkpt lat="42.0174113" lon="13.191846"><ele>1328.0</ele><time>2026-05-03T08:20:21.091Z</time></trkpt><trkpt lat="42.0173748" lon="13.1919739"><ele>1328.0</ele><time>2026-05-03T08:20:22.079Z</time></trkpt><trkpt lat="42.0173375" lon="13.1920912"><ele>1328.0</ele><time>2026-05-03T08:20:23.073Z</time></trkpt><trkpt lat="42.0173056" lon="13.192186"><ele>1328.0</ele><time>2026-05-03T08:20:24.079Z</time></trkpt><trkpt lat="42.0172451" lon="13.1923185"><ele>1328.0</ele><time>2026-05-03T08:20:26.088Z</time></trkpt><trkpt lat="42.017148" lon="13.192413"><ele>1328.0</ele><time>2026-05-03T08:20:28.08Z</time></trkpt><trkpt lat="42.0170926" lon="13.1924548"><ele>1328.0</ele><time>2026-05-03T08:20:29.114Z</time></trkpt><trkpt lat="42.0169927" lon="13.1925456"><ele>1328.0</ele><time>2026-05-03T08:20:31.086Z</time></trkpt><trkpt lat="42.0169007" lon="13.1926392"><ele>1326.1666666666667</ele><time>2026-05-03T08:20:33.081Z</time></trkpt><trkpt lat="42.0168332" lon="13.1926848"><ele>1324.3333333333335</ele><time>2026-05-03T08:20:34.081Z</time></trkpt><trkpt lat="42.0167616" lon="13.1927284"><ele>1322.5</ele><time>2026-05-03T08:20:35.081Z</time></trkpt><trkpt lat="42.0166873" lon="13.1927786"><ele>1320.6666666666667</ele><time>2026-05-03T08:20:36.08Z</time></trkpt><trkpt lat="42.0166089" lon="13.1928169"><ele>1318.8333333333333</ele><time>2026-05-03T08:20:37.085Z</time></trkpt><trkpt lat="42.0165321" lon="13.1928581"><ele>1317.0</ele><time>2026-05-03T08:20:38.081Z</time></trkpt><trkpt lat="42.0164574" lon="13.1928969"><ele>1320.1999999999998</ele><time>2026-05-03T08:20:39.086Z</time></trkpt><trkpt lat="42.0163807" lon="13.1929487"><ele>1323.4</ele><time>2026-05-03T08:20:40.104Z</time></trkpt><trkpt lat="42.0163152" lon="13.1930317"><ele>1326.6</ele><time>2026-05-03T08:20:41.082Z</time></trkpt><trkpt lat="42.0162607" lon="13.1931327"><ele>1329.8000000000002</ele><time>2026-05-03T08:20:42.077Z</time></trkpt><trkpt lat="42.0162205" lon="13.1932395"><ele>1333.0</ele><time>2026-05-03T08:20:43.082Z</time></trkpt><trkpt lat="42.0161797" lon="13.1933531"><ele>1333.0</ele><time>2026-05-03T08:20:44.083Z</time></trkpt><trkpt lat="42.0161257" lon="13.1934734"><ele>1333.0</ele><time>2026-05-03T08:20:45.078Z</time></trkpt><trkpt lat="42.0160744" lon="13.1935945"><ele>1333.0</ele><time>2026-05-03T08:20:46.083Z</time></trkpt><trkpt lat="42.0160235" lon="13.1937159"><ele>1333.0</ele><time>2026-05-03T08:20:47.083Z</time></trkpt><trkpt lat="42.0159538" lon="13.1938286"><ele>1333.0</ele><time>2026-05-03T08:20:48.08Z</time></trkpt><trkpt lat="42.0158921" lon="13.1939387"><ele>1332.0</ele><time>2026-05-03T08:20:49.076Z</time></trkpt><trkpt lat="42.015849" lon="13.1940487"><ele>1331.0</ele><time>2026-05-03T08:20:50.09Z</time></trkpt><trkpt lat="42.0158282" lon="13.1941682"><ele>1330.0</ele><time>2026-05-03T08:20:51.079Z</time></trkpt><trkpt lat="42.0158074" lon="13.1943048"><ele>1329.0</ele><time>2026-05-03T08:20:52.08Z</time></trkpt><trkpt lat="42.0157693" lon="13.1944446"><ele>1328.0</ele><time>2026-05-03T08:20:53.103Z</time></trkpt><trkpt lat="42.0157196" lon="13.1945806"><ele>1330.25</ele><time>2026-05-03T08:20:54.08Z</time></trkpt><trkpt lat="42.0156804" lon="13.1947162"><ele>1332.5</ele><time>2026-05-03T08:20:55.081Z</time></trkpt><trkpt lat="42.0156317" lon="13.1948572"><ele>1334.75</ele><time>2026-05-03T08:20:56.087Z</time></trkpt><trkpt lat="42.0155647" lon="13.1949846"><ele>1337.0</ele><time>2026-05-03T08:20:57.083Z</time></trkpt><trkpt lat="42.0154762" lon="13.1951221"><ele>1337.0</ele><time>2026-05-03T08:20:58.077Z</time></trkpt><trkpt lat="42.0153763" lon="13.1952703"><ele>1337.0</ele><time>2026-05-03T08:20:59.079Z</time></trkpt><trkpt lat="42.0152559" lon="13.1954326"><ele>1337.0</ele><time>2026-05-03T08:21:00.076Z</time></trkpt><trkpt lat="42.0151299" lon="13.1955966"><ele>1332.3333333333335</ele><time>2026-05-03T08:21:01.079Z</time></trkpt><trkpt lat="42.01501" lon="13.1957537"><ele>1327.6666666666667</ele><time>2026-05-03T08:21:02.088Z</time></trkpt><trkpt lat="42.0148957" lon="13.1958918"><ele>1323.0</ele><time>2026-05-03T08:21:03.08Z</time></trkpt><trkpt lat="42.0147902" lon="13.1960069"><ele>1331.0</ele><time>2026-05-03T08:21:04.085Z</time></trkpt><trkpt lat="42.0146951" lon="13.1961143"><ele>1339.0</ele><time>2026-05-03T08:21:05.076Z</time></trkpt><trkpt lat="42.0146091" lon="13.1962128"><ele>1347.0</ele><time>2026-05-03T08:21:06.078Z</time></trkpt><trkpt lat="42.0145345" lon="13.1963274"><ele>1355.0</ele><time>2026-05-03T08:21:07.079Z</time></trkpt><trkpt lat="42.0144762" lon="13.196467"><ele>1353.25</ele><time>2026-05-03T08:21:08.076Z</time></trkpt><trkpt lat="42.0144272" lon="13.1966162"><ele>1351.5</ele><time>2026-05-03T08:21:09.083Z</time></trkpt><trkpt lat="42.014379" lon="13.1967651"><ele>1349.75</ele><time>2026-05-03T08:21:10.082Z</time></trkpt><trkpt lat="42.0143299" lon="13.196908"><ele>1348.0</ele><time>2026-05-03T08:21:11.084Z</time></trkpt><trkpt lat="42.0142826" lon="13.1970501"><ele>1348.0</ele><time>2026-05-03T08:21:12.081Z</time></trkpt><trkpt lat="42.0142343" lon="13.1971961"><ele>1348.0</ele><time>2026-05-03T08:21:13.078Z</time></trkpt><trkpt lat="42.0141843" lon="13.1973458"><ele>1348.0</ele><time>2026-05-03T08:21:14.079Z</time></trkpt><trkpt lat="42.0141339" lon="13.1975056"><ele>1348.0</ele><time>2026-05-03T08:21:15.081Z</time></trkpt><trkpt lat="42.0140822" lon="13.1976665"><ele>1349.75</ele><time>2026-05-03T08:21:16.083Z</time></trkpt><trkpt lat="42.0140295" lon="13.1978289"><ele>1351.5</ele><time>2026-05-03T08:21:17.077Z</time></trkpt><trkpt lat="42.0139752" lon="13.1979946"><ele>1353.25</ele><time>2026-05-03T08:21:18.093Z</time></trkpt><trkpt lat="42.0139157" lon="13.1981632"><ele>1355.0</ele><time>2026-05-03T08:21:19.086Z</time></trkpt><trkpt lat="42.0138615" lon="13.1983291"><ele>1355.0</ele><time>2026-05-03T08:21:20.09Z</time></trkpt><trkpt lat="42.0138161" lon="13.1984844"><ele>1355.0</ele><time>2026-05-03T08:21:21.085Z</time></trkpt><trkpt lat="42.0137576" lon="13.1986306"><ele>1355.0</ele><time>2026-05-03T08:21:22.089Z</time></trkpt><trkpt lat="42.0136844" lon="13.1987812"><ele>1355.0</ele><time>2026-05-03T08:21:23.084Z</time></trkpt><trkpt lat="42.013609" lon="13.1989359"><ele>1352.5</ele><time>2026-05-03T08:21:24.085Z</time></trkpt><trkpt lat="42.0135333" lon="13.1990946"><ele>1350.0</ele><time>2026-05-03T08:21:25.08Z</time></trkpt><trkpt lat="42.0134601" lon="13.199256"><ele>1347.5</ele><time>2026-05-03T08:21:26.083Z</time></trkpt><trkpt lat="42.0133946" lon="13.1994147"><ele>1345.0</ele><time>2026-05-03T08:21:27.086Z</time></trkpt><trkpt lat="42.0133311" lon="13.1995745"><ele>1354.0</ele><time>2026-05-03T08:21:28.077Z</time></trkpt><trkpt lat="42.0132577" lon="13.1997387"><ele>1363.0</ele><time>2026-05-03T08:21:29.107Z</time></trkpt><trkpt lat="42.013189" lon="13.1998892"><ele>1372.0</ele><time>2026-05-03T08:21:30.081Z</time></trkpt><trkpt lat="42.0131328" lon="13.200023"><ele>1381.0</ele><time>2026-05-03T08:21:31.077Z</time></trkpt><trkpt lat="42.0131028" lon="13.200161"><ele>1381.0</ele><time>2026-05-03T08:21:32.08Z</time></trkpt><trkpt lat="42.0130786" lon="13.2003069"><ele>1381.0</ele><time>2026-05-03T08:21:33.076Z</time></trkpt><trkpt lat="42.0130515" lon="13.2004669"><ele>1381.0</ele><time>2026-05-03T08:21:34.083Z</time></trkpt><trkpt lat="42.0130176" lon="13.2006252"><ele>1381.0</ele><time>2026-05-03T08:21:35.074Z</time></trkpt><trkpt lat="42.0129771" lon="13.2007856"><ele>1380.25</ele><time>2026-05-03T08:21:36.082Z</time></trkpt><trkpt lat="42.0129326" lon="13.2009533"><ele>1379.5</ele><time>2026-05-03T08:21:37.078Z</time></trkpt><trkpt lat="42.0128929" lon="13.201125"><ele>1378.75</ele><time>2026-05-03T08:21:38.077Z</time></trkpt><trkpt lat="42.0128528" lon="13.2012971"><ele>1378.0</ele><time>2026-05-03T08:21:39.078Z</time></trkpt><trkpt lat="42.0127977" lon="13.2014578"><ele>1375.5</ele><time>2026-05-03T08:21:40.081Z</time></trkpt><trkpt lat="42.0127371" lon="13.201604"><ele>1373.0</ele><time>2026-05-03T08:21:41.077Z</time></trkpt><trkpt lat="42.0126827" lon="13.2017557"><ele>1370.5</ele><time>2026-05-03T08:21:42.087Z</time></trkpt><trkpt lat="42.0126395" lon="13.201917"><ele>1368.0</ele><time>2026-05-03T08:21:43.081Z</time></trkpt><trkpt lat="42.0126005" lon="13.202094"><ele>1368.0</ele><time>2026-05-03T08:21:44.08Z</time></trkpt><trkpt lat="42.0125515" lon="13.202278"><ele>1368.0</ele><time>2026-05-03T08:21:45.078Z</time></trkpt><trkpt lat="42.0125" lon="13.2024631"><ele>1368.0</ele><time>2026-05-03T08:21:46.081Z</time></trkpt><trkpt lat="42.0124401" lon="13.2026416"><ele>1368.0</ele><time>2026-05-03T08:21:47.084Z</time></trkpt><trkpt lat="42.0123668" lon="13.2028188"><ele>1371.5</ele><time>2026-05-03T08:21:48.083Z</time></trkpt><trkpt lat="42.0122868" lon="13.2030098"><ele>1375.0</ele><time>2026-05-03T08:21:49.1Z</time></trkpt><trkpt lat="42.0122084" lon="13.2031947"><ele>1378.5</ele><time>2026-05-03T08:21:50.076Z</time></trkpt><trkpt lat="42.0121536" lon="13.2033482"><ele>1382.0</ele><time>2026-05-03T08:21:51.081Z</time></trkpt><trkpt lat="42.0121023" lon="13.2034764"><ele>1382.0</ele><time>2026-05-03T08:21:52.079Z</time></trkpt><trkpt lat="42.0120434" lon="13.2035805"><ele>1382.0</ele><time>2026-05-03T08:21:53.08Z</time></trkpt><trkpt lat="42.0119746" lon="13.2036786"><ele>1382.0</ele><time>2026-05-03T08:21:54.085Z</time></trkpt><trkpt lat="42.0118822" lon="13.2037715"><ele>1382.0</ele><time>2026-05-03T08:21:55.079Z</time></trkpt><trkpt lat="42.0117816" lon="13.2038704"><ele>1382.0</ele><time>2026-05-03T08:21:56.089Z</time></trkpt><trkpt lat="42.0116562" lon="13.2039593"><ele>1382.0</ele><time>2026-05-03T08:21:57.078Z</time></trkpt><trkpt lat="42.0115379" lon="13.2040501"><ele>1382.0</ele><time>2026-05-03T08:21:58.082Z</time></trkpt><trkpt lat="42.0114302" lon="13.2041541"><ele>1382.0</ele><time>2026-05-03T08:21:59.076Z</time></trkpt><trkpt lat="42.0113328" lon="13.2042548"><ele>1382.0</ele><time>2026-05-03T08:22:00.08Z</time></trkpt><trkpt lat="42.0112352" lon="13.2043663"><ele>1382.0</ele><time>2026-05-03T08:22:01.082Z</time></trkpt><trkpt lat="42.0111537" lon="13.2044975"><ele>1382.0</ele><time>2026-05-03T08:22:02.072Z</time></trkpt><trkpt lat="42.0110767" lon="13.20464"><ele>1382.0</ele><time>2026-05-03T08:22:03.081Z</time></trkpt><trkpt lat="42.0110055" lon="13.2047894"><ele>1382.0</ele><time>2026-05-03T08:22:04.084Z</time></trkpt><trkpt lat="42.0109346" lon="13.204943"><ele>1379.5</ele><time>2026-05-03T08:22:05.077Z</time></trkpt><trkpt lat="42.0108691" lon="13.2050976"><ele>1377.0</ele><time>2026-05-03T08:22:06.085Z</time></trkpt><trkpt lat="42.0108026" lon="13.2052443"><ele>1374.5</ele><time>2026-05-03T08:22:07.08Z</time></trkpt><trkpt lat="42.0107417" lon="13.2053704"><ele>1372.0</ele><time>2026-05-03T08:22:08.082Z</time></trkpt><trkpt lat="42.0106843" lon="13.2054999"><ele>1374.0</ele><time>2026-05-03T08:22:09.077Z</time></trkpt><trkpt lat="42.0106179" lon="13.2056036"><ele>1376.0</ele><time>2026-05-03T08:22:10.076Z</time></trkpt><trkpt lat="42.0105477" lon="13.2057066"><ele>1378.0</ele><time>2026-05-03T08:22:11.076Z</time></trkpt><trkpt lat="42.0104704" lon="13.2058128"><ele>1380.0</ele><time>2026-05-03T08:22:12.077Z</time></trkpt><trkpt lat="42.010389" lon="13.2059072"><ele>1382.0</ele><time>2026-05-03T08:22:13.118Z</time></trkpt><trkpt lat="42.0102946" lon="13.2060022"><ele>1382.0</ele><time>2026-05-03T08:22:14.075Z</time></trkpt><trkpt lat="42.0102182" lon="13.2060857"><ele>1382.0</ele><time>2026-05-03T08:22:15.082Z</time></trkpt><trkpt lat="42.01015" lon="13.2061478"><ele>1382.0</ele><time>2026-05-03T08:22:16.084Z</time></trkpt><trkpt lat="42.0100892" lon="13.2061842"><ele>1382.0</ele><time>2026-05-03T08:22:17.076Z</time></trkpt><trkpt lat="42.0099999" lon="13.2062375"><ele>1382.0</ele><time>2026-05-03T08:22:19.079Z</time></trkpt><trkpt lat="42.009965" lon="13.2063251"><ele>1382.0</ele><time>2026-05-03T08:22:21.08Z</time></trkpt><trkpt lat="42.0099994" lon="13.2064418"><ele>1382.0</ele><time>2026-05-03T08:22:54.076Z</time></trkpt><trkpt lat="42.0100976" lon="13.2064867"><ele>1382.0</ele><time>2026-05-03T08:22:57.081Z</time></trkpt><trkpt lat="42.0102348" lon="13.2065415"><ele>1382.0</ele><time>2026-05-03T08:22:58.074Z</time></trkpt><trkpt lat="42.0103812" lon="13.2066324"><ele>1382.0</ele><time>2026-05-03T08:22:59.076Z</time></trkpt><trkpt lat="42.0104802" lon="13.2067171"><ele>1382.8</ele><time>2026-05-03T08:23:00.081Z</time></trkpt><trkpt lat="42.010563" lon="13.2067973"><ele>1383.6</ele><time>2026-05-03T08:23:01.082Z</time></trkpt><trkpt lat="42.0106295" lon="13.2068698"><ele>1384.3999999999999</ele><time>2026-05-03T08:23:02.084Z</time></trkpt><trkpt lat="42.0106998" lon="13.2069613"><ele>1385.1999999999998</ele><time>2026-05-03T08:23:03.085Z</time></trkpt><trkpt lat="42.0107638" lon="13.2070549"><ele>1386.0</ele><time>2026-05-03T08:23:04.075Z</time></trkpt><trkpt lat="42.0108146" lon="13.2071319"><ele>1383.5</ele><time>2026-05-03T08:23:05.097Z</time></trkpt><trkpt lat="42.01087" lon="13.2071906"><ele>1381.0</ele><time>2026-05-03T08:23:06.08Z</time></trkpt><trkpt lat="42.0109929" lon="13.2072352"><ele>1378.5</ele><time>2026-05-03T08:23:08.074Z</time></trkpt><trkpt lat="42.0110707" lon="13.2072184"><ele>1376.0</ele><time>2026-05-03T08:23:09.079Z</time></trkpt><trkpt lat="42.0111508" lon="13.2072031"><ele>1373.5</ele><time>2026-05-03T08:23:10.077Z</time></trkpt><trkpt lat="42.0112232" lon="13.2071991"><ele>1371.0</ele><time>2026-05-03T08:23:11.078Z</time></trkpt><trkpt lat="42.0112928" lon="13.2071928"><ele>1371.0</ele><time>2026-05-03T08:23:12.08Z</time></trkpt><trkpt lat="42.0113967" lon="13.2072031"><ele>1371.0</ele><time>2026-05-03T08:23:14.083Z</time></trkpt><trkpt lat="42.0114536" lon="13.2072785"><ele>1371.0</ele><time>2026-05-03T08:23:16.08Z</time></trkpt><trkpt lat="42.0114191" lon="13.2073839"><ele>1371.0</ele><time>2026-05-03T08:23:18.076Z</time></trkpt><trkpt lat="42.0113654" lon="13.2074325"><ele>1371.0</ele><time>2026-05-03T08:23:19.074Z</time></trkpt><trkpt lat="42.0112907" lon="13.2075001"><ele>1371.0</ele><time>2026-05-03T08:23:20.08Z</time></trkpt><trkpt lat="42.011209" lon="13.2075757"><ele>1374.4</ele><time>2026-05-03T08:23:21.08Z</time></trkpt><trkpt lat="42.0111163" lon="13.2076508"><ele>1377.8</ele><time>2026-05-03T08:23:22.081Z</time></trkpt><trkpt lat="42.0110279" lon="13.2077178"><ele>1381.2</ele><time>2026-05-03T08:23:23.099Z</time></trkpt><trkpt lat="42.0109349" lon="13.2077891"><ele>1384.6000000000001</ele><time>2026-05-03T08:23:24.08Z</time></trkpt><trkpt lat="42.0108542" lon="13.2078724"><ele>1388.0</ele><time>2026-05-03T08:23:25.076Z</time></trkpt><trkpt lat="42.0107798" lon="13.2079677"><ele>1391.75</ele><time>2026-05-03T08:23:26.077Z</time></trkpt><trkpt lat="42.0107075" lon="13.2080865"><ele>1395.5</ele><time>2026-05-03T08:23:27.08Z</time></trkpt><trkpt lat="42.0106314" lon="13.2082251"><ele>1399.25</ele><time>2026-05-03T08:23:28.074Z</time></trkpt><trkpt lat="42.0105451" lon="13.2083624"><ele>1403.0</ele><time>2026-05-03T08:23:29.077Z</time></trkpt><trkpt lat="42.0104466" lon="13.2084764"><ele>1406.25</ele><time>2026-05-03T08:23:30.076Z</time></trkpt><trkpt lat="42.010341" lon="13.2085691"><ele>1409.5</ele><time>2026-05-03T08:23:31.079Z</time></trkpt><trkpt lat="42.0102229" lon="13.2086562"><ele>1412.75</ele><time>2026-05-03T08:23:32.08Z</time></trkpt><trkpt lat="42.0101012" lon="13.2087547"><ele>1416.0</ele><time>2026-05-03T08:23:33.076Z</time></trkpt><trkpt lat="42.0099974" lon="13.2088526"><ele>1416.25</ele><time>2026-05-03T08:23:34.084Z</time></trkpt><trkpt lat="42.009896" lon="13.2089518"><ele>1416.5</ele><time>2026-05-03T08:23:35.079Z</time></trkpt><trkpt lat="42.0098005" lon="13.2090559"><ele>1416.75</ele><time>2026-05-03T08:23:36.079Z</time></trkpt><trkpt lat="42.0097098" lon="13.2091672"><ele>1417.0</ele><time>2026-05-03T08:23:37.079Z</time></trkpt><trkpt lat="42.0096349" lon="13.2092696"><ele>1418.3999999999999</ele><time>2026-05-03T08:23:38.078Z</time></trkpt><trkpt lat="42.0095717" lon="13.2093477"><ele>1419.8</ele><time>2026-05-03T08:23:39.079Z</time></trkpt><trkpt lat="42.0095" lon="13.2094076"><ele>1421.2</ele><time>2026-05-03T08:23:40.081Z</time></trkpt><trkpt lat="42.0094163" lon="13.2094473"><ele>1422.6</ele><time>2026-05-03T08:23:41.078Z</time></trkpt><trkpt lat="42.0093181" lon="13.2094599"><ele>1424.0</ele><time>2026-05-03T08:23:42.079Z</time></trkpt><trkpt lat="42.0092134" lon="13.2094507"><ele>1423.75</ele><time>2026-05-03T08:23:43.08Z</time></trkpt><trkpt lat="42.0091047" lon="13.2094305"><ele>1423.5</ele><time>2026-05-03T08:23:44.081Z</time></trkpt><trkpt lat="42.0089924" lon="13.209399"><ele>1423.25</ele><time>2026-05-03T08:23:45.091Z</time></trkpt><trkpt lat="42.0088749" lon="13.2093647"><ele>1423.0</ele><time>2026-05-03T08:23:46.077Z</time></trkpt><trkpt lat="42.0087511" lon="13.2093309"><ele>1423.0</ele><time>2026-05-03T08:23:47.082Z</time></trkpt><trkpt lat="42.0086293" lon="13.209302"><ele>1423.0</ele><time>2026-05-03T08:23:48.086Z</time></trkpt><trkpt lat="42.0085309" lon="13.2092644"><ele>1423.0</ele><time>2026-05-03T08:23:49.08Z</time></trkpt><trkpt lat="42.0084453" lon="13.2092237"><ele>1423.0</ele><time>2026-05-03T08:23:50.099Z</time></trkpt><trkpt lat="42.0083608" lon="13.2092023"><ele>1423.0</ele><time>2026-05-03T08:23:51.087Z</time></trkpt><trkpt lat="42.0082801" lon="13.2092202"><ele>1424.0</ele><time>2026-05-03T08:23:52.082Z</time></trkpt><trkpt lat="42.0081913" lon="13.2092662"><ele>1425.0</ele><time>2026-05-03T08:23:53.084Z</time></trkpt><trkpt lat="42.0080999" lon="13.2093161"><ele>1426.0</ele><time>2026-05-03T08:23:54.081Z</time></trkpt><trkpt lat="42.0080054" lon="13.2093775"><ele>1427.0</ele><time>2026-05-03T08:23:55.114Z</time></trkpt><trkpt lat="42.0079009" lon="13.2094496"><ele>1428.0</ele><time>2026-05-03T08:23:56.082Z</time></trkpt><trkpt lat="42.0077842" lon="13.209521"><ele>1428.0</ele><time>2026-05-03T08:23:57.094Z</time></trkpt><trkpt lat="42.007656" lon="13.2096014"><ele>1428.0</ele><time>2026-05-03T08:23:58.088Z</time></trkpt><trkpt lat="42.0075343" lon="13.2096816"><ele>1428.0</ele><time>2026-05-03T08:23:59.083Z</time></trkpt><trkpt lat="42.0074307" lon="13.2097573"><ele>1428.0</ele><time>2026-05-03T08:24:00.08Z</time></trkpt><trkpt lat="42.0073398" lon="13.2098246"><ele>1431.0</ele><time>2026-05-03T08:24:01.078Z</time></trkpt><trkpt lat="42.0072546" lon="13.2098764"><ele>1434.0</ele><time>2026-05-03T08:24:02.081Z</time></trkpt><trkpt lat="42.0071656" lon="13.2098996"><ele>1437.0</ele><time>2026-05-03T08:24:03.091Z</time></trkpt><trkpt lat="42.0070698" lon="13.2098963"><ele>1440.0</ele><time>2026-05-03T08:24:04.089Z</time></trkpt><trkpt lat="42.0069682" lon="13.2098803"><ele>1443.0</ele><time>2026-05-03T08:24:05.083Z</time></trkpt><trkpt lat="42.0068688" lon="13.2098934"><ele>1443.0</ele><time>2026-05-03T08:24:06.08Z</time></trkpt><trkpt lat="42.0067687" lon="13.2099212"><ele>1443.0</ele><time>2026-05-03T08:24:07.086Z</time></trkpt><trkpt lat="42.0066624" lon="13.2099608"><ele>1443.0</ele><time>2026-05-03T08:24:08.079Z</time></trkpt><trkpt lat="42.0065553" lon="13.210002"><ele>1443.0</ele><time>2026-05-03T08:24:09.107Z</time></trkpt><trkpt lat="42.0064445" lon="13.2100655"><ele>1443.0</ele><time>2026-05-03T08:24:10.084Z</time></trkpt><trkpt lat="42.0063183" lon="13.2101637"><ele>1442.5</ele><time>2026-05-03T08:24:11.084Z</time></trkpt><trkpt lat="42.0062045" lon="13.2102794"><ele>1442.0</ele><time>2026-05-03T08:24:12.083Z</time></trkpt><trkpt lat="42.0060942" lon="13.2103844"><ele>1441.5</ele><time>2026-05-03T08:24:13.091Z</time></trkpt><trkpt lat="42.0059842" lon="13.2104772"><ele>1441.0</ele><time>2026-05-03T08:24:14.084Z</time></trkpt><trkpt lat="42.005868" lon="13.2105421"><ele>1449.0</ele><time>2026-05-03T08:24:15.078Z</time></trkpt><trkpt lat="42.0057477" lon="13.210578"><ele>1457.0</ele><time>2026-05-03T08:24:16.081Z</time></trkpt><trkpt lat="42.0056307" lon="13.2105973"><ele>1465.0</ele><time>2026-05-03T08:24:17.082Z</time></trkpt><trkpt lat="42.0055083" lon="13.2106104"><ele>1473.0</ele><time>2026-05-03T08:24:18.089Z</time></trkpt><trkpt lat="42.005389" lon="13.2106146"><ele>1473.0</ele><time>2026-05-03T08:24:19.086Z</time></trkpt><trkpt lat="42.0052838" lon="13.2106134"><ele>1473.0</ele><time>2026-05-03T08:24:20.086Z</time></trkpt><trkpt lat="42.0051876" lon="13.2106025"><ele>1473.0</ele><time>2026-05-03T08:24:21.079Z</time></trkpt><trkpt lat="42.0051033" lon="13.2106152"><ele>1473.0</ele><time>2026-05-03T08:24:22.09Z</time></trkpt><trkpt lat="42.0050231" lon="13.2106518"><ele>1473.0</ele><time>2026-05-03T08:24:23.079Z</time></trkpt><trkpt lat="42.0049421" lon="13.2107145"><ele>1473.5</ele><time>2026-05-03T08:24:24.103Z</time></trkpt><trkpt lat="42.0048582" lon="13.2107875"><ele>1474.0</ele><time>2026-05-03T08:24:25.082Z</time></trkpt><trkpt lat="42.0047638" lon="13.2108825"><ele>1474.5</ele><time>2026-05-03T08:24:26.08Z</time></trkpt><trkpt lat="42.0046653" lon="13.2109828"><ele>1475.0</ele><time>2026-05-03T08:24:27.083Z</time></trkpt><trkpt lat="42.0045667" lon="13.2111013"><ele>1475.0</ele><time>2026-05-03T08:24:28.082Z</time></trkpt><trkpt lat="42.0044707" lon="13.2112314"><ele>1475.0</ele><time>2026-05-03T08:24:29.081Z</time></trkpt><trkpt lat="42.0043622" lon="13.2113685"><ele>1475.0</ele><time>2026-05-03T08:24:30.084Z</time></trkpt><trkpt lat="42.0042461" lon="13.2115131"><ele>1475.0</ele><time>2026-05-03T08:24:31.076Z</time></trkpt><trkpt lat="42.004138" lon="13.2116793"><ele>1474.6666666666667</ele><time>2026-05-03T08:24:32.093Z</time></trkpt><trkpt lat="42.0040278" lon="13.2118438"><ele>1474.3333333333333</ele><time>2026-05-03T08:24:33.077Z</time></trkpt><trkpt lat="42.0039235" lon="13.2119901"><ele>1474.0</ele><time>2026-05-03T08:24:34.083Z</time></trkpt><trkpt lat="42.0038283" lon="13.2121275"><ele>1474.0</ele><time>2026-05-03T08:24:35.086Z</time></trkpt><trkpt lat="42.0037333" lon="13.2122747"><ele>1474.0</ele><time>2026-05-03T08:24:36.081Z</time></trkpt><trkpt lat="42.003634" lon="13.2124424"><ele>1474.0</ele><time>2026-05-03T08:24:37.084Z</time></trkpt><trkpt lat="42.0035211" lon="13.2126274"><ele>1471.6666666666665</ele><time>2026-05-03T08:24:38.079Z</time></trkpt><trkpt lat="42.0034084" lon="13.2128084"><ele>1469.3333333333333</ele><time>2026-05-03T08:24:39.085Z</time></trkpt><trkpt lat="42.0032926" lon="13.2129821"><ele>1467.0</ele><time>2026-05-03T08:24:40.085Z</time></trkpt><trkpt lat="42.0031751" lon="13.213166"><ele>1467.0</ele><time>2026-05-03T08:24:41.081Z</time></trkpt><trkpt lat="42.0030655" lon="13.2133418"><ele>1467.0</ele><time>2026-05-03T08:24:42.079Z</time></trkpt><trkpt lat="42.0029607" lon="13.2134972"><ele>1467.0</ele><time>2026-05-03T08:24:43.084Z</time></trkpt><trkpt lat="42.0028639" lon="13.2136343"><ele>1467.0</ele><time>2026-05-03T08:24:44.118Z</time></trkpt><trkpt lat="42.0027824" lon="13.2137576"><ele>1467.0</ele><time>2026-05-03T08:24:45.081Z</time></trkpt><trkpt lat="42.0027043" lon="13.2138838"><ele>1467.0</ele><time>2026-05-03T08:24:46.087Z</time></trkpt><trkpt lat="42.0026239" lon="13.2140163"><ele>1467.0</ele><time>2026-05-03T08:24:47.082Z</time></trkpt><trkpt lat="42.0025373" lon="13.214163"><ele>1468.25</ele><time>2026-05-03T08:24:48.084Z</time></trkpt><trkpt lat="42.0024506" lon="13.2143124"><ele>1469.5</ele><time>2026-05-03T08:24:49.084Z</time></trkpt><trkpt lat="42.0023699" lon="13.2144624"><ele>1470.75</ele><time>2026-05-03T08:24:50.088Z</time></trkpt><trkpt lat="42.0022935" lon="13.2146255"><ele>1472.0</ele><time>2026-05-03T08:24:51.117Z</time></trkpt><trkpt lat="42.0022232" lon="13.2147966"><ele>1473.0</ele><time>2026-05-03T08:24:52.091Z</time></trkpt><trkpt lat="42.0021561" lon="13.2149809"><ele>1474.0</ele><time>2026-05-03T08:24:53.085Z</time></trkpt><trkpt lat="42.0020885" lon="13.215153"><ele>1475.0</ele><time>2026-05-03T08:24:54.083Z</time></trkpt><trkpt lat="42.0020209" lon="13.2152962"><ele>1476.0</ele><time>2026-05-03T08:24:55.081Z</time></trkpt><trkpt lat="42.0019375" lon="13.2154216"><ele>1476.0</ele><time>2026-05-03T08:24:56.083Z</time></trkpt><trkpt lat="42.0018596" lon="13.215531"><ele>1476.0</ele><time>2026-05-03T08:24:57.084Z</time></trkpt><trkpt lat="42.0017985" lon="13.2156452"><ele>1476.0</ele><time>2026-05-03T08:24:58.13Z</time></trkpt><trkpt lat="42.0017461" lon="13.2157737"><ele>1476.0</ele><time>2026-05-03T08:24:59.085Z</time></trkpt><trkpt lat="42.0016891" lon="13.2159299"><ele>1478.25</ele><time>2026-05-03T08:25:00.086Z</time></trkpt><trkpt lat="42.0016253" lon="13.2160975"><ele>1480.5</ele><time>2026-05-03T08:25:01.084Z</time></trkpt><trkpt lat="42.0015481" lon="13.21628"><ele>1482.75</ele><time>2026-05-03T08:25:02.091Z</time></trkpt><trkpt lat="42.0014851" lon="13.2164468"><ele>1485.0</ele><time>2026-05-03T08:25:03.105Z</time></trkpt><trkpt lat="42.0014327" lon="13.2165766"><ele>1485.0</ele><time>2026-05-03T08:25:04.086Z</time></trkpt><trkpt lat="42.0013939" lon="13.2166681"><ele>1485.0</ele><time>2026-05-03T08:25:05.078Z</time></trkpt><trkpt lat="42.0013816" lon="13.2168332"><ele>1485.0</ele><time>2026-05-03T08:25:07.094Z</time></trkpt><trkpt lat="42.0014024" lon="13.216938"><ele>1485.0</ele><time>2026-05-03T08:25:08.085Z</time></trkpt><trkpt lat="42.0014326" lon="13.2170624"><ele>1485.0</ele><time>2026-05-03T08:25:09.109Z</time></trkpt><trkpt lat="42.0014649" lon="13.21719"><ele>1485.0</ele><time>2026-05-03T08:25:10.093Z</time></trkpt><trkpt lat="42.0015217" lon="13.2173099"><ele>1485.0</ele><time>2026-05-03T08:25:11.089Z</time></trkpt><trkpt lat="42.0016045" lon="13.2174222"><ele>1485.0</ele><time>2026-05-03T08:25:12.081Z</time></trkpt><trkpt lat="42.0016982" lon="13.217534"><ele>1485.0</ele><time>2026-05-03T08:25:13.087Z</time></trkpt><trkpt lat="42.0017975" lon="13.2176468"><ele>1484.0</ele><time>2026-05-03T08:25:14.088Z</time></trkpt><trkpt lat="42.0018847" lon="13.2177752"><ele>1483.0</ele><time>2026-05-03T08:25:15.085Z</time></trkpt><trkpt lat="42.0019498" lon="13.2178975"><ele>1482.0</ele><time>2026-05-03T08:25:16.088Z</time></trkpt><trkpt lat="42.0019901" lon="13.2180163"><ele>1481.0</ele><time>2026-05-03T08:25:17.095Z</time></trkpt><trkpt lat="42.0020173" lon="13.2181683"><ele>1481.0</ele><time>2026-05-03T08:25:18.089Z</time></trkpt><trkpt lat="42.0020476" lon="13.2183368"><ele>1481.0</ele><time>2026-05-03T08:25:19.087Z</time></trkpt><trkpt lat="42.0020759" lon="13.218515"><ele>1481.0</ele><time>2026-05-03T08:25:20.082Z</time></trkpt><trkpt lat="42.0020847" lon="13.2187031"><ele>1481.0</ele><time>2026-05-03T08:25:21.086Z</time></trkpt><trkpt lat="42.0020725" lon="13.2189096"><ele>1480.75</ele><time>2026-05-03T08:25:22.083Z</time></trkpt><trkpt lat="42.0020496" lon="13.2191187"><ele>1480.5</ele><time>2026-05-03T08:25:23.082Z</time></trkpt><trkpt lat="42.0020266" lon="13.2192991"><ele>1480.25</ele><time>2026-05-03T08:25:24.076Z</time></trkpt><trkpt lat="42.0020062" lon="13.219444"><ele>1480.0</ele><time>2026-05-03T08:25:25.08Z</time></trkpt><trkpt lat="42.001981" lon="13.2195752"><ele>1480.0</ele><time>2026-05-03T08:25:26.082Z</time></trkpt><trkpt lat="42.0019604" lon="13.2197105"><ele>1480.0</ele><time>2026-05-03T08:25:27.084Z</time></trkpt><trkpt lat="42.0019506" lon="13.2198437"><ele>1480.0</ele><time>2026-05-03T08:25:28.079Z</time></trkpt><trkpt lat="42.0019458" lon="13.2199709"><ele>1480.0</ele><time>2026-05-03T08:25:29.077Z</time></trkpt><trkpt lat="42.0019549" lon="13.2200844"><ele>1480.0</ele><time>2026-05-03T08:25:30.082Z</time></trkpt><trkpt lat="42.0019633" lon="13.2201969"><ele>1480.8</ele><time>2026-05-03T08:25:31.084Z</time></trkpt><trkpt lat="42.0019781" lon="13.2203207"><ele>1481.6</ele><time>2026-05-03T08:25:32.089Z</time></trkpt><trkpt lat="42.001999" lon="13.2204492"><ele>1482.4</ele><time>2026-05-03T08:25:33.086Z</time></trkpt><trkpt lat="42.0020276" lon="13.2205724"><ele>1483.2</ele><time>2026-05-03T08:25:34.088Z</time></trkpt><trkpt lat="42.0020422" lon="13.2206938"><ele>1484.0</ele><time>2026-05-03T08:25:35.079Z</time></trkpt><trkpt lat="42.0020413" lon="13.2208319"><ele>1484.5</ele><time>2026-05-03T08:25:36.085Z</time></trkpt><trkpt lat="42.0020218" lon="13.2209815"><ele>1485.0</ele><time>2026-05-03T08:25:37.081Z</time></trkpt><trkpt lat="42.0019983" lon="13.2211463"><ele>1485.5</ele><time>2026-05-03T08:25:38.081Z</time></trkpt><trkpt lat="42.0019766" lon="13.2213196"><ele>1486.0</ele><time>2026-05-03T08:25:39.084Z</time></trkpt><trkpt lat="42.0019541" lon="13.2214943"><ele>1484.25</ele><time>2026-05-03T08:25:40.084Z</time></trkpt><trkpt lat="42.0019246" lon="13.2216626"><ele>1482.5</ele><time>2026-05-03T08:25:41.087Z</time></trkpt><trkpt lat="42.0019029" lon="13.2218359"><ele>1480.75</ele><time>2026-05-03T08:25:42.078Z</time></trkpt><trkpt lat="42.0018935" lon="13.2220128"><ele>1479.0</ele><time>2026-05-03T08:25:43.081Z</time></trkpt><trkpt lat="42.0018866" lon="13.2221801"><ele>1478.0</ele><time>2026-05-03T08:25:44.086Z</time></trkpt><trkpt lat="42.0018858" lon="13.2223384"><ele>1477.0</ele><time>2026-05-03T08:25:45.079Z</time></trkpt><trkpt lat="42.0018922" lon="13.2224882"><ele>1476.0</ele><time>2026-05-03T08:25:46.107Z</time></trkpt><trkpt lat="42.0018943" lon="13.2226191"><ele>1475.0</ele><time>2026-05-03T08:25:47.083Z</time></trkpt><trkpt lat="42.0018959" lon="13.2227268"><ele>1474.0</ele><time>2026-05-03T08:25:48.084Z</time></trkpt><trkpt lat="42.0018952" lon="13.2228312"><ele>1474.0</ele><time>2026-05-03T08:25:49.086Z</time></trkpt><trkpt lat="42.0018943" lon="13.2229284"><ele>1474.0</ele><time>2026-05-03T08:25:50.091Z</time></trkpt><trkpt lat="42.0019046" lon="13.2230377"><ele>1474.0</ele><time>2026-05-03T08:25:51.092Z</time></trkpt><trkpt lat="42.0019394" lon="13.2231477"><ele>1474.0</ele><time>2026-05-03T08:25:52.083Z</time></trkpt><trkpt lat="42.0019908" lon="13.2232482"><ele>1474.0</ele><time>2026-05-03T08:25:53.12Z</time></trkpt><trkpt lat="42.0020492" lon="13.2233113"><ele>1474.0</ele><time>2026-05-03T08:25:54.087Z</time></trkpt><trkpt lat="42.0021394" lon="13.2234076"><ele>1472.5</ele><time>2026-05-03T08:25:56.09Z</time></trkpt><trkpt lat="42.0022179" lon="13.2235411"><ele>1471.0</ele><time>2026-05-03T08:25:58.089Z</time></trkpt><trkpt lat="42.00225" lon="13.2236302"><ele>1469.5</ele><time>2026-05-03T08:25:59.082Z</time></trkpt><trkpt lat="42.0022728" lon="13.2237301"><ele>1468.0</ele><time>2026-05-03T08:26:00.078Z</time></trkpt><trkpt lat="42.0022925" lon="13.2238323"><ele>1466.5</ele><time>2026-05-03T08:26:01.084Z</time></trkpt><trkpt lat="42.0023327" lon="13.2239258"><ele>1465.0</ele><time>2026-05-03T08:26:02.089Z</time></trkpt><trkpt lat="42.0023738" lon="13.2240241"><ele>1467.3333333333333</ele><time>2026-05-03T08:26:03.084Z</time></trkpt><trkpt lat="42.0024104" lon="13.2241285"><ele>1469.6666666666665</ele><time>2026-05-03T08:26:04.088Z</time></trkpt><trkpt lat="42.0024497" lon="13.2242291"><ele>1472.0</ele><time>2026-05-03T08:26:05.083Z</time></trkpt><trkpt lat="42.0024936" lon="13.2243141"><ele>1474.3333333333333</ele><time>2026-05-03T08:26:06.115Z</time></trkpt><trkpt lat="42.0025354" lon="13.2243984"><ele>1476.6666666666667</ele><time>2026-05-03T08:26:07.09Z</time></trkpt><trkpt lat="42.0025764" lon="13.2244945"><ele>1479.0</ele><time>2026-05-03T08:26:08.09Z</time></trkpt><trkpt lat="42.0026212" lon="13.2245937"><ele>1479.0</ele><time>2026-05-03T08:26:09.088Z</time></trkpt><trkpt lat="42.0026811" lon="13.2246931"><ele>1479.0</ele><time>2026-05-03T08:26:10.085Z</time></trkpt><trkpt lat="42.0027434" lon="13.2247766"><ele>1479.0</ele><time>2026-05-03T08:26:11.092Z</time></trkpt><trkpt lat="42.0028157" lon="13.2248489"><ele>1479.0</ele><time>2026-05-03T08:26:12.081Z</time></trkpt><trkpt lat="42.0028879" lon="13.2249141"><ele>1479.0</ele><time>2026-05-03T08:26:13.1Z</time></trkpt><trkpt lat="42.0029564" lon="13.2249805"><ele>1479.0</ele><time>2026-05-03T08:26:14.091Z</time></trkpt><trkpt lat="42.0030218" lon="13.2250518"><ele>1478.3333333333333</ele><time>2026-05-03T08:26:15.085Z</time></trkpt><trkpt lat="42.0030788" lon="13.2251097"><ele>1477.6666666666667</ele><time>2026-05-03T08:26:16.082Z</time></trkpt><trkpt lat="42.0031369" lon="13.2251483"><ele>1477.0</ele><time>2026-05-03T08:26:17.086Z</time></trkpt><trkpt lat="42.0032616" lon="13.2251543"><ele>1476.3333333333335</ele><time>2026-05-03T08:26:19.091Z</time></trkpt><trkpt lat="42.0033349" lon="13.2251487"><ele>1475.6666666666667</ele><time>2026-05-03T08:26:20.08Z</time></trkpt><trkpt lat="42.0034029" lon="13.2251501"><ele>1475.0</ele><time>2026-05-03T08:26:21.087Z</time></trkpt><trkpt lat="42.0034739" lon="13.2251572"><ele>1475.0</ele><time>2026-05-03T08:26:22.084Z</time></trkpt><trkpt lat="42.0035493" lon="13.225143"><ele>1475.0</ele><time>2026-05-03T08:26:23.09Z</time></trkpt><trkpt lat="42.0036823" lon="13.2251185"><ele>1475.0</ele><time>2026-05-03T08:26:25.097Z</time></trkpt><trkpt lat="42.0037441" lon="13.2250908"><ele>1475.0</ele><time>2026-05-03T08:26:26.082Z</time></trkpt><trkpt lat="42.0038508" lon="13.2250242"><ele>1475.0</ele><time>2026-05-03T08:26:28.082Z</time></trkpt><trkpt lat="42.0039648" lon="13.2249584"><ele>1475.0</ele><time>2026-05-03T08:26:30.082Z</time></trkpt><trkpt lat="42.004031" lon="13.224921"><ele>1475.0</ele><time>2026-05-03T08:26:31.082Z</time></trkpt><trkpt lat="42.0040977" lon="13.2248959"><ele>1475.0</ele><time>2026-05-03T08:26:32.085Z</time></trkpt><trkpt lat="42.0041697" lon="13.2248543"><ele>1475.0</ele><time>2026-05-03T08:26:33.087Z</time></trkpt><trkpt lat="42.0042444" lon="13.2248253"><ele>1475.0</ele><time>2026-05-03T08:26:34.073Z</time></trkpt><trkpt lat="42.0043285" lon="13.2248088"><ele>1475.0</ele><time>2026-05-03T08:26:35.083Z</time></trkpt><trkpt lat="42.0044084" lon="13.2247914"><ele>1477.8333333333335</ele><time>2026-05-03T08:26:36.079Z</time></trkpt><trkpt lat="42.0044761" lon="13.2247654"><ele>1480.6666666666667</ele><time>2026-05-03T08:26:37.075Z</time></trkpt><trkpt lat="42.004576" lon="13.2246842"><ele>1483.5</ele><time>2026-05-03T08:26:39.077Z</time></trkpt><trkpt lat="42.0046342" lon="13.2246362"><ele>1486.3333333333333</ele><time>2026-05-03T08:26:40.084Z</time></trkpt><trkpt lat="42.0046966" lon="13.224587"><ele>1489.1666666666665</ele><time>2026-05-03T08:26:41.082Z</time></trkpt><trkpt lat="42.0047571" lon="13.224539"><ele>1492.0</ele><time>2026-05-03T08:26:42.079Z</time></trkpt><trkpt lat="42.0048608" lon="13.2244601"><ele>1492.0</ele><time>2026-05-03T08:26:44.092Z</time></trkpt><trkpt lat="42.0049708" lon="13.2243856"><ele>1492.0</ele><time>2026-05-03T08:26:46.077Z</time></trkpt><trkpt lat="42.0050577" lon="13.2242969"><ele>1492.0</ele><time>2026-05-03T08:26:48.081Z</time></trkpt><trkpt lat="42.0051363" lon="13.2242057"><ele>1492.0</ele><time>2026-05-03T08:26:50.118Z</time></trkpt><trkpt lat="42.0052461" lon="13.2241195"><ele>1490.0</ele><time>2026-05-03T08:26:52.085Z</time></trkpt><trkpt lat="42.0053159" lon="13.2240819"><ele>1488.0</ele><time>2026-05-03T08:26:53.081Z</time></trkpt><trkpt lat="42.0053905" lon="13.2240363"><ele>1486.0</ele><time>2026-05-03T08:26:54.087Z</time></trkpt><trkpt lat="42.0054637" lon="13.2239996"><ele>1484.0</ele><time>2026-05-03T08:26:55.081Z</time></trkpt><trkpt lat="42.0055874" lon="13.2239495"><ele>1482.0</ele><time>2026-05-03T08:26:57.08Z</time></trkpt><trkpt lat="42.0056581" lon="13.2239437"><ele>1480.0</ele><time>2026-05-03T08:27:00.088Z</time></trkpt><trkpt lat="42.0057389" lon="13.2239847"><ele>1476.5</ele><time>2026-05-03T08:27:04.083Z</time></trkpt><trkpt lat="42.0057627" lon="13.2240672"><ele>1473.0</ele><time>2026-05-03T08:27:06.082Z</time></trkpt><trkpt lat="42.005769" lon="13.2241685"><ele>1469.5</ele><time>2026-05-03T08:27:08.08Z</time></trkpt><trkpt lat="42.0057576" lon="13.2243491"><ele>1466.0</ele><time>2026-05-03T08:27:10.087Z</time></trkpt><trkpt lat="42.0057476" lon="13.2244476"><ele>1462.5</ele><time>2026-05-03T08:27:11.09Z</time></trkpt><trkpt lat="42.0057258" lon="13.2245543"><ele>1459.0</ele><time>2026-05-03T08:27:12.085Z</time></trkpt><trkpt lat="42.0056811" lon="13.224662"><ele>1459.0</ele><time>2026-05-03T08:27:13.09Z</time></trkpt><trkpt lat="42.0056322" lon="13.2247677"><ele>1459.0</ele><time>2026-05-03T08:27:14.085Z</time></trkpt><trkpt lat="42.0055868" lon="13.2248544"><ele>1459.0</ele><time>2026-05-03T08:27:15.085Z</time></trkpt><trkpt lat="42.0055376" lon="13.2249434"><ele>1459.0</ele><time>2026-05-03T08:27:16.126Z</time></trkpt><trkpt lat="42.0054861" lon="13.2250315"><ele>1459.0</ele><time>2026-05-03T08:27:17.086Z</time></trkpt><trkpt lat="42.0054341" lon="13.2251168"><ele>1459.0</ele><time>2026-05-03T08:27:18.092Z</time></trkpt><trkpt lat="42.005381" lon="13.2252004"><ele>1455.6</ele><time>2026-05-03T08:27:19.089Z</time></trkpt><trkpt lat="42.005332" lon="13.225285"><ele>1452.2</ele><time>2026-05-03T08:27:20.084Z</time></trkpt><trkpt lat="42.0052625" lon="13.2254194"><ele>1448.8</ele><time>2026-05-03T08:27:22.085Z</time></trkpt><trkpt lat="42.0052012" lon="13.2255405"><ele>1445.3999999999999</ele><time>2026-05-03T08:27:24.083Z</time></trkpt><trkpt lat="42.0051789" lon="13.2256771"><ele>1442.0</ele><time>2026-05-03T08:27:26.09Z</time></trkpt><trkpt lat="42.0051782" lon="13.2258036"><ele>1439.3999999999999</ele><time>2026-05-03T08:27:28.084Z</time></trkpt><trkpt lat="42.0051733" lon="13.2259373"><ele>1436.8</ele><time>2026-05-03T08:27:30.088Z</time></trkpt><trkpt lat="42.0051868" lon="13.226113"><ele>1434.2</ele><time>2026-05-03T08:27:32.081Z</time></trkpt><trkpt lat="42.0051927" lon="13.2262248"><ele>1431.6</ele><time>2026-05-03T08:27:33.118Z</time></trkpt><trkpt lat="42.0051934" lon="13.2263559"><ele>1429.0</ele><time>2026-05-03T08:27:34.092Z</time></trkpt><trkpt lat="42.0052016" lon="13.2264795"><ele>1426.4</ele><time>2026-05-03T08:27:35.088Z</time></trkpt><trkpt lat="42.0052146" lon="13.2266011"><ele>1423.8000000000002</ele><time>2026-05-03T08:27:36.082Z</time></trkpt><trkpt lat="42.0052288" lon="13.2267171"><ele>1421.1999999999998</ele><time>2026-05-03T08:27:37.084Z</time></trkpt><trkpt lat="42.0052373" lon="13.2268337"><ele>1418.6</ele><time>2026-05-03T08:27:38.084Z</time></trkpt><trkpt lat="42.0052437" lon="13.2269565"><ele>1416.0</ele><time>2026-05-03T08:27:39.086Z</time></trkpt><trkpt lat="42.0052506" lon="13.2270871"><ele>1416.0</ele><time>2026-05-03T08:27:40.08Z</time></trkpt><trkpt lat="42.0052447" lon="13.2272208"><ele>1416.0</ele><time>2026-05-03T08:27:41.084Z</time></trkpt><trkpt lat="42.0052498" lon="13.2273423"><ele>1416.0</ele><time>2026-05-03T08:27:42.084Z</time></trkpt><trkpt lat="42.0052607" lon="13.2274475"><ele>1416.0</ele><time>2026-05-03T08:27:43.085Z</time></trkpt><trkpt lat="42.0052614" lon="13.2275508"><ele>1416.0</ele><time>2026-05-03T08:27:44.086Z</time></trkpt><trkpt lat="42.005265" lon="13.2276591"><ele>1416.0</ele><time>2026-05-03T08:27:45.097Z</time></trkpt><trkpt lat="42.005276" lon="13.2277686"><ele>1413.6666666666667</ele><time>2026-05-03T08:27:46.085Z</time></trkpt><trkpt lat="42.0052821" lon="13.2278625"><ele>1411.3333333333333</ele><time>2026-05-03T08:27:47.084Z</time></trkpt><trkpt lat="42.0052717" lon="13.227966"><ele>1409.0</ele><time>2026-05-03T08:27:48.117Z</time></trkpt><trkpt lat="42.0052657" lon="13.2280794"><ele>1406.6666666666665</ele><time>2026-05-03T08:27:49.081Z</time></trkpt><trkpt lat="42.0052574" lon="13.2281931"><ele>1404.3333333333333</ele><time>2026-05-03T08:27:50.091Z</time></trkpt><trkpt lat="42.0052597" lon="13.2283112"><ele>1402.0</ele><time>2026-05-03T08:27:51.086Z</time></trkpt><trkpt lat="42.0052719" lon="13.2284349"><ele>1399.8333333333333</ele><time>2026-05-03T08:27:52.086Z</time></trkpt><trkpt lat="42.0052852" lon="13.2285658"><ele>1397.6666666666665</ele><time>2026-05-03T08:27:53.086Z</time></trkpt><trkpt lat="42.0052907" lon="13.2286788"><ele>1395.5</ele><time>2026-05-03T08:27:54.085Z</time></trkpt><trkpt lat="42.0053007" lon="13.2287767"><ele>1393.3333333333333</ele><time>2026-05-03T08:27:55.111Z</time></trkpt><trkpt lat="42.0052999" lon="13.2288776"><ele>1391.1666666666667</ele><time>2026-05-03T08:27:56.089Z</time></trkpt><trkpt lat="42.0052909" lon="13.2289827"><ele>1389.0</ele><time>2026-05-03T08:27:57.083Z</time></trkpt><trkpt lat="42.0052808" lon="13.2290797"><ele>1388.8000000000002</ele><time>2026-05-03T08:27:58.08Z</time></trkpt><trkpt lat="42.0052638" lon="13.2291734"><ele>1388.6000000000001</ele><time>2026-05-03T08:27:59.082Z</time></trkpt><trkpt lat="42.0052324" lon="13.2292646"><ele>1388.4</ele><time>2026-05-03T08:28:00.089Z</time></trkpt><trkpt lat="42.005192" lon="13.2293475"><ele>1388.2</ele><time>2026-05-03T08:28:01.084Z</time></trkpt><trkpt lat="42.0051488" lon="13.2294983"><ele>1388.0</ele><time>2026-05-03T08:28:03.085Z</time></trkpt><trkpt lat="42.0051406" lon="13.2296474"><ele>1388.0</ele><time>2026-05-03T08:28:05.085Z</time></trkpt><trkpt lat="42.0051515" lon="13.2297381"><ele>1388.0</ele><time>2026-05-03T08:28:06.083Z</time></trkpt><trkpt lat="42.0051947" lon="13.2298774"><ele>1388.0</ele><time>2026-05-03T08:28:08.088Z</time></trkpt><trkpt lat="42.0052278" lon="13.2299598"><ele>1388.0</ele><time>2026-05-03T08:28:09.092Z</time></trkpt><trkpt lat="42.0052566" lon="13.2300569"><ele>1388.0</ele><time>2026-05-03T08:28:10.087Z</time></trkpt><trkpt lat="42.0052882" lon="13.2301509"><ele>1388.0</ele><time>2026-05-03T08:28:11.091Z</time></trkpt><trkpt lat="42.0053173" lon="13.2302586"><ele>1390.8000000000002</ele><time>2026-05-03T08:28:12.088Z</time></trkpt><trkpt lat="42.005342" lon="13.2303755"><ele>1393.6</ele><time>2026-05-03T08:28:13.095Z</time></trkpt><trkpt lat="42.0053764" lon="13.2305053"><ele>1396.4</ele><time>2026-05-03T08:28:14.112Z</time></trkpt><trkpt lat="42.005417" lon="13.2306278"><ele>1399.1999999999998</ele><time>2026-05-03T08:28:15.087Z</time></trkpt><trkpt lat="42.0054566" lon="13.2307483"><ele>1402.0</ele><time>2026-05-03T08:28:16.09Z</time></trkpt><trkpt lat="42.0054935" lon="13.2308606"><ele>1404.5</ele><time>2026-05-03T08:28:17.085Z</time></trkpt><trkpt lat="42.0055198" lon="13.2309662"><ele>1407.0</ele><time>2026-05-03T08:28:18.081Z</time></trkpt><trkpt lat="42.005549" lon="13.2310782"><ele>1409.5</ele><time>2026-05-03T08:28:19.085Z</time></trkpt><trkpt lat="42.0055694" lon="13.2311889"><ele>1412.0</ele><time>2026-05-03T08:28:20.085Z</time></trkpt><trkpt lat="42.0055832" lon="13.2313031"><ele>1414.5</ele><time>2026-05-03T08:28:21.079Z</time></trkpt><trkpt lat="42.005585" lon="13.2314228"><ele>1417.0</ele><time>2026-05-03T08:28:22.083Z</time></trkpt><trkpt lat="42.0055772" lon="13.2315476"><ele>1417.5</ele><time>2026-05-03T08:28:23.095Z</time></trkpt><trkpt lat="42.0055661" lon="13.2316809"><ele>1418.0</ele><time>2026-05-03T08:28:24.091Z</time></trkpt><trkpt lat="42.0055444" lon="13.2318334"><ele>1418.5</ele><time>2026-05-03T08:28:25.083Z</time></trkpt><trkpt lat="42.0055205" lon="13.2319904"><ele>1419.0</ele><time>2026-05-03T08:28:26.081Z</time></trkpt><trkpt lat="42.0054868" lon="13.2321546"><ele>1416.6</ele><time>2026-05-03T08:28:27.08Z</time></trkpt><trkpt lat="42.005469" lon="13.2323074"><ele>1414.2</ele><time>2026-05-03T08:28:28.081Z</time></trkpt><trkpt lat="42.0054602" lon="13.2324571"><ele>1411.8</ele><time>2026-05-03T08:28:29.079Z</time></trkpt><trkpt lat="42.005435" lon="13.2326009"><ele>1409.3999999999999</ele><time>2026-05-03T08:28:30.081Z</time></trkpt><trkpt lat="42.0054054" lon="13.2327418"><ele>1407.0</ele><time>2026-05-03T08:28:31.076Z</time></trkpt><trkpt lat="42.0053878" lon="13.2328788"><ele>1407.0</ele><time>2026-05-03T08:28:32.085Z</time></trkpt><trkpt lat="42.0053566" lon="13.2329606"><ele>1407.0</ele><time>2026-05-03T08:28:33.08Z</time></trkpt><trkpt lat="42.0053076" lon="13.2330304"><ele>1407.0</ele><time>2026-05-03T08:28:35.083Z</time></trkpt><trkpt lat="42.0053646" lon="13.2329677"><ele>1407.0</ele><time>2026-05-03T08:28:53.08Z</time></trkpt><trkpt lat="42.0054156" lon="13.2328553"><ele>1407.0</ele><time>2026-05-03T08:28:55.082Z</time></trkpt><trkpt lat="42.0054722" lon="13.2327309"><ele>1407.0</ele><time>2026-05-03T08:28:57.086Z</time></trkpt><trkpt lat="42.0055458" lon="13.2326807"><ele>1407.0</ele><time>2026-05-03T08:28:59.111Z</time></trkpt><trkpt lat="42.0056569" lon="13.2326939"><ele>1407.0</ele><time>2026-05-03T08:29:01.079Z</time></trkpt><trkpt lat="42.0057095" lon="13.2327697"><ele>1407.0</ele><time>2026-05-03T08:29:03.075Z</time></trkpt><trkpt lat="42.0057411" lon="13.2329156"><ele>1407.0</ele><time>2026-05-03T08:29:05.073Z</time></trkpt><trkpt lat="42.0057541" lon="13.2330103"><ele>1407.0</ele><time>2026-05-03T08:29:06.078Z</time></trkpt><trkpt lat="42.0057664" lon="13.2331088"><ele>1407.0</ele><time>2026-05-03T08:29:07.084Z</time></trkpt><trkpt lat="42.0057907" lon="13.233203"><ele>1404.8</ele><time>2026-05-03T08:29:08.077Z</time></trkpt><trkpt lat="42.0058135" lon="13.2332827"><ele>1402.6</ele><time>2026-05-03T08:29:09.085Z</time></trkpt><trkpt lat="42.0058799" lon="13.2333833"><ele>1400.3999999999999</ele><time>2026-05-03T08:29:11.082Z</time></trkpt><trkpt lat="42.0059782" lon="13.2334066"><ele>1398.1999999999998</ele><time>2026-05-03T08:29:13.076Z</time></trkpt><trkpt lat="42.0060982" lon="13.2333603"><ele>1396.0</ele><time>2026-05-03T08:29:15.076Z</time></trkpt><trkpt lat="42.0061595" lon="13.2333335"><ele>1392.1999999999998</ele><time>2026-05-03T08:29:16.079Z</time></trkpt><trkpt lat="42.0062457" lon="13.2332699"><ele>1388.3999999999999</ele><time>2026-05-03T08:29:18.077Z</time></trkpt><trkpt lat="42.0063291" lon="13.2331311"><ele>1384.6</ele><time>2026-05-03T08:29:20.081Z</time></trkpt><trkpt lat="42.0063578" lon="13.2330406"><ele>1380.8</ele><time>2026-05-03T08:29:21.079Z</time></trkpt><trkpt lat="42.006389" lon="13.2329415"><ele>1377.0</ele><time>2026-05-03T08:29:22.075Z</time></trkpt><trkpt lat="42.0064051" lon="13.232834"><ele>1377.0</ele><time>2026-05-03T08:29:23.076Z</time></trkpt><trkpt lat="42.0064094" lon="13.2327229"><ele>1377.0</ele><time>2026-05-03T08:29:24.079Z</time></trkpt><trkpt lat="42.0064076" lon="13.2326134"><ele>1377.0</ele><time>2026-05-03T08:29:25.075Z</time></trkpt><trkpt lat="42.0063781" lon="13.232496"><ele>1377.0</ele><time>2026-05-03T08:29:26.096Z</time></trkpt><trkpt lat="42.0063408" lon="13.2323686"><ele>1377.0</ele><time>2026-05-03T08:29:27.084Z</time></trkpt><trkpt lat="42.0063059" lon="13.2322427"><ele>1377.0</ele><time>2026-05-03T08:29:28.089Z</time></trkpt><trkpt lat="42.0062835" lon="13.2321324"><ele>1377.0</ele><time>2026-05-03T08:29:29.083Z</time></trkpt><trkpt lat="42.0062793" lon="13.2320219"><ele>1377.0</ele><time>2026-05-03T08:29:30.078Z</time></trkpt><trkpt lat="42.0062955" lon="13.2319014"><ele>1377.0</ele><time>2026-05-03T08:29:31.08Z</time></trkpt><trkpt lat="42.0063164" lon="13.2317778"><ele>1377.0</ele><time>2026-05-03T08:29:32.079Z</time></trkpt><trkpt lat="42.0063279" lon="13.2316405"><ele>1377.0</ele><time>2026-05-03T08:29:33.073Z</time></trkpt><trkpt lat="42.0063309" lon="13.2314968"><ele>1377.0</ele><time>2026-05-03T08:29:34.077Z</time></trkpt><trkpt lat="42.0063315" lon="13.2313548"><ele>1377.0</ele><time>2026-05-03T08:29:35.075Z</time></trkpt><trkpt lat="42.0063202" lon="13.2312299"><ele>1377.0</ele><time>2026-05-03T08:29:36.079Z</time></trkpt><trkpt lat="42.0063061" lon="13.2311267"><ele>1377.0</ele><time>2026-05-03T08:29:37.097Z</time></trkpt><trkpt lat="42.0062938" lon="13.2309828"><ele>1377.0</ele><time>2026-05-03T08:29:39.078Z</time></trkpt><trkpt lat="42.0063553" lon="13.2308952"><ele>1377.0</ele><time>2026-05-03T08:29:41.076Z</time></trkpt><trkpt lat="42.0064581" lon="13.2308905"><ele>1377.0</ele><time>2026-05-03T08:29:43.07Z</time></trkpt><trkpt lat="42.0065287" lon="13.2309006"><ele>1377.0</ele><time>2026-05-03T08:29:44.07Z</time></trkpt><trkpt lat="42.0066019" lon="13.2309186"><ele>1377.0</ele><time>2026-05-03T08:29:45.078Z</time></trkpt><trkpt lat="42.0066751" lon="13.2309476"><ele>1377.0</ele><time>2026-05-03T08:29:46.086Z</time></trkpt><trkpt lat="42.0067434" lon="13.2309698"><ele>1373.5</ele><time>2026-05-03T08:29:47.086Z</time></trkpt><trkpt lat="42.0068109" lon="13.2309972"><ele>1370.0</ele><time>2026-05-03T08:29:48.079Z</time></trkpt><trkpt lat="42.006876" lon="13.2310446"><ele>1366.5</ele><time>2026-05-03T08:29:49.089Z</time></trkpt><trkpt lat="42.0069308" lon="13.2311122"><ele>1363.0</ele><time>2026-05-03T08:29:50.083Z</time></trkpt><trkpt lat="42.0069629" lon="13.2311963"><ele>1359.5</ele><time>2026-05-03T08:29:51.075Z</time></trkpt><trkpt lat="42.00699" lon="13.2313055"><ele>1356.0</ele><time>2026-05-03T08:29:52.082Z</time></trkpt><trkpt lat="42.0070194" lon="13.2314257"><ele>1355.0</ele><time>2026-05-03T08:29:53.075Z</time></trkpt><trkpt lat="42.007054" lon="13.23154"><ele>1354.0</ele><time>2026-05-03T08:29:54.079Z</time></trkpt><trkpt lat="42.0070955" lon="13.231648"><ele>1353.0</ele><time>2026-05-03T08:29:55.112Z</time></trkpt><trkpt lat="42.0071416" lon="13.2317451"><ele>1352.0</ele><time>2026-05-03T08:29:56.078Z</time></trkpt><trkpt lat="42.0071994" lon="13.2318249"><ele>1351.0</ele><time>2026-05-03T08:29:57.08Z</time></trkpt><trkpt lat="42.0072557" lon="13.2318977"><ele>1350.0</ele><time>2026-05-03T08:29:58.08Z</time></trkpt><trkpt lat="42.0073285" lon="13.2319331"><ele>1350.0</ele><time>2026-05-03T08:29:59.081Z</time></trkpt><trkpt lat="42.0074067" lon="13.2319545"><ele>1350.0</ele><time>2026-05-03T08:30:00.102Z</time></trkpt><trkpt lat="42.0074982" lon="13.2319594"><ele>1350.0</ele><time>2026-05-03T08:30:01.083Z</time></trkpt><trkpt lat="42.0075888" lon="13.2319467"><ele>1350.0</ele><time>2026-05-03T08:30:02.078Z</time></trkpt><trkpt lat="42.0076839" lon="13.2319221"><ele>1350.0</ele><time>2026-05-03T08:30:03.074Z</time></trkpt><trkpt lat="42.0077772" lon="13.2318737"><ele>1349.25</ele><time>2026-05-03T08:30:04.078Z</time></trkpt><trkpt lat="42.0078713" lon="13.2317964"><ele>1348.5</ele><time>2026-05-03T08:30:05.079Z</time></trkpt><trkpt lat="42.007968" lon="13.2317078"><ele>1347.75</ele><time>2026-05-03T08:30:06.082Z</time></trkpt><trkpt lat="42.0080465" lon="13.2316024"><ele>1347.0</ele><time>2026-05-03T08:30:07.119Z</time></trkpt><trkpt lat="42.0081263" lon="13.2314807"><ele>1345.5</ele><time>2026-05-03T08:30:08.085Z</time></trkpt><trkpt lat="42.008211" lon="13.2313506"><ele>1344.0</ele><time>2026-05-03T08:30:09.079Z</time></trkpt><trkpt lat="42.0083081" lon="13.2312193"><ele>1342.5</ele><time>2026-05-03T08:30:10.078Z</time></trkpt><trkpt lat="42.0084139" lon="13.2310796"><ele>1341.0</ele><time>2026-05-03T08:30:11.084Z</time></trkpt><trkpt lat="42.0085171" lon="13.2309578"><ele>1341.0</ele><time>2026-05-03T08:30:12.076Z</time></trkpt><trkpt lat="42.0086139" lon="13.230847"><ele>1341.0</ele><time>2026-05-03T08:30:13.082Z</time></trkpt><trkpt lat="42.0087083" lon="13.2307399"><ele>1341.0</ele><time>2026-05-03T08:30:14.078Z</time></trkpt><trkpt lat="42.0087964" lon="13.2306478"><ele>1341.0</ele><time>2026-05-03T08:30:15.081Z</time></trkpt><trkpt lat="42.0088813" lon="13.2305731"><ele>1343.6</ele><time>2026-05-03T08:30:16.084Z</time></trkpt><trkpt lat="42.0089562" lon="13.230483"><ele>1346.1999999999998</ele><time>2026-05-03T08:30:17.079Z</time></trkpt><trkpt lat="42.0090209" lon="13.2303866"><ele>1348.8000000000002</ele><time>2026-05-03T08:30:18.082Z</time></trkpt><trkpt lat="42.0090751" lon="13.2303025"><ele>1351.4</ele><time>2026-05-03T08:30:19.082Z</time></trkpt><trkpt lat="42.0091189" lon="13.230202"><ele>1354.0</ele><time>2026-05-03T08:30:20.081Z</time></trkpt><trkpt lat="42.0091453" lon="13.2300798"><ele>1350.2</ele><time>2026-05-03T08:30:21.079Z</time></trkpt><trkpt lat="42.0091678" lon="13.2299444"><ele>1346.4</ele><time>2026-05-03T08:30:22.083Z</time></trkpt><trkpt lat="42.0091864" lon="13.2298027"><ele>1342.6</ele><time>2026-05-03T08:30:23.087Z</time></trkpt><trkpt lat="42.0091924" lon="13.2296684"><ele>1338.8</ele><time>2026-05-03T08:30:24.084Z</time></trkpt><trkpt lat="42.0091907" lon="13.2295515"><ele>1335.0</ele><time>2026-05-03T08:30:25.08Z</time></trkpt><trkpt lat="42.0091695" lon="13.2294656"><ele>1338.8</ele><time>2026-05-03T08:30:26.079Z</time></trkpt><trkpt lat="42.0090955" lon="13.2293366"><ele>1342.6</ele><time>2026-05-03T08:30:28.084Z</time></trkpt><trkpt lat="42.0089938" lon="13.2292542"><ele>1346.4</ele><time>2026-05-03T08:30:30.082Z</time></trkpt><trkpt lat="42.0089066" lon="13.229174"><ele>1350.2</ele><time>2026-05-03T08:30:32.081Z</time></trkpt><trkpt lat="42.0089096" lon="13.2290627"><ele>1354.0</ele><time>2026-05-03T08:30:34.078Z</time></trkpt><trkpt lat="42.0089818" lon="13.2290222"><ele>1354.0</ele><time>2026-05-03T08:30:36.078Z</time></trkpt><trkpt lat="42.0090539" lon="13.2290326"><ele>1354.0</ele><time>2026-05-03T08:30:37.08Z</time></trkpt><trkpt lat="42.0091329" lon="13.2290289"><ele>1354.0</ele><time>2026-05-03T08:30:38.077Z</time></trkpt><trkpt lat="42.0092204" lon="13.229007"><ele>1354.0</ele><time>2026-05-03T08:30:39.075Z</time></trkpt><trkpt lat="42.0093017" lon="13.22896"><ele>1354.0</ele><time>2026-05-03T08:30:40.078Z</time></trkpt><trkpt lat="42.0093863" lon="13.2289075"><ele>1354.0</ele><time>2026-05-03T08:30:41.075Z</time></trkpt><trkpt lat="42.0094725" lon="13.2288548"><ele>1354.6</ele><time>2026-05-03T08:30:42.079Z</time></trkpt><trkpt lat="42.0095654" lon="13.2288067"><ele>1355.2</ele><time>2026-05-03T08:30:43.084Z</time></trkpt><trkpt lat="42.0096636" lon="13.2287698"><ele>1355.8</ele><time>2026-05-03T08:30:44.077Z</time></trkpt><trkpt lat="42.0097655" lon="13.2287309"><ele>1356.3999999999999</ele><time>2026-05-03T08:30:45.082Z</time></trkpt><trkpt lat="42.0098692" lon="13.2287083"><ele>1357.0</ele><time>2026-05-03T08:30:46.079Z</time></trkpt><trkpt lat="42.0099608" lon="13.2286936"><ele>1354.8</ele><time>2026-05-03T08:30:47.075Z</time></trkpt><trkpt lat="42.0100541" lon="13.228686"><ele>1352.6</ele><time>2026-05-03T08:30:48.079Z</time></trkpt><trkpt lat="42.010141" lon="13.228683"><ele>1350.3999999999999</ele><time>2026-05-03T08:30:49.074Z</time></trkpt><trkpt lat="42.0102359" lon="13.2286896"><ele>1348.1999999999998</ele><time>2026-05-03T08:30:50.106Z</time></trkpt><trkpt lat="42.0103311" lon="13.2287015"><ele>1346.0</ele><time>2026-05-03T08:30:51.081Z</time></trkpt><trkpt lat="42.0104204" lon="13.2287288"><ele>1346.0</ele><time>2026-05-03T08:30:52.083Z</time></trkpt><trkpt lat="42.0105017" lon="13.2287767"><ele>1346.0</ele><time>2026-05-03T08:30:53.084Z</time></trkpt><trkpt lat="42.0105675" lon="13.2288148"><ele>1346.0</ele><time>2026-05-03T08:30:54.082Z</time></trkpt><trkpt lat="42.0106623" lon="13.2287907"><ele>1346.0</ele><time>2026-05-03T08:30:56.084Z</time></trkpt><trkpt lat="42.0107425" lon="13.2287232"><ele>1346.0</ele><time>2026-05-03T08:30:58.082Z</time></trkpt><trkpt lat="42.0107952" lon="13.2286681"><ele>1346.0</ele><time>2026-05-03T08:30:59.083Z</time></trkpt><trkpt lat="42.010867" lon="13.2286083"><ele>1345.142857142857</ele><time>2026-05-03T08:31:00.088Z</time></trkpt><trkpt lat="42.0109395" lon="13.2285643"><ele>1344.2857142857142</ele><time>2026-05-03T08:31:01.08Z</time></trkpt><trkpt lat="42.0110009" lon="13.2285311"><ele>1343.4285714285713</ele><time>2026-05-03T08:31:02.085Z</time></trkpt><trkpt lat="42.0110457" lon="13.228461"><ele>1342.5714285714284</ele><time>2026-05-03T08:31:03.083Z</time></trkpt><trkpt lat="42.0110737" lon="13.2283844"><ele>1341.7142857142858</ele><time>2026-05-03T08:31:04.088Z</time></trkpt><trkpt lat="42.0111002" lon="13.2282919"><ele>1340.8571428571427</ele><time>2026-05-03T08:31:05.086Z</time></trkpt><trkpt lat="42.0111381" lon="13.2281986"><ele>1340.0</ele><time>2026-05-03T08:31:06.081Z</time></trkpt><trkpt lat="42.0112025" lon="13.2281283"><ele>1342.8</ele><time>2026-05-03T08:31:07.087Z</time></trkpt><trkpt lat="42.0112576" lon="13.2280813"><ele>1345.6</ele><time>2026-05-03T08:31:08.083Z</time></trkpt><trkpt lat="42.0113076" lon="13.227933"><ele>1348.4</ele><time>2026-05-03T08:31:10.082Z</time></trkpt><trkpt lat="42.0113312" lon="13.2278195"><ele>1351.2</ele><time>2026-05-03T08:31:11.083Z</time></trkpt><trkpt lat="42.0113569" lon="13.2276909"><ele>1354.0</ele><time>2026-05-03T08:31:12.081Z</time></trkpt><trkpt lat="42.0113884" lon="13.2275567"><ele>1354.0</ele><time>2026-05-03T08:31:13.081Z</time></trkpt><trkpt lat="42.0114128" lon="13.2274361"><ele>1354.0</ele><time>2026-05-03T08:31:14.078Z</time></trkpt><trkpt lat="42.0114302" lon="13.2273306"><ele>1354.0</ele><time>2026-05-03T08:31:15.079Z</time></trkpt><trkpt lat="42.0114556" lon="13.2272278"><ele>1354.0</ele><time>2026-05-03T08:31:16.079Z</time></trkpt><trkpt lat="42.0114931" lon="13.2271301"><ele>1354.0</ele><time>2026-05-03T08:31:17.081Z</time></trkpt><trkpt lat="42.0115434" lon="13.2270273"><ele>1354.0</ele><time>2026-05-03T08:31:18.1Z</time></trkpt><trkpt lat="42.0116129" lon="13.2269248"><ele>1351.75</ele><time>2026-05-03T08:31:19.073Z</time></trkpt><trkpt lat="42.0117" lon="13.2268432"><ele>1349.5</ele><time>2026-05-03T08:31:20.079Z</time></trkpt><trkpt lat="42.0117922" lon="13.2267586"><ele>1347.25</ele><time>2026-05-03T08:31:21.074Z</time></trkpt><trkpt lat="42.0118878" lon="13.2266655"><ele>1345.0</ele><time>2026-05-03T08:31:22.079Z</time></trkpt><trkpt lat="42.0119825" lon="13.2265664"><ele>1350.8</ele><time>2026-05-03T08:31:23.078Z</time></trkpt><trkpt lat="42.0120675" lon="13.2264748"><ele>1356.6</ele><time>2026-05-03T08:31:24.078Z</time></trkpt><trkpt lat="42.01215" lon="13.2263919"><ele>1362.4</ele><time>2026-05-03T08:31:25.081Z</time></trkpt><trkpt lat="42.0122347" lon="13.2263111"><ele>1368.2</ele><time>2026-05-03T08:31:26.078Z</time></trkpt><trkpt lat="42.0123022" lon="13.2262135"><ele>1374.0</ele><time>2026-05-03T08:31:27.116Z</time></trkpt><trkpt lat="42.0123617" lon="13.226112"><ele>1374.0</ele><time>2026-05-03T08:31:28.08Z</time></trkpt><trkpt lat="42.0124326" lon="13.2260265"><ele>1374.0</ele><time>2026-05-03T08:31:29.083Z</time></trkpt><trkpt lat="42.0125121" lon="13.2259696"><ele>1374.0</ele><time>2026-05-03T08:31:30.078Z</time></trkpt><trkpt lat="42.0126047" lon="13.2259312"><ele>1374.0</ele><time>2026-05-03T08:31:31.076Z</time></trkpt><trkpt lat="42.0126935" lon="13.2258981"><ele>1374.0</ele><time>2026-05-03T08:31:32.07Z</time></trkpt><trkpt lat="42.012785" lon="13.2258643"><ele>1365.8000000000002</ele><time>2026-05-03T08:31:33.071Z</time></trkpt><trkpt lat="42.0128796" lon="13.2258221"><ele>1357.6000000000001</ele><time>2026-05-03T08:31:34.082Z</time></trkpt><trkpt lat="42.0129743" lon="13.2257836"><ele>1349.4</ele><time>2026-05-03T08:31:35.083Z</time></trkpt><trkpt lat="42.0130734" lon="13.2257518"><ele>1341.2</ele><time>2026-05-03T08:31:36.082Z</time></trkpt><trkpt lat="42.0131705" lon="13.2257275"><ele>1333.0</ele><time>2026-05-03T08:31:37.076Z</time></trkpt><trkpt lat="42.0132709" lon="13.2257072"><ele>1332.8000000000002</ele><time>2026-05-03T08:31:38.087Z</time></trkpt><trkpt lat="42.0133837" lon="13.2256944"><ele>1332.6</ele><time>2026-05-03T08:31:39.083Z</time></trkpt><trkpt lat="42.0134932" lon="13.2256653"><ele>1332.4</ele><time>2026-05-03T08:31:40.083Z</time></trkpt><trkpt lat="42.0136014" lon="13.2256225"><ele>1332.1999999999998</ele><time>2026-05-03T08:31:41.082Z</time></trkpt><trkpt lat="42.0137069" lon="13.2255785"><ele>1332.0</ele><time>2026-05-03T08:31:42.076Z</time></trkpt><trkpt lat="42.0138073" lon="13.2255384"><ele>1332.0</ele><time>2026-05-03T08:31:43.083Z</time></trkpt><trkpt lat="42.0138969" lon="13.225486"><ele>1332.0</ele><time>2026-05-03T08:31:44.083Z</time></trkpt><trkpt lat="42.0139745" lon="13.2254339"><ele>1332.0</ele><time>2026-05-03T08:31:45.086Z</time></trkpt><trkpt lat="42.0140519" lon="13.2253618"><ele>1332.0</ele><time>2026-05-03T08:31:46.082Z</time></trkpt><trkpt lat="42.014136" lon="13.2252692"><ele>1332.0</ele><time>2026-05-03T08:31:47.098Z</time></trkpt><trkpt lat="42.0142099" lon="13.2251704"><ele>1331.8</ele><time>2026-05-03T08:31:48.091Z</time></trkpt><trkpt lat="42.0142857" lon="13.2250599"><ele>1331.6</ele><time>2026-05-03T08:31:49.084Z</time></trkpt><trkpt lat="42.0143599" lon="13.2249548"><ele>1331.3999999999999</ele><time>2026-05-03T08:31:50.087Z</time></trkpt><trkpt lat="42.0144352" lon="13.2248573"><ele>1331.1999999999998</ele><time>2026-05-03T08:31:51.092Z</time></trkpt><trkpt lat="42.0145229" lon="13.2247704"><ele>1331.0</ele><time>2026-05-03T08:31:52.084Z</time></trkpt><trkpt lat="42.0146258" lon="13.2246982"><ele>1331.0</ele><time>2026-05-03T08:31:53.083Z</time></trkpt><trkpt lat="42.0147404" lon="13.224636"><ele>1331.0</ele><time>2026-05-03T08:31:54.082Z</time></trkpt><trkpt lat="42.0148445" lon="13.22457"><ele>1331.0</ele><time>2026-05-03T08:31:55.083Z</time></trkpt><trkpt lat="42.0149382" lon="13.2244963"><ele>1331.0</ele><time>2026-05-03T08:31:56.078Z</time></trkpt><trkpt lat="42.0150178" lon="13.2244003"><ele>1332.0</ele><time>2026-05-03T08:31:57.085Z</time></trkpt><trkpt lat="42.0150949" lon="13.2242865"><ele>1333.0</ele><time>2026-05-03T08:31:58.085Z</time></trkpt><trkpt lat="42.0151703" lon="13.2241704"><ele>1334.0</ele><time>2026-05-03T08:31:59.085Z</time></trkpt><trkpt lat="42.0152601" lon="13.224066"><ele>1335.0</ele><time>2026-05-03T08:32:00.081Z</time></trkpt><trkpt lat="42.0153764" lon="13.2239755"><ele>1335.0</ele><time>2026-05-03T08:32:01.081Z</time></trkpt><trkpt lat="42.0155037" lon="13.2238924"><ele>1335.0</ele><time>2026-05-03T08:32:02.083Z</time></trkpt><trkpt lat="42.0156201" lon="13.2238317"><ele>1335.0</ele><time>2026-05-03T08:32:03.089Z</time></trkpt><trkpt lat="42.015721" lon="13.2237815"><ele>1335.0</ele><time>2026-05-03T08:32:04.078Z</time></trkpt><trkpt lat="42.015802" lon="13.2237239"><ele>1335.0</ele><time>2026-05-03T08:32:05.077Z</time></trkpt><trkpt lat="42.0158744" lon="13.2236686"><ele>1335.0</ele><time>2026-05-03T08:32:06.082Z</time></trkpt><trkpt lat="42.0159419" lon="13.223609"><ele>1335.0</ele><time>2026-05-03T08:32:07.117Z</time></trkpt><trkpt lat="42.0160032" lon="13.2235573"><ele>1335.0</ele><time>2026-05-03T08:32:08.083Z</time></trkpt><trkpt lat="42.016077" lon="13.2235083"><ele>1335.0</ele><time>2026-05-03T08:32:09.081Z</time></trkpt><trkpt lat="42.0161495" lon="13.2234759"><ele>1335.0</ele><time>2026-05-03T08:32:10.083Z</time></trkpt><trkpt lat="42.0162177" lon="13.2234362"><ele>1335.0</ele><time>2026-05-03T08:32:11.083Z</time></trkpt><trkpt lat="42.0162747" lon="13.2233873"><ele>1335.0</ele><time>2026-05-03T08:32:12.081Z</time></trkpt><trkpt lat="42.0163233" lon="13.223321"><ele>1335.0</ele><time>2026-05-03T08:32:13.078Z</time></trkpt><trkpt lat="42.0163957" lon="13.223192"><ele>1335.0</ele><time>2026-05-03T08:32:15.079Z</time></trkpt><trkpt lat="42.0164547" lon="13.2230745"><ele>1335.0</ele><time>2026-05-03T08:32:17.087Z</time></trkpt><trkpt lat="42.0165193" lon="13.2229468"><ele>1335.0</ele><time>2026-05-03T08:32:52.093Z</time></trkpt><trkpt lat="42.016566" lon="13.2228537"><ele>1335.0</ele><time>2026-05-03T08:32:53.082Z</time></trkpt><trkpt lat="42.0166103" lon="13.222763"><ele>1335.0</ele><time>2026-05-03T08:32:54.099Z</time></trkpt><trkpt lat="42.016658" lon="13.2226796"><ele>1335.0</ele><time>2026-05-03T08:32:55.089Z</time></trkpt><trkpt lat="42.0167083" lon="13.222599"><ele>1335.0</ele><time>2026-05-03T08:32:56.087Z</time></trkpt><trkpt lat="42.0167522" lon="13.2225283"><ele>1335.0</ele><time>2026-05-03T08:32:57.083Z</time></trkpt><trkpt lat="42.0167903" lon="13.2224496"><ele>1335.0</ele><time>2026-05-03T08:32:58.085Z</time></trkpt><trkpt lat="42.0168302" lon="13.2223818"><ele>1335.0</ele><time>2026-05-03T08:32:59.083Z</time></trkpt><trkpt lat="42.0169073" lon="13.2222616"><ele>1335.0</ele><time>2026-05-03T08:33:01.08Z</time></trkpt><trkpt lat="42.0169691" lon="13.2221402"><ele>1335.0</ele><time>2026-05-03T08:33:03.083Z</time></trkpt><trkpt lat="42.0170322" lon="13.2220272"><ele>1335.0</ele><time>2026-05-03T08:33:05.086Z</time></trkpt><trkpt lat="42.0170852" lon="13.2219039"><ele>1336.0</ele><time>2026-05-03T08:33:07.084Z</time></trkpt><trkpt lat="42.0171296" lon="13.2217923"><ele>1337.0</ele><time>2026-05-03T08:33:09.09Z</time></trkpt><trkpt lat="42.0171768" lon="13.2216846"><ele>1338.0</ele><time>2026-05-03T08:33:11.083Z</time></trkpt><trkpt lat="42.0172229" lon="13.2216178"><ele>1339.0</ele><time>2026-05-03T08:33:13.092Z</time></trkpt><trkpt lat="42.0172587" lon="13.2215395"><ele>1340.0</ele><time>2026-05-03T08:33:24.086Z</time></trkpt><trkpt lat="42.0173111" lon="13.221467"><ele>1341.0</ele><time>2026-05-03T08:33:29.086Z</time></trkpt><trkpt lat="42.0173577" lon="13.2213829"><ele>1341.5</ele><time>2026-05-03T08:33:42.084Z</time></trkpt><trkpt lat="42.0173745" lon="13.2212921"><ele>1342.0</ele><time>2026-05-03T08:33:47.084Z</time></trkpt><trkpt lat="42.0174215" lon="13.2212091"><ele>1342.5</ele><time>2026-05-03T08:33:51.079Z</time></trkpt><trkpt lat="42.0174586" lon="13.2211315"><ele>1343.0</ele><time>2026-05-03T08:33:53.079Z</time></trkpt><trkpt lat="42.0175028" lon="13.2210293"><ele>1343.5</ele><time>2026-05-03T08:33:55.084Z</time></trkpt><trkpt lat="42.0175556" lon="13.2208966"><ele>1344.0</ele><time>2026-05-03T08:33:57.094Z</time></trkpt><trkpt lat="42.0175958" lon="13.2207731"><ele>1344.0</ele><time>2026-05-03T08:33:59.087Z</time></trkpt><trkpt lat="42.0176574" lon="13.2206574"><ele>1344.0</ele><time>2026-05-03T08:34:01.083Z</time></trkpt><trkpt lat="42.0176971" lon="13.2205852"><ele>1344.0</ele><time>2026-05-03T08:34:02.078Z</time></trkpt><trkpt lat="42.0177359" lon="13.220513"><ele>1344.0</ele><time>2026-05-03T08:34:03.085Z</time></trkpt><trkpt lat="42.017777" lon="13.2204431"><ele>1344.0</ele><time>2026-05-03T08:34:04.084Z</time></trkpt><trkpt lat="42.0178487" lon="13.2203181"><ele>1344.0</ele><time>2026-05-03T08:34:06.08Z</time></trkpt><trkpt lat="42.0179281" lon="13.2202657"><ele>1343.8000000000002</ele><time>2026-05-03T08:34:08.081Z</time></trkpt><trkpt lat="42.0179999" lon="13.2202583"><ele>1343.6000000000001</ele><time>2026-05-03T08:34:10.079Z</time></trkpt><trkpt lat="42.0180825" lon="13.2202426"><ele>1343.4</ele><time>2026-05-03T08:34:12.082Z</time></trkpt><trkpt lat="42.0181691" lon="13.2201547"><ele>1343.2</ele><time>2026-05-03T08:34:14.08Z</time></trkpt><trkpt lat="42.0182357" lon="13.2200227"><ele>1343.0</ele><time>2026-05-03T08:34:16.083Z</time></trkpt><trkpt lat="42.0183063" lon="13.2199094"><ele>1345.4</ele><time>2026-05-03T08:34:18.078Z</time></trkpt><trkpt lat="42.0183593" lon="13.219841"><ele>1347.8000000000002</ele><time>2026-05-03T08:34:20.082Z</time></trkpt><trkpt lat="42.0184272" lon="13.2198018"><ele>1350.2</ele><time>2026-05-03T08:50:04.096Z</time></trkpt><trkpt lat="42.0185371" lon="13.2197212"><ele>1352.6</ele><time>2026-05-03T08:50:06.08Z</time></trkpt><trkpt lat="42.01859" lon="13.2196737"><ele>1355.0</ele><time>2026-05-03T08:50:07.079Z</time></trkpt><trkpt lat="42.0186768" lon="13.2195433"><ele>1355.0</ele><time>2026-05-03T08:50:09.08Z</time></trkpt><trkpt lat="42.0187176" lon="13.2194532"><ele>1355.0</ele><time>2026-05-03T08:50:10.083Z</time></trkpt><trkpt lat="42.0187586" lon="13.2193613"><ele>1355.0</ele><time>2026-05-03T08:50:11.095Z</time></trkpt><trkpt lat="42.0188049" lon="13.2192765"><ele>1355.0</ele><time>2026-05-03T08:50:12.116Z</time></trkpt><trkpt lat="42.0188655" lon="13.2192195"><ele>1355.0</ele><time>2026-05-03T08:50:13.121Z</time></trkpt><trkpt lat="42.0189293" lon="13.2191827"><ele>1355.0</ele><time>2026-05-03T08:50:14.113Z</time></trkpt><trkpt lat="42.0190493" lon="13.219171"><ele>1355.0</ele><time>2026-05-03T08:50:16.099Z</time></trkpt><trkpt lat="42.0191171" lon="13.2191546"><ele>1355.0</ele><time>2026-05-03T08:50:17.086Z</time></trkpt><trkpt lat="42.0191833" lon="13.2191307"><ele>1355.0</ele><time>2026-05-03T08:50:18.091Z</time></trkpt><trkpt lat="42.0192435" lon="13.2190846"><ele>1355.0</ele><time>2026-05-03T08:50:19.109Z</time></trkpt><trkpt lat="42.0193024" lon="13.2190113"><ele>1355.0</ele><time>2026-05-03T08:50:20.087Z</time></trkpt><trkpt lat="42.0193618" lon="13.2189195"><ele>1355.0</ele><time>2026-05-03T08:50:21.098Z</time></trkpt><trkpt lat="42.0194239" lon="13.2188371"><ele>1356.8333333333335</ele><time>2026-05-03T08:50:22.098Z</time></trkpt><trkpt lat="42.0194925" lon="13.2187591"><ele>1358.6666666666667</ele><time>2026-05-03T08:50:23.099Z</time></trkpt><trkpt lat="42.0195606" lon="13.2186947"><ele>1360.5</ele><time>2026-05-03T08:50:24.102Z</time></trkpt><trkpt lat="42.0196252" lon="13.2186411"><ele>1362.3333333333333</ele><time>2026-05-03T08:50:25.104Z</time></trkpt><trkpt lat="42.0196938" lon="13.2185855"><ele>1364.1666666666665</ele><time>2026-05-03T08:50:26.101Z</time></trkpt><trkpt lat="42.0197604" lon="13.2185213"><ele>1366.0</ele><time>2026-05-03T08:50:27.114Z</time></trkpt><trkpt lat="42.0198212" lon="13.2184458"><ele>1366.0</ele><time>2026-05-03T08:50:28.102Z</time></trkpt><trkpt lat="42.019878" lon="13.2183626"><ele>1366.0</ele><time>2026-05-03T08:50:29.085Z</time></trkpt><trkpt lat="42.0199409" lon="13.218277"><ele>1366.0</ele><time>2026-05-03T08:50:30.076Z</time></trkpt><trkpt lat="42.0200036" lon="13.2181941"><ele>1366.0</ele><time>2026-05-03T08:50:31.091Z</time></trkpt><trkpt lat="42.0200641" lon="13.218112"><ele>1366.0</ele><time>2026-05-03T08:50:32.089Z</time></trkpt><trkpt lat="42.0201138" lon="13.2180331"><ele>1366.0</ele><time>2026-05-03T08:50:33.095Z</time></trkpt><trkpt lat="42.0201656" lon="13.2179317"><ele>1367.6</ele><time>2026-05-03T08:50:34.09Z</time></trkpt><trkpt lat="42.0202197" lon="13.2178116"><ele>1369.1999999999998</ele><time>2026-05-03T08:50:35.091Z</time></trkpt><trkpt lat="42.0202716" lon="13.2176933"><ele>1370.8000000000002</ele><time>2026-05-03T08:50:36.088Z</time></trkpt><trkpt lat="42.0203294" lon="13.217583"><ele>1372.4</ele><time>2026-05-03T08:50:37.088Z</time></trkpt><trkpt lat="42.0203977" lon="13.2174808"><ele>1374.0</ele><time>2026-05-03T08:50:38.084Z</time></trkpt><trkpt lat="42.0204689" lon="13.2173944"><ele>1376.8333333333333</ele><time>2026-05-03T08:50:39.09Z</time></trkpt><trkpt lat="42.0205286" lon="13.2173056"><ele>1379.6666666666667</ele><time>2026-05-03T08:50:40.093Z</time></trkpt><trkpt lat="42.0205824" lon="13.2172188"><ele>1382.5</ele><time>2026-05-03T08:50:41.09Z</time></trkpt><trkpt lat="42.0206342" lon="13.2171382"><ele>1385.3333333333335</ele><time>2026-05-03T08:50:42.087Z</time></trkpt><trkpt lat="42.0206724" lon="13.2170692"><ele>1388.1666666666667</ele><time>2026-05-03T08:50:43.09Z</time></trkpt><trkpt lat="42.0207142" lon="13.2169955"><ele>1391.0</ele><time>2026-05-03T08:50:45.09Z</time></trkpt><trkpt lat="42.0207648" lon="13.216881"><ele>1392.6</ele><time>2026-05-03T08:50:47.081Z</time></trkpt><trkpt lat="42.0208274" lon="13.2167443"><ele>1394.1999999999998</ele><time>2026-05-03T08:50:49.116Z</time></trkpt><trkpt lat="42.0209017" lon="13.2166468"><ele>1395.8000000000002</ele><time>2026-05-03T08:50:51.091Z</time></trkpt><trkpt lat="42.0209933" lon="13.2165714"><ele>1397.4</ele><time>2026-05-03T08:50:53.087Z</time></trkpt><trkpt lat="42.021071" lon="13.216501"><ele>1399.0</ele><time>2026-05-03T08:50:55.084Z</time></trkpt><trkpt lat="42.0211551" lon="13.2164299"><ele>1399.0</ele><time>2026-05-03T08:50:57.091Z</time></trkpt><trkpt lat="42.0212343" lon="13.2164111"><ele>1399.0</ele><time>2026-05-03T08:50:59.084Z</time></trkpt><trkpt lat="42.0213035" lon="13.2164889"><ele>1399.0</ele><time>2026-05-03T08:51:01.081Z</time></trkpt><trkpt lat="42.0213701" lon="13.2165705"><ele>1399.0</ele><time>2026-05-03T08:51:03.078Z</time></trkpt><trkpt lat="42.0214556" lon="13.2166386"><ele>1399.0</ele><time>2026-05-03T08:51:05.087Z</time></trkpt><trkpt lat="42.0215716" lon="13.2166337"><ele>1394.6</ele><time>2026-05-03T08:51:07.089Z</time></trkpt><trkpt lat="42.0216381" lon="13.216601"><ele>1390.2</ele><time>2026-05-03T08:51:08.077Z</time></trkpt><trkpt lat="42.0217575" lon="13.2165489"><ele>1385.8</ele><time>2026-05-03T08:51:10.078Z</time></trkpt><trkpt lat="42.0218798" lon="13.216514"><ele>1381.3999999999999</ele><time>2026-05-03T08:51:12.079Z</time></trkpt><trkpt lat="42.0219456" lon="13.2165027"><ele>1377.0</ele><time>2026-05-03T08:51:13.089Z</time></trkpt><trkpt lat="42.0220124" lon="13.2164828"><ele>1377.0</ele><time>2026-05-03T08:51:14.079Z</time></trkpt><trkpt lat="42.0221121" lon="13.216404"><ele>1377.0</ele><time>2026-05-03T08:51:16.077Z</time></trkpt><trkpt lat="42.0222021" lon="13.2163143"><ele>1377.0</ele><time>2026-05-03T08:51:18.075Z</time></trkpt><trkpt lat="42.0222698" lon="13.2162779"><ele>1377.0</ele><time>2026-05-03T08:51:19.085Z</time></trkpt><trkpt lat="42.0223553" lon="13.2162318"><ele>1377.0</ele><time>2026-05-03T08:51:20.079Z</time></trkpt><trkpt lat="42.0224547" lon="13.2161688"><ele>1374.0</ele><time>2026-05-03T08:51:21.074Z</time></trkpt><trkpt lat="42.0225535" lon="13.2160974"><ele>1371.0</ele><time>2026-05-03T08:51:22.079Z</time></trkpt><trkpt lat="42.0226387" lon="13.2160315"><ele>1368.0</ele><time>2026-05-03T08:51:23.086Z</time></trkpt><trkpt lat="42.022722" lon="13.2159688"><ele>1365.0</ele><time>2026-05-03T08:51:24.08Z</time></trkpt><trkpt lat="42.0228016" lon="13.2159061"><ele>1362.0</ele><time>2026-05-03T08:51:25.079Z</time></trkpt><trkpt lat="42.0228802" lon="13.2158404"><ele>1362.0</ele><time>2026-05-03T08:51:26.077Z</time></trkpt><trkpt lat="42.0229573" lon="13.2157668"><ele>1362.0</ele><time>2026-05-03T08:51:27.08Z</time></trkpt><trkpt lat="42.0230364" lon="13.2156773"><ele>1362.0</ele><time>2026-05-03T08:51:28.08Z</time></trkpt><trkpt lat="42.023114" lon="13.2155872"><ele>1362.0</ele><time>2026-05-03T08:51:29.079Z</time></trkpt><trkpt lat="42.0231849" lon="13.2154979"><ele>1362.0</ele><time>2026-05-03T08:51:30.083Z</time></trkpt><trkpt lat="42.0232515" lon="13.2153974"><ele>1362.0</ele><time>2026-05-03T08:51:31.075Z</time></trkpt><trkpt lat="42.0233134" lon="13.2152979"><ele>1362.0</ele><time>2026-05-03T08:51:32.079Z</time></trkpt><trkpt lat="42.0233747" lon="13.2151979"><ele>1362.0</ele><time>2026-05-03T08:51:33.085Z</time></trkpt><trkpt lat="42.0234301" lon="13.2151069"><ele>1362.0</ele><time>2026-05-03T08:51:34.08Z</time></trkpt><trkpt lat="42.0234809" lon="13.215009"><ele>1362.0</ele><time>2026-05-03T08:51:35.086Z</time></trkpt><trkpt lat="42.0235306" lon="13.2149274"><ele>1362.0</ele><time>2026-05-03T08:51:36.092Z</time></trkpt><trkpt lat="42.0235885" lon="13.2148485"><ele>1363.0</ele><time>2026-05-03T08:51:37.085Z</time></trkpt><trkpt lat="42.0236474" lon="13.214777"><ele>1364.0</ele><time>2026-05-03T08:51:38.086Z</time></trkpt><trkpt lat="42.0237067" lon="13.2147066"><ele>1365.0</ele><time>2026-05-03T08:51:39.078Z</time></trkpt><trkpt lat="42.0237601" lon="13.2146366"><ele>1366.0</ele><time>2026-05-03T08:51:40.086Z</time></trkpt><trkpt lat="42.0238162" lon="13.2145603"><ele>1367.0</ele><time>2026-05-03T08:51:41.082Z</time></trkpt><trkpt lat="42.0238635" lon="13.2144799"><ele>1368.0</ele><time>2026-05-03T08:51:42.082Z</time></trkpt><trkpt lat="42.0239133" lon="13.214395"><ele>1368.0</ele><time>2026-05-03T08:51:43.093Z</time></trkpt><trkpt lat="42.0239543" lon="13.214314"><ele>1368.0</ele><time>2026-05-03T08:51:44.081Z</time></trkpt><trkpt lat="42.0239936" lon="13.2142254"><ele>1368.0</ele><time>2026-05-03T08:51:45.085Z</time></trkpt><trkpt lat="42.0240345" lon="13.2141377"><ele>1368.0</ele><time>2026-05-03T08:51:46.078Z</time></trkpt><trkpt lat="42.024071" lon="13.2140458"><ele>1368.0</ele><time>2026-05-03T08:51:47.086Z</time></trkpt><trkpt lat="42.0241061" lon="13.2139527"><ele>1368.0</ele><time>2026-05-03T08:51:48.084Z</time></trkpt><trkpt lat="42.0241434" lon="13.2138585"><ele>1367.6666666666667</ele><time>2026-05-03T08:51:49.091Z</time></trkpt><trkpt lat="42.0241702" lon="13.2137609"><ele>1367.3333333333333</ele><time>2026-05-03T08:51:50.079Z</time></trkpt><trkpt lat="42.0241971" lon="13.2136664"><ele>1367.0</ele><time>2026-05-03T08:51:51.092Z</time></trkpt><trkpt lat="42.0242226" lon="13.2135679"><ele>1366.6666666666665</ele><time>2026-05-03T08:51:52.087Z</time></trkpt><trkpt lat="42.0242479" lon="13.2134615"><ele>1366.3333333333333</ele><time>2026-05-03T08:51:53.087Z</time></trkpt><trkpt lat="42.0242656" lon="13.2133596"><ele>1366.0</ele><time>2026-05-03T08:51:54.1Z</time></trkpt><trkpt lat="42.0242831" lon="13.2132582"><ele>1366.0</ele><time>2026-05-03T08:51:55.086Z</time></trkpt><trkpt lat="42.0242941" lon="13.2131669"><ele>1366.0</ele><time>2026-05-03T08:51:56.084Z</time></trkpt><trkpt lat="42.0243027" lon="13.213075"><ele>1366.0</ele><time>2026-05-03T08:51:57.083Z</time></trkpt><trkpt lat="42.02431" lon="13.2129887"><ele>1366.0</ele><time>2026-05-03T08:51:58.083Z</time></trkpt><trkpt lat="42.0243225" lon="13.2128334"><ele>1366.0</ele><time>2026-05-03T08:52:00.084Z</time></trkpt><trkpt lat="42.0243281" lon="13.2126681"><ele>1366.0</ele><time>2026-05-03T08:52:02.081Z</time></trkpt><trkpt lat="42.0243127" lon="13.2125071"><ele>1367.1666666666665</ele><time>2026-05-03T08:52:04.084Z</time></trkpt><trkpt lat="42.0242929" lon="13.2123712"><ele>1368.3333333333333</ele><time>2026-05-03T08:52:06.08Z</time></trkpt><trkpt lat="42.0242918" lon="13.2122304"><ele>1369.5</ele><time>2026-05-03T08:52:08.084Z</time></trkpt><trkpt lat="42.0242816" lon="13.2121193"><ele>1370.6666666666667</ele><time>2026-05-03T08:52:10.095Z</time></trkpt><trkpt lat="42.0243287" lon="13.2120398"><ele>1371.8333333333335</ele><time>2026-05-03T08:52:13.083Z</time></trkpt><trkpt lat="42.0244036" lon="13.2120336"><ele>1373.0</ele><time>2026-05-03T08:52:16.073Z</time></trkpt><trkpt lat="42.0244768" lon="13.2120009"><ele>1374.0</ele><time>2026-05-03T08:52:19.084Z</time></trkpt><trkpt lat="42.0245615" lon="13.2119675"><ele>1375.0</ele><time>2026-05-03T08:52:21.074Z</time></trkpt><trkpt lat="42.0246372" lon="13.2119509"><ele>1376.0</ele><time>2026-05-03T08:52:23.081Z</time></trkpt><trkpt lat="42.0246966" lon="13.2118652"><ele>1377.0</ele><time>2026-05-03T08:52:26.084Z</time></trkpt><trkpt lat="42.0246944" lon="13.21178"><ele>1378.0</ele><time>2026-05-03T08:52:28.088Z</time></trkpt><trkpt lat="42.0246742" lon="13.2116823"><ele>1379.0</ele><time>2026-05-03T08:52:30.085Z</time></trkpt><trkpt lat="42.0246731" lon="13.2115798"><ele>1382.1666666666667</ele><time>2026-05-03T08:52:32.085Z</time></trkpt><trkpt lat="42.0246997" lon="13.2114751"><ele>1385.3333333333335</ele><time>2026-05-03T08:52:34.078Z</time></trkpt><trkpt lat="42.0247292" lon="13.2113955"><ele>1388.5</ele><time>2026-05-03T08:52:36.078Z</time></trkpt><trkpt lat="42.0247754" lon="13.2113119"><ele>1391.6666666666667</ele><time>2026-05-03T08:52:38.078Z</time></trkpt><trkpt lat="42.0248207" lon="13.2112186"><ele>1394.8333333333333</ele><time>2026-05-03T08:52:40.078Z</time></trkpt><trkpt lat="42.0248444" lon="13.2111114"><ele>1398.0</ele><time>2026-05-03T08:52:42.078Z</time></trkpt><trkpt lat="42.0248553" lon="13.211021"><ele>1398.0</ele><time>2026-05-03T08:52:47.082Z</time></trkpt><trkpt lat="42.0248822" lon="13.2109336"><ele>1398.0</ele><time>2026-05-03T08:53:12.079Z</time></trkpt><trkpt lat="42.0248644" lon="13.2108325"><ele>1398.0</ele><time>2026-05-03T08:53:15.081Z</time></trkpt><trkpt lat="42.0248592" lon="13.2107448"><ele>1398.0</ele><time>2026-05-03T08:53:30.09Z</time></trkpt><trkpt lat="42.0248186" lon="13.2106747"><ele>1398.0</ele><time>2026-05-03T08:53:34.084Z</time></trkpt><trkpt lat="42.0248694" lon="13.2106027"><ele>1398.0</ele><time>2026-05-03T08:53:56.073Z</time></trkpt><trkpt lat="42.0249389" lon="13.2105861"><ele>1398.0</ele><time>2026-05-03T08:54:09.082Z</time></trkpt><trkpt lat="42.0250071" lon="13.2105776"><ele>1396.4285714285713</ele><time>2026-05-03T08:54:13.085Z</time></trkpt><trkpt lat="42.0250726" lon="13.2105983"><ele>1394.857142857143</ele><time>2026-05-03T08:55:15.08Z</time></trkpt><trkpt lat="42.0251483" lon="13.210585"><ele>1393.2857142857142</ele><time>2026-05-03T08:55:20.078Z</time></trkpt><trkpt lat="42.0252121" lon="13.2105619"><ele>1391.7142857142858</ele><time>2026-05-03T08:55:25.076Z</time></trkpt><trkpt lat="42.0252534" lon="13.2104802"><ele>1390.142857142857</ele><time>2026-05-03T08:55:53.075Z</time></trkpt><trkpt lat="42.0252836" lon="13.2104028"><ele>1388.5714285714287</ele><time>2026-05-03T08:55:55.076Z</time></trkpt><trkpt lat="42.0253204" lon="13.2103106"><ele>1387.0</ele><time>2026-05-03T08:55:57.078Z</time></trkpt><trkpt lat="42.0253908" lon="13.2102374"><ele>1387.0</ele><time>2026-05-03T08:55:59.081Z</time></trkpt><trkpt lat="42.0254764" lon="13.2101629"><ele>1387.0</ele><time>2026-05-03T08:56:01.084Z</time></trkpt><trkpt lat="42.0255217" lon="13.2100772"><ele>1387.0</ele><time>2026-05-03T08:56:04.082Z</time></trkpt><trkpt lat="42.0255684" lon="13.2099664"><ele>1387.0</ele><time>2026-05-03T08:56:08.077Z</time></trkpt><trkpt lat="42.0255745" lon="13.2098435"><ele>1387.0</ele><time>2026-05-03T08:56:11.082Z</time></trkpt><trkpt lat="42.0255672" lon="13.209745"><ele>1387.0</ele><time>2026-05-03T08:56:15.079Z</time></trkpt><trkpt lat="42.025532" lon="13.2096538"><ele>1387.8333333333333</ele><time>2026-05-03T08:56:26.077Z</time></trkpt><trkpt lat="42.0254974" lon="13.2095652"><ele>1388.6666666666665</ele><time>2026-05-03T08:56:29.082Z</time></trkpt><trkpt lat="42.0254873" lon="13.2094804"><ele>1389.5</ele><time>2026-05-03T08:56:32.083Z</time></trkpt><trkpt lat="42.0254834" lon="13.2093722"><ele>1390.3333333333333</ele><time>2026-05-03T08:56:35.08Z</time></trkpt><trkpt lat="42.0254909" lon="13.2092484"><ele>1391.1666666666667</ele><time>2026-05-03T08:56:38.082Z</time></trkpt><trkpt lat="42.0255616" lon="13.2091839"><ele>1392.0</ele><time>2026-05-03T08:56:41.075Z</time></trkpt><trkpt lat="42.0256193" lon="13.209144"><ele>1392.0</ele><time>2026-05-03T08:56:43.076Z</time></trkpt><trkpt lat="42.025699" lon="13.2091094"><ele>1392.0</ele><time>2026-05-03T08:56:46.082Z</time></trkpt><trkpt lat="42.0257777" lon="13.2090591"><ele>1392.0</ele><time>2026-05-03T08:56:50.081Z</time></trkpt><trkpt lat="42.025838" lon="13.2090277"><ele>1392.0</ele><time>2026-05-03T08:56:52.08Z</time></trkpt><trkpt lat="42.0259104" lon="13.2090332"><ele>1392.0</ele><time>2026-05-03T08:56:55.082Z</time></trkpt><trkpt lat="42.025974" lon="13.2090462"><ele>1392.0</ele><time>2026-05-03T08:56:57.079Z</time></trkpt><trkpt lat="42.0260686" lon="13.2090833"><ele>1389.6666666666667</ele><time>2026-05-03T08:57:00.084Z</time></trkpt><trkpt lat="42.0261602" lon="13.209084"><ele>1387.3333333333333</ele><time>2026-05-03T08:57:02.078Z</time></trkpt><trkpt lat="42.0262284" lon="13.2090699"><ele>1385.0</ele><time>2026-05-03T08:57:03.08Z</time></trkpt><trkpt lat="42.0263019" lon="13.2090421"><ele>1382.6666666666665</ele><time>2026-05-03T08:57:04.08Z</time></trkpt><trkpt lat="42.0263879" lon="13.209001"><ele>1380.3333333333333</ele><time>2026-05-03T08:57:06.079Z</time></trkpt><trkpt lat="42.0264562" lon="13.2089644"><ele>1378.0</ele><time>2026-05-03T08:57:09.079Z</time></trkpt><trkpt lat="42.0265372" lon="13.2089318"><ele>1378.0</ele><time>2026-05-03T08:57:11.083Z</time></trkpt><trkpt lat="42.026628" lon="13.2088972"><ele>1378.0</ele><time>2026-05-03T08:57:13.077Z</time></trkpt><trkpt lat="42.026696" lon="13.2088519"><ele>1378.0</ele><time>2026-05-03T08:57:15.081Z</time></trkpt><trkpt lat="42.0267729" lon="13.2088115"><ele>1378.0</ele><time>2026-05-03T08:57:17.078Z</time></trkpt><trkpt lat="42.0268367" lon="13.2087771"><ele>1378.0</ele><time>2026-05-03T08:57:19.076Z</time></trkpt><trkpt lat="42.0268922" lon="13.2087345"><ele>1378.0</ele><time>2026-05-03T08:57:21.08Z</time></trkpt><trkpt lat="42.0269604" lon="13.2086729"><ele>1376.142857142857</ele><time>2026-05-03T08:57:44.088Z</time></trkpt><trkpt lat="42.0269998" lon="13.2086026"><ele>1374.2857142857142</ele><time>2026-05-03T08:58:30.085Z</time></trkpt><trkpt lat="42.0270347" lon="13.208521"><ele>1372.4285714285716</ele><time>2026-05-03T08:58:35.083Z</time></trkpt><trkpt lat="42.0270919" lon="13.2084715"><ele>1370.5714285714284</ele><time>2026-05-03T08:58:39.076Z</time></trkpt><trkpt lat="42.0271265" lon="13.2083801"><ele>1368.7142857142858</ele><time>2026-05-03T08:58:51.09Z</time></trkpt><trkpt lat="42.0270615" lon="13.2083933"><ele>1366.857142857143</ele><time>2026-05-03T08:58:56.084Z</time></trkpt><trkpt lat="42.0270275" lon="13.2084765"><ele>1365.0</ele><time>2026-05-03T08:58:58.088Z</time></trkpt><trkpt lat="42.0270125" lon="13.2085675"><ele>1365.0</ele><time>2026-05-03T08:59:00.082Z</time></trkpt><trkpt lat="42.0270186" lon="13.208683"><ele>1365.0</ele><time>2026-05-03T08:59:03.084Z</time></trkpt><trkpt lat="42.0270047" lon="13.2088052"><ele>1365.0</ele><time>2026-05-03T08:59:06.092Z</time></trkpt><trkpt lat="42.0269945" lon="13.2089206"><ele>1365.0</ele><time>2026-05-03T08:59:09.08Z</time></trkpt><trkpt lat="42.0269972" lon="13.2090138"><ele>1365.0</ele><time>2026-05-03T08:59:11.087Z</time></trkpt><trkpt lat="42.0270019" lon="13.2091227"><ele>1365.0</ele><time>2026-05-03T08:59:14.085Z</time></trkpt><trkpt lat="42.0270183" lon="13.2092278"><ele>1363.2857142857142</ele><time>2026-05-03T08:59:17.082Z</time></trkpt><trkpt lat="42.0270449" lon="13.2093354"><ele>1361.5714285714284</ele><time>2026-05-03T08:59:20.092Z</time></trkpt><trkpt lat="42.027093" lon="13.2094211"><ele>1359.857142857143</ele><time>2026-05-03T08:59:24.09Z</time></trkpt><trkpt lat="42.0271482" lon="13.209472"><ele>1358.142857142857</ele><time>2026-05-03T08:59:50.08Z</time></trkpt><trkpt lat="42.0272181" lon="13.2094976"><ele>1356.4285714285713</ele><time>2026-05-03T08:59:54.078Z</time></trkpt><trkpt lat="42.0272906" lon="13.2095165"><ele>1354.7142857142858</ele><time>2026-05-03T08:59:58.087Z</time></trkpt><trkpt lat="42.0273507" lon="13.2095481"><ele>1353.0</ele><time>2026-05-03T09:00:14.09Z</time></trkpt><trkpt lat="42.0274159" lon="13.2095922"><ele>1353.0</ele><time>2026-05-03T09:00:21.088Z</time></trkpt><trkpt lat="42.0274749" lon="13.2096468"><ele>1353.0</ele><time>2026-05-03T09:00:30.08Z</time></trkpt><trkpt lat="42.0275438" lon="13.2096398"><ele>1353.0</ele><time>2026-05-03T09:00:35.088Z</time></trkpt><trkpt lat="42.027578" lon="13.209564"><ele>1353.0</ele><time>2026-05-03T09:02:17.091Z</time></trkpt><trkpt lat="42.0276343" lon="13.2095169"><ele>1353.0</ele><time>2026-05-03T09:02:21.091Z</time></trkpt><trkpt lat="42.0276947" lon="13.2094788"><ele>1353.0</ele><time>2026-05-03T09:02:26.081Z</time></trkpt><trkpt lat="42.0277537" lon="13.2094481"><ele>1353.0</ele><time>2026-05-03T09:02:31.087Z</time></trkpt><trkpt lat="42.0278277" lon="13.2094023"><ele>1351.1666666666667</ele><time>2026-05-03T09:02:36.103Z</time></trkpt><trkpt lat="42.0278976" lon="13.2093592"><ele>1349.3333333333333</ele><time>2026-05-03T09:02:39.084Z</time></trkpt><trkpt lat="42.0279726" lon="13.2093062"><ele>1347.5</ele><time>2026-05-03T09:02:42.083Z</time></trkpt><trkpt lat="42.0280372" lon="13.2092258"><ele>1345.6666666666665</ele><time>2026-05-03T09:02:45.081Z</time></trkpt><trkpt lat="42.028083" lon="13.2091501"><ele>1343.8333333333333</ele><time>2026-05-03T09:02:48.097Z</time></trkpt><trkpt lat="42.0281299" lon="13.2090668"><ele>1342.0</ele><time>2026-05-03T09:02:52.08Z</time></trkpt><trkpt lat="42.0281871" lon="13.2090248"><ele>1342.142857142857</ele><time>2026-05-03T09:03:13.082Z</time></trkpt><trkpt lat="42.0282468" lon="13.2089756"><ele>1342.2857142857144</ele><time>2026-05-03T09:03:19.078Z</time></trkpt><trkpt lat="42.0283107" lon="13.2089216"><ele>1342.4285714285716</ele><time>2026-05-03T09:03:24.09Z</time></trkpt><trkpt lat="42.0283602" lon="13.2088566"><ele>1342.5714285714284</ele><time>2026-05-03T09:03:28.083Z</time></trkpt><trkpt lat="42.0284298" lon="13.2087999"><ele>1342.7142857142858</ele><time>2026-05-03T09:03:31.11Z</time></trkpt><trkpt lat="42.0285043" lon="13.2087611"><ele>1342.857142857143</ele><time>2026-05-03T09:03:34.082Z</time></trkpt><trkpt lat="42.0285642" lon="13.2087121"><ele>1343.0</ele><time>2026-05-03T09:03:42.076Z</time></trkpt><trkpt lat="42.0286393" lon="13.2086764"><ele>1343.0</ele><time>2026-05-03T09:03:47.083Z</time></trkpt><trkpt lat="42.028725" lon="13.2086393"><ele>1343.0</ele><time>2026-05-03T09:03:50.085Z</time></trkpt><trkpt lat="42.0288014" lon="13.208597"><ele>1343.0</ele><time>2026-05-03T09:03:53.078Z</time></trkpt><trkpt lat="42.0288886" lon="13.2085659"><ele>1343.0</ele><time>2026-05-03T09:03:56.079Z</time></trkpt><trkpt lat="42.0289648" lon="13.2085427"><ele>1343.0</ele><time>2026-05-03T09:03:59.081Z</time></trkpt><trkpt lat="42.0290457" lon="13.208549"><ele>1343.0</ele><time>2026-05-03T09:04:01.087Z</time></trkpt><trkpt lat="42.0291291" lon="13.2085702"><ele>1340.7142857142858</ele><time>2026-05-03T09:04:04.086Z</time></trkpt><trkpt lat="42.0291945" lon="13.2085944"><ele>1338.4285714285716</ele><time>2026-05-03T09:04:06.086Z</time></trkpt><trkpt lat="42.0292585" lon="13.20862"><ele>1336.1428571428573</ele><time>2026-05-03T09:04:08.092Z</time></trkpt><trkpt lat="42.0293271" lon="13.2086593"><ele>1333.857142857143</ele><time>2026-05-03T09:04:10.087Z</time></trkpt><trkpt lat="42.0294147" lon="13.2086912"><ele>1331.5714285714287</ele><time>2026-05-03T09:04:12.079Z</time></trkpt><trkpt lat="42.0294912" lon="13.2087045"><ele>1329.2857142857144</ele><time>2026-05-03T09:04:14.084Z</time></trkpt><trkpt lat="42.0295608" lon="13.2086918"><ele>1327.0</ele><time>2026-05-03T09:04:17.088Z</time></trkpt><trkpt lat="42.0296249" lon="13.2086609"><ele>1327.0</ele><time>2026-05-03T09:04:19.113Z</time></trkpt><trkpt lat="42.0297117" lon="13.2086858"><ele>1327.0</ele><time>2026-05-03T09:04:22.086Z</time></trkpt><trkpt lat="42.0297505" lon="13.208768"><ele>1327.0</ele><time>2026-05-03T09:04:25.086Z</time></trkpt><trkpt lat="42.0298276" lon="13.2087799"><ele>1327.0</ele><time>2026-05-03T09:04:28.085Z</time></trkpt><trkpt lat="42.0298323" lon="13.2086949"><ele>1327.0</ele><time>2026-05-03T09:09:47.074Z</time></trkpt><trkpt lat="42.0298491" lon="13.2087981"><ele>1327.0</ele><time>2026-05-03T09:10:07.081Z</time></trkpt><trkpt lat="42.029885" lon="13.2089147"><ele>1328.5</ele><time>2026-05-03T09:10:11.077Z</time></trkpt><trkpt lat="42.0299436" lon="13.2090034"><ele>1330.0</ele><time>2026-05-03T09:10:13.077Z</time></trkpt><trkpt lat="42.0299884" lon="13.2090862"><ele>1331.5</ele><time>2026-05-03T09:10:15.075Z</time></trkpt><trkpt lat="42.0300128" lon="13.20917"><ele>1333.0</ele><time>2026-05-03T09:10:17.078Z</time></trkpt><trkpt lat="42.0300201" lon="13.2092582"><ele>1334.5</ele><time>2026-05-03T09:10:19.079Z</time></trkpt><trkpt lat="42.0300382" lon="13.2093601"><ele>1336.0</ele><time>2026-05-03T09:10:21.074Z</time></trkpt><trkpt lat="42.0300788" lon="13.2095099"><ele>1332.4</ele><time>2026-05-03T09:10:23.074Z</time></trkpt><trkpt lat="42.030119" lon="13.2096585"><ele>1328.8</ele><time>2026-05-03T09:10:25.073Z</time></trkpt><trkpt lat="42.0301411" lon="13.2097388"><ele>1325.2</ele><time>2026-05-03T09:10:26.074Z</time></trkpt><trkpt lat="42.0301883" lon="13.2098987"><ele>1321.6000000000001</ele><time>2026-05-03T09:10:28.074Z</time></trkpt><trkpt lat="42.0302175" lon="13.2099892"><ele>1318.0</ele><time>2026-05-03T09:10:29.085Z</time></trkpt><trkpt lat="42.0302576" lon="13.2100828"><ele>1317.857142857143</ele><time>2026-05-03T09:10:30.072Z</time></trkpt><trkpt lat="42.0302976" lon="13.2101773"><ele>1317.7142857142856</ele><time>2026-05-03T09:10:31.077Z</time></trkpt><trkpt lat="42.0303321" lon="13.2102676"><ele>1317.5714285714284</ele><time>2026-05-03T09:10:32.094Z</time></trkpt><trkpt lat="42.0303644" lon="13.2103473"><ele>1317.4285714285716</ele><time>2026-05-03T09:10:33.071Z</time></trkpt><trkpt lat="42.0303917" lon="13.2104265"><ele>1317.2857142857142</ele><time>2026-05-03T09:10:34.073Z</time></trkpt><trkpt lat="42.0304204" lon="13.2105044"><ele>1317.142857142857</ele><time>2026-05-03T09:10:35.073Z</time></trkpt><trkpt lat="42.0304432" lon="13.2105915"><ele>1317.0</ele><time>2026-05-03T09:10:36.078Z</time></trkpt><trkpt lat="42.0304634" lon="13.2106786"><ele>1317.8333333333333</ele><time>2026-05-03T09:10:37.081Z</time></trkpt><trkpt lat="42.0304956" lon="13.2108316"><ele>1318.6666666666667</ele><time>2026-05-03T09:10:39.075Z</time></trkpt><trkpt lat="42.0305292" lon="13.2109073"><ele>1319.5</ele><time>2026-05-03T09:10:40.105Z</time></trkpt><trkpt lat="42.0305735" lon="13.2109815"><ele>1320.3333333333335</ele><time>2026-05-03T09:10:41.076Z</time></trkpt><trkpt lat="42.0306143" lon="13.2110626"><ele>1321.1666666666667</ele><time>2026-05-03T09:10:42.074Z</time></trkpt><trkpt lat="42.0306629" lon="13.2112062"><ele>1322.0</ele><time>2026-05-03T09:10:44.072Z</time></trkpt><trkpt lat="42.0306823" lon="13.2113446"><ele>1321.6</ele><time>2026-05-03T09:10:46.075Z</time></trkpt><trkpt lat="42.0307157" lon="13.2115"><ele>1321.1999999999998</ele><time>2026-05-03T09:10:48.117Z</time></trkpt><trkpt lat="42.0307445" lon="13.2116271"><ele>1320.8</ele><time>2026-05-03T09:10:50.081Z</time></trkpt><trkpt lat="42.0307732" lon="13.2117069"><ele>1320.4</ele><time>2026-05-03T09:10:52.077Z</time></trkpt><trkpt lat="42.0308125" lon="13.2118315"><ele>1320.0</ele><time>2026-05-03T09:12:10.084Z</time></trkpt><trkpt lat="42.0308267" lon="13.211936"><ele>1317.2</ele><time>2026-05-03T09:12:12.085Z</time></trkpt><trkpt lat="42.0308582" lon="13.2120382"><ele>1314.4</ele><time>2026-05-03T09:12:14.086Z</time></trkpt><trkpt lat="42.0308724" lon="13.2121808"><ele>1311.6</ele><time>2026-05-03T09:12:16.075Z</time></trkpt><trkpt lat="42.0308748" lon="13.2123364"><ele>1308.8</ele><time>2026-05-03T09:12:18.085Z</time></trkpt><trkpt lat="42.030885" lon="13.2124661"><ele>1306.0</ele><time>2026-05-03T09:12:20.083Z</time></trkpt><trkpt lat="42.030884" lon="13.212577"><ele>1306.0</ele><time>2026-05-03T09:12:22.122Z</time></trkpt><trkpt lat="42.0308899" lon="13.2126827"><ele>1306.0</ele><time>2026-05-03T09:12:26.076Z</time></trkpt><trkpt lat="42.0308611" lon="13.2127862"><ele>1306.0</ele><time>2026-05-03T09:12:28.082Z</time></trkpt><trkpt lat="42.0307962" lon="13.2129054"><ele>1306.0</ele><time>2026-05-03T09:12:30.1Z</time></trkpt><trkpt lat="42.0307519" lon="13.2130286"><ele>1306.0</ele><time>2026-05-03T09:12:32.075Z</time></trkpt><trkpt lat="42.0307311" lon="13.2131181"><ele>1306.0</ele><time>2026-05-03T09:12:34.085Z</time></trkpt><trkpt lat="42.0307108" lon="13.2132006"><ele>1306.8333333333333</ele><time>2026-05-03T09:12:36.088Z</time></trkpt><trkpt lat="42.0306645" lon="13.2133239"><ele>1307.6666666666665</ele><time>2026-05-03T09:12:38.106Z</time></trkpt><trkpt lat="42.0306333" lon="13.2134012"><ele>1308.5</ele><time>2026-05-03T09:12:39.08Z</time></trkpt><trkpt lat="42.0306054" lon="13.2134777"><ele>1309.3333333333333</ele><time>2026-05-03T09:12:40.077Z</time></trkpt><trkpt lat="42.0305426" lon="13.2136304"><ele>1310.1666666666667</ele><time>2026-05-03T09:12:42.084Z</time></trkpt><trkpt lat="42.0305176" lon="13.2137083"><ele>1311.0</ele><time>2026-05-03T09:12:43.08Z</time></trkpt><trkpt lat="42.0304767" lon="13.2138631"><ele>1309.8</ele><time>2026-05-03T09:12:45.078Z</time></trkpt><trkpt lat="42.0304283" lon="13.2139901"><ele>1308.6</ele><time>2026-05-03T09:12:47.084Z</time></trkpt><trkpt lat="42.0303851" lon="13.214133"><ele>1307.4</ele><time>2026-05-03T09:12:49.086Z</time></trkpt><trkpt lat="42.0303628" lon="13.2142168"><ele>1306.2</ele><time>2026-05-03T09:12:50.08Z</time></trkpt><trkpt lat="42.0303222" lon="13.2143627"><ele>1305.0</ele><time>2026-05-03T09:12:52.078Z</time></trkpt><trkpt lat="42.0302802" lon="13.2144946"><ele>1305.0</ele><time>2026-05-03T09:12:54.078Z</time></trkpt><trkpt lat="42.0302477" lon="13.2146115"><ele>1305.0</ele><time>2026-05-03T09:12:56.075Z</time></trkpt><trkpt lat="42.0301995" lon="13.2147217"><ele>1305.0</ele><time>2026-05-03T09:12:58.113Z</time></trkpt><trkpt lat="42.0301397" lon="13.2148448"><ele>1305.0</ele><time>2026-05-03T09:13:00.086Z</time></trkpt><trkpt lat="42.0300933" lon="13.2149966"><ele>1305.0</ele><time>2026-05-03T09:13:02.084Z</time></trkpt><trkpt lat="42.0300671" lon="13.2150753"><ele>1305.0</ele><time>2026-05-03T09:13:03.081Z</time></trkpt><trkpt lat="42.0300421" lon="13.215154"><ele>1305.0</ele><time>2026-05-03T09:13:04.077Z</time></trkpt><trkpt lat="42.0299885" lon="13.2152984"><ele>1305.0</ele><time>2026-05-03T09:13:06.081Z</time></trkpt><trkpt lat="42.0299257" lon="13.2154399"><ele>1305.0</ele><time>2026-05-03T09:13:08.081Z</time></trkpt><trkpt lat="42.0298912" lon="13.2155175"><ele>1305.0</ele><time>2026-05-03T09:13:09.08Z</time></trkpt><trkpt lat="42.0298535" lon="13.2156026"><ele>1305.0</ele><time>2026-05-03T09:13:10.076Z</time></trkpt><trkpt lat="42.0298159" lon="13.2156876"><ele>1305.0</ele><time>2026-05-03T09:13:11.08Z</time></trkpt><trkpt lat="42.029784" lon="13.2157741"><ele>1305.0</ele><time>2026-05-03T09:13:12.081Z</time></trkpt><trkpt lat="42.0297492" lon="13.215867"><ele>1305.0</ele><time>2026-05-03T09:13:13.079Z</time></trkpt><trkpt lat="42.0297118" lon="13.2159632"><ele>1305.0</ele><time>2026-05-03T09:13:14.088Z</time></trkpt><trkpt lat="42.0296763" lon="13.2160465"><ele>1305.0</ele><time>2026-05-03T09:13:15.079Z</time></trkpt><trkpt lat="42.0296388" lon="13.2161217"><ele>1305.0</ele><time>2026-05-03T09:13:16.083Z</time></trkpt><trkpt lat="42.0295686" lon="13.2162618"><ele>1305.0</ele><time>2026-05-03T09:13:18.082Z</time></trkpt><trkpt lat="42.0295117" lon="13.2164187"><ele>1305.0</ele><time>2026-05-03T09:13:20.075Z</time></trkpt><trkpt lat="42.0294823" lon="13.2165125"><ele>1305.0</ele><time>2026-05-03T09:13:21.085Z</time></trkpt><trkpt lat="42.0294539" lon="13.2165992"><ele>1305.0</ele><time>2026-05-03T09:13:22.078Z</time></trkpt><trkpt lat="42.0294271" lon="13.2166847"><ele>1305.0</ele><time>2026-05-03T09:13:23.08Z</time></trkpt><trkpt lat="42.0293997" lon="13.2167725"><ele>1305.0</ele><time>2026-05-03T09:13:24.08Z</time></trkpt><trkpt lat="42.0293765" lon="13.216865"><ele>1305.7142857142856</ele><time>2026-05-03T09:13:25.082Z</time></trkpt><trkpt lat="42.0293495" lon="13.2169459"><ele>1306.4285714285713</ele><time>2026-05-03T09:13:26.104Z</time></trkpt><trkpt lat="42.0293156" lon="13.2170253"><ele>1307.142857142857</ele><time>2026-05-03T09:13:27.081Z</time></trkpt><trkpt lat="42.0292765" lon="13.2170942"><ele>1307.8571428571427</ele><time>2026-05-03T09:13:28.083Z</time></trkpt><trkpt lat="42.0292356" lon="13.217162"><ele>1308.5714285714284</ele><time>2026-05-03T09:13:29.084Z</time></trkpt><trkpt lat="42.0291855" lon="13.2172319"><ele>1309.2857142857142</ele><time>2026-05-03T09:13:30.08Z</time></trkpt><trkpt lat="42.0291355" lon="13.2172942"><ele>1310.0</ele><time>2026-05-03T09:13:31.092Z</time></trkpt><trkpt lat="42.0290779" lon="13.2173494"><ele>1307.5</ele><time>2026-05-03T09:13:32.08Z</time></trkpt><trkpt lat="42.0289684" lon="13.2174568"><ele>1305.0</ele><time>2026-05-03T09:13:34.084Z</time></trkpt><trkpt lat="42.0289164" lon="13.2175227"><ele>1302.5</ele><time>2026-05-03T09:13:35.086Z</time></trkpt><trkpt lat="42.0288674" lon="13.2175804"><ele>1300.0</ele><time>2026-05-03T09:13:36.107Z</time></trkpt><trkpt lat="42.0288151" lon="13.2176372"><ele>1297.5</ele><time>2026-05-03T09:13:37.078Z</time></trkpt><trkpt lat="42.0287623" lon="13.2176893"><ele>1295.0</ele><time>2026-05-03T09:13:38.077Z</time></trkpt><trkpt lat="42.0287111" lon="13.217748"><ele>1295.0</ele><time>2026-05-03T09:13:39.081Z</time></trkpt><trkpt lat="42.0286584" lon="13.2178135"><ele>1295.0</ele><time>2026-05-03T09:13:40.08Z</time></trkpt><trkpt lat="42.0285992" lon="13.21787"><ele>1295.0</ele><time>2026-05-03T09:13:41.09Z</time></trkpt><trkpt lat="42.0285375" lon="13.2179334"><ele>1295.0</ele><time>2026-05-03T09:13:42.075Z</time></trkpt><trkpt lat="42.0284751" lon="13.2179843"><ele>1295.0</ele><time>2026-05-03T09:13:43.083Z</time></trkpt><trkpt lat="42.0284082" lon="13.2180394"><ele>1295.0</ele><time>2026-05-03T09:13:44.078Z</time></trkpt><trkpt lat="42.0283464" lon="13.2180893"><ele>1295.0</ele><time>2026-05-03T09:13:45.078Z</time></trkpt><trkpt lat="42.0282841" lon="13.2181352"><ele>1294.5714285714287</ele><time>2026-05-03T09:13:46.072Z</time></trkpt><trkpt lat="42.0282275" lon="13.2181849"><ele>1294.142857142857</ele><time>2026-05-03T09:13:47.074Z</time></trkpt><trkpt lat="42.0281675" lon="13.2182393"><ele>1293.7142857142858</ele><time>2026-05-03T09:13:48.081Z</time></trkpt><trkpt lat="42.028112" lon="13.2182893"><ele>1293.2857142857142</ele><time>2026-05-03T09:13:49.081Z</time></trkpt><trkpt lat="42.0280494" lon="13.2183308"><ele>1292.857142857143</ele><time>2026-05-03T09:13:50.074Z</time></trkpt><trkpt lat="42.0279844" lon="13.2183665"><ele>1292.4285714285716</ele><time>2026-05-03T09:13:51.081Z</time></trkpt><trkpt lat="42.0279164" lon="13.2184028"><ele>1292.0</ele><time>2026-05-03T09:13:52.083Z</time></trkpt><trkpt lat="42.0278454" lon="13.2184263"><ele>1292.0000000000002</ele><time>2026-05-03T09:13:53.103Z</time></trkpt><trkpt lat="42.0277729" lon="13.2184381"><ele>1292.0</ele><time>2026-05-03T09:13:54.081Z</time></trkpt><trkpt lat="42.0277018" lon="13.2184295"><ele>1292.0</ele><time>2026-05-03T09:13:55.081Z</time></trkpt><trkpt lat="42.0276307" lon="13.2184116"><ele>1292.0</ele><time>2026-05-03T09:13:56.076Z</time></trkpt><trkpt lat="42.0275606" lon="13.2183931"><ele>1292.0</ele><time>2026-05-03T09:13:57.084Z</time></trkpt><trkpt lat="42.0274896" lon="13.2183776"><ele>1292.0000000000002</ele><time>2026-05-03T09:13:58.079Z</time></trkpt><trkpt lat="42.0274214" lon="13.2183667"><ele>1292.0</ele><time>2026-05-03T09:13:59.081Z</time></trkpt><trkpt lat="42.0273539" lon="13.2183491"><ele>1292.1428571428573</ele><time>2026-05-03T09:14:00.085Z</time></trkpt><trkpt lat="42.0272915" lon="13.2183281"><ele>1292.2857142857142</ele><time>2026-05-03T09:14:01.083Z</time></trkpt><trkpt lat="42.0272281" lon="13.2183096"><ele>1292.4285714285716</ele><time>2026-05-03T09:14:02.092Z</time></trkpt><trkpt lat="42.0271652" lon="13.2182991"><ele>1292.5714285714287</ele><time>2026-05-03T09:14:03.082Z</time></trkpt><trkpt lat="42.0271017" lon="13.2182916"><ele>1292.7142857142858</ele><time>2026-05-03T09:14:04.083Z</time></trkpt><trkpt lat="42.0269765" lon="13.2182864"><ele>1292.857142857143</ele><time>2026-05-03T09:14:06.083Z</time></trkpt><trkpt lat="42.0269138" lon="13.2182961"><ele>1293.0</ele><time>2026-05-03T09:14:07.099Z</time></trkpt><trkpt lat="42.026847" lon="13.218315"><ele>1293.0</ele><time>2026-05-03T09:14:08.082Z</time></trkpt><trkpt lat="42.0267866" lon="13.2183487"><ele>1293.0</ele><time>2026-05-03T09:14:09.079Z</time></trkpt><trkpt lat="42.026726" lon="13.2183949"><ele>1293.0</ele><time>2026-05-03T09:14:10.079Z</time></trkpt><trkpt lat="42.0266636" lon="13.2184421"><ele>1293.0</ele><time>2026-05-03T09:14:11.076Z</time></trkpt><trkpt lat="42.0265966" lon="13.2184916"><ele>1293.0</ele><time>2026-05-03T09:14:12.076Z</time></trkpt><trkpt lat="42.0265333" lon="13.2185453"><ele>1293.0</ele><time>2026-05-03T09:14:13.081Z</time></trkpt><trkpt lat="42.0264667" lon="13.2185921"><ele>1293.0</ele><time>2026-05-03T09:14:14.078Z</time></trkpt><trkpt lat="42.0264005" lon="13.218633"><ele>1293.857142857143</ele><time>2026-05-03T09:14:15.078Z</time></trkpt><trkpt lat="42.0263307" lon="13.2186692"><ele>1294.7142857142858</ele><time>2026-05-03T09:14:16.071Z</time></trkpt><trkpt lat="42.0262654" lon="13.2187131"><ele>1295.5714285714287</ele><time>2026-05-03T09:14:17.084Z</time></trkpt><trkpt lat="42.0262036" lon="13.2187552"><ele>1296.4285714285716</ele><time>2026-05-03T09:14:18.072Z</time></trkpt><trkpt lat="42.0261381" lon="13.2188003"><ele>1297.2857142857142</ele><time>2026-05-03T09:14:19.08Z</time></trkpt><trkpt lat="42.0260735" lon="13.2188454"><ele>1298.1428571428573</ele><time>2026-05-03T09:14:20.084Z</time></trkpt><trkpt lat="42.0260082" lon="13.2189013"><ele>1299.0</ele><time>2026-05-03T09:14:21.079Z</time></trkpt><trkpt lat="42.0259513" lon="13.2189614"><ele>1299.8333333333333</ele><time>2026-05-03T09:14:22.076Z</time></trkpt><trkpt lat="42.0258934" lon="13.219023"><ele>1300.6666666666667</ele><time>2026-05-03T09:14:23.082Z</time></trkpt><trkpt lat="42.0258398" lon="13.2190833"><ele>1301.5</ele><time>2026-05-03T09:14:24.078Z</time></trkpt><trkpt lat="42.0257842" lon="13.2191543"><ele>1302.3333333333335</ele><time>2026-05-03T09:14:25.074Z</time></trkpt><trkpt lat="42.0257285" lon="13.219223"><ele>1303.1666666666667</ele><time>2026-05-03T09:14:26.076Z</time></trkpt><trkpt lat="42.0256727" lon="13.2192945"><ele>1304.0</ele><time>2026-05-03T09:14:27.118Z</time></trkpt><trkpt lat="42.0256199" lon="13.2193707"><ele>1304.0</ele><time>2026-05-03T09:14:28.077Z</time></trkpt><trkpt lat="42.025564" lon="13.2194379"><ele>1304.0</ele><time>2026-05-03T09:14:29.08Z</time></trkpt><trkpt lat="42.0255068" lon="13.2195024"><ele>1304.0</ele><time>2026-05-03T09:14:30.091Z</time></trkpt><trkpt lat="42.0254103" lon="13.2196127"><ele>1304.0</ele><time>2026-05-03T09:14:32.1Z</time></trkpt><trkpt lat="42.0253399" lon="13.2197239"><ele>1304.0</ele><time>2026-05-03T09:14:34.078Z</time></trkpt><trkpt lat="42.0253098" lon="13.2198799"><ele>1301.6</ele><time>2026-05-03T09:14:36.084Z</time></trkpt><trkpt lat="42.0253005" lon="13.2199726"><ele>1299.2</ele><time>2026-05-03T09:14:37.079Z</time></trkpt><trkpt lat="42.0252986" lon="13.2200663"><ele>1296.8</ele><time>2026-05-03T09:14:38.084Z</time></trkpt><trkpt lat="42.0252986" lon="13.2202187"><ele>1294.3999999999999</ele><time>2026-05-03T09:14:40.079Z</time></trkpt><trkpt lat="42.0252481" lon="13.2203429"><ele>1292.0</ele><time>2026-05-03T09:14:42.082Z</time></trkpt><trkpt lat="42.0251741" lon="13.2204704"><ele>1292.0000000000002</ele><time>2026-05-03T09:14:44.084Z</time></trkpt><trkpt lat="42.0251315" lon="13.2205384"><ele>1292.0</ele><time>2026-05-03T09:14:45.087Z</time></trkpt><trkpt lat="42.0250819" lon="13.2206009"><ele>1292.0</ele><time>2026-05-03T09:14:46.078Z</time></trkpt><trkpt lat="42.0250367" lon="13.2206608"><ele>1292.0</ele><time>2026-05-03T09:14:47.078Z</time></trkpt><trkpt lat="42.0249909" lon="13.2207283"><ele>1292.0</ele><time>2026-05-03T09:14:48.09Z</time></trkpt><trkpt lat="42.024945" lon="13.2207877"><ele>1292.0000000000002</ele><time>2026-05-03T09:14:49.082Z</time></trkpt><trkpt lat="42.0248443" lon="13.2208683"><ele>1292.0</ele><time>2026-05-03T09:14:51.08Z</time></trkpt><trkpt lat="42.0247537" lon="13.2209528"><ele>1293.1999999999998</ele><time>2026-05-03T09:14:53.08Z</time></trkpt><trkpt lat="42.0247019" lon="13.2210018"><ele>1294.4</ele><time>2026-05-03T09:14:54.077Z</time></trkpt><trkpt lat="42.0246055" lon="13.2210965"><ele>1295.6</ele><time>2026-05-03T09:14:56.071Z</time></trkpt><trkpt lat="42.0245243" lon="13.2212054"><ele>1296.8000000000002</ele><time>2026-05-03T09:14:58.076Z</time></trkpt><trkpt lat="42.0244751" lon="13.2213547"><ele>1298.0</ele><time>2026-05-03T09:15:00.081Z</time></trkpt><trkpt lat="42.0244586" lon="13.2215097"><ele>1298.0</ele><time>2026-05-03T09:15:02.079Z</time></trkpt><trkpt lat="42.0244452" lon="13.2216836"><ele>1298.0</ele><time>2026-05-03T09:15:04.08Z</time></trkpt><trkpt lat="42.0244398" lon="13.2217733"><ele>1298.0</ele><time>2026-05-03T09:15:05.082Z</time></trkpt><trkpt lat="42.0244348" lon="13.2219302"><ele>1298.0</ele><time>2026-05-03T09:15:07.082Z</time></trkpt><trkpt lat="42.0244421" lon="13.2220944"><ele>1298.0</ele><time>2026-05-03T09:15:09.084Z</time></trkpt><trkpt lat="42.02444" lon="13.2221799"><ele>1297.9999999999998</ele><time>2026-05-03T09:15:10.08Z</time></trkpt><trkpt lat="42.0244382" lon="13.2222676"><ele>1298.0</ele><time>2026-05-03T09:15:11.083Z</time></trkpt><trkpt lat="42.0244324" lon="13.2223539"><ele>1298.0</ele><time>2026-05-03T09:15:12.088Z</time></trkpt><trkpt lat="42.0244216" lon="13.2224471"><ele>1298.0</ele><time>2026-05-03T09:15:13.091Z</time></trkpt><trkpt lat="42.0244141" lon="13.2225353"><ele>1298.0</ele><time>2026-05-03T09:15:14.084Z</time></trkpt><trkpt lat="42.0243989" lon="13.2226248"><ele>1297.9999999999998</ele><time>2026-05-03T09:15:15.08Z</time></trkpt><trkpt lat="42.0243761" lon="13.2227169"><ele>1298.0</ele><time>2026-05-03T09:15:16.077Z</time></trkpt><trkpt lat="42.0243485" lon="13.2228158"><ele>1296.25</ele><time>2026-05-03T09:15:17.087Z</time></trkpt><trkpt lat="42.0243121" lon="13.2229256"><ele>1294.5</ele><time>2026-05-03T09:15:18.087Z</time></trkpt><trkpt lat="42.0242673" lon="13.2230697"><ele>1292.75</ele><time>2026-05-03T09:15:19.075Z</time></trkpt><trkpt lat="42.024212" lon="13.2232324"><ele>1291.0</ele><time>2026-05-03T09:15:20.078Z</time></trkpt><trkpt lat="42.0241559" lon="13.2233909"><ele>1290.6</ele><time>2026-05-03T09:15:21.08Z</time></trkpt><trkpt lat="42.0240992" lon="13.2235278"><ele>1290.1999999999998</ele><time>2026-05-03T09:15:22.082Z</time></trkpt><trkpt lat="42.0240572" lon="13.2236458"><ele>1289.8000000000002</ele><time>2026-05-03T09:15:23.084Z</time></trkpt><trkpt lat="42.0240289" lon="13.2237403"><ele>1289.4</ele><time>2026-05-03T09:15:24.08Z</time></trkpt><trkpt lat="42.0239375" lon="13.2238422"><ele>1289.0</ele><time>2026-05-03T09:15:26.082Z</time></trkpt><trkpt lat="42.0238216" lon="13.2239209"><ele>1289.0</ele><time>2026-05-03T09:15:28.08Z</time></trkpt><trkpt lat="42.0237586" lon="13.2239599"><ele>1289.0</ele><time>2026-05-03T09:15:29.079Z</time></trkpt><trkpt lat="42.0236965" lon="13.2240007"><ele>1289.0</ele><time>2026-05-03T09:15:30.081Z</time></trkpt><trkpt lat="42.0236375" lon="13.2240505"><ele>1289.0</ele><time>2026-05-03T09:15:31.081Z</time></trkpt><trkpt lat="42.0235815" lon="13.224113"><ele>1289.0</ele><time>2026-05-03T09:15:32.081Z</time></trkpt><trkpt lat="42.0235304" lon="13.2241807"><ele>1289.0</ele><time>2026-05-03T09:15:33.074Z</time></trkpt><trkpt lat="42.0234801" lon="13.2242397"><ele>1289.0</ele><time>2026-05-03T09:15:34.089Z</time></trkpt><trkpt lat="42.0234332" lon="13.2243071"><ele>1289.1666666666667</ele><time>2026-05-03T09:15:35.083Z</time></trkpt><trkpt lat="42.0233978" lon="13.2243785"><ele>1289.3333333333335</ele><time>2026-05-03T09:15:36.08Z</time></trkpt><trkpt lat="42.0233659" lon="13.2244593"><ele>1289.5</ele><time>2026-05-03T09:15:37.082Z</time></trkpt><trkpt lat="42.023343" lon="13.2245383"><ele>1289.6666666666667</ele><time>2026-05-03T09:15:38.077Z</time></trkpt><trkpt lat="42.0232987" lon="13.2247064"><ele>1289.8333333333333</ele><time>2026-05-03T09:15:40.083Z</time></trkpt><trkpt lat="42.023268" lon="13.2247929"><ele>1290.0</ele><time>2026-05-03T09:15:41.08Z</time></trkpt><trkpt lat="42.0232387" lon="13.2248799"><ele>1289.5714285714287</ele><time>2026-05-03T09:15:42.081Z</time></trkpt><trkpt lat="42.023207" lon="13.2249642"><ele>1289.142857142857</ele><time>2026-05-03T09:15:43.078Z</time></trkpt><trkpt lat="42.0231727" lon="13.2250423"><ele>1288.7142857142858</ele><time>2026-05-03T09:15:44.121Z</time></trkpt><trkpt lat="42.0231369" lon="13.2251211"><ele>1288.2857142857142</ele><time>2026-05-03T09:15:45.085Z</time></trkpt><trkpt lat="42.0231039" lon="13.2251971"><ele>1287.857142857143</ele><time>2026-05-03T09:15:46.089Z</time></trkpt><trkpt lat="42.0230662" lon="13.2252778"><ele>1287.4285714285713</ele><time>2026-05-03T09:15:47.086Z</time></trkpt><trkpt lat="42.0230295" lon="13.2253648"><ele>1287.0</ele><time>2026-05-03T09:15:48.088Z</time></trkpt><trkpt lat="42.0229926" lon="13.2254503"><ele>1287.0</ele><time>2026-05-03T09:15:49.08Z</time></trkpt><trkpt lat="42.0229589" lon="13.225533"><ele>1287.0</ele><time>2026-05-03T09:15:50.087Z</time></trkpt><trkpt lat="42.0229168" lon="13.2256101"><ele>1287.0</ele><time>2026-05-03T09:15:51.088Z</time></trkpt><trkpt lat="42.0228751" lon="13.225684"><ele>1287.0</ele><time>2026-05-03T09:15:52.084Z</time></trkpt><trkpt lat="42.0228" lon="13.2258194"><ele>1287.0</ele><time>2026-05-03T09:15:54.083Z</time></trkpt><trkpt lat="42.0227278" lon="13.2259571"><ele>1286.6666666666667</ele><time>2026-05-03T09:15:56.083Z</time></trkpt><trkpt lat="42.0226863" lon="13.226027"><ele>1286.3333333333333</ele><time>2026-05-03T09:15:57.084Z</time></trkpt><trkpt lat="42.0226399" lon="13.2260865"><ele>1286.0</ele><time>2026-05-03T09:15:58.081Z</time></trkpt><trkpt lat="42.0225441" lon="13.22617"><ele>1285.6666666666665</ele><time>2026-05-03T09:16:00.083Z</time></trkpt><trkpt lat="42.0224263" lon="13.2261862"><ele>1285.3333333333333</ele><time>2026-05-03T09:16:02.082Z</time></trkpt><trkpt lat="42.0223611" lon="13.2261732"><ele>1285.0</ele><time>2026-05-03T09:16:03.087Z</time></trkpt><trkpt lat="42.0222439" lon="13.2261096"><ele>1285.0</ele><time>2026-05-03T09:16:05.083Z</time></trkpt><trkpt lat="42.02218" lon="13.2260738"><ele>1285.0</ele><time>2026-05-03T09:16:06.088Z</time></trkpt><trkpt lat="42.0220663" lon="13.2260408"><ele>1285.0</ele><time>2026-05-03T09:16:08.084Z</time></trkpt><trkpt lat="42.0220035" lon="13.2260325"><ele>1285.0</ele><time>2026-05-03T09:16:09.081Z</time></trkpt><trkpt lat="42.0219406" lon="13.226023"><ele>1285.0</ele><time>2026-05-03T09:16:10.083Z</time></trkpt><trkpt lat="42.0218772" lon="13.2260263"><ele>1285.0</ele><time>2026-05-03T09:16:11.082Z</time></trkpt><trkpt lat="42.0217562" lon="13.2260456"><ele>1286.6</ele><time>2026-05-03T09:16:13.078Z</time></trkpt><trkpt lat="42.0216459" lon="13.2260848"><ele>1288.2</ele><time>2026-05-03T09:16:15.085Z</time></trkpt><trkpt lat="42.0215522" lon="13.2261493"><ele>1289.8000000000002</ele><time>2026-05-03T09:16:17.076Z</time></trkpt><trkpt lat="42.0214566" lon="13.2262468"><ele>1291.4</ele><time>2026-05-03T09:16:19.083Z</time></trkpt><trkpt lat="42.0214109" lon="13.2263132"><ele>1293.0</ele><time>2026-05-03T09:16:20.081Z</time></trkpt><trkpt lat="42.0213727" lon="13.2263854"><ele>1293.0</ele><time>2026-05-03T09:16:21.104Z</time></trkpt><trkpt lat="42.0213354" lon="13.2264547"><ele>1293.0</ele><time>2026-05-03T09:16:22.078Z</time></trkpt><trkpt lat="42.0212619" lon="13.2265656"><ele>1293.0</ele><time>2026-05-03T09:16:24.078Z</time></trkpt><trkpt lat="42.0211719" lon="13.2266362"><ele>1293.0</ele><time>2026-05-03T09:16:26.08Z</time></trkpt><trkpt lat="42.021066" lon="13.226663"><ele>1293.0</ele><time>2026-05-03T09:16:28.077Z</time></trkpt><trkpt lat="42.0209531" lon="13.2266377"><ele>1292.3333333333333</ele><time>2026-05-03T09:16:30.083Z</time></trkpt><trkpt lat="42.0208868" lon="13.2266166"><ele>1291.6666666666667</ele><time>2026-05-03T09:16:31.081Z</time></trkpt><trkpt lat="42.0207679" lon="13.226597"><ele>1291.0</ele><time>2026-05-03T09:16:33.082Z</time></trkpt><trkpt lat="42.0206971" lon="13.2266135"><ele>1290.3333333333335</ele><time>2026-05-03T09:16:34.082Z</time></trkpt><trkpt lat="42.0206307" lon="13.2266367"><ele>1289.6666666666667</ele><time>2026-05-03T09:16:35.082Z</time></trkpt><trkpt lat="42.0205347" lon="13.2267122"><ele>1289.0</ele><time>2026-05-03T09:16:37.081Z</time></trkpt><trkpt lat="42.0204674" lon="13.226826"><ele>1290.0</ele><time>2026-05-03T09:16:39.078Z</time></trkpt><trkpt lat="42.0204332" lon="13.2269665"><ele>1291.0</ele><time>2026-05-03T09:16:41.081Z</time></trkpt><trkpt lat="42.0204374" lon="13.2271239"><ele>1292.0</ele><time>2026-05-03T09:16:43.082Z</time></trkpt><trkpt lat="42.0204405" lon="13.2272791"><ele>1293.0</ele><time>2026-05-03T09:16:45.08Z</time></trkpt><trkpt lat="42.0204356" lon="13.2273671"><ele>1294.0</ele><time>2026-05-03T09:16:46.13Z</time></trkpt><trkpt lat="42.0204278" lon="13.2274625"><ele>1294.0</ele><time>2026-05-03T09:16:47.081Z</time></trkpt><trkpt lat="42.0204275" lon="13.2275534"><ele>1294.0</ele><time>2026-05-03T09:16:48.088Z</time></trkpt><trkpt lat="42.0204215" lon="13.2276405"><ele>1294.0</ele><time>2026-05-03T09:16:49.077Z</time></trkpt><trkpt lat="42.020408" lon="13.2277881"><ele>1294.0</ele><time>2026-05-03T09:16:51.083Z</time></trkpt><trkpt lat="42.0203856" lon="13.2279274"><ele>1294.0</ele><time>2026-05-03T09:16:53.08Z</time></trkpt><trkpt lat="42.0203661" lon="13.2280083"><ele>1294.0</ele><time>2026-05-03T09:16:54.097Z</time></trkpt><trkpt lat="42.0203451" lon="13.2280894"><ele>1293.8333333333333</ele><time>2026-05-03T09:16:55.084Z</time></trkpt><trkpt lat="42.0203107" lon="13.2281669"><ele>1293.6666666666665</ele><time>2026-05-03T09:16:56.078Z</time></trkpt><trkpt lat="42.0202786" lon="13.2282538"><ele>1293.5</ele><time>2026-05-03T09:16:57.08Z</time></trkpt><trkpt lat="42.0202357" lon="13.2283322"><ele>1293.3333333333333</ele><time>2026-05-03T09:16:58.085Z</time></trkpt><trkpt lat="42.0202022" lon="13.2284099"><ele>1293.1666666666667</ele><time>2026-05-03T09:16:59.08Z</time></trkpt><trkpt lat="42.0201536" lon="13.2285569"><ele>1293.0</ele><time>2026-05-03T09:17:01.081Z</time></trkpt><trkpt lat="42.0201313" lon="13.2287121"><ele>1293.0</ele><time>2026-05-03T09:17:03.102Z</time></trkpt><trkpt lat="42.0201249" lon="13.2288699"><ele>1293.0</ele><time>2026-05-03T09:17:05.082Z</time></trkpt><trkpt lat="42.0201266" lon="13.2290249"><ele>1293.0</ele><time>2026-05-03T09:17:07.088Z</time></trkpt><trkpt lat="42.020131" lon="13.2291096"><ele>1293.0</ele><time>2026-05-03T09:17:08.078Z</time></trkpt><trkpt lat="42.0201315" lon="13.2292641"><ele>1293.0</ele><time>2026-05-03T09:17:10.081Z</time></trkpt><trkpt lat="42.0201018" lon="13.229397"><ele>1292.8000000000002</ele><time>2026-05-03T09:17:12.075Z</time></trkpt><trkpt lat="42.0200438" lon="13.2295169"><ele>1292.6</ele><time>2026-05-03T09:17:14.086Z</time></trkpt><trkpt lat="42.0199945" lon="13.2295939"><ele>1292.4</ele><time>2026-05-03T09:17:16.087Z</time></trkpt><trkpt lat="42.0199403" lon="13.2296819"><ele>1292.1999999999998</ele><time>2026-05-03T09:17:18.078Z</time></trkpt><trkpt lat="42.019878" lon="13.2297913"><ele>1292.0</ele><time>2026-05-03T09:17:20.077Z</time></trkpt><trkpt lat="42.0198137" lon="13.2299074"><ele>1290.25</ele><time>2026-05-03T09:17:22.083Z</time></trkpt><trkpt lat="42.0197395" lon="13.2300284"><ele>1288.5</ele><time>2026-05-03T09:17:24.08Z</time></trkpt><trkpt lat="42.01967" lon="13.23014"><ele>1286.75</ele><time>2026-05-03T09:17:26.08Z</time></trkpt><trkpt lat="42.0195778" lon="13.230224"><ele>1285.0</ele><time>2026-05-03T09:17:28.084Z</time></trkpt><trkpt lat="42.0194663" lon="13.230303"><ele>1285.0</ele><time>2026-05-03T09:17:30.085Z</time></trkpt><trkpt lat="42.0194006" lon="13.2303333"><ele>1285.0</ele><time>2026-05-03T09:17:31.076Z</time></trkpt><trkpt lat="42.0193324" lon="13.2303538"><ele>1285.0</ele><time>2026-05-03T09:17:32.113Z</time></trkpt><trkpt lat="42.0192469" lon="13.2303887"><ele>1285.0</ele><time>2026-05-03T09:17:33.09Z</time></trkpt><trkpt lat="42.0191491" lon="13.2304379"><ele>1285.0</ele><time>2026-05-03T09:17:34.083Z</time></trkpt><trkpt lat="42.0190426" lon="13.2304721"><ele>1285.0</ele><time>2026-05-03T09:17:35.08Z</time></trkpt><trkpt lat="42.0189488" lon="13.2304996"><ele>1286.2</ele><time>2026-05-03T09:17:36.084Z</time></trkpt><trkpt lat="42.018844" lon="13.2305296"><ele>1287.4</ele><time>2026-05-03T09:17:38.082Z</time></trkpt><trkpt lat="42.0187483" lon="13.2305682"><ele>1288.6</ele><time>2026-05-03T09:17:40.083Z</time></trkpt><trkpt lat="42.0186432" lon="13.2306091"><ele>1289.8</ele><time>2026-05-03T09:17:42.083Z</time></trkpt><trkpt lat="42.0185275" lon="13.23066"><ele>1291.0</ele><time>2026-05-03T09:17:44.084Z</time></trkpt><trkpt lat="42.0184625" lon="13.2306849"><ele>1290.9999999999998</ele><time>2026-05-03T09:17:45.081Z</time></trkpt><trkpt lat="42.0183915" lon="13.2307101"><ele>1291.0</ele><time>2026-05-03T09:17:46.078Z</time></trkpt><trkpt lat="42.0183203" lon="13.230737"><ele>1291.0</ele><time>2026-05-03T09:17:47.076Z</time></trkpt><trkpt lat="42.0182477" lon="13.2307547"><ele>1291.0</ele><time>2026-05-03T09:17:48.074Z</time></trkpt><trkpt lat="42.0181721" lon="13.2307782"><ele>1291.0</ele><time>2026-05-03T09:17:49.115Z</time></trkpt><trkpt lat="42.0180997" lon="13.2308015"><ele>1290.9999999999998</ele><time>2026-05-03T09:17:50.079Z</time></trkpt><trkpt lat="42.0180263" lon="13.2308171"><ele>1291.0</ele><time>2026-05-03T09:17:51.085Z</time></trkpt><trkpt lat="42.0179604" lon="13.2308346"><ele>1291.7142857142856</ele><time>2026-05-03T09:17:52.079Z</time></trkpt><trkpt lat="42.0178912" lon="13.2308484"><ele>1292.4285714285713</ele><time>2026-05-03T09:17:53.086Z</time></trkpt><trkpt lat="42.0178236" lon="13.2308563"><ele>1293.142857142857</ele><time>2026-05-03T09:17:54.081Z</time></trkpt><trkpt lat="42.0177576" lon="13.2308554"><ele>1293.8571428571427</ele><time>2026-05-03T09:17:55.084Z</time></trkpt><trkpt lat="42.0176896" lon="13.2308452"><ele>1294.5714285714284</ele><time>2026-05-03T09:17:56.086Z</time></trkpt><trkpt lat="42.0176238" lon="13.2308158"><ele>1295.2857142857142</ele><time>2026-05-03T09:17:57.083Z</time></trkpt><trkpt lat="42.0175616" lon="13.230779"><ele>1296.0</ele><time>2026-05-03T09:17:58.083Z</time></trkpt><trkpt lat="42.0174948" lon="13.2307463"><ele>1298.2857142857142</ele><time>2026-05-03T09:17:59.084Z</time></trkpt><trkpt lat="42.0174272" lon="13.2307287"><ele>1300.5714285714284</ele><time>2026-05-03T09:18:00.083Z</time></trkpt><trkpt lat="42.017362" lon="13.2307278"><ele>1302.8571428571427</ele><time>2026-05-03T09:18:01.079Z</time></trkpt><trkpt lat="42.0172921" lon="13.23073"><ele>1305.142857142857</ele><time>2026-05-03T09:18:02.087Z</time></trkpt><trkpt lat="42.0172236" lon="13.2307342"><ele>1307.4285714285713</ele><time>2026-05-03T09:18:03.111Z</time></trkpt><trkpt lat="42.0171522" lon="13.2307435"><ele>1309.7142857142856</ele><time>2026-05-03T09:18:04.089Z</time></trkpt><trkpt lat="42.0170729" lon="13.2307557"><ele>1312.0</ele><time>2026-05-03T09:18:05.087Z</time></trkpt><trkpt lat="42.0170018" lon="13.2307763"><ele>1311.9999999999998</ele><time>2026-05-03T09:18:06.081Z</time></trkpt><trkpt lat="42.0169298" lon="13.2307903"><ele>1312.0</ele><time>2026-05-03T09:18:07.082Z</time></trkpt><trkpt lat="42.0168587" lon="13.2308013"><ele>1312.0</ele><time>2026-05-03T09:18:08.084Z</time></trkpt><trkpt lat="42.0167925" lon="13.2308043"><ele>1312.0</ele><time>2026-05-03T09:18:09.089Z</time></trkpt><trkpt lat="42.016726" lon="13.2308101"><ele>1312.0</ele><time>2026-05-03T09:18:10.085Z</time></trkpt><trkpt lat="42.0166569" lon="13.2308233"><ele>1311.9999999999998</ele><time>2026-05-03T09:18:11.083Z</time></trkpt><trkpt lat="42.0165847" lon="13.2308378"><ele>1312.0</ele><time>2026-05-03T09:18:12.085Z</time></trkpt><trkpt lat="42.0165219" lon="13.2308528"><ele>1312.0</ele><time>2026-05-03T09:18:13.079Z</time></trkpt><trkpt lat="42.0166157" lon="13.2308379"><ele>1312.0</ele><time>2026-05-03T09:19:26.076Z</time></trkpt><trkpt lat="42.0167203" lon="13.2308043"><ele>1312.0</ele><time>2026-05-03T09:19:28.079Z</time></trkpt><trkpt lat="42.0168094" lon="13.2307907"><ele>1312.0</ele><time>2026-05-03T09:19:30.076Z</time></trkpt><trkpt lat="42.0169017" lon="13.2307892"><ele>1312.0</ele><time>2026-05-03T09:19:32.078Z</time></trkpt><trkpt lat="42.017011" lon="13.2307782"><ele>1312.0</ele><time>2026-05-03T09:19:34.077Z</time></trkpt><trkpt lat="42.017126" lon="13.2307508"><ele>1312.0</ele><time>2026-05-03T09:19:36.078Z</time></trkpt><trkpt lat="42.0172414" lon="13.2307411"><ele>1312.0</ele><time>2026-05-03T09:19:38.079Z</time></trkpt><trkpt lat="42.0173542" lon="13.2307395"><ele>1312.0</ele><time>2026-05-03T09:19:40.076Z</time></trkpt><trkpt lat="42.017451" lon="13.2307519"><ele>1312.0</ele><time>2026-05-03T09:19:42.079Z</time></trkpt><trkpt lat="42.0175308" lon="13.2307742"><ele>1309.3333333333333</ele><time>2026-05-03T09:19:44.078Z</time></trkpt><trkpt lat="42.0175899" lon="13.2308118"><ele>1306.6666666666665</ele><time>2026-05-03T09:19:46.078Z</time></trkpt><trkpt lat="42.0176608" lon="13.2308481"><ele>1304.0</ele><time>2026-05-03T09:20:03.084Z</time></trkpt><trkpt lat="42.0177627" lon="13.2308742"><ele>1301.3333333333333</ele><time>2026-05-03T09:20:05.09Z</time></trkpt><trkpt lat="42.0178508" lon="13.2308497"><ele>1298.6666666666667</ele><time>2026-05-03T09:20:07.083Z</time></trkpt><trkpt lat="42.017959" lon="13.2308311"><ele>1296.0</ele><time>2026-05-03T09:20:09.081Z</time></trkpt><trkpt lat="42.0180753" lon="13.2308013"><ele>1296.0</ele><time>2026-05-03T09:20:11.088Z</time></trkpt><trkpt lat="42.0181864" lon="13.2307662"><ele>1296.0</ele><time>2026-05-03T09:20:13.079Z</time></trkpt><trkpt lat="42.0183064" lon="13.2307293"><ele>1296.0</ele><time>2026-05-03T09:20:15.077Z</time></trkpt><trkpt lat="42.0184082" lon="13.2307037"><ele>1296.0</ele><time>2026-05-03T09:20:17.075Z</time></trkpt><trkpt lat="42.0185211" lon="13.2306636"><ele>1296.6</ele><time>2026-05-03T09:20:19.078Z</time></trkpt><trkpt lat="42.018635" lon="13.2306327"><ele>1297.1999999999998</ele><time>2026-05-03T09:20:21.085Z</time></trkpt><trkpt lat="42.0187365" lon="13.230597"><ele>1297.8000000000002</ele><time>2026-05-03T09:20:23.082Z</time></trkpt><trkpt lat="42.0188437" lon="13.2305557"><ele>1298.4</ele><time>2026-05-03T09:20:25.083Z</time></trkpt><trkpt lat="42.0189371" lon="13.2305156"><ele>1299.0</ele><time>2026-05-03T09:20:27.079Z</time></trkpt><trkpt lat="42.0190455" lon="13.2304815"><ele>1299.0</ele><time>2026-05-03T09:20:29.086Z</time></trkpt><trkpt lat="42.0191074" lon="13.2304602"><ele>1299.0</ele><time>2026-05-03T09:20:30.082Z</time></trkpt><trkpt lat="42.0192268" lon="13.23042"><ele>1299.0</ele><time>2026-05-03T09:20:32.08Z</time></trkpt><trkpt lat="42.0192874" lon="13.2303934"><ele>1299.0</ele><time>2026-05-03T09:20:33.081Z</time></trkpt><trkpt lat="42.019348" lon="13.2303637"><ele>1299.0</ele><time>2026-05-03T09:20:34.13Z</time></trkpt><trkpt lat="42.0194508" lon="13.2303166"><ele>1299.0</ele><time>2026-05-03T09:20:36.097Z</time></trkpt><trkpt lat="42.0195394" lon="13.23029"><ele>1296.2</ele><time>2026-05-03T09:20:38.085Z</time></trkpt><trkpt lat="42.0195915" lon="13.2303651"><ele>1293.4</ele><time>2026-05-03T09:20:40.082Z</time></trkpt><trkpt lat="42.0196006" lon="13.2305031"><ele>1290.6</ele><time>2026-05-03T09:20:42.091Z</time></trkpt><trkpt lat="42.0196081" lon="13.2306553"><ele>1287.8</ele><time>2026-05-03T09:20:44.078Z</time></trkpt><trkpt lat="42.0196473" lon="13.2308063"><ele>1285.0</ele><time>2026-05-03T09:20:46.083Z</time></trkpt><trkpt lat="42.0196567" lon="13.2308909"><ele>1284.8333333333333</ele><time>2026-05-03T09:20:47.086Z</time></trkpt><trkpt lat="42.019649" lon="13.2310624"><ele>1284.6666666666665</ele><time>2026-05-03T09:20:49.12Z</time></trkpt><trkpt lat="42.0196346" lon="13.2311499"><ele>1284.5</ele><time>2026-05-03T09:20:50.079Z</time></trkpt><trkpt lat="42.0196187" lon="13.2312445"><ele>1284.3333333333333</ele><time>2026-05-03T09:20:51.08Z</time></trkpt><trkpt lat="42.0196028" lon="13.2313439"><ele>1284.1666666666667</ele><time>2026-05-03T09:20:52.082Z</time></trkpt><trkpt lat="42.0195913" lon="13.231441"><ele>1284.0</ele><time>2026-05-03T09:20:53.094Z</time></trkpt><trkpt lat="42.0195922" lon="13.2315376"><ele>1283.6666666666667</ele><time>2026-05-03T09:20:54.079Z</time></trkpt><trkpt lat="42.0196047" lon="13.2316387"><ele>1283.3333333333333</ele><time>2026-05-03T09:20:55.085Z</time></trkpt><trkpt lat="42.019619" lon="13.2317335"><ele>1283.0</ele><time>2026-05-03T09:20:56.085Z</time></trkpt><trkpt lat="42.0196414" lon="13.231831"><ele>1282.6666666666665</ele><time>2026-05-03T09:20:57.075Z</time></trkpt><trkpt lat="42.019668" lon="13.2319268"><ele>1282.3333333333333</ele><time>2026-05-03T09:20:58.082Z</time></trkpt><trkpt lat="42.0196978" lon="13.2320196"><ele>1282.0</ele><time>2026-05-03T09:20:59.086Z</time></trkpt><trkpt lat="42.019736" lon="13.2321063"><ele>1282.0</ele><time>2026-05-03T09:21:00.082Z</time></trkpt><trkpt lat="42.0197754" lon="13.2321853"><ele>1282.0</ele><time>2026-05-03T09:21:01.096Z</time></trkpt><trkpt lat="42.0198147" lon="13.2322583"><ele>1282.0</ele><time>2026-05-03T09:21:02.087Z</time></trkpt><trkpt lat="42.0198675" lon="13.2323286"><ele>1282.0</ele><time>2026-05-03T09:21:03.087Z</time></trkpt><trkpt lat="42.0199215" lon="13.2323976"><ele>1282.0</ele><time>2026-05-03T09:21:04.075Z</time></trkpt><trkpt lat="42.0199732" lon="13.2324626"><ele>1282.0</ele><time>2026-05-03T09:21:05.082Z</time></trkpt><trkpt lat="42.0200209" lon="13.2325288"><ele>1282.0</ele><time>2026-05-03T09:21:06.075Z</time></trkpt><trkpt lat="42.0201128" lon="13.2326487"><ele>1281.1666666666665</ele><time>2026-05-03T09:21:08.078Z</time></trkpt><trkpt lat="42.0201536" lon="13.2327207"><ele>1280.3333333333333</ele><time>2026-05-03T09:21:09.079Z</time></trkpt><trkpt lat="42.0201968" lon="13.232798"><ele>1279.5</ele><time>2026-05-03T09:21:10.077Z</time></trkpt><trkpt lat="42.0202467" lon="13.2328784"><ele>1278.6666666666667</ele><time>2026-05-03T09:21:11.086Z</time></trkpt><trkpt lat="42.0203018" lon="13.2329575"><ele>1277.8333333333335</ele><time>2026-05-03T09:21:12.084Z</time></trkpt><trkpt lat="42.0203606" lon="13.2330353"><ele>1277.0</ele><time>2026-05-03T09:21:13.083Z</time></trkpt><trkpt lat="42.0204257" lon="13.233116"><ele>1276.2</ele><time>2026-05-03T09:21:14.078Z</time></trkpt><trkpt lat="42.0204929" lon="13.2332019"><ele>1275.4</ele><time>2026-05-03T09:21:15.115Z</time></trkpt><trkpt lat="42.0205626" lon="13.2332856"><ele>1274.6</ele><time>2026-05-03T09:21:16.084Z</time></trkpt><trkpt lat="42.0206303" lon="13.2333731"><ele>1273.8</ele><time>2026-05-03T09:21:17.077Z</time></trkpt><trkpt lat="42.0206824" lon="13.2334519"><ele>1273.0</ele><time>2026-05-03T09:21:18.08Z</time></trkpt><trkpt lat="42.0207215" lon="13.2335673"><ele>1273.0</ele><time>2026-05-03T09:21:20.077Z</time></trkpt><trkpt lat="42.020717" lon="13.2336896"><ele>1273.0</ele><time>2026-05-03T09:21:22.091Z</time></trkpt><trkpt lat="42.020677" lon="13.2337575"><ele>1273.0</ele><time>2026-05-03T09:21:23.08Z</time></trkpt><trkpt lat="42.0206144" lon="13.2338238"><ele>1273.0</ele><time>2026-05-03T09:21:24.08Z</time></trkpt><trkpt lat="42.0205418" lon="13.2338616"><ele>1273.0</ele><time>2026-05-03T09:21:25.083Z</time></trkpt><trkpt lat="42.0204813" lon="13.2339065"><ele>1273.0</ele><time>2026-05-03T09:21:26.074Z</time></trkpt><trkpt lat="42.0204156" lon="13.2339661"><ele>1273.2857142857142</ele><time>2026-05-03T09:21:27.085Z</time></trkpt><trkpt lat="42.0203706" lon="13.234036"><ele>1273.5714285714287</ele><time>2026-05-03T09:21:28.081Z</time></trkpt><trkpt lat="42.0203367" lon="13.2341168"><ele>1273.857142857143</ele><time>2026-05-03T09:21:29.077Z</time></trkpt><trkpt lat="42.0203081" lon="13.2342101"><ele>1274.142857142857</ele><time>2026-05-03T09:21:30.076Z</time></trkpt><trkpt lat="42.0202878" lon="13.2343076"><ele>1274.4285714285713</ele><time>2026-05-03T09:21:31.08Z</time></trkpt><trkpt lat="42.02027" lon="13.2344055"><ele>1274.7142857142858</ele><time>2026-05-03T09:21:32.079Z</time></trkpt><trkpt lat="42.0202498" lon="13.2345086"><ele>1275.0</ele><time>2026-05-03T09:21:33.083Z</time></trkpt><trkpt lat="42.0202375" lon="13.2346025"><ele>1275.0</ele><time>2026-05-03T09:21:34.081Z</time></trkpt><trkpt lat="42.0202245" lon="13.2346994"><ele>1275.0</ele><time>2026-05-03T09:21:35.125Z</time></trkpt><trkpt lat="42.0202063" lon="13.2348053"><ele>1275.0</ele><time>2026-05-03T09:21:36.078Z</time></trkpt><trkpt lat="42.0201867" lon="13.2349022"><ele>1275.0</ele><time>2026-05-03T09:21:37.084Z</time></trkpt><trkpt lat="42.0201654" lon="13.2349987"><ele>1275.0</ele><time>2026-05-03T09:21:38.08Z</time></trkpt><trkpt lat="42.0201427" lon="13.2350956"><ele>1275.0</ele><time>2026-05-03T09:21:39.075Z</time></trkpt><trkpt lat="42.0201149" lon="13.235183"><ele>1275.0</ele><time>2026-05-03T09:21:40.081Z</time></trkpt><trkpt lat="42.0200872" lon="13.2352729"><ele>1275.2857142857142</ele><time>2026-05-03T09:21:41.107Z</time></trkpt><trkpt lat="42.0200562" lon="13.2353657"><ele>1275.5714285714284</ele><time>2026-05-03T09:21:42.085Z</time></trkpt><trkpt lat="42.02003" lon="13.2354606"><ele>1275.8571428571427</ele><time>2026-05-03T09:21:43.077Z</time></trkpt><trkpt lat="42.0200053" lon="13.2355529"><ele>1276.142857142857</ele><time>2026-05-03T09:21:44.082Z</time></trkpt><trkpt lat="42.0199797" lon="13.2356415"><ele>1276.4285714285713</ele><time>2026-05-03T09:21:45.073Z</time></trkpt><trkpt lat="42.0199547" lon="13.2357332"><ele>1276.7142857142856</ele><time>2026-05-03T09:21:46.117Z</time></trkpt><trkpt lat="42.0199214" lon="13.2358216"><ele>1277.0</ele><time>2026-05-03T09:21:47.086Z</time></trkpt><trkpt lat="42.0198815" lon="13.2359007"><ele>1276.9999999999998</ele><time>2026-05-03T09:21:48.08Z</time></trkpt><trkpt lat="42.0198394" lon="13.2359781"><ele>1277.0</ele><time>2026-05-03T09:21:49.079Z</time></trkpt><trkpt lat="42.0197877" lon="13.2360557"><ele>1277.0</ele><time>2026-05-03T09:21:50.079Z</time></trkpt><trkpt lat="42.0197369" lon="13.2361267"><ele>1277.0</ele><time>2026-05-03T09:21:51.078Z</time></trkpt><trkpt lat="42.0196903" lon="13.2361997"><ele>1277.0</ele><time>2026-05-03T09:21:52.074Z</time></trkpt><trkpt lat="42.0196394" lon="13.2362743"><ele>1276.9999999999998</ele><time>2026-05-03T09:21:53.084Z</time></trkpt><trkpt lat="42.0195955" lon="13.2363375"><ele>1277.0</ele><time>2026-05-03T09:21:54.077Z</time></trkpt><trkpt lat="42.0194965" lon="13.236434"><ele>1277.0</ele><time>2026-05-03T09:21:56.076Z</time></trkpt><trkpt lat="42.0194342" lon="13.2364634"><ele>1277.0</ele><time>2026-05-03T09:21:57.077Z</time></trkpt><trkpt lat="42.0193686" lon="13.236479"><ele>1277.0</ele><time>2026-05-03T09:21:58.08Z</time></trkpt><trkpt lat="42.019299" lon="13.2364788"><ele>1277.0</ele><time>2026-05-03T09:21:59.082Z</time></trkpt><trkpt lat="42.0192191" lon="13.2364796"><ele>1277.0</ele><time>2026-05-03T09:22:00.074Z</time></trkpt><trkpt lat="42.0191333" lon="13.2364794"><ele>1277.0</ele><time>2026-05-03T09:22:01.074Z</time></trkpt><trkpt lat="42.0190478" lon="13.2364732"><ele>1277.5</ele><time>2026-05-03T09:22:02.076Z</time></trkpt><trkpt lat="42.0189671" lon="13.236467"><ele>1278.0</ele><time>2026-05-03T09:22:03.074Z</time></trkpt><trkpt lat="42.0188882" lon="13.2364572"><ele>1278.5</ele><time>2026-05-03T09:22:04.074Z</time></trkpt><trkpt lat="42.018807" lon="13.2364595"><ele>1279.0</ele><time>2026-05-03T09:22:05.079Z</time></trkpt><trkpt lat="42.0187281" lon="13.2364607"><ele>1279.5</ele><time>2026-05-03T09:22:06.107Z</time></trkpt><trkpt lat="42.0186507" lon="13.2364606"><ele>1280.0</ele><time>2026-05-03T09:22:07.082Z</time></trkpt><trkpt lat="42.0185745" lon="13.2364595"><ele>1280.0</ele><time>2026-05-03T09:22:08.072Z</time></trkpt><trkpt lat="42.0184978" lon="13.2364655"><ele>1280.0</ele><time>2026-05-03T09:22:09.077Z</time></trkpt><trkpt lat="42.0184182" lon="13.2364846"><ele>1280.0</ele><time>2026-05-03T09:22:10.079Z</time></trkpt><trkpt lat="42.018338" lon="13.2365024"><ele>1280.0</ele><time>2026-05-03T09:22:11.075Z</time></trkpt><trkpt lat="42.0182641" lon="13.2365209"><ele>1280.0</ele><time>2026-05-03T09:22:12.08Z</time></trkpt><trkpt lat="42.018203" lon="13.2365572"><ele>1280.0</ele><time>2026-05-03T09:22:13.078Z</time></trkpt><trkpt lat="42.0181005" lon="13.2366384"><ele>1279.6</ele><time>2026-05-03T09:22:15.074Z</time></trkpt><trkpt lat="42.018052" lon="13.2366944"><ele>1279.2</ele><time>2026-05-03T09:22:16.08Z</time></trkpt><trkpt lat="42.0179651" lon="13.2368099"><ele>1278.8</ele><time>2026-05-03T09:22:18.082Z</time></trkpt><trkpt lat="42.0179041" lon="13.2369472"><ele>1278.4</ele><time>2026-05-03T09:22:20.073Z</time></trkpt><trkpt lat="42.0178484" lon="13.237082"><ele>1278.0</ele><time>2026-05-03T09:22:22.073Z</time></trkpt><trkpt lat="42.017772" lon="13.2371921"><ele>1278.0</ele><time>2026-05-03T09:22:24.078Z</time></trkpt><trkpt lat="42.0177259" lon="13.2372534"><ele>1278.0</ele><time>2026-05-03T09:22:25.076Z</time></trkpt><trkpt lat="42.0176454" lon="13.2373684"><ele>1278.0</ele><time>2026-05-03T09:22:27.078Z</time></trkpt><trkpt lat="42.0175572" lon="13.237458"><ele>1278.0</ele><time>2026-05-03T09:22:29.076Z</time></trkpt><trkpt lat="42.0174643" lon="13.2375406"><ele>1278.0</ele><time>2026-05-03T09:22:31.073Z</time></trkpt><trkpt lat="42.0173705" lon="13.237622"><ele>1278.25</ele><time>2026-05-03T09:22:33.073Z</time></trkpt><trkpt lat="42.017268" lon="13.2377026"><ele>1278.5</ele><time>2026-05-03T09:22:35.079Z</time></trkpt><trkpt lat="42.0171673" lon="13.2377818"><ele>1278.75</ele><time>2026-05-03T09:22:37.08Z</time></trkpt><trkpt lat="42.0170649" lon="13.2378693"><ele>1279.0</ele><time>2026-05-03T09:22:39.111Z</time></trkpt><trkpt lat="42.0169683" lon="13.237953"><ele>1279.0</ele><time>2026-05-03T09:22:41.075Z</time></trkpt><trkpt lat="42.0168795" lon="13.2380256"><ele>1279.0</ele><time>2026-05-03T09:22:43.071Z</time></trkpt><trkpt lat="42.016789" lon="13.2381356"><ele>1279.0</ele><time>2026-05-03T09:22:45.076Z</time></trkpt><trkpt lat="42.0167357" lon="13.2382045"><ele>1279.0</ele><time>2026-05-03T09:22:46.072Z</time></trkpt><trkpt lat="42.0166764" lon="13.2382646"><ele>1279.0</ele><time>2026-05-03T09:22:47.069Z</time></trkpt><trkpt lat="42.0166198" lon="13.2383146"><ele>1279.0</ele><time>2026-05-03T09:22:48.07Z</time></trkpt><trkpt lat="42.016551" lon="13.2384168"><ele>1278.5</ele><time>2026-05-03T09:22:50.077Z</time></trkpt><trkpt lat="42.0165062" lon="13.2385111"><ele>1278.0</ele><time>2026-05-03T09:22:52.073Z</time></trkpt><trkpt lat="42.0164541" lon="13.2385878"><ele>1277.5</ele><time>2026-05-03T09:22:54.073Z</time></trkpt><trkpt lat="42.0163645" lon="13.2386764"><ele>1277.0</ele><time>2026-05-03T09:22:56.067Z</time></trkpt><trkpt lat="42.0163084" lon="13.2387199"><ele>1276.5</ele><time>2026-05-03T09:22:57.1Z</time></trkpt><trkpt lat="42.0162213" lon="13.2388043"><ele>1276.0</ele><time>2026-05-03T09:22:59.073Z</time></trkpt><trkpt lat="42.0161409" lon="13.238883"><ele>1277.0</ele><time>2026-05-03T09:23:01.078Z</time></trkpt><trkpt lat="42.0160624" lon="13.23897"><ele>1278.0</ele><time>2026-05-03T09:23:03.076Z</time></trkpt><trkpt lat="42.0160059" lon="13.2390677"><ele>1279.0</ele><time>2026-05-03T09:23:05.074Z</time></trkpt><trkpt lat="42.0159492" lon="13.2391891"><ele>1280.0</ele><time>2026-05-03T09:23:07.071Z</time></trkpt><trkpt lat="42.0158818" lon="13.2392896"><ele>1281.0</ele><time>2026-05-03T09:23:09.075Z</time></trkpt><trkpt lat="42.0158111" lon="13.2393974"><ele>1280.3999999999999</ele><time>2026-05-03T09:23:11.11Z</time></trkpt><trkpt lat="42.0157285" lon="13.2394997"><ele>1279.8</ele><time>2026-05-03T09:23:13.074Z</time></trkpt><trkpt lat="42.0156503" lon="13.2396054"><ele>1279.1999999999998</ele><time>2026-05-03T09:23:15.073Z</time></trkpt><trkpt lat="42.0155711" lon="13.2396842"><ele>1278.6</ele><time>2026-05-03T09:23:17.076Z</time></trkpt><trkpt lat="42.0154748" lon="13.2397625"><ele>1278.0</ele><time>2026-05-03T09:23:19.075Z</time></trkpt><trkpt lat="42.0153692" lon="13.2398303"><ele>1278.0</ele><time>2026-05-03T09:23:21.073Z</time></trkpt><trkpt lat="42.015281" lon="13.2398749"><ele>1278.0</ele><time>2026-05-03T09:23:23.072Z</time></trkpt><trkpt lat="42.0151916" lon="13.239943"><ele>1278.0</ele><time>2026-05-03T09:23:25.079Z</time></trkpt><trkpt lat="42.0151117" lon="13.2400237"><ele>1278.0</ele><time>2026-05-03T09:23:27.076Z</time></trkpt><trkpt lat="42.0150246" lon="13.2401049"><ele>1278.0</ele><time>2026-05-03T09:23:29.077Z</time></trkpt><trkpt lat="42.0149222" lon="13.2401924"><ele>1277.0</ele><time>2026-05-03T09:23:31.08Z</time></trkpt><trkpt lat="42.0148703" lon="13.2402432"><ele>1276.0</ele><time>2026-05-03T09:23:32.105Z</time></trkpt><trkpt lat="42.0147659" lon="13.2403257"><ele>1275.0</ele><time>2026-05-03T09:23:34.075Z</time></trkpt><trkpt lat="42.0146642" lon="13.2404016"><ele>1274.0</ele><time>2026-05-03T09:23:36.076Z</time></trkpt><trkpt lat="42.0145678" lon="13.240478"><ele>1273.0</ele><time>2026-05-03T09:23:38.078Z</time></trkpt><trkpt lat="42.0144765" lon="13.2405769"><ele>1275.6</ele><time>2026-05-03T09:23:40.068Z</time></trkpt><trkpt lat="42.0143848" lon="13.240659"><ele>1278.1999999999998</ele><time>2026-05-03T09:23:42.073Z</time></trkpt><trkpt lat="42.0142894" lon="13.2407128"><ele>1280.8</ele><time>2026-05-03T09:23:44.104Z</time></trkpt><trkpt lat="42.0142116" lon="13.2407603"><ele>1283.3999999999999</ele><time>2026-05-03T09:23:46.073Z</time></trkpt><trkpt lat="42.0141258" lon="13.2408111"><ele>1286.0</ele><time>2026-05-03T09:23:48.07Z</time></trkpt><trkpt lat="42.0140494" lon="13.2408758"><ele>1286.0</ele><time>2026-05-03T09:23:50.075Z</time></trkpt><trkpt lat="42.013982" lon="13.2409522"><ele>1286.0</ele><time>2026-05-03T09:23:52.076Z</time></trkpt><trkpt lat="42.0138992" lon="13.2410598"><ele>1286.0</ele><time>2026-05-03T09:23:54.094Z</time></trkpt><trkpt lat="42.0138163" lon="13.2411607"><ele>1286.0</ele><time>2026-05-03T09:23:56.076Z</time></trkpt><trkpt lat="42.0137344" lon="13.2412323"><ele>1286.0</ele><time>2026-05-03T09:23:58.072Z</time></trkpt><trkpt lat="42.0136414" lon="13.2412783"><ele>1286.0</ele><time>2026-05-03T09:24:00.068Z</time></trkpt><trkpt lat="42.0135257" lon="13.2413022"><ele>1286.0</ele><time>2026-05-03T09:24:02.115Z</time></trkpt><trkpt lat="42.0134233" lon="13.2413417"><ele>1286.0</ele><time>2026-05-03T09:24:04.075Z</time></trkpt><trkpt lat="42.0133193" lon="13.2413712"><ele>1286.0</ele><time>2026-05-03T09:24:06.081Z</time></trkpt><trkpt lat="42.0132187" lon="13.2413473"><ele>1286.0</ele><time>2026-05-03T09:24:08.102Z</time></trkpt><trkpt lat="42.0131247" lon="13.2412665"><ele>1286.8333333333335</ele><time>2026-05-03T09:24:10.075Z</time></trkpt><trkpt lat="42.0130517" lon="13.2412074"><ele>1287.6666666666667</ele><time>2026-05-03T09:24:12.071Z</time></trkpt><trkpt lat="42.0129753" lon="13.2411519"><ele>1288.5</ele><time>2026-05-03T09:24:14.075Z</time></trkpt><trkpt lat="42.0128897" lon="13.2411221"><ele>1289.3333333333333</ele><time>2026-05-03T09:24:16.081Z</time></trkpt><trkpt lat="42.0128014" lon="13.2411259"><ele>1290.1666666666665</ele><time>2026-05-03T09:24:18.073Z</time></trkpt><trkpt lat="42.0127219" lon="13.2411493"><ele>1291.0</ele><time>2026-05-03T09:24:20.08Z</time></trkpt><trkpt lat="42.0126346" lon="13.2411898"><ele>1291.0</ele><time>2026-05-03T09:24:22.078Z</time></trkpt><trkpt lat="42.0125468" lon="13.2412434"><ele>1291.0</ele><time>2026-05-03T09:24:24.08Z</time></trkpt><trkpt lat="42.0124562" lon="13.2413063"><ele>1291.0</ele><time>2026-05-03T09:24:26.079Z</time></trkpt><trkpt lat="42.0123657" lon="13.2413773"><ele>1291.0</ele><time>2026-05-03T09:24:28.082Z</time></trkpt><trkpt lat="42.0122736" lon="13.2414248"><ele>1291.0</ele><time>2026-05-03T09:24:30.106Z</time></trkpt><trkpt lat="42.0121871" lon="13.2415076"><ele>1290.4</ele><time>2026-05-03T09:24:32.075Z</time></trkpt><trkpt lat="42.0120922" lon="13.2415649"><ele>1289.8</ele><time>2026-05-03T09:24:34.074Z</time></trkpt><trkpt lat="42.0119936" lon="13.2416291"><ele>1289.2</ele><time>2026-05-03T09:24:36.074Z</time></trkpt><trkpt lat="42.011894" lon="13.2416981"><ele>1288.6000000000001</ele><time>2026-05-03T09:24:38.075Z</time></trkpt><trkpt lat="42.0118035" lon="13.241758"><ele>1288.0</ele><time>2026-05-03T09:24:40.076Z</time></trkpt><trkpt lat="42.0117047" lon="13.2418327"><ele>1289.1666666666665</ele><time>2026-05-03T09:24:42.082Z</time></trkpt><trkpt lat="42.0116107" lon="13.2419303"><ele>1290.3333333333333</ele><time>2026-05-03T09:24:44.079Z</time></trkpt><trkpt lat="42.0115556" lon="13.2419717"><ele>1291.5</ele><time>2026-05-03T09:24:45.082Z</time></trkpt><trkpt lat="42.0114989" lon="13.2420087"><ele>1292.6666666666667</ele><time>2026-05-03T09:24:46.103Z</time></trkpt><trkpt lat="42.0114039" lon="13.2420869"><ele>1293.8333333333335</ele><time>2026-05-03T09:24:48.074Z</time></trkpt><trkpt lat="42.0113307" lon="13.2421625"><ele>1295.0</ele><time>2026-05-03T09:24:50.08Z</time></trkpt><trkpt lat="42.0112484" lon="13.2422235"><ele>1295.0</ele><time>2026-05-03T09:24:52.078Z</time></trkpt><trkpt lat="42.0111394" lon="13.2422348"><ele>1295.0</ele><time>2026-05-03T09:24:54.079Z</time></trkpt><trkpt lat="42.0110378" lon="13.242245"><ele>1295.0</ele><time>2026-05-03T09:24:56.076Z</time></trkpt><trkpt lat="42.0109289" lon="13.242296"><ele>1295.0</ele><time>2026-05-03T09:24:58.075Z</time></trkpt><trkpt lat="42.0108342" lon="13.2423787"><ele>1295.0</ele><time>2026-05-03T09:25:00.078Z</time></trkpt><trkpt lat="42.0107501" lon="13.2424528"><ele>1294.8</ele><time>2026-05-03T09:25:02.079Z</time></trkpt><trkpt lat="42.0106549" lon="13.242525"><ele>1294.6</ele><time>2026-05-03T09:25:04.077Z</time></trkpt><trkpt lat="42.0105527" lon="13.2425736"><ele>1294.4</ele><time>2026-05-03T09:25:06.077Z</time></trkpt><trkpt lat="42.0104351" lon="13.2426311"><ele>1294.2</ele><time>2026-05-03T09:25:08.09Z</time></trkpt><trkpt lat="42.0103763" lon="13.2426749"><ele>1294.0</ele><time>2026-05-03T09:25:09.081Z</time></trkpt><trkpt lat="42.0103291" lon="13.242734"><ele>1294.0</ele><time>2026-05-03T09:25:10.08Z</time></trkpt><trkpt lat="42.0102335" lon="13.2428481"><ele>1294.0</ele><time>2026-05-03T09:25:12.074Z</time></trkpt><trkpt lat="42.0101892" lon="13.2429151"><ele>1294.0</ele><time>2026-05-03T09:25:13.082Z</time></trkpt><trkpt lat="42.0101506" lon="13.242985"><ele>1294.0</ele><time>2026-05-03T09:25:14.073Z</time></trkpt><trkpt lat="42.0101037" lon="13.2430743"><ele>1294.0</ele><time>2026-05-03T09:25:16.082Z</time></trkpt><trkpt lat="42.0100466" lon="13.2431672"><ele>1294.0</ele><time>2026-05-03T09:25:18.075Z</time></trkpt><trkpt lat="42.0099788" lon="13.2432435"><ele>1292.0</ele><time>2026-05-03T09:25:20.087Z</time></trkpt><trkpt lat="42.0099172" lon="13.2433491"><ele>1290.0</ele><time>2026-05-03T09:25:22.08Z</time></trkpt><trkpt lat="42.0098606" lon="13.2434363"><ele>1288.0</ele><time>2026-05-03T09:25:24.075Z</time></trkpt><trkpt lat="42.0097955" lon="13.2435079"><ele>1286.0</ele><time>2026-05-03T09:25:26.073Z</time></trkpt><trkpt lat="42.0097213" lon="13.2435618"><ele>1284.0</ele><time>2026-05-03T09:25:28.073Z</time></trkpt><trkpt lat="42.0096454" lon="13.2436051"><ele>1282.0</ele><time>2026-05-03T09:25:30.073Z</time></trkpt><trkpt lat="42.0095653" lon="13.2436449"><ele>1282.0</ele><time>2026-05-03T09:25:32.075Z</time></trkpt><trkpt lat="42.0094848" lon="13.2436865"><ele>1282.0</ele><time>2026-05-03T09:25:34.074Z</time></trkpt><trkpt lat="42.0094056" lon="13.2436962"><ele>1282.0</ele><time>2026-05-03T09:25:36.074Z</time></trkpt><trkpt lat="42.0093162" lon="13.2437005"><ele>1282.0</ele><time>2026-05-03T09:25:38.08Z</time></trkpt><trkpt lat="42.0092082" lon="13.2437273"><ele>1282.0</ele><time>2026-05-03T09:25:40.079Z</time></trkpt><trkpt lat="42.0091432" lon="13.2437456"><ele>1282.0</ele><time>2026-05-03T09:25:41.078Z</time></trkpt><trkpt lat="42.0090751" lon="13.2437576"><ele>1281.5</ele><time>2026-05-03T09:25:42.083Z</time></trkpt><trkpt lat="42.0089995" lon="13.2437705"><ele>1281.0</ele><time>2026-05-03T09:25:43.083Z</time></trkpt><trkpt lat="42.0089169" lon="13.2437911"><ele>1280.5</ele><time>2026-05-03T09:25:44.081Z</time></trkpt><trkpt lat="42.0088386" lon="13.2438135"><ele>1280.0</ele><time>2026-05-03T09:25:45.071Z</time></trkpt><trkpt lat="42.0087593" lon="13.2438467"><ele>1279.5</ele><time>2026-05-03T09:25:46.103Z</time></trkpt><trkpt lat="42.0086804" lon="13.2438833"><ele>1279.0</ele><time>2026-05-03T09:25:47.082Z</time></trkpt><trkpt lat="42.0086044" lon="13.2439209"><ele>1279.0</ele><time>2026-05-03T09:25:48.075Z</time></trkpt><trkpt lat="42.0085281" lon="13.2439542"><ele>1279.0</ele><time>2026-05-03T09:25:49.083Z</time></trkpt><trkpt lat="42.0084606" lon="13.2439938"><ele>1279.0</ele><time>2026-05-03T09:25:50.074Z</time></trkpt><trkpt lat="42.0083964" lon="13.2440273"><ele>1279.0</ele><time>2026-05-03T09:25:51.098Z</time></trkpt><trkpt lat="42.0083338" lon="13.2440699"><ele>1279.0</ele><time>2026-05-03T09:25:52.073Z</time></trkpt><trkpt lat="42.0082717" lon="13.2441202"><ele>1279.0</ele><time>2026-05-03T09:25:53.073Z</time></trkpt><trkpt lat="42.0082134" lon="13.24417"><ele>1279.0</ele><time>2026-05-03T09:25:54.072Z</time></trkpt><trkpt lat="42.0081565" lon="13.2442248"><ele>1278.7142857142856</ele><time>2026-05-03T09:25:55.074Z</time></trkpt><trkpt lat="42.0081032" lon="13.2442771"><ele>1278.4285714285716</ele><time>2026-05-03T09:25:56.071Z</time></trkpt><trkpt lat="42.0080521" lon="13.2443337"><ele>1278.142857142857</ele><time>2026-05-03T09:25:57.076Z</time></trkpt><trkpt lat="42.0080078" lon="13.244403"><ele>1277.8571428571427</ele><time>2026-05-03T09:25:58.091Z</time></trkpt><trkpt lat="42.0079726" lon="13.2444823"><ele>1277.5714285714284</ele><time>2026-05-03T09:25:59.078Z</time></trkpt><trkpt lat="42.0079443" lon="13.2445601"><ele>1277.2857142857142</ele><time>2026-05-03T09:26:00.087Z</time></trkpt><trkpt lat="42.00791" lon="13.2446347"><ele>1277.0</ele><time>2026-05-03T09:26:01.083Z</time></trkpt><trkpt lat="42.0078729" lon="13.2447194"><ele>1277.0</ele><time>2026-05-03T09:26:02.073Z</time></trkpt><trkpt lat="42.0078335" lon="13.244792"><ele>1277.0</ele><time>2026-05-03T09:26:03.08Z</time></trkpt><trkpt lat="42.0078067" lon="13.2448732"><ele>1277.0</ele><time>2026-05-03T09:26:04.077Z</time></trkpt><trkpt lat="42.0077399" lon="13.2450045"><ele>1277.0</ele><time>2026-05-03T09:26:06.077Z</time></trkpt><trkpt lat="42.0077034" lon="13.2450765"><ele>1277.0</ele><time>2026-05-03T09:26:07.077Z</time></trkpt><trkpt lat="42.007663" lon="13.2451432"><ele>1277.0</ele><time>2026-05-03T09:26:08.079Z</time></trkpt><trkpt lat="42.0075081" lon="13.2454554"><ele>1278.0</ele><time>2026-05-03T09:26:12.847Z</time></trkpt><trkpt lat="42.0074526" lon="13.245508"><ele>1279.0</ele><time>2026-05-03T09:26:14.069Z</time></trkpt><trkpt lat="42.0073877" lon="13.245623"><ele>1280.0</ele><time>2026-05-03T09:26:16.08Z</time></trkpt><trkpt lat="42.0073415" lon="13.2456849"><ele>1281.0</ele><time>2026-05-03T09:26:17.089Z</time></trkpt><trkpt lat="42.0072601" lon="13.2457921"><ele>1282.0</ele><time>2026-05-03T09:26:19.074Z</time></trkpt><trkpt lat="42.0072007" lon="13.2458886"><ele>1283.0</ele><time>2026-05-03T09:26:21.079Z</time></trkpt><trkpt lat="42.0071441" lon="13.2459948"><ele>1283.0</ele><time>2026-05-03T09:26:23.096Z</time></trkpt><trkpt lat="42.007097" lon="13.2460678"><ele>1283.0</ele><time>2026-05-03T09:26:25.075Z</time></trkpt><trkpt lat="42.0070545" lon="13.2461672"><ele>1283.0</ele><time>2026-05-03T09:26:27.076Z</time></trkpt><trkpt lat="42.0070215" lon="13.2462728"><ele>1283.0</ele><time>2026-05-03T09:26:29.071Z</time></trkpt><trkpt lat="42.0069828" lon="13.2463444"><ele>1283.0</ele><time>2026-05-03T09:26:31.08Z</time></trkpt><trkpt lat="42.0069093" lon="13.24642"><ele>1283.0</ele><time>2026-05-03T09:26:33.071Z</time></trkpt><trkpt lat="42.0068527" lon="13.2464997"><ele>1283.8333333333335</ele><time>2026-05-03T09:26:35.072Z</time></trkpt><trkpt lat="42.0068234" lon="13.2466008"><ele>1284.6666666666667</ele><time>2026-05-03T09:26:37.059Z</time></trkpt><trkpt lat="42.0067842" lon="13.2467027"><ele>1285.5</ele><time>2026-05-03T09:26:39.072Z</time></trkpt><trkpt lat="42.0067379" lon="13.2467934"><ele>1286.3333333333333</ele><time>2026-05-03T09:26:40.987Z</time></trkpt><trkpt lat="42.0066856" lon="13.2468791"><ele>1287.1666666666665</ele><time>2026-05-03T09:26:43.08Z</time></trkpt><trkpt lat="42.0066382" lon="13.246966"><ele>1288.0</ele><time>2026-05-03T09:26:45.078Z</time></trkpt><trkpt lat="42.0065827" lon="13.2470428"><ele>1288.0</ele><time>2026-05-03T09:26:47.022Z</time></trkpt><trkpt lat="42.0065214" lon="13.247127"><ele>1288.0</ele><time>2026-05-03T09:26:49.078Z</time></trkpt><trkpt lat="42.0064651" lon="13.2472124"><ele>1288.0</ele><time>2026-05-03T09:26:51.076Z</time></trkpt><trkpt lat="42.0064242" lon="13.2472897"><ele>1288.0</ele><time>2026-05-03T09:26:53.074Z</time></trkpt><trkpt lat="42.0063747" lon="13.2473613"><ele>1288.0</ele><time>2026-05-03T09:26:55.076Z</time></trkpt><trkpt lat="42.0063148" lon="13.2474319"><ele>1288.0</ele><time>2026-05-03T09:26:57.074Z</time></trkpt><trkpt lat="42.0062651" lon="13.2474996"><ele>1286.1666666666665</ele><time>2026-05-03T09:26:59.074Z</time></trkpt><trkpt lat="42.0062106" lon="13.247597"><ele>1284.3333333333333</ele><time>2026-05-03T09:27:01.075Z</time></trkpt><trkpt lat="42.0061785" lon="13.2476863"><ele>1282.5</ele><time>2026-05-03T09:27:03.074Z</time></trkpt><trkpt lat="42.0061472" lon="13.2477792"><ele>1280.6666666666667</ele><time>2026-05-03T09:27:05.075Z</time></trkpt><trkpt lat="42.0061055" lon="13.2478918"><ele>1278.8333333333335</ele><time>2026-05-03T09:27:07.077Z</time></trkpt><trkpt lat="42.0060772" lon="13.2480219"><ele>1277.0</ele><time>2026-05-03T09:27:09.071Z</time></trkpt><trkpt lat="42.0060481" lon="13.2481054"><ele>1275.9999999999998</ele><time>2026-05-03T09:27:11.085Z</time></trkpt><trkpt lat="42.0060147" lon="13.2481991"><ele>1275.0</ele><time>2026-05-03T09:27:13.082Z</time></trkpt><trkpt lat="42.0059974" lon="13.2482991"><ele>1274.0</ele><time>2026-05-03T09:27:16.103Z</time></trkpt><trkpt lat="42.0060001" lon="13.2483991"><ele>1273.0</ele><time>2026-05-03T09:27:18.073Z</time></trkpt><trkpt lat="42.0059963" lon="13.2484847"><ele>1272.0</ele><time>2026-05-03T09:27:20.072Z</time></trkpt><trkpt lat="42.0059974" lon="13.2485985"><ele>1270.9999999999998</ele><time>2026-05-03T09:27:23.076Z</time></trkpt><trkpt lat="42.0059355" lon="13.2486356"><ele>1270.0</ele><time>2026-05-03T09:29:51.079Z</time></trkpt><trkpt lat="42.0058917" lon="13.2487301"><ele>1270.0</ele><time>2026-05-03T09:30:05.073Z</time></trkpt><trkpt lat="42.0058567" lon="13.2488245"><ele>1270.0</ele><time>2026-05-03T09:30:10.069Z</time></trkpt><trkpt lat="42.0058124" lon="13.2489027"><ele>1270.0</ele><time>2026-05-03T09:30:13.082Z</time></trkpt><trkpt lat="42.0057537" lon="13.2489904"><ele>1270.0</ele><time>2026-05-03T09:30:16.068Z</time></trkpt><trkpt lat="42.0056914" lon="13.2490706"><ele>1270.0</ele><time>2026-05-03T09:30:19.09Z</time></trkpt><trkpt lat="42.005632" lon="13.2491456"><ele>1270.0</ele><time>2026-05-03T09:30:22.073Z</time></trkpt><trkpt lat="42.0055746" lon="13.249232"><ele>1270.5</ele><time>2026-05-03T09:30:25.074Z</time></trkpt><trkpt lat="42.0055205" lon="13.2493193"><ele>1271.0</ele><time>2026-05-03T09:30:28.072Z</time></trkpt><trkpt lat="42.005467" lon="13.249435"><ele>1271.5</ele><time>2026-05-03T09:30:31.07Z</time></trkpt><trkpt lat="42.0054185" lon="13.2495444"><ele>1272.0</ele><time>2026-05-03T09:30:34.068Z</time></trkpt><trkpt lat="42.0053841" lon="13.2496417"><ele>1272.5</ele><time>2026-05-03T09:30:36.079Z</time></trkpt><trkpt lat="42.0053359" lon="13.2497358"><ele>1273.0</ele><time>2026-05-03T09:30:38.078Z</time></trkpt><trkpt lat="42.0052662" lon="13.2497936"><ele>1271.6</ele><time>2026-05-03T09:30:40.071Z</time></trkpt><trkpt lat="42.0051833" lon="13.2498343"><ele>1270.1999999999998</ele><time>2026-05-03T09:30:42.071Z</time></trkpt><trkpt lat="42.0050978" lon="13.2498627"><ele>1268.8</ele><time>2026-05-03T09:30:44.073Z</time></trkpt><trkpt lat="42.0049871" lon="13.2498959"><ele>1267.3999999999999</ele><time>2026-05-03T09:30:46.076Z</time></trkpt><trkpt lat="42.0048895" lon="13.2499478"><ele>1266.0</ele><time>2026-05-03T09:30:48.078Z</time></trkpt><trkpt lat="42.0048003" lon="13.2499987"><ele>1266.0</ele><time>2026-05-03T09:30:50.092Z</time></trkpt><trkpt lat="42.0047033" lon="13.2500679"><ele>1266.0</ele><time>2026-05-03T09:30:52.093Z</time></trkpt><trkpt lat="42.0046205" lon="13.2501596"><ele>1266.0</ele><time>2026-05-03T09:30:54.087Z</time></trkpt><trkpt lat="42.0045536" lon="13.2502712"><ele>1266.0</ele><time>2026-05-03T09:30:56.078Z</time></trkpt><trkpt lat="42.0044594" lon="13.2503547"><ele>1266.0</ele><time>2026-05-03T09:30:58.078Z</time></trkpt><trkpt lat="42.0043657" lon="13.250444"><ele>1266.0</ele><time>2026-05-03T09:31:00.083Z</time></trkpt><trkpt lat="42.0042656" lon="13.250511"><ele>1266.0</ele><time>2026-05-03T09:31:02.084Z</time></trkpt><trkpt lat="42.004182" lon="13.2505951"><ele>1266.0</ele><time>2026-05-03T09:31:04.079Z</time></trkpt><trkpt lat="42.0040908" lon="13.250672"><ele>1266.0</ele><time>2026-05-03T09:31:06.071Z</time></trkpt><trkpt lat="42.0040364" lon="13.2507197"><ele>1266.0</ele><time>2026-05-03T09:31:07.087Z</time></trkpt><trkpt lat="42.0039778" lon="13.2507589"><ele>1265.5714285714284</ele><time>2026-05-03T09:31:08.088Z</time></trkpt><trkpt lat="42.0039162" lon="13.2507936"><ele>1265.142857142857</ele><time>2026-05-03T09:31:09.093Z</time></trkpt><trkpt lat="42.0038524" lon="13.2508268"><ele>1264.7142857142858</ele><time>2026-05-03T09:31:10.078Z</time></trkpt><trkpt lat="42.003792" lon="13.2508687"><ele>1264.2857142857142</ele><time>2026-05-03T09:31:11.079Z</time></trkpt><trkpt lat="42.0037346" lon="13.2509167"><ele>1263.857142857143</ele><time>2026-05-03T09:31:12.076Z</time></trkpt><trkpt lat="42.0036795" lon="13.2509781"><ele>1263.4285714285713</ele><time>2026-05-03T09:31:13.076Z</time></trkpt><trkpt lat="42.0036136" lon="13.2510496"><ele>1263.0</ele><time>2026-05-03T09:31:14.076Z</time></trkpt><trkpt lat="42.0035472" lon="13.2511126"><ele>1263.0</ele><time>2026-05-03T09:31:15.084Z</time></trkpt><trkpt lat="42.0034837" lon="13.251178"><ele>1263.0</ele><time>2026-05-03T09:31:16.07Z</time></trkpt><trkpt lat="42.0034236" lon="13.2512435"><ele>1263.0</ele><time>2026-05-03T09:31:17.084Z</time></trkpt><trkpt lat="42.003364" lon="13.2513112"><ele>1263.0</ele><time>2026-05-03T09:31:18.075Z</time></trkpt><trkpt lat="42.003302" lon="13.2513816"><ele>1263.0</ele><time>2026-05-03T09:31:19.083Z</time></trkpt><trkpt lat="42.0032409" lon="13.2514583"><ele>1263.0</ele><time>2026-05-03T09:31:20.084Z</time></trkpt><trkpt lat="42.0031764" lon="13.2515333"><ele>1263.1666666666667</ele><time>2026-05-03T09:31:21.079Z</time></trkpt><trkpt lat="42.0031149" lon="13.251611"><ele>1263.3333333333333</ele><time>2026-05-03T09:31:22.079Z</time></trkpt><trkpt lat="42.0030564" lon="13.2516911"><ele>1263.5</ele><time>2026-05-03T09:31:23.091Z</time></trkpt><trkpt lat="42.0029953" lon="13.2517763"><ele>1263.6666666666665</ele><time>2026-05-03T09:31:24.082Z</time></trkpt><trkpt lat="42.0029229" lon="13.2518525"><ele>1263.8333333333333</ele><time>2026-05-03T09:31:25.082Z</time></trkpt><trkpt lat="42.0028588" lon="13.2519312"><ele>1264.0</ele><time>2026-05-03T09:31:26.078Z</time></trkpt><trkpt lat="42.0027931" lon="13.252017"><ele>1264.0</ele><time>2026-05-03T09:31:27.085Z</time></trkpt><trkpt lat="42.0027165" lon="13.2521227"><ele>1264.0</ele><time>2026-05-03T09:31:28.085Z</time></trkpt><trkpt lat="42.0026361" lon="13.2522365"><ele>1264.0</ele><time>2026-05-03T09:31:29.078Z</time></trkpt><trkpt lat="42.0025626" lon="13.2523633"><ele>1264.0</ele><time>2026-05-03T09:31:30.116Z</time></trkpt><trkpt lat="42.0024926" lon="13.2524761"><ele>1265.2</ele><time>2026-05-03T09:31:31.086Z</time></trkpt><trkpt lat="42.0024242" lon="13.2525756"><ele>1266.4</ele><time>2026-05-03T09:31:32.082Z</time></trkpt><trkpt lat="42.0023516" lon="13.2526689"><ele>1267.6</ele><time>2026-05-03T09:31:33.083Z</time></trkpt><trkpt lat="42.0022838" lon="13.252757"><ele>1268.8</ele><time>2026-05-03T09:31:34.077Z</time></trkpt><trkpt lat="42.0022083" lon="13.2528383"><ele>1270.0</ele><time>2026-05-03T09:31:35.088Z</time></trkpt><trkpt lat="42.0021367" lon="13.2529019"><ele>1270.0</ele><time>2026-05-03T09:31:36.085Z</time></trkpt><trkpt lat="42.0020672" lon="13.2529721"><ele>1270.0</ele><time>2026-05-03T09:31:37.082Z</time></trkpt><trkpt lat="42.0020091" lon="13.2530501"><ele>1270.0</ele><time>2026-05-03T09:31:38.082Z</time></trkpt><trkpt lat="42.0019698" lon="13.2531377"><ele>1270.0</ele><time>2026-05-03T09:31:39.08Z</time></trkpt><trkpt lat="42.0019457" lon="13.2532351"><ele>1270.0</ele><time>2026-05-03T09:31:40.098Z</time></trkpt><trkpt lat="42.0019286" lon="13.2533508"><ele>1270.0</ele><time>2026-05-03T09:31:41.087Z</time></trkpt><trkpt lat="42.0019074" lon="13.2534563"><ele>1267.5</ele><time>2026-05-03T09:31:42.077Z</time></trkpt><trkpt lat="42.0018891" lon="13.2535641"><ele>1265.0</ele><time>2026-05-03T09:31:43.073Z</time></trkpt><trkpt lat="42.0018676" lon="13.2536702"><ele>1262.5</ele><time>2026-05-03T09:31:44.081Z</time></trkpt><trkpt lat="42.0018362" lon="13.2537788"><ele>1260.0</ele><time>2026-05-03T09:31:45.086Z</time></trkpt><trkpt lat="42.0018005" lon="13.2538805"><ele>1257.5</ele><time>2026-05-03T09:31:46.077Z</time></trkpt><trkpt lat="42.0017639" lon="13.2539949"><ele>1255.0</ele><time>2026-05-03T09:31:47.081Z</time></trkpt><trkpt lat="42.0017263" lon="13.2541009"><ele>1254.3333333333333</ele><time>2026-05-03T09:31:48.077Z</time></trkpt><trkpt lat="42.0016854" lon="13.2542163"><ele>1253.6666666666665</ele><time>2026-05-03T09:31:49.075Z</time></trkpt><trkpt lat="42.0016392" lon="13.2543083"><ele>1253.0</ele><time>2026-05-03T09:31:50.079Z</time></trkpt><trkpt lat="42.0015929" lon="13.2544094"><ele>1252.3333333333333</ele><time>2026-05-03T09:31:51.08Z</time></trkpt><trkpt lat="42.0015566" lon="13.2544893"><ele>1251.6666666666667</ele><time>2026-05-03T09:31:52.076Z</time></trkpt><trkpt lat="42.0014999" lon="13.2545972"><ele>1251.0</ele><time>2026-05-03T09:31:54.077Z</time></trkpt><trkpt lat="42.0014485" lon="13.2546757"><ele>1250.8333333333333</ele><time>2026-05-03T09:31:56.099Z</time></trkpt><trkpt lat="42.0013939" lon="13.2547912"><ele>1250.6666666666667</ele><time>2026-05-03T09:31:58.078Z</time></trkpt><trkpt lat="42.0013251" lon="13.2549098"><ele>1250.5</ele><time>2026-05-03T09:32:00.079Z</time></trkpt><trkpt lat="42.0012829" lon="13.2549781"><ele>1250.3333333333335</ele><time>2026-05-03T09:32:01.08Z</time></trkpt><trkpt lat="42.0012478" lon="13.2550512"><ele>1250.1666666666667</ele><time>2026-05-03T09:32:02.077Z</time></trkpt><trkpt lat="42.0012171" lon="13.2551711"><ele>1250.0</ele><time>2026-05-03T09:32:04.079Z</time></trkpt><trkpt lat="42.0012001" lon="13.2552851"><ele>1250.0</ele><time>2026-05-03T09:32:06.081Z</time></trkpt><trkpt lat="42.0011488" lon="13.2553965"><ele>1250.0</ele><time>2026-05-03T09:32:08.072Z</time></trkpt><trkpt lat="42.0010796" lon="13.2555094"><ele>1250.0</ele><time>2026-05-03T09:32:10.08Z</time></trkpt><trkpt lat="42.0010081" lon="13.2555985"><ele>1250.0</ele><time>2026-05-03T09:32:12.075Z</time></trkpt><trkpt lat="42.0009454" lon="13.2557022"><ele>1250.0</ele><time>2026-05-03T09:32:14.075Z</time></trkpt><trkpt lat="42.0008881" lon="13.2557992"><ele>1250.0</ele><time>2026-05-03T09:32:16.08Z</time></trkpt><trkpt lat="42.0008436" lon="13.2558763"><ele>1250.0</ele><time>2026-05-03T09:32:18.093Z</time></trkpt><trkpt lat="42.0008031" lon="13.2559773"><ele>1250.0</ele><time>2026-05-03T09:32:56.073Z</time></trkpt><trkpt lat="42.0007432" lon="13.2560907"><ele>1250.0</ele><time>2026-05-03T09:32:58.093Z</time></trkpt><trkpt lat="42.0006626" lon="13.2562151"><ele>1250.0</ele><time>2026-05-03T09:33:00.074Z</time></trkpt><trkpt lat="42.0005922" lon="13.2562989"><ele>1250.0</ele><time>2026-05-03T09:33:02.075Z</time></trkpt><trkpt lat="42.0005029" lon="13.2563754"><ele>1250.0</ele><time>2026-05-03T09:33:04.079Z</time></trkpt><trkpt lat="42.0004384" lon="13.2565001"><ele>1250.0</ele><time>2026-05-03T09:33:06.118Z</time></trkpt><trkpt lat="42.0004235" lon="13.2566444"><ele>1250.0</ele><time>2026-05-03T09:33:08.078Z</time></trkpt><trkpt lat="42.0004132" lon="13.2567669"><ele>1250.0</ele><time>2026-05-03T09:33:10.072Z</time></trkpt><trkpt lat="42.0004157" lon="13.2569061"><ele>1250.0</ele><time>2026-05-03T09:33:12.078Z</time></trkpt><trkpt lat="42.0004083" lon="13.2570328"><ele>1250.0</ele><time>2026-05-03T09:33:14.101Z</time></trkpt><trkpt lat="42.0003837" lon="13.2571491"><ele>1250.0</ele><time>2026-05-03T09:33:16.081Z</time></trkpt><trkpt lat="42.0003231" lon="13.2572532"><ele>1250.0</ele><time>2026-05-03T09:33:18.079Z</time></trkpt><trkpt lat="42.0002299" lon="13.2573076"><ele>1250.0</ele><time>2026-05-03T09:33:20.074Z</time></trkpt><trkpt lat="42.0001491" lon="13.2573703"><ele>1251.2</ele><time>2026-05-03T09:33:22.078Z</time></trkpt><trkpt lat="42.0000885" lon="13.2574528"><ele>1252.4</ele><time>2026-05-03T09:33:24.084Z</time></trkpt><trkpt lat="42.0000521" lon="13.2575654"><ele>1253.6</ele><time>2026-05-03T09:33:26.077Z</time></trkpt><trkpt lat="42.0000293" lon="13.2576999"><ele>1254.8</ele><time>2026-05-03T09:33:28.073Z</time></trkpt><trkpt lat="41.9999586" lon="13.257788"><ele>1256.0</ele><time>2026-05-03T09:33:30.068Z</time></trkpt><trkpt lat="41.9998738" lon="13.2578464"><ele>1256.0</ele><time>2026-05-03T09:33:32.075Z</time></trkpt><trkpt lat="41.9997835" lon="13.2579113"><ele>1256.0</ele><time>2026-05-03T09:33:34.078Z</time></trkpt><trkpt lat="41.999692" lon="13.2579722"><ele>1256.0</ele><time>2026-05-03T09:33:36.082Z</time></trkpt><trkpt lat="41.9995998" lon="13.2580528"><ele>1256.0</ele><time>2026-05-03T09:33:38.079Z</time></trkpt><trkpt lat="41.9995288" lon="13.2581548"><ele>1256.0</ele><time>2026-05-03T09:33:40.078Z</time></trkpt><trkpt lat="41.9994644" lon="13.2582815"><ele>1255.3999999999999</ele><time>2026-05-03T09:33:42.077Z</time></trkpt><trkpt lat="41.9993941" lon="13.2584106"><ele>1254.8</ele><time>2026-05-03T09:33:44.076Z</time></trkpt><trkpt lat="41.9993494" lon="13.2584782"><ele>1254.1999999999998</ele><time>2026-05-03T09:33:45.078Z</time></trkpt><trkpt lat="41.9993064" lon="13.2585414"><ele>1253.6</ele><time>2026-05-03T09:33:46.08Z</time></trkpt><trkpt lat="41.9992361" lon="13.2586567"><ele>1253.0</ele><time>2026-05-03T09:33:48.078Z</time></trkpt><trkpt lat="41.9991628" lon="13.2587665"><ele>1253.0</ele><time>2026-05-03T09:33:50.086Z</time></trkpt><trkpt lat="41.9991164" lon="13.2588301"><ele>1253.0</ele><time>2026-05-03T09:33:51.085Z</time></trkpt><trkpt lat="41.9990614" lon="13.2588816"><ele>1253.0</ele><time>2026-05-03T09:33:52.073Z</time></trkpt><trkpt lat="41.998994" lon="13.258929"><ele>1253.0</ele><time>2026-05-03T09:33:53.085Z</time></trkpt><trkpt lat="41.9989302" lon="13.2589835"><ele>1253.0</ele><time>2026-05-03T09:33:54.083Z</time></trkpt><trkpt lat="41.9988723" lon="13.2590317"><ele>1253.0</ele><time>2026-05-03T09:33:55.086Z</time></trkpt><trkpt lat="41.9988142" lon="13.2590703"><ele>1253.0</ele><time>2026-05-03T09:33:56.109Z</time></trkpt><trkpt lat="41.9987033" lon="13.2591403"><ele>1254.2</ele><time>2026-05-03T09:33:58.078Z</time></trkpt><trkpt lat="41.9986159" lon="13.2592056"><ele>1255.4</ele><time>2026-05-03T09:34:00.074Z</time></trkpt><trkpt lat="41.9985215" lon="13.259243"><ele>1256.6000000000001</ele><time>2026-05-03T09:34:02.08Z</time></trkpt><trkpt lat="41.9984365" lon="13.2592753"><ele>1257.8</ele><time>2026-05-03T09:34:04.109Z</time></trkpt><trkpt lat="41.9983622" lon="13.2593283"><ele>1259.0</ele><time>2026-05-03T09:34:06.08Z</time></trkpt><trkpt lat="41.9982672" lon="13.2593705"><ele>1259.0</ele><time>2026-05-03T09:34:08.074Z</time></trkpt><trkpt lat="41.9981734" lon="13.2593986"><ele>1259.0</ele><time>2026-05-03T09:34:10.076Z</time></trkpt><trkpt lat="41.9980913" lon="13.2594411"><ele>1259.0</ele><time>2026-05-03T09:34:12.075Z</time></trkpt><trkpt lat="41.9980101" lon="13.2594966"><ele>1259.0</ele><time>2026-05-03T09:34:14.08Z</time></trkpt><trkpt lat="41.9979256" lon="13.2595356"><ele>1259.0</ele><time>2026-05-03T09:34:16.109Z</time></trkpt><trkpt lat="41.9978606" lon="13.2595299"><ele>1259.0</ele><time>2026-05-03T09:34:18.071Z</time></trkpt><trkpt lat="41.9977664" lon="13.2594927"><ele>1259.0</ele><time>2026-05-03T09:34:20.072Z</time></trkpt><trkpt lat="41.9977006" lon="13.2594765"><ele>1259.0</ele><time>2026-05-03T09:34:21.078Z</time></trkpt><trkpt lat="41.9976276" lon="13.2594703"><ele>1259.0</ele><time>2026-05-03T09:34:22.081Z</time></trkpt><trkpt lat="41.9975611" lon="13.2594838"><ele>1259.0</ele><time>2026-05-03T09:34:23.078Z</time></trkpt><trkpt lat="41.9974639" lon="13.259574"><ele>1259.0</ele><time>2026-05-03T09:34:25.075Z</time></trkpt><trkpt lat="41.997392" lon="13.2596822"><ele>1259.0</ele><time>2026-05-03T09:34:27.076Z</time></trkpt><trkpt lat="41.9973447" lon="13.2597781"><ele>1261.1666666666667</ele><time>2026-05-03T09:34:29.075Z</time></trkpt><trkpt lat="41.997309" lon="13.2598742"><ele>1263.3333333333335</ele><time>2026-05-03T09:34:32.071Z</time></trkpt><trkpt lat="41.9972826" lon="13.2599743"><ele>1265.5</ele><time>2026-05-03T09:35:06.077Z</time></trkpt><trkpt lat="41.9972537" lon="13.2600508"><ele>1267.6666666666667</ele><time>2026-05-03T09:35:07.079Z</time></trkpt><trkpt lat="41.9972021" lon="13.2601891"><ele>1269.8333333333333</ele><time>2026-05-03T09:35:09.081Z</time></trkpt><trkpt lat="41.9971669" lon="13.2603254"><ele>1272.0</ele><time>2026-05-03T09:35:11.079Z</time></trkpt><trkpt lat="41.9971254" lon="13.2604642"><ele>1272.0</ele><time>2026-05-03T09:35:13.079Z</time></trkpt><trkpt lat="41.9970726" lon="13.2605965"><ele>1272.0</ele><time>2026-05-03T09:35:15.081Z</time></trkpt><trkpt lat="41.9970435" lon="13.2606725"><ele>1272.0</ele><time>2026-05-03T09:35:16.079Z</time></trkpt><trkpt lat="41.9969889" lon="13.260807"><ele>1272.0</ele><time>2026-05-03T09:35:18.078Z</time></trkpt><trkpt lat="41.9969319" lon="13.2609049"><ele>1272.0</ele><time>2026-05-03T09:35:20.083Z</time></trkpt><trkpt lat="41.9968528" lon="13.2609951"><ele>1273.6666666666667</ele><time>2026-05-03T09:35:22.078Z</time></trkpt><trkpt lat="41.9967916" lon="13.2610424"><ele>1275.3333333333333</ele><time>2026-05-03T09:35:24.072Z</time></trkpt><trkpt lat="41.9967322" lon="13.2610807"><ele>1277.0</ele><time>2026-05-03T09:35:26.079Z</time></trkpt><trkpt lat="41.9966523" lon="13.2611139"><ele>1278.6666666666665</ele><time>2026-05-03T09:35:28.077Z</time></trkpt><trkpt lat="41.9965715" lon="13.2611521"><ele>1280.3333333333333</ele><time>2026-05-03T09:35:30.082Z</time></trkpt><trkpt lat="41.9964928" lon="13.2611714"><ele>1282.0</ele><time>2026-05-03T09:35:32.088Z</time></trkpt><trkpt lat="41.9964092" lon="13.2612092"><ele>1282.0</ele><time>2026-05-03T09:35:35.075Z</time></trkpt><trkpt lat="41.9963418" lon="13.2612923"><ele>1282.0</ele><time>2026-05-03T09:35:37.077Z</time></trkpt><trkpt lat="41.9962529" lon="13.2613709"><ele>1282.0</ele><time>2026-05-03T09:35:39.099Z</time></trkpt><trkpt lat="41.9961858" lon="13.261462"><ele>1282.0</ele><time>2026-05-03T09:35:41.078Z</time></trkpt><trkpt lat="41.9961349" lon="13.2615498"><ele>1282.0</ele><time>2026-05-03T09:35:43.073Z</time></trkpt><trkpt lat="41.9960723" lon="13.2616454"><ele>1282.3999999999999</ele><time>2026-05-03T09:35:45.078Z</time></trkpt><trkpt lat="41.9960247" lon="13.2617605"><ele>1282.8</ele><time>2026-05-03T09:35:47.073Z</time></trkpt><trkpt lat="41.9959609" lon="13.2618896"><ele>1283.2</ele><time>2026-05-03T09:35:49.073Z</time></trkpt><trkpt lat="41.9958712" lon="13.2619939"><ele>1283.6</ele><time>2026-05-03T09:35:51.076Z</time></trkpt><trkpt lat="41.9958029" lon="13.2621209"><ele>1284.0</ele><time>2026-05-03T09:35:53.068Z</time></trkpt><trkpt lat="41.995768" lon="13.2622282"><ele>1284.1666666666667</ele><time>2026-05-03T09:35:55.081Z</time></trkpt><trkpt lat="41.9957426" lon="13.26234"><ele>1284.3333333333333</ele><time>2026-05-03T09:35:58.076Z</time></trkpt><trkpt lat="41.9957225" lon="13.2624359"><ele>1284.5</ele><time>2026-05-03T09:36:00.077Z</time></trkpt><trkpt lat="41.9956971" lon="13.2625321"><ele>1284.6666666666665</ele><time>2026-05-03T09:36:02.073Z</time></trkpt><trkpt lat="41.9956381" lon="13.2626274"><ele>1284.8333333333333</ele><time>2026-05-03T09:36:05.078Z</time></trkpt><trkpt lat="41.9955761" lon="13.2626759"><ele>1285.0</ele><time>2026-05-03T09:36:07.073Z</time></trkpt><trkpt lat="41.9955327" lon="13.2627584"><ele>1285.0</ele><time>2026-05-03T09:36:09.072Z</time></trkpt><trkpt lat="41.9954871" lon="13.262854"><ele>1285.0</ele><time>2026-05-03T09:36:11.071Z</time></trkpt><trkpt lat="41.9954312" lon="13.2629772"><ele>1285.0</ele><time>2026-05-03T09:36:13.072Z</time></trkpt><trkpt lat="41.9953678" lon="13.26308"><ele>1285.0</ele><time>2026-05-03T09:36:15.076Z</time></trkpt><trkpt lat="41.9953025" lon="13.2631697"><ele>1285.0</ele><time>2026-05-03T09:36:17.074Z</time></trkpt><trkpt lat="41.9952401" lon="13.2632724"><ele>1285.8</ele><time>2026-05-03T09:36:19.077Z</time></trkpt><trkpt lat="41.995161" lon="13.2633623"><ele>1286.6</ele><time>2026-05-03T09:36:21.082Z</time></trkpt><trkpt lat="41.9950844" lon="13.2634575"><ele>1287.4</ele><time>2026-05-03T09:36:23.079Z</time></trkpt><trkpt lat="41.9950111" lon="13.2635682"><ele>1288.2</ele><time>2026-05-03T09:36:25.074Z</time></trkpt><trkpt lat="41.9949203" lon="13.2636543"><ele>1289.0</ele><time>2026-05-03T09:36:27.072Z</time></trkpt><trkpt lat="41.9948283" lon="13.2637273"><ele>1287.4</ele><time>2026-05-03T09:36:29.077Z</time></trkpt><trkpt lat="41.9947283" lon="13.2638147"><ele>1285.8000000000002</ele><time>2026-05-03T09:36:31.073Z</time></trkpt><trkpt lat="41.9946382" lon="13.263877"><ele>1284.1999999999998</ele><time>2026-05-03T09:36:33.073Z</time></trkpt><trkpt lat="41.9945416" lon="13.2639402"><ele>1282.6</ele><time>2026-05-03T09:36:35.07Z</time></trkpt><trkpt lat="41.9944425" lon="13.2640072"><ele>1281.0</ele><time>2026-05-03T09:36:37.073Z</time></trkpt><trkpt lat="41.9943397" lon="13.2640752"><ele>1281.0</ele><time>2026-05-03T09:36:39.083Z</time></trkpt><trkpt lat="41.9942413" lon="13.2641359"><ele>1281.0</ele><time>2026-05-03T09:36:41.073Z</time></trkpt><trkpt lat="41.9941505" lon="13.2642006"><ele>1281.0</ele><time>2026-05-03T09:36:43.076Z</time></trkpt><trkpt lat="41.9940728" lon="13.2642619"><ele>1281.0</ele><time>2026-05-03T09:36:45.081Z</time></trkpt><trkpt lat="41.9940097" lon="13.2642919"><ele>1281.0</ele><time>2026-05-03T09:36:48.114Z</time></trkpt><trkpt lat="41.9939415" lon="13.2643035"><ele>1281.0</ele><time>2026-05-03T09:39:20.096Z</time></trkpt><trkpt lat="41.993853" lon="13.2643375"><ele>1280.857142857143</ele><time>2026-05-03T09:39:23.079Z</time></trkpt><trkpt lat="41.993779" lon="13.2643468"><ele>1280.7142857142858</ele><time>2026-05-03T09:39:25.074Z</time></trkpt><trkpt lat="41.9937001" lon="13.2643419"><ele>1280.5714285714284</ele><time>2026-05-03T09:39:27.081Z</time></trkpt><trkpt lat="41.9936353" lon="13.2643442"><ele>1280.4285714285716</ele><time>2026-05-03T09:39:29.081Z</time></trkpt><trkpt lat="41.9935687" lon="13.2643666"><ele>1280.2857142857142</ele><time>2026-05-03T09:39:31.086Z</time></trkpt><trkpt lat="41.9935085" lon="13.2644033"><ele>1280.142857142857</ele><time>2026-05-03T09:39:33.078Z</time></trkpt><trkpt lat="41.9934394" lon="13.2644471"><ele>1280.0</ele><time>2026-05-03T09:39:35.068Z</time></trkpt><trkpt lat="41.9933906" lon="13.2645092"><ele>1280.5</ele><time>2026-05-03T09:39:37.084Z</time></trkpt><trkpt lat="41.9933326" lon="13.26456"><ele>1281.0</ele><time>2026-05-03T09:39:39.076Z</time></trkpt><trkpt lat="41.9932667" lon="13.264594"><ele>1281.5</ele><time>2026-05-03T09:39:41.083Z</time></trkpt><trkpt lat="41.9931768" lon="13.2646428"><ele>1282.0</ele><time>2026-05-03T09:39:44.076Z</time></trkpt><trkpt lat="41.9931155" lon="13.2647145"><ele>1282.5</ele><time>2026-05-03T09:39:46.08Z</time></trkpt><trkpt lat="41.9930487" lon="13.2647711"><ele>1283.0</ele><time>2026-05-03T09:39:48.076Z</time></trkpt><trkpt lat="41.9929813" lon="13.2648315"><ele>1283.0</ele><time>2026-05-03T09:39:50.075Z</time></trkpt><trkpt lat="41.992908" lon="13.2649113"><ele>1283.0</ele><time>2026-05-03T09:39:52.078Z</time></trkpt><trkpt lat="41.992845" lon="13.2649938"><ele>1283.0</ele><time>2026-05-03T09:39:54.08Z</time></trkpt><trkpt lat="41.9927839" lon="13.2650829"><ele>1283.0</ele><time>2026-05-03T09:39:56.074Z</time></trkpt><trkpt lat="41.9927177" lon="13.2651728"><ele>1283.0</ele><time>2026-05-03T09:39:58.085Z</time></trkpt><trkpt lat="41.9926394" lon="13.2652287"><ele>1283.0</ele><time>2026-05-03T09:40:00.075Z</time></trkpt><trkpt lat="41.9925693" lon="13.2652786"><ele>1283.0</ele><time>2026-05-03T09:40:02.068Z</time></trkpt><trkpt lat="41.9925011" lon="13.2653501"><ele>1283.0</ele><time>2026-05-03T09:40:04.073Z</time></trkpt><trkpt lat="41.9924573" lon="13.2654184"><ele>1283.0</ele><time>2026-05-03T09:40:06.075Z</time></trkpt><trkpt lat="41.9924343" lon="13.2654986"><ele>1283.0</ele><time>2026-05-03T09:40:08.077Z</time></trkpt><trkpt lat="41.9923673" lon="13.2655792"><ele>1283.0</ele><time>2026-05-03T09:40:11.078Z</time></trkpt><trkpt lat="41.9922892" lon="13.2656324"><ele>1285.1666666666667</ele><time>2026-05-03T09:40:14.069Z</time></trkpt><trkpt lat="41.9922227" lon="13.265689"><ele>1287.3333333333335</ele><time>2026-05-03T09:40:16.069Z</time></trkpt><trkpt lat="41.9921606" lon="13.2657095"><ele>1289.5</ele><time>2026-05-03T09:40:18.068Z</time></trkpt><trkpt lat="41.992089" lon="13.265715"><ele>1291.6666666666667</ele><time>2026-05-03T09:40:20.071Z</time></trkpt><trkpt lat="41.9920016" lon="13.2657134"><ele>1293.8333333333333</ele><time>2026-05-03T09:40:22.077Z</time></trkpt><trkpt lat="41.9919126" lon="13.2657353"><ele>1296.0</ele><time>2026-05-03T09:40:24.075Z</time></trkpt><trkpt lat="41.9918326" lon="13.2657613"><ele>1296.0</ele><time>2026-05-03T09:40:26.072Z</time></trkpt><trkpt lat="41.9917651" lon="13.2657962"><ele>1296.0</ele><time>2026-05-03T09:40:28.071Z</time></trkpt><trkpt lat="41.9917069" lon="13.2658884"><ele>1296.0</ele><time>2026-05-03T09:40:30.067Z</time></trkpt><trkpt lat="41.9916501" lon="13.2659655"><ele>1296.0</ele><time>2026-05-03T09:40:32.075Z</time></trkpt><trkpt lat="41.9915768" lon="13.2660016"><ele>1296.0</ele><time>2026-05-03T09:40:34.075Z</time></trkpt><trkpt lat="41.9915117" lon="13.2659725"><ele>1296.0</ele><time>2026-05-03T09:40:36.07Z</time></trkpt><trkpt lat="41.9914565" lon="13.26591"><ele>1296.1999999999998</ele><time>2026-05-03T09:40:38.069Z</time></trkpt><trkpt lat="41.9914253" lon="13.2658042"><ele>1296.3999999999999</ele><time>2026-05-03T09:40:40.061Z</time></trkpt><trkpt lat="41.9913841" lon="13.2656787"><ele>1296.6</ele><time>2026-05-03T09:40:42.072Z</time></trkpt><trkpt lat="41.9913362" lon="13.265559"><ele>1296.8</ele><time>2026-05-03T09:40:44.067Z</time></trkpt><trkpt lat="41.9913104" lon="13.2654348"><ele>1297.0</ele><time>2026-05-03T09:40:46.077Z</time></trkpt><trkpt lat="41.9913047" lon="13.2653193"><ele>1297.1999999999998</ele><time>2026-05-03T09:40:48.087Z</time></trkpt><trkpt lat="41.9913071" lon="13.2651869"><ele>1297.4</ele><time>2026-05-03T09:40:50.074Z</time></trkpt><trkpt lat="41.9912848" lon="13.2650292"><ele>1297.6</ele><time>2026-05-03T09:40:52.084Z</time></trkpt><trkpt lat="41.9912538" lon="13.264884"><ele>1297.8000000000002</ele><time>2026-05-03T09:40:54.091Z</time></trkpt><trkpt lat="41.9912193" lon="13.2647571"><ele>1298.0</ele><time>2026-05-03T09:40:56.073Z</time></trkpt><trkpt lat="41.9911991" lon="13.2646144"><ele>1298.0</ele><time>2026-05-03T09:40:58.072Z</time></trkpt><trkpt lat="41.9912003" lon="13.2644727"><ele>1298.0</ele><time>2026-05-03T09:41:00.078Z</time></trkpt><trkpt lat="41.9911753" lon="13.2643391"><ele>1298.0</ele><time>2026-05-03T09:41:02.082Z</time></trkpt><trkpt lat="41.9911581" lon="13.2642099"><ele>1298.0</ele><time>2026-05-03T09:41:04.074Z</time></trkpt><trkpt lat="41.9912043" lon="13.2640794"><ele>1298.0</ele><time>2026-05-03T09:41:06.074Z</time></trkpt><trkpt lat="41.991279" lon="13.2639832"><ele>1300.6666666666667</ele><time>2026-05-03T09:41:08.071Z</time></trkpt><trkpt lat="41.991353" lon="13.2638728"><ele>1303.3333333333335</ele><time>2026-05-03T09:41:10.07Z</time></trkpt><trkpt lat="41.9913884" lon="13.2637913"><ele>1306.0</ele><time>2026-05-03T09:41:11.074Z</time></trkpt><trkpt lat="41.9914253" lon="13.263706"><ele>1308.6666666666667</ele><time>2026-05-03T09:41:12.07Z</time></trkpt><trkpt lat="41.9914727" lon="13.2636063"><ele>1311.3333333333333</ele><time>2026-05-03T09:41:13.073Z</time></trkpt><trkpt lat="41.9915353" lon="13.2634957"><ele>1314.0</ele><time>2026-05-03T09:41:14.074Z</time></trkpt><trkpt lat="41.991596" lon="13.2633989"><ele>1314.0</ele><time>2026-05-03T09:41:15.068Z</time></trkpt><trkpt lat="41.9916474" lon="13.2632811"><ele>1314.0</ele><time>2026-05-03T09:41:16.064Z</time></trkpt><trkpt lat="41.991695" lon="13.263159"><ele>1314.0</ele><time>2026-05-03T09:41:17.068Z</time></trkpt><trkpt lat="41.9917375" lon="13.2630503"><ele>1314.0</ele><time>2026-05-03T09:41:18.087Z</time></trkpt><trkpt lat="41.9917643" lon="13.2629529"><ele>1314.0</ele><time>2026-05-03T09:41:19.073Z</time></trkpt><trkpt lat="41.9917934" lon="13.2628627"><ele>1314.0</ele><time>2026-05-03T09:41:20.067Z</time></trkpt><trkpt lat="41.9918561" lon="13.262775"><ele>1314.0</ele><time>2026-05-03T09:41:21.079Z</time></trkpt><trkpt lat="41.9919378" lon="13.2627011"><ele>1314.0</ele><time>2026-05-03T09:41:22.07Z</time></trkpt><trkpt lat="41.9919941" lon="13.2626261"><ele>1314.0</ele><time>2026-05-03T09:41:23.073Z</time></trkpt><trkpt lat="41.9920502" lon="13.26255"><ele>1314.0</ele><time>2026-05-03T09:41:24.075Z</time></trkpt><trkpt lat="41.9921077" lon="13.2624669"><ele>1314.0</ele><time>2026-05-03T09:41:25.07Z</time></trkpt><trkpt lat="41.992177" lon="13.2623721"><ele>1314.0</ele><time>2026-05-03T09:41:26.072Z</time></trkpt><trkpt lat="41.9922541" lon="13.262296"><ele>1315.3333333333333</ele><time>2026-05-03T09:41:27.077Z</time></trkpt><trkpt lat="41.992326" lon="13.2622334"><ele>1316.6666666666667</ele><time>2026-05-03T09:41:28.072Z</time></trkpt><trkpt lat="41.9923979" lon="13.2621789"><ele>1318.0</ele><time>2026-05-03T09:41:29.074Z</time></trkpt><trkpt lat="41.9924849" lon="13.2621324"><ele>1319.3333333333335</ele><time>2026-05-03T09:41:30.072Z</time></trkpt><trkpt lat="41.9925756" lon="13.2621116"><ele>1320.6666666666667</ele><time>2026-05-03T09:41:31.096Z</time></trkpt><trkpt lat="41.9926581" lon="13.2621164"><ele>1322.0</ele><time>2026-05-03T09:41:32.069Z</time></trkpt><trkpt lat="41.9927359" lon="13.2621618"><ele>1322.0</ele><time>2026-05-03T09:41:33.076Z</time></trkpt><trkpt lat="41.9928173" lon="13.2621956"><ele>1322.0</ele><time>2026-05-03T09:41:34.075Z</time></trkpt><trkpt lat="41.9928889" lon="13.2622117"><ele>1322.0</ele><time>2026-05-03T09:41:35.07Z</time></trkpt><trkpt lat="41.9929683" lon="13.2621276"><ele>1322.0</ele><time>2026-05-03T09:41:37.073Z</time></trkpt><trkpt lat="41.9929791" lon="13.2620189"><ele>1322.0</ele><time>2026-05-03T09:41:39.078Z</time></trkpt><trkpt lat="41.9929225" lon="13.2618807"><ele>1322.0</ele><time>2026-05-03T09:41:41.078Z</time></trkpt><trkpt lat="41.9928846" lon="13.2617995"><ele>1322.0</ele><time>2026-05-03T09:41:42.073Z</time></trkpt><trkpt lat="41.9928588" lon="13.2617063"><ele>1322.0</ele><time>2026-05-03T09:41:43.079Z</time></trkpt><trkpt lat="41.9928823" lon="13.2615621"><ele>1322.0</ele><time>2026-05-03T09:41:45.075Z</time></trkpt><trkpt lat="41.992972" lon="13.2614762"><ele>1322.0</ele><time>2026-05-03T09:41:47.075Z</time></trkpt><trkpt lat="41.9930947" lon="13.2614607"><ele>1322.5</ele><time>2026-05-03T09:41:49.077Z</time></trkpt><trkpt lat="41.9931801" lon="13.2614481"><ele>1323.0</ele><time>2026-05-03T09:41:50.076Z</time></trkpt><trkpt lat="41.9932698" lon="13.2614377"><ele>1323.5</ele><time>2026-05-03T09:41:51.069Z</time></trkpt><trkpt lat="41.9933585" lon="13.2614315"><ele>1324.0</ele><time>2026-05-03T09:41:52.076Z</time></trkpt><trkpt lat="41.9934328" lon="13.2614227"><ele>1324.5</ele><time>2026-05-03T09:41:53.075Z</time></trkpt><trkpt lat="41.9934986" lon="13.2614278"><ele>1325.0</ele><time>2026-05-03T09:41:54.078Z</time></trkpt><trkpt lat="41.9935669" lon="13.2614367"><ele>1325.0</ele><time>2026-05-03T09:41:55.081Z</time></trkpt><trkpt lat="41.9936326" lon="13.2614398"><ele>1325.0</ele><time>2026-05-03T09:41:56.075Z</time></trkpt><trkpt lat="41.9936991" lon="13.2614467"><ele>1325.0</ele><time>2026-05-03T09:41:57.069Z</time></trkpt><trkpt lat="41.9937647" lon="13.2614336"><ele>1325.0</ele><time>2026-05-03T09:41:58.098Z</time></trkpt><trkpt lat="41.9938686" lon="13.2613831"><ele>1325.0</ele><time>2026-05-03T09:42:00.083Z</time></trkpt><trkpt lat="41.9939129" lon="13.2613051"><ele>1325.0</ele><time>2026-05-03T09:42:03.074Z</time></trkpt><trkpt lat="41.9938493" lon="13.2612734"><ele>1325.0</ele><time>2026-05-03T09:42:59.085Z</time></trkpt><trkpt lat="41.9937842" lon="13.2612669"><ele>1325.0</ele><time>2026-05-03T09:43:01.083Z</time></trkpt><trkpt lat="41.9936802" lon="13.2612178"><ele>1325.0</ele><time>2026-05-03T09:43:03.082Z</time></trkpt><trkpt lat="41.9935768" lon="13.2611359"><ele>1325.0</ele><time>2026-05-03T09:43:05.076Z</time></trkpt><trkpt lat="41.9935208" lon="13.2610877"><ele>1325.0</ele><time>2026-05-03T09:43:06.099Z</time></trkpt><trkpt lat="41.9934598" lon="13.2610426"><ele>1325.0</ele><time>2026-05-03T09:43:07.076Z</time></trkpt><trkpt lat="41.9933933" lon="13.2609966"><ele>1327.0</ele><time>2026-05-03T09:43:08.082Z</time></trkpt><trkpt lat="41.9933166" lon="13.26097"><ele>1329.0</ele><time>2026-05-03T09:43:09.076Z</time></trkpt><trkpt lat="41.9932132" lon="13.2609585"><ele>1331.0</ele><time>2026-05-03T09:43:10.086Z</time></trkpt><trkpt lat="41.9930897" lon="13.2609851"><ele>1333.0</ele><time>2026-05-03T09:43:11.078Z</time></trkpt><trkpt lat="41.992952" lon="13.2610133"><ele>1335.0</ele><time>2026-05-03T09:43:12.081Z</time></trkpt><trkpt lat="41.9928087" lon="13.2610461"><ele>1335.0</ele><time>2026-05-03T09:43:13.077Z</time></trkpt><trkpt lat="41.9926679" lon="13.2610927"><ele>1335.0</ele><time>2026-05-03T09:43:14.077Z</time></trkpt><trkpt lat="41.9925471" lon="13.2611347"><ele>1335.0</ele><time>2026-05-03T09:43:15.076Z</time></trkpt><trkpt lat="41.9924485" lon="13.2611803"><ele>1335.0</ele><time>2026-05-03T09:43:16.079Z</time></trkpt><trkpt lat="41.9923679" lon="13.2612386"><ele>1335.8333333333333</ele><time>2026-05-03T09:43:17.074Z</time></trkpt><trkpt lat="41.9923004" lon="13.2613016"><ele>1336.6666666666667</ele><time>2026-05-03T09:43:18.077Z</time></trkpt><trkpt lat="41.9922449" lon="13.2613893"><ele>1337.5</ele><time>2026-05-03T09:43:19.071Z</time></trkpt><trkpt lat="41.9921969" lon="13.2614768"><ele>1338.3333333333335</ele><time>2026-05-03T09:43:20.073Z</time></trkpt><trkpt lat="41.9921376" lon="13.2615272"><ele>1339.1666666666667</ele><time>2026-05-03T09:43:21.072Z</time></trkpt><trkpt lat="41.9920268" lon="13.2615926"><ele>1340.0</ele><time>2026-05-03T09:43:23.072Z</time></trkpt><trkpt lat="41.9919395" lon="13.2616477"><ele>1340.0</ele><time>2026-05-03T09:43:25.071Z</time></trkpt><trkpt lat="41.9918412" lon="13.2616993"><ele>1340.0</ele><time>2026-05-03T09:43:27.066Z</time></trkpt><trkpt lat="41.9917493" lon="13.2617595"><ele>1340.0</ele><time>2026-05-03T09:43:29.073Z</time></trkpt><trkpt lat="41.9916549" lon="13.2618345"><ele>1340.0</ele><time>2026-05-03T09:43:31.08Z</time></trkpt><trkpt lat="41.991557" lon="13.2618826"><ele>1340.0</ele><time>2026-05-03T09:43:33.071Z</time></trkpt><trkpt lat="41.9914404" lon="13.261936"><ele>1345.2</ele><time>2026-05-03T09:43:35.072Z</time></trkpt><trkpt lat="41.9913427" lon="13.2619853"><ele>1350.4</ele><time>2026-05-03T09:43:37.071Z</time></trkpt><trkpt lat="41.9912692" lon="13.2620641"><ele>1355.6</ele><time>2026-05-03T09:43:39.074Z</time></trkpt><trkpt lat="41.9912075" lon="13.2621324"><ele>1360.8</ele><time>2026-05-03T09:43:41.073Z</time></trkpt><trkpt lat="41.9910939" lon="13.2621911"><ele>1366.0</ele><time>2026-05-03T09:43:43.071Z</time></trkpt><trkpt lat="41.9909784" lon="13.2622322"><ele>1364.1999999999998</ele><time>2026-05-03T09:43:45.084Z</time></trkpt><trkpt lat="41.9908773" lon="13.2622901"><ele>1362.3999999999999</ele><time>2026-05-03T09:43:47.072Z</time></trkpt><trkpt lat="41.9908021" lon="13.2623945"><ele>1360.6</ele><time>2026-05-03T09:43:49.08Z</time></trkpt><trkpt lat="41.9906943" lon="13.2624546"><ele>1358.8</ele><time>2026-05-03T09:43:51.07Z</time></trkpt><trkpt lat="41.9906257" lon="13.2624714"><ele>1357.0</ele><time>2026-05-03T09:43:52.07Z</time></trkpt><trkpt lat="41.9905396" lon="13.2624758"><ele>1357.0</ele><time>2026-05-03T09:43:53.073Z</time></trkpt><trkpt lat="41.9904314" lon="13.2624886"><ele>1357.0</ele><time>2026-05-03T09:43:54.076Z</time></trkpt><trkpt lat="41.9903127" lon="13.2625254"><ele>1357.0</ele><time>2026-05-03T09:43:55.077Z</time></trkpt><trkpt lat="41.9901943" lon="13.2625581"><ele>1357.0</ele><time>2026-05-03T09:43:56.082Z</time></trkpt><trkpt lat="41.9900894" lon="13.2626062"><ele>1360.8</ele><time>2026-05-03T09:43:57.071Z</time></trkpt><trkpt lat="41.9899839" lon="13.2626453"><ele>1364.6</ele><time>2026-05-03T09:43:58.082Z</time></trkpt><trkpt lat="41.9898656" lon="13.2626727"><ele>1368.3999999999999</ele><time>2026-05-03T09:43:59.072Z</time></trkpt><trkpt lat="41.9897733" lon="13.2627243"><ele>1372.1999999999998</ele><time>2026-05-03T09:44:00.071Z</time></trkpt><trkpt lat="41.9897101" lon="13.2627853"><ele>1376.0</ele><time>2026-05-03T09:44:01.069Z</time></trkpt><trkpt lat="41.9896379" lon="13.2629049"><ele>1376.0</ele><time>2026-05-03T09:44:02.071Z</time></trkpt><trkpt lat="41.9895825" lon="13.2630539"><ele>1376.0</ele><time>2026-05-03T09:44:03.069Z</time></trkpt><trkpt lat="41.9895327" lon="13.2632034"><ele>1376.0</ele><time>2026-05-03T09:44:04.076Z</time></trkpt><trkpt lat="41.9894905" lon="13.2633243"><ele>1376.0</ele><time>2026-05-03T09:44:05.068Z</time></trkpt><trkpt lat="41.9894126" lon="13.2634367"><ele>1377.5</ele><time>2026-05-03T09:44:06.075Z</time></trkpt><trkpt lat="41.9893082" lon="13.2635355"><ele>1379.0</ele><time>2026-05-03T09:44:07.071Z</time></trkpt><trkpt lat="41.9892221" lon="13.2636548"><ele>1380.5</ele><time>2026-05-03T09:44:08.068Z</time></trkpt><trkpt lat="41.9891708" lon="13.2638088"><ele>1382.0</ele><time>2026-05-03T09:44:09.082Z</time></trkpt><trkpt lat="41.9891273" lon="13.263977"><ele>1379.8333333333335</ele><time>2026-05-03T09:44:10.068Z</time></trkpt><trkpt lat="41.9890896" lon="13.2641222"><ele>1377.6666666666667</ele><time>2026-05-03T09:44:11.076Z</time></trkpt><trkpt lat="41.9890509" lon="13.2642381"><ele>1375.5</ele><time>2026-05-03T09:44:12.07Z</time></trkpt><trkpt lat="41.9890052" lon="13.2643077"><ele>1373.3333333333333</ele><time>2026-05-03T09:44:13.075Z</time></trkpt><trkpt lat="41.9889468" lon="13.2643659"><ele>1371.1666666666665</ele><time>2026-05-03T09:44:14.065Z</time></trkpt><trkpt lat="41.9888621" lon="13.2644085"><ele>1369.0</ele><time>2026-05-03T09:44:15.068Z</time></trkpt><trkpt lat="41.9887854" lon="13.2644683"><ele>1369.0</ele><time>2026-05-03T09:44:16.065Z</time></trkpt><trkpt lat="41.9886847" lon="13.2645801"><ele>1369.0</ele><time>2026-05-03T09:44:17.072Z</time></trkpt><trkpt lat="41.9885717" lon="13.2647361"><ele>1369.0</ele><time>2026-05-03T09:44:18.07Z</time></trkpt><trkpt lat="41.9884557" lon="13.2648978"><ele>1372.6666666666665</ele><time>2026-05-03T09:44:19.071Z</time></trkpt><trkpt lat="41.9883401" lon="13.2650579"><ele>1376.3333333333333</ele><time>2026-05-03T09:44:20.072Z</time></trkpt><trkpt lat="41.9882319" lon="13.2652083"><ele>1380.0</ele><time>2026-05-03T09:44:21.068Z</time></trkpt><trkpt lat="41.9881362" lon="13.2653619"><ele>1380.0</ele><time>2026-05-03T09:44:22.08Z</time></trkpt><trkpt lat="41.9880478" lon="13.2654975"><ele>1380.0</ele><time>2026-05-03T09:44:23.07Z</time></trkpt><trkpt lat="41.9879657" lon="13.2656156"><ele>1380.0</ele><time>2026-05-03T09:44:24.073Z</time></trkpt><trkpt lat="41.9878983" lon="13.2657367"><ele>1380.0</ele><time>2026-05-03T09:44:25.076Z</time></trkpt><trkpt lat="41.9878527" lon="13.2658662"><ele>1378.25</ele><time>2026-05-03T09:44:26.072Z</time></trkpt><trkpt lat="41.987819" lon="13.2660297"><ele>1376.5</ele><time>2026-05-03T09:44:27.086Z</time></trkpt><trkpt lat="41.9877917" lon="13.2662061"><ele>1374.75</ele><time>2026-05-03T09:44:28.073Z</time></trkpt><trkpt lat="41.9877673" lon="13.2664075"><ele>1373.0</ele><time>2026-05-03T09:44:29.076Z</time></trkpt><trkpt lat="41.9877486" lon="13.2666459"><ele>1373.3333333333335</ele><time>2026-05-03T09:44:30.073Z</time></trkpt><trkpt lat="41.987732" lon="13.2668849"><ele>1373.6666666666667</ele><time>2026-05-03T09:44:31.075Z</time></trkpt><trkpt lat="41.987706" lon="13.2671145"><ele>1374.0</ele><time>2026-05-03T09:44:32.075Z</time></trkpt><trkpt lat="41.9876819" lon="13.2673266"><ele>1374.0</ele><time>2026-05-03T09:44:33.07Z</time></trkpt><trkpt lat="41.9876596" lon="13.2675481"><ele>1374.0</ele><time>2026-05-03T09:44:34.072Z</time></trkpt><trkpt lat="41.9876335" lon="13.2677707"><ele>1374.0</ele><time>2026-05-03T09:44:35.072Z</time></trkpt><trkpt lat="41.9876106" lon="13.2679761"><ele>1374.5</ele><time>2026-05-03T09:44:36.066Z</time></trkpt><trkpt lat="41.9875977" lon="13.2681534"><ele>1375.0</ele><time>2026-05-03T09:44:37.081Z</time></trkpt><trkpt lat="41.9876152" lon="13.2683096"><ele>1375.5</ele><time>2026-05-03T09:44:38.071Z</time></trkpt><trkpt lat="41.9876465" lon="13.2684577"><ele>1376.0</ele><time>2026-05-03T09:44:39.078Z</time></trkpt><trkpt lat="41.9876973" lon="13.2685855"><ele>1376.0</ele><time>2026-05-03T09:44:40.07Z</time></trkpt><trkpt lat="41.9877456" lon="13.2687214"><ele>1376.0</ele><time>2026-05-03T09:44:41.074Z</time></trkpt><trkpt lat="41.9877795" lon="13.2688529"><ele>1376.0</ele><time>2026-05-03T09:44:42.088Z</time></trkpt><trkpt lat="41.9877846" lon="13.2690254"><ele>1376.0</ele><time>2026-05-03T09:44:43.076Z</time></trkpt><trkpt lat="41.987777" lon="13.2692451"><ele>1376.75</ele><time>2026-05-03T09:44:44.074Z</time></trkpt><trkpt lat="41.9877794" lon="13.2694551"><ele>1377.5</ele><time>2026-05-03T09:44:45.072Z</time></trkpt><trkpt lat="41.9877839" lon="13.2696456"><ele>1378.25</ele><time>2026-05-03T09:44:46.076Z</time></trkpt><trkpt lat="41.9877907" lon="13.269778"><ele>1379.0</ele><time>2026-05-03T09:44:47.077Z</time></trkpt><trkpt lat="41.9877816" lon="13.269885"><ele>1380.4</ele><time>2026-05-03T09:44:48.073Z</time></trkpt><trkpt lat="41.9877349" lon="13.2700176"><ele>1381.8000000000002</ele><time>2026-05-03T09:44:50.08Z</time></trkpt><trkpt lat="41.9876432" lon="13.2701027"><ele>1383.1999999999998</ele><time>2026-05-03T09:44:52.071Z</time></trkpt><trkpt lat="41.9875717" lon="13.2701123"><ele>1384.6</ele><time>2026-05-03T09:44:53.068Z</time></trkpt><trkpt lat="41.9875094" lon="13.2700947"><ele>1386.0</ele><time>2026-05-03T09:44:54.069Z</time></trkpt><trkpt lat="41.987392" lon="13.2700938"><ele>1387.6</ele><time>2026-05-03T09:44:56.07Z</time></trkpt><trkpt lat="41.987303" lon="13.270187"><ele>1389.1999999999998</ele><time>2026-05-03T09:44:58.075Z</time></trkpt><trkpt lat="41.987268" lon="13.2703314"><ele>1390.8000000000002</ele><time>2026-05-03T09:45:00.072Z</time></trkpt><trkpt lat="41.9872559" lon="13.2704586"><ele>1392.4</ele><time>2026-05-03T09:45:01.067Z</time></trkpt><trkpt lat="41.9872507" lon="13.2705923"><ele>1394.0</ele><time>2026-05-03T09:45:02.068Z</time></trkpt><trkpt lat="41.9872449" lon="13.2707391"><ele>1395.3333333333335</ele><time>2026-05-03T09:45:03.076Z</time></trkpt><trkpt lat="41.9872316" lon="13.2708573"><ele>1396.6666666666667</ele><time>2026-05-03T09:45:04.07Z</time></trkpt><trkpt lat="41.9872101" lon="13.2709789"><ele>1398.0</ele><time>2026-05-03T09:45:05.077Z</time></trkpt><trkpt lat="41.9871816" lon="13.2710839"><ele>1399.3333333333333</ele><time>2026-05-03T09:45:06.073Z</time></trkpt><trkpt lat="41.9871495" lon="13.2711785"><ele>1400.6666666666665</ele><time>2026-05-03T09:45:07.097Z</time></trkpt><trkpt lat="41.9870868" lon="13.2712664"><ele>1402.0</ele><time>2026-05-03T09:45:08.069Z</time></trkpt><trkpt lat="41.9870158" lon="13.2713566"><ele>1404.0</ele><time>2026-05-03T09:45:09.071Z</time></trkpt><trkpt lat="41.9869399" lon="13.2714496"><ele>1406.0</ele><time>2026-05-03T09:45:10.074Z</time></trkpt><trkpt lat="41.9868525" lon="13.2715315"><ele>1408.0</ele><time>2026-05-03T09:45:11.074Z</time></trkpt><trkpt lat="41.9867581" lon="13.2716136"><ele>1410.0</ele><time>2026-05-03T09:45:12.069Z</time></trkpt><trkpt lat="41.9866841" lon="13.2716921"><ele>1412.0</ele><time>2026-05-03T09:45:13.075Z</time></trkpt><trkpt lat="41.9866237" lon="13.2717659"><ele>1412.1666666666667</ele><time>2026-05-03T09:45:14.075Z</time></trkpt><trkpt lat="41.9865678" lon="13.271839"><ele>1412.3333333333335</ele><time>2026-05-03T09:45:15.081Z</time></trkpt><trkpt lat="41.9865218" lon="13.2718986"><ele>1412.5</ele><time>2026-05-03T09:45:16.079Z</time></trkpt><trkpt lat="41.986436" lon="13.2720046"><ele>1412.6666666666667</ele><time>2026-05-03T09:45:18.074Z</time></trkpt><trkpt lat="41.9863659" lon="13.2720771"><ele>1412.8333333333333</ele><time>2026-05-03T09:45:20.07Z</time></trkpt><trkpt lat="41.9863118" lon="13.2721442"><ele>1413.0</ele><time>2026-05-03T09:45:22.077Z</time></trkpt><trkpt lat="41.9862607" lon="13.27222"><ele>1413.3333333333333</ele><time>2026-05-03T09:45:24.076Z</time></trkpt><trkpt lat="41.9861935" lon="13.2722845"><ele>1413.6666666666667</ele><time>2026-05-03T09:45:26.073Z</time></trkpt><trkpt lat="41.9861252" lon="13.2723285"><ele>1414.0</ele><time>2026-05-03T09:45:28.075Z</time></trkpt><trkpt lat="41.9860599" lon="13.2723887"><ele>1414.3333333333335</ele><time>2026-05-03T09:45:30.076Z</time></trkpt><trkpt lat="41.9859953" lon="13.2724397"><ele>1414.6666666666667</ele><time>2026-05-03T09:45:32.075Z</time></trkpt><trkpt lat="41.9859252" lon="13.2724989"><ele>1415.0</ele><time>2026-05-03T09:45:34.073Z</time></trkpt><trkpt lat="41.985843" lon="13.2725696"><ele>1413.5</ele><time>2026-05-03T09:45:36.076Z</time></trkpt><trkpt lat="41.9857477" lon="13.2726437"><ele>1412.0</ele><time>2026-05-03T09:45:38.073Z</time></trkpt><trkpt lat="41.9856494" lon="13.2727303"><ele>1410.5</ele><time>2026-05-03T09:45:40.075Z</time></trkpt><trkpt lat="41.9855454" lon="13.2728133"><ele>1409.0</ele><time>2026-05-03T09:45:42.076Z</time></trkpt><trkpt lat="41.9854473" lon="13.2729105"><ele>1409.0</ele><time>2026-05-03T09:45:44.074Z</time></trkpt><trkpt lat="41.9853615" lon="13.2730013"><ele>1409.0</ele><time>2026-05-03T09:45:46.085Z</time></trkpt><trkpt lat="41.9852852" lon="13.2730965"><ele>1409.0</ele><time>2026-05-03T09:45:48.078Z</time></trkpt><trkpt lat="41.9852094" lon="13.2732302"><ele>1409.0</ele><time>2026-05-03T09:45:50.072Z</time></trkpt><trkpt lat="41.9851758" lon="13.2733237"><ele>1409.0</ele><time>2026-05-03T09:45:51.074Z</time></trkpt><trkpt lat="41.985146" lon="13.2734109"><ele>1409.8000000000002</ele><time>2026-05-03T09:45:52.075Z</time></trkpt><trkpt lat="41.9851241" lon="13.273495"><ele>1410.6000000000001</ele><time>2026-05-03T09:45:53.074Z</time></trkpt><trkpt lat="41.9850866" lon="13.2736488"><ele>1411.4</ele><time>2026-05-03T09:45:55.074Z</time></trkpt><trkpt lat="41.985011" lon="13.2737761"><ele>1412.2</ele><time>2026-05-03T09:45:57.078Z</time></trkpt><trkpt lat="41.9849433" lon="13.2738298"><ele>1413.0</ele><time>2026-05-03T09:45:58.074Z</time></trkpt><trkpt lat="41.9848548" lon="13.2738652"><ele>1413.0</ele><time>2026-05-03T09:45:59.076Z</time></trkpt><trkpt lat="41.9847646" lon="13.2738767"><ele>1413.0</ele><time>2026-05-03T09:46:00.07Z</time></trkpt><trkpt lat="41.9846802" lon="13.273866"><ele>1413.0</ele><time>2026-05-03T09:46:01.075Z</time></trkpt><trkpt lat="41.9846055" lon="13.2738516"><ele>1413.0</ele><time>2026-05-03T09:46:02.073Z</time></trkpt><trkpt lat="41.9845346" lon="13.273818"><ele>1413.0</ele><time>2026-05-03T09:46:03.074Z</time></trkpt><trkpt lat="41.9844593" lon="13.2737859"><ele>1413.0</ele><time>2026-05-03T09:46:04.072Z</time></trkpt><trkpt lat="41.9843797" lon="13.2737546"><ele>1413.0</ele><time>2026-05-03T09:46:05.062Z</time></trkpt><trkpt lat="41.9842934" lon="13.2737213"><ele>1413.0</ele><time>2026-05-03T09:46:06.069Z</time></trkpt><trkpt lat="41.9842006" lon="13.2736874"><ele>1413.0</ele><time>2026-05-03T09:46:07.073Z</time></trkpt><trkpt lat="41.9841044" lon="13.2736547"><ele>1413.0</ele><time>2026-05-03T09:46:08.072Z</time></trkpt><trkpt lat="41.9840107" lon="13.273622"><ele>1413.0</ele><time>2026-05-03T09:46:09.071Z</time></trkpt><trkpt lat="41.9839064" lon="13.2735831"><ele>1412.2</ele><time>2026-05-03T09:46:10.069Z</time></trkpt><trkpt lat="41.9838014" lon="13.2735312"><ele>1411.4</ele><time>2026-05-03T09:46:11.07Z</time></trkpt><trkpt lat="41.9836944" lon="13.2734802"><ele>1410.6000000000001</ele><time>2026-05-03T09:46:12.074Z</time></trkpt><trkpt lat="41.9835918" lon="13.2734309"><ele>1409.8000000000002</ele><time>2026-05-03T09:46:13.071Z</time></trkpt><trkpt lat="41.9834857" lon="13.2733793"><ele>1409.0</ele><time>2026-05-03T09:46:14.068Z</time></trkpt><trkpt lat="41.983384" lon="13.2733334"><ele>1410.2</ele><time>2026-05-03T09:46:15.078Z</time></trkpt><trkpt lat="41.9832845" lon="13.273283"><ele>1411.4</ele><time>2026-05-03T09:46:16.07Z</time></trkpt><trkpt lat="41.9831844" lon="13.2732319"><ele>1412.6</ele><time>2026-05-03T09:46:17.078Z</time></trkpt><trkpt lat="41.983079" lon="13.2731793"><ele>1413.8</ele><time>2026-05-03T09:46:18.068Z</time></trkpt><trkpt lat="41.9829743" lon="13.2731223"><ele>1415.0</ele><time>2026-05-03T09:46:19.064Z</time></trkpt><trkpt lat="41.9828743" lon="13.2730711"><ele>1417.2</ele><time>2026-05-03T09:46:20.076Z</time></trkpt><trkpt lat="41.982786" lon="13.2730241"><ele>1419.4</ele><time>2026-05-03T09:46:21.069Z</time></trkpt><trkpt lat="41.9826967" lon="13.2729757"><ele>1421.6</ele><time>2026-05-03T09:46:22.065Z</time></trkpt><trkpt lat="41.9826037" lon="13.2729135"><ele>1423.8</ele><time>2026-05-03T09:46:23.077Z</time></trkpt><trkpt lat="41.9825193" lon="13.272862"><ele>1426.0</ele><time>2026-05-03T09:46:24.071Z</time></trkpt><trkpt lat="41.9824411" lon="13.272808"><ele>1426.1666666666665</ele><time>2026-05-03T09:46:25.074Z</time></trkpt><trkpt lat="41.9823684" lon="13.2727705"><ele>1426.3333333333333</ele><time>2026-05-03T09:46:26.069Z</time></trkpt><trkpt lat="41.982264" lon="13.2727418"><ele>1426.5</ele><time>2026-05-03T09:46:28.071Z</time></trkpt><trkpt lat="41.9822006" lon="13.2727742"><ele>1426.6666666666667</ele><time>2026-05-03T09:48:50.069Z</time></trkpt><trkpt lat="41.9822658" lon="13.2728017"><ele>1426.8333333333335</ele><time>2026-05-03T09:48:55.074Z</time></trkpt><trkpt lat="41.9822486" lon="13.2727174"><ele>1427.0</ele><time>2026-05-03T09:57:11.079Z</time></trkpt><trkpt lat="41.9821551" lon="13.2726392"><ele>1427.0</ele><time>2026-05-03T09:57:13.07Z</time></trkpt><trkpt lat="41.9820872" lon="13.2725846"><ele>1427.0</ele><time>2026-05-03T09:57:14.072Z</time></trkpt><trkpt lat="41.9820105" lon="13.2725088"><ele>1427.0</ele><time>2026-05-03T09:57:15.07Z</time></trkpt><trkpt lat="41.9819408" lon="13.2724447"><ele>1427.0</ele><time>2026-05-03T09:57:16.066Z</time></trkpt><trkpt lat="41.9818465" lon="13.2723871"><ele>1427.0</ele><time>2026-05-03T09:57:17.072Z</time></trkpt><trkpt lat="41.981746" lon="13.2723365"><ele>1426.8</ele><time>2026-05-03T09:57:18.075Z</time></trkpt><trkpt lat="41.9816392" lon="13.2722968"><ele>1426.6</ele><time>2026-05-03T09:57:19.074Z</time></trkpt><trkpt lat="41.9815243" lon="13.2722786"><ele>1426.3999999999999</ele><time>2026-05-03T09:57:20.065Z</time></trkpt><trkpt lat="41.9814067" lon="13.2722793"><ele>1426.1999999999998</ele><time>2026-05-03T09:57:21.069Z</time></trkpt><trkpt lat="41.9813067" lon="13.2722759"><ele>1426.0</ele><time>2026-05-03T09:57:22.073Z</time></trkpt><trkpt lat="41.9812284" lon="13.272263"><ele>1428.2857142857142</ele><time>2026-05-03T09:57:23.073Z</time></trkpt><trkpt lat="41.9811597" lon="13.2722205"><ele>1430.5714285714287</ele><time>2026-05-03T09:57:24.072Z</time></trkpt><trkpt lat="41.9811025" lon="13.2721569"><ele>1432.857142857143</ele><time>2026-05-03T09:57:25.067Z</time></trkpt><trkpt lat="41.9810702" lon="13.2720781"><ele>1435.142857142857</ele><time>2026-05-03T09:57:26.07Z</time></trkpt><trkpt lat="41.9810612" lon="13.2719928"><ele>1437.4285714285716</ele><time>2026-05-03T09:57:27.077Z</time></trkpt><trkpt lat="41.9810576" lon="13.271894"><ele>1439.7142857142858</ele><time>2026-05-03T09:57:28.073Z</time></trkpt><trkpt lat="41.9810544" lon="13.2717999"><ele>1442.0</ele><time>2026-05-03T09:57:29.069Z</time></trkpt><trkpt lat="41.9810439" lon="13.271705"><ele>1442.0</ele><time>2026-05-03T09:57:30.081Z</time></trkpt><trkpt lat="41.980971" lon="13.2715798"><ele>1442.0</ele><time>2026-05-03T09:57:32.075Z</time></trkpt><trkpt lat="41.9808473" lon="13.2715327"><ele>1442.0</ele><time>2026-05-03T09:57:34.071Z</time></trkpt><trkpt lat="41.9807549" lon="13.2715413"><ele>1442.0</ele><time>2026-05-03T09:57:35.07Z</time></trkpt><trkpt lat="41.9806524" lon="13.2715415"><ele>1442.0</ele><time>2026-05-03T09:57:36.076Z</time></trkpt><trkpt lat="41.9805413" lon="13.2715543"><ele>1441.0</ele><time>2026-05-03T09:57:37.074Z</time></trkpt><trkpt lat="41.9804241" lon="13.2715844"><ele>1440.0</ele><time>2026-05-03T09:57:38.081Z</time></trkpt><trkpt lat="41.9803106" lon="13.2716107"><ele>1439.0</ele><time>2026-05-03T09:57:39.084Z</time></trkpt><trkpt lat="41.9802039" lon="13.2716536"><ele>1438.0</ele><time>2026-05-03T09:57:40.071Z</time></trkpt><trkpt lat="41.9800922" lon="13.2717005"><ele>1440.4</ele><time>2026-05-03T09:57:41.073Z</time></trkpt><trkpt lat="41.9799782" lon="13.2717529"><ele>1442.8000000000002</ele><time>2026-05-03T09:57:42.074Z</time></trkpt><trkpt lat="41.9798699" lon="13.2718083"><ele>1445.2</ele><time>2026-05-03T09:57:43.075Z</time></trkpt><trkpt lat="41.9797733" lon="13.2718751"><ele>1447.6</ele><time>2026-05-03T09:57:44.076Z</time></trkpt><trkpt lat="41.979678" lon="13.27193"><ele>1450.0</ele><time>2026-05-03T09:57:45.069Z</time></trkpt><trkpt lat="41.979586" lon="13.2719952"><ele>1450.0</ele><time>2026-05-03T09:57:46.075Z</time></trkpt><trkpt lat="41.9794982" lon="13.272074"><ele>1450.0</ele><time>2026-05-03T09:57:47.071Z</time></trkpt><trkpt lat="41.979424" lon="13.2721727"><ele>1450.0</ele><time>2026-05-03T09:57:48.082Z</time></trkpt><trkpt lat="41.9793471" lon="13.2722681"><ele>1450.0</ele><time>2026-05-03T09:57:49.079Z</time></trkpt><trkpt lat="41.9792606" lon="13.2723535"><ele>1450.0</ele><time>2026-05-03T09:57:50.079Z</time></trkpt><trkpt lat="41.9791744" lon="13.2724356"><ele>1451.0</ele><time>2026-05-03T09:57:51.07Z</time></trkpt><trkpt lat="41.9790934" lon="13.2725193"><ele>1452.0</ele><time>2026-05-03T09:57:52.07Z</time></trkpt><trkpt lat="41.9790039" lon="13.2726004"><ele>1453.0</ele><time>2026-05-03T09:57:53.072Z</time></trkpt><trkpt lat="41.9789137" lon="13.2726842"><ele>1454.0</ele><time>2026-05-03T09:57:54.078Z</time></trkpt><trkpt lat="41.9788324" lon="13.2727684"><ele>1455.0</ele><time>2026-05-03T09:57:55.076Z</time></trkpt><trkpt lat="41.9787531" lon="13.2728588"><ele>1455.0</ele><time>2026-05-03T09:57:56.079Z</time></trkpt><trkpt lat="41.9786746" lon="13.2729384"><ele>1455.0</ele><time>2026-05-03T09:57:57.073Z</time></trkpt><trkpt lat="41.9785963" lon="13.2730214"><ele>1455.0</ele><time>2026-05-03T09:57:58.072Z</time></trkpt><trkpt lat="41.9785283" lon="13.2730986"><ele>1455.0</ele><time>2026-05-03T09:57:59.075Z</time></trkpt><trkpt lat="41.978472" lon="13.2731487"><ele>1455.0</ele><time>2026-05-03T09:58:00.081Z</time></trkpt><trkpt lat="41.978396" lon="13.2731788"><ele>1455.0</ele><time>2026-05-03T09:58:02.07Z</time></trkpt><trkpt lat="41.978347" lon="13.2731216"><ele>1457.0</ele><time>2026-05-03T09:58:14.077Z</time></trkpt><trkpt lat="41.9783034" lon="13.2730515"><ele>1459.0</ele><time>2026-05-03T09:58:15.078Z</time></trkpt><trkpt lat="41.9782671" lon="13.2729624"><ele>1461.0</ele><time>2026-05-03T09:58:16.079Z</time></trkpt><trkpt lat="41.9782465" lon="13.2728787"><ele>1463.0</ele><time>2026-05-03T09:58:17.076Z</time></trkpt><trkpt lat="41.9782135" lon="13.2727945"><ele>1465.0</ele><time>2026-05-03T09:58:18.079Z</time></trkpt><trkpt lat="41.9781696" lon="13.2727122"><ele>1467.0</ele><time>2026-05-03T09:58:19.073Z</time></trkpt><trkpt lat="41.9781183" lon="13.2726541"><ele>1469.0</ele><time>2026-05-03T09:58:20.082Z</time></trkpt><trkpt lat="41.9780599" lon="13.27262"><ele>1469.0</ele><time>2026-05-03T09:58:21.074Z</time></trkpt><trkpt lat="41.9779409" lon="13.2725909"><ele>1469.0</ele><time>2026-05-03T09:58:23.07Z</time></trkpt><trkpt lat="41.9778586" lon="13.2726042"><ele>1469.0</ele><time>2026-05-03T09:58:24.084Z</time></trkpt><trkpt lat="41.9777828" lon="13.2726241"><ele>1469.0</ele><time>2026-05-03T09:58:25.08Z</time></trkpt><trkpt lat="41.977698" lon="13.2726483"><ele>1469.0</ele><time>2026-05-03T09:58:26.075Z</time></trkpt><trkpt lat="41.9776253" lon="13.272679"><ele>1469.0</ele><time>2026-05-03T09:58:27.076Z</time></trkpt><trkpt lat="41.9775525" lon="13.2727065"><ele>1469.5</ele><time>2026-05-03T09:58:28.073Z</time></trkpt><trkpt lat="41.9774835" lon="13.2727376"><ele>1470.0</ele><time>2026-05-03T09:58:29.076Z</time></trkpt><trkpt lat="41.9774055" lon="13.2727659"><ele>1470.5</ele><time>2026-05-03T09:58:30.077Z</time></trkpt><trkpt lat="41.977321" lon="13.272788"><ele>1471.0</ele><time>2026-05-03T09:58:31.081Z</time></trkpt><trkpt lat="41.9772388" lon="13.272816"><ele>1471.5</ele><time>2026-05-03T09:58:32.074Z</time></trkpt><trkpt lat="41.9771585" lon="13.2728202"><ele>1472.0</ele><time>2026-05-03T09:58:33.074Z</time></trkpt><trkpt lat="41.9770799" lon="13.2728337"><ele>1472.0</ele><time>2026-05-03T09:58:34.081Z</time></trkpt><trkpt lat="41.9769966" lon="13.27285"><ele>1472.0</ele><time>2026-05-03T09:58:35.072Z</time></trkpt><trkpt lat="41.9769062" lon="13.2728699"><ele>1472.0</ele><time>2026-05-03T09:58:36.078Z</time></trkpt><trkpt lat="41.9768143" lon="13.2728892"><ele>1472.0</ele><time>2026-05-03T09:58:37.08Z</time></trkpt><trkpt lat="41.9767297" lon="13.2729052"><ele>1472.0</ele><time>2026-05-03T09:58:38.077Z</time></trkpt><trkpt lat="41.9766541" lon="13.2729025"><ele>1472.0</ele><time>2026-05-03T09:58:39.079Z</time></trkpt><trkpt lat="41.9765846" lon="13.2728916"><ele>1472.1666666666667</ele><time>2026-05-03T09:58:40.107Z</time></trkpt><trkpt lat="41.976514" lon="13.2728721"><ele>1472.3333333333335</ele><time>2026-05-03T09:58:41.076Z</time></trkpt><trkpt lat="41.9764408" lon="13.2728368"><ele>1472.5</ele><time>2026-05-03T09:58:42.076Z</time></trkpt><trkpt lat="41.9763568" lon="13.2728015"><ele>1472.6666666666667</ele><time>2026-05-03T09:58:43.084Z</time></trkpt><trkpt lat="41.9762813" lon="13.27276"><ele>1472.8333333333333</ele><time>2026-05-03T09:58:44.074Z</time></trkpt><trkpt lat="41.9762053" lon="13.2727297"><ele>1473.0</ele><time>2026-05-03T09:58:45.074Z</time></trkpt><trkpt lat="41.9761329" lon="13.272698"><ele>1473.0</ele><time>2026-05-03T09:58:46.076Z</time></trkpt><trkpt lat="41.9760598" lon="13.2726708"><ele>1473.0</ele><time>2026-05-03T09:58:47.078Z</time></trkpt><trkpt lat="41.9759924" lon="13.2726288"><ele>1473.0</ele><time>2026-05-03T09:58:48.07Z</time></trkpt><trkpt lat="41.9759199" lon="13.2725885"><ele>1473.0</ele><time>2026-05-03T09:58:49.081Z</time></trkpt><trkpt lat="41.9758518" lon="13.2725566"><ele>1473.0</ele><time>2026-05-03T09:58:50.074Z</time></trkpt><trkpt lat="41.9757633" lon="13.2725223"><ele>1473.0</ele><time>2026-05-03T09:58:51.079Z</time></trkpt><trkpt lat="41.975654" lon="13.2724669"><ele>1472.3333333333333</ele><time>2026-05-03T09:58:52.074Z</time></trkpt><trkpt lat="41.975544" lon="13.2724065"><ele>1471.6666666666667</ele><time>2026-05-03T09:58:53.065Z</time></trkpt><trkpt lat="41.9754518" lon="13.272348"><ele>1471.0</ele><time>2026-05-03T09:58:54.075Z</time></trkpt><trkpt lat="41.9753783" lon="13.2723136"><ele>1470.3333333333335</ele><time>2026-05-03T09:58:55.076Z</time></trkpt><trkpt lat="41.9753133" lon="13.2722804"><ele>1469.6666666666667</ele><time>2026-05-03T09:58:56.071Z</time></trkpt><trkpt lat="41.9752507" lon="13.272255"><ele>1469.0</ele><time>2026-05-03T09:58:57.075Z</time></trkpt><trkpt lat="41.9751438" lon="13.2722406"><ele>1469.0</ele><time>2026-05-03T09:58:59.073Z</time></trkpt><trkpt lat="41.9750621" lon="13.2722963"><ele>1469.0</ele><time>2026-05-03T09:59:01.073Z</time></trkpt><trkpt lat="41.9749664" lon="13.2723998"><ele>1469.0</ele><time>2026-05-03T09:59:03.074Z</time></trkpt><trkpt lat="41.9749057" lon="13.2724684"><ele>1469.0</ele><time>2026-05-03T09:59:04.074Z</time></trkpt><trkpt lat="41.9748333" lon="13.2725373"><ele>1469.0</ele><time>2026-05-03T09:59:05.076Z</time></trkpt><trkpt lat="41.9747595" lon="13.2725962"><ele>1470.4</ele><time>2026-05-03T09:59:06.069Z</time></trkpt><trkpt lat="41.9746768" lon="13.272646"><ele>1471.8000000000002</ele><time>2026-05-03T09:59:07.07Z</time></trkpt><trkpt lat="41.9745865" lon="13.2726666"><ele>1473.1999999999998</ele><time>2026-05-03T09:59:08.074Z</time></trkpt><trkpt lat="41.9744922" lon="13.2726813"><ele>1474.6</ele><time>2026-05-03T09:59:09.072Z</time></trkpt><trkpt lat="41.9743871" lon="13.2726822"><ele>1476.0</ele><time>2026-05-03T09:59:10.091Z</time></trkpt><trkpt lat="41.9742642" lon="13.2726859"><ele>1478.6</ele><time>2026-05-03T09:59:11.079Z</time></trkpt><trkpt lat="41.9741594" lon="13.2726739"><ele>1481.1999999999998</ele><time>2026-05-03T09:59:12.075Z</time></trkpt><trkpt lat="41.9740624" lon="13.2726718"><ele>1483.8000000000002</ele><time>2026-05-03T09:59:13.071Z</time></trkpt><trkpt lat="41.9739678" lon="13.2726786"><ele>1486.4</ele><time>2026-05-03T09:59:14.079Z</time></trkpt><trkpt lat="41.973881" lon="13.2726951"><ele>1489.0</ele><time>2026-05-03T09:59:15.075Z</time></trkpt><trkpt lat="41.9737949" lon="13.2727119"><ele>1489.0</ele><time>2026-05-03T09:59:16.075Z</time></trkpt><trkpt lat="41.9737073" lon="13.2727239"><ele>1489.0</ele><time>2026-05-03T09:59:17.077Z</time></trkpt><trkpt lat="41.9736115" lon="13.272725"><ele>1489.0</ele><time>2026-05-03T09:59:18.073Z</time></trkpt><trkpt lat="41.973516" lon="13.2727278"><ele>1489.0</ele><time>2026-05-03T09:59:19.072Z</time></trkpt><trkpt lat="41.9734195" lon="13.2727308"><ele>1489.0</ele><time>2026-05-03T09:59:20.075Z</time></trkpt><trkpt lat="41.9733233" lon="13.2727406"><ele>1489.3333333333333</ele><time>2026-05-03T09:59:21.078Z</time></trkpt><trkpt lat="41.9732315" lon="13.2727456"><ele>1489.6666666666665</ele><time>2026-05-03T09:59:22.069Z</time></trkpt><trkpt lat="41.9731434" lon="13.2727555"><ele>1490.0</ele><time>2026-05-03T09:59:23.08Z</time></trkpt><trkpt lat="41.9730635" lon="13.2727655"><ele>1490.3333333333333</ele><time>2026-05-03T09:59:24.077Z</time></trkpt><trkpt lat="41.9729832" lon="13.272766"><ele>1490.6666666666667</ele><time>2026-05-03T09:59:25.07Z</time></trkpt><trkpt lat="41.9729009" lon="13.2727534"><ele>1491.0</ele><time>2026-05-03T09:59:26.073Z</time></trkpt><trkpt lat="41.9728178" lon="13.2727573"><ele>1491.0</ele><time>2026-05-03T09:59:27.081Z</time></trkpt><trkpt lat="41.9727368" lon="13.2727629"><ele>1491.0</ele><time>2026-05-03T09:59:28.078Z</time></trkpt><trkpt lat="41.9726481" lon="13.2727754"><ele>1491.0</ele><time>2026-05-03T09:59:29.072Z</time></trkpt><trkpt lat="41.9725688" lon="13.2728048"><ele>1491.0</ele><time>2026-05-03T09:59:30.072Z</time></trkpt><trkpt lat="41.9724827" lon="13.2728614"><ele>1491.0</ele><time>2026-05-03T09:59:31.071Z</time></trkpt><trkpt lat="41.9723858" lon="13.272942"><ele>1488.8</ele><time>2026-05-03T09:59:32.068Z</time></trkpt><trkpt lat="41.9722905" lon="13.2730241"><ele>1486.6</ele><time>2026-05-03T09:59:33.07Z</time></trkpt><trkpt lat="41.9721865" lon="13.2731043"><ele>1484.4</ele><time>2026-05-03T09:59:34.076Z</time></trkpt><trkpt lat="41.9720923" lon="13.273166"><ele>1482.2</ele><time>2026-05-03T09:59:35.065Z</time></trkpt><trkpt lat="41.9720124" lon="13.27322"><ele>1480.0</ele><time>2026-05-03T09:59:36.069Z</time></trkpt><trkpt lat="41.971941" lon="13.2732918"><ele>1480.0</ele><time>2026-05-03T09:59:37.071Z</time></trkpt><trkpt lat="41.9718711" lon="13.2733675"><ele>1480.0</ele><time>2026-05-03T09:59:38.076Z</time></trkpt><trkpt lat="41.971811" lon="13.2734529"><ele>1480.0</ele><time>2026-05-03T09:59:39.063Z</time></trkpt><trkpt lat="41.9717544" lon="13.2735395"><ele>1480.0</ele><time>2026-05-03T09:59:40.073Z</time></trkpt><trkpt lat="41.9717052" lon="13.2736258"><ele>1480.0</ele><time>2026-05-03T09:59:41.068Z</time></trkpt><trkpt lat="41.9716665" lon="13.2736998"><ele>1480.0</ele><time>2026-05-03T09:59:42.076Z</time></trkpt><trkpt lat="41.9715931" lon="13.2738121"><ele>1475.4</ele><time>2026-05-03T09:59:44.08Z</time></trkpt><trkpt lat="41.9714941" lon="13.2738767"><ele>1470.8</ele><time>2026-05-03T09:59:46.075Z</time></trkpt><trkpt lat="41.9714285" lon="13.2738767"><ele>1466.1999999999998</ele><time>2026-05-03T09:59:47.067Z</time></trkpt><trkpt lat="41.9713299" lon="13.2738171"><ele>1461.6</ele><time>2026-05-03T09:59:49.07Z</time></trkpt><trkpt lat="41.9712638" lon="13.2737382"><ele>1457.0</ele><time>2026-05-03T09:59:50.067Z</time></trkpt><trkpt lat="41.9712199" lon="13.2736454"><ele>1457.0</ele><time>2026-05-03T09:59:51.074Z</time></trkpt><trkpt lat="41.9711736" lon="13.2735633"><ele>1457.0</ele><time>2026-05-03T09:59:52.068Z</time></trkpt><trkpt lat="41.9711231" lon="13.2734983"><ele>1457.0</ele><time>2026-05-03T09:59:53.07Z</time></trkpt><trkpt lat="41.9710586" lon="13.2734637"><ele>1457.0</ele><time>2026-05-03T09:59:54.072Z</time></trkpt><trkpt lat="41.9709361" lon="13.2734537"><ele>1457.0</ele><time>2026-05-03T09:59:56.066Z</time></trkpt><trkpt lat="41.9708459" lon="13.273481"><ele>1457.0</ele><time>2026-05-03T09:59:58.07Z</time></trkpt><trkpt lat="41.9708059" lon="13.273404"><ele>1457.0</ele><time>2026-05-03T10:00:00.068Z</time></trkpt><trkpt lat="41.9708473" lon="13.2733238"><ele>1457.0</ele><time>2026-05-03T10:00:02.071Z</time></trkpt><trkpt lat="41.9709638" lon="13.2732646"><ele>1457.0</ele><time>2026-05-03T10:00:04.066Z</time></trkpt><trkpt lat="41.9710913" lon="13.2732193"><ele>1457.0</ele><time>2026-05-03T10:00:06.077Z</time></trkpt><trkpt lat="41.9712053" lon="13.2732301"><ele>1457.0</ele><time>2026-05-03T10:00:08.07Z</time></trkpt><trkpt lat="41.971251" lon="13.2732923"><ele>1457.0</ele><time>2026-05-03T10:00:09.065Z</time></trkpt><trkpt lat="41.9713059" lon="13.2733343"><ele>1457.0</ele><time>2026-05-03T10:00:10.067Z</time></trkpt><trkpt lat="41.9713959" lon="13.273354"><ele>1457.0</ele><time>2026-05-03T10:00:12.067Z</time></trkpt><trkpt lat="41.9714669" lon="13.273307"><ele>1457.0</ele><time>2026-05-03T10:00:14.069Z</time></trkpt><trkpt lat="41.9715131" lon="13.2731654"><ele>1457.0</ele><time>2026-05-03T10:00:16.07Z</time></trkpt><trkpt lat="41.9715688" lon="13.2730134"><ele>1456.3333333333335</ele><time>2026-05-03T10:00:18.072Z</time></trkpt><trkpt lat="41.9715615" lon="13.2729287"><ele>1455.6666666666667</ele><time>2026-05-03T10:00:19.07Z</time></trkpt><trkpt lat="41.9715238" lon="13.2728467"><ele>1455.0</ele><time>2026-05-03T10:00:20.064Z</time></trkpt><trkpt lat="41.9714689" lon="13.2727694"><ele>1454.3333333333333</ele><time>2026-05-03T10:00:21.07Z</time></trkpt><trkpt lat="41.9714151" lon="13.2726889"><ele>1453.6666666666665</ele><time>2026-05-03T10:00:22.071Z</time></trkpt><trkpt lat="41.9713625" lon="13.2726094"><ele>1453.0</ele><time>2026-05-03T10:00:23.067Z</time></trkpt><trkpt lat="41.9713046" lon="13.2725153"><ele>1453.0</ele><time>2026-05-03T10:00:24.07Z</time></trkpt><trkpt lat="41.971248" lon="13.272427"><ele>1453.0</ele><time>2026-05-03T10:00:25.066Z</time></trkpt><trkpt lat="41.9712017" lon="13.2723382"><ele>1453.0</ele><time>2026-05-03T10:00:26.073Z</time></trkpt><trkpt lat="41.9711561" lon="13.2722463"><ele>1453.0</ele><time>2026-05-03T10:00:27.068Z</time></trkpt><trkpt lat="41.971111" lon="13.272156"><ele>1453.0</ele><time>2026-05-03T10:00:28.072Z</time></trkpt><trkpt lat="41.9710712" lon="13.2720496"><ele>1453.0</ele><time>2026-05-03T10:00:29.075Z</time></trkpt><trkpt lat="41.9710298" lon="13.2719394"><ele>1453.8333333333333</ele><time>2026-05-03T10:00:30.077Z</time></trkpt><trkpt lat="41.9709907" lon="13.2718287"><ele>1454.6666666666665</ele><time>2026-05-03T10:00:31.068Z</time></trkpt><trkpt lat="41.9709529" lon="13.2717119"><ele>1455.5</ele><time>2026-05-03T10:00:32.072Z</time></trkpt><trkpt lat="41.9709248" lon="13.2715968"><ele>1456.3333333333333</ele><time>2026-05-03T10:00:33.072Z</time></trkpt><trkpt lat="41.9708875" lon="13.2714906"><ele>1457.1666666666667</ele><time>2026-05-03T10:00:34.074Z</time></trkpt><trkpt lat="41.9708561" lon="13.2713844"><ele>1458.0</ele><time>2026-05-03T10:00:35.075Z</time></trkpt><trkpt lat="41.9708348" lon="13.27129"><ele>1456.1666666666667</ele><time>2026-05-03T10:00:36.074Z</time></trkpt><trkpt lat="41.9708167" lon="13.2711911"><ele>1454.3333333333333</ele><time>2026-05-03T10:00:37.077Z</time></trkpt><trkpt lat="41.9708186" lon="13.2710904"><ele>1452.5</ele><time>2026-05-03T10:00:38.069Z</time></trkpt><trkpt lat="41.9708273" lon="13.2710043"><ele>1450.6666666666665</ele><time>2026-05-03T10:00:39.071Z</time></trkpt><trkpt lat="41.9708851" lon="13.2708605"><ele>1448.8333333333333</ele><time>2026-05-03T10:00:41.075Z</time></trkpt><trkpt lat="41.9709244" lon="13.2707782"><ele>1447.0</ele><time>2026-05-03T10:00:42.081Z</time></trkpt><trkpt lat="41.9709793" lon="13.2707"><ele>1447.0</ele><time>2026-05-03T10:00:43.076Z</time></trkpt><trkpt lat="41.9710308" lon="13.2706381"><ele>1447.0</ele><time>2026-05-03T10:00:44.076Z</time></trkpt><trkpt lat="41.9710868" lon="13.2705765"><ele>1447.0</ele><time>2026-05-03T10:00:45.072Z</time></trkpt><trkpt lat="41.9711373" lon="13.2705032"><ele>1447.0</ele><time>2026-05-03T10:00:46.084Z</time></trkpt><trkpt lat="41.971185" lon="13.2704221"><ele>1447.0</ele><time>2026-05-03T10:00:47.08Z</time></trkpt><trkpt lat="41.9712378" lon="13.2703388"><ele>1447.0</ele><time>2026-05-03T10:00:48.077Z</time></trkpt><trkpt lat="41.9712825" lon="13.270257"><ele>1447.0</ele><time>2026-05-03T10:00:49.076Z</time></trkpt><trkpt lat="41.9713262" lon="13.270176"><ele>1444.4285714285713</ele><time>2026-05-03T10:00:50.077Z</time></trkpt><trkpt lat="41.971371" lon="13.2700931"><ele>1441.857142857143</ele><time>2026-05-03T10:00:51.077Z</time></trkpt><trkpt lat="41.9714088" lon="13.270015"><ele>1439.2857142857142</ele><time>2026-05-03T10:00:52.073Z</time></trkpt><trkpt lat="41.9714507" lon="13.2699398"><ele>1436.7142857142858</ele><time>2026-05-03T10:00:53.072Z</time></trkpt><trkpt lat="41.9714913" lon="13.2698627"><ele>1434.142857142857</ele><time>2026-05-03T10:00:54.077Z</time></trkpt><trkpt lat="41.9715402" lon="13.2697852"><ele>1431.5714285714287</ele><time>2026-05-03T10:00:55.069Z</time></trkpt><trkpt lat="41.9715828" lon="13.2697088"><ele>1429.0</ele><time>2026-05-03T10:00:56.065Z</time></trkpt><trkpt lat="41.9716239" lon="13.2696377"><ele>1431.0</ele><time>2026-05-03T10:00:57.098Z</time></trkpt><trkpt lat="41.9716729" lon="13.2695587"><ele>1433.0</ele><time>2026-05-03T10:00:58.067Z</time></trkpt><trkpt lat="41.9717156" lon="13.2694798"><ele>1435.0</ele><time>2026-05-03T10:00:59.076Z</time></trkpt><trkpt lat="41.9717626" lon="13.2693995"><ele>1437.0</ele><time>2026-05-03T10:01:00.076Z</time></trkpt><trkpt lat="41.971809" lon="13.2693156"><ele>1439.0</ele><time>2026-05-03T10:01:01.075Z</time></trkpt><trkpt lat="41.9718458" lon="13.2692325"><ele>1441.0</ele><time>2026-05-03T10:01:02.094Z</time></trkpt><trkpt lat="41.9718857" lon="13.2691638"><ele>1443.0</ele><time>2026-05-03T10:01:03.074Z</time></trkpt><trkpt lat="41.9719049" lon="13.2690809"><ele>1443.0</ele><time>2026-05-03T10:01:04.076Z</time></trkpt><trkpt lat="41.9719228" lon="13.2689924"><ele>1443.0</ele><time>2026-05-03T10:01:05.07Z</time></trkpt><trkpt lat="41.9719371" lon="13.2688963"><ele>1443.0</ele><time>2026-05-03T10:01:06.073Z</time></trkpt><trkpt lat="41.9719521" lon="13.2688065"><ele>1443.0</ele><time>2026-05-03T10:01:07.071Z</time></trkpt><trkpt lat="41.9719721" lon="13.2687009"><ele>1443.0</ele><time>2026-05-03T10:01:08.077Z</time></trkpt><trkpt lat="41.9719928" lon="13.268593"><ele>1443.0</ele><time>2026-05-03T10:01:09.076Z</time></trkpt><trkpt lat="41.9720177" lon="13.2684928"><ele>1440.4285714285716</ele><time>2026-05-03T10:01:10.072Z</time></trkpt><trkpt lat="41.9720441" lon="13.2683946"><ele>1437.857142857143</ele><time>2026-05-03T10:01:11.073Z</time></trkpt><trkpt lat="41.972074" lon="13.2683066"><ele>1435.2857142857142</ele><time>2026-05-03T10:01:12.075Z</time></trkpt><trkpt lat="41.9721059" lon="13.268223"><ele>1432.7142857142858</ele><time>2026-05-03T10:01:13.073Z</time></trkpt><trkpt lat="41.9721405" lon="13.2681419"><ele>1430.142857142857</ele><time>2026-05-03T10:01:14.074Z</time></trkpt><trkpt lat="41.9721853" lon="13.2680665"><ele>1427.5714285714287</ele><time>2026-05-03T10:01:15.072Z</time></trkpt><trkpt lat="41.972223" lon="13.2679888"><ele>1425.0</ele><time>2026-05-03T10:01:16.091Z</time></trkpt><trkpt lat="41.9722997" lon="13.2678859"><ele>1425.0</ele><time>2026-05-03T10:01:18.075Z</time></trkpt><trkpt lat="41.9723482" lon="13.2678265"><ele>1425.0</ele><time>2026-05-03T10:01:19.072Z</time></trkpt><trkpt lat="41.9724406" lon="13.2677206"><ele>1425.0</ele><time>2026-05-03T10:01:21.076Z</time></trkpt><trkpt lat="41.9725195" lon="13.267603"><ele>1425.0</ele><time>2026-05-03T10:01:23.074Z</time></trkpt><trkpt lat="41.9725589" lon="13.2675087"><ele>1425.0</ele><time>2026-05-03T10:01:25.066Z</time></trkpt><trkpt lat="41.972525" lon="13.2674347"><ele>1421.3333333333333</ele><time>2026-05-03T10:01:28.067Z</time></trkpt><trkpt lat="41.9724596" lon="13.2674678"><ele>1417.6666666666667</ele><time>2026-05-03T10:01:30.069Z</time></trkpt><trkpt lat="41.9723533" lon="13.2675489"><ele>1414.0</ele><time>2026-05-03T10:01:32.066Z</time></trkpt><trkpt lat="41.9723013" lon="13.2676076"><ele>1410.3333333333335</ele><time>2026-05-03T10:01:33.079Z</time></trkpt><trkpt lat="41.972236" lon="13.2676584"><ele>1406.6666666666667</ele><time>2026-05-03T10:01:34.073Z</time></trkpt><trkpt lat="41.9721603" lon="13.267701"><ele>1403.0</ele><time>2026-05-03T10:01:35.067Z</time></trkpt><trkpt lat="41.972081" lon="13.2677582"><ele>1403.0</ele><time>2026-05-03T10:01:36.066Z</time></trkpt><trkpt lat="41.9720047" lon="13.2678121"><ele>1403.0</ele><time>2026-05-03T10:01:37.073Z</time></trkpt><trkpt lat="41.9719405" lon="13.2678557"><ele>1403.0</ele><time>2026-05-03T10:01:38.068Z</time></trkpt><trkpt lat="41.9718789" lon="13.2678978"><ele>1403.0</ele><time>2026-05-03T10:01:39.074Z</time></trkpt><trkpt lat="41.9718048" lon="13.2679268"><ele>1403.0</ele><time>2026-05-03T10:01:40.077Z</time></trkpt><trkpt lat="41.9717316" lon="13.2679499"><ele>1403.0</ele><time>2026-05-03T10:01:41.082Z</time></trkpt><trkpt lat="41.9716612" lon="13.267964"><ele>1398.8000000000002</ele><time>2026-05-03T10:01:42.072Z</time></trkpt><trkpt lat="41.9715402" lon="13.2679639"><ele>1394.6</ele><time>2026-05-03T10:01:44.063Z</time></trkpt><trkpt lat="41.9714266" lon="13.2678839"><ele>1390.4</ele><time>2026-05-03T10:01:46.07Z</time></trkpt><trkpt lat="41.9713609" lon="13.2678051"><ele>1386.1999999999998</ele><time>2026-05-03T10:01:47.076Z</time></trkpt><trkpt lat="41.9712805" lon="13.2677046"><ele>1382.0</ele><time>2026-05-03T10:01:48.073Z</time></trkpt><trkpt lat="41.9712006" lon="13.2676072"><ele>1382.0</ele><time>2026-05-03T10:01:49.08Z</time></trkpt><trkpt lat="41.9711283" lon="13.2675191"><ele>1382.0</ele><time>2026-05-03T10:01:50.072Z</time></trkpt><trkpt lat="41.9710433" lon="13.2674283"><ele>1382.0</ele><time>2026-05-03T10:01:51.073Z</time></trkpt><trkpt lat="41.9709534" lon="13.2673313"><ele>1382.0</ele><time>2026-05-03T10:01:52.079Z</time></trkpt><trkpt lat="41.9708651" lon="13.2672396"><ele>1382.0</ele><time>2026-05-03T10:01:53.074Z</time></trkpt><trkpt lat="41.9707745" lon="13.2671537"><ele>1378.6</ele><time>2026-05-03T10:01:54.103Z</time></trkpt><trkpt lat="41.9706733" lon="13.2670783"><ele>1375.1999999999998</ele><time>2026-05-03T10:01:55.076Z</time></trkpt><trkpt lat="41.9705736" lon="13.2670243"><ele>1371.8</ele><time>2026-05-03T10:01:56.073Z</time></trkpt><trkpt lat="41.9704732" lon="13.2669898"><ele>1368.4</ele><time>2026-05-03T10:01:57.075Z</time></trkpt><trkpt lat="41.9703817" lon="13.2669641"><ele>1365.0</ele><time>2026-05-03T10:01:58.078Z</time></trkpt><trkpt lat="41.9703017" lon="13.2669538"><ele>1365.0</ele><time>2026-05-03T10:01:59.08Z</time></trkpt><trkpt lat="41.9702363" lon="13.2669748"><ele>1365.0</ele><time>2026-05-03T10:02:00.082Z</time></trkpt><trkpt lat="41.9701643" lon="13.2670218"><ele>1365.0</ele><time>2026-05-03T10:02:01.078Z</time></trkpt><trkpt lat="41.970093" lon="13.2670956"><ele>1365.0</ele><time>2026-05-03T10:02:02.081Z</time></trkpt><trkpt lat="41.970006" lon="13.2672063"><ele>1365.0</ele><time>2026-05-03T10:02:03.075Z</time></trkpt><trkpt lat="41.9698955" lon="13.2673374"><ele>1365.25</ele><time>2026-05-03T10:02:04.094Z</time></trkpt><trkpt lat="41.9697793" lon="13.2674685"><ele>1365.5</ele><time>2026-05-03T10:02:05.073Z</time></trkpt><trkpt lat="41.9696696" lon="13.267583"><ele>1365.75</ele><time>2026-05-03T10:02:06.073Z</time></trkpt><trkpt lat="41.9695686" lon="13.2676855"><ele>1366.0</ele><time>2026-05-03T10:02:07.066Z</time></trkpt><trkpt lat="41.9694737" lon="13.2677847"><ele>1366.0</ele><time>2026-05-03T10:02:08.071Z</time></trkpt><trkpt lat="41.9693761" lon="13.2678846"><ele>1366.0</ele><time>2026-05-03T10:02:09.067Z</time></trkpt><trkpt lat="41.9692809" lon="13.2679869"><ele>1366.0</ele><time>2026-05-03T10:02:10.065Z</time></trkpt><trkpt lat="41.9691905" lon="13.2680846"><ele>1366.0</ele><time>2026-05-03T10:02:11.081Z</time></trkpt><trkpt lat="41.9690995" lon="13.2681748"><ele>1367.6</ele><time>2026-05-03T10:02:12.067Z</time></trkpt><trkpt lat="41.9690189" lon="13.2682609"><ele>1369.1999999999998</ele><time>2026-05-03T10:02:13.072Z</time></trkpt><trkpt lat="41.9689406" lon="13.2683433"><ele>1370.8000000000002</ele><time>2026-05-03T10:02:14.071Z</time></trkpt><trkpt lat="41.9688606" lon="13.2684194"><ele>1372.4</ele><time>2026-05-03T10:02:15.074Z</time></trkpt><trkpt lat="41.968786" lon="13.2684999"><ele>1374.0</ele><time>2026-05-03T10:02:16.094Z</time></trkpt><trkpt lat="41.9687185" lon="13.2685808"><ele>1374.0</ele><time>2026-05-03T10:02:17.073Z</time></trkpt><trkpt lat="41.9686574" lon="13.2686604"><ele>1374.0</ele><time>2026-05-03T10:02:18.07Z</time></trkpt><trkpt lat="41.9685977" lon="13.2687506"><ele>1374.0</ele><time>2026-05-03T10:02:19.074Z</time></trkpt><trkpt lat="41.9685467" lon="13.2688271"><ele>1374.0</ele><time>2026-05-03T10:02:20.075Z</time></trkpt><trkpt lat="41.968496" lon="13.2689084"><ele>1374.0</ele><time>2026-05-03T10:02:21.076Z</time></trkpt><trkpt lat="41.9684489" lon="13.2689813"><ele>1374.0</ele><time>2026-05-03T10:02:22.072Z</time></trkpt><trkpt lat="41.9683964" lon="13.2690524"><ele>1372.8000000000002</ele><time>2026-05-03T10:02:23.072Z</time></trkpt><trkpt lat="41.9683217" lon="13.2691539"><ele>1371.6000000000001</ele><time>2026-05-03T10:02:25.071Z</time></trkpt><trkpt lat="41.96823" lon="13.2691946"><ele>1370.4</ele><time>2026-05-03T10:02:27.07Z</time></trkpt><trkpt lat="41.9681365" lon="13.2691274"><ele>1369.2</ele><time>2026-05-03T10:02:29.071Z</time></trkpt><trkpt lat="41.9680855" lon="13.269054"><ele>1368.0</ele><time>2026-05-03T10:02:30.069Z</time></trkpt><trkpt lat="41.9680206" lon="13.2689433"><ele>1366.4</ele><time>2026-05-03T10:02:31.072Z</time></trkpt><trkpt lat="41.9679506" lon="13.2688256"><ele>1364.8000000000002</ele><time>2026-05-03T10:02:32.072Z</time></trkpt><trkpt lat="41.9678857" lon="13.268699"><ele>1363.2</ele><time>2026-05-03T10:02:33.071Z</time></trkpt><trkpt lat="41.9678359" lon="13.2685845"><ele>1361.6</ele><time>2026-05-03T10:02:34.075Z</time></trkpt><trkpt lat="41.9677938" lon="13.2684743"><ele>1360.0</ele><time>2026-05-03T10:02:35.086Z</time></trkpt><trkpt lat="41.9677493" lon="13.2683872"><ele>1360.0</ele><time>2026-05-03T10:02:36.079Z</time></trkpt><trkpt lat="41.9676911" lon="13.26832"><ele>1360.0</ele><time>2026-05-03T10:02:37.071Z</time></trkpt><trkpt lat="41.9676259" lon="13.2682645"><ele>1360.0</ele><time>2026-05-03T10:02:38.116Z</time></trkpt><trkpt lat="41.9675532" lon="13.2682123"><ele>1360.0</ele><time>2026-05-03T10:02:39.07Z</time></trkpt><trkpt lat="41.9674706" lon="13.2681501"><ele>1360.0</ele><time>2026-05-03T10:02:40.073Z</time></trkpt><trkpt lat="41.9673852" lon="13.2680825"><ele>1360.0</ele><time>2026-05-03T10:02:41.078Z</time></trkpt><trkpt lat="41.9672935" lon="13.2680101"><ele>1358.4</ele><time>2026-05-03T10:02:42.083Z</time></trkpt><trkpt lat="41.9672062" lon="13.2679461"><ele>1356.8</ele><time>2026-05-03T10:02:43.071Z</time></trkpt><trkpt lat="41.9671188" lon="13.2678732"><ele>1355.1999999999998</ele><time>2026-05-03T10:02:44.079Z</time></trkpt><trkpt lat="41.9670379" lon="13.267801"><ele>1353.6</ele><time>2026-05-03T10:02:45.078Z</time></trkpt><trkpt lat="41.9669675" lon="13.267723"><ele>1352.0</ele><time>2026-05-03T10:02:46.078Z</time></trkpt><trkpt lat="41.966907" lon="13.2676411"><ele>1352.0</ele><time>2026-05-03T10:02:47.073Z</time></trkpt><trkpt lat="41.9668464" lon="13.2675479"><ele>1352.0</ele><time>2026-05-03T10:02:48.076Z</time></trkpt><trkpt lat="41.9667851" lon="13.2674471"><ele>1352.0</ele><time>2026-05-03T10:02:49.074Z</time></trkpt><trkpt lat="41.9667235" lon="13.2673353"><ele>1352.0</ele><time>2026-05-03T10:02:50.077Z</time></trkpt><trkpt lat="41.9666578" lon="13.2672216"><ele>1352.0</ele><time>2026-05-03T10:02:51.076Z</time></trkpt><trkpt lat="41.9666042" lon="13.2670925"><ele>1350.1666666666667</ele><time>2026-05-03T10:02:52.081Z</time></trkpt><trkpt lat="41.9665592" lon="13.2669584"><ele>1348.3333333333335</ele><time>2026-05-03T10:02:53.079Z</time></trkpt><trkpt lat="41.9665253" lon="13.2668417"><ele>1346.5</ele><time>2026-05-03T10:02:54.071Z</time></trkpt><trkpt lat="41.9665077" lon="13.2667381"><ele>1344.6666666666667</ele><time>2026-05-03T10:02:55.07Z</time></trkpt><trkpt lat="41.966488" lon="13.2666538"><ele>1342.8333333333333</ele><time>2026-05-03T10:02:56.076Z</time></trkpt><trkpt lat="41.966446" lon="13.2665369"><ele>1341.0</ele><time>2026-05-03T10:02:58.074Z</time></trkpt><trkpt lat="41.9664343" lon="13.2664402"><ele>1340.0</ele><time>2026-05-03T10:03:00.07Z</time></trkpt><trkpt lat="41.9664095" lon="13.2663562"><ele>1339.0</ele><time>2026-05-03T10:03:40.073Z</time></trkpt><trkpt lat="41.9663872" lon="13.2662445"><ele>1338.0</ele><time>2026-05-03T10:03:44.074Z</time></trkpt><trkpt lat="41.9663641" lon="13.2661328"><ele>1337.0</ele><time>2026-05-03T10:03:47.07Z</time></trkpt><trkpt lat="41.9663759" lon="13.2660024"><ele>1336.0</ele><time>2026-05-03T10:03:49.073Z</time></trkpt><trkpt lat="41.9663911" lon="13.2658154"><ele>1336.0</ele><time>2026-05-03T10:03:51.079Z</time></trkpt><trkpt lat="41.9664102" lon="13.2657025"><ele>1336.0</ele><time>2026-05-03T10:03:52.081Z</time></trkpt><trkpt lat="41.9664328" lon="13.2655937"><ele>1336.0</ele><time>2026-05-03T10:03:53.079Z</time></trkpt><trkpt lat="41.9664574" lon="13.265485"><ele>1336.0</ele><time>2026-05-03T10:03:54.069Z</time></trkpt><trkpt lat="41.9664836" lon="13.2653658"><ele>1336.0</ele><time>2026-05-03T10:03:55.075Z</time></trkpt><trkpt lat="41.9665142" lon="13.2652396"><ele>1336.0</ele><time>2026-05-03T10:03:56.07Z</time></trkpt><trkpt lat="41.9665498" lon="13.265109"><ele>1335.75</ele><time>2026-05-03T10:03:57.075Z</time></trkpt><trkpt lat="41.9665946" lon="13.264974"><ele>1335.5</ele><time>2026-05-03T10:03:58.077Z</time></trkpt><trkpt lat="41.9666526" lon="13.2648392"><ele>1335.25</ele><time>2026-05-03T10:03:59.072Z</time></trkpt><trkpt lat="41.9667086" lon="13.2646999"><ele>1335.0</ele><time>2026-05-03T10:04:00.077Z</time></trkpt><trkpt lat="41.9667583" lon="13.2645645"><ele>1335.4</ele><time>2026-05-03T10:04:01.075Z</time></trkpt><trkpt lat="41.9668018" lon="13.2644324"><ele>1335.8</ele><time>2026-05-03T10:04:02.072Z</time></trkpt><trkpt lat="41.9668503" lon="13.2642973"><ele>1336.1999999999998</ele><time>2026-05-03T10:04:03.069Z</time></trkpt><trkpt lat="41.9668972" lon="13.2641697"><ele>1336.6</ele><time>2026-05-03T10:04:04.077Z</time></trkpt><trkpt lat="41.9669521" lon="13.2640354"><ele>1337.0</ele><time>2026-05-03T10:04:05.076Z</time></trkpt><trkpt lat="41.9670161" lon="13.263913"><ele>1336.0</ele><time>2026-05-03T10:04:06.075Z</time></trkpt><trkpt lat="41.9670968" lon="13.2637954"><ele>1335.0</ele><time>2026-05-03T10:04:07.07Z</time></trkpt><trkpt lat="41.9671935" lon="13.2636866"><ele>1334.0</ele><time>2026-05-03T10:04:08.067Z</time></trkpt><trkpt lat="41.967287" lon="13.2635828"><ele>1333.0</ele><time>2026-05-03T10:04:09.07Z</time></trkpt><trkpt lat="41.9673833" lon="13.2634783"><ele>1333.0</ele><time>2026-05-03T10:04:10.068Z</time></trkpt><trkpt lat="41.9674679" lon="13.2633779"><ele>1333.0</ele><time>2026-05-03T10:04:11.07Z</time></trkpt><trkpt lat="41.9675501" lon="13.2632807"><ele>1333.0</ele><time>2026-05-03T10:04:12.065Z</time></trkpt><trkpt lat="41.9676325" lon="13.2631811"><ele>1333.0</ele><time>2026-05-03T10:04:13.067Z</time></trkpt><trkpt lat="41.9677141" lon="13.2630709"><ele>1333.0</ele><time>2026-05-03T10:04:14.07Z</time></trkpt><trkpt lat="41.9677924" lon="13.2629765"><ele>1334.0</ele><time>2026-05-03T10:04:15.079Z</time></trkpt><trkpt lat="41.9678549" lon="13.2628823"><ele>1335.0</ele><time>2026-05-03T10:04:16.071Z</time></trkpt><trkpt lat="41.9679143" lon="13.2627283"><ele>1336.0</ele><time>2026-05-03T10:04:18.079Z</time></trkpt><trkpt lat="41.9679271" lon="13.2626276"><ele>1337.0</ele><time>2026-05-03T10:04:19.068Z</time></trkpt><trkpt lat="41.9679257" lon="13.2625113"><ele>1338.0</ele><time>2026-05-03T10:04:20.076Z</time></trkpt><trkpt lat="41.9679054" lon="13.2623934"><ele>1337.2</ele><time>2026-05-03T10:04:21.074Z</time></trkpt><trkpt lat="41.9678827" lon="13.2622723"><ele>1336.4</ele><time>2026-05-03T10:04:22.074Z</time></trkpt><trkpt lat="41.9678639" lon="13.2621497"><ele>1335.6000000000001</ele><time>2026-05-03T10:04:23.076Z</time></trkpt><trkpt lat="41.967847" lon="13.2620222"><ele>1334.8000000000002</ele><time>2026-05-03T10:04:24.075Z</time></trkpt><trkpt lat="41.9678416" lon="13.2619005"><ele>1334.0</ele><time>2026-05-03T10:04:25.076Z</time></trkpt><trkpt lat="41.9678446" lon="13.2617773"><ele>1334.0</ele><time>2026-05-03T10:04:26.073Z</time></trkpt><trkpt lat="41.9678575" lon="13.2616579"><ele>1334.0</ele><time>2026-05-03T10:04:27.07Z</time></trkpt><trkpt lat="41.9678875" lon="13.2615355"><ele>1334.0</ele><time>2026-05-03T10:04:28.075Z</time></trkpt><trkpt lat="41.9679238" lon="13.2614159"><ele>1334.0</ele><time>2026-05-03T10:04:29.071Z</time></trkpt><trkpt lat="41.9679844" lon="13.2613022"><ele>1334.0</ele><time>2026-05-03T10:04:30.073Z</time></trkpt><trkpt lat="41.9680604" lon="13.2611771"><ele>1333.2</ele><time>2026-05-03T10:04:31.077Z</time></trkpt><trkpt lat="41.9681305" lon="13.261041"><ele>1332.4</ele><time>2026-05-03T10:04:32.075Z</time></trkpt><trkpt lat="41.968197" lon="13.2609209"><ele>1331.6</ele><time>2026-05-03T10:04:33.083Z</time></trkpt><trkpt lat="41.9682644" lon="13.2608172"><ele>1330.8</ele><time>2026-05-03T10:04:34.078Z</time></trkpt><trkpt lat="41.9683429" lon="13.2607151"><ele>1330.0</ele><time>2026-05-03T10:04:35.074Z</time></trkpt><trkpt lat="41.9684234" lon="13.2606268"><ele>1331.0</ele><time>2026-05-03T10:04:36.074Z</time></trkpt><trkpt lat="41.9685018" lon="13.2605433"><ele>1332.0</ele><time>2026-05-03T10:04:37.073Z</time></trkpt><trkpt lat="41.9685737" lon="13.2604671"><ele>1333.0</ele><time>2026-05-03T10:04:38.072Z</time></trkpt><trkpt lat="41.9686396" lon="13.2603856"><ele>1334.0</ele><time>2026-05-03T10:04:39.068Z</time></trkpt><trkpt lat="41.9686883" lon="13.2603031"><ele>1335.0</ele><time>2026-05-03T10:04:40.073Z</time></trkpt><trkpt lat="41.9687241" lon="13.2602097"><ele>1336.0</ele><time>2026-05-03T10:04:41.074Z</time></trkpt><trkpt lat="41.9687394" lon="13.2601055"><ele>1336.0</ele><time>2026-05-03T10:04:42.071Z</time></trkpt><trkpt lat="41.9687345" lon="13.2600017"><ele>1336.0</ele><time>2026-05-03T10:04:43.064Z</time></trkpt><trkpt lat="41.9687245" lon="13.2598873"><ele>1336.0</ele><time>2026-05-03T10:04:44.071Z</time></trkpt><trkpt lat="41.9687012" lon="13.2597789"><ele>1336.0</ele><time>2026-05-03T10:04:45.073Z</time></trkpt><trkpt lat="41.9686701" lon="13.2596707"><ele>1336.0</ele><time>2026-05-03T10:04:46.073Z</time></trkpt><trkpt lat="41.9686308" lon="13.2595712"><ele>1336.0</ele><time>2026-05-03T10:04:47.069Z</time></trkpt><trkpt lat="41.9685789" lon="13.2594708"><ele>1336.1999999999998</ele><time>2026-05-03T10:04:48.07Z</time></trkpt><trkpt lat="41.9685191" lon="13.2593682"><ele>1336.3999999999999</ele><time>2026-05-03T10:04:49.068Z</time></trkpt><trkpt lat="41.9684592" lon="13.2592629"><ele>1336.6</ele><time>2026-05-03T10:04:50.071Z</time></trkpt><trkpt lat="41.9683947" lon="13.2591518"><ele>1336.8</ele><time>2026-05-03T10:04:51.071Z</time></trkpt><trkpt lat="41.9683347" lon="13.2590369"><ele>1337.0</ele><time>2026-05-03T10:04:52.07Z</time></trkpt><trkpt lat="41.9682744" lon="13.2589046"><ele>1333.6</ele><time>2026-05-03T10:04:53.072Z</time></trkpt><trkpt lat="41.968235" lon="13.2587625"><ele>1330.1999999999998</ele><time>2026-05-03T10:04:54.069Z</time></trkpt><trkpt lat="41.9681927" lon="13.2586159"><ele>1326.8</ele><time>2026-05-03T10:04:55.078Z</time></trkpt><trkpt lat="41.9681659" lon="13.2584776"><ele>1323.4</ele><time>2026-05-03T10:04:56.076Z</time></trkpt><trkpt lat="41.968147" lon="13.2583506"><ele>1320.0</ele><time>2026-05-03T10:04:57.075Z</time></trkpt><trkpt lat="41.9681396" lon="13.2582161"><ele>1318.8</ele><time>2026-05-03T10:04:58.077Z</time></trkpt><trkpt lat="41.9681528" lon="13.2580799"><ele>1317.6</ele><time>2026-05-03T10:04:59.075Z</time></trkpt><trkpt lat="41.9681772" lon="13.2579442"><ele>1316.4</ele><time>2026-05-03T10:05:00.074Z</time></trkpt><trkpt lat="41.9682041" lon="13.2578016"><ele>1315.2</ele><time>2026-05-03T10:05:01.073Z</time></trkpt><trkpt lat="41.968236" lon="13.2576658"><ele>1314.0</ele><time>2026-05-03T10:05:02.073Z</time></trkpt><trkpt lat="41.9682671" lon="13.2575295"><ele>1314.0</ele><time>2026-05-03T10:05:03.074Z</time></trkpt><trkpt lat="41.9682958" lon="13.2574005"><ele>1314.0</ele><time>2026-05-03T10:05:04.074Z</time></trkpt><trkpt lat="41.9683087" lon="13.2572724"><ele>1314.0</ele><time>2026-05-03T10:05:05.072Z</time></trkpt><trkpt lat="41.9683222" lon="13.2571532"><ele>1314.0</ele><time>2026-05-03T10:05:06.077Z</time></trkpt><trkpt lat="41.9683253" lon="13.257033"><ele>1314.0</ele><time>2026-05-03T10:05:07.07Z</time></trkpt><trkpt lat="41.9683269" lon="13.2569134"><ele>1313.4</ele><time>2026-05-03T10:05:08.09Z</time></trkpt><trkpt lat="41.9683335" lon="13.2567782"><ele>1312.8000000000002</ele><time>2026-05-03T10:05:09.07Z</time></trkpt><trkpt lat="41.9683279" lon="13.2566554"><ele>1312.1999999999998</ele><time>2026-05-03T10:05:10.07Z</time></trkpt><trkpt lat="41.9682972" lon="13.2565425"><ele>1311.6</ele><time>2026-05-03T10:05:11.072Z</time></trkpt><trkpt lat="41.9682614" lon="13.2564257"><ele>1311.0</ele><time>2026-05-03T10:05:12.07Z</time></trkpt><trkpt lat="41.9682336" lon="13.256301"><ele>1310.8</ele><time>2026-05-03T10:05:13.065Z</time></trkpt><trkpt lat="41.9682302" lon="13.2561661"><ele>1310.6</ele><time>2026-05-03T10:05:14.07Z</time></trkpt><trkpt lat="41.9682179" lon="13.2560277"><ele>1310.4</ele><time>2026-05-03T10:05:15.074Z</time></trkpt><trkpt lat="41.9681941" lon="13.2558924"><ele>1310.2</ele><time>2026-05-03T10:05:16.071Z</time></trkpt><trkpt lat="41.9681692" lon="13.2557598"><ele>1310.0</ele><time>2026-05-03T10:05:17.071Z</time></trkpt><trkpt lat="41.9681488" lon="13.2556312"><ele>1310.0</ele><time>2026-05-03T10:05:18.075Z</time></trkpt><trkpt lat="41.9681458" lon="13.2555112"><ele>1310.0</ele><time>2026-05-03T10:05:19.077Z</time></trkpt><trkpt lat="41.9681514" lon="13.2554075"><ele>1310.0</ele><time>2026-05-03T10:05:20.073Z</time></trkpt><trkpt lat="41.9681439" lon="13.2553128"><ele>1310.0</ele><time>2026-05-03T10:05:21.076Z</time></trkpt><trkpt lat="41.9681208" lon="13.2552295"><ele>1310.0</ele><time>2026-05-03T10:05:22.071Z</time></trkpt><trkpt lat="41.9680754" lon="13.2551458"><ele>1310.0</ele><time>2026-05-03T10:05:23.072Z</time></trkpt><trkpt lat="41.9680194" lon="13.25507"><ele>1310.0</ele><time>2026-05-03T10:05:24.081Z</time></trkpt><trkpt lat="41.967952" lon="13.2549999"><ele>1310.0</ele><time>2026-05-03T10:05:25.074Z</time></trkpt><trkpt lat="41.9678816" lon="13.2549286"><ele>1310.0</ele><time>2026-05-03T10:05:26.073Z</time></trkpt><trkpt lat="41.9678136" lon="13.2548665"><ele>1310.0</ele><time>2026-05-03T10:05:27.077Z</time></trkpt><trkpt lat="41.967749" lon="13.254806"><ele>1310.0</ele><time>2026-05-03T10:05:28.076Z</time></trkpt><trkpt lat="41.9677047" lon="13.2547403"><ele>1310.0</ele><time>2026-05-03T10:05:29.069Z</time></trkpt><trkpt lat="41.96765" lon="13.2546062"><ele>1310.0</ele><time>2026-05-03T10:05:31.09Z</time></trkpt><trkpt lat="41.9676452" lon="13.2544653"><ele>1310.0</ele><time>2026-05-03T10:05:33.081Z</time></trkpt><trkpt lat="41.9676533" lon="13.2543092"><ele>1310.0</ele><time>2026-05-03T10:05:35.073Z</time></trkpt><trkpt lat="41.9676529" lon="13.2542202"><ele>1310.0</ele><time>2026-05-03T10:05:36.097Z</time></trkpt><trkpt lat="41.9676522" lon="13.2541208"><ele>1310.0</ele><time>2026-05-03T10:05:37.076Z</time></trkpt><trkpt lat="41.9676455" lon="13.2540181"><ele>1310.0</ele><time>2026-05-03T10:05:38.079Z</time></trkpt><trkpt lat="41.9676459" lon="13.2539121"><ele>1308.6666666666667</ele><time>2026-05-03T10:05:39.072Z</time></trkpt><trkpt lat="41.9676447" lon="13.2538084"><ele>1307.3333333333335</ele><time>2026-05-03T10:05:40.074Z</time></trkpt><trkpt lat="41.9676505" lon="13.25371"><ele>1306.0</ele><time>2026-05-03T10:05:41.075Z</time></trkpt><trkpt lat="41.9676721" lon="13.2536003"><ele>1304.6666666666667</ele><time>2026-05-03T10:05:42.071Z</time></trkpt><trkpt lat="41.9676906" lon="13.2534766"><ele>1303.3333333333333</ele><time>2026-05-03T10:05:43.086Z</time></trkpt><trkpt lat="41.9676974" lon="13.2533496"><ele>1302.0</ele><time>2026-05-03T10:05:44.071Z</time></trkpt><trkpt lat="41.96768" lon="13.2532035"><ele>1302.1999999999998</ele><time>2026-05-03T10:05:45.068Z</time></trkpt><trkpt lat="41.9676561" lon="13.2530768"><ele>1302.4</ele><time>2026-05-03T10:05:46.077Z</time></trkpt><trkpt lat="41.9676234" lon="13.2529565"><ele>1302.6</ele><time>2026-05-03T10:05:47.078Z</time></trkpt><trkpt lat="41.9675915" lon="13.2528294"><ele>1302.8000000000002</ele><time>2026-05-03T10:05:48.08Z</time></trkpt><trkpt lat="41.9675776" lon="13.2527077"><ele>1303.0</ele><time>2026-05-03T10:05:49.072Z</time></trkpt><trkpt lat="41.9675903" lon="13.252594"><ele>1303.0</ele><time>2026-05-03T10:05:50.076Z</time></trkpt><trkpt lat="41.9676088" lon="13.2524965"><ele>1303.0</ele><time>2026-05-03T10:05:51.077Z</time></trkpt><trkpt lat="41.9676454" lon="13.2523979"><ele>1303.0</ele><time>2026-05-03T10:05:52.07Z</time></trkpt><trkpt lat="41.9676898" lon="13.2523009"><ele>1303.0</ele><time>2026-05-03T10:05:53.071Z</time></trkpt><trkpt lat="41.9677461" lon="13.2521912"><ele>1303.0</ele><time>2026-05-03T10:05:54.078Z</time></trkpt><trkpt lat="41.9678028" lon="13.2520683"><ele>1303.0</ele><time>2026-05-03T10:05:55.077Z</time></trkpt><trkpt lat="41.9678562" lon="13.251941"><ele>1306.6000000000001</ele><time>2026-05-03T10:05:56.081Z</time></trkpt><trkpt lat="41.9679094" lon="13.2518088"><ele>1310.2</ele><time>2026-05-03T10:05:57.073Z</time></trkpt><trkpt lat="41.9679547" lon="13.2516851"><ele>1313.8</ele><time>2026-05-03T10:05:58.08Z</time></trkpt><trkpt lat="41.9679948" lon="13.2515696"><ele>1317.4</ele><time>2026-05-03T10:05:59.077Z</time></trkpt><trkpt lat="41.9680307" lon="13.2514506"><ele>1321.0</ele><time>2026-05-03T10:06:00.082Z</time></trkpt><trkpt lat="41.968057" lon="13.2513434"><ele>1322.5</ele><time>2026-05-03T10:06:01.084Z</time></trkpt><trkpt lat="41.968078" lon="13.2512337"><ele>1324.0</ele><time>2026-05-03T10:06:02.081Z</time></trkpt><trkpt lat="41.9680973" lon="13.251121"><ele>1325.5</ele><time>2026-05-03T10:06:03.083Z</time></trkpt><trkpt lat="41.9681047" lon="13.2510045"><ele>1327.0</ele><time>2026-05-03T10:06:04.087Z</time></trkpt><trkpt lat="41.9681133" lon="13.2508982"><ele>1328.5</ele><time>2026-05-03T10:06:05.075Z</time></trkpt><trkpt lat="41.96812" lon="13.250784"><ele>1330.0</ele><time>2026-05-03T10:06:06.076Z</time></trkpt><trkpt lat="41.9681072" lon="13.2506798"><ele>1329.8333333333333</ele><time>2026-05-03T10:06:07.08Z</time></trkpt><trkpt lat="41.9680891" lon="13.2505707"><ele>1329.6666666666665</ele><time>2026-05-03T10:06:08.075Z</time></trkpt><trkpt lat="41.9680448" lon="13.2504616"><ele>1329.5</ele><time>2026-05-03T10:06:09.069Z</time></trkpt><trkpt lat="41.9680223" lon="13.2503596"><ele>1329.3333333333333</ele><time>2026-05-03T10:06:10.08Z</time></trkpt><trkpt lat="41.9680299" lon="13.2501953"><ele>1329.1666666666667</ele><time>2026-05-03T10:06:12.078Z</time></trkpt><trkpt lat="41.9680436" lon="13.250103"><ele>1329.0</ele><time>2026-05-03T10:06:13.083Z</time></trkpt><trkpt lat="41.9680389" lon="13.2500001"><ele>1329.0</ele><time>2026-05-03T10:06:14.077Z</time></trkpt><trkpt lat="41.9680057" lon="13.2498871"><ele>1329.0</ele><time>2026-05-03T10:06:15.078Z</time></trkpt><trkpt lat="41.967968" lon="13.2497792"><ele>1329.0</ele><time>2026-05-03T10:06:16.068Z</time></trkpt><trkpt lat="41.9679293" lon="13.2496539"><ele>1329.0</ele><time>2026-05-03T10:06:17.079Z</time></trkpt><trkpt lat="41.9679047" lon="13.2495043"><ele>1329.0</ele><time>2026-05-03T10:06:18.083Z</time></trkpt><trkpt lat="41.9678993" lon="13.2493527"><ele>1328.0</ele><time>2026-05-03T10:06:19.081Z</time></trkpt><trkpt lat="41.967903" lon="13.249212"><ele>1327.0</ele><time>2026-05-03T10:06:20.086Z</time></trkpt><trkpt lat="41.9679083" lon="13.2490679"><ele>1326.0</ele><time>2026-05-03T10:06:21.082Z</time></trkpt><trkpt lat="41.9678934" lon="13.2489412"><ele>1325.0</ele><time>2026-05-03T10:06:22.076Z</time></trkpt><trkpt lat="41.9678562" lon="13.248829"><ele>1324.0</ele><time>2026-05-03T10:06:23.077Z</time></trkpt><trkpt lat="41.9678283" lon="13.2487039"><ele>1324.0</ele><time>2026-05-03T10:06:24.073Z</time></trkpt><trkpt lat="41.9678257" lon="13.2485859"><ele>1324.0</ele><time>2026-05-03T10:06:25.079Z</time></trkpt><trkpt lat="41.9678459" lon="13.2484634"><ele>1324.0</ele><time>2026-05-03T10:06:26.07Z</time></trkpt><trkpt lat="41.9678688" lon="13.2483553"><ele>1324.0</ele><time>2026-05-03T10:06:27.091Z</time></trkpt><trkpt lat="41.9678699" lon="13.2482471"><ele>1324.0</ele><time>2026-05-03T10:06:28.078Z</time></trkpt><trkpt lat="41.9678462" lon="13.2481559"><ele>1324.0</ele><time>2026-05-03T10:06:29.074Z</time></trkpt><trkpt lat="41.9678188" lon="13.2480718"><ele>1323.8000000000002</ele><time>2026-05-03T10:06:30.075Z</time></trkpt><trkpt lat="41.9677229" lon="13.2479685"><ele>1323.6000000000001</ele><time>2026-05-03T10:06:32.077Z</time></trkpt><trkpt lat="41.9676526" lon="13.2479366"><ele>1323.4</ele><time>2026-05-03T10:06:33.076Z</time></trkpt><trkpt lat="41.967577" lon="13.2479109"><ele>1323.2</ele><time>2026-05-03T10:06:34.076Z</time></trkpt><trkpt lat="41.9674869" lon="13.2478788"><ele>1323.0</ele><time>2026-05-03T10:06:35.079Z</time></trkpt><trkpt lat="41.9674038" lon="13.2478656"><ele>1325.8000000000002</ele><time>2026-05-03T10:06:36.083Z</time></trkpt><trkpt lat="41.967324" lon="13.2478599"><ele>1328.6</ele><time>2026-05-03T10:06:37.075Z</time></trkpt><trkpt lat="41.9672154" lon="13.2478135"><ele>1331.4</ele><time>2026-05-03T10:06:39.072Z</time></trkpt><trkpt lat="41.967143" lon="13.2477096"><ele>1334.1999999999998</ele><time>2026-05-03T10:06:41.074Z</time></trkpt><trkpt lat="41.9671277" lon="13.2475381"><ele>1337.0</ele><time>2026-05-03T10:06:43.074Z</time></trkpt><trkpt lat="41.9671412" lon="13.2474479"><ele>1337.0</ele><time>2026-05-03T10:06:44.084Z</time></trkpt><trkpt lat="41.9671617" lon="13.2473495"><ele>1337.0</ele><time>2026-05-03T10:06:45.075Z</time></trkpt><trkpt lat="41.9671816" lon="13.247224"><ele>1337.0</ele><time>2026-05-03T10:06:46.072Z</time></trkpt><trkpt lat="41.9671989" lon="13.2470883"><ele>1337.0</ele><time>2026-05-03T10:06:47.08Z</time></trkpt><trkpt lat="41.9672188" lon="13.2469422"><ele>1337.0</ele><time>2026-05-03T10:06:48.07Z</time></trkpt><trkpt lat="41.9672281" lon="13.2467923"><ele>1336.1999999999998</ele><time>2026-05-03T10:06:49.073Z</time></trkpt><trkpt lat="41.9672405" lon="13.2466383"><ele>1335.4</ele><time>2026-05-03T10:06:50.068Z</time></trkpt><trkpt lat="41.9672537" lon="13.246489"><ele>1334.6</ele><time>2026-05-03T10:06:51.08Z</time></trkpt><trkpt lat="41.9672611" lon="13.2463385"><ele>1333.8000000000002</ele><time>2026-05-03T10:06:52.074Z</time></trkpt><trkpt lat="41.9672701" lon="13.2462058"><ele>1333.0</ele><time>2026-05-03T10:06:53.072Z</time></trkpt><trkpt lat="41.9672963" lon="13.2460789"><ele>1333.0</ele><time>2026-05-03T10:06:54.082Z</time></trkpt><trkpt lat="41.9673197" lon="13.2459781"><ele>1333.0</ele><time>2026-05-03T10:06:55.077Z</time></trkpt><trkpt lat="41.9673344" lon="13.24581"><ele>1333.0</ele><time>2026-05-03T10:06:57.073Z</time></trkpt><trkpt lat="41.9672963" lon="13.2456894"><ele>1333.0</ele><time>2026-05-03T10:06:59.074Z</time></trkpt><trkpt lat="41.9672171" lon="13.2456266"><ele>1333.0</ele><time>2026-05-03T10:07:01.079Z</time></trkpt><trkpt lat="41.9670999" lon="13.2455964"><ele>1333.1666666666665</ele><time>2026-05-03T10:07:03.079Z</time></trkpt><trkpt lat="41.9670391" lon="13.2455138"><ele>1333.3333333333333</ele><time>2026-05-03T10:07:05.071Z</time></trkpt><trkpt lat="41.9669931" lon="13.2454402"><ele>1333.5</ele><time>2026-05-03T10:07:07.077Z</time></trkpt><trkpt lat="41.96693" lon="13.2453445"><ele>1333.6666666666667</ele><time>2026-05-03T10:07:10.081Z</time></trkpt><trkpt lat="41.9668412" lon="13.2453177"><ele>1333.8333333333335</ele><time>2026-05-03T10:07:13.071Z</time></trkpt><trkpt lat="41.9667507" lon="13.2453719"><ele>1334.0</ele><time>2026-05-03T10:07:15.072Z</time></trkpt><trkpt lat="41.9666531" lon="13.2454447"><ele>1333.1666666666667</ele><time>2026-05-03T10:07:17.068Z</time></trkpt><trkpt lat="41.9665399" lon="13.2455029"><ele>1332.3333333333335</ele><time>2026-05-03T10:07:19.075Z</time></trkpt><trkpt lat="41.9664716" lon="13.2455175"><ele>1331.5</ele><time>2026-05-03T10:07:20.079Z</time></trkpt><trkpt lat="41.9663999" lon="13.2455286"><ele>1330.6666666666667</ele><time>2026-05-03T10:07:21.071Z</time></trkpt><trkpt lat="41.9663307" lon="13.2455378"><ele>1329.8333333333333</ele><time>2026-05-03T10:07:22.078Z</time></trkpt><trkpt lat="41.966259" lon="13.2455488"><ele>1329.0</ele><time>2026-05-03T10:07:23.084Z</time></trkpt><trkpt lat="41.966182" lon="13.2455762"><ele>1329.0</ele><time>2026-05-03T10:07:24.078Z</time></trkpt><trkpt lat="41.9660825" lon="13.2455938"><ele>1329.0</ele><time>2026-05-03T10:07:25.073Z</time></trkpt><trkpt lat="41.9659653" lon="13.2455695"><ele>1329.0</ele><time>2026-05-03T10:07:26.078Z</time></trkpt><trkpt lat="41.9658558" lon="13.2455348"><ele>1329.0</ele><time>2026-05-03T10:07:27.07Z</time></trkpt><trkpt lat="41.9657612" lon="13.2454771"><ele>1329.0</ele><time>2026-05-03T10:07:28.07Z</time></trkpt><trkpt lat="41.9656847" lon="13.2454358"><ele>1329.5</ele><time>2026-05-03T10:07:29.072Z</time></trkpt><trkpt lat="41.9656043" lon="13.2454103"><ele>1330.0</ele><time>2026-05-03T10:07:30.086Z</time></trkpt><trkpt lat="41.9655265" lon="13.2454213"><ele>1330.5</ele><time>2026-05-03T10:07:31.071Z</time></trkpt><trkpt lat="41.9654533" lon="13.2454473"><ele>1331.0</ele><time>2026-05-03T10:07:32.071Z</time></trkpt><trkpt lat="41.965383" lon="13.2454916"><ele>1331.5</ele><time>2026-05-03T10:07:33.07Z</time></trkpt><trkpt lat="41.9653095" lon="13.2455402"><ele>1332.0</ele><time>2026-05-03T10:07:34.073Z</time></trkpt><trkpt lat="41.9652251" lon="13.2455721"><ele>1332.0</ele><time>2026-05-03T10:07:35.065Z</time></trkpt><trkpt lat="41.9651358" lon="13.2455945"><ele>1332.0</ele><time>2026-05-03T10:07:36.068Z</time></trkpt><trkpt lat="41.9650473" lon="13.2456061"><ele>1332.0</ele><time>2026-05-03T10:07:37.063Z</time></trkpt><trkpt lat="41.9649544" lon="13.2456013"><ele>1332.0</ele><time>2026-05-03T10:07:38.07Z</time></trkpt><trkpt lat="41.9648606" lon="13.2455912"><ele>1332.0</ele><time>2026-05-03T10:07:39.072Z</time></trkpt><trkpt lat="41.9647596" lon="13.2455818"><ele>1333.8</ele><time>2026-05-03T10:07:40.068Z</time></trkpt><trkpt lat="41.9646594" lon="13.2455727"><ele>1335.6</ele><time>2026-05-03T10:07:41.067Z</time></trkpt><trkpt lat="41.9645684" lon="13.2455618"><ele>1337.3999999999999</ele><time>2026-05-03T10:07:42.07Z</time></trkpt><trkpt lat="41.9644833" lon="13.2455452"><ele>1339.1999999999998</ele><time>2026-05-03T10:07:43.071Z</time></trkpt><trkpt lat="41.9643961" lon="13.2455248"><ele>1341.0</ele><time>2026-05-03T10:07:44.076Z</time></trkpt><trkpt lat="41.9643114" lon="13.2454878"><ele>1341.0</ele><time>2026-05-03T10:07:45.069Z</time></trkpt><trkpt lat="41.9642302" lon="13.2454359"><ele>1341.0</ele><time>2026-05-03T10:07:46.074Z</time></trkpt><trkpt lat="41.9641578" lon="13.2453484"><ele>1341.0</ele><time>2026-05-03T10:07:47.061Z</time></trkpt><trkpt lat="41.9640891" lon="13.2452634"><ele>1341.0</ele><time>2026-05-03T10:07:48.075Z</time></trkpt><trkpt lat="41.9640242" lon="13.2451671"><ele>1341.0</ele><time>2026-05-03T10:07:49.069Z</time></trkpt><trkpt lat="41.9639594" lon="13.2450692"><ele>1341.6</ele><time>2026-05-03T10:07:50.074Z</time></trkpt><trkpt lat="41.9638968" lon="13.2449757"><ele>1342.1999999999998</ele><time>2026-05-03T10:07:51.071Z</time></trkpt><trkpt lat="41.9638358" lon="13.244878"><ele>1342.8000000000002</ele><time>2026-05-03T10:07:52.074Z</time></trkpt><trkpt lat="41.9637797" lon="13.2447909"><ele>1343.4</ele><time>2026-05-03T10:07:53.074Z</time></trkpt><trkpt lat="41.9637238" lon="13.2447161"><ele>1344.0</ele><time>2026-05-03T10:07:54.073Z</time></trkpt><trkpt lat="41.9636033" lon="13.2446581"><ele>1342.8333333333333</ele><time>2026-05-03T10:07:56.073Z</time></trkpt><trkpt lat="41.9634789" lon="13.2446865"><ele>1341.6666666666667</ele><time>2026-05-03T10:07:58.075Z</time></trkpt><trkpt lat="41.9634017" lon="13.2447039"><ele>1340.5</ele><time>2026-05-03T10:07:59.073Z</time></trkpt><trkpt lat="41.9633302" lon="13.2447133"><ele>1339.3333333333335</ele><time>2026-05-03T10:08:00.072Z</time></trkpt><trkpt lat="41.9632548" lon="13.2447119"><ele>1338.1666666666667</ele><time>2026-05-03T10:08:01.073Z</time></trkpt><trkpt lat="41.9631799" lon="13.2446796"><ele>1337.0</ele><time>2026-05-03T10:08:02.071Z</time></trkpt><trkpt lat="41.963099" lon="13.2446262"><ele>1337.0</ele><time>2026-05-03T10:08:03.071Z</time></trkpt><trkpt lat="41.963018" lon="13.2445743"><ele>1337.0</ele><time>2026-05-03T10:08:04.076Z</time></trkpt><trkpt lat="41.9629441" lon="13.2445105"><ele>1337.0</ele><time>2026-05-03T10:08:05.066Z</time></trkpt><trkpt lat="41.9628789" lon="13.2444338"><ele>1337.0</ele><time>2026-05-03T10:08:06.068Z</time></trkpt><trkpt lat="41.9628211" lon="13.2443585"><ele>1337.0</ele><time>2026-05-03T10:08:07.075Z</time></trkpt><trkpt lat="41.9627633" lon="13.2442996"><ele>1337.0</ele><time>2026-05-03T10:08:08.07Z</time></trkpt><trkpt lat="41.9626949" lon="13.2442714"><ele>1337.0</ele><time>2026-05-03T10:08:09.065Z</time></trkpt><trkpt lat="41.9626213" lon="13.2442534"><ele>1337.0</ele><time>2026-05-03T10:08:10.069Z</time></trkpt><trkpt lat="41.9625423" lon="13.2442528"><ele>1337.0</ele><time>2026-05-03T10:08:11.071Z</time></trkpt><trkpt lat="41.9624607" lon="13.2442715"><ele>1337.0</ele><time>2026-05-03T10:08:12.072Z</time></trkpt><trkpt lat="41.9623792" lon="13.2442877"><ele>1337.0</ele><time>2026-05-03T10:08:13.073Z</time></trkpt><trkpt lat="41.9622967" lon="13.2442941"><ele>1337.0</ele><time>2026-05-03T10:08:14.071Z</time></trkpt><trkpt lat="41.9622253" lon="13.2442836"><ele>1339.8</ele><time>2026-05-03T10:08:15.072Z</time></trkpt><trkpt lat="41.9621193" lon="13.2442471"><ele>1342.6</ele><time>2026-05-03T10:08:17.072Z</time></trkpt><trkpt lat="41.9620511" lon="13.2441454"><ele>1345.3999999999999</ele><time>2026-05-03T10:08:19.075Z</time></trkpt><trkpt lat="41.9620305" lon="13.2440009"><ele>1348.1999999999998</ele><time>2026-05-03T10:08:21.072Z</time></trkpt><trkpt lat="41.9620546" lon="13.2439195"><ele>1351.0</ele><time>2026-05-03T10:08:22.07Z</time></trkpt><trkpt lat="41.962124" lon="13.2437757"><ele>1351.1666666666665</ele><time>2026-05-03T10:08:24.077Z</time></trkpt><trkpt lat="41.9621645" lon="13.2436891"><ele>1351.3333333333333</ele><time>2026-05-03T10:08:25.073Z</time></trkpt><trkpt lat="41.9622024" lon="13.2436049"><ele>1351.5</ele><time>2026-05-03T10:08:26.073Z</time></trkpt><trkpt lat="41.9622273" lon="13.2435237"><ele>1351.6666666666667</ele><time>2026-05-03T10:08:27.076Z</time></trkpt><trkpt lat="41.9622493" lon="13.2433978"><ele>1351.8333333333335</ele><time>2026-05-03T10:08:29.072Z</time></trkpt><trkpt lat="41.9622553" lon="13.2432711"><ele>1352.0</ele><time>2026-05-03T10:08:31.074Z</time></trkpt><trkpt lat="41.9622888" lon="13.2431768"><ele>1352.0</ele><time>2026-05-03T10:08:33.072Z</time></trkpt><trkpt lat="41.9623811" lon="13.2431097"><ele>1352.0</ele><time>2026-05-03T10:08:35.068Z</time></trkpt><trkpt lat="41.9624937" lon="13.2430821"><ele>1352.0</ele><time>2026-05-03T10:08:37.07Z</time></trkpt><trkpt lat="41.9625859" lon="13.2430706"><ele>1352.0</ele><time>2026-05-03T10:08:38.075Z</time></trkpt><trkpt lat="41.9627007" lon="13.2430756"><ele>1352.0</ele><time>2026-05-03T10:08:39.077Z</time></trkpt><trkpt lat="41.9628317" lon="13.2430765"><ele>1346.3333333333335</ele><time>2026-05-03T10:08:40.076Z</time></trkpt><trkpt lat="41.9629877" lon="13.2430689"><ele>1340.6666666666667</ele><time>2026-05-03T10:08:41.073Z</time></trkpt><trkpt lat="41.9631518" lon="13.2430638"><ele>1335.0</ele><time>2026-05-03T10:08:42.075Z</time></trkpt><trkpt lat="41.9633261" lon="13.2430519"><ele>1332.3333333333333</ele><time>2026-05-03T10:08:43.072Z</time></trkpt><trkpt lat="41.9634975" lon="13.2430385"><ele>1329.6666666666665</ele><time>2026-05-03T10:08:44.078Z</time></trkpt><trkpt lat="41.9636686" lon="13.2430163"><ele>1327.0</ele><time>2026-05-03T10:08:45.077Z</time></trkpt><trkpt lat="41.9638324" lon="13.2429862"><ele>1327.0</ele><time>2026-05-03T10:08:46.079Z</time></trkpt><trkpt lat="41.9640106" lon="13.2429506"><ele>1327.0</ele><time>2026-05-03T10:08:47.074Z</time></trkpt><trkpt lat="41.9641843" lon="13.2429178"><ele>1327.0</ele><time>2026-05-03T10:08:48.072Z</time></trkpt><trkpt lat="41.964352" lon="13.242905"><ele>1325.3333333333333</ele><time>2026-05-03T10:08:49.079Z</time></trkpt><trkpt lat="41.9645115" lon="13.2428892"><ele>1323.6666666666667</ele><time>2026-05-03T10:08:50.075Z</time></trkpt><trkpt lat="41.9646635" lon="13.2428705"><ele>1322.0</ele><time>2026-05-03T10:08:51.073Z</time></trkpt><trkpt lat="41.964807" lon="13.2428415"><ele>1322.0</ele><time>2026-05-03T10:08:52.088Z</time></trkpt><trkpt lat="41.9649476" lon="13.2428113"><ele>1322.0</ele><time>2026-05-03T10:08:53.077Z</time></trkpt><trkpt lat="41.9650823" lon="13.2427886"><ele>1322.0</ele><time>2026-05-03T10:08:54.075Z</time></trkpt><trkpt lat="41.9652131" lon="13.2427836"><ele>1322.0</ele><time>2026-05-03T10:08:55.08Z</time></trkpt><trkpt lat="41.9653429" lon="13.2427913"><ele>1322.25</ele><time>2026-05-03T10:08:56.079Z</time></trkpt><trkpt lat="41.9654647" lon="13.2427833"><ele>1322.5</ele><time>2026-05-03T10:08:57.077Z</time></trkpt><trkpt lat="41.9655877" lon="13.2427577"><ele>1322.75</ele><time>2026-05-03T10:08:58.078Z</time></trkpt><trkpt lat="41.9657198" lon="13.2426993"><ele>1323.0</ele><time>2026-05-03T10:08:59.074Z</time></trkpt><trkpt lat="41.9658595" lon="13.2426361"><ele>1323.0</ele><time>2026-05-03T10:09:00.076Z</time></trkpt><trkpt lat="41.9659868" lon="13.242555"><ele>1323.0</ele><time>2026-05-03T10:09:01.077Z</time></trkpt><trkpt lat="41.9661047" lon="13.242464"><ele>1323.0</ele><time>2026-05-03T10:09:02.074Z</time></trkpt><trkpt lat="41.966212" lon="13.2423421"><ele>1323.0</ele><time>2026-05-03T10:09:03.069Z</time></trkpt><trkpt lat="41.9662962" lon="13.2422272"><ele>1322.25</ele><time>2026-05-03T10:09:04.078Z</time></trkpt><trkpt lat="41.9663788" lon="13.2421354"><ele>1321.5</ele><time>2026-05-03T10:09:05.085Z</time></trkpt><trkpt lat="41.9664736" lon="13.2420686"><ele>1320.75</ele><time>2026-05-03T10:09:06.074Z</time></trkpt><trkpt lat="41.9665757" lon="13.2419771"><ele>1320.0</ele><time>2026-05-03T10:09:07.078Z</time></trkpt><trkpt lat="41.9666768" lon="13.2418525"><ele>1320.0</ele><time>2026-05-03T10:09:08.083Z</time></trkpt><trkpt lat="41.9667578" lon="13.241717"><ele>1320.0</ele><time>2026-05-03T10:09:09.086Z</time></trkpt><trkpt lat="41.9668354" lon="13.2415956"><ele>1320.0</ele><time>2026-05-03T10:09:10.076Z</time></trkpt><trkpt lat="41.966914" lon="13.2414911"><ele>1320.0</ele><time>2026-05-03T10:09:11.079Z</time></trkpt><trkpt lat="41.9670157" lon="13.2413958"><ele>1320.0</ele><time>2026-05-03T10:09:12.077Z</time></trkpt><trkpt lat="41.9671169" lon="13.2412724"><ele>1320.0</ele><time>2026-05-03T10:09:13.08Z</time></trkpt><trkpt lat="41.9672067" lon="13.2411259"><ele>1320.0</ele><time>2026-05-03T10:09:14.076Z</time></trkpt><trkpt lat="41.9672953" lon="13.2409753"><ele>1320.0</ele><time>2026-05-03T10:09:15.074Z</time></trkpt><trkpt lat="41.9673764" lon="13.2408287"><ele>1320.0</ele><time>2026-05-03T10:09:16.086Z</time></trkpt><trkpt lat="41.9674497" lon="13.2407016"><ele>1320.0</ele><time>2026-05-03T10:09:17.069Z</time></trkpt><trkpt lat="41.9675172" lon="13.2406"><ele>1320.0</ele><time>2026-05-03T10:09:18.069Z</time></trkpt><trkpt lat="41.9675737" lon="13.2405175"><ele>1320.0</ele><time>2026-05-03T10:09:19.078Z</time></trkpt><trkpt lat="41.9676048" lon="13.2404299"><ele>1320.0</ele><time>2026-05-03T10:09:20.069Z</time></trkpt><trkpt lat="41.9676109" lon="13.2402944"><ele>1320.3333333333333</ele><time>2026-05-03T10:09:22.077Z</time></trkpt><trkpt lat="41.9675646" lon="13.240134"><ele>1320.6666666666667</ele><time>2026-05-03T10:09:24.078Z</time></trkpt><trkpt lat="41.9675286" lon="13.2400557"><ele>1321.0</ele><time>2026-05-03T10:09:25.077Z</time></trkpt><trkpt lat="41.9674945" lon="13.2399679"><ele>1321.3333333333335</ele><time>2026-05-03T10:09:26.078Z</time></trkpt><trkpt lat="41.9674711" lon="13.2398823"><ele>1321.6666666666667</ele><time>2026-05-03T10:09:27.073Z</time></trkpt><trkpt lat="41.9674639" lon="13.2397864"><ele>1322.0</ele><time>2026-05-03T10:09:28.076Z</time></trkpt><trkpt lat="41.9674702" lon="13.2396999"><ele>1323.1666666666667</ele><time>2026-05-03T10:09:29.079Z</time></trkpt><trkpt lat="41.9675007" lon="13.2396193"><ele>1324.3333333333335</ele><time>2026-05-03T10:09:30.076Z</time></trkpt><trkpt lat="41.9675478" lon="13.2395323"><ele>1325.5</ele><time>2026-05-03T10:09:31.089Z</time></trkpt><trkpt lat="41.9676024" lon="13.2394396"><ele>1326.6666666666667</ele><time>2026-05-03T10:09:32.083Z</time></trkpt><trkpt lat="41.967658" lon="13.2393375"><ele>1327.8333333333333</ele><time>2026-05-03T10:09:33.077Z</time></trkpt><trkpt lat="41.967711" lon="13.2392237"><ele>1329.0</ele><time>2026-05-03T10:09:34.078Z</time></trkpt><trkpt lat="41.9677638" lon="13.2391152"><ele>1329.1666666666667</ele><time>2026-05-03T10:09:35.079Z</time></trkpt><trkpt lat="41.9678091" lon="13.2390155"><ele>1329.3333333333333</ele><time>2026-05-03T10:09:36.075Z</time></trkpt><trkpt lat="41.9678617" lon="13.2389326"><ele>1329.5</ele><time>2026-05-03T10:09:37.078Z</time></trkpt><trkpt lat="41.9679232" lon="13.2388721"><ele>1329.6666666666665</ele><time>2026-05-03T10:09:38.074Z</time></trkpt><trkpt lat="41.9679946" lon="13.2388323"><ele>1329.8333333333333</ele><time>2026-05-03T10:09:39.078Z</time></trkpt><trkpt lat="41.9680711" lon="13.2387953"><ele>1330.0</ele><time>2026-05-03T10:09:40.078Z</time></trkpt><trkpt lat="41.9681505" lon="13.2387542"><ele>1330.0</ele><time>2026-05-03T10:09:41.078Z</time></trkpt><trkpt lat="41.9682251" lon="13.2386903"><ele>1330.0</ele><time>2026-05-03T10:09:42.08Z</time></trkpt><trkpt lat="41.9682878" lon="13.2386092"><ele>1330.0</ele><time>2026-05-03T10:09:43.075Z</time></trkpt><trkpt lat="41.9683323" lon="13.2385289"><ele>1330.0</ele><time>2026-05-03T10:09:44.086Z</time></trkpt><trkpt lat="41.9683472" lon="13.2383759"><ele>1330.0</ele><time>2026-05-03T10:09:46.075Z</time></trkpt><trkpt lat="41.9683201" lon="13.238252"><ele>1330.0</ele><time>2026-05-03T10:09:48.077Z</time></trkpt><trkpt lat="41.9682542" lon="13.2381362"><ele>1330.0</ele><time>2026-05-03T10:09:50.079Z</time></trkpt><trkpt lat="41.968174" lon="13.2380147"><ele>1330.0</ele><time>2026-05-03T10:09:52.079Z</time></trkpt><trkpt lat="41.9681318" lon="13.2379427"><ele>1330.0</ele><time>2026-05-03T10:09:53.079Z</time></trkpt><trkpt lat="41.9680879" lon="13.2378657"><ele>1330.0</ele><time>2026-05-03T10:09:54.085Z</time></trkpt><trkpt lat="41.9680409" lon="13.23779"><ele>1330.0</ele><time>2026-05-03T10:09:55.072Z</time></trkpt><trkpt lat="41.967993" lon="13.2377046"><ele>1332.0</ele><time>2026-05-03T10:09:56.081Z</time></trkpt><trkpt lat="41.9679412" lon="13.2376106"><ele>1334.0</ele><time>2026-05-03T10:09:57.078Z</time></trkpt><trkpt lat="41.9678889" lon="13.2375106"><ele>1336.0</ele><time>2026-05-03T10:09:58.09Z</time></trkpt><trkpt lat="41.9678433" lon="13.2374115"><ele>1338.0</ele><time>2026-05-03T10:09:59.076Z</time></trkpt><trkpt lat="41.9678014" lon="13.2373068"><ele>1340.0</ele><time>2026-05-03T10:10:00.082Z</time></trkpt><trkpt lat="41.9677652" lon="13.2372029"><ele>1342.0</ele><time>2026-05-03T10:10:01.081Z</time></trkpt><trkpt lat="41.9677313" lon="13.2371109"><ele>1345.3333333333333</ele><time>2026-05-03T10:10:02.081Z</time></trkpt><trkpt lat="41.9676991" lon="13.2370131"><ele>1348.6666666666665</ele><time>2026-05-03T10:10:03.082Z</time></trkpt><trkpt lat="41.9676735" lon="13.2369209"><ele>1352.0</ele><time>2026-05-03T10:10:04.087Z</time></trkpt><trkpt lat="41.9676534" lon="13.2368223"><ele>1355.3333333333333</ele><time>2026-05-03T10:10:05.078Z</time></trkpt><trkpt lat="41.9676413" lon="13.2367243"><ele>1358.6666666666667</ele><time>2026-05-03T10:10:06.078Z</time></trkpt><trkpt lat="41.9676319" lon="13.2366152"><ele>1362.0</ele><time>2026-05-03T10:10:07.076Z</time></trkpt><trkpt lat="41.9676225" lon="13.2364964"><ele>1365.1999999999998</ele><time>2026-05-03T10:10:08.072Z</time></trkpt><trkpt lat="41.9676147" lon="13.2363742"><ele>1368.4</ele><time>2026-05-03T10:10:09.074Z</time></trkpt><trkpt lat="41.9676043" lon="13.2362455"><ele>1371.6</ele><time>2026-05-03T10:10:10.075Z</time></trkpt><trkpt lat="41.9675911" lon="13.2361188"><ele>1374.8000000000002</ele><time>2026-05-03T10:10:11.081Z</time></trkpt><trkpt lat="41.967579" lon="13.2360062"><ele>1378.0</ele><time>2026-05-03T10:10:12.076Z</time></trkpt><trkpt lat="41.9675606" lon="13.2358894"><ele>1378.0</ele><time>2026-05-03T10:10:13.079Z</time></trkpt><trkpt lat="41.9675467" lon="13.2357697"><ele>1378.0</ele><time>2026-05-03T10:10:14.082Z</time></trkpt><trkpt lat="41.9675302" lon="13.2356579"><ele>1378.0</ele><time>2026-05-03T10:10:15.077Z</time></trkpt><trkpt lat="41.9675091" lon="13.2355476"><ele>1378.0</ele><time>2026-05-03T10:10:16.076Z</time></trkpt><trkpt lat="41.9674905" lon="13.2354414"><ele>1378.0</ele><time>2026-05-03T10:10:17.073Z</time></trkpt><trkpt lat="41.9674628" lon="13.2353375"><ele>1378.0</ele><time>2026-05-03T10:10:18.076Z</time></trkpt><trkpt lat="41.9674131" lon="13.2352591"><ele>1378.4</ele><time>2026-05-03T10:10:19.071Z</time></trkpt><trkpt lat="41.9673363" lon="13.2352227"><ele>1378.8000000000002</ele><time>2026-05-03T10:10:20.074Z</time></trkpt><trkpt lat="41.9672503" lon="13.2352218"><ele>1379.2</ele><time>2026-05-03T10:10:21.073Z</time></trkpt><trkpt lat="41.967149" lon="13.2352256"><ele>1379.6</ele><time>2026-05-03T10:10:22.068Z</time></trkpt><trkpt lat="41.9670351" lon="13.2352371"><ele>1380.0</ele><time>2026-05-03T10:10:23.068Z</time></trkpt><trkpt lat="41.9669161" lon="13.2352675"><ele>1380.0</ele><time>2026-05-03T10:10:24.072Z</time></trkpt><trkpt lat="41.9668068" lon="13.2352932"><ele>1380.0</ele><time>2026-05-03T10:10:25.082Z</time></trkpt><trkpt lat="41.9666952" lon="13.2353255"><ele>1380.0</ele><time>2026-05-03T10:10:26.069Z</time></trkpt><trkpt lat="41.9665838" lon="13.2353669"><ele>1380.0</ele><time>2026-05-03T10:10:27.074Z</time></trkpt><trkpt lat="41.9664734" lon="13.2354103"><ele>1382.5</ele><time>2026-05-03T10:10:28.077Z</time></trkpt><trkpt lat="41.9663588" lon="13.2354652"><ele>1385.0</ele><time>2026-05-03T10:10:29.084Z</time></trkpt><trkpt lat="41.9662463" lon="13.2355165"><ele>1387.5</ele><time>2026-05-03T10:10:30.073Z</time></trkpt><trkpt lat="41.9661315" lon="13.2355806"><ele>1390.0</ele><time>2026-05-03T10:10:31.08Z</time></trkpt><trkpt lat="41.9660264" lon="13.2356722"><ele>1389.25</ele><time>2026-05-03T10:10:32.076Z</time></trkpt><trkpt lat="41.965929" lon="13.2358003"><ele>1388.5</ele><time>2026-05-03T10:10:33.073Z</time></trkpt><trkpt lat="41.9658374" lon="13.2359381"><ele>1387.75</ele><time>2026-05-03T10:10:34.073Z</time></trkpt><trkpt lat="41.9657528" lon="13.2360374"><ele>1387.0</ele><time>2026-05-03T10:10:35.081Z</time></trkpt><trkpt lat="41.9656686" lon="13.2361175"><ele>1387.0</ele><time>2026-05-03T10:10:36.079Z</time></trkpt><trkpt lat="41.9655693" lon="13.2361939"><ele>1387.0</ele><time>2026-05-03T10:10:37.078Z</time></trkpt><trkpt lat="41.9654575" lon="13.2362402"><ele>1387.0</ele><time>2026-05-03T10:10:38.076Z</time></trkpt><trkpt lat="41.9653323" lon="13.2362588"><ele>1387.0</ele><time>2026-05-03T10:10:39.07Z</time></trkpt><trkpt lat="41.9652063" lon="13.2362968"><ele>1387.0</ele><time>2026-05-03T10:10:40.073Z</time></trkpt><trkpt lat="41.9650907" lon="13.2363703"><ele>1387.0</ele><time>2026-05-03T10:10:41.071Z</time></trkpt><trkpt lat="41.9649867" lon="13.2364515"><ele>1387.0</ele><time>2026-05-03T10:10:42.076Z</time></trkpt><trkpt lat="41.9648769" lon="13.2365326"><ele>1387.0</ele><time>2026-05-03T10:10:43.074Z</time></trkpt><trkpt lat="41.9647685" lon="13.2366188"><ele>1388.0</ele><time>2026-05-03T10:10:44.073Z</time></trkpt><trkpt lat="41.9646621" lon="13.2367049"><ele>1389.0</ele><time>2026-05-03T10:10:45.073Z</time></trkpt><trkpt lat="41.9645549" lon="13.2367982"><ele>1390.0</ele><time>2026-05-03T10:10:46.072Z</time></trkpt><trkpt lat="41.9644507" lon="13.2368954"><ele>1391.0</ele><time>2026-05-03T10:10:47.073Z</time></trkpt><trkpt lat="41.9643411" lon="13.2370016"><ele>1391.0</ele><time>2026-05-03T10:10:48.077Z</time></trkpt><trkpt lat="41.9642411" lon="13.2371106"><ele>1391.0</ele><time>2026-05-03T10:10:49.076Z</time></trkpt><trkpt lat="41.9641456" lon="13.2372379"><ele>1391.0</ele><time>2026-05-03T10:10:50.086Z</time></trkpt><trkpt lat="41.9640548" lon="13.2373656"><ele>1391.0</ele><time>2026-05-03T10:10:51.074Z</time></trkpt><trkpt lat="41.9639572" lon="13.2375014"><ele>1393.5</ele><time>2026-05-03T10:10:52.077Z</time></trkpt><trkpt lat="41.9638582" lon="13.2376376"><ele>1396.0</ele><time>2026-05-03T10:10:53.077Z</time></trkpt><trkpt lat="41.9637551" lon="13.2377763"><ele>1398.5</ele><time>2026-05-03T10:10:54.077Z</time></trkpt><trkpt lat="41.963661" lon="13.2379289"><ele>1401.0</ele><time>2026-05-03T10:10:55.075Z</time></trkpt><trkpt lat="41.963573" lon="13.2380714"><ele>1405.25</ele><time>2026-05-03T10:10:56.074Z</time></trkpt><trkpt lat="41.9634881" lon="13.2382074"><ele>1409.5</ele><time>2026-05-03T10:10:57.075Z</time></trkpt><trkpt lat="41.9633978" lon="13.2383383"><ele>1413.75</ele><time>2026-05-03T10:10:58.073Z</time></trkpt><trkpt lat="41.9633021" lon="13.23847"><ele>1418.0</ele><time>2026-05-03T10:10:59.071Z</time></trkpt><trkpt lat="41.9631998" lon="13.2385959"><ele>1418.0</ele><time>2026-05-03T10:11:00.074Z</time></trkpt><trkpt lat="41.9631029" lon="13.2387145"><ele>1418.0</ele><time>2026-05-03T10:11:01.073Z</time></trkpt><trkpt lat="41.9630132" lon="13.2388243"><ele>1418.0</ele><time>2026-05-03T10:11:02.078Z</time></trkpt><trkpt lat="41.9629194" lon="13.2389466"><ele>1418.0</ele><time>2026-05-03T10:11:03.073Z</time></trkpt><trkpt lat="41.9628168" lon="13.2390649"><ele>1421.0</ele><time>2026-05-03T10:11:04.073Z</time></trkpt><trkpt lat="41.9627178" lon="13.2391681"><ele>1424.0</ele><time>2026-05-03T10:11:05.077Z</time></trkpt><trkpt lat="41.9626154" lon="13.2392741"><ele>1427.0</ele><time>2026-05-03T10:11:06.079Z</time></trkpt><trkpt lat="41.9625088" lon="13.2393815"><ele>1430.0</ele><time>2026-05-03T10:11:07.077Z</time></trkpt><trkpt lat="41.9623984" lon="13.2394932"><ele>1430.0</ele><time>2026-05-03T10:11:08.086Z</time></trkpt><trkpt lat="41.9622913" lon="13.2395971"><ele>1430.0</ele><time>2026-05-03T10:11:09.076Z</time></trkpt><trkpt lat="41.9621705" lon="13.2397087"><ele>1430.0</ele><time>2026-05-03T10:11:10.08Z</time></trkpt><trkpt lat="41.9620525" lon="13.2398214"><ele>1430.0</ele><time>2026-05-03T10:11:11.077Z</time></trkpt><trkpt lat="41.9619385" lon="13.239925"><ele>1430.0</ele><time>2026-05-03T10:11:12.078Z</time></trkpt><trkpt lat="41.961831" lon="13.2400386"><ele>1430.0</ele><time>2026-05-03T10:11:13.072Z</time></trkpt><trkpt lat="41.9617236" lon="13.240145"><ele>1430.0</ele><time>2026-05-03T10:11:14.072Z</time></trkpt><trkpt lat="41.9616057" lon="13.240249"><ele>1430.0</ele><time>2026-05-03T10:11:15.069Z</time></trkpt><trkpt lat="41.9614807" lon="13.240346"><ele>1430.0</ele><time>2026-05-03T10:11:16.072Z</time></trkpt><trkpt lat="41.9613546" lon="13.240428"><ele>1430.0</ele><time>2026-05-03T10:11:17.077Z</time></trkpt><trkpt lat="41.9612163" lon="13.2404945"><ele>1430.0</ele><time>2026-05-03T10:11:18.075Z</time></trkpt><trkpt lat="41.9610727" lon="13.2405583"><ele>1430.0</ele><time>2026-05-03T10:11:19.078Z</time></trkpt><trkpt lat="41.9609286" lon="13.240628"><ele>1429.25</ele><time>2026-05-03T10:11:20.074Z</time></trkpt><trkpt lat="41.9607849" lon="13.2406844"><ele>1428.5</ele><time>2026-05-03T10:11:21.08Z</time></trkpt><trkpt lat="41.9606471" lon="13.240743"><ele>1427.75</ele><time>2026-05-03T10:11:22.073Z</time></trkpt><trkpt lat="41.9605132" lon="13.2407846"><ele>1427.0</ele><time>2026-05-03T10:11:23.073Z</time></trkpt><trkpt lat="41.9603736" lon="13.240812"><ele>1427.0</ele><time>2026-05-03T10:11:24.072Z</time></trkpt><trkpt lat="41.9602367" lon="13.2408365"><ele>1427.0</ele><time>2026-05-03T10:11:25.078Z</time></trkpt><trkpt lat="41.9601057" lon="13.240845"><ele>1427.0</ele><time>2026-05-03T10:11:26.075Z</time></trkpt><trkpt lat="41.959996" lon="13.2408081"><ele>1427.0</ele><time>2026-05-03T10:11:27.072Z</time></trkpt><trkpt lat="41.9598961" lon="13.2407639"><ele>1428.8</ele><time>2026-05-03T10:11:28.076Z</time></trkpt><trkpt lat="41.9597987" lon="13.2407189"><ele>1430.6</ele><time>2026-05-03T10:11:29.08Z</time></trkpt><trkpt lat="41.9597079" lon="13.2406512"><ele>1432.3999999999999</ele><time>2026-05-03T10:11:30.078Z</time></trkpt><trkpt lat="41.9596331" lon="13.2405782"><ele>1434.1999999999998</ele><time>2026-05-03T10:11:31.071Z</time></trkpt><trkpt lat="41.9595635" lon="13.2405023"><ele>1436.0</ele><time>2026-05-03T10:11:32.072Z</time></trkpt><trkpt lat="41.9595033" lon="13.2404179"><ele>1440.0</ele><time>2026-05-03T10:11:33.076Z</time></trkpt><trkpt lat="41.959451" lon="13.2403454"><ele>1444.0</ele><time>2026-05-03T10:11:34.079Z</time></trkpt><trkpt lat="41.9593988" lon="13.2402967"><ele>1448.0</ele><time>2026-05-03T10:11:35.075Z</time></trkpt><trkpt lat="41.9593321" lon="13.2402597"><ele>1452.0</ele><time>2026-05-03T10:11:36.076Z</time></trkpt><trkpt lat="41.9592596" lon="13.2402519"><ele>1456.0</ele><time>2026-05-03T10:11:37.077Z</time></trkpt><trkpt lat="41.9591853" lon="13.2402777"><ele>1460.0</ele><time>2026-05-03T10:11:38.07Z</time></trkpt><trkpt lat="41.9591157" lon="13.2403035"><ele>1464.0</ele><time>2026-05-03T10:11:39.069Z</time></trkpt><trkpt lat="41.9590309" lon="13.2403645"><ele>1464.0</ele><time>2026-05-03T10:11:40.075Z</time></trkpt><trkpt lat="41.9589381" lon="13.2404435"><ele>1464.0</ele><time>2026-05-03T10:11:41.075Z</time></trkpt><trkpt lat="41.9588364" lon="13.2405418"><ele>1464.0</ele><time>2026-05-03T10:11:42.075Z</time></trkpt><trkpt lat="41.9587253" lon="13.2406467"><ele>1464.0</ele><time>2026-05-03T10:11:43.076Z</time></trkpt><trkpt lat="41.958617" lon="13.240753"><ele>1462.5</ele><time>2026-05-03T10:11:44.074Z</time></trkpt><trkpt lat="41.9585034" lon="13.2408484"><ele>1461.0</ele><time>2026-05-03T10:11:45.077Z</time></trkpt><trkpt lat="41.9583876" lon="13.240948"><ele>1459.5</ele><time>2026-05-03T10:11:46.069Z</time></trkpt><trkpt lat="41.9582757" lon="13.2410263"><ele>1458.0</ele><time>2026-05-03T10:11:47.073Z</time></trkpt><trkpt lat="41.9581658" lon="13.2410934"><ele>1458.0</ele><time>2026-05-03T10:11:48.079Z</time></trkpt><trkpt lat="41.9580662" lon="13.2411422"><ele>1458.0</ele><time>2026-05-03T10:11:49.076Z</time></trkpt><trkpt lat="41.957976" lon="13.2411673"><ele>1458.0</ele><time>2026-05-03T10:11:50.081Z</time></trkpt><trkpt lat="41.957887" lon="13.2411797"><ele>1458.0</ele><time>2026-05-03T10:11:51.089Z</time></trkpt><trkpt lat="41.9577973" lon="13.2411896"><ele>1458.0</ele><time>2026-05-03T10:11:52.073Z</time></trkpt><trkpt lat="41.9577166" lon="13.2411966"><ele>1458.0</ele><time>2026-05-03T10:11:53.077Z</time></trkpt><trkpt lat="41.9576433" lon="13.2412104"><ele>1458.0</ele><time>2026-05-03T10:11:54.073Z</time></trkpt><trkpt lat="41.9575723" lon="13.2412218"><ele>1458.0</ele><time>2026-05-03T10:11:55.083Z</time></trkpt><trkpt lat="41.9575009" lon="13.2412393"><ele>1458.0</ele><time>2026-05-03T10:11:56.078Z</time></trkpt><trkpt lat="41.9574347" lon="13.2412571"><ele>1458.0</ele><time>2026-05-03T10:11:57.077Z</time></trkpt><trkpt lat="41.9573421" lon="13.241292"><ele>1458.0</ele><time>2026-05-03T10:11:59.073Z</time></trkpt><trkpt lat="41.9572702" lon="13.2413355"><ele>1458.3333333333333</ele><time>2026-05-03T10:12:01.074Z</time></trkpt><trkpt lat="41.9572023" lon="13.2413912"><ele>1458.6666666666667</ele><time>2026-05-03T10:12:03.077Z</time></trkpt><trkpt lat="41.9571368" lon="13.2414332"><ele>1459.0</ele><time>2026-05-03T10:12:05.082Z</time></trkpt><trkpt lat="41.9570651" lon="13.2414775"><ele>1459.3333333333335</ele><time>2026-05-03T10:12:07.088Z</time></trkpt><trkpt lat="41.9569631" lon="13.2415024"><ele>1459.6666666666667</ele><time>2026-05-03T10:12:09.086Z</time></trkpt><trkpt lat="41.9568638" lon="13.2415293"><ele>1460.0</ele><time>2026-05-03T10:12:11.08Z</time></trkpt><trkpt lat="41.9567838" lon="13.2415895"><ele>1457.1666666666667</ele><time>2026-05-03T10:12:13.082Z</time></trkpt><trkpt lat="41.9567322" lon="13.2416699"><ele>1454.3333333333335</ele><time>2026-05-03T10:12:15.078Z</time></trkpt><trkpt lat="41.9567523" lon="13.2417667"><ele>1451.5</ele><time>2026-05-03T10:12:17.077Z</time></trkpt><trkpt lat="41.9568114" lon="13.2418093"><ele>1448.6666666666667</ele><time>2026-05-03T10:12:19.081Z</time></trkpt><trkpt lat="41.956897" lon="13.2418221"><ele>1445.8333333333333</ele><time>2026-05-03T10:12:21.077Z</time></trkpt><trkpt lat="41.9569935" lon="13.2418204"><ele>1443.0</ele><time>2026-05-03T10:12:23.08Z</time></trkpt><trkpt lat="41.9570884" lon="13.2417813"><ele>1443.0</ele><time>2026-05-03T10:12:25.081Z</time></trkpt><trkpt lat="41.9571769" lon="13.2417195"><ele>1443.0</ele><time>2026-05-03T10:12:27.079Z</time></trkpt><trkpt lat="41.9572562" lon="13.2416484"><ele>1443.0</ele><time>2026-05-03T10:12:29.081Z</time></trkpt><trkpt lat="41.9573257" lon="13.2415756"><ele>1443.0</ele><time>2026-05-03T10:12:31.082Z</time></trkpt><trkpt lat="41.957382" lon="13.2415171"><ele>1443.0</ele><time>2026-05-03T10:12:33.078Z</time></trkpt><trkpt lat="41.9574415" lon="13.2414581"><ele>1443.0</ele><time>2026-05-03T10:12:35.075Z</time></trkpt><trkpt lat="41.9574838" lon="13.2413644"><ele>1460.0</ele><time>2026-05-03T10:12:37.073Z</time></trkpt><trkpt lat="41.9575112" lon="13.2412573"><ele>1460.0</ele><time>2026-05-03T10:12:39.079Z</time></trkpt><trkpt lat="41.9575625" lon="13.2411771"><ele>1458.0</ele><time>2026-05-03T10:12:42.076Z</time></trkpt></trkseg><trkseg><trkpt lat="41.9575041" lon="13.2412757"><ele>1460.0</ele><time>2026-05-03T11:19:59.074Z</time></trkpt><trkpt lat="41.9574256" lon="13.2412816"><ele>1460.0</ele><time>2026-05-03T11:20:03.065Z</time></trkpt><trkpt lat="41.9573459" lon="13.2412921"><ele>1460.0</ele><time>2026-05-03T11:20:06.071Z</time></trkpt><trkpt lat="41.9572666" lon="13.2412864"><ele>1460.0</ele><time>2026-05-03T11:20:08.07Z</time></trkpt><trkpt lat="41.9571702" lon="13.2412796"><ele>1460.0</ele><time>2026-05-03T11:20:10.07Z</time></trkpt><trkpt lat="41.9570753" lon="13.2413028"><ele>1460.0</ele><time>2026-05-03T11:20:12.068Z</time></trkpt><trkpt lat="41.9569766" lon="13.2413326"><ele>1460.0</ele><time>2026-05-03T11:20:14.073Z</time></trkpt><trkpt lat="41.9568752" lon="13.2413471"><ele>1460.0</ele><time>2026-05-03T11:20:16.086Z</time></trkpt><trkpt lat="41.9567689" lon="13.2413515"><ele>1460.0</ele><time>2026-05-03T11:20:18.069Z</time></trkpt><trkpt lat="41.9566726" lon="13.2413862"><ele>1460.0</ele><time>2026-05-03T11:20:20.065Z</time></trkpt><trkpt lat="41.9565833" lon="13.2414582"><ele>1460.0</ele><time>2026-05-03T11:20:22.077Z</time></trkpt><trkpt lat="41.9564984" lon="13.2415505"><ele>1454.25</ele><time>2026-05-03T11:20:24.074Z</time></trkpt><trkpt lat="41.9564171" lon="13.2416578"><ele>1448.5</ele><time>2026-05-03T11:20:26.068Z</time></trkpt><trkpt lat="41.9563477" lon="13.2417988"><ele>1442.75</ele><time>2026-05-03T11:20:28.07Z</time></trkpt><trkpt lat="41.956323" lon="13.2419488"><ele>1437.0</ele><time>2026-05-03T11:20:30.064Z</time></trkpt><trkpt lat="41.9563383" lon="13.2421159"><ele>1437.0</ele><time>2026-05-03T11:20:32.064Z</time></trkpt><trkpt lat="41.9563646" lon="13.24227"><ele>1437.0</ele><time>2026-05-03T11:20:34.066Z</time></trkpt><trkpt lat="41.9564" lon="13.2424293"><ele>1437.0</ele><time>2026-05-03T11:20:36.067Z</time></trkpt><trkpt lat="41.9564141" lon="13.2425266"><ele>1437.0</ele><time>2026-05-03T11:20:37.063Z</time></trkpt><trkpt lat="41.9564247" lon="13.2426287"><ele>1437.0</ele><time>2026-05-03T11:20:38.064Z</time></trkpt><trkpt lat="41.9564328" lon="13.2427326"><ele>1437.5</ele><time>2026-05-03T11:20:39.06Z</time></trkpt><trkpt lat="41.956444" lon="13.2428443"><ele>1438.0</ele><time>2026-05-03T11:20:40.067Z</time></trkpt><trkpt lat="41.9564529" lon="13.2429612"><ele>1438.5</ele><time>2026-05-03T11:20:41.074Z</time></trkpt><trkpt lat="41.9564547" lon="13.2430824"><ele>1439.0</ele><time>2026-05-03T11:20:42.075Z</time></trkpt><trkpt lat="41.9564623" lon="13.2432089"><ele>1439.5</ele><time>2026-05-03T11:20:43.069Z</time></trkpt><trkpt lat="41.9564644" lon="13.2433224"><ele>1440.0</ele><time>2026-05-03T11:20:44.069Z</time></trkpt><trkpt lat="41.9564585" lon="13.2434305"><ele>1439.1666666666667</ele><time>2026-05-03T11:20:45.064Z</time></trkpt><trkpt lat="41.9564537" lon="13.2435354"><ele>1438.3333333333333</ele><time>2026-05-03T11:20:46.096Z</time></trkpt><trkpt lat="41.9564461" lon="13.2436469"><ele>1437.5</ele><time>2026-05-03T11:20:47.073Z</time></trkpt><trkpt lat="41.9564315" lon="13.243752"><ele>1436.6666666666665</ele><time>2026-05-03T11:20:48.064Z</time></trkpt><trkpt lat="41.9564107" lon="13.2438498"><ele>1435.8333333333333</ele><time>2026-05-03T11:20:49.069Z</time></trkpt><trkpt lat="41.9563856" lon="13.2439537"><ele>1435.0</ele><time>2026-05-03T11:20:50.066Z</time></trkpt><trkpt lat="41.9563598" lon="13.244059"><ele>1435.0</ele><time>2026-05-03T11:20:51.073Z</time></trkpt><trkpt lat="41.9563382" lon="13.2441653"><ele>1435.0</ele><time>2026-05-03T11:20:52.069Z</time></trkpt><trkpt lat="41.956318" lon="13.2442767"><ele>1435.0</ele><time>2026-05-03T11:20:53.067Z</time></trkpt><trkpt lat="41.9562912" lon="13.2443986"><ele>1435.0</ele><time>2026-05-03T11:20:54.061Z</time></trkpt><trkpt lat="41.9562533" lon="13.244548"><ele>1435.0</ele><time>2026-05-03T11:20:55.064Z</time></trkpt><trkpt lat="41.9562163" lon="13.2447068"><ele>1438.25</ele><time>2026-05-03T11:20:56.064Z</time></trkpt><trkpt lat="41.9561712" lon="13.2448567"><ele>1441.5</ele><time>2026-05-03T11:20:57.065Z</time></trkpt><trkpt lat="41.9561145" lon="13.2450021"><ele>1444.75</ele><time>2026-05-03T11:20:58.074Z</time></trkpt><trkpt lat="41.9560351" lon="13.2451266"><ele>1448.0</ele><time>2026-05-03T11:20:59.066Z</time></trkpt><trkpt lat="41.9559381" lon="13.2452341"><ele>1434.75</ele><time>2026-05-03T11:21:00.066Z</time></trkpt><trkpt lat="41.955838" lon="13.2453307"><ele>1421.5</ele><time>2026-05-03T11:21:01.072Z</time></trkpt><trkpt lat="41.9557434" lon="13.2454248"><ele>1408.25</ele><time>2026-05-03T11:21:02.066Z</time></trkpt><trkpt lat="41.9556545" lon="13.2455136"><ele>1395.0</ele><time>2026-05-03T11:21:03.068Z</time></trkpt><trkpt lat="41.9555747" lon="13.2456113"><ele>1399.75</ele><time>2026-05-03T11:21:04.086Z</time></trkpt><trkpt lat="41.9555082" lon="13.245722"><ele>1404.5</ele><time>2026-05-03T11:21:05.068Z</time></trkpt><trkpt lat="41.95546" lon="13.2458542"><ele>1409.25</ele><time>2026-05-03T11:21:06.062Z</time></trkpt><trkpt lat="41.9554245" lon="13.2460111"><ele>1414.0</ele><time>2026-05-03T11:21:07.063Z</time></trkpt><trkpt lat="41.9554087" lon="13.2461743"><ele>1414.0</ele><time>2026-05-03T11:21:08.066Z</time></trkpt><trkpt lat="41.9554022" lon="13.246329"><ele>1414.0</ele><time>2026-05-03T11:21:09.066Z</time></trkpt><trkpt lat="41.9553962" lon="13.2464836"><ele>1414.0</ele><time>2026-05-03T11:21:10.065Z</time></trkpt><trkpt lat="41.9553829" lon="13.2466366"><ele>1414.0</ele><time>2026-05-03T11:21:11.063Z</time></trkpt><trkpt lat="41.955352" lon="13.2467811"><ele>1416.25</ele><time>2026-05-03T11:21:12.058Z</time></trkpt><trkpt lat="41.9552992" lon="13.2469106"><ele>1418.5</ele><time>2026-05-03T11:21:13.074Z</time></trkpt><trkpt lat="41.9552368" lon="13.2470429"><ele>1420.75</ele><time>2026-05-03T11:21:14.063Z</time></trkpt><trkpt lat="41.9551596" lon="13.2471741"><ele>1423.0</ele><time>2026-05-03T11:21:15.068Z</time></trkpt><trkpt lat="41.955079" lon="13.2472922"><ele>1415.6000000000001</ele><time>2026-05-03T11:21:16.061Z</time></trkpt><trkpt lat="41.9550022" lon="13.2474174"><ele>1408.2</ele><time>2026-05-03T11:21:17.06Z</time></trkpt><trkpt lat="41.9549285" lon="13.2475394"><ele>1400.8</ele><time>2026-05-03T11:21:18.064Z</time></trkpt><trkpt lat="41.9548591" lon="13.2476484"><ele>1393.4</ele><time>2026-05-03T11:21:19.066Z</time></trkpt><trkpt lat="41.9547939" lon="13.2477498"><ele>1386.0</ele><time>2026-05-03T11:21:20.063Z</time></trkpt><trkpt lat="41.9547329" lon="13.2478489"><ele>1386.0</ele><time>2026-05-03T11:21:21.073Z</time></trkpt><trkpt lat="41.9546789" lon="13.2479537"><ele>1386.0</ele><time>2026-05-03T11:21:22.06Z</time></trkpt><trkpt lat="41.9546325" lon="13.2480631"><ele>1386.0</ele><time>2026-05-03T11:21:23.065Z</time></trkpt><trkpt lat="41.9545882" lon="13.2481728"><ele>1386.0</ele><time>2026-05-03T11:21:24.062Z</time></trkpt><trkpt lat="41.9545556" lon="13.248276"><ele>1386.0</ele><time>2026-05-03T11:21:25.064Z</time></trkpt><trkpt lat="41.9545343" lon="13.2483766"><ele>1386.0</ele><time>2026-05-03T11:21:26.072Z</time></trkpt><trkpt lat="41.9545211" lon="13.2484802"><ele>1388.2857142857142</ele><time>2026-05-03T11:21:27.072Z</time></trkpt><trkpt lat="41.9545296" lon="13.2485797"><ele>1390.5714285714284</ele><time>2026-05-03T11:21:28.078Z</time></trkpt><trkpt lat="41.9545552" lon="13.2486828"><ele>1392.857142857143</ele><time>2026-05-03T11:21:29.075Z</time></trkpt><trkpt lat="41.9545766" lon="13.2487722"><ele>1395.142857142857</ele><time>2026-05-03T11:21:30.065Z</time></trkpt><trkpt lat="41.954579" lon="13.2488674"><ele>1397.4285714285713</ele><time>2026-05-03T11:21:31.079Z</time></trkpt><trkpt lat="41.9545773" lon="13.248967"><ele>1399.7142857142858</ele><time>2026-05-03T11:21:32.069Z</time></trkpt><trkpt lat="41.9545685" lon="13.2490699"><ele>1402.0</ele><time>2026-05-03T11:21:33.069Z</time></trkpt><trkpt lat="41.9545579" lon="13.2491707"><ele>1402.0</ele><time>2026-05-03T11:21:34.07Z</time></trkpt><trkpt lat="41.9545474" lon="13.2492664"><ele>1402.0</ele><time>2026-05-03T11:21:35.073Z</time></trkpt><trkpt lat="41.9545432" lon="13.2493624"><ele>1402.0</ele><time>2026-05-03T11:21:36.067Z</time></trkpt><trkpt lat="41.9545522" lon="13.2494486"><ele>1402.0</ele><time>2026-05-03T11:21:37.071Z</time></trkpt><trkpt lat="41.9545736" lon="13.2495348"><ele>1402.0</ele><time>2026-05-03T11:21:38.06Z</time></trkpt><trkpt lat="41.9546104" lon="13.2496253"><ele>1402.0</ele><time>2026-05-03T11:21:39.071Z</time></trkpt><trkpt lat="41.9546422" lon="13.2497037"><ele>1402.0</ele><time>2026-05-03T11:21:40.075Z</time></trkpt><trkpt lat="41.9546733" lon="13.2497961"><ele>1400.5</ele><time>2026-05-03T11:21:41.068Z</time></trkpt><trkpt lat="41.9547039" lon="13.2498917"><ele>1399.0</ele><time>2026-05-03T11:21:42.07Z</time></trkpt><trkpt lat="41.9547125" lon="13.2499922"><ele>1397.5</ele><time>2026-05-03T11:21:43.068Z</time></trkpt><trkpt lat="41.9547125" lon="13.2500974"><ele>1396.0</ele><time>2026-05-03T11:21:44.089Z</time></trkpt><trkpt lat="41.9547043" lon="13.2502041"><ele>1394.5</ele><time>2026-05-03T11:21:45.062Z</time></trkpt><trkpt lat="41.9547023" lon="13.2503041"><ele>1393.0</ele><time>2026-05-03T11:21:46.069Z</time></trkpt><trkpt lat="41.9547012" lon="13.2503958"><ele>1393.0</ele><time>2026-05-03T11:21:47.067Z</time></trkpt><trkpt lat="41.9546879" lon="13.2504869"><ele>1393.0</ele><time>2026-05-03T11:21:48.068Z</time></trkpt><trkpt lat="41.9546714" lon="13.2505847"><ele>1393.0</ele><time>2026-05-03T11:21:49.066Z</time></trkpt><trkpt lat="41.9546473" lon="13.2506772"><ele>1393.0</ele><time>2026-05-03T11:21:50.071Z</time></trkpt><trkpt lat="41.9546073" lon="13.2507844"><ele>1393.0</ele><time>2026-05-03T11:21:51.069Z</time></trkpt><trkpt lat="41.9545387" lon="13.2509282"><ele>1393.0</ele><time>2026-05-03T11:21:52.058Z</time></trkpt><trkpt lat="41.9544692" lon="13.2510612"><ele>1392.4</ele><time>2026-05-03T11:21:53.058Z</time></trkpt><trkpt lat="41.9544146" lon="13.2511822"><ele>1391.8000000000002</ele><time>2026-05-03T11:21:54.067Z</time></trkpt><trkpt lat="41.9543575" lon="13.251279"><ele>1391.2</ele><time>2026-05-03T11:21:55.057Z</time></trkpt><trkpt lat="41.9542971" lon="13.2513785"><ele>1390.6</ele><time>2026-05-03T11:21:56.06Z</time></trkpt><trkpt lat="41.9542308" lon="13.2514641"><ele>1390.0</ele><time>2026-05-03T11:21:57.065Z</time></trkpt><trkpt lat="41.9541675" lon="13.251546"><ele>1383.8333333333333</ele><time>2026-05-03T11:21:58.067Z</time></trkpt><trkpt lat="41.9540997" lon="13.25162"><ele>1377.6666666666665</ele><time>2026-05-03T11:21:59.053Z</time></trkpt><trkpt lat="41.9540357" lon="13.2516829"><ele>1371.5</ele><time>2026-05-03T11:22:00.062Z</time></trkpt><trkpt lat="41.9539784" lon="13.2517483"><ele>1365.3333333333333</ele><time>2026-05-03T11:22:01.067Z</time></trkpt><trkpt lat="41.95392" lon="13.2518074"><ele>1359.1666666666667</ele><time>2026-05-03T11:22:02.058Z</time></trkpt><trkpt lat="41.9538705" lon="13.2518712"><ele>1353.0</ele><time>2026-05-03T11:22:03.067Z</time></trkpt><trkpt lat="41.9538453" lon="13.2520346"><ele>1353.0</ele><time>2026-05-03T11:22:05.064Z</time></trkpt><trkpt lat="41.9538466" lon="13.2521306"><ele>1353.0</ele><time>2026-05-03T11:22:06.065Z</time></trkpt><trkpt lat="41.9538446" lon="13.2522209"><ele>1353.0</ele><time>2026-05-03T11:22:07.056Z</time></trkpt><trkpt lat="41.9538276" lon="13.2523118"><ele>1353.0</ele><time>2026-05-03T11:22:08.058Z</time></trkpt><trkpt lat="41.9537964" lon="13.2524001"><ele>1353.0</ele><time>2026-05-03T11:22:09.06Z</time></trkpt><trkpt lat="41.9537511" lon="13.2524729"><ele>1353.0</ele><time>2026-05-03T11:22:10.059Z</time></trkpt><trkpt lat="41.953698" lon="13.2525419"><ele>1353.0</ele><time>2026-05-03T11:22:11.054Z</time></trkpt><trkpt lat="41.9536412" lon="13.2526053"><ele>1355.7142857142858</ele><time>2026-05-03T11:22:12.059Z</time></trkpt><trkpt lat="41.9535806" lon="13.252655"><ele>1358.4285714285713</ele><time>2026-05-03T11:22:13.064Z</time></trkpt><trkpt lat="41.9535168" lon="13.2527061"><ele>1361.142857142857</ele><time>2026-05-03T11:22:14.058Z</time></trkpt><trkpt lat="41.9534512" lon="13.2527461"><ele>1363.857142857143</ele><time>2026-05-03T11:22:15.057Z</time></trkpt><trkpt lat="41.9533844" lon="13.2527822"><ele>1366.5714285714284</ele><time>2026-05-03T11:22:16.06Z</time></trkpt><trkpt lat="41.9533116" lon="13.2528043"><ele>1369.2857142857142</ele><time>2026-05-03T11:22:17.061Z</time></trkpt><trkpt lat="41.9532362" lon="13.2528119"><ele>1372.0</ele><time>2026-05-03T11:22:18.055Z</time></trkpt><trkpt lat="41.9531539" lon="13.2528139"><ele>1365.0</ele><time>2026-05-03T11:22:19.061Z</time></trkpt><trkpt lat="41.953078" lon="13.2528162"><ele>1358.0</ele><time>2026-05-03T11:22:20.086Z</time></trkpt><trkpt lat="41.9530032" lon="13.2528269"><ele>1351.0</ele><time>2026-05-03T11:22:21.064Z</time></trkpt><trkpt lat="41.9529193" lon="13.2528571"><ele>1344.0</ele><time>2026-05-03T11:22:22.056Z</time></trkpt><trkpt lat="41.95283" lon="13.2529068"><ele>1337.0</ele><time>2026-05-03T11:22:23.056Z</time></trkpt><trkpt lat="41.9527403" lon="13.2529794"><ele>1330.0</ele><time>2026-05-03T11:22:24.057Z</time></trkpt><trkpt lat="41.9526259" lon="13.2530999"><ele>1330.0</ele><time>2026-05-03T11:22:25.055Z</time></trkpt><trkpt lat="41.9524846" lon="13.2532202"><ele>1330.0</ele><time>2026-05-03T11:22:26.052Z</time></trkpt><trkpt lat="41.9523487" lon="13.2533495"><ele>1330.0</ele><time>2026-05-03T11:22:27.058Z</time></trkpt><trkpt lat="41.9522264" lon="13.2534711"><ele>1330.0</ele><time>2026-05-03T11:22:28.058Z</time></trkpt><trkpt lat="41.9521212" lon="13.2536062"><ele>1330.0</ele><time>2026-05-03T11:22:29.06Z</time></trkpt><trkpt lat="41.9520478" lon="13.253764"><ele>1330.0</ele><time>2026-05-03T11:22:30.056Z</time></trkpt><trkpt lat="41.9519925" lon="13.2539336"><ele>1330.0</ele><time>2026-05-03T11:22:31.064Z</time></trkpt><trkpt lat="41.9519411" lon="13.2540887"><ele>1329.0</ele><time>2026-05-03T11:22:32.057Z</time></trkpt><trkpt lat="41.9518898" lon="13.2541986"><ele>1328.0</ele><time>2026-05-03T11:22:33.056Z</time></trkpt><trkpt lat="41.9518124" lon="13.2542662"><ele>1327.0</ele><time>2026-05-03T11:22:34.068Z</time></trkpt><trkpt lat="41.9517292" lon="13.254269"><ele>1326.0</ele><time>2026-05-03T11:22:35.054Z</time></trkpt><trkpt lat="41.9516487" lon="13.2542172"><ele>1325.0</ele><time>2026-05-03T11:22:36.055Z</time></trkpt><trkpt lat="41.9515706" lon="13.2541287"><ele>1325.0</ele><time>2026-05-03T11:22:37.058Z</time></trkpt><trkpt lat="41.951476" lon="13.2540182"><ele>1325.0</ele><time>2026-05-03T11:22:38.055Z</time></trkpt><trkpt lat="41.9513838" lon="13.2539084"><ele>1325.0</ele><time>2026-05-03T11:22:39.063Z</time></trkpt><trkpt lat="41.9512867" lon="13.2538037"><ele>1325.0</ele><time>2026-05-03T11:22:40.063Z</time></trkpt><trkpt lat="41.9512019" lon="13.2536868"><ele>1318.25</ele><time>2026-05-03T11:22:41.057Z</time></trkpt><trkpt lat="41.9511234" lon="13.2535541"><ele>1311.5</ele><time>2026-05-03T11:22:42.055Z</time></trkpt><trkpt lat="41.9510548" lon="13.2534137"><ele>1304.75</ele><time>2026-05-03T11:22:43.052Z</time></trkpt><trkpt lat="41.9509937" lon="13.2532697"><ele>1298.0</ele><time>2026-05-03T11:22:44.055Z</time></trkpt><trkpt lat="41.9509512" lon="13.2530979"><ele>1300.25</ele><time>2026-05-03T11:22:45.05Z</time></trkpt><trkpt lat="41.9509157" lon="13.2529071"><ele>1302.5</ele><time>2026-05-03T11:22:46.058Z</time></trkpt><trkpt lat="41.9508862" lon="13.2527251"><ele>1304.75</ele><time>2026-05-03T11:22:47.054Z</time></trkpt><trkpt lat="41.9508481" lon="13.2525392"><ele>1307.0</ele><time>2026-05-03T11:22:48.054Z</time></trkpt><trkpt lat="41.950788" lon="13.2523513"><ele>1299.75</ele><time>2026-05-03T11:22:49.054Z</time></trkpt><trkpt lat="41.9507088" lon="13.2521783"><ele>1292.5</ele><time>2026-05-03T11:22:50.058Z</time></trkpt><trkpt lat="41.9506184" lon="13.2520099"><ele>1285.25</ele><time>2026-05-03T11:22:51.068Z</time></trkpt><trkpt lat="41.9505327" lon="13.2518598"><ele>1278.0</ele><time>2026-05-03T11:22:52.057Z</time></trkpt><trkpt lat="41.9504294" lon="13.2517257"><ele>1278.0</ele><time>2026-05-03T11:22:53.059Z</time></trkpt><trkpt lat="41.9503162" lon="13.2516167"><ele>1278.0</ele><time>2026-05-03T11:22:54.054Z</time></trkpt><trkpt lat="41.9502201" lon="13.251471"><ele>1278.0</ele><time>2026-05-03T11:22:55.057Z</time></trkpt><trkpt lat="41.9501483" lon="13.2513011"><ele>1278.0</ele><time>2026-05-03T11:22:56.073Z</time></trkpt><trkpt lat="41.9500901" lon="13.2511449"><ele>1283.6</ele><time>2026-05-03T11:22:57.057Z</time></trkpt><trkpt lat="41.9500347" lon="13.2510015"><ele>1289.1999999999998</ele><time>2026-05-03T11:22:58.052Z</time></trkpt><trkpt lat="41.9499813" lon="13.2508883"><ele>1294.8</ele><time>2026-05-03T11:22:59.059Z</time></trkpt><trkpt lat="41.9499521" lon="13.2508019"><ele>1300.3999999999999</ele><time>2026-05-03T11:23:00.057Z</time></trkpt><trkpt lat="41.9499811" lon="13.2507149"><ele>1306.0</ele><time>2026-05-03T11:23:02.065Z</time></trkpt><trkpt lat="41.9500509" lon="13.2508388"><ele>1292.0</ele><time>2026-05-03T11:23:04.063Z</time></trkpt><trkpt lat="41.9500965" lon="13.2509468"><ele>1278.0</ele><time>2026-05-03T11:23:05.057Z</time></trkpt><trkpt lat="41.9501588" lon="13.2510667"><ele>1264.0</ele><time>2026-05-03T11:23:06.054Z</time></trkpt><trkpt lat="41.9502373" lon="13.2512044"><ele>1250.0</ele><time>2026-05-03T11:23:07.057Z</time></trkpt><trkpt lat="41.9503251" lon="13.2513397"><ele>1257.0</ele><time>2026-05-03T11:23:08.057Z</time></trkpt><trkpt lat="41.9504279" lon="13.2514692"><ele>1264.0</ele><time>2026-05-03T11:23:09.088Z</time></trkpt><trkpt lat="41.9505469" lon="13.2515634"><ele>1271.0</ele><time>2026-05-03T11:23:10.062Z</time></trkpt><trkpt lat="41.9506726" lon="13.2516415"><ele>1278.0</ele><time>2026-05-03T11:23:11.058Z</time></trkpt><trkpt lat="41.9507915" lon="13.2517422"><ele>1267.6666666666667</ele><time>2026-05-03T11:23:12.064Z</time></trkpt><trkpt lat="41.9508985" lon="13.2518769"><ele>1257.3333333333335</ele><time>2026-05-03T11:23:13.056Z</time></trkpt><trkpt lat="41.9510149" lon="13.2520152"><ele>1247.0</ele><time>2026-05-03T11:23:14.091Z</time></trkpt><trkpt lat="41.9511368" lon="13.2521436"><ele>1247.0</ele><time>2026-05-03T11:23:15.06Z</time></trkpt><trkpt lat="41.9512495" lon="13.2522798"><ele>1247.0</ele><time>2026-05-03T11:23:16.056Z</time></trkpt><trkpt lat="41.9513367" lon="13.2524359"><ele>1247.0</ele><time>2026-05-03T11:23:17.055Z</time></trkpt><trkpt lat="41.9513916" lon="13.252587"><ele>1247.0</ele><time>2026-05-03T11:23:18.058Z</time></trkpt><trkpt lat="41.9514542" lon="13.2527137"><ele>1252.0</ele><time>2026-05-03T11:23:19.057Z</time></trkpt><trkpt lat="41.9515338" lon="13.2527825"><ele>1257.0</ele><time>2026-05-03T11:23:20.057Z</time></trkpt><trkpt lat="41.9516165" lon="13.2527974"><ele>1262.0</ele><time>2026-05-03T11:23:21.057Z</time></trkpt><trkpt lat="41.9517197" lon="13.2527337"><ele>1267.0</ele><time>2026-05-03T11:23:22.054Z</time></trkpt><trkpt lat="41.9518327" lon="13.252632"><ele>1272.0</ele><time>2026-05-03T11:23:23.055Z</time></trkpt><trkpt lat="41.9519579" lon="13.2525181"><ele>1268.0</ele><time>2026-05-03T11:23:24.054Z</time></trkpt><trkpt lat="41.9520926" lon="13.2524057"><ele>1264.0</ele><time>2026-05-03T11:23:25.056Z</time></trkpt><trkpt lat="41.9522278" lon="13.252276"><ele>1260.0</ele><time>2026-05-03T11:23:26.052Z</time></trkpt><trkpt lat="41.9523553" lon="13.25217"><ele>1260.0</ele><time>2026-05-03T11:23:27.055Z</time></trkpt><trkpt lat="41.9524828" lon="13.2520817"><ele>1260.0</ele><time>2026-05-03T11:23:28.058Z</time></trkpt><trkpt lat="41.9525717" lon="13.2520269"><ele>1260.0</ele><time>2026-05-03T11:23:29.05Z</time></trkpt><trkpt lat="41.9526297" lon="13.251968"><ele>1260.0</ele><time>2026-05-03T11:23:30.056Z</time></trkpt><trkpt lat="41.9526406" lon="13.2518342"><ele>1260.0</ele><time>2026-05-03T11:23:32.054Z</time></trkpt><trkpt lat="41.9525278" lon="13.2518267"><ele>1260.0</ele><time>2026-05-03T11:23:34.051Z</time></trkpt><trkpt lat="41.9524392" lon="13.2518892"><ele>1260.0</ele><time>2026-05-03T11:23:35.047Z</time></trkpt><trkpt lat="41.952335" lon="13.2519772"><ele>1260.0</ele><time>2026-05-03T11:23:36.056Z</time></trkpt><trkpt lat="41.9522246" lon="13.2520671"><ele>1260.0</ele><time>2026-05-03T11:23:37.055Z</time></trkpt><trkpt lat="41.9520963" lon="13.2521411"><ele>1260.0</ele><time>2026-05-03T11:23:38.05Z</time></trkpt><trkpt lat="41.9519717" lon="13.2522066"><ele>1260.0</ele><time>2026-05-03T11:23:39.054Z</time></trkpt><trkpt lat="41.9518667" lon="13.2522372"><ele>1260.0</ele><time>2026-05-03T11:23:40.062Z</time></trkpt><trkpt lat="41.9517788" lon="13.2522157"><ele>1260.0</ele><time>2026-05-03T11:23:41.05Z</time></trkpt><trkpt lat="41.9517066" lon="13.2521393"><ele>1260.0</ele><time>2026-05-03T11:23:42.05Z</time></trkpt><trkpt lat="41.9516456" lon="13.2520319"><ele>1256.75</ele><time>2026-05-03T11:23:43.055Z</time></trkpt><trkpt lat="41.9515876" lon="13.2518818"><ele>1253.5</ele><time>2026-05-03T11:23:44.055Z</time></trkpt><trkpt lat="41.9515131" lon="13.2517257"><ele>1250.25</ele><time>2026-05-03T11:23:45.053Z</time></trkpt><trkpt lat="41.9514172" lon="13.251579"><ele>1247.0</ele><time>2026-05-03T11:23:46.088Z</time></trkpt><trkpt lat="41.9513082" lon="13.2514265"><ele>1238.6666666666667</ele><time>2026-05-03T11:23:47.058Z</time></trkpt><trkpt lat="41.9512066" lon="13.2512551"><ele>1230.3333333333333</ele><time>2026-05-03T11:23:48.056Z</time></trkpt><trkpt lat="41.9510949" lon="13.2510837"><ele>1222.0</ele><time>2026-05-03T11:23:49.051Z</time></trkpt><trkpt lat="41.9509829" lon="13.2509226"><ele>1225.0</ele><time>2026-05-03T11:23:50.053Z</time></trkpt><trkpt lat="41.9508723" lon="13.2507667"><ele>1228.0</ele><time>2026-05-03T11:23:51.052Z</time></trkpt><trkpt lat="41.9507752" lon="13.250592"><ele>1231.0</ele><time>2026-05-03T11:23:52.056Z</time></trkpt><trkpt lat="41.9506909" lon="13.2504067"><ele>1231.0</ele><time>2026-05-03T11:23:53.053Z</time></trkpt><trkpt lat="41.9506114" lon="13.2502144"><ele>1231.0</ele><time>2026-05-03T11:23:54.073Z</time></trkpt><trkpt lat="41.9505493" lon="13.2500056"><ele>1231.0</ele><time>2026-05-03T11:23:55.056Z</time></trkpt><trkpt lat="41.950501" lon="13.2497917"><ele>1226.0</ele><time>2026-05-03T11:23:56.056Z</time></trkpt><trkpt lat="41.9504805" lon="13.2495757"><ele>1221.0</ele><time>2026-05-03T11:23:57.059Z</time></trkpt><trkpt lat="41.9504689" lon="13.2493508"><ele>1216.0</ele><time>2026-05-03T11:23:58.051Z</time></trkpt><trkpt lat="41.9504541" lon="13.2491255"><ele>1211.75</ele><time>2026-05-03T11:23:59.08Z</time></trkpt><trkpt lat="41.9504336" lon="13.2489236"><ele>1207.5</ele><time>2026-05-03T11:24:00.057Z</time></trkpt><trkpt lat="41.950403" lon="13.2487408"><ele>1203.25</ele><time>2026-05-03T11:24:01.062Z</time></trkpt><trkpt lat="41.9503646" lon="13.2485854"><ele>1199.0</ele><time>2026-05-03T11:24:02.064Z</time></trkpt><trkpt lat="41.95032" lon="13.248435"><ele>1199.0</ele><time>2026-05-03T11:24:03.059Z</time></trkpt><trkpt lat="41.9502655" lon="13.2482912"><ele>1199.0</ele><time>2026-05-03T11:24:04.101Z</time></trkpt><trkpt lat="41.9502014" lon="13.2481367"><ele>1199.0</ele><time>2026-05-03T11:24:05.059Z</time></trkpt><trkpt lat="41.9501609" lon="13.2479704"><ele>1199.0</ele><time>2026-05-03T11:24:06.061Z</time></trkpt><trkpt lat="41.9501305" lon="13.247777"><ele>1196.75</ele><time>2026-05-03T11:24:07.062Z</time></trkpt><trkpt lat="41.950063" lon="13.2476203"><ele>1194.5</ele><time>2026-05-03T11:24:08.063Z</time></trkpt><trkpt lat="41.9499754" lon="13.2474816"><ele>1192.25</ele><time>2026-05-03T11:24:09.056Z</time></trkpt><trkpt lat="41.9498749" lon="13.2473388"><ele>1190.0</ele><time>2026-05-03T11:24:10.057Z</time></trkpt><trkpt lat="41.9497901" lon="13.2472018"><ele>1190.0</ele><time>2026-05-03T11:24:11.054Z</time></trkpt><trkpt lat="41.9496857" lon="13.2470788"><ele>1190.0</ele><time>2026-05-03T11:24:12.061Z</time></trkpt><trkpt lat="41.9495771" lon="13.2469701"><ele>1190.0</ele><time>2026-05-03T11:24:13.058Z</time></trkpt><trkpt lat="41.9494828" lon="13.2468216"><ele>1190.0</ele><time>2026-05-03T11:24:14.062Z</time></trkpt><trkpt lat="41.9494052" lon="13.246647"><ele>1181.0</ele><time>2026-05-03T11:24:15.059Z</time></trkpt><trkpt lat="41.9493333" lon="13.2464513"><ele>1172.0</ele><time>2026-05-03T11:24:16.059Z</time></trkpt><trkpt lat="41.9492764" lon="13.2462541"><ele>1163.0</ele><time>2026-05-03T11:24:17.053Z</time></trkpt><trkpt lat="41.9492398" lon="13.2460583"><ele>1163.0</ele><time>2026-05-03T11:24:18.054Z</time></trkpt><trkpt lat="41.9492097" lon="13.245858"><ele>1163.0</ele><time>2026-05-03T11:24:19.058Z</time></trkpt><trkpt lat="41.9491554" lon="13.2456855"><ele>1163.0</ele><time>2026-05-03T11:24:20.066Z</time></trkpt><trkpt lat="41.9490608" lon="13.2455256"><ele>1163.0</ele><time>2026-05-03T11:24:21.08Z</time></trkpt><trkpt lat="41.9489346" lon="13.2453728"><ele>1166.6666666666667</ele><time>2026-05-03T11:24:22.055Z</time></trkpt><trkpt lat="41.9487945" lon="13.2452291"><ele>1170.3333333333333</ele><time>2026-05-03T11:24:23.06Z</time></trkpt><trkpt lat="41.9486396" lon="13.2451157"><ele>1174.0</ele><time>2026-05-03T11:24:24.053Z</time></trkpt><trkpt lat="41.9484853" lon="13.2450408"><ele>1169.6666666666665</ele><time>2026-05-03T11:24:25.051Z</time></trkpt><trkpt lat="41.948328" lon="13.2449626"><ele>1165.3333333333333</ele><time>2026-05-03T11:24:26.061Z</time></trkpt><trkpt lat="41.9481837" lon="13.2448818"><ele>1161.0</ele><time>2026-05-03T11:24:27.05Z</time></trkpt><trkpt lat="41.9480703" lon="13.2447795"><ele>1161.0</ele><time>2026-05-03T11:24:28.093Z</time></trkpt><trkpt lat="41.9479936" lon="13.2446504"><ele>1161.0</ele><time>2026-05-03T11:24:29.058Z</time></trkpt><trkpt lat="41.9479524" lon="13.2444826"><ele>1161.0</ele><time>2026-05-03T11:24:30.055Z</time></trkpt><trkpt lat="41.9478917" lon="13.2442916"><ele>1161.0</ele><time>2026-05-03T11:24:31.051Z</time></trkpt><trkpt lat="41.9478228" lon="13.2441267"><ele>1157.75</ele><time>2026-05-03T11:24:32.054Z</time></trkpt><trkpt lat="41.9477459" lon="13.2439629"><ele>1154.5</ele><time>2026-05-03T11:24:33.058Z</time></trkpt><trkpt lat="41.9476606" lon="13.243857"><ele>1151.25</ele><time>2026-05-03T11:24:34.057Z</time></trkpt><trkpt lat="41.9475734" lon="13.2437735"><ele>1148.0</ele><time>2026-05-03T11:24:35.097Z</time></trkpt><trkpt lat="41.9474728" lon="13.2437346"><ele>1148.0</ele><time>2026-05-03T11:24:36.063Z</time></trkpt><trkpt lat="41.9473465" lon="13.243744"><ele>1148.0</ele><time>2026-05-03T11:24:37.058Z</time></trkpt><trkpt lat="41.9471901" lon="13.2437763"><ele>1148.0</ele><time>2026-05-03T11:24:38.061Z</time></trkpt><trkpt lat="41.9470216" lon="13.2438185"><ele>1148.0</ele><time>2026-05-03T11:24:39.053Z</time></trkpt><trkpt lat="41.9468606" lon="13.2438463"><ele>1148.0</ele><time>2026-05-03T11:24:40.062Z</time></trkpt><trkpt lat="41.9467222" lon="13.2438534"><ele>1148.0</ele><time>2026-05-03T11:24:41.06Z</time></trkpt><trkpt lat="41.946587" lon="13.2438469"><ele>1148.0</ele><time>2026-05-03T11:24:42.093Z</time></trkpt><trkpt lat="41.9464767" lon="13.2438002"><ele>1151.75</ele><time>2026-05-03T11:24:43.059Z</time></trkpt><trkpt lat="41.9463853" lon="13.2437036"><ele>1155.5</ele><time>2026-05-03T11:24:44.055Z</time></trkpt><trkpt lat="41.9463005" lon="13.2435882"><ele>1159.25</ele><time>2026-05-03T11:24:45.064Z</time></trkpt><trkpt lat="41.9461993" lon="13.2435252"><ele>1163.0</ele><time>2026-05-03T11:24:46.058Z</time></trkpt><trkpt lat="41.9460835" lon="13.2435462"><ele>1163.0</ele><time>2026-05-03T11:24:47.067Z</time></trkpt><trkpt lat="41.945958" lon="13.2436089"><ele>1163.0</ele><time>2026-05-03T11:24:48.06Z</time></trkpt><trkpt lat="41.9458032" lon="13.2436704"><ele>1163.0</ele><time>2026-05-03T11:24:49.059Z</time></trkpt><trkpt lat="41.9456336" lon="13.2437011"><ele>1161.0</ele><time>2026-05-03T11:24:50.066Z</time></trkpt><trkpt lat="41.9454606" lon="13.243735"><ele>1159.0</ele><time>2026-05-03T11:24:51.06Z</time></trkpt><trkpt lat="41.9452842" lon="13.2437592"><ele>1157.0</ele><time>2026-05-03T11:24:52.059Z</time></trkpt><trkpt lat="41.9451032" lon="13.2437563"><ele>1151.3333333333335</ele><time>2026-05-03T11:24:53.052Z</time></trkpt><trkpt lat="41.9449193" lon="13.243729"><ele>1145.6666666666667</ele><time>2026-05-03T11:24:54.056Z</time></trkpt><trkpt lat="41.944732" lon="13.2437167"><ele>1140.0</ele><time>2026-05-03T11:24:55.052Z</time></trkpt><trkpt lat="41.9445411" lon="13.2437425"><ele>1140.0</ele><time>2026-05-03T11:24:56.059Z</time></trkpt><trkpt lat="41.9443572" lon="13.2437836"><ele>1140.0</ele><time>2026-05-03T11:24:57.055Z</time></trkpt><trkpt lat="41.9441767" lon="13.2438344"><ele>1140.0</ele><time>2026-05-03T11:24:58.056Z</time></trkpt><trkpt lat="41.9439931" lon="13.2438894"><ele>1138.0</ele><time>2026-05-03T11:24:59.058Z</time></trkpt><trkpt lat="41.9438155" lon="13.243961"><ele>1136.0</ele><time>2026-05-03T11:25:00.061Z</time></trkpt><trkpt lat="41.9436342" lon="13.244003"><ele>1134.0</ele><time>2026-05-03T11:25:01.058Z</time></trkpt><trkpt lat="41.9434607" lon="13.2440004"><ele>1131.5</ele><time>2026-05-03T11:25:02.059Z</time></trkpt><trkpt lat="41.9433128" lon="13.2439614"><ele>1129.0</ele><time>2026-05-03T11:25:03.059Z</time></trkpt><trkpt lat="41.9431784" lon="13.2439155"><ele>1126.5</ele><time>2026-05-03T11:25:04.061Z</time></trkpt><trkpt lat="41.9430581" lon="13.2438913"><ele>1124.0</ele><time>2026-05-03T11:25:05.059Z</time></trkpt><trkpt lat="41.9429594" lon="13.2439155"><ele>1130.75</ele><time>2026-05-03T11:25:06.064Z</time></trkpt><trkpt lat="41.9428715" lon="13.2440067"><ele>1137.5</ele><time>2026-05-03T11:25:07.061Z</time></trkpt><trkpt lat="41.9427682" lon="13.244131"><ele>1144.25</ele><time>2026-05-03T11:25:08.055Z</time></trkpt><trkpt lat="41.9426428" lon="13.2442447"><ele>1151.0</ele><time>2026-05-03T11:25:09.084Z</time></trkpt><trkpt lat="41.9424968" lon="13.2443485"><ele>1151.0</ele><time>2026-05-03T11:25:10.055Z</time></trkpt><trkpt lat="41.9423426" lon="13.2444719"><ele>1151.0</ele><time>2026-05-03T11:25:11.058Z</time></trkpt><trkpt lat="41.9422097" lon="13.2446045"><ele>1151.0</ele><time>2026-05-03T11:25:12.054Z</time></trkpt><trkpt lat="41.942105" lon="13.2447504"><ele>1162.75</ele><time>2026-05-03T11:25:13.056Z</time></trkpt><trkpt lat="41.9420148" lon="13.2448815"><ele>1174.5</ele><time>2026-05-03T11:25:14.06Z</time></trkpt><trkpt lat="41.9419182" lon="13.2449936"><ele>1186.25</ele><time>2026-05-03T11:25:15.055Z</time></trkpt><trkpt lat="41.941836" lon="13.2451195"><ele>1198.0</ele><time>2026-05-03T11:25:16.058Z</time></trkpt><trkpt lat="41.9417787" lon="13.2452854"><ele>1198.0</ele><time>2026-05-03T11:25:17.068Z</time></trkpt><trkpt lat="41.9417283" lon="13.2454714"><ele>1198.0</ele><time>2026-05-03T11:25:18.062Z</time></trkpt><trkpt lat="41.941675" lon="13.2456739"><ele>1198.0</ele><time>2026-05-03T11:25:19.068Z</time></trkpt><trkpt lat="41.9416456" lon="13.2458564"><ele>1198.0</ele><time>2026-05-03T11:25:20.086Z</time></trkpt><trkpt lat="41.9416338" lon="13.2460077"><ele>1203.75</ele><time>2026-05-03T11:25:21.074Z</time></trkpt><trkpt lat="41.9416571" lon="13.2461505"><ele>1209.5</ele><time>2026-05-03T11:25:22.064Z</time></trkpt><trkpt lat="41.941712" lon="13.2462791"><ele>1215.25</ele><time>2026-05-03T11:25:23.067Z</time></trkpt><trkpt lat="41.941802" lon="13.2464075"><ele>1221.0</ele><time>2026-05-03T11:25:24.063Z</time></trkpt><trkpt lat="41.9418838" lon="13.2465765"><ele>1221.0</ele><time>2026-05-03T11:25:25.068Z</time></trkpt><trkpt lat="41.9419478" lon="13.2467714"><ele>1221.0</ele><time>2026-05-03T11:25:26.073Z</time></trkpt><trkpt lat="41.9419973" lon="13.2469694"><ele>1221.0</ele><time>2026-05-03T11:25:27.068Z</time></trkpt><trkpt lat="41.9420455" lon="13.2471386"><ele>1221.0</ele><time>2026-05-03T11:25:28.064Z</time></trkpt><trkpt lat="41.9420822" lon="13.2473013"><ele>1218.75</ele><time>2026-05-03T11:25:29.061Z</time></trkpt><trkpt lat="41.9420811" lon="13.2474855"><ele>1216.5</ele><time>2026-05-03T11:25:30.064Z</time></trkpt><trkpt lat="41.9420456" lon="13.2476745"><ele>1214.25</ele><time>2026-05-03T11:25:31.064Z</time></trkpt><trkpt lat="41.9420151" lon="13.2478644"><ele>1212.0</ele><time>2026-05-03T11:25:32.064Z</time></trkpt><trkpt lat="41.9420082" lon="13.2480322"><ele>1212.5</ele><time>2026-05-03T11:25:33.093Z</time></trkpt><trkpt lat="41.9420228" lon="13.2481659"><ele>1213.0</ele><time>2026-05-03T11:25:34.064Z</time></trkpt><trkpt lat="41.9420508" lon="13.2482657"><ele>1213.5</ele><time>2026-05-03T11:25:35.063Z</time></trkpt><trkpt lat="41.9421118" lon="13.2483084"><ele>1214.0</ele><time>2026-05-03T11:25:36.063Z</time></trkpt><trkpt lat="41.9421951" lon="13.2483614"><ele>1214.5</ele><time>2026-05-03T11:25:37.058Z</time></trkpt><trkpt lat="41.9422857" lon="13.2484346"><ele>1215.0</ele><time>2026-05-03T11:25:38.057Z</time></trkpt><trkpt lat="41.9423594" lon="13.2485526"><ele>1215.0</ele><time>2026-05-03T11:25:39.06Z</time></trkpt><trkpt lat="41.942415" lon="13.2487153"><ele>1215.0</ele><time>2026-05-03T11:25:40.06Z</time></trkpt><trkpt lat="41.9424655" lon="13.2489085"><ele>1215.0</ele><time>2026-05-03T11:25:41.08Z</time></trkpt><trkpt lat="41.9424992" lon="13.2490941"><ele>1215.0</ele><time>2026-05-03T11:25:42.066Z</time></trkpt><trkpt lat="41.9425437" lon="13.2492634"><ele>1218.75</ele><time>2026-05-03T11:25:43.061Z</time></trkpt><trkpt lat="41.9426082" lon="13.2494205"><ele>1222.5</ele><time>2026-05-03T11:25:44.063Z</time></trkpt><trkpt lat="41.9426668" lon="13.2495763"><ele>1226.25</ele><time>2026-05-03T11:25:45.064Z</time></trkpt><trkpt lat="41.9427194" lon="13.2497406"><ele>1230.0</ele><time>2026-05-03T11:25:46.072Z</time></trkpt><trkpt lat="41.9427944" lon="13.2498909"><ele>1230.0</ele><time>2026-05-03T11:25:47.056Z</time></trkpt><trkpt lat="41.9428519" lon="13.2500441"><ele>1230.0</ele><time>2026-05-03T11:25:48.057Z</time></trkpt><trkpt lat="41.9428727" lon="13.2502197"><ele>1230.0</ele><time>2026-05-03T11:25:49.064Z</time></trkpt><trkpt lat="41.9428799" lon="13.2504274"><ele>1230.0</ele><time>2026-05-03T11:25:50.064Z</time></trkpt><trkpt lat="41.9428954" lon="13.2506463"><ele>1222.3333333333333</ele><time>2026-05-03T11:25:51.055Z</time></trkpt><trkpt lat="41.9429398" lon="13.2508444"><ele>1214.6666666666665</ele><time>2026-05-03T11:25:52.062Z</time></trkpt><trkpt lat="41.943021" lon="13.2510187"><ele>1207.0</ele><time>2026-05-03T11:25:53.065Z</time></trkpt><trkpt lat="41.9431007" lon="13.2512151"><ele>1207.0</ele><time>2026-05-03T11:25:54.07Z</time></trkpt><trkpt lat="41.943174" lon="13.2514318"><ele>1207.0</ele><time>2026-05-03T11:25:55.063Z</time></trkpt><trkpt lat="41.9432586" lon="13.2516183"><ele>1207.0</ele><time>2026-05-03T11:25:56.068Z</time></trkpt><trkpt lat="41.9433491" lon="13.2518067"><ele>1208.25</ele><time>2026-05-03T11:25:57.065Z</time></trkpt><trkpt lat="41.9434235" lon="13.2519799"><ele>1209.5</ele><time>2026-05-03T11:25:58.065Z</time></trkpt><trkpt lat="41.9434866" lon="13.2521479"><ele>1210.75</ele><time>2026-05-03T11:25:59.07Z</time></trkpt><trkpt lat="41.9435455" lon="13.2523379"><ele>1212.0</ele><time>2026-05-03T11:26:00.059Z</time></trkpt><trkpt lat="41.943596" lon="13.252548"><ele>1212.0</ele><time>2026-05-03T11:26:01.069Z</time></trkpt><trkpt lat="41.9436482" lon="13.2527634"><ele>1212.0</ele><time>2026-05-03T11:26:02.06Z</time></trkpt><trkpt lat="41.943702" lon="13.2529735"><ele>1212.0</ele><time>2026-05-03T11:26:03.067Z</time></trkpt><trkpt lat="41.94376" lon="13.2531744"><ele>1203.3333333333333</ele><time>2026-05-03T11:26:04.062Z</time></trkpt><trkpt lat="41.9438247" lon="13.2533654"><ele>1194.6666666666665</ele><time>2026-05-03T11:26:05.063Z</time></trkpt><trkpt lat="41.9439131" lon="13.2535375"><ele>1186.0</ele><time>2026-05-03T11:26:06.066Z</time></trkpt><trkpt lat="41.9440015" lon="13.2537092"><ele>1186.0</ele><time>2026-05-03T11:26:07.06Z</time></trkpt><trkpt lat="41.9440831" lon="13.2538855"><ele>1186.0</ele><time>2026-05-03T11:26:08.09Z</time></trkpt><trkpt lat="41.9441491" lon="13.2540711"><ele>1186.0</ele><time>2026-05-03T11:26:09.065Z</time></trkpt><trkpt lat="41.9441921" lon="13.2542721"><ele>1188.0</ele><time>2026-05-03T11:26:10.063Z</time></trkpt><trkpt lat="41.9442464" lon="13.2544512"><ele>1190.0</ele><time>2026-05-03T11:26:11.06Z</time></trkpt><trkpt lat="41.9443054" lon="13.2545919"><ele>1192.0</ele><time>2026-05-03T11:26:12.059Z</time></trkpt><trkpt lat="41.9443545" lon="13.2547347"><ele>1194.0</ele><time>2026-05-03T11:26:13.065Z</time></trkpt><trkpt lat="41.9443824" lon="13.2548746"><ele>1194.0</ele><time>2026-05-03T11:26:14.06Z</time></trkpt><trkpt lat="41.9443588" lon="13.2550087"><ele>1194.0</ele><time>2026-05-03T11:26:15.063Z</time></trkpt><trkpt lat="41.9443089" lon="13.2551448"><ele>1194.0</ele><time>2026-05-03T11:26:16.055Z</time></trkpt><trkpt lat="41.9442736" lon="13.255292"><ele>1194.0</ele><time>2026-05-03T11:26:17.057Z</time></trkpt><trkpt lat="41.9442707" lon="13.2554606"><ele>1191.75</ele><time>2026-05-03T11:26:18.056Z</time></trkpt><trkpt lat="41.9442867" lon="13.2556336"><ele>1189.5</ele><time>2026-05-03T11:26:19.059Z</time></trkpt><trkpt lat="41.9443119" lon="13.2557893"><ele>1187.25</ele><time>2026-05-03T11:26:20.062Z</time></trkpt><trkpt lat="41.9443322" lon="13.2559219"><ele>1185.0</ele><time>2026-05-03T11:26:21.059Z</time></trkpt><trkpt lat="41.9443201" lon="13.2560571"><ele>1185.0</ele><time>2026-05-03T11:26:22.067Z</time></trkpt><trkpt lat="41.9442789" lon="13.2561708"><ele>1185.0</ele><time>2026-05-03T11:26:23.057Z</time></trkpt><trkpt lat="41.944192" lon="13.2562424"><ele>1185.0</ele><time>2026-05-03T11:26:24.059Z</time></trkpt><trkpt lat="41.9440713" lon="13.2562514"><ele>1185.0</ele><time>2026-05-03T11:26:25.087Z</time></trkpt><trkpt lat="41.9439492" lon="13.2562303"><ele>1185.0</ele><time>2026-05-03T11:26:26.059Z</time></trkpt><trkpt lat="41.9438219" lon="13.256223"><ele>1174.75</ele><time>2026-05-03T11:26:27.057Z</time></trkpt><trkpt lat="41.9437044" lon="13.2562358"><ele>1164.5</ele><time>2026-05-03T11:26:28.055Z</time></trkpt><trkpt lat="41.9435946" lon="13.2562822"><ele>1154.25</ele><time>2026-05-03T11:26:29.056Z</time></trkpt><trkpt lat="41.9434954" lon="13.2563715"><ele>1144.0</ele><time>2026-05-03T11:26:30.057Z</time></trkpt><trkpt lat="41.9433914" lon="13.2564349"><ele>1145.6000000000001</ele><time>2026-05-03T11:26:31.053Z</time></trkpt><trkpt lat="41.9433021" lon="13.2564534"><ele>1147.2</ele><time>2026-05-03T11:26:32.083Z</time></trkpt><trkpt lat="41.9432202" lon="13.2564308"><ele>1148.8000000000002</ele><time>2026-05-03T11:26:33.051Z</time></trkpt><trkpt lat="41.9431389" lon="13.2563477"><ele>1150.4</ele><time>2026-05-03T11:26:34.05Z</time></trkpt><trkpt lat="41.9430568" lon="13.2562091"><ele>1152.0</ele><time>2026-05-03T11:26:35.057Z</time></trkpt><trkpt lat="41.9429825" lon="13.2560511"><ele>1146.6</ele><time>2026-05-03T11:26:36.056Z</time></trkpt><trkpt lat="41.9429113" lon="13.2559131"><ele>1141.2</ele><time>2026-05-03T11:26:37.058Z</time></trkpt><trkpt lat="41.9428406" lon="13.2558095"><ele>1135.8</ele><time>2026-05-03T11:26:38.054Z</time></trkpt><trkpt lat="41.9427522" lon="13.2557515"><ele>1130.4</ele><time>2026-05-03T11:26:39.053Z</time></trkpt><trkpt lat="41.9426513" lon="13.2557005"><ele>1125.0</ele><time>2026-05-03T11:26:40.056Z</time></trkpt><trkpt lat="41.9425382" lon="13.2556603"><ele>1125.0</ele><time>2026-05-03T11:26:41.057Z</time></trkpt><trkpt lat="41.9424041" lon="13.2556598"><ele>1125.0</ele><time>2026-05-03T11:26:42.099Z</time></trkpt><trkpt lat="41.942283" lon="13.2556909"><ele>1125.0</ele><time>2026-05-03T11:26:43.053Z</time></trkpt><trkpt lat="41.9421719" lon="13.2556847"><ele>1125.0</ele><time>2026-05-03T11:26:44.062Z</time></trkpt><trkpt lat="41.9420638" lon="13.2556176"><ele>1125.0</ele><time>2026-05-03T11:26:45.06Z</time></trkpt><trkpt lat="41.9419489" lon="13.2555605"><ele>1125.0</ele><time>2026-05-03T11:26:46.059Z</time></trkpt><trkpt lat="41.941833" lon="13.2555764"><ele>1125.0</ele><time>2026-05-03T11:26:47.056Z</time></trkpt><trkpt lat="41.9417201" lon="13.2556304"><ele>1125.0</ele><time>2026-05-03T11:26:48.06Z</time></trkpt><trkpt lat="41.941588" lon="13.2556916"><ele>1123.0</ele><time>2026-05-03T11:26:49.06Z</time></trkpt><trkpt lat="41.9414569" lon="13.2557474"><ele>1121.0</ele><time>2026-05-03T11:26:50.054Z</time></trkpt><trkpt lat="41.9413256" lon="13.2558078"><ele>1119.0</ele><time>2026-05-03T11:26:51.058Z</time></trkpt><trkpt lat="41.9411897" lon="13.2558411"><ele>1117.0</ele><time>2026-05-03T11:26:52.087Z</time></trkpt><trkpt lat="41.9410518" lon="13.2558435"><ele>1117.0</ele><time>2026-05-03T11:26:53.057Z</time></trkpt><trkpt lat="41.9409199" lon="13.2558717"><ele>1117.0</ele><time>2026-05-03T11:26:54.057Z</time></trkpt><trkpt lat="41.9407911" lon="13.255936"><ele>1117.0</ele><time>2026-05-03T11:26:55.064Z</time></trkpt><trkpt lat="41.9406726" lon="13.2560354"><ele>1117.0</ele><time>2026-05-03T11:26:56.06Z</time></trkpt><trkpt lat="41.9405584" lon="13.2561659"><ele>1119.25</ele><time>2026-05-03T11:26:57.094Z</time></trkpt><trkpt lat="41.9404471" lon="13.2563135"><ele>1121.5</ele><time>2026-05-03T11:26:58.059Z</time></trkpt><trkpt lat="41.9403355" lon="13.2564555"><ele>1123.75</ele><time>2026-05-03T11:26:59.06Z</time></trkpt><trkpt lat="41.9402463" lon="13.2565915"><ele>1126.0</ele><time>2026-05-03T11:27:00.06Z</time></trkpt><trkpt lat="41.9401531" lon="13.2567415"><ele>1126.0</ele><time>2026-05-03T11:27:01.055Z</time></trkpt><trkpt lat="41.9400557" lon="13.2568639"><ele>1126.0</ele><time>2026-05-03T11:27:02.056Z</time></trkpt><trkpt lat="41.9399442" lon="13.2569584"><ele>1126.0</ele><time>2026-05-03T11:27:03.052Z</time></trkpt><trkpt lat="41.9398105" lon="13.2570304"><ele>1126.0</ele><time>2026-05-03T11:27:04.064Z</time></trkpt><trkpt lat="41.9396759" lon="13.2571035"><ele>1125.25</ele><time>2026-05-03T11:27:05.059Z</time></trkpt><trkpt lat="41.9395347" lon="13.2571745"><ele>1124.5</ele><time>2026-05-03T11:27:06.056Z</time></trkpt><trkpt lat="41.9393918" lon="13.2572449"><ele>1123.75</ele><time>2026-05-03T11:27:07.053Z</time></trkpt><trkpt lat="41.9392681" lon="13.2573127"><ele>1123.0</ele><time>2026-05-03T11:27:08.055Z</time></trkpt><trkpt lat="41.9391545" lon="13.2573892"><ele>1116.8</ele><time>2026-05-03T11:27:09.057Z</time></trkpt><trkpt lat="41.9390544" lon="13.2574883"><ele>1110.6</ele><time>2026-05-03T11:27:10.054Z</time></trkpt><trkpt lat="41.938963" lon="13.2575879"><ele>1104.4</ele><time>2026-05-03T11:27:11.048Z</time></trkpt><trkpt lat="41.938891" lon="13.257695"><ele>1098.2</ele><time>2026-05-03T11:27:12.052Z</time></trkpt><trkpt lat="41.9388279" lon="13.2577926"><ele>1092.0</ele><time>2026-05-03T11:27:13.048Z</time></trkpt><trkpt lat="41.9387654" lon="13.2579002"><ele>1092.0</ele><time>2026-05-03T11:27:14.056Z</time></trkpt><trkpt lat="41.9387219" lon="13.2580192"><ele>1092.0</ele><time>2026-05-03T11:27:15.053Z</time></trkpt><trkpt lat="41.938686" lon="13.2581509"><ele>1092.0</ele><time>2026-05-03T11:27:16.044Z</time></trkpt><trkpt lat="41.9386563" lon="13.2582847"><ele>1092.0</ele><time>2026-05-03T11:27:17.069Z</time></trkpt><trkpt lat="41.9386272" lon="13.2584169"><ele>1092.0</ele><time>2026-05-03T11:27:18.051Z</time></trkpt><trkpt lat="41.9385822" lon="13.25855"><ele>1089.3333333333333</ele><time>2026-05-03T11:27:19.055Z</time></trkpt><trkpt lat="41.9385137" lon="13.2587095"><ele>1086.6666666666665</ele><time>2026-05-03T11:27:20.057Z</time></trkpt><trkpt lat="41.9384097" lon="13.2588875"><ele>1084.0</ele><time>2026-05-03T11:27:21.06Z</time></trkpt><trkpt lat="41.9382867" lon="13.2590675"><ele>1084.0</ele><time>2026-05-03T11:27:22.05Z</time></trkpt><trkpt lat="41.93817" lon="13.2592504"><ele>1084.0</ele><time>2026-05-03T11:27:23.054Z</time></trkpt><trkpt lat="41.9380735" lon="13.2594506"><ele>1084.0</ele><time>2026-05-03T11:27:24.049Z</time></trkpt><trkpt lat="41.9379932" lon="13.2596607"><ele>1089.6666666666665</ele><time>2026-05-03T11:27:25.052Z</time></trkpt><trkpt lat="41.9379352" lon="13.2598694"><ele>1095.3333333333333</ele><time>2026-05-03T11:27:26.048Z</time></trkpt><trkpt lat="41.9378519" lon="13.2600567"><ele>1101.0</ele><time>2026-05-03T11:27:27.054Z</time></trkpt><trkpt lat="41.9377428" lon="13.2602184"><ele>1101.0</ele><time>2026-05-03T11:27:28.061Z</time></trkpt><trkpt lat="41.9376281" lon="13.260361"><ele>1101.0</ele><time>2026-05-03T11:27:29.051Z</time></trkpt><trkpt lat="41.9375462" lon="13.2605286"><ele>1101.0</ele><time>2026-05-03T11:27:30.052Z</time></trkpt><trkpt lat="41.9375113" lon="13.2607137"><ele>1101.0</ele><time>2026-05-03T11:27:31.049Z</time></trkpt><trkpt lat="41.9374767" lon="13.2608533"><ele>1096.6</ele><time>2026-05-03T11:27:32.046Z</time></trkpt><trkpt lat="41.9374285" lon="13.2609575"><ele>1092.1999999999998</ele><time>2026-05-03T11:27:33.055Z</time></trkpt><trkpt lat="41.9373591" lon="13.2609978"><ele>1087.8000000000002</ele><time>2026-05-03T11:27:34.053Z</time></trkpt><trkpt lat="41.9372709" lon="13.2609881"><ele>1083.4</ele><time>2026-05-03T11:27:35.055Z</time></trkpt><trkpt lat="41.937166" lon="13.2609318"><ele>1079.0</ele><time>2026-05-03T11:27:36.053Z</time></trkpt><trkpt lat="41.9370919" lon="13.260829"><ele>1079.0</ele><time>2026-05-03T11:27:37.048Z</time></trkpt><trkpt lat="41.9370271" lon="13.2606833"><ele>1079.0</ele><time>2026-05-03T11:27:38.061Z</time></trkpt><trkpt lat="41.9369971" lon="13.2604913"><ele>1079.0</ele><time>2026-05-03T11:27:39.053Z</time></trkpt><trkpt lat="41.936976" lon="13.2602931"><ele>1079.0</ele><time>2026-05-03T11:27:40.059Z</time></trkpt><trkpt lat="41.9369456" lon="13.2600914"><ele>1075.3333333333335</ele><time>2026-05-03T11:27:41.056Z</time></trkpt><trkpt lat="41.9369005" lon="13.2598857"><ele>1071.6666666666667</ele><time>2026-05-03T11:27:42.057Z</time></trkpt><trkpt lat="41.9368425" lon="13.259681"><ele>1068.0</ele><time>2026-05-03T11:27:43.054Z</time></trkpt><trkpt lat="41.9368011" lon="13.2594703"><ele>1070.5</ele><time>2026-05-03T11:27:44.06Z</time></trkpt><trkpt lat="41.9367476" lon="13.2592874"><ele>1073.0</ele><time>2026-05-03T11:27:45.058Z</time></trkpt><trkpt lat="41.936691" lon="13.2591252"><ele>1075.5</ele><time>2026-05-03T11:27:46.056Z</time></trkpt><trkpt lat="41.9366279" lon="13.2589894"><ele>1078.0</ele><time>2026-05-03T11:27:47.055Z</time></trkpt><trkpt lat="41.936529" lon="13.2588911"><ele>1072.25</ele><time>2026-05-03T11:27:48.06Z</time></trkpt><trkpt lat="41.9364249" lon="13.2587823"><ele>1066.5</ele><time>2026-05-03T11:27:49.057Z</time></trkpt><trkpt lat="41.9363496" lon="13.2586431"><ele>1060.75</ele><time>2026-05-03T11:27:50.059Z</time></trkpt><trkpt lat="41.936334" lon="13.258427"><ele>1055.0</ele><time>2026-05-03T11:27:51.056Z</time></trkpt><trkpt lat="41.9363307" lon="13.2582224"><ele>1051.0</ele><time>2026-05-03T11:27:52.048Z</time></trkpt><trkpt lat="41.9362975" lon="13.2579993"><ele>1047.0</ele><time>2026-05-03T11:27:53.05Z</time></trkpt><trkpt lat="41.9362704" lon="13.2577698"><ele>1043.0</ele><time>2026-05-03T11:27:54.053Z</time></trkpt><trkpt lat="41.9362576" lon="13.2575405"><ele>1043.0</ele><time>2026-05-03T11:27:55.063Z</time></trkpt><trkpt lat="41.9362601" lon="13.2573248"><ele>1043.0</ele><time>2026-05-03T11:27:56.056Z</time></trkpt><trkpt lat="41.9362802" lon="13.2571258"><ele>1043.0</ele><time>2026-05-03T11:27:57.052Z</time></trkpt><trkpt lat="41.936296" lon="13.2569361"><ele>1040.6666666666667</ele><time>2026-05-03T11:27:58.072Z</time></trkpt><trkpt lat="41.9362835" lon="13.2567478"><ele>1038.3333333333333</ele><time>2026-05-03T11:27:59.051Z</time></trkpt><trkpt lat="41.9362242" lon="13.2565566"><ele>1036.0</ele><time>2026-05-03T11:28:00.051Z</time></trkpt><trkpt lat="41.9361279" lon="13.2563693"><ele>1032.6666666666665</ele><time>2026-05-03T11:28:01.047Z</time></trkpt><trkpt lat="41.9360534" lon="13.2561874"><ele>1029.3333333333333</ele><time>2026-05-03T11:28:02.047Z</time></trkpt><trkpt lat="41.935988" lon="13.2560011"><ele>1026.0</ele><time>2026-05-03T11:28:03.061Z</time></trkpt><trkpt lat="41.9359664" lon="13.2557924"><ele>1024.0</ele><time>2026-05-03T11:28:04.052Z</time></trkpt><trkpt lat="41.9359908" lon="13.2555595"><ele>1022.0</ele><time>2026-05-03T11:28:05.046Z</time></trkpt><trkpt lat="41.9360358" lon="13.2553221"><ele>1020.0</ele><time>2026-05-03T11:28:06.044Z</time></trkpt><trkpt lat="41.9360512" lon="13.2550796"><ele>1020.0</ele><time>2026-05-03T11:28:07.049Z</time></trkpt><trkpt lat="41.9360403" lon="13.2548541"><ele>1020.0</ele><time>2026-05-03T11:28:08.05Z</time></trkpt><trkpt lat="41.9360564" lon="13.2546533"><ele>1020.0</ele><time>2026-05-03T11:28:09.047Z</time></trkpt><trkpt lat="41.9361058" lon="13.2544562"><ele>1022.0</ele><time>2026-05-03T11:28:10.049Z</time></trkpt><trkpt lat="41.9361909" lon="13.2542488"><ele>1024.0</ele><time>2026-05-03T11:28:11.048Z</time></trkpt><trkpt lat="41.9362835" lon="13.2540452"><ele>1026.0</ele><time>2026-05-03T11:28:12.048Z</time></trkpt><trkpt lat="41.9363527" lon="13.2538432"><ele>1028.0</ele><time>2026-05-03T11:28:13.053Z</time></trkpt><trkpt lat="41.9363973" lon="13.2536655"><ele>1030.0</ele><time>2026-05-03T11:28:14.05Z</time></trkpt><trkpt lat="41.9364053" lon="13.253531"><ele>1032.0</ele><time>2026-05-03T11:28:15.046Z</time></trkpt><trkpt lat="41.9363825" lon="13.2534069"><ele>1034.0</ele><time>2026-05-03T11:28:16.048Z</time></trkpt><trkpt lat="41.9363065" lon="13.2532746"><ele>1029.0</ele><time>2026-05-03T11:28:17.05Z</time></trkpt><trkpt lat="41.9362624" lon="13.2531052"><ele>1024.0</ele><time>2026-05-03T11:28:18.057Z</time></trkpt><trkpt lat="41.9362488" lon="13.2529107"><ele>1019.0</ele><time>2026-05-03T11:28:19.049Z</time></trkpt><trkpt lat="41.9362101" lon="13.2527383"><ele>1014.0</ele><time>2026-05-03T11:28:20.055Z</time></trkpt><trkpt lat="41.936147" lon="13.2526339"><ele>1014.0</ele><time>2026-05-03T11:28:21.06Z</time></trkpt><trkpt lat="41.9360659" lon="13.2525409"><ele>1014.0</ele><time>2026-05-03T11:28:22.057Z</time></trkpt><trkpt lat="41.9359764" lon="13.2524534"><ele>1014.0</ele><time>2026-05-03T11:28:23.06Z</time></trkpt><trkpt lat="41.9358973" lon="13.2523508"><ele>1014.0</ele><time>2026-05-03T11:28:24.056Z</time></trkpt><trkpt lat="41.9358391" lon="13.2521942"><ele>1024.5</ele><time>2026-05-03T11:28:25.055Z</time></trkpt><trkpt lat="41.9358201" lon="13.251992"><ele>1035.0</ele><time>2026-05-03T11:28:26.073Z</time></trkpt><trkpt lat="41.935801" lon="13.2517887"><ele>1045.5</ele><time>2026-05-03T11:28:27.06Z</time></trkpt><trkpt lat="41.9358111" lon="13.2516079"><ele>1056.0</ele><time>2026-05-03T11:28:28.054Z</time></trkpt><trkpt lat="41.9358168" lon="13.2514601"><ele>1052.6</ele><time>2026-05-03T11:28:29.05Z</time></trkpt><trkpt lat="41.9358235" lon="13.251321"><ele>1049.1999999999998</ele><time>2026-05-03T11:28:30.055Z</time></trkpt><trkpt lat="41.9358287" lon="13.2512031"><ele>1045.8000000000002</ele><time>2026-05-03T11:28:31.055Z</time></trkpt><trkpt lat="41.935811" lon="13.2510923"><ele>1042.4</ele><time>2026-05-03T11:28:32.055Z</time></trkpt><trkpt lat="41.9357467" lon="13.2509756"><ele>1039.0</ele><time>2026-05-03T11:28:33.057Z</time></trkpt><trkpt lat="41.9356381" lon="13.2508757"><ele>1039.0</ele><time>2026-05-03T11:28:34.051Z</time></trkpt><trkpt lat="41.9355185" lon="13.250763"><ele>1039.0</ele><time>2026-05-03T11:28:35.051Z</time></trkpt><trkpt lat="41.9354059" lon="13.2506115"><ele>1039.0</ele><time>2026-05-03T11:28:36.054Z</time></trkpt><trkpt lat="41.9353075" lon="13.2504536"><ele>1038.25</ele><time>2026-05-03T11:28:37.059Z</time></trkpt><trkpt lat="41.9352209" lon="13.2503181"><ele>1037.5</ele><time>2026-05-03T11:28:38.051Z</time></trkpt><trkpt lat="41.9350919" lon="13.2502369"><ele>1036.75</ele><time>2026-05-03T11:28:39.084Z</time></trkpt><trkpt lat="41.9349268" lon="13.2501839"><ele>1036.0</ele><time>2026-05-03T11:28:40.061Z</time></trkpt><trkpt lat="41.9347588" lon="13.250139"><ele>1036.0</ele><time>2026-05-03T11:28:41.058Z</time></trkpt><trkpt lat="41.9346016" lon="13.2501118"><ele>1036.0</ele><time>2026-05-03T11:28:42.062Z</time></trkpt><trkpt lat="41.9344328" lon="13.2501426"><ele>1036.0</ele><time>2026-05-03T11:28:43.06Z</time></trkpt><trkpt lat="41.9342749" lon="13.25021"><ele>1036.6666666666665</ele><time>2026-05-03T11:28:44.062Z</time></trkpt><trkpt lat="41.9341242" lon="13.2502378"><ele>1037.3333333333333</ele><time>2026-05-03T11:28:45.059Z</time></trkpt><trkpt lat="41.933966" lon="13.2502412"><ele>1038.0</ele><time>2026-05-03T11:28:46.059Z</time></trkpt><trkpt lat="41.9337902" lon="13.2502689"><ele>1038.0</ele><time>2026-05-03T11:28:47.087Z</time></trkpt><trkpt lat="41.9336465" lon="13.2503461"><ele>1038.0</ele><time>2026-05-03T11:28:48.059Z</time></trkpt><trkpt lat="41.933522" lon="13.2504607"><ele>1038.0</ele><time>2026-05-03T11:28:49.061Z</time></trkpt><trkpt lat="41.933406" lon="13.250554"><ele>1038.0</ele><time>2026-05-03T11:28:50.056Z</time></trkpt><trkpt lat="41.933253" lon="13.2505863"><ele>1034.5</ele><time>2026-05-03T11:28:51.061Z</time></trkpt><trkpt lat="41.9331169" lon="13.2506086"><ele>1031.0</ele><time>2026-05-03T11:28:52.057Z</time></trkpt><trkpt lat="41.9329843" lon="13.2506393"><ele>1027.5</ele><time>2026-05-03T11:28:53.053Z</time></trkpt><trkpt lat="41.9328344" lon="13.2506429"><ele>1024.0</ele><time>2026-05-03T11:28:54.067Z</time></trkpt><trkpt lat="41.932678" lon="13.2506551"><ele>1030.6666666666665</ele><time>2026-05-03T11:28:55.056Z</time></trkpt><trkpt lat="41.932523" lon="13.2507169"><ele>1037.3333333333333</ele><time>2026-05-03T11:28:56.057Z</time></trkpt><trkpt lat="41.9323967" lon="13.2508351"><ele>1044.0</ele><time>2026-05-03T11:28:57.059Z</time></trkpt><trkpt lat="41.9322646" lon="13.2509668"><ele>1044.0</ele><time>2026-05-03T11:28:58.058Z</time></trkpt><trkpt lat="41.9321483" lon="13.2510844"><ele>1044.0</ele><time>2026-05-03T11:28:59.057Z</time></trkpt><trkpt lat="41.9320477" lon="13.2511951"><ele>1044.0</ele><time>2026-05-03T11:29:00.054Z</time></trkpt><trkpt lat="41.9319481" lon="13.2513043"><ele>1044.0</ele><time>2026-05-03T11:29:01.072Z</time></trkpt><trkpt lat="41.9318436" lon="13.2514067"><ele>1044.4</ele><time>2026-05-03T11:29:02.056Z</time></trkpt><trkpt lat="41.9317403" lon="13.2514764"><ele>1044.8000000000002</ele><time>2026-05-03T11:29:03.06Z</time></trkpt><trkpt lat="41.9316446" lon="13.2515265"><ele>1045.1999999999998</ele><time>2026-05-03T11:29:04.06Z</time></trkpt><trkpt lat="41.9315492" lon="13.2515698"><ele>1045.6</ele><time>2026-05-03T11:29:05.087Z</time></trkpt><trkpt lat="41.931456" lon="13.251607"><ele>1046.0</ele><time>2026-05-03T11:29:06.059Z</time></trkpt><trkpt lat="41.9313689" lon="13.2516328"><ele>1046.0</ele><time>2026-05-03T11:29:07.059Z</time></trkpt><trkpt lat="41.9312845" lon="13.2516524"><ele>1046.0</ele><time>2026-05-03T11:29:08.061Z</time></trkpt><trkpt lat="41.931195" lon="13.251682"><ele>1046.0</ele><time>2026-05-03T11:29:09.056Z</time></trkpt><trkpt lat="41.9311124" lon="13.2517392"><ele>1046.0</ele><time>2026-05-03T11:29:10.063Z</time></trkpt><trkpt lat="41.9310304" lon="13.2518592"><ele>1046.0</ele><time>2026-05-03T11:29:11.061Z</time></trkpt><trkpt lat="41.9309444" lon="13.2520133"><ele>1041.75</ele><time>2026-05-03T11:29:12.06Z</time></trkpt><trkpt lat="41.9308364" lon="13.252141"><ele>1037.5</ele><time>2026-05-03T11:29:13.067Z</time></trkpt><trkpt lat="41.9307253" lon="13.2522489"><ele>1033.25</ele><time>2026-05-03T11:29:14.059Z</time></trkpt><trkpt lat="41.9306367" lon="13.252389"><ele>1029.0</ele><time>2026-05-03T11:29:15.063Z</time></trkpt><trkpt lat="41.9305846" lon="13.2525598"><ele>1029.0</ele><time>2026-05-03T11:29:16.064Z</time></trkpt><trkpt lat="41.9305683" lon="13.2527464"><ele>1029.0</ele><time>2026-05-03T11:29:17.059Z</time></trkpt><trkpt lat="41.9305967" lon="13.2529281"><ele>1029.0</ele><time>2026-05-03T11:29:18.054Z</time></trkpt><trkpt lat="41.9306773" lon="13.2531035"><ele>1029.0</ele><time>2026-05-03T11:29:19.066Z</time></trkpt><trkpt lat="41.930767" lon="13.2532666"><ele>1027.5</ele><time>2026-05-03T11:29:20.06Z</time></trkpt><trkpt lat="41.930843" lon="13.2534381"><ele>1026.0</ele><time>2026-05-03T11:29:21.073Z</time></trkpt><trkpt lat="41.9308871" lon="13.2536395"><ele>1024.5</ele><time>2026-05-03T11:29:22.058Z</time></trkpt><trkpt lat="41.930873" lon="13.2538302"><ele>1023.0</ele><time>2026-05-03T11:29:23.054Z</time></trkpt><trkpt lat="41.9308209" lon="13.2540268"><ele>1022.0</ele><time>2026-05-03T11:29:24.062Z</time></trkpt><trkpt lat="41.93073" lon="13.2542052"><ele>1021.0</ele><time>2026-05-03T11:29:25.058Z</time></trkpt><trkpt lat="41.9306173" lon="13.2543679"><ele>1020.0</ele><time>2026-05-03T11:29:26.086Z</time></trkpt><trkpt lat="41.9305029" lon="13.2545184"><ele>1020.0</ele><time>2026-05-03T11:29:27.056Z</time></trkpt><trkpt lat="41.9303861" lon="13.2546564"><ele>1020.0</ele><time>2026-05-03T11:29:28.059Z</time></trkpt><trkpt lat="41.9302719" lon="13.2547918"><ele>1020.0</ele><time>2026-05-03T11:29:29.057Z</time></trkpt><trkpt lat="41.9301581" lon="13.2549092"><ele>1012.5</ele><time>2026-05-03T11:29:30.061Z</time></trkpt><trkpt lat="41.9300395" lon="13.2550237"><ele>1005.0</ele><time>2026-05-03T11:29:31.054Z</time></trkpt><trkpt lat="41.9299465" lon="13.255164"><ele>997.5</ele><time>2026-05-03T11:29:32.062Z</time></trkpt><trkpt lat="41.929879" lon="13.2553276"><ele>990.0</ele><time>2026-05-03T11:29:33.064Z</time></trkpt><trkpt lat="41.9298274" lon="13.2555124"><ele>995.3333333333333</ele><time>2026-05-03T11:29:34.054Z</time></trkpt><trkpt lat="41.929753" lon="13.2557142"><ele>1000.6666666666666</ele><time>2026-05-03T11:29:35.057Z</time></trkpt><trkpt lat="41.9296781" lon="13.2559144"><ele>1006.0</ele><time>2026-05-03T11:29:36.053Z</time></trkpt><trkpt lat="41.9296085" lon="13.2561114"><ele>1006.0</ele><time>2026-05-03T11:29:37.096Z</time></trkpt><trkpt lat="41.9295453" lon="13.2563057"><ele>1006.0</ele><time>2026-05-03T11:29:38.056Z</time></trkpt><trkpt lat="41.9295189" lon="13.2564943"><ele>1006.0</ele><time>2026-05-03T11:29:39.057Z</time></trkpt><trkpt lat="41.9295375" lon="13.2566879"><ele>1006.0</ele><time>2026-05-03T11:29:40.056Z</time></trkpt><trkpt lat="41.9295532" lon="13.256861"><ele>1005.75</ele><time>2026-05-03T11:29:41.054Z</time></trkpt><trkpt lat="41.9295276" lon="13.2570029"><ele>1005.5</ele><time>2026-05-03T11:29:42.06Z</time></trkpt><trkpt lat="41.929433" lon="13.2571078"><ele>1005.25</ele><time>2026-05-03T11:29:43.056Z</time></trkpt><trkpt lat="41.9292981" lon="13.2571828"><ele>1005.0</ele><time>2026-05-03T11:29:44.089Z</time></trkpt><trkpt lat="41.9291551" lon="13.2572226"><ele>999.25</ele><time>2026-05-03T11:29:45.053Z</time></trkpt><trkpt lat="41.9290239" lon="13.257226"><ele>993.5</ele><time>2026-05-03T11:29:46.054Z</time></trkpt><trkpt lat="41.9288853" lon="13.2571643"><ele>987.75</ele><time>2026-05-03T11:29:47.047Z</time></trkpt><trkpt lat="41.9287609" lon="13.2570345"><ele>982.0</ele><time>2026-05-03T11:29:48.049Z</time></trkpt><trkpt lat="41.9286457" lon="13.2568829"><ele>982.0</ele><time>2026-05-03T11:29:49.052Z</time></trkpt><trkpt lat="41.9285378" lon="13.2567372"><ele>982.0</ele><time>2026-05-03T11:29:50.055Z</time></trkpt><trkpt lat="41.9284678" lon="13.2565898"><ele>982.0</ele><time>2026-05-03T11:29:51.063Z</time></trkpt><trkpt lat="41.9284559" lon="13.256426"><ele>982.0</ele><time>2026-05-03T11:29:52.053Z</time></trkpt><trkpt lat="41.9284245" lon="13.2562605"><ele>983.0</ele><time>2026-05-03T11:29:53.05Z</time></trkpt><trkpt lat="41.9283391" lon="13.2560935"><ele>984.0</ele><time>2026-05-03T11:29:54.048Z</time></trkpt><trkpt lat="41.9282089" lon="13.2559258"><ele>985.0</ele><time>2026-05-03T11:29:55.052Z</time></trkpt><trkpt lat="41.9280735" lon="13.2557486"><ele>975.6666666666666</ele><time>2026-05-03T11:29:56.062Z</time></trkpt><trkpt lat="41.9279491" lon="13.2555879"><ele>966.3333333333333</ele><time>2026-05-03T11:29:57.059Z</time></trkpt><trkpt lat="41.9278275" lon="13.2554617"><ele>957.0</ele><time>2026-05-03T11:29:58.078Z</time></trkpt><trkpt lat="41.9277135" lon="13.2553825"><ele>957.0</ele><time>2026-05-03T11:29:59.059Z</time></trkpt><trkpt lat="41.9276016" lon="13.2553177"><ele>957.0</ele><time>2026-05-03T11:30:00.057Z</time></trkpt><trkpt lat="41.9275301" lon="13.2552379"><ele>957.0</ele><time>2026-05-03T11:30:01.056Z</time></trkpt><trkpt lat="41.9274885" lon="13.2550945"><ele>957.0</ele><time>2026-05-03T11:30:02.054Z</time></trkpt><trkpt lat="41.9274396" lon="13.2549247"><ele>954.3333333333333</ele><time>2026-05-03T11:30:03.054Z</time></trkpt><trkpt lat="41.927358" lon="13.254752"><ele>951.6666666666666</ele><time>2026-05-03T11:30:04.06Z</time></trkpt><trkpt lat="41.9272483" lon="13.2546044"><ele>949.0</ele><time>2026-05-03T11:30:05.061Z</time></trkpt><trkpt lat="41.9271202" lon="13.254498"><ele>949.0</ele><time>2026-05-03T11:30:06.061Z</time></trkpt><trkpt lat="41.926984" lon="13.2544418"><ele>949.0</ele><time>2026-05-03T11:30:07.057Z</time></trkpt><trkpt lat="41.9268473" lon="13.2544433"><ele>949.0</ele><time>2026-05-03T11:30:08.054Z</time></trkpt><trkpt lat="41.926705" lon="13.2544796"><ele>949.0</ele><time>2026-05-03T11:30:09.053Z</time></trkpt><trkpt lat="41.9265708" lon="13.2545403"><ele>950.6666666666666</ele><time>2026-05-03T11:30:10.063Z</time></trkpt><trkpt lat="41.9264374" lon="13.2546485"><ele>952.3333333333333</ele><time>2026-05-03T11:30:11.066Z</time></trkpt><trkpt lat="41.9263034" lon="13.2547774"><ele>954.0</ele><time>2026-05-03T11:30:12.059Z</time></trkpt><trkpt lat="41.9261624" lon="13.2548943"><ele>960.0</ele><time>2026-05-03T11:30:13.057Z</time></trkpt><trkpt lat="41.9260336" lon="13.2550016"><ele>966.0</ele><time>2026-05-03T11:30:14.065Z</time></trkpt><trkpt lat="41.9259289" lon="13.2551325"><ele>972.0</ele><time>2026-05-03T11:30:15.056Z</time></trkpt><trkpt lat="41.9258425" lon="13.2552506"><ele>978.0</ele><time>2026-05-03T11:30:16.054Z</time></trkpt><trkpt lat="41.9257618" lon="13.2553335"><ele>978.0</ele><time>2026-05-03T11:30:17.059Z</time></trkpt><trkpt lat="41.9256799" lon="13.2553388"><ele>978.0</ele><time>2026-05-03T11:30:18.059Z</time></trkpt><trkpt lat="41.9256136" lon="13.2552731"><ele>978.0</ele><time>2026-05-03T11:30:19.048Z</time></trkpt><trkpt lat="41.9255812" lon="13.2551509"><ele>978.0</ele><time>2026-05-03T11:30:20.055Z</time></trkpt><trkpt lat="41.9255563" lon="13.2549772"><ele>978.0</ele><time>2026-05-03T11:30:21.057Z</time></trkpt><trkpt lat="41.9255429" lon="13.2547713"><ele>972.3333333333333</ele><time>2026-05-03T11:30:22.054Z</time></trkpt><trkpt lat="41.9255466" lon="13.2545712"><ele>966.6666666666666</ele><time>2026-05-03T11:30:23.051Z</time></trkpt><trkpt lat="41.9255716" lon="13.2543504"><ele>961.0</ele><time>2026-05-03T11:30:24.069Z</time></trkpt><trkpt lat="41.9256049" lon="13.2541199"><ele>959.0</ele><time>2026-05-03T11:30:25.056Z</time></trkpt><trkpt lat="41.9256226" lon="13.2539367"><ele>957.0</ele><time>2026-05-03T11:30:26.066Z</time></trkpt><trkpt lat="41.9256117" lon="13.2537841"><ele>955.0</ele><time>2026-05-03T11:30:27.06Z</time></trkpt><trkpt lat="41.92557" lon="13.2536451"><ele>953.0</ele><time>2026-05-03T11:30:28.061Z</time></trkpt><trkpt lat="41.9254859" lon="13.253482"><ele>953.0</ele><time>2026-05-03T11:30:29.068Z</time></trkpt><trkpt lat="41.9253919" lon="13.2532884"><ele>953.0</ele><time>2026-05-03T11:30:30.058Z</time></trkpt><trkpt lat="41.9252844" lon="13.253083"><ele>953.0</ele><time>2026-05-03T11:30:31.054Z</time></trkpt><trkpt lat="41.9251737" lon="13.2528668"><ele>951.3333333333334</ele><time>2026-05-03T11:30:32.053Z</time></trkpt><trkpt lat="41.9250506" lon="13.2526445"><ele>949.6666666666667</ele><time>2026-05-03T11:30:33.051Z</time></trkpt><trkpt lat="41.9249331" lon="13.2524207"><ele>948.0</ele><time>2026-05-03T11:30:34.058Z</time></trkpt><trkpt lat="41.9248162" lon="13.2522"><ele>948.0</ele><time>2026-05-03T11:30:35.059Z</time></trkpt><trkpt lat="41.9247068" lon="13.2519866"><ele>948.0</ele><time>2026-05-03T11:30:36.098Z</time></trkpt><trkpt lat="41.924612" lon="13.2517816"><ele>948.0</ele><time>2026-05-03T11:30:37.06Z</time></trkpt><trkpt lat="41.9245439" lon="13.2515656"><ele>945.3333333333333</ele><time>2026-05-03T11:30:38.059Z</time></trkpt><trkpt lat="41.9245099" lon="13.2513494"><ele>942.6666666666666</ele><time>2026-05-03T11:30:39.056Z</time></trkpt><trkpt lat="41.9245074" lon="13.2511389"><ele>940.0</ele><time>2026-05-03T11:30:40.057Z</time></trkpt><trkpt lat="41.9245556" lon="13.2509438"><ele>940.0</ele><time>2026-05-03T11:30:41.054Z</time></trkpt><trkpt lat="41.9246094" lon="13.2507502"><ele>940.0</ele><time>2026-05-03T11:30:42.05Z</time></trkpt><trkpt lat="41.9246428" lon="13.2505616"><ele>940.0</ele><time>2026-05-03T11:30:43.058Z</time></trkpt><trkpt lat="41.9246617" lon="13.2503744"><ele>940.0</ele><time>2026-05-03T11:30:44.056Z</time></trkpt><trkpt lat="41.9246786" lon="13.2502471"><ele>939.5</ele><time>2026-05-03T11:30:45.051Z</time></trkpt><trkpt lat="41.9247402" lon="13.2501604"><ele>939.0</ele><time>2026-05-03T11:30:46.057Z</time></trkpt><trkpt lat="41.9248174" lon="13.2500771"><ele>938.5</ele><time>2026-05-03T11:30:47.055Z</time></trkpt><trkpt lat="41.9248742" lon="13.2499267"><ele>938.0</ele><time>2026-05-03T11:30:48.06Z</time></trkpt><trkpt lat="41.9249202" lon="13.2497221"><ele>938.0</ele><time>2026-05-03T11:30:49.053Z</time></trkpt><trkpt lat="41.9249738" lon="13.2495036"><ele>938.0</ele><time>2026-05-03T11:30:50.048Z</time></trkpt><trkpt lat="41.9249992" lon="13.249279"><ele>938.0</ele><time>2026-05-03T11:30:51.057Z</time></trkpt><trkpt lat="41.9250106" lon="13.2490647"><ele>937.0</ele><time>2026-05-03T11:30:52.055Z</time></trkpt><trkpt lat="41.9250129" lon="13.2488737"><ele>936.0</ele><time>2026-05-03T11:30:53.052Z</time></trkpt><trkpt lat="41.9249895" lon="13.2486967"><ele>935.0</ele><time>2026-05-03T11:30:54.057Z</time></trkpt><trkpt lat="41.92498" lon="13.2485315"><ele>934.0</ele><time>2026-05-03T11:30:55.061Z</time></trkpt><trkpt lat="41.925005" lon="13.248381"><ele>925.5</ele><time>2026-05-03T11:30:56.065Z</time></trkpt><trkpt lat="41.9250702" lon="13.2482391"><ele>917.0</ele><time>2026-05-03T11:30:57.062Z</time></trkpt><trkpt lat="41.9251272" lon="13.2480708"><ele>908.5</ele><time>2026-05-03T11:30:58.06Z</time></trkpt><trkpt lat="41.9251574" lon="13.2478428"><ele>900.0</ele><time>2026-05-03T11:30:59.059Z</time></trkpt><trkpt lat="41.9251492" lon="13.2476139"><ele>899.5</ele><time>2026-05-03T11:31:00.063Z</time></trkpt><trkpt lat="41.9251338" lon="13.2474074"><ele>899.0</ele><time>2026-05-03T11:31:01.084Z</time></trkpt><trkpt lat="41.9251077" lon="13.2472463"><ele>898.5</ele><time>2026-05-03T11:31:02.06Z</time></trkpt><trkpt lat="41.9250742" lon="13.2471062"><ele>898.0</ele><time>2026-05-03T11:31:03.061Z</time></trkpt><trkpt lat="41.9249923" lon="13.2470267"><ele>901.4</ele><time>2026-05-03T11:31:04.066Z</time></trkpt><trkpt lat="41.924888" lon="13.2469734"><ele>904.8</ele><time>2026-05-03T11:31:05.058Z</time></trkpt><trkpt lat="41.9247978" lon="13.246898"><ele>908.2</ele><time>2026-05-03T11:31:06.066Z</time></trkpt><trkpt lat="41.9247591" lon="13.2467807"><ele>911.6</ele><time>2026-05-03T11:31:07.07Z</time></trkpt><trkpt lat="41.9247823" lon="13.2466563"><ele>915.0</ele><time>2026-05-03T11:31:08.06Z</time></trkpt><trkpt lat="41.9248368" lon="13.2465457"><ele>913.0</ele><time>2026-05-03T11:31:09.057Z</time></trkpt><trkpt lat="41.9248811" lon="13.2464046"><ele>911.0</ele><time>2026-05-03T11:31:10.052Z</time></trkpt><trkpt lat="41.9248757" lon="13.2462421"><ele>909.0</ele><time>2026-05-03T11:31:11.058Z</time></trkpt><trkpt lat="41.9248178" lon="13.2460869"><ele>907.0</ele><time>2026-05-03T11:31:12.052Z</time></trkpt><trkpt lat="41.9247156" lon="13.2459697"><ele>907.0</ele><time>2026-05-03T11:31:13.078Z</time></trkpt><trkpt lat="41.9245877" lon="13.2458627"><ele>907.0</ele><time>2026-05-03T11:31:14.057Z</time></trkpt><trkpt lat="41.9244659" lon="13.2457243"><ele>907.0</ele><time>2026-05-03T11:31:15.056Z</time></trkpt><trkpt lat="41.9243778" lon="13.2455489"><ele>902.6666666666666</ele><time>2026-05-03T11:31:16.055Z</time></trkpt><trkpt lat="41.9243195" lon="13.2453574"><ele>898.3333333333333</ele><time>2026-05-03T11:31:17.056Z</time></trkpt><trkpt lat="41.9242873" lon="13.2451277"><ele>894.0</ele><time>2026-05-03T11:31:18.056Z</time></trkpt><trkpt lat="41.924279" lon="13.2448787"><ele>889.3333333333333</ele><time>2026-05-03T11:31:19.059Z</time></trkpt><trkpt lat="41.9242534" lon="13.2446487"><ele>884.6666666666666</ele><time>2026-05-03T11:31:20.049Z</time></trkpt><trkpt lat="41.9242082" lon="13.2444667"><ele>880.0</ele><time>2026-05-03T11:31:21.066Z</time></trkpt><trkpt lat="41.924187" lon="13.2442839"><ele>879.0</ele><time>2026-05-03T11:31:22.059Z</time></trkpt><trkpt lat="41.9242057" lon="13.2440943"><ele>878.0</ele><time>2026-05-03T11:31:23.058Z</time></trkpt><trkpt lat="41.9242794" lon="13.243897"><ele>877.0</ele><time>2026-05-03T11:31:24.055Z</time></trkpt><trkpt lat="41.9243745" lon="13.2436963"><ele>877.0</ele><time>2026-05-03T11:31:25.049Z</time></trkpt><trkpt lat="41.924468" lon="13.2434828"><ele>877.0</ele><time>2026-05-03T11:31:26.056Z</time></trkpt><trkpt lat="41.9245554" lon="13.2432866"><ele>877.0</ele><time>2026-05-03T11:31:27.061Z</time></trkpt><trkpt lat="41.924633" lon="13.2431229"><ele>876.75</ele><time>2026-05-03T11:31:28.063Z</time></trkpt><trkpt lat="41.9246853" lon="13.2429599"><ele>876.5</ele><time>2026-05-03T11:31:29.055Z</time></trkpt><trkpt lat="41.9247077" lon="13.2427764"><ele>876.25</ele><time>2026-05-03T11:31:30.059Z</time></trkpt><trkpt lat="41.9246973" lon="13.2425759"><ele>876.0</ele><time>2026-05-03T11:31:31.058Z</time></trkpt><trkpt lat="41.9246593" lon="13.2423741"><ele>873.3333333333333</ele><time>2026-05-03T11:31:32.06Z</time></trkpt><trkpt lat="41.9246094" lon="13.2421719"><ele>870.6666666666666</ele><time>2026-05-03T11:31:33.059Z</time></trkpt><trkpt lat="41.924575" lon="13.2419626"><ele>868.0</ele><time>2026-05-03T11:31:34.067Z</time></trkpt><trkpt lat="41.9245885" lon="13.2417412"><ele>868.0</ele><time>2026-05-03T11:31:35.061Z</time></trkpt><trkpt lat="41.92461" lon="13.241525"><ele>868.0</ele><time>2026-05-03T11:31:36.057Z</time></trkpt><trkpt lat="41.9246211" lon="13.2413343"><ele>868.0</ele><time>2026-05-03T11:31:37.049Z</time></trkpt><trkpt lat="41.924636" lon="13.2411574"><ele>868.0</ele><time>2026-05-03T11:31:38.052Z</time></trkpt><trkpt lat="41.9246495" lon="13.2409944"><ele>868.3333333333333</ele><time>2026-05-03T11:31:39.059Z</time></trkpt><trkpt lat="41.9246751" lon="13.2408032"><ele>868.6666666666667</ele><time>2026-05-03T11:31:40.058Z</time></trkpt><trkpt lat="41.9247231" lon="13.240583"><ele>869.0</ele><time>2026-05-03T11:31:41.056Z</time></trkpt><trkpt lat="41.924798" lon="13.2403346"><ele>872.3333333333334</ele><time>2026-05-03T11:31:42.054Z</time></trkpt><trkpt lat="41.9248816" lon="13.2400841"><ele>875.6666666666667</ele><time>2026-05-03T11:31:43.056Z</time></trkpt><trkpt lat="41.9249592" lon="13.2398326"><ele>879.0</ele><time>2026-05-03T11:31:44.055Z</time></trkpt><trkpt lat="41.9250291" lon="13.2395808"><ele>870.3333333333333</ele><time>2026-05-03T11:31:45.058Z</time></trkpt><trkpt lat="41.9250794" lon="13.2393431"><ele>861.6666666666666</ele><time>2026-05-03T11:31:46.057Z</time></trkpt><trkpt lat="41.925144" lon="13.2391275"><ele>853.0</ele><time>2026-05-03T11:31:47.05Z</time></trkpt><trkpt lat="41.9252325" lon="13.2389333"><ele>853.0</ele><time>2026-05-03T11:31:48.055Z</time></trkpt><trkpt lat="41.925353" lon="13.2387624"><ele>853.0</ele><time>2026-05-03T11:31:49.06Z</time></trkpt><trkpt lat="41.925472" lon="13.2385927"><ele>853.0</ele><time>2026-05-03T11:31:50.058Z</time></trkpt><trkpt lat="41.9255579" lon="13.2383697"><ele>859.3333333333333</ele><time>2026-05-03T11:31:51.056Z</time></trkpt><trkpt lat="41.9256403" lon="13.2381198"><ele>865.6666666666667</ele><time>2026-05-03T11:31:52.055Z</time></trkpt><trkpt lat="41.9257259" lon="13.2378789"><ele>872.0</ele><time>2026-05-03T11:31:53.05Z</time></trkpt><trkpt lat="41.925811" lon="13.2376564"><ele>858.6666666666667</ele><time>2026-05-03T11:31:54.096Z</time></trkpt><trkpt lat="41.9259194" lon="13.2374676"><ele>845.3333333333333</ele><time>2026-05-03T11:31:55.055Z</time></trkpt><trkpt lat="41.9260174" lon="13.237283"><ele>832.0</ele><time>2026-05-03T11:31:56.056Z</time></trkpt><trkpt lat="41.9260807" lon="13.2370818"><ele>832.0</ele><time>2026-05-03T11:31:57.056Z</time></trkpt><trkpt lat="41.9260967" lon="13.2368608"><ele>832.0</ele><time>2026-05-03T11:31:58.055Z</time></trkpt><trkpt lat="41.9261036" lon="13.2366447"><ele>832.0</ele><time>2026-05-03T11:31:59.06Z</time></trkpt><trkpt lat="41.9260628" lon="13.2364157"><ele>829.6666666666666</ele><time>2026-05-03T11:32:00.058Z</time></trkpt><trkpt lat="41.926" lon="13.2361995"><ele>827.3333333333333</ele><time>2026-05-03T11:32:01.085Z</time></trkpt><trkpt lat="41.9259189" lon="13.2360056"><ele>825.0</ele><time>2026-05-03T11:32:02.059Z</time></trkpt><trkpt lat="41.9258475" lon="13.235843"><ele>832.75</ele><time>2026-05-03T11:32:03.056Z</time></trkpt><trkpt lat="41.9257748" lon="13.2357098"><ele>840.5</ele><time>2026-05-03T11:32:04.066Z</time></trkpt><trkpt lat="41.9257312" lon="13.2355709"><ele>848.25</ele><time>2026-05-03T11:32:05.062Z</time></trkpt><trkpt lat="41.9257493" lon="13.2354284"><ele>856.0</ele><time>2026-05-03T11:32:06.093Z</time></trkpt><trkpt lat="41.9258358" lon="13.2353005"><ele>856.0</ele><time>2026-05-03T11:32:07.053Z</time></trkpt><trkpt lat="41.9258868" lon="13.2351703"><ele>856.0</ele><time>2026-05-03T11:32:08.061Z</time></trkpt><trkpt lat="41.9258987" lon="13.2350332"><ele>856.0</ele><time>2026-05-03T11:32:09.062Z</time></trkpt><trkpt lat="41.9258322" lon="13.2349002"><ele>856.0</ele><time>2026-05-03T11:32:10.059Z</time></trkpt><trkpt lat="41.9257536" lon="13.2347412"><ele>852.0</ele><time>2026-05-03T11:32:11.06Z</time></trkpt><trkpt lat="41.925678" lon="13.2345646"><ele>848.0</ele><time>2026-05-03T11:32:12.062Z</time></trkpt><trkpt lat="41.9255923" lon="13.2343926"><ele>844.0</ele><time>2026-05-03T11:32:13.056Z</time></trkpt><trkpt lat="41.9254997" lon="13.2342476"><ele>840.0</ele><time>2026-05-03T11:32:14.055Z</time></trkpt><trkpt lat="41.9254426" lon="13.2340881"><ele>840.25</ele><time>2026-05-03T11:32:15.061Z</time></trkpt><trkpt lat="41.9254323" lon="13.2339382"><ele>840.5</ele><time>2026-05-03T11:32:16.063Z</time></trkpt><trkpt lat="41.9254449" lon="13.2337893"><ele>840.75</ele><time>2026-05-03T11:32:17.091Z</time></trkpt><trkpt lat="41.9254602" lon="13.2336287"><ele>841.0</ele><time>2026-05-03T11:32:18.054Z</time></trkpt><trkpt lat="41.9254543" lon="13.2334807"><ele>840.9999999999999</ele><time>2026-05-03T11:32:19.064Z</time></trkpt><trkpt lat="41.9254391" lon="13.2333576"><ele>841.0</ele><time>2026-05-03T11:32:20.055Z</time></trkpt><trkpt lat="41.9254207" lon="13.2332536"><ele>841.0</ele><time>2026-05-03T11:32:21.06Z</time></trkpt><trkpt lat="41.9254274" lon="13.2331168"><ele>841.0</ele><time>2026-05-03T11:32:23.058Z</time></trkpt><trkpt lat="41.9254242" lon="13.2330317"><ele>840.9999999999999</ele><time>2026-05-03T11:32:26.059Z</time></trkpt><trkpt lat="41.9253833" lon="13.232901"><ele>841.0</ele><time>2026-05-03T11:32:54.054Z</time></trkpt><trkpt lat="41.9253591" lon="13.2327892"><ele>841.4999999999999</ele><time>2026-05-03T11:32:55.068Z</time></trkpt><trkpt lat="41.9253317" lon="13.2327046"><ele>842.0</ele><time>2026-05-03T11:32:56.061Z</time></trkpt><trkpt lat="41.9252903" lon="13.2326276"><ele>842.5</ele><time>2026-05-03T11:32:57.059Z</time></trkpt><trkpt lat="41.9252331" lon="13.23258"><ele>843.0</ele><time>2026-05-03T11:32:58.057Z</time></trkpt><trkpt lat="41.9251572" lon="13.2325295"><ele>843.4999999999999</ele><time>2026-05-03T11:32:59.058Z</time></trkpt><trkpt lat="41.9250575" lon="13.2324766"><ele>844.0</ele><time>2026-05-03T11:33:00.056Z</time></trkpt><trkpt lat="41.9249463" lon="13.2324436"><ele>846.75</ele><time>2026-05-03T11:33:01.06Z</time></trkpt><trkpt lat="41.9248317" lon="13.2323942"><ele>849.5</ele><time>2026-05-03T11:33:02.059Z</time></trkpt><trkpt lat="41.9247166" lon="13.2323358"><ele>852.25</ele><time>2026-05-03T11:33:03.065Z</time></trkpt><trkpt lat="41.9246071" lon="13.2322344"><ele>855.0</ele><time>2026-05-03T11:33:04.054Z</time></trkpt><trkpt lat="41.9245225" lon="13.2321186"><ele>849.5</ele><time>2026-05-03T11:33:05.075Z</time></trkpt><trkpt lat="41.9244577" lon="13.2319816"><ele>844.0</ele><time>2026-05-03T11:33:06.057Z</time></trkpt><trkpt lat="41.9244394" lon="13.231851"><ele>838.5</ele><time>2026-05-03T11:33:07.055Z</time></trkpt><trkpt lat="41.9244652" lon="13.2317045"><ele>833.0</ele><time>2026-05-03T11:33:08.055Z</time></trkpt><trkpt lat="41.9244952" lon="13.2315496"><ele>828.0</ele><time>2026-05-03T11:33:09.052Z</time></trkpt><trkpt lat="41.9245217" lon="13.2313846"><ele>823.0</ele><time>2026-05-03T11:33:10.066Z</time></trkpt><trkpt lat="41.9245428" lon="13.2312431"><ele>818.0</ele><time>2026-05-03T11:33:11.053Z</time></trkpt><trkpt lat="41.9245118" lon="13.2311136"><ele>813.0</ele><time>2026-05-03T11:33:12.059Z</time></trkpt><trkpt lat="41.9244404" lon="13.2309799"><ele>813.0</ele><time>2026-05-03T11:33:13.069Z</time></trkpt><trkpt lat="41.9243634" lon="13.2308151"><ele>813.0</ele><time>2026-05-03T11:33:14.051Z</time></trkpt><trkpt lat="41.9243206" lon="13.2306221"><ele>813.0</ele><time>2026-05-03T11:33:15.057Z</time></trkpt><trkpt lat="41.9242792" lon="13.2304222"><ele>813.0</ele><time>2026-05-03T11:33:16.051Z</time></trkpt><trkpt lat="41.9242525" lon="13.2302429"><ele>813.0</ele><time>2026-05-03T11:33:17.055Z</time></trkpt><trkpt lat="41.924245" lon="13.2300814"><ele>813.0</ele><time>2026-05-03T11:33:18.056Z</time></trkpt><trkpt lat="41.9242115" lon="13.2299388"><ele>813.0</ele><time>2026-05-03T11:33:19.056Z</time></trkpt><trkpt lat="41.9241435" lon="13.2298184"><ele>813.0</ele><time>2026-05-03T11:33:20.053Z</time></trkpt><trkpt lat="41.9240624" lon="13.2297"><ele>813.0</ele><time>2026-05-03T11:33:21.054Z</time></trkpt><trkpt lat="41.9239815" lon="13.2295819"><ele>813.0</ele><time>2026-05-03T11:33:22.057Z</time></trkpt><trkpt lat="41.9239218" lon="13.2294449"><ele>813.0</ele><time>2026-05-03T11:33:23.055Z</time></trkpt><trkpt lat="41.9238927" lon="13.2292961"><ele>813.0</ele><time>2026-05-03T11:33:24.051Z</time></trkpt><trkpt lat="41.9238518" lon="13.2291873"><ele>813.0</ele><time>2026-05-03T11:33:25.074Z</time></trkpt><trkpt lat="41.9237908" lon="13.2291111"><ele>813.0</ele><time>2026-05-03T11:33:26.055Z</time></trkpt><trkpt lat="41.9237347" lon="13.2290718"><ele>813.0</ele><time>2026-05-03T11:33:27.057Z</time></trkpt><trkpt lat="41.9236318" lon="13.2289703"><ele>813.0</ele><time>2026-05-03T11:33:29.057Z</time></trkpt><trkpt lat="41.923528" lon="13.2289194"><ele>813.0</ele><time>2026-05-03T11:33:30.057Z</time></trkpt><trkpt lat="41.9234014" lon="13.2288953"><ele>813.0</ele><time>2026-05-03T11:33:31.051Z</time></trkpt><trkpt lat="41.9232709" lon="13.2288373"><ele>808.3333333333333</ele><time>2026-05-03T11:33:32.055Z</time></trkpt><trkpt lat="41.9231498" lon="13.2287249"><ele>803.6666666666666</ele><time>2026-05-03T11:33:33.06Z</time></trkpt><trkpt lat="41.9230244" lon="13.2285712"><ele>799.0</ele><time>2026-05-03T11:33:34.067Z</time></trkpt><trkpt lat="41.9228995" lon="13.2284079"><ele>799.0</ele><time>2026-05-03T11:33:35.059Z</time></trkpt><trkpt lat="41.9227866" lon="13.2282634"><ele>799.0</ele><time>2026-05-03T11:33:36.071Z</time></trkpt><trkpt lat="41.9226804" lon="13.2281385"><ele>799.0</ele><time>2026-05-03T11:33:37.056Z</time></trkpt><trkpt lat="41.9225816" lon="13.228025"><ele>799.0</ele><time>2026-05-03T11:33:38.062Z</time></trkpt><trkpt lat="41.9224769" lon="13.2279406"><ele>793.75</ele><time>2026-05-03T11:33:39.056Z</time></trkpt><trkpt lat="41.9223638" lon="13.2279088"><ele>788.5</ele><time>2026-05-03T11:33:40.06Z</time></trkpt><trkpt lat="41.9222172" lon="13.2279198"><ele>783.25</ele><time>2026-05-03T11:33:41.058Z</time></trkpt><trkpt lat="41.9220716" lon="13.2279478"><ele>778.0</ele><time>2026-05-03T11:33:42.056Z</time></trkpt><trkpt lat="41.9219418" lon="13.2280048"><ele>778.0</ele><time>2026-05-03T11:33:43.064Z</time></trkpt><trkpt lat="41.921818" lon="13.2280729"><ele>778.0</ele><time>2026-05-03T11:33:44.053Z</time></trkpt><trkpt lat="41.9217161" lon="13.2281376"><ele>778.0</ele><time>2026-05-03T11:33:45.051Z</time></trkpt><trkpt lat="41.9216265" lon="13.2281743"><ele>778.0</ele><time>2026-05-03T11:33:46.058Z</time></trkpt><trkpt lat="41.9215384" lon="13.2281692"><ele>778.0</ele><time>2026-05-03T11:33:47.05Z</time></trkpt><trkpt lat="41.9214428" lon="13.2281342"><ele>778.0</ele><time>2026-05-03T11:33:48.055Z</time></trkpt><trkpt lat="41.9213646" lon="13.2280492"><ele>778.0</ele><time>2026-05-03T11:33:49.057Z</time></trkpt><trkpt lat="41.9212826" lon="13.2279128"><ele>778.0</ele><time>2026-05-03T11:33:50.046Z</time></trkpt><trkpt lat="41.9211821" lon="13.227752"><ele>778.0</ele><time>2026-05-03T11:33:51.05Z</time></trkpt><trkpt lat="41.9210559" lon="13.2276037"><ele>778.0</ele><time>2026-05-03T11:33:52.055Z</time></trkpt><trkpt lat="41.9209249" lon="13.2274366"><ele>778.0</ele><time>2026-05-03T11:33:53.047Z</time></trkpt><trkpt lat="41.9207911" lon="13.2272682"><ele>778.0</ele><time>2026-05-03T11:33:54.053Z</time></trkpt><trkpt lat="41.9206515" lon="13.2270983"><ele>772.0</ele><time>2026-05-03T11:33:55.055Z</time></trkpt><trkpt lat="41.9204982" lon="13.226946"><ele>766.0</ele><time>2026-05-03T11:33:56.055Z</time></trkpt><trkpt lat="41.9203427" lon="13.2268199"><ele>760.0</ele><time>2026-05-03T11:33:57.054Z</time></trkpt><trkpt lat="41.9201896" lon="13.2267239"><ele>761.0</ele><time>2026-05-03T11:33:58.061Z</time></trkpt><trkpt lat="41.9200497" lon="13.2266124"><ele>762.0</ele><time>2026-05-03T11:33:59.055Z</time></trkpt><trkpt lat="41.9199167" lon="13.2264762"><ele>763.0</ele><time>2026-05-03T11:34:00.058Z</time></trkpt><trkpt lat="41.9197633" lon="13.2263497"><ele>763.0</ele><time>2026-05-03T11:34:01.058Z</time></trkpt><trkpt lat="41.9195944" lon="13.2262542"><ele>763.0</ele><time>2026-05-03T11:34:02.049Z</time></trkpt><trkpt lat="41.9194175" lon="13.226149"><ele>763.0</ele><time>2026-05-03T11:34:03.05Z</time></trkpt><trkpt lat="41.919241" lon="13.2260555"><ele>769.3333333333334</ele><time>2026-05-03T11:34:04.052Z</time></trkpt><trkpt lat="41.9190622" lon="13.2259971"><ele>775.6666666666667</ele><time>2026-05-03T11:34:05.06Z</time></trkpt><trkpt lat="41.9188662" lon="13.225992"><ele>782.0</ele><time>2026-05-03T11:34:06.059Z</time></trkpt><trkpt lat="41.9186663" lon="13.2259565"><ele>782.0</ele><time>2026-05-03T11:34:07.101Z</time></trkpt><trkpt lat="41.9184847" lon="13.225884"><ele>782.0</ele><time>2026-05-03T11:34:08.059Z</time></trkpt><trkpt lat="41.9183117" lon="13.2257832"><ele>782.0</ele><time>2026-05-03T11:34:09.056Z</time></trkpt><trkpt lat="41.918155" lon="13.2256719"><ele>777.6666666666667</ele><time>2026-05-03T11:34:10.06Z</time></trkpt><trkpt lat="41.9180425" lon="13.2254965"><ele>773.3333333333333</ele><time>2026-05-03T11:34:11.06Z</time></trkpt><trkpt lat="41.9179575" lon="13.225289"><ele>769.0</ele><time>2026-05-03T11:34:12.054Z</time></trkpt><trkpt lat="41.9178647" lon="13.225104"><ele>769.0</ele><time>2026-05-03T11:34:13.068Z</time></trkpt><trkpt lat="41.9177411" lon="13.2249537"><ele>769.0</ele><time>2026-05-03T11:34:14.057Z</time></trkpt><trkpt lat="41.9175764" lon="13.2248496"><ele>769.0</ele><time>2026-05-03T11:34:15.059Z</time></trkpt><trkpt lat="41.9174005" lon="13.2247563"><ele>765.0</ele><time>2026-05-03T11:34:16.055Z</time></trkpt><trkpt lat="41.9172322" lon="13.2246664"><ele>761.0</ele><time>2026-05-03T11:34:17.057Z</time></trkpt><trkpt lat="41.9170877" lon="13.2245863"><ele>757.0</ele><time>2026-05-03T11:34:18.057Z</time></trkpt><trkpt lat="41.9169426" lon="13.2245189"><ele>757.0</ele><time>2026-05-03T11:34:19.059Z</time></trkpt><trkpt lat="41.9168086" lon="13.2244992"><ele>757.0</ele><time>2026-05-03T11:34:20.064Z</time></trkpt><trkpt lat="41.9166794" lon="13.2245207"><ele>757.0</ele><time>2026-05-03T11:34:21.062Z</time></trkpt><trkpt lat="41.9165614" lon="13.2246035"><ele>757.0</ele><time>2026-05-03T11:34:22.072Z</time></trkpt><trkpt lat="41.9164467" lon="13.2247187"><ele>759.5</ele><time>2026-05-03T11:34:23.061Z</time></trkpt><trkpt lat="41.9163159" lon="13.2247683"><ele>762.0</ele><time>2026-05-03T11:34:24.06Z</time></trkpt><trkpt lat="41.9161797" lon="13.224759"><ele>764.5</ele><time>2026-05-03T11:34:25.057Z</time></trkpt><trkpt lat="41.9160457" lon="13.2246827"><ele>767.0</ele><time>2026-05-03T11:34:26.056Z</time></trkpt><trkpt lat="41.9159008" lon="13.2245857"><ele>768.25</ele><time>2026-05-03T11:34:27.051Z</time></trkpt><trkpt lat="41.9157735" lon="13.2244771"><ele>769.5</ele><time>2026-05-03T11:34:28.052Z</time></trkpt><trkpt lat="41.9156696" lon="13.2243522"><ele>770.75</ele><time>2026-05-03T11:34:29.057Z</time></trkpt><trkpt lat="41.9155964" lon="13.2241849"><ele>772.0</ele><time>2026-05-03T11:34:30.06Z</time></trkpt><trkpt lat="41.9155347" lon="13.2239664"><ele>768.0</ele><time>2026-05-03T11:34:31.053Z</time></trkpt><trkpt lat="41.9154627" lon="13.2237752"><ele>764.0</ele><time>2026-05-03T11:34:32.056Z</time></trkpt><trkpt lat="41.9153634" lon="13.2236142"><ele>760.0</ele><time>2026-05-03T11:34:33.056Z</time></trkpt><trkpt lat="41.9152363" lon="13.2234817"><ele>760.0</ele><time>2026-05-03T11:34:34.055Z</time></trkpt><trkpt lat="41.9151016" lon="13.2233738"><ele>760.0</ele><time>2026-05-03T11:34:35.078Z</time></trkpt><trkpt lat="41.9149422" lon="13.2233068"><ele>760.0</ele><time>2026-05-03T11:34:36.063Z</time></trkpt><trkpt lat="41.914765" lon="13.2232719"><ele>761.3333333333334</ele><time>2026-05-03T11:34:37.062Z</time></trkpt><trkpt lat="41.9145922" lon="13.2232618"><ele>762.6666666666666</ele><time>2026-05-03T11:34:38.058Z</time></trkpt><trkpt lat="41.9144304" lon="13.22325"><ele>764.0</ele><time>2026-05-03T11:34:39.056Z</time></trkpt><trkpt lat="41.914285" lon="13.2232635"><ele>764.3333333333333</ele><time>2026-05-03T11:34:40.063Z</time></trkpt><trkpt lat="41.9141421" lon="13.223329"><ele>764.6666666666666</ele><time>2026-05-03T11:34:41.07Z</time></trkpt><trkpt lat="41.9140048" lon="13.2234333"><ele>765.0</ele><time>2026-05-03T11:34:42.057Z</time></trkpt><trkpt lat="41.9138663" lon="13.2235464"><ele>765.0</ele><time>2026-05-03T11:34:43.054Z</time></trkpt><trkpt lat="41.9137316" lon="13.223639"><ele>765.0</ele><time>2026-05-03T11:34:44.057Z</time></trkpt><trkpt lat="41.9136073" lon="13.2236763"><ele>765.0</ele><time>2026-05-03T11:34:45.056Z</time></trkpt><trkpt lat="41.913463" lon="13.2236439"><ele>765.0</ele><time>2026-05-03T11:34:46.059Z</time></trkpt><trkpt lat="41.9133185" lon="13.2236092"><ele>761.0</ele><time>2026-05-03T11:34:47.064Z</time></trkpt><trkpt lat="41.9131618" lon="13.2236209"><ele>757.0</ele><time>2026-05-03T11:34:48.056Z</time></trkpt><trkpt lat="41.9130135" lon="13.2236229"><ele>753.0</ele><time>2026-05-03T11:34:49.06Z</time></trkpt><trkpt lat="41.9128634" lon="13.2235945"><ele>753.0</ele><time>2026-05-03T11:34:50.059Z</time></trkpt><trkpt lat="41.9127343" lon="13.223505"><ele>753.0</ele><time>2026-05-03T11:34:51.061Z</time></trkpt><trkpt lat="41.9125969" lon="13.2234296"><ele>753.0</ele><time>2026-05-03T11:34:52.053Z</time></trkpt><trkpt lat="41.9124631" lon="13.223356"><ele>753.0</ele><time>2026-05-03T11:34:53.06Z</time></trkpt><trkpt lat="41.9123398" lon="13.2232921"><ele>752.0</ele><time>2026-05-03T11:34:54.064Z</time></trkpt><trkpt lat="41.9122174" lon="13.2232526"><ele>751.0</ele><time>2026-05-03T11:34:55.06Z</time></trkpt><trkpt lat="41.9121062" lon="13.2232505"><ele>750.0</ele><time>2026-05-03T11:34:56.062Z</time></trkpt><trkpt lat="41.9120187" lon="13.223294"><ele>749.0</ele><time>2026-05-03T11:34:57.056Z</time></trkpt><trkpt lat="41.9119508" lon="13.2234042"><ele>748.0</ele><time>2026-05-03T11:34:58.059Z</time></trkpt><trkpt lat="41.9119081" lon="13.2235503"><ele>748.0</ele><time>2026-05-03T11:34:59.06Z</time></trkpt><trkpt lat="41.9118624" lon="13.2236904"><ele>748.0</ele><time>2026-05-03T11:35:00.058Z</time></trkpt><trkpt lat="41.9118375" lon="13.2238267"><ele>748.0</ele><time>2026-05-03T11:35:01.064Z</time></trkpt><trkpt lat="41.9118187" lon="13.2239559"><ele>748.0</ele><time>2026-05-03T11:35:02.059Z</time></trkpt><trkpt lat="41.9117821" lon="13.2240791"><ele>748.0</ele><time>2026-05-03T11:35:03.053Z</time></trkpt><trkpt lat="41.9117186" lon="13.2241476"><ele>749.0</ele><time>2026-05-03T11:35:04.053Z</time></trkpt><trkpt lat="41.9116254" lon="13.2241607"><ele>750.0</ele><time>2026-05-03T11:35:05.063Z</time></trkpt><trkpt lat="41.9115465" lon="13.2241102"><ele>751.0</ele><time>2026-05-03T11:35:06.053Z</time></trkpt><trkpt lat="41.9114678" lon="13.2240238"><ele>752.0</ele><time>2026-05-03T11:35:07.056Z</time></trkpt><trkpt lat="41.9113999" lon="13.2239148"><ele>753.0</ele><time>2026-05-03T11:35:08.052Z</time></trkpt><trkpt lat="41.9113288" lon="13.2238005"><ele>750.0</ele><time>2026-05-03T11:35:09.069Z</time></trkpt><trkpt lat="41.9112725" lon="13.2236979"><ele>747.0</ele><time>2026-05-03T11:35:10.053Z</time></trkpt><trkpt lat="41.9112164" lon="13.2235863"><ele>744.0</ele><time>2026-05-03T11:35:11.057Z</time></trkpt><trkpt lat="41.9111494" lon="13.2234722"><ele>741.0</ele><time>2026-05-03T11:35:12.06Z</time></trkpt><trkpt lat="41.911053" lon="13.2233565"><ele>738.0</ele><time>2026-05-03T11:35:13.053Z</time></trkpt><trkpt lat="41.910941" lon="13.223287"><ele>738.0</ele><time>2026-05-03T11:35:14.065Z</time></trkpt><trkpt lat="41.9108401" lon="13.223214"><ele>738.0</ele><time>2026-05-03T11:35:15.057Z</time></trkpt><trkpt lat="41.9107398" lon="13.2231506"><ele>738.0</ele><time>2026-05-03T11:35:16.071Z</time></trkpt><trkpt lat="41.9106387" lon="13.2231014"><ele>738.0</ele><time>2026-05-03T11:35:17.056Z</time></trkpt><trkpt lat="41.9105315" lon="13.2230749"><ele>738.0</ele><time>2026-05-03T11:35:18.059Z</time></trkpt><trkpt lat="41.9104171" lon="13.2230625"><ele>732.0</ele><time>2026-05-03T11:35:19.055Z</time></trkpt><trkpt lat="41.910299" lon="13.2230611"><ele>726.0</ele><time>2026-05-03T11:35:20.057Z</time></trkpt><trkpt lat="41.9101867" lon="13.2230624"><ele>720.0</ele><time>2026-05-03T11:35:21.062Z</time></trkpt><trkpt lat="41.9100658" lon="13.2230392"><ele>714.0</ele><time>2026-05-03T11:35:22.057Z</time></trkpt><trkpt lat="41.909941" lon="13.2229863"><ele>713.25</ele><time>2026-05-03T11:35:23.065Z</time></trkpt><trkpt lat="41.9098301" lon="13.222904"><ele>712.5</ele><time>2026-05-03T11:35:24.063Z</time></trkpt><trkpt lat="41.9097244" lon="13.2228106"><ele>711.75</ele><time>2026-05-03T11:35:25.06Z</time></trkpt><trkpt lat="41.9096086" lon="13.2227483"><ele>711.0</ele><time>2026-05-03T11:35:26.087Z</time></trkpt><trkpt lat="41.9094834" lon="13.2227103"><ele>711.0</ele><time>2026-05-03T11:35:27.061Z</time></trkpt><trkpt lat="41.9093673" lon="13.2226755"><ele>711.0</ele><time>2026-05-03T11:35:28.062Z</time></trkpt><trkpt lat="41.9092528" lon="13.2226609"><ele>711.0</ele><time>2026-05-03T11:35:29.061Z</time></trkpt><trkpt lat="41.9091444" lon="13.222675"><ele>711.0</ele><time>2026-05-03T11:35:30.065Z</time></trkpt><trkpt lat="41.9090366" lon="13.2227225"><ele>710.5999999999999</ele><time>2026-05-03T11:35:31.062Z</time></trkpt><trkpt lat="41.9089298" lon="13.222796"><ele>710.2</ele><time>2026-05-03T11:35:32.059Z</time></trkpt><trkpt lat="41.90884" lon="13.2228617"><ele>709.8</ele><time>2026-05-03T11:35:33.059Z</time></trkpt><trkpt lat="41.9087482" lon="13.222935"><ele>709.4000000000001</ele><time>2026-05-03T11:35:34.086Z</time></trkpt><trkpt lat="41.9086719" lon="13.2230152"><ele>709.0</ele><time>2026-05-03T11:35:35.059Z</time></trkpt><trkpt lat="41.9085858" lon="13.223084"><ele>709.0</ele><time>2026-05-03T11:35:36.062Z</time></trkpt><trkpt lat="41.9084987" lon="13.2231366"><ele>709.0</ele><time>2026-05-03T11:35:37.053Z</time></trkpt><trkpt lat="41.9084104" lon="13.2231702"><ele>709.0</ele><time>2026-05-03T11:35:38.057Z</time></trkpt><trkpt lat="41.9083219" lon="13.2231858"><ele>709.0</ele><time>2026-05-03T11:35:39.059Z</time></trkpt><trkpt lat="41.9082352" lon="13.2231971"><ele>709.0</ele><time>2026-05-03T11:35:40.069Z</time></trkpt><trkpt lat="41.9081561" lon="13.2232157"><ele>709.0</ele><time>2026-05-03T11:35:41.06Z</time></trkpt><trkpt lat="41.9080776" lon="13.2232516"><ele>709.8333333333334</ele><time>2026-05-03T11:35:42.102Z</time></trkpt><trkpt lat="41.908015" lon="13.2233151"><ele>710.6666666666667</ele><time>2026-05-03T11:35:43.062Z</time></trkpt><trkpt lat="41.9079768" lon="13.223408"><ele>711.5</ele><time>2026-05-03T11:35:44.057Z</time></trkpt><trkpt lat="41.9079627" lon="13.2235153"><ele>712.3333333333334</ele><time>2026-05-03T11:35:45.064Z</time></trkpt><trkpt lat="41.9079384" lon="13.2236068"><ele>713.1666666666666</ele><time>2026-05-03T11:35:46.06Z</time></trkpt><trkpt lat="41.9078844" lon="13.2236876"><ele>714.0</ele><time>2026-05-03T11:35:47.067Z</time></trkpt><trkpt lat="41.9078147" lon="13.2237388"><ele>714.0</ele><time>2026-05-03T11:35:48.058Z</time></trkpt><trkpt lat="41.9077533" lon="13.2237826"><ele>714.0</ele><time>2026-05-03T11:35:49.062Z</time></trkpt><trkpt lat="41.907642" lon="13.2238404"><ele>714.0</ele><time>2026-05-03T11:35:51.059Z</time></trkpt><trkpt lat="41.9075421" lon="13.2238752"><ele>714.0</ele><time>2026-05-03T11:35:53.06Z</time></trkpt><trkpt lat="41.9074722" lon="13.2238645"><ele>714.0</ele><time>2026-05-03T11:35:54.057Z</time></trkpt><trkpt lat="41.9074103" lon="13.2238302"><ele>714.0</ele><time>2026-05-03T11:35:55.06Z</time></trkpt><trkpt lat="41.9073517" lon="13.2237817"><ele>711.5</ele><time>2026-05-03T11:35:56.063Z</time></trkpt><trkpt lat="41.9073055" lon="13.2237114"><ele>709.0</ele><time>2026-05-03T11:35:57.06Z</time></trkpt><trkpt lat="41.9072677" lon="13.2236381"><ele>706.5</ele><time>2026-05-03T11:35:58.059Z</time></trkpt><trkpt lat="41.9072253" lon="13.2235718"><ele>704.0</ele><time>2026-05-03T11:35:59.059Z</time></trkpt><trkpt lat="41.9071766" lon="13.2235129"><ele>701.5</ele><time>2026-05-03T11:36:00.061Z</time></trkpt><trkpt lat="41.907083" lon="13.2234733"><ele>699.0</ele><time>2026-05-03T11:36:01.058Z</time></trkpt><trkpt lat="41.9069487" lon="13.2234636"><ele>699.0</ele><time>2026-05-03T11:36:02.059Z</time></trkpt><trkpt lat="41.9067909" lon="13.2234598"><ele>699.0</ele><time>2026-05-03T11:36:03.063Z</time></trkpt><trkpt lat="41.9066523" lon="13.2234536"><ele>699.0</ele><time>2026-05-03T11:36:04.062Z</time></trkpt><trkpt lat="41.9065373" lon="13.2234391"><ele>699.0</ele><time>2026-05-03T11:36:05.058Z</time></trkpt><trkpt lat="41.9064511" lon="13.2234303"><ele>698.8333333333334</ele><time>2026-05-03T11:36:06.062Z</time></trkpt><trkpt lat="41.9063607" lon="13.2234193"><ele>698.6666666666666</ele><time>2026-05-03T11:36:07.064Z</time></trkpt><trkpt lat="41.9062765" lon="13.223428"><ele>698.5</ele><time>2026-05-03T11:36:08.054Z</time></trkpt><trkpt lat="41.9062066" lon="13.2234616"><ele>698.3333333333333</ele><time>2026-05-03T11:36:09.059Z</time></trkpt><trkpt lat="41.9061483" lon="13.2235271"><ele>698.1666666666666</ele><time>2026-05-03T11:36:10.06Z</time></trkpt><trkpt lat="41.9060835" lon="13.2235961"><ele>698.0</ele><time>2026-05-03T11:36:11.061Z</time></trkpt><trkpt lat="41.9060226" lon="13.2236534"><ele>698.0</ele><time>2026-05-03T11:36:12.058Z</time></trkpt><trkpt lat="41.9059611" lon="13.2237126"><ele>698.0</ele><time>2026-05-03T11:36:13.066Z</time></trkpt><trkpt lat="41.9058835" lon="13.2237463"><ele>698.0</ele><time>2026-05-03T11:36:14.06Z</time></trkpt><trkpt lat="41.9057838" lon="13.2237429"><ele>698.0</ele><time>2026-05-03T11:36:15.053Z</time></trkpt><trkpt lat="41.9056806" lon="13.2236747"><ele>698.0</ele><time>2026-05-03T11:36:16.056Z</time></trkpt><trkpt lat="41.9055726" lon="13.223548"><ele>696.8</ele><time>2026-05-03T11:36:17.059Z</time></trkpt><trkpt lat="41.9054565" lon="13.2234484"><ele>695.5999999999999</ele><time>2026-05-03T11:36:18.056Z</time></trkpt><trkpt lat="41.9053415" lon="13.2233688"><ele>694.4000000000001</ele><time>2026-05-03T11:36:19.087Z</time></trkpt><trkpt lat="41.9052542" lon="13.2233341"><ele>693.2</ele><time>2026-05-03T11:36:20.056Z</time></trkpt><trkpt lat="41.9051713" lon="13.2233263"><ele>692.0</ele><time>2026-05-03T11:36:21.052Z</time></trkpt><trkpt lat="41.9050907" lon="13.2233204"><ele>693.75</ele><time>2026-05-03T11:36:22.059Z</time></trkpt><trkpt lat="41.9050244" lon="13.2232996"><ele>695.5</ele><time>2026-05-03T11:36:23.051Z</time></trkpt><trkpt lat="41.9049173" lon="13.2231659"><ele>697.25</ele><time>2026-05-03T11:36:25.057Z</time></trkpt><trkpt lat="41.9048399" lon="13.2230178"><ele>699.0</ele><time>2026-05-03T11:36:26.055Z</time></trkpt><trkpt lat="41.9047475" lon="13.2228563"><ele>689.6666666666666</ele><time>2026-05-03T11:36:27.051Z</time></trkpt><trkpt lat="41.9046147" lon="13.2227372"><ele>680.3333333333333</ele><time>2026-05-03T11:36:28.052Z</time></trkpt><trkpt lat="41.904478" lon="13.2226781"><ele>671.0</ele><time>2026-05-03T11:36:29.056Z</time></trkpt><trkpt lat="41.9043324" lon="13.2226583"><ele>673.5</ele><time>2026-05-03T11:36:30.066Z</time></trkpt><trkpt lat="41.9041818" lon="13.2226811"><ele>676.0</ele><time>2026-05-03T11:36:31.049Z</time></trkpt><trkpt lat="41.9040375" lon="13.2227148"><ele>678.5</ele><time>2026-05-03T11:36:32.049Z</time></trkpt><trkpt lat="41.9039048" lon="13.2226895"><ele>681.0</ele><time>2026-05-03T11:36:33.052Z</time></trkpt><trkpt lat="41.9037929" lon="13.2225963"><ele>681.0</ele><time>2026-05-03T11:36:34.052Z</time></trkpt><trkpt lat="41.9036735" lon="13.2224546"><ele>681.0</ele><time>2026-05-03T11:36:35.052Z</time></trkpt><trkpt lat="41.9035167" lon="13.2223171"><ele>681.0</ele><time>2026-05-03T11:36:36.048Z</time></trkpt><trkpt lat="41.9033519" lon="13.2221885"><ele>678.6666666666666</ele><time>2026-05-03T11:36:37.053Z</time></trkpt><trkpt lat="41.9032039" lon="13.2220592"><ele>676.3333333333333</ele><time>2026-05-03T11:36:38.052Z</time></trkpt><trkpt lat="41.9030696" lon="13.2218992"><ele>674.0</ele><time>2026-05-03T11:36:39.053Z</time></trkpt><trkpt lat="41.9029473" lon="13.221707"><ele>674.0</ele><time>2026-05-03T11:36:40.061Z</time></trkpt><trkpt lat="41.9028246" lon="13.221486"><ele>674.0</ele><time>2026-05-03T11:36:41.061Z</time></trkpt><trkpt lat="41.9027051" lon="13.2212386"><ele>674.0</ele><time>2026-05-03T11:36:42.052Z</time></trkpt><trkpt lat="41.9025976" lon="13.2209988"><ele>674.6666666666666</ele><time>2026-05-03T11:36:43.055Z</time></trkpt><trkpt lat="41.9024959" lon="13.2207781"><ele>675.3333333333334</ele><time>2026-05-03T11:36:44.05Z</time></trkpt><trkpt lat="41.9023997" lon="13.2205704"><ele>676.0</ele><time>2026-05-03T11:36:45.048Z</time></trkpt><trkpt lat="41.9022952" lon="13.2203901"><ele>673.75</ele><time>2026-05-03T11:36:46.075Z</time></trkpt><trkpt lat="41.9021907" lon="13.2202797"><ele>671.5</ele><time>2026-05-03T11:36:47.051Z</time></trkpt><trkpt lat="41.9020803" lon="13.2202277"><ele>669.25</ele><time>2026-05-03T11:36:48.058Z</time></trkpt><trkpt lat="41.90194" lon="13.2202268"><ele>667.0</ele><time>2026-05-03T11:36:49.065Z</time></trkpt><trkpt lat="41.9017975" lon="13.2202603"><ele>665.6</ele><time>2026-05-03T11:36:50.048Z</time></trkpt><trkpt lat="41.901669" lon="13.2203196"><ele>664.2</ele><time>2026-05-03T11:36:51.071Z</time></trkpt><trkpt lat="41.9015703" lon="13.2204181"><ele>662.8</ele><time>2026-05-03T11:36:52.054Z</time></trkpt><trkpt lat="41.9014935" lon="13.2205063"><ele>661.4</ele><time>2026-05-03T11:36:53.064Z</time></trkpt><trkpt lat="41.9014163" lon="13.2205214"><ele>660.0</ele><time>2026-05-03T11:36:54.058Z</time></trkpt><trkpt lat="41.9013539" lon="13.2204768"><ele>660.0</ele><time>2026-05-03T11:36:55.053Z</time></trkpt><trkpt lat="41.9013153" lon="13.2204053"><ele>660.0</ele><time>2026-05-03T11:36:56.059Z</time></trkpt><trkpt lat="41.9013087" lon="13.2202948"><ele>660.0</ele><time>2026-05-03T11:36:57.056Z</time></trkpt><trkpt lat="41.9012743" lon="13.2201901"><ele>660.0</ele><time>2026-05-03T11:36:58.063Z</time></trkpt><trkpt lat="41.9011982" lon="13.2201274"><ele>660.0</ele><time>2026-05-03T11:36:59.054Z</time></trkpt><trkpt lat="41.9010777" lon="13.220099"><ele>660.0</ele><time>2026-05-03T11:37:00.055Z</time></trkpt><trkpt lat="41.9009545" lon="13.2200948"><ele>660.5</ele><time>2026-05-03T11:37:01.058Z</time></trkpt><trkpt lat="41.9008335" lon="13.2201057"><ele>661.0</ele><time>2026-05-03T11:37:02.052Z</time></trkpt><trkpt lat="41.90071" lon="13.2201618"><ele>661.5</ele><time>2026-05-03T11:37:03.053Z</time></trkpt><trkpt lat="41.900592" lon="13.2202269"><ele>662.0</ele><time>2026-05-03T11:37:04.057Z</time></trkpt><trkpt lat="41.9004796" lon="13.2202316"><ele>662.0</ele><time>2026-05-03T11:37:05.088Z</time></trkpt><trkpt lat="41.900374" lon="13.2201343"><ele>662.0</ele><time>2026-05-03T11:37:06.054Z</time></trkpt><trkpt lat="41.9002905" lon="13.219998"><ele>662.0</ele><time>2026-05-03T11:37:07.054Z</time></trkpt><trkpt lat="41.900213" lon="13.2198441"><ele>662.0</ele><time>2026-05-03T11:37:08.056Z</time></trkpt><trkpt lat="41.9001002" lon="13.2197635"><ele>669.0</ele><time>2026-05-03T11:37:09.048Z</time></trkpt><trkpt lat="41.8999503" lon="13.2197306"><ele>676.0</ele><time>2026-05-03T11:37:10.058Z</time></trkpt><trkpt lat="41.8997778" lon="13.2197286"><ele>683.0</ele><time>2026-05-03T11:37:11.052Z</time></trkpt><trkpt lat="41.8995914" lon="13.2197252"><ele>683.0</ele><time>2026-05-03T11:37:12.053Z</time></trkpt><trkpt lat="41.8993949" lon="13.2196846"><ele>683.0</ele><time>2026-05-03T11:37:13.059Z</time></trkpt><trkpt lat="41.8991768" lon="13.2196475"><ele>683.0</ele><time>2026-05-03T11:37:14.052Z</time></trkpt><trkpt lat="41.8989467" lon="13.2196314"><ele>684.0</ele><time>2026-05-03T11:37:15.063Z</time></trkpt><trkpt lat="41.8987134" lon="13.2196431"><ele>685.0</ele><time>2026-05-03T11:37:16.054Z</time></trkpt><trkpt lat="41.8984956" lon="13.2196497"><ele>684.0</ele><time>2026-05-03T11:37:17.054Z</time></trkpt><trkpt lat="41.8982793" lon="13.2196504"><ele>683.0</ele><time>2026-05-03T11:37:18.055Z</time></trkpt><trkpt lat="41.8980678" lon="13.2196567"><ele>682.0</ele><time>2026-05-03T11:37:19.049Z</time></trkpt><trkpt lat="41.897862" lon="13.2196664"><ele>682.0</ele><time>2026-05-03T11:37:20.046Z</time></trkpt><trkpt lat="41.8976695" lon="13.2197002"><ele>682.0</ele><time>2026-05-03T11:37:21.048Z</time></trkpt><trkpt lat="41.8975018" lon="13.2197548"><ele>682.0</ele><time>2026-05-03T11:37:22.052Z</time></trkpt><trkpt lat="41.897342" lon="13.2198405"><ele>674.6666666666667</ele><time>2026-05-03T11:37:23.056Z</time></trkpt><trkpt lat="41.8972001" lon="13.2199572"><ele>667.3333333333334</ele><time>2026-05-03T11:37:24.054Z</time></trkpt><trkpt lat="41.897063" lon="13.2200594"><ele>660.0</ele><time>2026-05-03T11:37:25.054Z</time></trkpt><trkpt lat="41.8969063" lon="13.2201141"><ele>661.0</ele><time>2026-05-03T11:37:26.056Z</time></trkpt><trkpt lat="41.8967407" lon="13.2201546"><ele>662.0</ele><time>2026-05-03T11:37:27.055Z</time></trkpt><trkpt lat="41.8965864" lon="13.2202166"><ele>663.0</ele><time>2026-05-03T11:37:28.053Z</time></trkpt><trkpt lat="41.8964416" lon="13.2202832"><ele>663.0</ele><time>2026-05-03T11:37:29.061Z</time></trkpt><trkpt lat="41.8962903" lon="13.2203125"><ele>663.0</ele><time>2026-05-03T11:37:30.05Z</time></trkpt><trkpt lat="41.8961021" lon="13.2203244"><ele>663.0</ele><time>2026-05-03T11:37:31.052Z</time></trkpt><trkpt lat="41.8958847" lon="13.2203026"><ele>662.0</ele><time>2026-05-03T11:37:32.053Z</time></trkpt><trkpt lat="41.895678" lon="13.2202582"><ele>661.0</ele><time>2026-05-03T11:37:33.056Z</time></trkpt><trkpt lat="41.8954738" lon="13.2202159"><ele>660.0</ele><time>2026-05-03T11:37:34.052Z</time></trkpt><trkpt lat="41.8952981" lon="13.2201923"><ele>660.0</ele><time>2026-05-03T11:37:35.058Z</time></trkpt><trkpt lat="41.8951551" lon="13.2201777"><ele>660.0</ele><time>2026-05-03T11:37:36.052Z</time></trkpt><trkpt lat="41.8950362" lon="13.2202153"><ele>660.0</ele><time>2026-05-03T11:37:37.055Z</time></trkpt><trkpt lat="41.8949304" lon="13.2202896"><ele>660.0</ele><time>2026-05-03T11:37:38.053Z</time></trkpt><trkpt lat="41.8948543" lon="13.2204135"><ele>661.25</ele><time>2026-05-03T11:37:39.054Z</time></trkpt><trkpt lat="41.8948012" lon="13.2205731"><ele>662.5</ele><time>2026-05-03T11:37:40.053Z</time></trkpt><trkpt lat="41.8947343" lon="13.2207125"><ele>663.75</ele><time>2026-05-03T11:37:41.051Z</time></trkpt><trkpt lat="41.8946485" lon="13.2207708"><ele>665.0</ele><time>2026-05-03T11:37:42.058Z</time></trkpt><trkpt lat="41.8945287" lon="13.2207678"><ele>661.0</ele><time>2026-05-03T11:37:43.057Z</time></trkpt><trkpt lat="41.8943896" lon="13.220727"><ele>657.0</ele><time>2026-05-03T11:37:44.074Z</time></trkpt><trkpt lat="41.894225" lon="13.220671"><ele>653.0</ele><time>2026-05-03T11:37:45.056Z</time></trkpt><trkpt lat="41.8940479" lon="13.2206411"><ele>652.6666666666666</ele><time>2026-05-03T11:37:46.05Z</time></trkpt><trkpt lat="41.8938704" lon="13.2206315"><ele>652.3333333333334</ele><time>2026-05-03T11:37:47.054Z</time></trkpt><trkpt lat="41.8937078" lon="13.2206461"><ele>652.0</ele><time>2026-05-03T11:37:48.052Z</time></trkpt><trkpt lat="41.8935588" lon="13.2206881"><ele>652.0</ele><time>2026-05-03T11:37:49.052Z</time></trkpt><trkpt lat="41.8934492" lon="13.2207914"><ele>652.0</ele><time>2026-05-03T11:37:50.052Z</time></trkpt><trkpt lat="41.8933357" lon="13.2208827"><ele>652.0</ele><time>2026-05-03T11:37:51.049Z</time></trkpt><trkpt lat="41.893226" lon="13.2209363"><ele>652.0</ele><time>2026-05-03T11:37:52.075Z</time></trkpt><trkpt lat="41.8931059" lon="13.220906"><ele>652.0</ele><time>2026-05-03T11:37:53.052Z</time></trkpt><trkpt lat="41.8929649" lon="13.2208005"><ele>652.0</ele><time>2026-05-03T11:37:54.046Z</time></trkpt><trkpt lat="41.8928147" lon="13.2206545"><ele>652.0</ele><time>2026-05-03T11:37:55.048Z</time></trkpt><trkpt lat="41.8926724" lon="13.2205126"><ele>652.3333333333334</ele><time>2026-05-03T11:37:56.05Z</time></trkpt><trkpt lat="41.8925451" lon="13.2203802"><ele>652.6666666666666</ele><time>2026-05-03T11:37:57.047Z</time></trkpt><trkpt lat="41.8924299" lon="13.2202467"><ele>653.0</ele><time>2026-05-03T11:37:58.049Z</time></trkpt><trkpt lat="41.8923386" lon="13.2200892"><ele>653.0</ele><time>2026-05-03T11:37:59.05Z</time></trkpt><trkpt lat="41.8923006" lon="13.2198676"><ele>653.0</ele><time>2026-05-03T11:38:00.059Z</time></trkpt><trkpt lat="41.8922686" lon="13.2196197"><ele>653.0</ele><time>2026-05-03T11:38:01.051Z</time></trkpt><trkpt lat="41.8922263" lon="13.219379"><ele>655.3333333333333</ele><time>2026-05-03T11:38:02.055Z</time></trkpt><trkpt lat="41.8921693" lon="13.2191811"><ele>657.6666666666666</ele><time>2026-05-03T11:38:03.05Z</time></trkpt><trkpt lat="41.8920921" lon="13.2190028"><ele>660.0</ele><time>2026-05-03T11:38:04.053Z</time></trkpt><trkpt lat="41.8919772" lon="13.2188792"><ele>664.0</ele><time>2026-05-03T11:38:05.051Z</time></trkpt><trkpt lat="41.8918187" lon="13.2188088"><ele>668.0</ele><time>2026-05-03T11:38:06.069Z</time></trkpt><trkpt lat="41.8916623" lon="13.218732"><ele>672.0</ele><time>2026-05-03T11:38:07.052Z</time></trkpt><trkpt lat="41.8915044" lon="13.2186967"><ele>672.0</ele><time>2026-05-03T11:38:08.055Z</time></trkpt><trkpt lat="41.8913405" lon="13.218717"><ele>672.0</ele><time>2026-05-03T11:38:09.071Z</time></trkpt><trkpt lat="41.8911659" lon="13.2187951"><ele>672.0</ele><time>2026-05-03T11:38:10.053Z</time></trkpt><trkpt lat="41.890983" lon="13.2188739"><ele>669.3333333333334</ele><time>2026-05-03T11:38:11.059Z</time></trkpt><trkpt lat="41.8907914" lon="13.2188969"><ele>666.6666666666667</ele><time>2026-05-03T11:38:12.052Z</time></trkpt><trkpt lat="41.8905857" lon="13.2188837"><ele>664.0</ele><time>2026-05-03T11:38:13.054Z</time></trkpt><trkpt lat="41.8903894" lon="13.2188505"><ele>664.0</ele><time>2026-05-03T11:38:14.053Z</time></trkpt><trkpt lat="41.8902023" lon="13.2188231"><ele>664.0</ele><time>2026-05-03T11:38:15.051Z</time></trkpt><trkpt lat="41.8900119" lon="13.2187963"><ele>664.0</ele><time>2026-05-03T11:38:16.055Z</time></trkpt><trkpt lat="41.8898182" lon="13.2187377"><ele>663.0</ele><time>2026-05-03T11:38:17.053Z</time></trkpt><trkpt lat="41.8896269" lon="13.2186528"><ele>662.0</ele><time>2026-05-03T11:38:18.053Z</time></trkpt><trkpt lat="41.88946" lon="13.218532"><ele>661.0</ele><time>2026-05-03T11:38:19.07Z</time></trkpt><trkpt lat="41.8892848" lon="13.2183811"><ele>660.0</ele><time>2026-05-03T11:38:20.058Z</time></trkpt><trkpt lat="41.8891194" lon="13.2181988"><ele>659.0</ele><time>2026-05-03T11:38:21.055Z</time></trkpt><trkpt lat="41.8889694" lon="13.2180195"><ele>658.0</ele><time>2026-05-03T11:38:22.061Z</time></trkpt><trkpt lat="41.8888292" lon="13.2178457"><ele>658.0</ele><time>2026-05-03T11:38:23.062Z</time></trkpt><trkpt lat="41.8887144" lon="13.2176897"><ele>658.0</ele><time>2026-05-03T11:38:24.06Z</time></trkpt><trkpt lat="41.8886522" lon="13.2175334"><ele>658.0</ele><time>2026-05-03T11:38:25.059Z</time></trkpt><trkpt lat="41.888628" lon="13.2173679"><ele>658.0</ele><time>2026-05-03T11:38:26.06Z</time></trkpt><trkpt lat="41.8886448" lon="13.2172059"><ele>658.4</ele><time>2026-05-03T11:38:27.054Z</time></trkpt><trkpt lat="41.8886258" lon="13.2170608"><ele>658.8</ele><time>2026-05-03T11:38:28.059Z</time></trkpt><trkpt lat="41.888558" lon="13.2170023"><ele>659.2</ele><time>2026-05-03T11:38:29.057Z</time></trkpt><trkpt lat="41.8884542" lon="13.2170133"><ele>659.6</ele><time>2026-05-03T11:38:30.059Z</time></trkpt><trkpt lat="41.8883411" lon="13.2170601"><ele>660.0</ele><time>2026-05-03T11:38:31.054Z</time></trkpt><trkpt lat="41.8882135" lon="13.2171327"><ele>660.0</ele><time>2026-05-03T11:38:32.057Z</time></trkpt><trkpt lat="41.8880797" lon="13.2172154"><ele>660.0</ele><time>2026-05-03T11:38:33.057Z</time></trkpt><trkpt lat="41.8879255" lon="13.2172656"><ele>660.0</ele><time>2026-05-03T11:38:34.054Z</time></trkpt><trkpt lat="41.8877473" lon="13.2172497"><ele>658.3333333333334</ele><time>2026-05-03T11:38:35.053Z</time></trkpt><trkpt lat="41.88757" lon="13.2172009"><ele>656.6666666666667</ele><time>2026-05-03T11:38:36.054Z</time></trkpt><trkpt lat="41.8873963" lon="13.2171178"><ele>655.0</ele><time>2026-05-03T11:38:37.058Z</time></trkpt><trkpt lat="41.8872458" lon="13.2170029"><ele>655.0</ele><time>2026-05-03T11:38:38.059Z</time></trkpt><trkpt lat="41.8871057" lon="13.2168355"><ele>655.0</ele><time>2026-05-03T11:38:39.061Z</time></trkpt><trkpt lat="41.886983" lon="13.2166686"><ele>655.0</ele><time>2026-05-03T11:38:40.054Z</time></trkpt><trkpt lat="41.8868591" lon="13.2165304"><ele>658.6666666666667</ele><time>2026-05-03T11:38:41.058Z</time></trkpt><trkpt lat="41.8867258" lon="13.2164537"><ele>662.3333333333334</ele><time>2026-05-03T11:38:42.06Z</time></trkpt><trkpt lat="41.8865738" lon="13.2164652"><ele>666.0</ele><time>2026-05-03T11:38:43.052Z</time></trkpt><trkpt lat="41.8863905" lon="13.2164993"><ele>657.6666666666666</ele><time>2026-05-03T11:38:44.048Z</time></trkpt><trkpt lat="41.8862248" lon="13.2165464"><ele>649.3333333333333</ele><time>2026-05-03T11:38:45.069Z</time></trkpt><trkpt lat="41.8860759" lon="13.2166229"><ele>641.0</ele><time>2026-05-03T11:38:46.052Z</time></trkpt><trkpt lat="41.8859389" lon="13.2167175"><ele>640.6666666666666</ele><time>2026-05-03T11:38:47.05Z</time></trkpt><trkpt lat="41.8858123" lon="13.2168412"><ele>640.3333333333334</ele><time>2026-05-03T11:38:48.046Z</time></trkpt><trkpt lat="41.8856863" lon="13.2169935"><ele>640.0</ele><time>2026-05-03T11:38:49.049Z</time></trkpt><trkpt lat="41.885552" lon="13.2171446"><ele>640.0</ele><time>2026-05-03T11:38:50.055Z</time></trkpt><trkpt lat="41.8854278" lon="13.2172735"><ele>640.0</ele><time>2026-05-03T11:38:51.049Z</time></trkpt><trkpt lat="41.8852976" lon="13.2173868"><ele>640.0</ele><time>2026-05-03T11:38:52.049Z</time></trkpt><trkpt lat="41.8851821" lon="13.2174634"><ele>640.0</ele><time>2026-05-03T11:38:53.053Z</time></trkpt><trkpt lat="41.8850636" lon="13.2175014"><ele>638.0</ele><time>2026-05-03T11:38:54.05Z</time></trkpt><trkpt lat="41.8849506" lon="13.2174786"><ele>636.0</ele><time>2026-05-03T11:38:55.058Z</time></trkpt><trkpt lat="41.8848279" lon="13.2173749"><ele>634.0</ele><time>2026-05-03T11:38:56.061Z</time></trkpt><trkpt lat="41.8847115" lon="13.2172219"><ele>632.0</ele><time>2026-05-03T11:38:57.054Z</time></trkpt><trkpt lat="41.8846172" lon="13.2170207"><ele>632.0</ele><time>2026-05-03T11:38:58.046Z</time></trkpt><trkpt lat="41.8845276" lon="13.2167993"><ele>632.0</ele><time>2026-05-03T11:38:59.05Z</time></trkpt><trkpt lat="41.8844328" lon="13.2165775"><ele>632.0</ele><time>2026-05-03T11:39:00.051Z</time></trkpt><trkpt lat="41.884337" lon="13.2163468"><ele>629.3333333333333</ele><time>2026-05-03T11:39:01.047Z</time></trkpt><trkpt lat="41.8842507" lon="13.2161219"><ele>626.6666666666666</ele><time>2026-05-03T11:39:02.048Z</time></trkpt><trkpt lat="41.8841769" lon="13.215872"><ele>624.0</ele><time>2026-05-03T11:39:03.049Z</time></trkpt><trkpt lat="41.8841356" lon="13.2155917"><ele>624.0</ele><time>2026-05-03T11:39:04.047Z</time></trkpt><trkpt lat="41.8841263" lon="13.2153252"><ele>624.0</ele><time>2026-05-03T11:39:05.048Z</time></trkpt><trkpt lat="41.8841242" lon="13.2150737"><ele>624.0</ele><time>2026-05-03T11:39:06.051Z</time></trkpt><trkpt lat="41.8841197" lon="13.2148435"><ele>628.0</ele><time>2026-05-03T11:39:07.057Z</time></trkpt><trkpt lat="41.8840928" lon="13.2146455"><ele>632.0</ele><time>2026-05-03T11:39:08.053Z</time></trkpt><trkpt lat="41.8840216" lon="13.2144658"><ele>636.0</ele><time>2026-05-03T11:39:09.054Z</time></trkpt><trkpt lat="41.8839251" lon="13.2142774"><ele>636.0</ele><time>2026-05-03T11:39:10.047Z</time></trkpt><trkpt lat="41.8837587" lon="13.2140847"><ele>636.0</ele><time>2026-05-03T11:39:11.051Z</time></trkpt><trkpt lat="41.883588" lon="13.2138792"><ele>636.0</ele><time>2026-05-03T11:39:12.049Z</time></trkpt><trkpt lat="41.8834162" lon="13.2136722"><ele>628.0</ele><time>2026-05-03T11:39:13.047Z</time></trkpt><trkpt lat="41.8832388" lon="13.213449"><ele>620.0</ele><time>2026-05-03T11:39:14.051Z</time></trkpt><trkpt lat="41.8830535" lon="13.2132248"><ele>628.5</ele><time>2026-05-03T11:39:15.049Z</time></trkpt><trkpt lat="41.8828784" lon="13.2130064"><ele>637.0</ele><time>2026-05-03T11:39:16.065Z</time></trkpt><trkpt lat="41.882711" lon="13.2127987"><ele>638.0</ele><time>2026-05-03T11:39:17.049Z</time></trkpt><trkpt lat="41.8825574" lon="13.2126015"><ele>639.0</ele><time>2026-05-03T11:39:18.056Z</time></trkpt><trkpt lat="41.8824203" lon="13.2124145"><ele>640.0</ele><time>2026-05-03T11:39:19.053Z</time></trkpt><trkpt lat="41.8822808" lon="13.2122516"><ele>640.0</ele><time>2026-05-03T11:39:20.053Z</time></trkpt><trkpt lat="41.8821155" lon="13.2121392"><ele>640.0</ele><time>2026-05-03T11:39:21.056Z</time></trkpt><trkpt lat="41.8819161" lon="13.2120866"><ele>640.0</ele><time>2026-05-03T11:39:22.055Z</time></trkpt><trkpt lat="41.8817209" lon="13.2120534"><ele>636.0</ele><time>2026-05-03T11:39:23.055Z</time></trkpt><trkpt lat="41.8815322" lon="13.2120314"><ele>632.0</ele><time>2026-05-03T11:39:24.047Z</time></trkpt><trkpt lat="41.8813564" lon="13.2120242"><ele>628.0</ele><time>2026-05-03T11:39:25.054Z</time></trkpt><trkpt lat="41.8811973" lon="13.212068"><ele>628.0</ele><time>2026-05-03T11:39:26.049Z</time></trkpt><trkpt lat="41.8810339" lon="13.2121706"><ele>628.0</ele><time>2026-05-03T11:39:27.066Z</time></trkpt><trkpt lat="41.8808807" lon="13.2123389"><ele>628.0</ele><time>2026-05-03T11:39:28.052Z</time></trkpt><trkpt lat="41.880766" lon="13.2125076"><ele>622.5</ele><time>2026-05-03T11:39:29.049Z</time></trkpt><trkpt lat="41.8806669" lon="13.21263"><ele>617.0</ele><time>2026-05-03T11:39:30.053Z</time></trkpt><trkpt lat="41.8805648" lon="13.212693"><ele>611.5</ele><time>2026-05-03T11:39:31.056Z</time></trkpt><trkpt lat="41.8804152" lon="13.2126725"><ele>606.0</ele><time>2026-05-03T11:39:32.05Z</time></trkpt><trkpt lat="41.8802533" lon="13.212623"><ele>606.3333333333334</ele><time>2026-05-03T11:39:33.056Z</time></trkpt><trkpt lat="41.8800755" lon="13.2125505"><ele>606.6666666666667</ele><time>2026-05-03T11:39:34.059Z</time></trkpt><trkpt lat="41.8799001" lon="13.2124783"><ele>607.0</ele><time>2026-05-03T11:39:35.051Z</time></trkpt><trkpt lat="41.879742" lon="13.212388"><ele>614.6666666666667</ele><time>2026-05-03T11:39:36.053Z</time></trkpt><trkpt lat="41.8796167" lon="13.212253"><ele>622.3333333333334</ele><time>2026-05-03T11:39:37.076Z</time></trkpt><trkpt lat="41.8795276" lon="13.2120647"><ele>630.0</ele><time>2026-05-03T11:39:38.054Z</time></trkpt><trkpt lat="41.8794368" lon="13.2118421"><ele>630.0</ele><time>2026-05-03T11:39:39.051Z</time></trkpt><trkpt lat="41.8793085" lon="13.2116153"><ele>630.0</ele><time>2026-05-03T11:39:40.059Z</time></trkpt><trkpt lat="41.8791364" lon="13.2114049"><ele>630.0</ele><time>2026-05-03T11:39:41.049Z</time></trkpt><trkpt lat="41.8789606" lon="13.2111881"><ele>627.3333333333334</ele><time>2026-05-03T11:39:42.056Z</time></trkpt><trkpt lat="41.8787803" lon="13.211005"><ele>624.6666666666667</ele><time>2026-05-03T11:39:43.052Z</time></trkpt><trkpt lat="41.8786189" lon="13.2108529"><ele>622.0</ele><time>2026-05-03T11:39:44.047Z</time></trkpt><trkpt lat="41.8784555" lon="13.2107402"><ele>629.0</ele><time>2026-05-03T11:39:45.053Z</time></trkpt><trkpt lat="41.8782923" lon="13.2106669"><ele>636.0</ele><time>2026-05-03T11:39:46.075Z</time></trkpt><trkpt lat="41.8781169" lon="13.2106475"><ele>643.0</ele><time>2026-05-03T11:39:47.056Z</time></trkpt><trkpt lat="41.8779353" lon="13.2106403"><ele>643.0</ele><time>2026-05-03T11:39:48.046Z</time></trkpt><trkpt lat="41.8777658" lon="13.2105887"><ele>643.0</ele><time>2026-05-03T11:39:49.051Z</time></trkpt><trkpt lat="41.8776191" lon="13.2104748"><ele>643.0</ele><time>2026-05-03T11:39:50.049Z</time></trkpt><trkpt lat="41.8774799" lon="13.2102771"><ele>644.5</ele><time>2026-05-03T11:39:51.054Z</time></trkpt><trkpt lat="41.8773291" lon="13.2100475"><ele>646.0</ele><time>2026-05-03T11:39:52.063Z</time></trkpt><trkpt lat="41.8771595" lon="13.2098229"><ele>646.0</ele><time>2026-05-03T11:39:53.046Z</time></trkpt><trkpt lat="41.8769697" lon="13.2096065"><ele>646.0</ele><time>2026-05-03T11:39:54.049Z</time></trkpt><trkpt lat="41.8767723" lon="13.2094212"><ele>631.6666666666667</ele><time>2026-05-03T11:39:55.049Z</time></trkpt><trkpt lat="41.8765852" lon="13.2092799"><ele>617.3333333333334</ele><time>2026-05-03T11:39:56.053Z</time></trkpt><trkpt lat="41.876417" lon="13.2091837"><ele>603.0</ele><time>2026-05-03T11:39:57.052Z</time></trkpt><trkpt lat="41.8762704" lon="13.2091154"><ele>603.0</ele><time>2026-05-03T11:39:58.044Z</time></trkpt><trkpt lat="41.8761452" lon="13.2090365"><ele>603.0</ele><time>2026-05-03T11:39:59.077Z</time></trkpt><trkpt lat="41.87603" lon="13.2089321"><ele>603.0</ele><time>2026-05-03T11:40:00.052Z</time></trkpt><trkpt lat="41.8759367" lon="13.2087834"><ele>603.0</ele><time>2026-05-03T11:40:01.055Z</time></trkpt><trkpt lat="41.8758955" lon="13.2085522"><ele>602.5</ele><time>2026-05-03T11:40:02.051Z</time></trkpt><trkpt lat="41.8758787" lon="13.2082428"><ele>602.0</ele><time>2026-05-03T11:40:03.049Z</time></trkpt><trkpt lat="41.8758555" lon="13.2079369"><ele>602.0</ele><time>2026-05-03T11:40:04.05Z</time></trkpt><trkpt lat="41.8758154" lon="13.2076807"><ele>602.0</ele><time>2026-05-03T11:40:05.052Z</time></trkpt><trkpt lat="41.8757431" lon="13.2074835"><ele>602.0</ele><time>2026-05-03T11:40:06.053Z</time></trkpt><trkpt lat="41.875662" lon="13.2073445"><ele>607.0</ele><time>2026-05-03T11:40:07.055Z</time></trkpt><trkpt lat="41.875587" lon="13.2072367"><ele>612.0</ele><time>2026-05-03T11:40:08.055Z</time></trkpt><trkpt lat="41.8755276" lon="13.2071259"><ele>617.0</ele><time>2026-05-03T11:40:09.051Z</time></trkpt><trkpt lat="41.8754638" lon="13.2070291"><ele>622.0</ele><time>2026-05-03T11:40:10.066Z</time></trkpt><trkpt lat="41.8753917" lon="13.2069459"><ele>627.0</ele><time>2026-05-03T11:40:11.051Z</time></trkpt><trkpt lat="41.8753355" lon="13.2068577"><ele>627.0</ele><time>2026-05-03T11:40:12.046Z</time></trkpt><trkpt lat="41.8752995" lon="13.2067148"><ele>627.0</ele><time>2026-05-03T11:40:13.046Z</time></trkpt><trkpt lat="41.8752731" lon="13.2065448"><ele>627.0</ele><time>2026-05-03T11:40:14.05Z</time></trkpt><trkpt lat="41.8752129" lon="13.2063623"><ele>627.0</ele><time>2026-05-03T11:40:15.05Z</time></trkpt><trkpt lat="41.8751045" lon="13.2061965"><ele>620.3333333333334</ele><time>2026-05-03T11:40:16.052Z</time></trkpt><trkpt lat="41.8749861" lon="13.2060477"><ele>613.6666666666667</ele><time>2026-05-03T11:40:17.048Z</time></trkpt><trkpt lat="41.874846" lon="13.2059153"><ele>607.0</ele><time>2026-05-03T11:40:18.058Z</time></trkpt><trkpt lat="41.8746935" lon="13.205821"><ele>607.0</ele><time>2026-05-03T11:40:19.053Z</time></trkpt><trkpt lat="41.8745572" lon="13.2057641"><ele>607.0</ele><time>2026-05-03T11:40:20.067Z</time></trkpt><trkpt lat="41.8744402" lon="13.2057464"><ele>607.0</ele><time>2026-05-03T11:40:21.057Z</time></trkpt><trkpt lat="41.8743145" lon="13.205778"><ele>607.0</ele><time>2026-05-03T11:40:22.051Z</time></trkpt><trkpt lat="41.8741854" lon="13.2058098"><ele>605.0</ele><time>2026-05-03T11:40:23.055Z</time></trkpt><trkpt lat="41.8740472" lon="13.2057889"><ele>603.0</ele><time>2026-05-03T11:40:24.051Z</time></trkpt><trkpt lat="41.873919" lon="13.2057366"><ele>601.0</ele><time>2026-05-03T11:40:25.043Z</time></trkpt><trkpt lat="41.8738018" lon="13.2056223"><ele>599.0</ele><time>2026-05-03T11:40:26.047Z</time></trkpt><trkpt lat="41.8737141" lon="13.2054987"><ele>599.0</ele><time>2026-05-03T11:40:27.045Z</time></trkpt><trkpt lat="41.8736545" lon="13.2053408"><ele>599.0</ele><time>2026-05-03T11:40:28.056Z</time></trkpt><trkpt lat="41.8736396" lon="13.2051866"><ele>599.0</ele><time>2026-05-03T11:40:29.05Z</time></trkpt><trkpt lat="41.8736731" lon="13.2050105"><ele>599.0</ele><time>2026-05-03T11:40:30.05Z</time></trkpt><trkpt lat="41.8737227" lon="13.2048138"><ele>602.75</ele><time>2026-05-03T11:40:31.047Z</time></trkpt><trkpt lat="41.8737567" lon="13.2046179"><ele>606.5</ele><time>2026-05-03T11:40:32.052Z</time></trkpt><trkpt lat="41.8737515" lon="13.2044364"><ele>610.25</ele><time>2026-05-03T11:40:33.049Z</time></trkpt><trkpt lat="41.8737064" lon="13.2042582"><ele>614.0</ele><time>2026-05-03T11:40:34.093Z</time></trkpt><trkpt lat="41.8736356" lon="13.2041184"><ele>614.0</ele><time>2026-05-03T11:40:35.053Z</time></trkpt><trkpt lat="41.873516" lon="13.2040158"><ele>614.0</ele><time>2026-05-03T11:40:36.046Z</time></trkpt><trkpt lat="41.8733656" lon="13.20396"><ele>614.0</ele><time>2026-05-03T11:40:37.05Z</time></trkpt><trkpt lat="41.873226" lon="13.203936"><ele>614.0</ele><time>2026-05-03T11:40:38.054Z</time></trkpt><trkpt lat="41.8731151" lon="13.2038961"><ele>609.25</ele><time>2026-05-03T11:40:39.047Z</time></trkpt><trkpt lat="41.8730107" lon="13.2038031"><ele>604.5</ele><time>2026-05-03T11:40:40.049Z</time></trkpt><trkpt lat="41.8729272" lon="13.2036914"><ele>599.75</ele><time>2026-05-03T11:40:41.046Z</time></trkpt><trkpt lat="41.8729168" lon="13.2035139"><ele>595.0</ele><time>2026-05-03T11:40:42.052Z</time></trkpt><trkpt lat="41.8729366" lon="13.2033296"><ele>602.0</ele><time>2026-05-03T11:40:43.051Z</time></trkpt><trkpt lat="41.8729354" lon="13.2031191"><ele>609.0</ele><time>2026-05-03T11:40:44.052Z</time></trkpt><trkpt lat="41.8729092" lon="13.2029135"><ele>616.0</ele><time>2026-05-03T11:40:45.04Z</time></trkpt><trkpt lat="41.8728503" lon="13.2027039"><ele>616.0</ele><time>2026-05-03T11:40:46.048Z</time></trkpt><trkpt lat="41.8727329" lon="13.2024885"><ele>616.0</ele><time>2026-05-03T11:40:47.045Z</time></trkpt><trkpt lat="41.8725822" lon="13.2022991"><ele>616.0</ele><time>2026-05-03T11:40:48.049Z</time></trkpt><trkpt lat="41.8724555" lon="13.2021457"><ele>612.6666666666667</ele><time>2026-05-03T11:40:49.055Z</time></trkpt><trkpt lat="41.8723192" lon="13.2019884"><ele>609.3333333333334</ele><time>2026-05-03T11:40:50.054Z</time></trkpt><trkpt lat="41.8721784" lon="13.2017916"><ele>606.0</ele><time>2026-05-03T11:40:51.053Z</time></trkpt><trkpt lat="41.8720358" lon="13.2015762"><ele>599.6666666666666</ele><time>2026-05-03T11:40:52.056Z</time></trkpt><trkpt lat="41.8718943" lon="13.2013484"><ele>593.3333333333333</ele><time>2026-05-03T11:40:53.055Z</time></trkpt><trkpt lat="41.8717636" lon="13.2011042"><ele>587.0</ele><time>2026-05-03T11:40:54.056Z</time></trkpt><trkpt lat="41.8716342" lon="13.2008575"><ele>598.0</ele><time>2026-05-03T11:40:55.05Z</time></trkpt><trkpt lat="41.8715175" lon="13.2006248"><ele>609.0</ele><time>2026-05-03T11:40:56.055Z</time></trkpt><trkpt lat="41.871387" lon="13.2004291"><ele>620.0</ele><time>2026-05-03T11:40:57.053Z</time></trkpt><trkpt lat="41.8712582" lon="13.2002953"><ele>620.0</ele><time>2026-05-03T11:40:58.058Z</time></trkpt><trkpt lat="41.8710846" lon="13.2002441"><ele>620.0</ele><time>2026-05-03T11:40:59.047Z</time></trkpt><trkpt lat="41.8709126" lon="13.2001709"><ele>620.0</ele><time>2026-05-03T11:41:00.052Z</time></trkpt><trkpt lat="41.8707604" lon="13.2001011"><ele>614.5</ele><time>2026-05-03T11:41:01.058Z</time></trkpt><trkpt lat="41.8706165" lon="13.2000436"><ele>609.0</ele><time>2026-05-03T11:41:02.052Z</time></trkpt><trkpt lat="41.8704798" lon="13.1999948"><ele>603.5</ele><time>2026-05-03T11:41:03.052Z</time></trkpt><trkpt lat="41.8703876" lon="13.1998663"><ele>598.0</ele><time>2026-05-03T11:41:04.05Z</time></trkpt><trkpt lat="41.8703274" lon="13.1997661"><ele>598.0</ele><time>2026-05-03T11:41:05.045Z</time></trkpt><trkpt lat="41.8702581" lon="13.199642"><ele>598.0</ele><time>2026-05-03T11:41:06.063Z</time></trkpt><trkpt lat="41.8701646" lon="13.1994859"><ele>598.0</ele><time>2026-05-03T11:41:07.048Z</time></trkpt><trkpt lat="41.8701176" lon="13.1992436"><ele>594.6666666666667</ele><time>2026-05-03T11:41:08.058Z</time></trkpt><trkpt lat="41.8700688" lon="13.198989"><ele>591.3333333333334</ele><time>2026-05-03T11:41:09.046Z</time></trkpt><trkpt lat="41.8700556" lon="13.1987114"><ele>588.0</ele><time>2026-05-03T11:41:10.051Z</time></trkpt><trkpt lat="41.8700895" lon="13.1983815"><ele>588.6666666666666</ele><time>2026-05-03T11:41:11.059Z</time></trkpt><trkpt lat="41.8700747" lon="13.1980945"><ele>589.3333333333333</ele><time>2026-05-03T11:41:12.05Z</time></trkpt><trkpt lat="41.8699914" lon="13.1978819"><ele>590.0</ele><time>2026-05-03T11:41:13.05Z</time></trkpt><trkpt lat="41.8699036" lon="13.1977195"><ele>590.0</ele><time>2026-05-03T11:41:14.046Z</time></trkpt><trkpt lat="41.8698329" lon="13.1975952"><ele>590.0</ele><time>2026-05-03T11:41:15.043Z</time></trkpt><trkpt lat="41.8698204" lon="13.1974445"><ele>590.0</ele><time>2026-05-03T11:41:16.058Z</time></trkpt><trkpt lat="41.8698626" lon="13.1972713"><ele>590.0</ele><time>2026-05-03T11:41:17.052Z</time></trkpt><trkpt lat="41.8699411" lon="13.1970811"><ele>588.6666666666666</ele><time>2026-05-03T11:41:18.056Z</time></trkpt><trkpt lat="41.8700262" lon="13.1968725"><ele>587.3333333333334</ele><time>2026-05-03T11:41:19.055Z</time></trkpt><trkpt lat="41.8701033" lon="13.1966516"><ele>586.0</ele><time>2026-05-03T11:41:20.05Z</time></trkpt><trkpt lat="41.870157" lon="13.1964463"><ele>587.0</ele><time>2026-05-03T11:41:21.053Z</time></trkpt><trkpt lat="41.8701344" lon="13.1962416"><ele>588.0</ele><time>2026-05-03T11:41:22.057Z</time></trkpt><trkpt lat="41.8700616" lon="13.1960372"><ele>589.0</ele><time>2026-05-03T11:41:23.055Z</time></trkpt><trkpt lat="41.8699652" lon="13.1958658"><ele>589.0</ele><time>2026-05-03T11:41:24.053Z</time></trkpt><trkpt lat="41.8698275" lon="13.1957068"><ele>589.0</ele><time>2026-05-03T11:41:25.058Z</time></trkpt><trkpt lat="41.8696646" lon="13.1955658"><ele>589.0</ele><time>2026-05-03T11:41:26.08Z</time></trkpt><trkpt lat="41.8694906" lon="13.1954577"><ele>584.6666666666667</ele><time>2026-05-03T11:41:27.06Z</time></trkpt><trkpt lat="41.8693113" lon="13.1953852"><ele>580.3333333333334</ele><time>2026-05-03T11:41:28.059Z</time></trkpt><trkpt lat="41.8691397" lon="13.1952968"><ele>576.0</ele><time>2026-05-03T11:41:29.051Z</time></trkpt><trkpt lat="41.8690154" lon="13.1952018"><ele>576.0</ele><time>2026-05-03T11:41:30.067Z</time></trkpt><trkpt lat="41.8689306" lon="13.1950766"><ele>576.0</ele><time>2026-05-03T11:41:31.061Z</time></trkpt><trkpt lat="41.8688831" lon="13.1949231"><ele>576.0</ele><time>2026-05-03T11:41:32.054Z</time></trkpt><trkpt lat="41.8688948" lon="13.1947752"><ele>576.0</ele><time>2026-05-03T11:41:33.061Z</time></trkpt><trkpt lat="41.8689543" lon="13.1946071"><ele>574.0</ele><time>2026-05-03T11:41:34.065Z</time></trkpt><trkpt lat="41.8690345" lon="13.1944063"><ele>572.0</ele><time>2026-05-03T11:41:35.058Z</time></trkpt><trkpt lat="41.8691231" lon="13.194178"><ele>570.0</ele><time>2026-05-03T11:41:36.078Z</time></trkpt><trkpt lat="41.8691808" lon="13.1939486"><ele>570.0</ele><time>2026-05-03T11:41:37.059Z</time></trkpt><trkpt lat="41.8692109" lon="13.1937389"><ele>570.0</ele><time>2026-05-03T11:41:38.056Z</time></trkpt><trkpt lat="41.8692074" lon="13.1935599"><ele>570.0</ele><time>2026-05-03T11:41:39.055Z</time></trkpt><trkpt lat="41.8691482" lon="13.1933524"><ele>572.0</ele><time>2026-05-03T11:41:40.05Z</time></trkpt><trkpt lat="41.8690591" lon="13.1931182"><ele>574.0</ele><time>2026-05-03T11:41:41.057Z</time></trkpt><trkpt lat="41.868988" lon="13.1928826"><ele>576.0</ele><time>2026-05-03T11:41:42.05Z</time></trkpt><trkpt lat="41.8689263" lon="13.1926461"><ele>576.0</ele><time>2026-05-03T11:41:43.068Z</time></trkpt><trkpt lat="41.8688792" lon="13.1924259"><ele>576.0</ele><time>2026-05-03T11:41:44.06Z</time></trkpt><trkpt lat="41.8688372" lon="13.1922438"><ele>576.0</ele><time>2026-05-03T11:41:45.062Z</time></trkpt><trkpt lat="41.8688117" lon="13.192112"><ele>576.0</ele><time>2026-05-03T11:41:46.053Z</time></trkpt><trkpt lat="41.8687699" lon="13.1920171"><ele>576.8</ele><time>2026-05-03T11:41:47.056Z</time></trkpt><trkpt lat="41.8686953" lon="13.1919636"><ele>577.6</ele><time>2026-05-03T11:41:48.062Z</time></trkpt><trkpt lat="41.8686043" lon="13.1919661"><ele>578.4</ele><time>2026-05-03T11:41:49.058Z</time></trkpt><trkpt lat="41.86851" lon="13.1920098"><ele>579.2</ele><time>2026-05-03T11:41:50.056Z</time></trkpt><trkpt lat="41.8683843" lon="13.1920956"><ele>580.0</ele><time>2026-05-03T11:41:51.051Z</time></trkpt><trkpt lat="41.8682605" lon="13.1921975"><ele>575.0</ele><time>2026-05-03T11:41:52.056Z</time></trkpt><trkpt lat="41.8681543" lon="13.1923423"><ele>570.0</ele><time>2026-05-03T11:41:53.051Z</time></trkpt><trkpt lat="41.8680573" lon="13.1924904"><ele>565.0</ele><time>2026-05-03T11:41:54.062Z</time></trkpt><trkpt lat="41.8679533" lon="13.19256"><ele>560.0</ele><time>2026-05-03T11:41:55.061Z</time></trkpt><trkpt lat="41.8678423" lon="13.1925254"><ele>560.0</ele><time>2026-05-03T11:41:56.054Z</time></trkpt><trkpt lat="41.8677357" lon="13.1924935"><ele>560.0</ele><time>2026-05-03T11:41:57.061Z</time></trkpt><trkpt lat="41.8676199" lon="13.192445"><ele>560.0</ele><time>2026-05-03T11:41:58.056Z</time></trkpt><trkpt lat="41.8674857" lon="13.1923677"><ele>560.0</ele><time>2026-05-03T11:41:59.06Z</time></trkpt><trkpt lat="41.8673266" lon="13.1923228"><ele>563.0</ele><time>2026-05-03T11:42:00.055Z</time></trkpt><trkpt lat="41.8671686" lon="13.1923191"><ele>566.0</ele><time>2026-05-03T11:42:01.052Z</time></trkpt><trkpt lat="41.8669969" lon="13.1923907"><ele>569.0</ele><time>2026-05-03T11:42:02.054Z</time></trkpt><trkpt lat="41.8668105" lon="13.1924875"><ele>572.0</ele><time>2026-05-03T11:42:03.055Z</time></trkpt><trkpt lat="41.8666325" lon="13.1925855"><ele>575.0</ele><time>2026-05-03T11:42:04.06Z</time></trkpt><trkpt lat="41.8664631" lon="13.1926685"><ele>578.0</ele><time>2026-05-03T11:42:05.057Z</time></trkpt><trkpt lat="41.8662946" lon="13.1927576"><ele>578.0</ele><time>2026-05-03T11:42:06.06Z</time></trkpt><trkpt lat="41.8661269" lon="13.1928287"><ele>578.0</ele><time>2026-05-03T11:42:07.058Z</time></trkpt><trkpt lat="41.8659621" lon="13.1928957"><ele>578.0</ele><time>2026-05-03T11:42:08.059Z</time></trkpt><trkpt lat="41.8657784" lon="13.1929309"><ele>582.0</ele><time>2026-05-03T11:42:09.075Z</time></trkpt><trkpt lat="41.865605" lon="13.1929366"><ele>586.0</ele><time>2026-05-03T11:42:10.059Z</time></trkpt><trkpt lat="41.865449" lon="13.1929849"><ele>590.0</ele><time>2026-05-03T11:42:11.054Z</time></trkpt><trkpt lat="41.8653135" lon="13.1931031"><ele>586.3333333333333</ele><time>2026-05-03T11:42:12.055Z</time></trkpt><trkpt lat="41.8651767" lon="13.1932667"><ele>582.6666666666666</ele><time>2026-05-03T11:42:13.057Z</time></trkpt><trkpt lat="41.8650458" lon="13.1934443"><ele>579.0</ele><time>2026-05-03T11:42:14.054Z</time></trkpt><trkpt lat="41.8649293" lon="13.1936249"><ele>579.0</ele><time>2026-05-03T11:42:15.056Z</time></trkpt><trkpt lat="41.8648244" lon="13.1938025"><ele>579.0</ele><time>2026-05-03T11:42:16.054Z</time></trkpt><trkpt lat="41.8647172" lon="13.1939937"><ele>579.0</ele><time>2026-05-03T11:42:17.051Z</time></trkpt><trkpt lat="41.8645982" lon="13.1941957"><ele>575.0</ele><time>2026-05-03T11:42:18.052Z</time></trkpt><trkpt lat="41.8644868" lon="13.1944061"><ele>571.0</ele><time>2026-05-03T11:42:19.051Z</time></trkpt><trkpt lat="41.8643762" lon="13.1946323"><ele>567.0</ele><time>2026-05-03T11:42:20.058Z</time></trkpt><trkpt lat="41.8642822" lon="13.1948413"><ele>571.3333333333334</ele><time>2026-05-03T11:42:21.06Z</time></trkpt><trkpt lat="41.8642086" lon="13.1950354"><ele>575.6666666666667</ele><time>2026-05-03T11:42:22.049Z</time></trkpt><trkpt lat="41.8641538" lon="13.1952296"><ele>580.0</ele><time>2026-05-03T11:42:23.053Z</time></trkpt><trkpt lat="41.8641093" lon="13.1954185"><ele>580.0</ele><time>2026-05-03T11:42:24.054Z</time></trkpt><trkpt lat="41.8640872" lon="13.1956043"><ele>580.0</ele><time>2026-05-03T11:42:25.054Z</time></trkpt><trkpt lat="41.8640902" lon="13.1957847"><ele>580.0</ele><time>2026-05-03T11:42:26.051Z</time></trkpt><trkpt lat="41.8641109" lon="13.1959645"><ele>580.0</ele><time>2026-05-03T11:42:27.046Z</time></trkpt><trkpt lat="41.8641372" lon="13.1961225"><ele>579.8</ele><time>2026-05-03T11:42:28.053Z</time></trkpt><trkpt lat="41.86416" lon="13.1962695"><ele>579.6</ele><time>2026-05-03T11:42:29.049Z</time></trkpt><trkpt lat="41.8641885" lon="13.1964105"><ele>579.4</ele><time>2026-05-03T11:42:30.051Z</time></trkpt><trkpt lat="41.8642119" lon="13.1965492"><ele>579.2</ele><time>2026-05-03T11:42:31.049Z</time></trkpt><trkpt lat="41.8642382" lon="13.1966813"><ele>579.0</ele><time>2026-05-03T11:42:32.049Z</time></trkpt><trkpt lat="41.864266" lon="13.196816"><ele>577.5</ele><time>2026-05-03T11:42:33.048Z</time></trkpt><trkpt lat="41.8642931" lon="13.1969342"><ele>576.0</ele><time>2026-05-03T11:42:34.053Z</time></trkpt><trkpt lat="41.8643205" lon="13.1970418"><ele>574.5</ele><time>2026-05-03T11:42:35.053Z</time></trkpt><trkpt lat="41.8643555" lon="13.1971338"><ele>573.0</ele><time>2026-05-03T11:42:36.057Z</time></trkpt><trkpt lat="41.8643912" lon="13.1972247"><ele>571.5</ele><time>2026-05-03T11:42:37.058Z</time></trkpt><trkpt lat="41.8644391" lon="13.1973255"><ele>570.0</ele><time>2026-05-03T11:42:38.062Z</time></trkpt><trkpt lat="41.8644997" lon="13.1974219"><ele>569.6</ele><time>2026-05-03T11:42:39.055Z</time></trkpt><trkpt lat="41.8645502" lon="13.1975193"><ele>569.2</ele><time>2026-05-03T11:42:40.06Z</time></trkpt><trkpt lat="41.8645984" lon="13.1976347"><ele>568.8</ele><time>2026-05-03T11:42:41.062Z</time></trkpt><trkpt lat="41.8646166" lon="13.1977618"><ele>568.4</ele><time>2026-05-03T11:42:42.057Z</time></trkpt><trkpt lat="41.8645985" lon="13.1978989"><ele>568.0</ele><time>2026-05-03T11:42:43.057Z</time></trkpt><trkpt lat="41.8645614" lon="13.1980239"><ele>568.0</ele><time>2026-05-03T11:42:44.055Z</time></trkpt><trkpt lat="41.8645192" lon="13.1981462"><ele>568.0</ele><time>2026-05-03T11:42:45.057Z</time></trkpt><trkpt lat="41.8644799" lon="13.1982735"><ele>568.0</ele><time>2026-05-03T11:42:46.06Z</time></trkpt><trkpt lat="41.8644374" lon="13.1984078"><ele>568.0</ele><time>2026-05-03T11:42:47.05Z</time></trkpt><trkpt lat="41.8643899" lon="13.1985329"><ele>568.0</ele><time>2026-05-03T11:42:48.056Z</time></trkpt><trkpt lat="41.8643418" lon="13.1986537"><ele>567.8</ele><time>2026-05-03T11:42:49.053Z</time></trkpt><trkpt lat="41.8642858" lon="13.1987539"><ele>567.5999999999999</ele><time>2026-05-03T11:42:50.064Z</time></trkpt><trkpt lat="41.8642195" lon="13.1988349"><ele>567.4000000000001</ele><time>2026-05-03T11:42:51.055Z</time></trkpt><trkpt lat="41.8641366" lon="13.1989026"><ele>567.2</ele><time>2026-05-03T11:42:52.052Z</time></trkpt><trkpt lat="41.8640475" lon="13.1989814"><ele>567.0</ele><time>2026-05-03T11:42:53.066Z</time></trkpt><trkpt lat="41.8639447" lon="13.1990642"><ele>570.0</ele><time>2026-05-03T11:42:54.055Z</time></trkpt><trkpt lat="41.8638329" lon="13.1991348"><ele>573.0</ele><time>2026-05-03T11:42:55.052Z</time></trkpt><trkpt lat="41.8637204" lon="13.1991848"><ele>576.0</ele><time>2026-05-03T11:42:56.054Z</time></trkpt><trkpt lat="41.8636195" lon="13.1992366"><ele>579.0</ele><time>2026-05-03T11:42:57.056Z</time></trkpt><trkpt lat="41.8635171" lon="13.1993088"><ele>577.0</ele><time>2026-05-03T11:42:58.05Z</time></trkpt><trkpt lat="41.8634033" lon="13.1993662"><ele>575.0</ele><time>2026-05-03T11:42:59.048Z</time></trkpt><trkpt lat="41.8632661" lon="13.1994006"><ele>573.0</ele><time>2026-05-03T11:43:00.053Z</time></trkpt><trkpt lat="41.8631367" lon="13.1994088"><ele>571.0</ele><time>2026-05-03T11:43:01.063Z</time></trkpt><trkpt lat="41.8630072" lon="13.1994277"><ele>571.0</ele><time>2026-05-03T11:43:02.055Z</time></trkpt><trkpt lat="41.8628769" lon="13.1994438"><ele>571.0</ele><time>2026-05-03T11:43:03.053Z</time></trkpt><trkpt lat="41.8627604" lon="13.1994588"><ele>571.0</ele><time>2026-05-03T11:43:04.056Z</time></trkpt><trkpt lat="41.8626564" lon="13.199478"><ele>571.0</ele><time>2026-05-03T11:43:05.057Z</time></trkpt><trkpt lat="41.8625559" lon="13.1994868"><ele>570.6</ele><time>2026-05-03T11:43:06.059Z</time></trkpt><trkpt lat="41.8624604" lon="13.1995044"><ele>570.2</ele><time>2026-05-03T11:43:07.052Z</time></trkpt><trkpt lat="41.8623619" lon="13.199535"><ele>569.8</ele><time>2026-05-03T11:43:08.066Z</time></trkpt><trkpt lat="41.862269" lon="13.1995651"><ele>569.4</ele><time>2026-05-03T11:43:09.056Z</time></trkpt><trkpt lat="41.8621732" lon="13.1996042"><ele>569.0</ele><time>2026-05-03T11:43:10.059Z</time></trkpt><trkpt lat="41.8620842" lon="13.1996378"><ele>569.0</ele><time>2026-05-03T11:43:11.056Z</time></trkpt><trkpt lat="41.8620074" lon="13.199678"><ele>569.0</ele><time>2026-05-03T11:43:12.053Z</time></trkpt><trkpt lat="41.8619367" lon="13.1997404"><ele>569.0</ele><time>2026-05-03T11:43:13.058Z</time></trkpt><trkpt lat="41.8618797" lon="13.1998252"><ele>569.0</ele><time>2026-05-03T11:43:14.059Z</time></trkpt><trkpt lat="41.8618417" lon="13.1999265"><ele>569.0</ele><time>2026-05-03T11:43:15.067Z</time></trkpt><trkpt lat="41.8618183" lon="13.2000449"><ele>569.0</ele><time>2026-05-03T11:43:16.062Z</time></trkpt><trkpt lat="41.8618028" lon="13.2001708"><ele>569.6</ele><time>2026-05-03T11:43:17.06Z</time></trkpt><trkpt lat="41.8617913" lon="13.2003046"><ele>570.2</ele><time>2026-05-03T11:43:18.059Z</time></trkpt><trkpt lat="41.8617761" lon="13.2004493"><ele>570.8000000000001</ele><time>2026-05-03T11:43:19.065Z</time></trkpt><trkpt lat="41.8617366" lon="13.2005696"><ele>571.4</ele><time>2026-05-03T11:43:20.05Z</time></trkpt><trkpt lat="41.8616779" lon="13.2006783"><ele>572.0</ele><time>2026-05-03T11:43:21.055Z</time></trkpt><trkpt lat="41.8616067" lon="13.2007659"><ele>572.4</ele><time>2026-05-03T11:43:22.053Z</time></trkpt><trkpt lat="41.8615215" lon="13.2008419"><ele>572.8000000000001</ele><time>2026-05-03T11:43:23.055Z</time></trkpt><trkpt lat="41.8614343" lon="13.2009235"><ele>573.2</ele><time>2026-05-03T11:43:24.053Z</time></trkpt><trkpt lat="41.8613461" lon="13.2010046"><ele>573.6</ele><time>2026-05-03T11:43:25.05Z</time></trkpt><trkpt lat="41.8612539" lon="13.2010909"><ele>574.0</ele><time>2026-05-03T11:43:26.056Z</time></trkpt><trkpt lat="41.8611671" lon="13.201182"><ele>574.0</ele><time>2026-05-03T11:43:27.052Z</time></trkpt><trkpt lat="41.8610787" lon="13.2012765"><ele>574.0</ele><time>2026-05-03T11:43:28.06Z</time></trkpt><trkpt lat="41.860998" lon="13.2013744"><ele>574.0</ele><time>2026-05-03T11:43:29.051Z</time></trkpt><trkpt lat="41.8609035" lon="13.2015149"><ele>574.0</ele><time>2026-05-03T11:43:30.052Z</time></trkpt><trkpt lat="41.8607914" lon="13.2016968"><ele>575.3333333333334</ele><time>2026-05-03T11:43:31.057Z</time></trkpt><trkpt lat="41.8606709" lon="13.201909"><ele>576.6666666666666</ele><time>2026-05-03T11:43:32.055Z</time></trkpt><trkpt lat="41.8605374" lon="13.2021289"><ele>578.0</ele><time>2026-05-03T11:43:33.051Z</time></trkpt><trkpt lat="41.86039" lon="13.2023131"><ele>579.6666666666666</ele><time>2026-05-03T11:43:34.065Z</time></trkpt><trkpt lat="41.8602466" lon="13.2024684"><ele>581.3333333333334</ele><time>2026-05-03T11:43:35.055Z</time></trkpt><trkpt lat="41.8601239" lon="13.20261"><ele>583.0</ele><time>2026-05-03T11:43:36.058Z</time></trkpt><trkpt lat="41.8599928" lon="13.2027159"><ele>583.0</ele><time>2026-05-03T11:43:37.053Z</time></trkpt><trkpt lat="41.8598418" lon="13.2027728"><ele>583.0</ele><time>2026-05-03T11:43:38.051Z</time></trkpt><trkpt lat="41.8596972" lon="13.2028088"><ele>583.0</ele><time>2026-05-03T11:43:39.053Z</time></trkpt><trkpt lat="41.8595756" lon="13.2028529"><ele>583.0</ele><time>2026-05-03T11:43:40.062Z</time></trkpt><trkpt lat="41.859473" lon="13.2029491"><ele>583.0</ele><time>2026-05-03T11:43:41.052Z</time></trkpt><trkpt lat="41.8593846" lon="13.2031038"><ele>583.0</ele><time>2026-05-03T11:43:42.055Z</time></trkpt><trkpt lat="41.8593233" lon="13.203282"><ele>583.0</ele><time>2026-05-03T11:43:43.062Z</time></trkpt><trkpt lat="41.8592966" lon="13.2034592"><ele>583.0</ele><time>2026-05-03T11:43:44.065Z</time></trkpt><trkpt lat="41.8593036" lon="13.2036122"><ele>587.5</ele><time>2026-05-03T11:43:45.062Z</time></trkpt><trkpt lat="41.859358" lon="13.2037455"><ele>592.0</ele><time>2026-05-03T11:43:46.1Z</time></trkpt><trkpt lat="41.8594349" lon="13.2038398"><ele>596.5</ele><time>2026-05-03T11:43:47.062Z</time></trkpt><trkpt lat="41.8595419" lon="13.203952"><ele>601.0</ele><time>2026-05-03T11:43:48.057Z</time></trkpt><trkpt lat="41.8596375" lon="13.2041116"><ele>601.0</ele><time>2026-05-03T11:43:49.055Z</time></trkpt><trkpt lat="41.8597042" lon="13.2043224"><ele>601.0</ele><time>2026-05-03T11:43:50.052Z</time></trkpt><trkpt lat="41.8597411" lon="13.2045203"><ele>601.0</ele><time>2026-05-03T11:43:51.054Z</time></trkpt><trkpt lat="41.8597535" lon="13.20468"><ele>601.0</ele><time>2026-05-03T11:43:52.055Z</time></trkpt><trkpt lat="41.8597934" lon="13.2048327"><ele>598.75</ele><time>2026-05-03T11:43:53.057Z</time></trkpt><trkpt lat="41.8598613" lon="13.2049792"><ele>596.5</ele><time>2026-05-03T11:43:54.058Z</time></trkpt><trkpt lat="41.8599454" lon="13.205153"><ele>594.25</ele><time>2026-05-03T11:43:55.055Z</time></trkpt><trkpt lat="41.8600049" lon="13.2053549"><ele>592.0</ele><time>2026-05-03T11:43:56.064Z</time></trkpt><trkpt lat="41.8600445" lon="13.205582"><ele>590.0</ele><time>2026-05-03T11:43:57.059Z</time></trkpt><trkpt lat="41.8600457" lon="13.2057992"><ele>588.0</ele><time>2026-05-03T11:43:58.051Z</time></trkpt><trkpt lat="41.8600184" lon="13.2060267"><ele>586.0</ele><time>2026-05-03T11:43:59.066Z</time></trkpt><trkpt lat="41.8599507" lon="13.2062456"><ele>586.0</ele><time>2026-05-03T11:44:00.057Z</time></trkpt><trkpt lat="41.8598537" lon="13.2064654"><ele>586.0</ele><time>2026-05-03T11:44:01.056Z</time></trkpt><trkpt lat="41.859746" lon="13.2066979"><ele>586.0</ele><time>2026-05-03T11:44:02.05Z</time></trkpt><trkpt lat="41.8596558" lon="13.2069119"><ele>588.0</ele><time>2026-05-03T11:44:03.051Z</time></trkpt><trkpt lat="41.8595764" lon="13.2070995"><ele>590.0</ele><time>2026-05-03T11:44:04.055Z</time></trkpt><trkpt lat="41.8595089" lon="13.2073031"><ele>592.0</ele><time>2026-05-03T11:44:05.058Z</time></trkpt><trkpt lat="41.8594671" lon="13.2075419"><ele>593.0</ele><time>2026-05-03T11:44:06.106Z</time></trkpt><trkpt lat="41.8594153" lon="13.2077991"><ele>594.0</ele><time>2026-05-03T11:44:07.064Z</time></trkpt><trkpt lat="41.8593427" lon="13.2080433"><ele>595.0</ele><time>2026-05-03T11:44:08.057Z</time></trkpt><trkpt lat="41.8592547" lon="13.2082808"><ele>595.0</ele><time>2026-05-03T11:44:09.056Z</time></trkpt><trkpt lat="41.8591733" lon="13.2084848"><ele>595.0</ele><time>2026-05-03T11:44:10.06Z</time></trkpt><trkpt lat="41.8591078" lon="13.2086844"><ele>595.0</ele><time>2026-05-03T11:44:11.07Z</time></trkpt><trkpt lat="41.8590695" lon="13.2088714"><ele>599.3333333333334</ele><time>2026-05-03T11:44:12.065Z</time></trkpt><trkpt lat="41.8590694" lon="13.2090877"><ele>603.6666666666666</ele><time>2026-05-03T11:44:13.059Z</time></trkpt><trkpt lat="41.8591221" lon="13.2093474"><ele>608.0</ele><time>2026-05-03T11:44:14.056Z</time></trkpt><trkpt lat="41.8591742" lon="13.2096163"><ele>611.5</ele><time>2026-05-03T11:44:15.055Z</time></trkpt><trkpt lat="41.859225" lon="13.2099097"><ele>615.0</ele><time>2026-05-03T11:44:16.056Z</time></trkpt><trkpt lat="41.8592684" lon="13.21022"><ele>617.3333333333334</ele><time>2026-05-03T11:44:17.057Z</time></trkpt><trkpt lat="41.8593108" lon="13.210509"><ele>619.6666666666667</ele><time>2026-05-03T11:44:18.059Z</time></trkpt><trkpt lat="41.8593489" lon="13.2107582"><ele>622.0</ele><time>2026-05-03T11:44:19.057Z</time></trkpt><trkpt lat="41.8593779" lon="13.2109882"><ele>622.0</ele><time>2026-05-03T11:44:20.084Z</time></trkpt><trkpt lat="41.859384" lon="13.2111892"><ele>622.0</ele><time>2026-05-03T11:44:21.066Z</time></trkpt><trkpt lat="41.8593687" lon="13.2114113"><ele>622.0</ele><time>2026-05-03T11:44:22.058Z</time></trkpt><trkpt lat="41.859347" lon="13.2116554"><ele>622.6666666666667</ele><time>2026-05-03T11:44:23.063Z</time></trkpt><trkpt lat="41.8593111" lon="13.2119159"><ele>623.3333333333334</ele><time>2026-05-03T11:44:24.059Z</time></trkpt><trkpt lat="41.859265" lon="13.2121847"><ele>624.0</ele><time>2026-05-03T11:44:25.068Z</time></trkpt><trkpt lat="41.8592223" lon="13.2124597"><ele>625.6666666666666</ele><time>2026-05-03T11:44:26.058Z</time></trkpt><trkpt lat="41.8592086" lon="13.212751"><ele>627.3333333333333</ele><time>2026-05-03T11:44:27.058Z</time></trkpt><trkpt lat="41.8592058" lon="13.213053"><ele>629.0</ele><time>2026-05-03T11:44:28.058Z</time></trkpt><trkpt lat="41.8591866" lon="13.2133535"><ele>629.5</ele><time>2026-05-03T11:44:29.053Z</time></trkpt><trkpt lat="41.8591466" lon="13.2136585"><ele>630.0</ele><time>2026-05-03T11:44:30.116Z</time></trkpt><trkpt lat="41.8590852" lon="13.2139636"><ele>629.5</ele><time>2026-05-03T11:44:31.057Z</time></trkpt><trkpt lat="41.8590157" lon="13.2142628"><ele>629.0</ele><time>2026-05-03T11:44:32.062Z</time></trkpt><trkpt lat="41.8589355" lon="13.2145381"><ele>629.0</ele><time>2026-05-03T11:44:33.058Z</time></trkpt><trkpt lat="41.8588605" lon="13.2148173"><ele>629.0</ele><time>2026-05-03T11:44:34.058Z</time></trkpt><trkpt lat="41.8587843" lon="13.2150761"><ele>629.0</ele><time>2026-05-03T11:44:35.064Z</time></trkpt><trkpt lat="41.8587244" lon="13.2153517"><ele>631.0</ele><time>2026-05-03T11:44:36.059Z</time></trkpt><trkpt lat="41.858703" lon="13.2156586"><ele>633.0</ele><time>2026-05-03T11:44:37.067Z</time></trkpt><trkpt lat="41.8587046" lon="13.2160105"><ele>633.0</ele><time>2026-05-03T11:44:38.057Z</time></trkpt><trkpt lat="41.8587241" lon="13.2163637"><ele>633.0</ele><time>2026-05-03T11:44:39.06Z</time></trkpt><trkpt lat="41.8587497" lon="13.2167241"><ele>634.5</ele><time>2026-05-03T11:44:40.06Z</time></trkpt><trkpt lat="41.8587721" lon="13.2170908"><ele>636.0</ele><time>2026-05-03T11:44:41.06Z</time></trkpt><trkpt lat="41.8587921" lon="13.2174374"><ele>637.0</ele><time>2026-05-03T11:44:42.064Z</time></trkpt><trkpt lat="41.8588123" lon="13.2177612"><ele>638.0</ele><time>2026-05-03T11:44:43.06Z</time></trkpt><trkpt lat="41.858832" lon="13.2180533"><ele>639.3333333333333</ele><time>2026-05-03T11:44:44.096Z</time></trkpt><trkpt lat="41.8588545" lon="13.2183359"><ele>640.6666666666666</ele><time>2026-05-03T11:44:45.063Z</time></trkpt><trkpt lat="41.8588758" lon="13.218591"><ele>642.0</ele><time>2026-05-03T11:44:46.059Z</time></trkpt><trkpt lat="41.8588867" lon="13.2188315"><ele>643.3333333333334</ele><time>2026-05-03T11:44:47.066Z</time></trkpt><trkpt lat="41.8588687" lon="13.2190718"><ele>644.6666666666667</ele><time>2026-05-03T11:44:48.064Z</time></trkpt><trkpt lat="41.8588253" lon="13.2193421"><ele>646.0</ele><time>2026-05-03T11:44:49.065Z</time></trkpt><trkpt lat="41.8587559" lon="13.2196178"><ele>646.5</ele><time>2026-05-03T11:44:50.091Z</time></trkpt><trkpt lat="41.8586981" lon="13.2199084"><ele>647.0</ele><time>2026-05-03T11:44:51.063Z</time></trkpt><trkpt lat="41.8586691" lon="13.2202148"><ele>647.0</ele><time>2026-05-03T11:44:52.066Z</time></trkpt><trkpt lat="41.8586556" lon="13.2205202"><ele>647.0</ele><time>2026-05-03T11:44:53.063Z</time></trkpt><trkpt lat="41.8586334" lon="13.2208085"><ele>647.0</ele><time>2026-05-03T11:44:54.061Z</time></trkpt><trkpt lat="41.858603" lon="13.2210828"><ele>648.6666666666666</ele><time>2026-05-03T11:44:55.067Z</time></trkpt><trkpt lat="41.8585564" lon="13.2213512"><ele>650.3333333333334</ele><time>2026-05-03T11:44:56.066Z</time></trkpt><trkpt lat="41.8585105" lon="13.2216019"><ele>652.0</ele><time>2026-05-03T11:44:57.056Z</time></trkpt><trkpt lat="41.8585061" lon="13.2218553"><ele>654.6666666666667</ele><time>2026-05-03T11:44:58.114Z</time></trkpt><trkpt lat="41.8585426" lon="13.2221352"><ele>657.3333333333334</ele><time>2026-05-03T11:44:59.069Z</time></trkpt><trkpt lat="41.8585961" lon="13.2224385"><ele>660.0</ele><time>2026-05-03T11:45:00.064Z</time></trkpt><trkpt lat="41.8586527" lon="13.2227356"><ele>661.3333333333334</ele><time>2026-05-03T11:45:01.069Z</time></trkpt><trkpt lat="41.8587049" lon="13.2230213"><ele>662.6666666666667</ele><time>2026-05-03T11:45:02.059Z</time></trkpt><trkpt lat="41.8587574" lon="13.2232862"><ele>664.0</ele><time>2026-05-03T11:45:03.074Z</time></trkpt><trkpt lat="41.8587974" lon="13.2235396"><ele>666.0</ele><time>2026-05-03T11:45:04.063Z</time></trkpt><trkpt lat="41.8587955" lon="13.2237701"><ele>668.0</ele><time>2026-05-03T11:45:05.075Z</time></trkpt><trkpt lat="41.8587579" lon="13.223988"><ele>670.0</ele><time>2026-05-03T11:45:06.066Z</time></trkpt><trkpt lat="41.858661" lon="13.2241977"><ele>672.3333333333334</ele><time>2026-05-03T11:45:07.066Z</time></trkpt><trkpt lat="41.8585367" lon="13.2243961"><ele>674.6666666666666</ele><time>2026-05-03T11:45:08.063Z</time></trkpt><trkpt lat="41.8584158" lon="13.2246006"><ele>677.0</ele><time>2026-05-03T11:45:09.062Z</time></trkpt><trkpt lat="41.8583103" lon="13.2247843"><ele>672.3333333333333</ele><time>2026-05-03T11:45:10.065Z</time></trkpt><trkpt lat="41.8582371" lon="13.2249688"><ele>667.6666666666666</ele><time>2026-05-03T11:45:11.058Z</time></trkpt><trkpt lat="41.8582252" lon="13.2251831"><ele>663.0</ele><time>2026-05-03T11:45:12.064Z</time></trkpt><trkpt lat="41.8582441" lon="13.2254287"><ele>662.6666666666666</ele><time>2026-05-03T11:45:13.069Z</time></trkpt><trkpt lat="41.8582874" lon="13.2256697"><ele>662.3333333333333</ele><time>2026-05-03T11:45:14.064Z</time></trkpt><trkpt lat="41.8583523" lon="13.2259007"><ele>662.0</ele><time>2026-05-03T11:45:15.061Z</time></trkpt><trkpt lat="41.8584342" lon="13.2261167"><ele>666.6666666666666</ele><time>2026-05-03T11:45:16.096Z</time></trkpt><trkpt lat="41.8585167" lon="13.2263147"><ele>671.3333333333334</ele><time>2026-05-03T11:45:17.063Z</time></trkpt><trkpt lat="41.8585924" lon="13.2265278"><ele>676.0</ele><time>2026-05-03T11:45:18.062Z</time></trkpt><trkpt lat="41.8586248" lon="13.226743"><ele>676.0</ele><time>2026-05-03T11:45:19.066Z</time></trkpt><trkpt lat="41.8586311" lon="13.2269537"><ele>676.0</ele><time>2026-05-03T11:45:20.065Z</time></trkpt><trkpt lat="41.8586066" lon="13.227163"><ele>676.0</ele><time>2026-05-03T11:45:21.06Z</time></trkpt><trkpt lat="41.8586152" lon="13.2273578"><ele>673.0</ele><time>2026-05-03T11:45:22.067Z</time></trkpt><trkpt lat="41.8586735" lon="13.2274946"><ele>670.0</ele><time>2026-05-03T11:45:23.065Z</time></trkpt><trkpt lat="41.8587659" lon="13.2275878"><ele>667.0</ele><time>2026-05-03T11:45:24.058Z</time></trkpt><trkpt lat="41.8588878" lon="13.2276366"><ele>664.0</ele><time>2026-05-03T11:45:25.058Z</time></trkpt><trkpt lat="41.8590337" lon="13.2276397"><ele>664.0</ele><time>2026-05-03T11:45:26.055Z</time></trkpt><trkpt lat="41.8591837" lon="13.2275613"><ele>664.0</ele><time>2026-05-03T11:45:27.057Z</time></trkpt><trkpt lat="41.8593061" lon="13.2274392"><ele>664.0</ele><time>2026-05-03T11:45:28.056Z</time></trkpt><trkpt lat="41.8593984" lon="13.2272934"><ele>665.0</ele><time>2026-05-03T11:45:29.06Z</time></trkpt><trkpt lat="41.8594605" lon="13.2271435"><ele>666.0</ele><time>2026-05-03T11:45:30.101Z</time></trkpt><trkpt lat="41.859509" lon="13.2269887"><ele>667.0</ele><time>2026-05-03T11:45:31.064Z</time></trkpt><trkpt lat="41.8595725" lon="13.2268721"><ele>668.0</ele><time>2026-05-03T11:45:32.057Z</time></trkpt><trkpt lat="41.8596462" lon="13.2267943"><ele>668.0</ele><time>2026-05-03T11:45:33.051Z</time></trkpt><trkpt lat="41.8597135" lon="13.2267781"><ele>668.0</ele><time>2026-05-03T11:45:34.05Z</time></trkpt><trkpt lat="41.8598191" lon="13.226844"><ele>668.0</ele><time>2026-05-03T11:45:36.06Z</time></trkpt><trkpt lat="41.8598562" lon="13.2270182"><ele>668.0</ele><time>2026-05-03T11:45:38.058Z</time></trkpt><trkpt lat="41.8598397" lon="13.2271369"><ele>668.0</ele><time>2026-05-03T11:45:39.062Z</time></trkpt><trkpt lat="41.8598167" lon="13.2273008"><ele>667.75</ele><time>2026-05-03T11:45:40.056Z</time></trkpt><trkpt lat="41.8598131" lon="13.2274804"><ele>667.5</ele><time>2026-05-03T11:45:41.061Z</time></trkpt><trkpt lat="41.8598078" lon="13.2276609"><ele>667.25</ele><time>2026-05-03T11:45:42.067Z</time></trkpt><trkpt lat="41.8597771" lon="13.2277982"><ele>667.0</ele><time>2026-05-03T11:45:43.059Z</time></trkpt><trkpt lat="41.8597159" lon="13.2278875"><ele>667.0</ele><time>2026-05-03T11:45:44.096Z</time></trkpt><trkpt lat="41.8596237" lon="13.2279199"><ele>667.0</ele><time>2026-05-03T11:45:45.056Z</time></trkpt><trkpt lat="41.859493" lon="13.2279262"><ele>667.0</ele><time>2026-05-03T11:45:46.06Z</time></trkpt><trkpt lat="41.8593431" lon="13.2279395"><ele>667.0</ele><time>2026-05-03T11:45:47.059Z</time></trkpt><trkpt lat="41.8591868" lon="13.2279812"><ele>666.0</ele><time>2026-05-03T11:45:48.06Z</time></trkpt><trkpt lat="41.8590315" lon="13.2280776"><ele>665.0</ele><time>2026-05-03T11:45:49.06Z</time></trkpt><trkpt lat="41.8588955" lon="13.2281835"><ele>664.0</ele><time>2026-05-03T11:45:50.06Z</time></trkpt><trkpt lat="41.8587771" lon="13.2282934"><ele>661.0</ele><time>2026-05-03T11:45:51.06Z</time></trkpt><trkpt lat="41.8586444" lon="13.228353"><ele>658.0</ele><time>2026-05-03T11:45:52.062Z</time></trkpt><trkpt lat="41.858495" lon="13.228356"><ele>655.0</ele><time>2026-05-03T11:45:53.066Z</time></trkpt><trkpt lat="41.8583482" lon="13.2283306"><ele>652.0</ele><time>2026-05-03T11:45:54.06Z</time></trkpt><trkpt lat="41.8582284" lon="13.2282707"><ele>651.25</ele><time>2026-05-03T11:45:55.061Z</time></trkpt><trkpt lat="41.8581343" lon="13.2281817"><ele>650.5</ele><time>2026-05-03T11:45:56.062Z</time></trkpt><trkpt lat="41.8580775" lon="13.2280517"><ele>649.75</ele><time>2026-05-03T11:45:57.063Z</time></trkpt><trkpt lat="41.8580286" lon="13.2278655"><ele>649.0</ele><time>2026-05-03T11:45:58.062Z</time></trkpt><trkpt lat="41.8579831" lon="13.2276514"><ele>649.0</ele><time>2026-05-03T11:45:59.054Z</time></trkpt><trkpt lat="41.8579416" lon="13.2273992"><ele>649.0</ele><time>2026-05-03T11:46:00.054Z</time></trkpt><trkpt lat="41.8579081" lon="13.2271359"><ele>649.0</ele><time>2026-05-03T11:46:01.058Z</time></trkpt><trkpt lat="41.8578864" lon="13.2268618"><ele>650.3333333333334</ele><time>2026-05-03T11:46:02.052Z</time></trkpt><trkpt lat="41.8578296" lon="13.2266026"><ele>651.6666666666666</ele><time>2026-05-03T11:46:03.054Z</time></trkpt><trkpt lat="41.8577509" lon="13.2263887"><ele>653.0</ele><time>2026-05-03T11:46:04.055Z</time></trkpt><trkpt lat="41.8576661" lon="13.2261927"><ele>649.0</ele><time>2026-05-03T11:46:05.055Z</time></trkpt><trkpt lat="41.8575952" lon="13.2260079"><ele>645.0</ele><time>2026-05-03T11:46:06.054Z</time></trkpt><trkpt lat="41.8575285" lon="13.2258537"><ele>641.0</ele><time>2026-05-03T11:46:07.055Z</time></trkpt><trkpt lat="41.8574397" lon="13.2257344"><ele>637.0</ele><time>2026-05-03T11:46:08.048Z</time></trkpt><trkpt lat="41.8573305" lon="13.225678"><ele>637.0</ele><time>2026-05-03T11:46:09.069Z</time></trkpt><trkpt lat="41.8572133" lon="13.2256779"><ele>637.0</ele><time>2026-05-03T11:46:10.057Z</time></trkpt><trkpt lat="41.8570718" lon="13.2257422"><ele>637.0</ele><time>2026-05-03T11:46:11.078Z</time></trkpt><trkpt lat="41.8569283" lon="13.2258257"><ele>637.0</ele><time>2026-05-03T11:46:12.067Z</time></trkpt><trkpt lat="41.8567936" lon="13.2258723"><ele>636.75</ele><time>2026-05-03T11:46:13.065Z</time></trkpt><trkpt lat="41.8566773" lon="13.2258784"><ele>636.5</ele><time>2026-05-03T11:46:14.059Z</time></trkpt><trkpt lat="41.8565917" lon="13.2257955"><ele>636.25</ele><time>2026-05-03T11:46:15.063Z</time></trkpt><trkpt lat="41.8564945" lon="13.2256697"><ele>636.0</ele><time>2026-05-03T11:46:16.072Z</time></trkpt><trkpt lat="41.8564211" lon="13.2254965"><ele>636.0</ele><time>2026-05-03T11:46:17.06Z</time></trkpt><trkpt lat="41.8563503" lon="13.2252982"><ele>636.0</ele><time>2026-05-03T11:46:18.06Z</time></trkpt><trkpt lat="41.8563133" lon="13.2250999"><ele>636.0</ele><time>2026-05-03T11:46:19.053Z</time></trkpt><trkpt lat="41.8563108" lon="13.2248818"><ele>638.0</ele><time>2026-05-03T11:46:20.061Z</time></trkpt><trkpt lat="41.85633" lon="13.2246279"><ele>640.0</ele><time>2026-05-03T11:46:21.06Z</time></trkpt><trkpt lat="41.8563424" lon="13.2243777"><ele>642.0</ele><time>2026-05-03T11:46:22.053Z</time></trkpt><trkpt lat="41.8563442" lon="13.2241408"><ele>642.0</ele><time>2026-05-03T11:46:23.054Z</time></trkpt><trkpt lat="41.8563197" lon="13.2239549"><ele>642.0</ele><time>2026-05-03T11:46:24.056Z</time></trkpt><trkpt lat="41.8562777" lon="13.2238085"><ele>642.0</ele><time>2026-05-03T11:46:25.055Z</time></trkpt><trkpt lat="41.8561997" lon="13.2237327"><ele>642.0</ele><time>2026-05-03T11:46:26.061Z</time></trkpt><trkpt lat="41.8560787" lon="13.2236833"><ele>643.25</ele><time>2026-05-03T11:46:27.049Z</time></trkpt><trkpt lat="41.8559357" lon="13.2236506"><ele>644.5</ele><time>2026-05-03T11:46:28.061Z</time></trkpt><trkpt lat="41.8557851" lon="13.2236501"><ele>645.75</ele><time>2026-05-03T11:46:29.061Z</time></trkpt><trkpt lat="41.8556622" lon="13.2236878"><ele>647.0</ele><time>2026-05-03T11:46:30.066Z</time></trkpt><trkpt lat="41.8555296" lon="13.223805"><ele>647.0</ele><time>2026-05-03T11:46:31.063Z</time></trkpt><trkpt lat="41.8553879" lon="13.2239583"><ele>647.0</ele><time>2026-05-03T11:46:32.06Z</time></trkpt><trkpt lat="41.8552286" lon="13.2241297"><ele>647.0</ele><time>2026-05-03T11:46:33.06Z</time></trkpt><trkpt lat="41.8550768" lon="13.2243016"><ele>651.0</ele><time>2026-05-03T11:46:34.061Z</time></trkpt><trkpt lat="41.8549198" lon="13.2244689"><ele>655.0</ele><time>2026-05-03T11:46:35.061Z</time></trkpt><trkpt lat="41.8547527" lon="13.224637"><ele>659.0</ele><time>2026-05-03T11:46:36.067Z</time></trkpt><trkpt lat="41.8546077" lon="13.224803"><ele>658.0</ele><time>2026-05-03T11:46:37.063Z</time></trkpt><trkpt lat="41.8544822" lon="13.2249983"><ele>657.0</ele><time>2026-05-03T11:46:38.064Z</time></trkpt><trkpt lat="41.8543639" lon="13.2252252"><ele>656.0</ele><time>2026-05-03T11:46:39.063Z</time></trkpt><trkpt lat="41.8542436" lon="13.2254749"><ele>659.6666666666666</ele><time>2026-05-03T11:46:40.069Z</time></trkpt><trkpt lat="41.8541215" lon="13.2257209"><ele>663.3333333333334</ele><time>2026-05-03T11:46:41.058Z</time></trkpt><trkpt lat="41.8539918" lon="13.2259552"><ele>667.0</ele><time>2026-05-03T11:46:42.063Z</time></trkpt><trkpt lat="41.8538808" lon="13.2261793"><ele>667.0</ele><time>2026-05-03T11:46:43.063Z</time></trkpt><trkpt lat="41.8537838" lon="13.2263713"><ele>667.0</ele><time>2026-05-03T11:46:44.057Z</time></trkpt><trkpt lat="41.8536917" lon="13.2265337"><ele>667.0</ele><time>2026-05-03T11:46:45.075Z</time></trkpt><trkpt lat="41.8536014" lon="13.2266715"><ele>666.4000000000001</ele><time>2026-05-03T11:46:46.062Z</time></trkpt><trkpt lat="41.8535113" lon="13.2267774"><ele>665.8000000000001</ele><time>2026-05-03T11:46:47.064Z</time></trkpt><trkpt lat="41.8534241" lon="13.2268418"><ele>665.2</ele><time>2026-05-03T11:46:48.064Z</time></trkpt><trkpt lat="41.8533519" lon="13.2268728"><ele>664.6</ele><time>2026-05-03T11:46:49.061Z</time></trkpt><trkpt lat="41.8532861" lon="13.2267645"><ele>664.0</ele><time>2026-05-03T11:46:51.062Z</time></trkpt><trkpt lat="41.8532917" lon="13.2266757"><ele>664.75</ele><time>2026-05-03T11:46:52.073Z</time></trkpt><trkpt lat="41.8533134" lon="13.2265712"><ele>665.5</ele><time>2026-05-03T11:46:53.058Z</time></trkpt><trkpt lat="41.8533799" lon="13.2264288"><ele>666.25</ele><time>2026-05-03T11:46:54.063Z</time></trkpt><trkpt lat="41.8534626" lon="13.2262653"><ele>667.0</ele><time>2026-05-03T11:46:55.055Z</time></trkpt><trkpt lat="41.8534995" lon="13.2260613"><ele>667.0</ele><time>2026-05-03T11:46:56.06Z</time></trkpt><trkpt lat="41.8534983" lon="13.2258346"><ele>667.0</ele><time>2026-05-03T11:46:57.058Z</time></trkpt><trkpt lat="41.8534945" lon="13.2255716"><ele>667.0</ele><time>2026-05-03T11:46:58.058Z</time></trkpt><trkpt lat="41.853478" lon="13.2253004"><ele>676.6666666666667</ele><time>2026-05-03T11:46:59.084Z</time></trkpt><trkpt lat="41.8534446" lon="13.2250428"><ele>686.3333333333334</ele><time>2026-05-03T11:47:00.057Z</time></trkpt><trkpt lat="41.8533987" lon="13.2247977"><ele>696.0</ele><time>2026-05-03T11:47:01.06Z</time></trkpt><trkpt lat="41.8533777" lon="13.2245984"><ele>698.0</ele><time>2026-05-03T11:47:02.058Z</time></trkpt><trkpt lat="41.8534099" lon="13.2244692"><ele>700.0</ele><time>2026-05-03T11:47:03.059Z</time></trkpt><trkpt lat="41.8534832" lon="13.2243764"><ele>702.0</ele><time>2026-05-03T11:47:04.075Z</time></trkpt><trkpt lat="41.853581" lon="13.2242835"><ele>704.0</ele><time>2026-05-03T11:47:05.056Z</time></trkpt><trkpt lat="41.853669" lon="13.2241493"><ele>698.6666666666666</ele><time>2026-05-03T11:47:06.059Z</time></trkpt><trkpt lat="41.8537418" lon="13.2239773"><ele>693.3333333333334</ele><time>2026-05-03T11:47:07.061Z</time></trkpt><trkpt lat="41.8537755" lon="13.2237588"><ele>688.0</ele><time>2026-05-03T11:47:08.057Z</time></trkpt><trkpt lat="41.8537801" lon="13.2235479"><ele>688.0</ele><time>2026-05-03T11:47:09.054Z</time></trkpt><trkpt lat="41.8537706" lon="13.2233928"><ele>688.0</ele><time>2026-05-03T11:47:10.071Z</time></trkpt><trkpt lat="41.853753" lon="13.2232687"><ele>688.0</ele><time>2026-05-03T11:47:11.059Z</time></trkpt><trkpt lat="41.8536983" lon="13.2232092"><ele>688.0</ele><time>2026-05-03T11:47:12.058Z</time></trkpt><trkpt lat="41.8536108" lon="13.2232071"><ele>688.0</ele><time>2026-05-03T11:47:13.058Z</time></trkpt><trkpt lat="41.853545" lon="13.2232669"><ele>688.0</ele><time>2026-05-03T11:47:14.056Z</time></trkpt><trkpt lat="41.8534973" lon="13.2233616"><ele>688.0</ele><time>2026-05-03T11:47:15.057Z</time></trkpt><trkpt lat="41.8534592" lon="13.2234902"><ele>688.0</ele><time>2026-05-03T11:47:16.051Z</time></trkpt><trkpt lat="41.8534076" lon="13.2236621"><ele>688.0</ele><time>2026-05-03T11:47:17.058Z</time></trkpt><trkpt lat="41.853302" lon="13.2238499"><ele>688.0</ele><time>2026-05-03T11:47:18.061Z</time></trkpt><trkpt lat="41.8531695" lon="13.2240441"><ele>693.3333333333334</ele><time>2026-05-03T11:47:19.057Z</time></trkpt><trkpt lat="41.853036" lon="13.2242416"><ele>698.6666666666666</ele><time>2026-05-03T11:47:20.055Z</time></trkpt><trkpt lat="41.8529266" lon="13.2244333"><ele>704.0</ele><time>2026-05-03T11:47:21.067Z</time></trkpt><trkpt lat="41.8528365" lon="13.224658"><ele>702.0</ele><time>2026-05-03T11:47:22.05Z</time></trkpt><trkpt lat="41.8528025" lon="13.224891"><ele>700.0</ele><time>2026-05-03T11:47:23.061Z</time></trkpt><trkpt lat="41.8527776" lon="13.2250865"><ele>698.0</ele><time>2026-05-03T11:47:24.056Z</time></trkpt><trkpt lat="41.8527535" lon="13.2252236"><ele>696.0</ele><time>2026-05-03T11:47:25.054Z</time></trkpt><trkpt lat="41.8526707" lon="13.2252645"><ele>696.0</ele><time>2026-05-03T11:47:27.055Z</time></trkpt><trkpt lat="41.8526242" lon="13.2251085"><ele>696.0</ele><time>2026-05-03T11:47:29.054Z</time></trkpt><trkpt lat="41.8526538" lon="13.2249829"><ele>696.0</ele><time>2026-05-03T11:47:30.049Z</time></trkpt><trkpt lat="41.8526997" lon="13.2248318"><ele>696.0</ele><time>2026-05-03T11:47:31.055Z</time></trkpt><trkpt lat="41.8527348" lon="13.2246353"><ele>698.6666666666666</ele><time>2026-05-03T11:47:32.055Z</time></trkpt><trkpt lat="41.8527632" lon="13.2244283"><ele>701.3333333333333</ele><time>2026-05-03T11:47:33.059Z</time></trkpt><trkpt lat="41.8527992" lon="13.2241668"><ele>704.0</ele><time>2026-05-03T11:47:34.057Z</time></trkpt><trkpt lat="41.8528398" lon="13.2238825"><ele>708.6666666666666</ele><time>2026-05-03T11:47:35.053Z</time></trkpt><trkpt lat="41.8528725" lon="13.223609"><ele>713.3333333333334</ele><time>2026-05-03T11:47:36.056Z</time></trkpt><trkpt lat="41.8528962" lon="13.2233766"><ele>718.0</ele><time>2026-05-03T11:47:37.064Z</time></trkpt><trkpt lat="41.8529021" lon="13.2231564"><ele>723.5</ele><time>2026-05-03T11:47:38.058Z</time></trkpt><trkpt lat="41.8529122" lon="13.2229762"><ele>729.0</ele><time>2026-05-03T11:47:39.049Z</time></trkpt><trkpt lat="41.8529391" lon="13.2228408"><ele>734.5</ele><time>2026-05-03T11:47:40.056Z</time></trkpt><trkpt lat="41.8530074" lon="13.2227529"><ele>740.0</ele><time>2026-05-03T11:47:41.056Z</time></trkpt><trkpt lat="41.8531184" lon="13.2226766"><ele>740.0</ele><time>2026-05-03T11:47:42.052Z</time></trkpt><trkpt lat="41.8532709" lon="13.2226109"><ele>740.0</ele><time>2026-05-03T11:47:43.071Z</time></trkpt><trkpt lat="41.8534285" lon="13.2225086"><ele>740.0</ele><time>2026-05-03T11:47:44.049Z</time></trkpt><trkpt lat="41.8535686" lon="13.2223495"><ele>736.0</ele><time>2026-05-03T11:47:45.046Z</time></trkpt><trkpt lat="41.8536985" lon="13.2221535"><ele>732.0</ele><time>2026-05-03T11:47:46.054Z</time></trkpt><trkpt lat="41.853811" lon="13.2219348"><ele>728.0</ele><time>2026-05-03T11:47:47.06Z</time></trkpt><trkpt lat="41.8539018" lon="13.2217095"><ele>732.0</ele><time>2026-05-03T11:47:48.054Z</time></trkpt><trkpt lat="41.8539642" lon="13.2214375"><ele>736.0</ele><time>2026-05-03T11:47:49.053Z</time></trkpt><trkpt lat="41.8540056" lon="13.221163"><ele>740.0</ele><time>2026-05-03T11:47:50.06Z</time></trkpt><trkpt lat="41.8540253" lon="13.2209213"><ele>740.0</ele><time>2026-05-03T11:47:51.056Z</time></trkpt><trkpt lat="41.8540249" lon="13.220696"><ele>740.0</ele><time>2026-05-03T11:47:52.068Z</time></trkpt><trkpt lat="41.8540031" lon="13.2204807"><ele>740.0</ele><time>2026-05-03T11:47:53.053Z</time></trkpt><trkpt lat="41.8539694" lon="13.2202914"><ele>738.5</ele><time>2026-05-03T11:47:54.054Z</time></trkpt><trkpt lat="41.8539305" lon="13.2201229"><ele>737.0</ele><time>2026-05-03T11:47:55.048Z</time></trkpt><trkpt lat="41.8538941" lon="13.219963"><ele>735.5</ele><time>2026-05-03T11:47:56.061Z</time></trkpt><trkpt lat="41.8538398" lon="13.2198312"><ele>734.0</ele><time>2026-05-03T11:47:57.058Z</time></trkpt><trkpt lat="41.8537704" lon="13.2197198"><ele>737.2</ele><time>2026-05-03T11:47:58.066Z</time></trkpt><trkpt lat="41.8536784" lon="13.2196295"><ele>740.4000000000001</ele><time>2026-05-03T11:47:59.053Z</time></trkpt><trkpt lat="41.8535723" lon="13.2195695"><ele>743.6</ele><time>2026-05-03T11:48:00.051Z</time></trkpt><trkpt lat="41.8534695" lon="13.2195349"><ele>746.8</ele><time>2026-05-03T11:48:01.057Z</time></trkpt><trkpt lat="41.8533779" lon="13.2195029"><ele>750.0</ele><time>2026-05-03T11:48:02.059Z</time></trkpt><trkpt lat="41.8532834" lon="13.219467"><ele>750.0</ele><time>2026-05-03T11:48:03.056Z</time></trkpt><trkpt lat="41.8531922" lon="13.2194223"><ele>750.0</ele><time>2026-05-03T11:48:04.056Z</time></trkpt><trkpt lat="41.8531001" lon="13.2193737"><ele>750.0</ele><time>2026-05-03T11:48:05.061Z</time></trkpt><trkpt lat="41.8530144" lon="13.2193158"><ele>750.0</ele><time>2026-05-03T11:48:06.06Z</time></trkpt><trkpt lat="41.8529398" lon="13.2192375"><ele>750.0</ele><time>2026-05-03T11:48:07.052Z</time></trkpt><trkpt lat="41.8528905" lon="13.2191495"><ele>750.0</ele><time>2026-05-03T11:48:08.059Z</time></trkpt><trkpt lat="41.8528621" lon="13.2190606"><ele>750.0</ele><time>2026-05-03T11:48:09.053Z</time></trkpt><trkpt lat="41.8528443" lon="13.2189481"><ele>750.0</ele><time>2026-05-03T11:48:10.057Z</time></trkpt><trkpt lat="41.8528588" lon="13.2188103"><ele>750.0</ele><time>2026-05-03T11:48:11.049Z</time></trkpt><trkpt lat="41.8528861" lon="13.2186804"><ele>750.0</ele><time>2026-05-03T11:48:12.053Z</time></trkpt><trkpt lat="41.8529389" lon="13.2185449"><ele>749.6</ele><time>2026-05-03T11:48:13.05Z</time></trkpt><trkpt lat="41.8529892" lon="13.218414"><ele>749.2</ele><time>2026-05-03T11:48:14.058Z</time></trkpt><trkpt lat="41.8530319" lon="13.2182811"><ele>748.8</ele><time>2026-05-03T11:48:15.048Z</time></trkpt><trkpt lat="41.8530702" lon="13.2181476"><ele>748.4</ele><time>2026-05-03T11:48:16.053Z</time></trkpt><trkpt lat="41.853094" lon="13.2180105"><ele>748.0</ele><time>2026-05-03T11:48:17.052Z</time></trkpt><trkpt lat="41.8530956" lon="13.2178763"><ele>747.8</ele><time>2026-05-03T11:48:18.057Z</time></trkpt><trkpt lat="41.8530788" lon="13.2177425"><ele>747.5999999999999</ele><time>2026-05-03T11:48:19.061Z</time></trkpt><trkpt lat="41.8530554" lon="13.2175996"><ele>747.4000000000001</ele><time>2026-05-03T11:48:20.06Z</time></trkpt><trkpt lat="41.8530181" lon="13.2174705"><ele>747.2</ele><time>2026-05-03T11:48:21.049Z</time></trkpt><trkpt lat="41.8529662" lon="13.2173489"><ele>747.0</ele><time>2026-05-03T11:48:22.075Z</time></trkpt><trkpt lat="41.8528975" lon="13.2172446"><ele>744.0</ele><time>2026-05-03T11:48:23.052Z</time></trkpt><trkpt lat="41.8528235" lon="13.2171557"><ele>741.0</ele><time>2026-05-03T11:48:24.054Z</time></trkpt><trkpt lat="41.8527374" lon="13.2170542"><ele>738.0</ele><time>2026-05-03T11:48:25.059Z</time></trkpt><trkpt lat="41.8526428" lon="13.216972"><ele>735.0</ele><time>2026-05-03T11:48:26.051Z</time></trkpt><trkpt lat="41.852549" lon="13.2169049"><ele>732.0</ele><time>2026-05-03T11:48:27.069Z</time></trkpt><trkpt lat="41.8524602" lon="13.216851"><ele>740.8</ele><time>2026-05-03T11:48:28.054Z</time></trkpt><trkpt lat="41.8523742" lon="13.2167894"><ele>749.6</ele><time>2026-05-03T11:48:29.053Z</time></trkpt><trkpt lat="41.8522852" lon="13.2167324"><ele>758.4</ele><time>2026-05-03T11:48:30.055Z</time></trkpt><trkpt lat="41.8522082" lon="13.216674"><ele>767.1999999999999</ele><time>2026-05-03T11:48:31.043Z</time></trkpt><trkpt lat="41.8521405" lon="13.2166191"><ele>776.0</ele><time>2026-05-03T11:48:32.048Z</time></trkpt><trkpt lat="41.8520709" lon="13.2164952"><ele>776.0</ele><time>2026-05-03T11:48:34.049Z</time></trkpt><trkpt lat="41.852079" lon="13.2164069"><ele>776.0</ele><time>2026-05-03T11:48:35.051Z</time></trkpt><trkpt lat="41.8521164" lon="13.2163011"><ele>776.0</ele><time>2026-05-03T11:48:36.047Z</time></trkpt><trkpt lat="41.8521708" lon="13.2161572"><ele>776.0</ele><time>2026-05-03T11:48:37.051Z</time></trkpt><trkpt lat="41.8522452" lon="13.216025"><ele>776.0</ele><time>2026-05-03T11:48:38.055Z</time></trkpt><trkpt lat="41.8523288" lon="13.2158976"><ele>776.0</ele><time>2026-05-03T11:48:39.052Z</time></trkpt><trkpt lat="41.8523986" lon="13.2157633"><ele>776.0</ele><time>2026-05-03T11:48:40.054Z</time></trkpt><trkpt lat="41.8524278" lon="13.2156017"><ele>776.0</ele><time>2026-05-03T11:48:41.053Z</time></trkpt><trkpt lat="41.8524041" lon="13.2154397"><ele>776.0</ele><time>2026-05-03T11:48:42.047Z</time></trkpt><trkpt lat="41.8523742" lon="13.2152704"><ele>775.8</ele><time>2026-05-03T11:48:43.048Z</time></trkpt><trkpt lat="41.8523621" lon="13.2151258"><ele>775.5999999999999</ele><time>2026-05-03T11:48:44.05Z</time></trkpt><trkpt lat="41.8524004" lon="13.215026"><ele>775.4</ele><time>2026-05-03T11:48:45.06Z</time></trkpt><trkpt lat="41.8524823" lon="13.2149613"><ele>775.2</ele><time>2026-05-03T11:48:46.051Z</time></trkpt><trkpt lat="41.8525881" lon="13.214885"><ele>775.0</ele><time>2026-05-03T11:48:47.054Z</time></trkpt><trkpt lat="41.8526941" lon="13.214791"><ele>775.0</ele><time>2026-05-03T11:48:48.052Z</time></trkpt><trkpt lat="41.8527968" lon="13.2146375"><ele>775.0</ele><time>2026-05-03T11:48:49.059Z</time></trkpt><trkpt lat="41.8528868" lon="13.2144401"><ele>775.0</ele><time>2026-05-03T11:48:50.05Z</time></trkpt><trkpt lat="41.8529697" lon="13.2142206"><ele>775.0</ele><time>2026-05-03T11:48:51.051Z</time></trkpt><trkpt lat="41.8530509" lon="13.2140072"><ele>775.0</ele><time>2026-05-03T11:48:52.052Z</time></trkpt><trkpt lat="41.853139" lon="13.2137936"><ele>775.0</ele><time>2026-05-03T11:48:53.055Z</time></trkpt><trkpt lat="41.8532171" lon="13.2135864"><ele>781.6666666666666</ele><time>2026-05-03T11:48:54.05Z</time></trkpt><trkpt lat="41.8532786" lon="13.2133743"><ele>788.3333333333333</ele><time>2026-05-03T11:48:55.054Z</time></trkpt><trkpt lat="41.8533219" lon="13.2131603"><ele>795.0</ele><time>2026-05-03T11:48:56.055Z</time></trkpt><trkpt lat="41.8533466" lon="13.2129393"><ele>798.6666666666667</ele><time>2026-05-03T11:48:57.056Z</time></trkpt><trkpt lat="41.8533603" lon="13.2127014"><ele>802.3333333333334</ele><time>2026-05-03T11:48:58.06Z</time></trkpt><trkpt lat="41.8533648" lon="13.2124557"><ele>806.0</ele><time>2026-05-03T11:48:59.053Z</time></trkpt><trkpt lat="41.853376" lon="13.2122066"><ele>808.3333333333334</ele><time>2026-05-03T11:49:00.053Z</time></trkpt><trkpt lat="41.8533883" lon="13.2119614"><ele>810.6666666666667</ele><time>2026-05-03T11:49:01.052Z</time></trkpt><trkpt lat="41.8533964" lon="13.2117241"><ele>813.0</ele><time>2026-05-03T11:49:02.052Z</time></trkpt><trkpt lat="41.8533905" lon="13.2114937"><ele>812.3333333333333</ele><time>2026-05-03T11:49:03.052Z</time></trkpt><trkpt lat="41.8533737" lon="13.2112726"><ele>811.6666666666666</ele><time>2026-05-03T11:49:04.057Z</time></trkpt><trkpt lat="41.8533522" lon="13.2110498"><ele>811.0</ele><time>2026-05-03T11:49:05.066Z</time></trkpt><trkpt lat="41.8533348" lon="13.2108354"><ele>808.3333333333333</ele><time>2026-05-03T11:49:06.053Z</time></trkpt><trkpt lat="41.8533115" lon="13.2106155"><ele>805.6666666666667</ele><time>2026-05-03T11:49:07.053Z</time></trkpt><trkpt lat="41.8532737" lon="13.2103998"><ele>803.0</ele><time>2026-05-03T11:49:08.051Z</time></trkpt><trkpt lat="41.8532132" lon="13.2102046"><ele>803.0</ele><time>2026-05-03T11:49:09.05Z</time></trkpt><trkpt lat="41.8531368" lon="13.210019"><ele>803.0</ele><time>2026-05-03T11:49:10.055Z</time></trkpt><trkpt lat="41.8530849" lon="13.2098372"><ele>803.0</ele><time>2026-05-03T11:49:11.058Z</time></trkpt><trkpt lat="41.8530487" lon="13.2096388"><ele>801.3333333333334</ele><time>2026-05-03T11:49:12.053Z</time></trkpt><trkpt lat="41.8530368" lon="13.2094006"><ele>799.6666666666667</ele><time>2026-05-03T11:49:13.052Z</time></trkpt><trkpt lat="41.8530171" lon="13.2091206"><ele>798.0</ele><time>2026-05-03T11:49:14.054Z</time></trkpt><trkpt lat="41.8529665" lon="13.2088193"><ele>797.3333333333333</ele><time>2026-05-03T11:49:15.048Z</time></trkpt><trkpt lat="41.8529142" lon="13.2085242"><ele>796.6666666666666</ele><time>2026-05-03T11:49:16.055Z</time></trkpt><trkpt lat="41.8528661" lon="13.2082604"><ele>796.0</ele><time>2026-05-03T11:49:17.054Z</time></trkpt><trkpt lat="41.8528577" lon="13.2080204"><ele>797.6666666666666</ele><time>2026-05-03T11:49:18.053Z</time></trkpt><trkpt lat="41.8528888" lon="13.2078035"><ele>799.3333333333333</ele><time>2026-05-03T11:49:19.05Z</time></trkpt><trkpt lat="41.8529576" lon="13.2075622"><ele>801.0</ele><time>2026-05-03T11:49:20.053Z</time></trkpt><trkpt lat="41.8530168" lon="13.2073106"><ele>801.3333333333333</ele><time>2026-05-03T11:49:21.057Z</time></trkpt><trkpt lat="41.8530267" lon="13.2070396"><ele>801.6666666666666</ele><time>2026-05-03T11:49:22.058Z</time></trkpt><trkpt lat="41.8529945" lon="13.2067781"><ele>802.0</ele><time>2026-05-03T11:49:23.058Z</time></trkpt><trkpt lat="41.8529476" lon="13.2065438"><ele>799.0</ele><time>2026-05-03T11:49:24.077Z</time></trkpt><trkpt lat="41.8528693" lon="13.206324"><ele>796.0</ele><time>2026-05-03T11:49:25.057Z</time></trkpt><trkpt lat="41.8527559" lon="13.2061091"><ele>793.0</ele><time>2026-05-03T11:49:26.064Z</time></trkpt><trkpt lat="41.8526412" lon="13.2059155"><ele>809.0</ele><time>2026-05-03T11:49:27.056Z</time></trkpt><trkpt lat="41.8525558" lon="13.2057446"><ele>825.0</ele><time>2026-05-03T11:49:28.054Z</time></trkpt><trkpt lat="41.8525052" lon="13.2055604"><ele>841.0</ele><time>2026-05-03T11:49:29.054Z</time></trkpt><trkpt lat="41.8524988" lon="13.2053463"><ele>841.0</ele><time>2026-05-03T11:49:30.059Z</time></trkpt><trkpt lat="41.8525086" lon="13.2051152"><ele>841.0</ele><time>2026-05-03T11:49:31.056Z</time></trkpt><trkpt lat="41.8525291" lon="13.2049064"><ele>841.0</ele><time>2026-05-03T11:49:32.052Z</time></trkpt><trkpt lat="41.8525923" lon="13.2047384"><ele>841.75</ele><time>2026-05-03T11:49:33.048Z</time></trkpt><trkpt lat="41.8527129" lon="13.2046443"><ele>842.5</ele><time>2026-05-03T11:49:34.056Z</time></trkpt><trkpt lat="41.8528507" lon="13.2045782"><ele>843.25</ele><time>2026-05-03T11:49:35.062Z</time></trkpt><trkpt lat="41.8530002" lon="13.2045167"><ele>844.0</ele><time>2026-05-03T11:49:36.064Z</time></trkpt><trkpt lat="41.8531788" lon="13.2044402"><ele>844.0</ele><time>2026-05-03T11:49:37.055Z</time></trkpt><trkpt lat="41.8533652" lon="13.2043104"><ele>844.0</ele><time>2026-05-03T11:49:38.057Z</time></trkpt><trkpt lat="41.8535112" lon="13.2041282"><ele>844.0</ele><time>2026-05-03T11:49:39.06Z</time></trkpt><trkpt lat="41.8536153" lon="13.2039469"><ele>836.0</ele><time>2026-05-03T11:49:40.07Z</time></trkpt><trkpt lat="41.8536861" lon="13.2037529"><ele>828.0</ele><time>2026-05-03T11:49:41.059Z</time></trkpt><trkpt lat="41.8537248" lon="13.20355"><ele>820.0</ele><time>2026-05-03T11:49:42.06Z</time></trkpt><trkpt lat="41.8537138" lon="13.2033638"><ele>820.0</ele><time>2026-05-03T11:49:43.06Z</time></trkpt><trkpt lat="41.8536543" lon="13.2031802"><ele>820.0</ele><time>2026-05-03T11:49:44.056Z</time></trkpt><trkpt lat="41.8535725" lon="13.2029957"><ele>820.0</ele><time>2026-05-03T11:49:45.064Z</time></trkpt><trkpt lat="41.8535115" lon="13.2028324"><ele>820.0</ele><time>2026-05-03T11:49:46.062Z</time></trkpt><trkpt lat="41.8534784" lon="13.2026617"><ele>820.25</ele><time>2026-05-03T11:49:47.056Z</time></trkpt><trkpt lat="41.8534645" lon="13.202479"><ele>820.5</ele><time>2026-05-03T11:49:48.061Z</time></trkpt><trkpt lat="41.8534404" lon="13.2023376"><ele>820.75</ele><time>2026-05-03T11:49:49.065Z</time></trkpt><trkpt lat="41.8533668" lon="13.2022128"><ele>821.0</ele><time>2026-05-03T11:49:50.066Z</time></trkpt><trkpt lat="41.8532704" lon="13.2020591"><ele>830.3333333333334</ele><time>2026-05-03T11:49:51.066Z</time></trkpt><trkpt lat="41.8531875" lon="13.2018453"><ele>839.6666666666667</ele><time>2026-05-03T11:49:52.062Z</time></trkpt><trkpt lat="41.8531507" lon="13.2015833"><ele>849.0</ele><time>2026-05-03T11:49:53.062Z</time></trkpt><trkpt lat="41.853121" lon="13.2013391"><ele>849.0</ele><time>2026-05-03T11:49:54.063Z</time></trkpt><trkpt lat="41.8530901" lon="13.201122"><ele>849.0</ele><time>2026-05-03T11:49:55.066Z</time></trkpt><trkpt lat="41.8530663" lon="13.2009363"><ele>849.0</ele><time>2026-05-03T11:49:56.07Z</time></trkpt><trkpt lat="41.853044" lon="13.2007806"><ele>849.0</ele><time>2026-05-03T11:49:57.059Z</time></trkpt><trkpt lat="41.8529928" lon="13.2006375"><ele>850.2</ele><time>2026-05-03T11:49:58.06Z</time></trkpt><trkpt lat="41.8529218" lon="13.2005381"><ele>851.4000000000001</ele><time>2026-05-03T11:49:59.063Z</time></trkpt><trkpt lat="41.8528471" lon="13.2004558"><ele>852.6</ele><time>2026-05-03T11:50:00.058Z</time></trkpt><trkpt lat="41.8527801" lon="13.2003577"><ele>853.8</ele><time>2026-05-03T11:50:01.066Z</time></trkpt><trkpt lat="41.8527112" lon="13.2002402"><ele>855.0</ele><time>2026-05-03T11:50:02.059Z</time></trkpt><trkpt lat="41.8526588" lon="13.2000863"><ele>858.0</ele><time>2026-05-03T11:50:03.061Z</time></trkpt><trkpt lat="41.8526186" lon="13.1998794"><ele>861.0</ele><time>2026-05-03T11:50:04.064Z</time></trkpt><trkpt lat="41.8526211" lon="13.1996393"><ele>864.0</ele><time>2026-05-03T11:50:05.057Z</time></trkpt><trkpt lat="41.8526342" lon="13.199413"><ele>864.6666666666667</ele><time>2026-05-03T11:50:06.056Z</time></trkpt><trkpt lat="41.8526031" lon="13.1992104"><ele>865.3333333333334</ele><time>2026-05-03T11:50:07.062Z</time></trkpt><trkpt lat="41.8525277" lon="13.1989813"><ele>866.0</ele><time>2026-05-03T11:50:08.061Z</time></trkpt><trkpt lat="41.8524468" lon="13.198731"><ele>866.3333333333334</ele><time>2026-05-03T11:50:09.09Z</time></trkpt><trkpt lat="41.8523556" lon="13.1984866"><ele>866.6666666666667</ele><time>2026-05-03T11:50:10.055Z</time></trkpt><trkpt lat="41.8522621" lon="13.1982351"><ele>867.0</ele><time>2026-05-03T11:50:11.062Z</time></trkpt><trkpt lat="41.8521631" lon="13.1979949"><ele>868.0</ele><time>2026-05-03T11:50:12.053Z</time></trkpt><trkpt lat="41.8520577" lon="13.197766"><ele>869.0</ele><time>2026-05-03T11:50:13.06Z</time></trkpt><trkpt lat="41.851963" lon="13.1975667"><ele>870.0</ele><time>2026-05-03T11:50:14.063Z</time></trkpt><trkpt lat="41.8518844" lon="13.1973665"><ele>870.5</ele><time>2026-05-03T11:50:15.056Z</time></trkpt><trkpt lat="41.8518179" lon="13.1971793"><ele>871.0</ele><time>2026-05-03T11:50:16.067Z</time></trkpt><trkpt lat="41.8517363" lon="13.1970383"><ele>871.5</ele><time>2026-05-03T11:50:17.067Z</time></trkpt><trkpt lat="41.8516177" lon="13.1969649"><ele>872.0</ele><time>2026-05-03T11:50:18.059Z</time></trkpt><trkpt lat="41.8514706" lon="13.1969452"><ele>870.25</ele><time>2026-05-03T11:50:19.067Z</time></trkpt><trkpt lat="41.851319" lon="13.1969435"><ele>868.5</ele><time>2026-05-03T11:50:20.053Z</time></trkpt><trkpt lat="41.8511823" lon="13.1969346"><ele>866.75</ele><time>2026-05-03T11:50:21.056Z</time></trkpt><trkpt lat="41.8510688" lon="13.1968615"><ele>865.0</ele><time>2026-05-03T11:50:22.068Z</time></trkpt><trkpt lat="41.8509998" lon="13.1967329"><ele>863.0</ele><time>2026-05-03T11:50:23.063Z</time></trkpt><trkpt lat="41.850949" lon="13.1965639"><ele>861.0</ele><time>2026-05-03T11:50:24.063Z</time></trkpt><trkpt lat="41.8509311" lon="13.1963635"><ele>859.0</ele><time>2026-05-03T11:50:25.063Z</time></trkpt><trkpt lat="41.8509079" lon="13.1961304"><ele>858.3333333333333</ele><time>2026-05-03T11:50:26.072Z</time></trkpt><trkpt lat="41.8508299" lon="13.1959308"><ele>857.6666666666667</ele><time>2026-05-03T11:50:27.065Z</time></trkpt><trkpt lat="41.8507098" lon="13.1957531"><ele>857.0</ele><time>2026-05-03T11:50:28.065Z</time></trkpt><trkpt lat="41.8505779" lon="13.1956085"><ele>857.0</ele><time>2026-05-03T11:50:29.063Z</time></trkpt><trkpt lat="41.850437" lon="13.1954959"><ele>857.0</ele><time>2026-05-03T11:50:30.061Z</time></trkpt><trkpt lat="41.8503029" lon="13.1953891"><ele>857.0</ele><time>2026-05-03T11:50:31.061Z</time></trkpt><trkpt lat="41.8501856" lon="13.1952759"><ele>855.6666666666667</ele><time>2026-05-03T11:50:32.06Z</time></trkpt><trkpt lat="41.8500997" lon="13.1951397"><ele>854.3333333333333</ele><time>2026-05-03T11:50:33.065Z</time></trkpt><trkpt lat="41.8500345" lon="13.1949577"><ele>853.0</ele><time>2026-05-03T11:50:34.066Z</time></trkpt><trkpt lat="41.8499821" lon="13.1947204"><ele>853.0</ele><time>2026-05-03T11:50:35.059Z</time></trkpt><trkpt lat="41.8499281" lon="13.1944872"><ele>853.0</ele><time>2026-05-03T11:50:36.066Z</time></trkpt><trkpt lat="41.8498556" lon="13.1942819"><ele>853.0</ele><time>2026-05-03T11:50:37.06Z</time></trkpt><trkpt lat="41.8497983" lon="13.1940998"><ele>852.0</ele><time>2026-05-03T11:50:38.065Z</time></trkpt><trkpt lat="41.8497381" lon="13.1939413"><ele>851.0</ele><time>2026-05-03T11:50:39.056Z</time></trkpt><trkpt lat="41.8496812" lon="13.1937925"><ele>850.0</ele><time>2026-05-03T11:50:40.062Z</time></trkpt><trkpt lat="41.8496324" lon="13.1936504"><ele>849.0</ele><time>2026-05-03T11:50:41.065Z</time></trkpt><trkpt lat="41.8495806" lon="13.1935087"><ele>849.0</ele><time>2026-05-03T11:50:42.066Z</time></trkpt><trkpt lat="41.8495263" lon="13.1933774"><ele>849.0</ele><time>2026-05-03T11:50:43.108Z</time></trkpt><trkpt lat="41.8494763" lon="13.1932607"><ele>849.0</ele><time>2026-05-03T11:50:44.064Z</time></trkpt><trkpt lat="41.8494323" lon="13.1931561"><ele>849.0</ele><time>2026-05-03T11:50:45.061Z</time></trkpt><trkpt lat="41.8494067" lon="13.1930718"><ele>849.0</ele><time>2026-05-03T11:50:46.058Z</time></trkpt><trkpt lat="41.8494085" lon="13.1929656"><ele>849.0</ele><time>2026-05-03T11:50:47.062Z</time></trkpt><trkpt lat="41.8494144" lon="13.1928361"><ele>849.25</ele><time>2026-05-03T11:50:48.065Z</time></trkpt><trkpt lat="41.8494319" lon="13.1926924"><ele>849.5</ele><time>2026-05-03T11:50:49.08Z</time></trkpt><trkpt lat="41.8494533" lon="13.1925185"><ele>849.75</ele><time>2026-05-03T11:50:50.066Z</time></trkpt><trkpt lat="41.8494859" lon="13.1923347"><ele>850.0</ele><time>2026-05-03T11:50:51.065Z</time></trkpt><trkpt lat="41.8495109" lon="13.1921708"><ele>849.5</ele><time>2026-05-03T11:50:52.058Z</time></trkpt><trkpt lat="41.8495373" lon="13.1920059"><ele>849.0</ele><time>2026-05-03T11:50:53.061Z</time></trkpt><trkpt lat="41.8495664" lon="13.1918349"><ele>848.5</ele><time>2026-05-03T11:50:54.061Z</time></trkpt><trkpt lat="41.8495932" lon="13.1916662"><ele>848.0</ele><time>2026-05-03T11:50:55.059Z</time></trkpt><trkpt lat="41.8496208" lon="13.1915084"><ele>847.25</ele><time>2026-05-03T11:50:56.063Z</time></trkpt><trkpt lat="41.8496448" lon="13.1913506"><ele>846.5</ele><time>2026-05-03T11:50:57.067Z</time></trkpt><trkpt lat="41.8496638" lon="13.1912019"><ele>845.75</ele><time>2026-05-03T11:50:58.059Z</time></trkpt><trkpt lat="41.8496855" lon="13.1910504"><ele>845.0</ele><time>2026-05-03T11:50:59.072Z</time></trkpt><trkpt lat="41.8497053" lon="13.1909102"><ele>845.0000000000001</ele><time>2026-05-03T11:51:00.061Z</time></trkpt><trkpt lat="41.8497248" lon="13.1907826"><ele>845.0</ele><time>2026-05-03T11:51:01.069Z</time></trkpt><trkpt lat="41.8497399" lon="13.190655"><ele>845.0</ele><time>2026-05-03T11:51:02.065Z</time></trkpt><trkpt lat="41.8497605" lon="13.1905335"><ele>845.0</ele><time>2026-05-03T11:51:03.058Z</time></trkpt><trkpt lat="41.849775" lon="13.1904242"><ele>845.0000000000001</ele><time>2026-05-03T11:51:04.073Z</time></trkpt><trkpt lat="41.8497843" lon="13.1903347"><ele>845.0</ele><time>2026-05-03T11:51:05.068Z</time></trkpt><trkpt lat="41.8497461" lon="13.1902419"><ele>845.4</ele><time>2026-05-03T11:51:07.099Z</time></trkpt><trkpt lat="41.8496909" lon="13.1901671"><ele>845.8</ele><time>2026-05-03T11:51:13.06Z</time></trkpt><trkpt lat="41.8496372" lon="13.1900876"><ele>846.2</ele><time>2026-05-03T11:51:14.058Z</time></trkpt><trkpt lat="41.8495655" lon="13.18998"><ele>846.6</ele><time>2026-05-03T11:51:15.072Z</time></trkpt><trkpt lat="41.8494658" lon="13.1898686"><ele>847.0</ele><time>2026-05-03T11:51:16.065Z</time></trkpt><trkpt lat="41.849374" lon="13.1897104"><ele>846.75</ele><time>2026-05-03T11:51:17.068Z</time></trkpt><trkpt lat="41.8492803" lon="13.1895524"><ele>846.5</ele><time>2026-05-03T11:51:18.068Z</time></trkpt><trkpt lat="41.8491767" lon="13.1893986"><ele>846.25</ele><time>2026-05-03T11:51:19.066Z</time></trkpt><trkpt lat="41.8490759" lon="13.1892666"><ele>846.0</ele><time>2026-05-03T11:51:20.067Z</time></trkpt><trkpt lat="41.8489586" lon="13.1891489"><ele>846.0</ele><time>2026-05-03T11:51:21.088Z</time></trkpt><trkpt lat="41.8488302" lon="13.1890527"><ele>846.0</ele><time>2026-05-03T11:51:22.063Z</time></trkpt><trkpt lat="41.848715" lon="13.1889449"><ele>846.0</ele><time>2026-05-03T11:51:23.069Z</time></trkpt><trkpt lat="41.8486051" lon="13.1888017"><ele>846.0</ele><time>2026-05-03T11:51:24.07Z</time></trkpt><trkpt lat="41.8485091" lon="13.1886282"><ele>846.3333333333333</ele><time>2026-05-03T11:51:25.065Z</time></trkpt><trkpt lat="41.8484289" lon="13.1884403"><ele>846.6666666666666</ele><time>2026-05-03T11:51:26.068Z</time></trkpt><trkpt lat="41.8483498" lon="13.1882564"><ele>847.0</ele><time>2026-05-03T11:51:27.062Z</time></trkpt><trkpt lat="41.8482754" lon="13.1880651"><ele>847.0</ele><time>2026-05-03T11:51:28.088Z</time></trkpt><trkpt lat="41.848195" lon="13.1878745"><ele>847.0</ele><time>2026-05-03T11:51:29.066Z</time></trkpt><trkpt lat="41.8480884" lon="13.1876951"><ele>847.0</ele><time>2026-05-03T11:51:30.065Z</time></trkpt><trkpt lat="41.8479693" lon="13.1875304"><ele>847.0</ele><time>2026-05-03T11:51:31.059Z</time></trkpt><trkpt lat="41.8478427" lon="13.1873664"><ele>847.0</ele><time>2026-05-03T11:51:32.065Z</time></trkpt><trkpt lat="41.8477099" lon="13.1871916"><ele>847.0</ele><time>2026-05-03T11:51:33.069Z</time></trkpt><trkpt lat="41.8475813" lon="13.1870235"><ele>848.6666666666666</ele><time>2026-05-03T11:51:34.065Z</time></trkpt><trkpt lat="41.8474449" lon="13.1868588"><ele>850.3333333333333</ele><time>2026-05-03T11:51:35.062Z</time></trkpt><trkpt lat="41.8473047" lon="13.1866889"><ele>852.0</ele><time>2026-05-03T11:51:36.067Z</time></trkpt><trkpt lat="41.8471691" lon="13.1865215"><ele>851.6666666666667</ele><time>2026-05-03T11:51:37.071Z</time></trkpt><trkpt lat="41.8470334" lon="13.1863515"><ele>851.3333333333334</ele><time>2026-05-03T11:51:38.086Z</time></trkpt><trkpt lat="41.8468978" lon="13.1861838"><ele>851.0</ele><time>2026-05-03T11:51:39.066Z</time></trkpt><trkpt lat="41.8467621" lon="13.186013"><ele>851.0</ele><time>2026-05-03T11:51:40.078Z</time></trkpt><trkpt lat="41.8466354" lon="13.1858377"><ele>851.0</ele><time>2026-05-03T11:51:41.067Z</time></trkpt><trkpt lat="41.8465149" lon="13.1856871"><ele>851.0</ele><time>2026-05-03T11:51:42.063Z</time></trkpt><trkpt lat="41.8463968" lon="13.1855493"><ele>850.6666666666667</ele><time>2026-05-03T11:51:43.059Z</time></trkpt><trkpt lat="41.8462708" lon="13.1854384"><ele>850.3333333333333</ele><time>2026-05-03T11:51:44.054Z</time></trkpt><trkpt lat="41.8461311" lon="13.1853793"><ele>850.0</ele><time>2026-05-03T11:51:45.058Z</time></trkpt><trkpt lat="41.8459732" lon="13.1853706"><ele>849.0</ele><time>2026-05-03T11:51:46.07Z</time></trkpt><trkpt lat="41.8458083" lon="13.1854041"><ele>848.0</ele><time>2026-05-03T11:51:47.057Z</time></trkpt><trkpt lat="41.8456565" lon="13.1854663"><ele>847.0</ele><time>2026-05-03T11:51:48.063Z</time></trkpt><trkpt lat="41.8455117" lon="13.185565"><ele>847.6666666666666</ele><time>2026-05-03T11:51:49.085Z</time></trkpt><trkpt lat="41.845373" lon="13.1856991"><ele>848.3333333333333</ele><time>2026-05-03T11:51:50.103Z</time></trkpt><trkpt lat="41.8452339" lon="13.185873"><ele>849.0</ele><time>2026-05-03T11:51:51.083Z</time></trkpt><trkpt lat="41.8450897" lon="13.186062"><ele>849.3333333333333</ele><time>2026-05-03T11:51:52.065Z</time></trkpt><trkpt lat="41.8449705" lon="13.1862506"><ele>849.6666666666666</ele><time>2026-05-03T11:51:53.061Z</time></trkpt><trkpt lat="41.8448659" lon="13.1864143"><ele>850.0</ele><time>2026-05-03T11:51:54.073Z</time></trkpt><trkpt lat="41.8447774" lon="13.1865525"><ele>849.6</ele><time>2026-05-03T11:51:55.09Z</time></trkpt><trkpt lat="41.8446857" lon="13.1866692"><ele>849.2</ele><time>2026-05-03T11:51:56.071Z</time></trkpt><trkpt lat="41.8445926" lon="13.1867316"><ele>848.8</ele><time>2026-05-03T11:51:57.065Z</time></trkpt><trkpt lat="41.8444906" lon="13.1867343"><ele>848.4</ele><time>2026-05-03T11:51:58.068Z</time></trkpt><trkpt lat="41.8443904" lon="13.1867019"><ele>848.0</ele><time>2026-05-03T11:51:59.065Z</time></trkpt><trkpt lat="41.8443169" lon="13.1866143"><ele>849.75</ele><time>2026-05-03T11:52:00.062Z</time></trkpt><trkpt lat="41.844262" lon="13.1864712"><ele>851.5</ele><time>2026-05-03T11:52:01.064Z</time></trkpt><trkpt lat="41.8442393" lon="13.186333"><ele>853.25</ele><time>2026-05-03T11:52:02.059Z</time></trkpt><trkpt lat="41.8442529" lon="13.1861743"><ele>855.0</ele><time>2026-05-03T11:52:03.061Z</time></trkpt><trkpt lat="41.8442928" lon="13.1860217"><ele>853.75</ele><time>2026-05-03T11:52:04.069Z</time></trkpt><trkpt lat="41.8443282" lon="13.1858687"><ele>852.5</ele><time>2026-05-03T11:52:05.071Z</time></trkpt><trkpt lat="41.8443593" lon="13.1856965"><ele>851.25</ele><time>2026-05-03T11:52:06.071Z</time></trkpt><trkpt lat="41.844369" lon="13.1855252"><ele>850.0</ele><time>2026-05-03T11:52:07.066Z</time></trkpt><trkpt lat="41.8443355" lon="13.185358"><ele>851.3333333333333</ele><time>2026-05-03T11:52:08.072Z</time></trkpt><trkpt lat="41.8442322" lon="13.1851833"><ele>852.6666666666667</ele><time>2026-05-03T11:52:09.059Z</time></trkpt><trkpt lat="41.8441006" lon="13.1850106"><ele>854.0</ele><time>2026-05-03T11:52:10.084Z</time></trkpt><trkpt lat="41.8438364" lon="13.1846182"><ele>854.0</ele><time>2026-05-03T11:52:12.108Z</time></trkpt><trkpt lat="41.84371" lon="13.1844254"><ele>854.0</ele><time>2026-05-03T11:52:13.096Z</time></trkpt><trkpt lat="41.8434629" lon="13.1840614"><ele>857.0</ele><time>2026-05-03T11:52:15.061Z</time></trkpt><trkpt lat="41.8433482" lon="13.1838756"><ele>860.0</ele><time>2026-05-03T11:52:16.061Z</time></trkpt><trkpt lat="41.8432665" lon="13.1836791"><ele>863.0</ele><time>2026-05-03T11:52:17.086Z</time></trkpt><trkpt lat="41.843224" lon="13.183465"><ele>863.0</ele><time>2026-05-03T11:52:18.062Z</time></trkpt><trkpt lat="41.8431816" lon="13.1832141"><ele>863.0</ele><time>2026-05-03T11:52:19.075Z</time></trkpt><trkpt lat="41.8430926" lon="13.1829695"><ele>863.0</ele><time>2026-05-03T11:52:20.084Z</time></trkpt><trkpt lat="41.8429774" lon="13.1827369"><ele>865.0</ele><time>2026-05-03T11:52:21.097Z</time></trkpt><trkpt lat="41.8428888" lon="13.1825109"><ele>867.0</ele><time>2026-05-03T11:52:22.084Z</time></trkpt><trkpt lat="41.8428481" lon="13.1822954"><ele>869.0</ele><time>2026-05-03T11:52:23.113Z</time></trkpt><trkpt lat="41.842812" lon="13.1820516"><ele>869.6666666666667</ele><time>2026-05-03T11:52:24.095Z</time></trkpt><trkpt lat="41.8427736" lon="13.1817828"><ele>870.3333333333333</ele><time>2026-05-03T11:52:25.085Z</time></trkpt><trkpt lat="41.8427397" lon="13.1814936"><ele>871.0</ele><time>2026-05-03T11:52:26.08Z</time></trkpt><trkpt lat="41.8426897" lon="13.1812145"><ele>870.6666666666666</ele><time>2026-05-03T11:52:27.11Z</time></trkpt><trkpt lat="41.8426205" lon="13.1809459"><ele>870.3333333333333</ele><time>2026-05-03T11:52:28.064Z</time></trkpt><trkpt lat="41.8425448" lon="13.1806894"><ele>870.0</ele><time>2026-05-03T11:52:29.095Z</time></trkpt><trkpt lat="41.8424668" lon="13.1804284"><ele>870.0</ele><time>2026-05-03T11:52:30.069Z</time></trkpt><trkpt lat="41.8423924" lon="13.180192"><ele>870.0</ele><time>2026-05-03T11:52:31.088Z</time></trkpt><trkpt lat="41.8423131" lon="13.1799758"><ele>870.0</ele><time>2026-05-03T11:52:32.075Z</time></trkpt><trkpt lat="41.8422261" lon="13.1797868"><ele>871.0</ele><time>2026-05-03T11:52:33.073Z</time></trkpt><trkpt lat="41.8421166" lon="13.1796245"><ele>872.0</ele><time>2026-05-03T11:52:34.065Z</time></trkpt><trkpt lat="41.8419993" lon="13.1794699"><ele>873.0</ele><time>2026-05-03T11:52:35.08Z</time></trkpt><trkpt lat="41.8418889" lon="13.1793278"><ele>873.0</ele><time>2026-05-03T11:52:36.053Z</time></trkpt><trkpt lat="41.8418038" lon="13.1791114"><ele>873.0</ele><time>2026-05-03T11:52:37.059Z</time></trkpt><trkpt lat="41.8417222" lon="13.178869"><ele>873.0</ele><time>2026-05-03T11:52:38.059Z</time></trkpt><trkpt lat="41.8415887" lon="13.1786602"><ele>872.0</ele><time>2026-05-03T11:52:39.062Z</time></trkpt><trkpt lat="41.8414516" lon="13.1784591"><ele>871.0</ele><time>2026-05-03T11:52:40.079Z</time></trkpt><trkpt lat="41.8412997" lon="13.1782754"><ele>870.0</ele><time>2026-05-03T11:52:41.089Z</time></trkpt><trkpt lat="41.8411307" lon="13.1781127"><ele>872.0</ele><time>2026-05-03T11:52:42.094Z</time></trkpt><trkpt lat="41.8409438" lon="13.1779941"><ele>874.0</ele><time>2026-05-03T11:52:43.067Z</time></trkpt><trkpt lat="41.8407522" lon="13.1779075"><ele>876.0</ele><time>2026-05-03T11:52:44.09Z</time></trkpt><trkpt lat="41.8405543" lon="13.1778564"><ele>876.0</ele><time>2026-05-03T11:52:45.071Z</time></trkpt><trkpt lat="41.8403483" lon="13.1778578"><ele>876.0</ele><time>2026-05-03T11:52:46.115Z</time></trkpt><trkpt lat="41.8401304" lon="13.1778884"><ele>876.0</ele><time>2026-05-03T11:52:47.082Z</time></trkpt><trkpt lat="41.8399227" lon="13.1779298"><ele>880.3333333333333</ele><time>2026-05-03T11:52:48.116Z</time></trkpt><trkpt lat="41.8397274" lon="13.1779554"><ele>884.6666666666666</ele><time>2026-05-03T11:52:49.089Z</time></trkpt><trkpt lat="41.8395677" lon="13.177937"><ele>889.0</ele><time>2026-05-03T11:52:50.098Z</time></trkpt><trkpt lat="41.8394273" lon="13.177932"><ele>889.0</ele><time>2026-05-03T11:52:51.055Z</time></trkpt><trkpt lat="41.8393027" lon="13.1779389"><ele>889.0</ele><time>2026-05-03T11:52:52.045Z</time></trkpt><trkpt lat="41.8391858" lon="13.1779908"><ele>889.0</ele><time>2026-05-03T11:52:53.049Z</time></trkpt><trkpt lat="41.839058" lon="13.178094"><ele>889.0</ele><time>2026-05-03T11:52:54.047Z</time></trkpt><trkpt lat="41.838918" lon="13.1782238"><ele>892.3333333333333</ele><time>2026-05-03T11:52:55.056Z</time></trkpt><trkpt lat="41.8387632" lon="13.178359"><ele>895.6666666666667</ele><time>2026-05-03T11:52:56.097Z</time></trkpt><trkpt lat="41.8385892" lon="13.1784917"><ele>899.0</ele><time>2026-05-03T11:52:57.061Z</time></trkpt><trkpt lat="41.8384053" lon="13.1786423"><ele>902.0</ele><time>2026-05-03T11:52:58.094Z</time></trkpt><trkpt lat="41.8382295" lon="13.1787852"><ele>905.0</ele><time>2026-05-03T11:52:59.114Z</time></trkpt><trkpt lat="41.8380728" lon="13.1789214"><ele>908.0</ele><time>2026-05-03T11:53:00.055Z</time></trkpt><trkpt lat="41.8379404" lon="13.1790793"><ele>908.0</ele><time>2026-05-03T11:53:01.054Z</time></trkpt><trkpt lat="41.8378199" lon="13.1792855"><ele>908.0</ele><time>2026-05-03T11:53:02.099Z</time></trkpt><trkpt lat="41.8376964" lon="13.1795103"><ele>908.0</ele><time>2026-05-03T11:53:03.094Z</time></trkpt><trkpt lat="41.837583" lon="13.1796901"><ele>911.3333333333334</ele><time>2026-05-03T11:53:04.085Z</time></trkpt><trkpt lat="41.8374606" lon="13.1798322"><ele>914.6666666666667</ele><time>2026-05-03T11:53:05.078Z</time></trkpt><trkpt lat="41.8373278" lon="13.1799293"><ele>918.0</ele><time>2026-05-03T11:53:06.101Z</time></trkpt><trkpt lat="41.8371971" lon="13.1799967"><ele>918.0</ele><time>2026-05-03T11:53:07.075Z</time></trkpt><trkpt lat="41.8370617" lon="13.1800418"><ele>918.0</ele><time>2026-05-03T11:53:08.057Z</time></trkpt><trkpt lat="41.83692" lon="13.1800736"><ele>918.0</ele><time>2026-05-03T11:53:09.072Z</time></trkpt><trkpt lat="41.8367772" lon="13.1801011"><ele>918.0</ele><time>2026-05-03T11:53:10.056Z</time></trkpt><trkpt lat="41.8366439" lon="13.1801184"><ele>920.0</ele><time>2026-05-03T11:53:11.046Z</time></trkpt><trkpt lat="41.8365201" lon="13.1801184"><ele>922.0</ele><time>2026-05-03T11:53:12.045Z</time></trkpt><trkpt lat="41.8363984" lon="13.180097"><ele>924.0</ele><time>2026-05-03T11:53:13.046Z</time></trkpt><trkpt lat="41.8362759" lon="13.1800469"><ele>926.0</ele><time>2026-05-03T11:53:14.047Z</time></trkpt><trkpt lat="41.8361368" lon="13.1799874"><ele>926.0</ele><time>2026-05-03T11:53:15.049Z</time></trkpt><trkpt lat="41.835999" lon="13.1799183"><ele>926.0</ele><time>2026-05-03T11:53:16.062Z</time></trkpt><trkpt lat="41.8358621" lon="13.1798312"><ele>926.0</ele><time>2026-05-03T11:53:17.052Z</time></trkpt><trkpt lat="41.8357422" lon="13.1797414"><ele>926.0</ele><time>2026-05-03T11:53:18.049Z</time></trkpt><trkpt lat="41.8356187" lon="13.1796703"><ele>926.75</ele><time>2026-05-03T11:53:19.045Z</time></trkpt><trkpt lat="41.8354901" lon="13.179625"><ele>927.5</ele><time>2026-05-03T11:53:20.058Z</time></trkpt><trkpt lat="41.8353604" lon="13.1795894"><ele>928.25</ele><time>2026-05-03T11:53:21.048Z</time></trkpt><trkpt lat="41.8352244" lon="13.1795616"><ele>929.0</ele><time>2026-05-03T11:53:22.048Z</time></trkpt><trkpt lat="41.8351076" lon="13.1795277"><ele>929.0</ele><time>2026-05-03T11:53:23.05Z</time></trkpt><trkpt lat="41.8349988" lon="13.1794942"><ele>929.0</ele><time>2026-05-03T11:53:24.047Z</time></trkpt><trkpt lat="41.8348847" lon="13.1794718"><ele>929.0</ele><time>2026-05-03T11:53:25.055Z</time></trkpt><trkpt lat="41.8347751" lon="13.1794991"><ele>929.0</ele><time>2026-05-03T11:53:26.048Z</time></trkpt><trkpt lat="41.8346776" lon="13.1795771"><ele>929.0</ele><time>2026-05-03T11:53:27.046Z</time></trkpt><trkpt lat="41.8345974" lon="13.1796717"><ele>929.0000000000001</ele><time>2026-05-03T11:53:28.056Z</time></trkpt><trkpt lat="41.834549" lon="13.1797931"><ele>929.0000000000001</ele><time>2026-05-03T11:53:29.054Z</time></trkpt><trkpt lat="41.8345169" lon="13.1799232"><ele>929.0</ele><time>2026-05-03T11:53:30.052Z</time></trkpt><trkpt lat="41.8344724" lon="13.1800429"><ele>929.0</ele><time>2026-05-03T11:53:31.05Z</time></trkpt><trkpt lat="41.8344214" lon="13.1801651"><ele>930.25</ele><time>2026-05-03T11:53:32.049Z</time></trkpt><trkpt lat="41.8343567" lon="13.180278"><ele>931.5</ele><time>2026-05-03T11:53:33.048Z</time></trkpt><trkpt lat="41.8342648" lon="13.1803834"><ele>932.75</ele><time>2026-05-03T11:53:34.053Z</time></trkpt><trkpt lat="41.8341678" lon="13.1804903"><ele>934.0</ele><time>2026-05-03T11:53:35.05Z</time></trkpt><trkpt lat="41.834089" lon="13.1806083"><ele>933.0</ele><time>2026-05-03T11:53:36.051Z</time></trkpt><trkpt lat="41.8340245" lon="13.1807332"><ele>932.0000000000001</ele><time>2026-05-03T11:53:37.047Z</time></trkpt><trkpt lat="41.8339571" lon="13.180839"><ele>931.0000000000001</ele><time>2026-05-03T11:53:38.055Z</time></trkpt><trkpt lat="41.8338756" lon="13.1809301"><ele>930.0</ele><time>2026-05-03T11:53:39.05Z</time></trkpt><trkpt lat="41.8337792" lon="13.1809883"><ele>929.0</ele><time>2026-05-03T11:53:40.051Z</time></trkpt><trkpt lat="41.8336711" lon="13.1809852"><ele>929.0</ele><time>2026-05-03T11:53:41.076Z</time></trkpt><trkpt lat="41.8335702" lon="13.1809339"><ele>929.0</ele><time>2026-05-03T11:53:42.049Z</time></trkpt><trkpt lat="41.8334719" lon="13.1808749"><ele>929.0</ele><time>2026-05-03T11:53:43.048Z</time></trkpt><trkpt lat="41.8333506" lon="13.180824"><ele>929.0</ele><time>2026-05-03T11:53:44.052Z</time></trkpt><trkpt lat="41.8332268" lon="13.1807987"><ele>930.75</ele><time>2026-05-03T11:53:45.047Z</time></trkpt><trkpt lat="41.8330993" lon="13.1807954"><ele>932.5</ele><time>2026-05-03T11:53:46.084Z</time></trkpt><trkpt lat="41.8329623" lon="13.1808252"><ele>934.25</ele><time>2026-05-03T11:53:47.073Z</time></trkpt><trkpt lat="41.8328266" lon="13.1808587"><ele>936.0</ele><time>2026-05-03T11:53:48.051Z</time></trkpt><trkpt lat="41.832699" lon="13.1809039"><ele>937.25</ele><time>2026-05-03T11:53:49.053Z</time></trkpt><trkpt lat="41.8325883" lon="13.1809654"><ele>938.5</ele><time>2026-05-03T11:53:50.048Z</time></trkpt><trkpt lat="41.8324786" lon="13.1810215"><ele>939.75</ele><time>2026-05-03T11:53:51.067Z</time></trkpt><trkpt lat="41.8323573" lon="13.1810527"><ele>941.0</ele><time>2026-05-03T11:53:52.084Z</time></trkpt><trkpt lat="41.8322298" lon="13.181057"><ele>941.0</ele><time>2026-05-03T11:53:53.091Z</time></trkpt><trkpt lat="41.8320998" lon="13.1810472"><ele>941.0</ele><time>2026-05-03T11:53:54.103Z</time></trkpt><trkpt lat="41.8319797" lon="13.1810364"><ele>941.0</ele><time>2026-05-03T11:53:55.084Z</time></trkpt><trkpt lat="41.8318716" lon="13.1810084"><ele>941.0</ele><time>2026-05-03T11:53:56.069Z</time></trkpt><trkpt lat="41.8317674" lon="13.1809467"><ele>941.25</ele><time>2026-05-03T11:53:57.081Z</time></trkpt><trkpt lat="41.8316787" lon="13.1808527"><ele>941.5</ele><time>2026-05-03T11:53:58.047Z</time></trkpt><trkpt lat="41.8315915" lon="13.1807519"><ele>941.75</ele><time>2026-05-03T11:53:59.098Z</time></trkpt><trkpt lat="41.8314619" lon="13.1806663"><ele>942.0</ele><time>2026-05-03T11:54:00.061Z</time></trkpt><trkpt lat="41.831282" lon="13.1805911"><ele>942.0</ele><time>2026-05-03T11:54:01.085Z</time></trkpt><trkpt lat="41.8311072" lon="13.1805272"><ele>942.0</ele><time>2026-05-03T11:54:02.097Z</time></trkpt><trkpt lat="41.8309452" lon="13.1804468"><ele>942.0</ele><time>2026-05-03T11:54:03.081Z</time></trkpt><trkpt lat="41.830831" lon="13.1803565"><ele>942.0</ele><time>2026-05-03T11:54:04.095Z</time></trkpt><trkpt lat="41.8307253" lon="13.1801915"><ele>942.0</ele><time>2026-05-03T11:54:05.071Z</time></trkpt><trkpt lat="41.8306418" lon="13.1799463"><ele>942.0</ele><time>2026-05-03T11:54:06.089Z</time></trkpt><trkpt lat="41.8305476" lon="13.1796976"><ele>943.3333333333333</ele><time>2026-05-03T11:54:07.085Z</time></trkpt><trkpt lat="41.8304557" lon="13.1794545"><ele>944.6666666666666</ele><time>2026-05-03T11:54:08.095Z</time></trkpt><trkpt lat="41.8303576" lon="13.1792195"><ele>946.0</ele><time>2026-05-03T11:54:09.107Z</time></trkpt><trkpt lat="41.8302744" lon="13.1789917"><ele>946.6666666666666</ele><time>2026-05-03T11:54:10.11Z</time></trkpt><trkpt lat="41.830172" lon="13.1787764"><ele>947.3333333333333</ele><time>2026-05-03T11:54:11.076Z</time></trkpt><trkpt lat="41.8300469" lon="13.1785747"><ele>948.0</ele><time>2026-05-03T11:54:12.093Z</time></trkpt><trkpt lat="41.8299107" lon="13.178401"><ele>947.0</ele><time>2026-05-03T11:54:13.11Z</time></trkpt><trkpt lat="41.829775" lon="13.1782432"><ele>946.0</ele><time>2026-05-03T11:54:14.118Z</time></trkpt><trkpt lat="41.8296409" lon="13.1780971"><ele>945.0</ele><time>2026-05-03T11:54:15.075Z</time></trkpt><trkpt lat="41.8295315" lon="13.1779538"><ele>945.0</ele><time>2026-05-03T11:54:16.069Z</time></trkpt><trkpt lat="41.8294473" lon="13.1777707"><ele>945.0</ele><time>2026-05-03T11:54:17.104Z</time></trkpt><trkpt lat="41.8293865" lon="13.1775678"><ele>945.0</ele><time>2026-05-03T11:54:18.114Z</time></trkpt><trkpt lat="41.8293405" lon="13.1773548"><ele>945.3333333333333</ele><time>2026-05-03T11:54:19.119Z</time></trkpt><trkpt lat="41.8293105" lon="13.1771489"><ele>945.6666666666666</ele><time>2026-05-03T11:54:20.083Z</time></trkpt><trkpt lat="41.829315" lon="13.1769317"><ele>946.0</ele><time>2026-05-03T11:54:21.077Z</time></trkpt><trkpt lat="41.8293494" lon="13.1766894"><ele>943.6666666666666</ele><time>2026-05-03T11:54:22.097Z</time></trkpt><trkpt lat="41.8293795" lon="13.1764336"><ele>941.3333333333333</ele><time>2026-05-03T11:54:23.11Z</time></trkpt><trkpt lat="41.8293889" lon="13.1761946"><ele>939.0</ele><time>2026-05-03T11:54:24.097Z</time></trkpt><trkpt lat="41.8294039" lon="13.1759729"><ele>939.0</ele><time>2026-05-03T11:54:25.087Z</time></trkpt><trkpt lat="41.8294358" lon="13.1757765"><ele>939.0</ele><time>2026-05-03T11:54:26.095Z</time></trkpt><trkpt lat="41.8294965" lon="13.1756245"><ele>939.0</ele><time>2026-05-03T11:54:27.095Z</time></trkpt><trkpt lat="41.8295696" lon="13.1754969"><ele>939.0</ele><time>2026-05-03T11:54:28.082Z</time></trkpt><trkpt lat="41.8296711" lon="13.1754322"><ele>937.4000000000001</ele><time>2026-05-03T11:54:29.096Z</time></trkpt><trkpt lat="41.8297859" lon="13.1754159"><ele>935.8000000000001</ele><time>2026-05-03T11:54:30.098Z</time></trkpt><trkpt lat="41.8298853" lon="13.1753662"><ele>934.1999999999999</ele><time>2026-05-03T11:54:31.092Z</time></trkpt><trkpt lat="41.8299311" lon="13.1752683"><ele>932.5999999999999</ele><time>2026-05-03T11:54:32.109Z</time></trkpt><trkpt lat="41.8299332" lon="13.1751377"><ele>931.0</ele><time>2026-05-03T11:54:33.099Z</time></trkpt><trkpt lat="41.8298894" lon="13.1750016"><ele>930.6666666666666</ele><time>2026-05-03T11:54:34.099Z</time></trkpt><trkpt lat="41.8298128" lon="13.1748483"><ele>930.3333333333333</ele><time>2026-05-03T11:54:35.113Z</time></trkpt><trkpt lat="41.8297366" lon="13.1746499"><ele>930.0</ele><time>2026-05-03T11:54:36.085Z</time></trkpt><trkpt lat="41.8296847" lon="13.1743908"><ele>930.0</ele><time>2026-05-03T11:54:37.102Z</time></trkpt><trkpt lat="41.8296394" lon="13.1741403"><ele>930.0</ele><time>2026-05-03T11:54:38.083Z</time></trkpt><trkpt lat="41.8295753" lon="13.1738839"><ele>930.0</ele><time>2026-05-03T11:54:39.105Z</time></trkpt><trkpt lat="41.8294853" lon="13.1736323"><ele>927.6666666666667</ele><time>2026-05-03T11:54:40.106Z</time></trkpt><trkpt lat="41.8293876" lon="13.1733732"><ele>925.3333333333334</ele><time>2026-05-03T11:54:41.111Z</time></trkpt><trkpt lat="41.8293063" lon="13.1731273"><ele>923.0</ele><time>2026-05-03T11:54:42.067Z</time></trkpt><trkpt lat="41.8292551" lon="13.1729143"><ele>921.0</ele><time>2026-05-03T11:54:43.061Z</time></trkpt><trkpt lat="41.829228" lon="13.1727245"><ele>919.0</ele><time>2026-05-03T11:54:44.076Z</time></trkpt><trkpt lat="41.8292285" lon="13.1725632"><ele>917.0</ele><time>2026-05-03T11:54:45.093Z</time></trkpt><trkpt lat="41.8292546" lon="13.1724209"><ele>915.0</ele><time>2026-05-03T11:54:46.07Z</time></trkpt><trkpt lat="41.8293126" lon="13.1723203"><ele>915.0</ele><time>2026-05-03T11:54:47.095Z</time></trkpt><trkpt lat="41.8293879" lon="13.1722719"><ele>915.0</ele><time>2026-05-03T11:54:48.067Z</time></trkpt><trkpt lat="41.8294858" lon="13.1722512"><ele>915.0</ele><time>2026-05-03T11:54:49.104Z</time></trkpt><trkpt lat="41.8295762" lon="13.1722303"><ele>915.0</ele><time>2026-05-03T11:54:50.061Z</time></trkpt><trkpt lat="41.829638" lon="13.1721885"><ele>915.0</ele><time>2026-05-03T11:54:51.088Z</time></trkpt><trkpt lat="41.8296763" lon="13.1721175"><ele>915.0</ele><time>2026-05-03T11:54:52.108Z</time></trkpt><trkpt lat="41.8296987" lon="13.1720152"><ele>915.0</ele><time>2026-05-03T11:54:53.077Z</time></trkpt><trkpt lat="41.8296998" lon="13.1718965"><ele>915.0</ele><time>2026-05-03T11:54:54.103Z</time></trkpt><trkpt lat="41.829667" lon="13.1717882"><ele>915.0</ele><time>2026-05-03T11:54:55.072Z</time></trkpt><trkpt lat="41.8295824" lon="13.1717238"><ele>915.0</ele><time>2026-05-03T11:54:56.095Z</time></trkpt><trkpt lat="41.8294846" lon="13.1716706"><ele>915.0</ele><time>2026-05-03T11:54:57.076Z</time></trkpt><trkpt lat="41.8293889" lon="13.171625"><ele>915.0</ele><time>2026-05-03T11:54:58.091Z</time></trkpt><trkpt lat="41.8293176" lon="13.1715914"><ele>915.0</ele><time>2026-05-03T11:54:59.114Z</time></trkpt><trkpt lat="41.8292489" lon="13.1715531"><ele>915.0</ele><time>2026-05-03T11:55:00.086Z</time></trkpt><trkpt lat="41.8291751" lon="13.1715122"><ele>915.0</ele><time>2026-05-03T11:55:01.067Z</time></trkpt><trkpt lat="41.8290908" lon="13.171464"><ele>915.0</ele><time>2026-05-03T11:55:02.097Z</time></trkpt><trkpt lat="41.8289715" lon="13.1713963"><ele>913.75</ele><time>2026-05-03T11:55:03.111Z</time></trkpt><trkpt lat="41.8288581" lon="13.1713267"><ele>912.5</ele><time>2026-05-03T11:55:04.098Z</time></trkpt><trkpt lat="41.8287439" lon="13.1712234"><ele>911.25</ele><time>2026-05-03T11:55:05.091Z</time></trkpt><trkpt lat="41.8286359" lon="13.1710937"><ele>910.0</ele><time>2026-05-03T11:55:06.073Z</time></trkpt><trkpt lat="41.828544" lon="13.1709195"><ele>906.6666666666666</ele><time>2026-05-03T11:55:07.078Z</time></trkpt><trkpt lat="41.8284598" lon="13.1707283"><ele>903.3333333333333</ele><time>2026-05-03T11:55:08.103Z</time></trkpt><trkpt lat="41.8283981" lon="13.1704996"><ele>900.0</ele><time>2026-05-03T11:55:09.085Z</time></trkpt><trkpt lat="41.8283493" lon="13.170269"><ele>899.6666666666667</ele><time>2026-05-03T11:55:10.107Z</time></trkpt><trkpt lat="41.8283054" lon="13.1700217"><ele>899.3333333333334</ele><time>2026-05-03T11:55:11.088Z</time></trkpt><trkpt lat="41.8282761" lon="13.1697577"><ele>899.0</ele><time>2026-05-03T11:55:12.099Z</time></trkpt><trkpt lat="41.8282628" lon="13.1694802"><ele>898.6666666666667</ele><time>2026-05-03T11:55:13.097Z</time></trkpt><trkpt lat="41.8282609" lon="13.1692247"><ele>898.3333333333333</ele><time>2026-05-03T11:55:14.105Z</time></trkpt><trkpt lat="41.8282444" lon="13.1689785"><ele>898.0</ele><time>2026-05-03T11:55:15.102Z</time></trkpt><trkpt lat="41.8282316" lon="13.1687401"><ele>897.3333333333333</ele><time>2026-05-03T11:55:16.077Z</time></trkpt><trkpt lat="41.8282537" lon="13.1684851"><ele>896.6666666666667</ele><time>2026-05-03T11:55:17.094Z</time></trkpt><trkpt lat="41.8283004" lon="13.1682092"><ele>896.0</ele><time>2026-05-03T11:55:18.082Z</time></trkpt><trkpt lat="41.8283569" lon="13.1679365"><ele>895.6666666666667</ele><time>2026-05-03T11:55:19.075Z</time></trkpt><trkpt lat="41.8284055" lon="13.16766"><ele>895.3333333333333</ele><time>2026-05-03T11:55:20.09Z</time></trkpt><trkpt lat="41.8284465" lon="13.1674071"><ele>895.0</ele><time>2026-05-03T11:55:21.103Z</time></trkpt><trkpt lat="41.8284903" lon="13.1671685"><ele>895.0</ele><time>2026-05-03T11:55:22.11Z</time></trkpt><trkpt lat="41.8285672" lon="13.1669324"><ele>895.0</ele><time>2026-05-03T11:55:23.114Z</time></trkpt><trkpt lat="41.8286605" lon="13.1667105"><ele>895.0</ele><time>2026-05-03T11:55:24.108Z</time></trkpt><trkpt lat="41.8287552" lon="13.1665046"><ele>895.0</ele><time>2026-05-03T11:55:25.113Z</time></trkpt><trkpt lat="41.8288511" lon="13.1663105"><ele>895.0</ele><time>2026-05-03T11:55:26.079Z</time></trkpt><trkpt lat="41.8289252" lon="13.1661133"><ele>895.0</ele><time>2026-05-03T11:55:27.077Z</time></trkpt><trkpt lat="41.8289444" lon="13.1659096"><ele>895.0</ele><time>2026-05-03T11:55:28.065Z</time></trkpt><trkpt lat="41.8289201" lon="13.1657122"><ele>895.0</ele><time>2026-05-03T11:55:29.104Z</time></trkpt><trkpt lat="41.8288599" lon="13.1654938"><ele>895.0</ele><time>2026-05-03T11:55:30.119Z</time></trkpt><trkpt lat="41.8288069" lon="13.1652665"><ele>897.6666666666666</ele><time>2026-05-03T11:55:31.08Z</time></trkpt><trkpt lat="41.8287803" lon="13.1650407"><ele>900.3333333333333</ele><time>2026-05-03T11:55:32.115Z</time></trkpt><trkpt lat="41.8287715" lon="13.1648071"><ele>903.0</ele><time>2026-05-03T11:55:33.1Z</time></trkpt><trkpt lat="41.8287905" lon="13.1645866"><ele>903.6666666666667</ele><time>2026-05-03T11:55:34.117Z</time></trkpt><trkpt lat="41.8288023" lon="13.1643773"><ele>904.3333333333334</ele><time>2026-05-03T11:55:35.1Z</time></trkpt><trkpt lat="41.8288136" lon="13.1641762"><ele>905.0</ele><time>2026-05-03T11:55:36.112Z</time></trkpt><trkpt lat="41.8288239" lon="13.1639822"><ele>903.3333333333334</ele><time>2026-05-03T11:55:37.094Z</time></trkpt><trkpt lat="41.8288332" lon="13.1637945"><ele>901.6666666666667</ele><time>2026-05-03T11:55:38.075Z</time></trkpt><trkpt lat="41.8288587" lon="13.1636045"><ele>900.0</ele><time>2026-05-03T11:55:39.086Z</time></trkpt><trkpt lat="41.8288972" lon="13.1633863"><ele>896.3333333333333</ele><time>2026-05-03T11:55:40.095Z</time></trkpt><trkpt lat="41.8289318" lon="13.163128"><ele>892.6666666666666</ele><time>2026-05-03T11:55:41.091Z</time></trkpt><trkpt lat="41.8289744" lon="13.1628445"><ele>889.0</ele><time>2026-05-03T11:55:42.104Z</time></trkpt><trkpt lat="41.8290078" lon="13.162546"><ele>886.6666666666666</ele><time>2026-05-03T11:55:43.106Z</time></trkpt><trkpt lat="41.8290465" lon="13.1622516"><ele>884.3333333333333</ele><time>2026-05-03T11:55:44.068Z</time></trkpt><trkpt lat="41.8290769" lon="13.1619565"><ele>882.0</ele><time>2026-05-03T11:55:45.054Z</time></trkpt><trkpt lat="41.8290969" lon="13.1616514"><ele>880.0</ele><time>2026-05-03T11:55:46.071Z</time></trkpt><trkpt lat="41.8290954" lon="13.1613494"><ele>878.0</ele><time>2026-05-03T11:55:47.086Z</time></trkpt><trkpt lat="41.829098" lon="13.1610406"><ele>878.0</ele><time>2026-05-03T11:55:48.09Z</time></trkpt><trkpt lat="41.8291293" lon="13.1607323"><ele>878.0</ele><time>2026-05-03T11:55:49.1Z</time></trkpt><trkpt lat="41.8291748" lon="13.1604055"><ele>878.0</ele><time>2026-05-03T11:55:50.095Z</time></trkpt><trkpt lat="41.8291976" lon="13.1600565"><ele>878.0</ele><time>2026-05-03T11:55:51.089Z</time></trkpt><trkpt lat="41.8291999" lon="13.1597046"><ele>878.0</ele><time>2026-05-03T11:55:52.085Z</time></trkpt><trkpt lat="41.8291952" lon="13.1593681"><ele>878.0</ele><time>2026-05-03T11:55:53.111Z</time></trkpt><trkpt lat="41.8291933" lon="13.1590447"><ele>877.0</ele><time>2026-05-03T11:55:54.115Z</time></trkpt><trkpt lat="41.8291923" lon="13.1587278"><ele>876.0</ele><time>2026-05-03T11:55:55.074Z</time></trkpt><trkpt lat="41.829204" lon="13.1584247"><ele>875.3333333333333</ele><time>2026-05-03T11:55:56.117Z</time></trkpt><trkpt lat="41.8292247" lon="13.1581311"><ele>874.6666666666666</ele><time>2026-05-03T11:55:57.065Z</time></trkpt><trkpt lat="41.8292318" lon="13.1578492"><ele>874.0</ele><time>2026-05-03T11:55:58.092Z</time></trkpt><trkpt lat="41.829231" lon="13.1576"><ele>869.3333333333333</ele><time>2026-05-03T11:55:59.086Z</time></trkpt><trkpt lat="41.8292374" lon="13.1573589"><ele>864.6666666666667</ele><time>2026-05-03T11:56:00.068Z</time></trkpt><trkpt lat="41.8292772" lon="13.1570902"><ele>860.0</ele><time>2026-05-03T11:56:01.085Z</time></trkpt><trkpt lat="41.8293373" lon="13.1568148"><ele>870.0</ele><time>2026-05-03T11:56:02.108Z</time></trkpt><trkpt lat="41.8293967" lon="13.1565313"><ele>880.0</ele><time>2026-05-03T11:56:03.085Z</time></trkpt><trkpt lat="41.8294485" lon="13.1562412"><ele>890.0</ele><time>2026-05-03T11:56:04.104Z</time></trkpt><trkpt lat="41.829519" lon="13.1559748"><ele>890.0</ele><time>2026-05-03T11:56:05.087Z</time></trkpt><trkpt lat="41.8296167" lon="13.155726"><ele>890.0</ele><time>2026-05-03T11:56:06.093Z</time></trkpt><trkpt lat="41.8297271" lon="13.1554618"><ele>890.0</ele><time>2026-05-03T11:56:07.091Z</time></trkpt><trkpt lat="41.829809" lon="13.1551626"><ele>875.0</ele><time>2026-05-03T11:56:08.107Z</time></trkpt><trkpt lat="41.8298605" lon="13.1548423"><ele>860.0</ele><time>2026-05-03T11:56:09.061Z</time></trkpt><trkpt lat="41.829897" lon="13.154488"><ele>860.0</ele><time>2026-05-03T11:56:10.08Z</time></trkpt><trkpt lat="41.8299251" lon="13.1541485"><ele>860.0</ele><time>2026-05-03T11:56:11.09Z</time></trkpt><trkpt lat="41.8299549" lon="13.1538106"><ele>857.5</ele><time>2026-05-03T11:56:12.092Z</time></trkpt><trkpt lat="41.829981" lon="13.153484"><ele>855.0</ele><time>2026-05-03T11:56:13.097Z</time></trkpt><trkpt lat="41.8299919" lon="13.1531904"><ele>853.0</ele><time>2026-05-03T11:56:14.077Z</time></trkpt><trkpt lat="41.8299728" lon="13.1529214"><ele>851.0</ele><time>2026-05-03T11:56:15.097Z</time></trkpt><trkpt lat="41.8299484" lon="13.1526709"><ele>849.0</ele><time>2026-05-03T11:56:16.089Z</time></trkpt><trkpt lat="41.8299387" lon="13.1524601"><ele>844.75</ele><time>2026-05-03T11:56:17.078Z</time></trkpt><trkpt lat="41.8299485" lon="13.1522865"><ele>840.5</ele><time>2026-05-03T11:56:18.08Z</time></trkpt><trkpt lat="41.8299909" lon="13.1521319"><ele>836.25</ele><time>2026-05-03T11:56:19.084Z</time></trkpt><trkpt lat="41.8300744" lon="13.1519722"><ele>832.0</ele><time>2026-05-03T11:56:20.06Z</time></trkpt><trkpt lat="41.8301775" lon="13.1517826"><ele>840.0</ele><time>2026-05-03T11:56:21.061Z</time></trkpt><trkpt lat="41.8302587" lon="13.1515579"><ele>848.0</ele><time>2026-05-03T11:56:22.082Z</time></trkpt><trkpt lat="41.8303167" lon="13.151289"><ele>856.0</ele><time>2026-05-03T11:56:23.116Z</time></trkpt><trkpt lat="41.8303674" lon="13.1510324"><ele>856.0</ele><time>2026-05-03T11:56:24.114Z</time></trkpt><trkpt lat="41.8303981" lon="13.1507835"><ele>856.0</ele><time>2026-05-03T11:56:25.083Z</time></trkpt><trkpt lat="41.8304297" lon="13.1505584"><ele>856.0</ele><time>2026-05-03T11:56:26.081Z</time></trkpt><trkpt lat="41.8304831" lon="13.1503644"><ele>848.3333333333333</ele><time>2026-05-03T11:56:27.087Z</time></trkpt><trkpt lat="41.8305659" lon="13.1501823"><ele>840.6666666666667</ele><time>2026-05-03T11:56:28.088Z</time></trkpt><trkpt lat="41.8306861" lon="13.1500414"><ele>833.0</ele><time>2026-05-03T11:56:29.098Z</time></trkpt><trkpt lat="41.8308486" lon="13.1499097"><ele>826.6666666666667</ele><time>2026-05-03T11:56:30.067Z</time></trkpt><trkpt lat="41.8310005" lon="13.1497982"><ele>820.3333333333333</ele><time>2026-05-03T11:56:31.095Z</time></trkpt><trkpt lat="41.8311321" lon="13.1496994"><ele>814.0</ele><time>2026-05-03T11:56:32.107Z</time></trkpt><trkpt lat="41.8312537" lon="13.1496132"><ele>814.0</ele><time>2026-05-03T11:56:33.08Z</time></trkpt><trkpt lat="41.8313842" lon="13.1495712"><ele>814.0</ele><time>2026-05-03T11:56:34.108Z</time></trkpt><trkpt lat="41.8314991" lon="13.149605"><ele>814.0</ele><time>2026-05-03T11:56:35.101Z</time></trkpt><trkpt lat="41.8316354" lon="13.1496819"><ele>814.0</ele><time>2026-05-03T11:56:36.089Z</time></trkpt><trkpt lat="41.8317636" lon="13.1497598"><ele>817.25</ele><time>2026-05-03T11:56:37.108Z</time></trkpt><trkpt lat="41.8318808" lon="13.1498444"><ele>820.5</ele><time>2026-05-03T11:56:38.084Z</time></trkpt><trkpt lat="41.831984" lon="13.1499258"><ele>823.75</ele><time>2026-05-03T11:56:39.071Z</time></trkpt><trkpt lat="41.8320786" lon="13.1499999"><ele>827.0</ele><time>2026-05-03T11:56:40.098Z</time></trkpt><trkpt lat="41.8321615" lon="13.1500705"><ele>827.0000000000001</ele><time>2026-05-03T11:56:41.068Z</time></trkpt><trkpt lat="41.8322396" lon="13.1501232"><ele>827.0</ele><time>2026-05-03T11:56:42.091Z</time></trkpt><trkpt lat="41.8323087" lon="13.1501643"><ele>827.0</ele><time>2026-05-03T11:56:43.09Z</time></trkpt><trkpt lat="41.8323887" lon="13.1501825"><ele>827.0</ele><time>2026-05-03T11:56:44.058Z</time></trkpt><trkpt lat="41.8324624" lon="13.1501576"><ele>827.0000000000001</ele><time>2026-05-03T11:56:45.046Z</time></trkpt><trkpt lat="41.8325302" lon="13.150097"><ele>827.0</ele><time>2026-05-03T11:56:46.065Z</time></trkpt><trkpt lat="41.8325964" lon="13.1500043"><ele>828.6</ele><time>2026-05-03T11:56:47.077Z</time></trkpt><trkpt lat="41.8326633" lon="13.1498975"><ele>830.2</ele><time>2026-05-03T11:56:48.071Z</time></trkpt><trkpt lat="41.8327356" lon="13.1498059"><ele>831.8</ele><time>2026-05-03T11:56:49.076Z</time></trkpt><trkpt lat="41.8328135" lon="13.1497187"><ele>833.4</ele><time>2026-05-03T11:56:50.07Z</time></trkpt><trkpt lat="41.8328993" lon="13.1496517"><ele>835.0</ele><time>2026-05-03T11:56:51.085Z</time></trkpt><trkpt lat="41.8329944" lon="13.1495988"><ele>827.0</ele><time>2026-05-03T11:56:52.063Z</time></trkpt><trkpt lat="41.8331047" lon="13.1496061"><ele>819.0</ele><time>2026-05-03T11:56:53.087Z</time></trkpt><trkpt lat="41.8332143" lon="13.1496466"><ele>811.0</ele><time>2026-05-03T11:56:54.054Z</time></trkpt><trkpt lat="41.8333322" lon="13.1497064"><ele>803.0</ele><time>2026-05-03T11:56:55.073Z</time></trkpt><trkpt lat="41.8334402" lon="13.1497589"><ele>809.0</ele><time>2026-05-03T11:56:56.072Z</time></trkpt><trkpt lat="41.8335374" lon="13.1498143"><ele>815.0</ele><time>2026-05-03T11:56:57.08Z</time></trkpt><trkpt lat="41.8336285" lon="13.149847"><ele>821.0</ele><time>2026-05-03T11:56:58.088Z</time></trkpt><trkpt lat="41.8337202" lon="13.1498402"><ele>827.0</ele><time>2026-05-03T11:56:59.095Z</time></trkpt><trkpt lat="41.8338065" lon="13.1497837"><ele>833.0</ele><time>2026-05-03T11:57:00.084Z</time></trkpt><trkpt lat="41.8338761" lon="13.1496845"><ele>833.0</ele><time>2026-05-03T11:57:01.079Z</time></trkpt><trkpt lat="41.8339204" lon="13.1495619"><ele>833.0</ele><time>2026-05-03T11:57:02.066Z</time></trkpt><trkpt lat="41.8339217" lon="13.1493988"><ele>833.0</ele><time>2026-05-03T11:57:03.108Z</time></trkpt><trkpt lat="41.8338891" lon="13.1492121"><ele>833.0</ele><time>2026-05-03T11:57:04.062Z</time></trkpt><trkpt lat="41.8338533" lon="13.1490047"><ele>833.75</ele><time>2026-05-03T11:57:05.069Z</time></trkpt><trkpt lat="41.8338233" lon="13.148799"><ele>834.5</ele><time>2026-05-03T11:57:06.079Z</time></trkpt><trkpt lat="41.8338004" lon="13.1486063"><ele>835.25</ele><time>2026-05-03T11:57:07.08Z</time></trkpt><trkpt lat="41.833779" lon="13.1484376"><ele>836.0</ele><time>2026-05-03T11:57:08.09Z</time></trkpt><trkpt lat="41.833756" lon="13.1482749"><ele>836.0</ele><time>2026-05-03T11:57:09.094Z</time></trkpt><trkpt lat="41.8337191" lon="13.1481199"><ele>836.0</ele><time>2026-05-03T11:57:10.089Z</time></trkpt><trkpt lat="41.8336556" lon="13.1479769"><ele>836.0</ele><time>2026-05-03T11:57:11.081Z</time></trkpt><trkpt lat="41.8335776" lon="13.147855"><ele>836.0</ele><time>2026-05-03T11:57:12.084Z</time></trkpt><trkpt lat="41.8334979" lon="13.147747"><ele>828.4</ele><time>2026-05-03T11:57:13.061Z</time></trkpt><trkpt lat="41.833417" lon="13.1476551"><ele>820.8</ele><time>2026-05-03T11:57:14.093Z</time></trkpt><trkpt lat="41.8333553" lon="13.1475713"><ele>813.1999999999999</ele><time>2026-05-03T11:57:15.094Z</time></trkpt><trkpt lat="41.8333235" lon="13.1474672"><ele>805.5999999999999</ele><time>2026-05-03T11:57:16.074Z</time></trkpt><trkpt lat="41.8333309" lon="13.1473506"><ele>798.0</ele><time>2026-05-03T11:57:17.091Z</time></trkpt><trkpt lat="41.8333768" lon="13.1472274"><ele>793.0</ele><time>2026-05-03T11:57:18.1Z</time></trkpt><trkpt lat="41.8334543" lon="13.1470855"><ele>788.0</ele><time>2026-05-03T11:57:19.1Z</time></trkpt><trkpt lat="41.8335748" lon="13.1469226"><ele>783.0</ele><time>2026-05-03T11:57:20.09Z</time></trkpt><trkpt lat="41.833707" lon="13.1467321"><ele>789.3333333333333</ele><time>2026-05-03T11:57:21.065Z</time></trkpt><trkpt lat="41.833817" lon="13.1465034"><ele>795.6666666666666</ele><time>2026-05-03T11:57:22.069Z</time></trkpt><trkpt lat="41.833894" lon="13.1462551"><ele>802.0</ele><time>2026-05-03T11:57:23.105Z</time></trkpt><trkpt lat="41.8339386" lon="13.1460208"><ele>802.0</ele><time>2026-05-03T11:57:24.089Z</time></trkpt><trkpt lat="41.833957" lon="13.1458098"><ele>802.0</ele><time>2026-05-03T11:57:25.065Z</time></trkpt><trkpt lat="41.8339771" lon="13.145619"><ele>802.0</ele><time>2026-05-03T11:57:26.099Z</time></trkpt><trkpt lat="41.8340229" lon="13.1454428"><ele>802.0</ele><time>2026-05-03T11:57:27.084Z</time></trkpt><trkpt lat="41.8340967" lon="13.1452928"><ele>804.25</ele><time>2026-05-03T11:57:28.084Z</time></trkpt><trkpt lat="41.834184" lon="13.1451538"><ele>806.5</ele><time>2026-05-03T11:57:29.08Z</time></trkpt><trkpt lat="41.8342617" lon="13.1450153"><ele>808.75</ele><time>2026-05-03T11:57:30.094Z</time></trkpt><trkpt lat="41.8343087" lon="13.1448492"><ele>811.0</ele><time>2026-05-03T11:57:31.087Z</time></trkpt><trkpt lat="41.8343287" lon="13.1446741"><ele>811.0</ele><time>2026-05-03T11:57:32.06Z</time></trkpt><trkpt lat="41.8343231" lon="13.1444974"><ele>811.0</ele><time>2026-05-03T11:57:33.085Z</time></trkpt><trkpt lat="41.8342958" lon="13.1443203"><ele>811.0</ele><time>2026-05-03T11:57:34.089Z</time></trkpt><trkpt lat="41.8342504" lon="13.144148"><ele>811.0</ele><time>2026-05-03T11:57:35.083Z</time></trkpt><trkpt lat="41.8341972" lon="13.1439965"><ele>806.5</ele><time>2026-05-03T11:57:36.099Z</time></trkpt><trkpt lat="41.8341289" lon="13.1438515"><ele>802.0</ele><time>2026-05-03T11:57:37.109Z</time></trkpt><trkpt lat="41.8340405" lon="13.1437195"><ele>797.5</ele><time>2026-05-03T11:57:38.061Z</time></trkpt><trkpt lat="41.8339401" lon="13.1436088"><ele>793.0</ele><time>2026-05-03T11:57:39.087Z</time></trkpt><trkpt lat="41.8338308" lon="13.1435173"><ele>793.0</ele><time>2026-05-03T11:57:40.104Z</time></trkpt><trkpt lat="41.8337312" lon="13.1434433"><ele>793.0</ele><time>2026-05-03T11:57:41.077Z</time></trkpt><trkpt lat="41.8336419" lon="13.143384"><ele>793.0</ele><time>2026-05-03T11:57:42.08Z</time></trkpt><trkpt lat="41.8335534" lon="13.1433241"><ele>793.0</ele><time>2026-05-03T11:57:43.083Z</time></trkpt><trkpt lat="41.8334782" lon="13.1432526"><ele>793.0</ele><time>2026-05-03T11:57:44.06Z</time></trkpt><trkpt lat="41.8334036" lon="13.1431669"><ele>789.25</ele><time>2026-05-03T11:57:45.071Z</time></trkpt><trkpt lat="41.8333397" lon="13.1430653"><ele>785.5</ele><time>2026-05-03T11:57:46.06Z</time></trkpt><trkpt lat="41.8332902" lon="13.1429403"><ele>781.75</ele><time>2026-05-03T11:57:47.049Z</time></trkpt><trkpt lat="41.8332552" lon="13.142787"><ele>778.0</ele><time>2026-05-03T11:57:48.095Z</time></trkpt><trkpt lat="41.8332364" lon="13.1426109"><ele>778.0</ele><time>2026-05-03T11:57:49.088Z</time></trkpt><trkpt lat="41.8332285" lon="13.1424271"><ele>778.0</ele><time>2026-05-03T11:57:50.099Z</time></trkpt><trkpt lat="41.8332249" lon="13.1422514"><ele>778.0</ele><time>2026-05-03T11:57:51.108Z</time></trkpt><trkpt lat="41.8332153" lon="13.142085"><ele>778.0</ele><time>2026-05-03T11:57:52.082Z</time></trkpt><trkpt lat="41.8332148" lon="13.1419386"><ele>778.0</ele><time>2026-05-03T11:57:53.099Z</time></trkpt><trkpt lat="41.8332194" lon="13.1418116"><ele>778.0</ele><time>2026-05-03T11:57:54.1Z</time></trkpt><trkpt lat="41.8332298" lon="13.1416794"><ele>778.0</ele><time>2026-05-03T11:57:55.088Z</time></trkpt><trkpt lat="41.8332582" lon="13.1415438"><ele>778.0</ele><time>2026-05-03T11:57:56.087Z</time></trkpt><trkpt lat="41.8332927" lon="13.1414091"><ele>778.0</ele><time>2026-05-03T11:57:57.091Z</time></trkpt><trkpt lat="41.8333271" lon="13.1412751"><ele>776.4999999999999</ele><time>2026-05-03T11:57:58.076Z</time></trkpt><trkpt lat="41.833371" lon="13.1411356"><ele>775.0</ele><time>2026-05-03T11:57:59.1Z</time></trkpt><trkpt lat="41.8334109" lon="13.1410073"><ele>773.5</ele><time>2026-05-03T11:58:00.1Z</time></trkpt><trkpt lat="41.8334345" lon="13.1409018"><ele>772.0</ele><time>2026-05-03T11:58:01.081Z</time></trkpt><trkpt lat="41.8334293" lon="13.1407995"><ele>770.4999999999999</ele><time>2026-05-03T11:58:02.072Z</time></trkpt><trkpt lat="41.8333958" lon="13.1407203"><ele>769.0</ele><time>2026-05-03T11:58:03.07Z</time></trkpt><trkpt lat="41.8333185" lon="13.1406662"><ele>767.5</ele><time>2026-05-03T11:58:04.115Z</time></trkpt><trkpt lat="41.8332166" lon="13.1406313"><ele>766.0</ele><time>2026-05-03T11:58:05.105Z</time></trkpt><trkpt lat="41.8330592" lon="13.1406056"><ele>764.5</ele><time>2026-05-03T11:58:06.097Z</time></trkpt><trkpt lat="41.8328851" lon="13.1405782"><ele>763.0</ele><time>2026-05-03T11:58:07.085Z</time></trkpt><trkpt lat="41.8327259" lon="13.140535"><ele>762.0</ele><time>2026-05-03T11:58:08.099Z</time></trkpt><trkpt lat="41.8325949" lon="13.1404787"><ele>761.0</ele><time>2026-05-03T11:58:09.107Z</time></trkpt><trkpt lat="41.8325071" lon="13.1404001"><ele>760.0</ele><time>2026-05-03T11:58:10.1Z</time></trkpt><trkpt lat="41.8324393" lon="13.1402991"><ele>759.0</ele><time>2026-05-03T11:58:11.098Z</time></trkpt><trkpt lat="41.8323878" lon="13.1401621"><ele>759.0</ele><time>2026-05-03T11:58:12.085Z</time></trkpt><trkpt lat="41.8323296" lon="13.140007"><ele>759.0</ele><time>2026-05-03T11:58:13.082Z</time></trkpt><trkpt lat="41.832261" lon="13.1398334"><ele>759.0</ele><time>2026-05-03T11:58:14.104Z</time></trkpt><trkpt lat="41.8321639" lon="13.1396316"><ele>755.6666666666666</ele><time>2026-05-03T11:58:15.098Z</time></trkpt><trkpt lat="41.8320519" lon="13.1394009"><ele>752.3333333333333</ele><time>2026-05-03T11:58:16.096Z</time></trkpt><trkpt lat="41.8319333" lon="13.1391742"><ele>749.0</ele><time>2026-05-03T11:58:17.11Z</time></trkpt><trkpt lat="41.8318118" lon="13.1389473"><ele>746.6666666666666</ele><time>2026-05-03T11:58:18.088Z</time></trkpt><trkpt lat="41.8316863" lon="13.1387342"><ele>744.3333333333334</ele><time>2026-05-03T11:58:19.11Z</time></trkpt><trkpt lat="41.8315538" lon="13.138542"><ele>742.0</ele><time>2026-05-03T11:58:20.1Z</time></trkpt><trkpt lat="41.8314179" lon="13.1383648"><ele>738.6666666666667</ele><time>2026-05-03T11:58:21.103Z</time></trkpt><trkpt lat="41.8312989" lon="13.1381933"><ele>735.3333333333334</ele><time>2026-05-03T11:58:22.106Z</time></trkpt><trkpt lat="41.8312062" lon="13.1380229"><ele>732.0</ele><time>2026-05-03T11:58:23.098Z</time></trkpt><trkpt lat="41.831137" lon="13.1378675"><ele>732.0</ele><time>2026-05-03T11:58:24.1Z</time></trkpt><trkpt lat="41.8310757" lon="13.1377366"><ele>732.0</ele><time>2026-05-03T11:58:25.126Z</time></trkpt><trkpt lat="41.8309794" lon="13.1376644"><ele>732.0</ele><time>2026-05-03T11:58:26.102Z</time></trkpt><trkpt lat="41.8308848" lon="13.1376432"><ele>732.0</ele><time>2026-05-03T11:58:27.109Z</time></trkpt><trkpt lat="41.8307976" lon="13.1377082"><ele>732.0</ele><time>2026-05-03T11:58:28.102Z</time></trkpt><trkpt lat="41.830738" lon="13.1378053"><ele>732.5</ele><time>2026-05-03T11:58:29.1Z</time></trkpt><trkpt lat="41.8307047" lon="13.1379327"><ele>733.0</ele><time>2026-05-03T11:58:30.1Z</time></trkpt><trkpt lat="41.8306867" lon="13.138079"><ele>733.5</ele><time>2026-05-03T11:58:31.104Z</time></trkpt><trkpt lat="41.8306875" lon="13.1382633"><ele>734.0</ele><time>2026-05-03T11:58:32.085Z</time></trkpt><trkpt lat="41.8306966" lon="13.1384762"><ele>734.0</ele><time>2026-05-03T11:58:33.116Z</time></trkpt><trkpt lat="41.8307057" lon="13.1386751"><ele>734.0</ele><time>2026-05-03T11:58:34.099Z</time></trkpt><trkpt lat="41.8307165" lon="13.1388575"><ele>734.0</ele><time>2026-05-03T11:58:35.098Z</time></trkpt><trkpt lat="41.8307346" lon="13.1390262"><ele>734.0</ele><time>2026-05-03T11:58:36.111Z</time></trkpt><trkpt lat="41.8307429" lon="13.1391949"><ele>733.25</ele><time>2026-05-03T11:58:37.067Z</time></trkpt><trkpt lat="41.8307414" lon="13.1393569"><ele>732.5</ele><time>2026-05-03T11:58:38.124Z</time></trkpt><trkpt lat="41.8307286" lon="13.1395178"><ele>731.75</ele><time>2026-05-03T11:58:39.089Z</time></trkpt><trkpt lat="41.8307165" lon="13.1396803"><ele>731.0</ele><time>2026-05-03T11:58:40.106Z</time></trkpt><trkpt lat="41.8307186" lon="13.1398349"><ele>729.5999999999999</ele><time>2026-05-03T11:58:41.098Z</time></trkpt><trkpt lat="41.8307394" lon="13.1399777"><ele>728.2</ele><time>2026-05-03T11:58:42.089Z</time></trkpt><trkpt lat="41.8307703" lon="13.1400969"><ele>726.8</ele><time>2026-05-03T11:58:43.096Z</time></trkpt><trkpt lat="41.8308128" lon="13.1402078"><ele>725.4000000000001</ele><time>2026-05-03T11:58:44.092Z</time></trkpt><trkpt lat="41.8308459" lon="13.1403146"><ele>724.0</ele><time>2026-05-03T11:58:45.075Z</time></trkpt><trkpt lat="41.8308843" lon="13.1404302"><ele>724.0</ele><time>2026-05-03T11:58:46.112Z</time></trkpt><trkpt lat="41.8309089" lon="13.1405541"><ele>724.0</ele><time>2026-05-03T11:58:47.117Z</time></trkpt><trkpt lat="41.8309154" lon="13.1406821"><ele>724.0</ele><time>2026-05-03T11:58:48.091Z</time></trkpt><trkpt lat="41.8309058" lon="13.140803"><ele>724.0</ele><time>2026-05-03T11:58:49.09Z</time></trkpt><trkpt lat="41.8308984" lon="13.1409228"><ele>724.0</ele><time>2026-05-03T11:58:50.085Z</time></trkpt><trkpt lat="41.8309006" lon="13.1410848"><ele>722.0</ele><time>2026-05-03T11:58:51.104Z</time></trkpt><trkpt lat="41.8309252" lon="13.1412948"><ele>720.0</ele><time>2026-05-03T11:58:52.109Z</time></trkpt><trkpt lat="41.8309524" lon="13.1415152"><ele>718.0</ele><time>2026-05-03T11:58:53.105Z</time></trkpt><trkpt lat="41.8309729" lon="13.1417173"><ele>724.5</ele><time>2026-05-03T11:58:54.114Z</time></trkpt><trkpt lat="41.8309831" lon="13.14191"><ele>731.0</ele><time>2026-05-03T11:58:55.12Z</time></trkpt><trkpt lat="41.830994" lon="13.1420866"><ele>737.5</ele><time>2026-05-03T11:58:56.094Z</time></trkpt><trkpt lat="41.8310014" lon="13.1422591"><ele>744.0</ele><time>2026-05-03T11:58:57.109Z</time></trkpt><trkpt lat="41.8310228" lon="13.1424171"><ele>744.0</ele><time>2026-05-03T11:58:58.124Z</time></trkpt><trkpt lat="41.8310811" lon="13.142586"><ele>744.0</ele><time>2026-05-03T11:58:59.111Z</time></trkpt><trkpt lat="41.8311529" lon="13.1427538"><ele>744.0</ele><time>2026-05-03T11:59:00.11Z</time></trkpt><trkpt lat="41.8312288" lon="13.1429098"><ele>744.0</ele><time>2026-05-03T11:59:01.085Z</time></trkpt><trkpt lat="41.8313063" lon="13.1430523"><ele>744.0</ele><time>2026-05-03T11:59:02.114Z</time></trkpt><trkpt lat="41.8313975" lon="13.1431694"><ele>744.0</ele><time>2026-05-03T11:59:03.106Z</time></trkpt><trkpt lat="41.8315075" lon="13.1432625"><ele>744.0</ele><time>2026-05-03T11:59:04.1Z</time></trkpt><trkpt lat="41.8316181" lon="13.1433347"><ele>744.0</ele><time>2026-05-03T11:59:05.096Z</time></trkpt><trkpt lat="41.8317209" lon="13.1434071"><ele>742.75</ele><time>2026-05-03T11:59:06.101Z</time></trkpt><trkpt lat="41.8318105" lon="13.1434952"><ele>741.5</ele><time>2026-05-03T11:59:07.099Z</time></trkpt><trkpt lat="41.8318851" lon="13.1436084"><ele>740.25</ele><time>2026-05-03T11:59:08.107Z</time></trkpt><trkpt lat="41.8319545" lon="13.14375"><ele>739.0</ele><time>2026-05-03T11:59:09.096Z</time></trkpt><trkpt lat="41.832019" lon="13.1438932"><ele>739.0</ele><time>2026-05-03T11:59:10.107Z</time></trkpt><trkpt lat="41.832069" lon="13.144039"><ele>739.0</ele><time>2026-05-03T11:59:11.1Z</time></trkpt><trkpt lat="41.8320921" lon="13.1441924"><ele>739.0</ele><time>2026-05-03T11:59:12.089Z</time></trkpt><trkpt lat="41.832075" lon="13.1443807"><ele>739.0</ele><time>2026-05-03T11:59:13.06Z</time></trkpt><trkpt lat="41.8320325" lon="13.1445754"><ele>736.25</ele><time>2026-05-03T11:59:14.091Z</time></trkpt><trkpt lat="41.8319868" lon="13.1447666"><ele>733.5</ele><time>2026-05-03T11:59:15.071Z</time></trkpt><trkpt lat="41.8319549" lon="13.1449481"><ele>730.75</ele><time>2026-05-03T11:59:16.075Z</time></trkpt><trkpt lat="41.8319407" lon="13.1451309"><ele>728.0</ele><time>2026-05-03T11:59:17.095Z</time></trkpt><trkpt lat="41.8319309" lon="13.1452968"><ele>728.0</ele><time>2026-05-03T11:59:18.052Z</time></trkpt><trkpt lat="41.831916" lon="13.1454611"><ele>728.0</ele><time>2026-05-03T11:59:19.088Z</time></trkpt><trkpt lat="41.8319007" lon="13.1456201"><ele>728.0</ele><time>2026-05-03T11:59:20.095Z</time></trkpt><trkpt lat="41.8318827" lon="13.1457654"><ele>728.0</ele><time>2026-05-03T11:59:21.086Z</time></trkpt><trkpt lat="41.831809" lon="13.1458676"><ele>721.25</ele><time>2026-05-03T11:59:22.069Z</time></trkpt><trkpt lat="41.8316958" lon="13.1459532"><ele>714.5</ele><time>2026-05-03T11:59:23.091Z</time></trkpt><trkpt lat="41.8315789" lon="13.1460134"><ele>707.75</ele><time>2026-05-03T11:59:24.083Z</time></trkpt><trkpt lat="41.8314659" lon="13.146046"><ele>701.0</ele><time>2026-05-03T11:59:25.074Z</time></trkpt><trkpt lat="41.8313472" lon="13.1460384"><ele>701.0</ele><time>2026-05-03T11:59:26.067Z</time></trkpt><trkpt lat="41.8312286" lon="13.1460047"><ele>701.0</ele><time>2026-05-03T11:59:27.101Z</time></trkpt><trkpt lat="41.8311011" lon="13.1459728"><ele>701.0</ele><time>2026-05-03T11:59:28.085Z</time></trkpt><trkpt lat="41.8309692" lon="13.14595"><ele>701.0</ele><time>2026-05-03T11:59:29.118Z</time></trkpt><trkpt lat="41.8308397" lon="13.1459237"><ele>699.0</ele><time>2026-05-03T11:59:30.092Z</time></trkpt><trkpt lat="41.8307252" lon="13.1459043"><ele>697.0</ele><time>2026-05-03T11:59:31.093Z</time></trkpt><trkpt lat="41.8306046" lon="13.1458803"><ele>695.0</ele><time>2026-05-03T11:59:32.067Z</time></trkpt><trkpt lat="41.8304933" lon="13.1458525"><ele>693.0</ele><time>2026-05-03T11:59:33.085Z</time></trkpt><trkpt lat="41.8303917" lon="13.1458326"><ele>693.0</ele><time>2026-05-03T11:59:34.104Z</time></trkpt><trkpt lat="41.8302907" lon="13.1458197"><ele>693.0</ele><time>2026-05-03T11:59:35.091Z</time></trkpt><trkpt lat="41.8302028" lon="13.1458144"><ele>693.0</ele><time>2026-05-03T11:59:36.085Z</time></trkpt><trkpt lat="41.8301372" lon="13.1457965"><ele>693.0</ele><time>2026-05-03T11:59:37.099Z</time></trkpt><trkpt lat="41.8300814" lon="13.1457117"><ele>693.0</ele><time>2026-05-03T11:59:39.091Z</time></trkpt><trkpt lat="41.8301609" lon="13.1456424"><ele>693.0</ele><time>2026-05-03T11:59:42.089Z</time></trkpt><trkpt lat="41.8302992" lon="13.145661"><ele>688.75</ele><time>2026-05-03T11:59:43.068Z</time></trkpt><trkpt lat="41.8304386" lon="13.145681"><ele>684.5</ele><time>2026-05-03T11:59:44.087Z</time></trkpt><trkpt lat="41.8305887" lon="13.1456887"><ele>680.25</ele><time>2026-05-03T11:59:45.089Z</time></trkpt><trkpt lat="41.8307386" lon="13.1456734"><ele>676.0</ele><time>2026-05-03T11:59:46.063Z</time></trkpt><trkpt lat="41.8308839" lon="13.14563"><ele>679.75</ele><time>2026-05-03T11:59:47.084Z</time></trkpt><trkpt lat="41.8310216" lon="13.145564"><ele>683.5</ele><time>2026-05-03T11:59:48.058Z</time></trkpt><trkpt lat="41.8311375" lon="13.1454997"><ele>687.25</ele><time>2026-05-03T11:59:49.07Z</time></trkpt><trkpt lat="41.8312445" lon="13.1454431"><ele>691.0</ele><time>2026-05-03T11:59:50.115Z</time></trkpt><trkpt lat="41.8313237" lon="13.1453416"><ele>691.0</ele><time>2026-05-03T11:59:51.111Z</time></trkpt><trkpt lat="41.8313873" lon="13.1452165"><ele>691.0</ele><time>2026-05-03T11:59:52.111Z</time></trkpt><trkpt lat="41.8314389" lon="13.1450797"><ele>691.0</ele><time>2026-05-03T11:59:53.092Z</time></trkpt><trkpt lat="41.8314607" lon="13.1449408"><ele>691.0</ele><time>2026-05-03T11:59:54.1Z</time></trkpt><trkpt lat="41.8314674" lon="13.1448164"><ele>691.0</ele><time>2026-05-03T11:59:55.079Z</time></trkpt><trkpt lat="41.831464" lon="13.1447314"><ele>691.0</ele><time>2026-05-03T11:59:56.108Z</time></trkpt><trkpt lat="41.8314119" lon="13.1446604"><ele>691.0</ele><time>2026-05-03T11:59:58.063Z</time></trkpt><trkpt lat="41.8313103" lon="13.1447105"><ele>691.0</ele><time>2026-05-03T12:00:00.121Z</time></trkpt><trkpt lat="41.8312774" lon="13.1447918"><ele>691.0</ele><time>2026-05-03T12:00:01.097Z</time></trkpt><trkpt lat="41.8312553" lon="13.1449113"><ele>691.0</ele><time>2026-05-03T12:00:02.088Z</time></trkpt><trkpt lat="41.8312179" lon="13.1450258"><ele>691.0</ele><time>2026-05-03T12:00:03.099Z</time></trkpt><trkpt lat="41.8311528" lon="13.1450905"><ele>691.0</ele><time>2026-05-03T12:00:04.06Z</time></trkpt><trkpt lat="41.8310804" lon="13.145075"><ele>691.0</ele><time>2026-05-03T12:00:05.1Z</time></trkpt><trkpt lat="41.8309792" lon="13.1450258"><ele>691.0</ele><time>2026-05-03T12:00:06.094Z</time></trkpt><trkpt lat="41.8308508" lon="13.1449305"><ele>691.0</ele><time>2026-05-03T12:00:07.087Z</time></trkpt><trkpt lat="41.830715" lon="13.1448345"><ele>684.0</ele><time>2026-05-03T12:00:08.106Z</time></trkpt><trkpt lat="41.8305593" lon="13.1447452"><ele>677.0</ele><time>2026-05-03T12:00:09.099Z</time></trkpt><trkpt lat="41.8303941" lon="13.1446654"><ele>670.0</ele><time>2026-05-03T12:00:10.106Z</time></trkpt><trkpt lat="41.8302296" lon="13.1445952"><ele>667.6666666666667</ele><time>2026-05-03T12:00:11.064Z</time></trkpt><trkpt lat="41.8300716" lon="13.1445423"><ele>665.3333333333334</ele><time>2026-05-03T12:00:12.116Z</time></trkpt><trkpt lat="41.8299314" lon="13.1444906"><ele>663.0</ele><time>2026-05-03T12:00:13.062Z</time></trkpt><trkpt lat="41.8297961" lon="13.1444239"><ele>663.0</ele><time>2026-05-03T12:00:14.053Z</time></trkpt><trkpt lat="41.8296735" lon="13.1443343"><ele>663.0</ele><time>2026-05-03T12:00:15.051Z</time></trkpt><trkpt lat="41.8295814" lon="13.1441949"><ele>663.0</ele><time>2026-05-03T12:00:16.046Z</time></trkpt><trkpt lat="41.8295082" lon="13.1439819"><ele>664.0</ele><time>2026-05-03T12:00:17.107Z</time></trkpt><trkpt lat="41.8294358" lon="13.1437563"><ele>665.0</ele><time>2026-05-03T12:00:18.069Z</time></trkpt><trkpt lat="41.8293645" lon="13.1435299"><ele>666.0</ele><time>2026-05-03T12:00:19.082Z</time></trkpt><trkpt lat="41.8292834" lon="13.1432985"><ele>658.6666666666666</ele><time>2026-05-03T12:00:20.073Z</time></trkpt><trkpt lat="41.8291969" lon="13.1430641"><ele>651.3333333333333</ele><time>2026-05-03T12:00:21.052Z</time></trkpt><trkpt lat="41.8291141" lon="13.1428267"><ele>644.0</ele><time>2026-05-03T12:00:22.095Z</time></trkpt><trkpt lat="41.8290202" lon="13.1426084"><ele>644.0</ele><time>2026-05-03T12:00:23.092Z</time></trkpt><trkpt lat="41.8289205" lon="13.1423894"><ele>644.0</ele><time>2026-05-03T12:00:24.092Z</time></trkpt><trkpt lat="41.8288203" lon="13.1421891"><ele>644.0</ele><time>2026-05-03T12:00:25.089Z</time></trkpt><trkpt lat="41.8287211" lon="13.1419984"><ele>640.0</ele><time>2026-05-03T12:00:26.094Z</time></trkpt><trkpt lat="41.8286165" lon="13.1418031"><ele>636.0</ele><time>2026-05-03T12:00:27.073Z</time></trkpt><trkpt lat="41.8285086" lon="13.1416106"><ele>632.0</ele><time>2026-05-03T12:00:28.089Z</time></trkpt><trkpt lat="41.8284048" lon="13.1414271"><ele>629.3333333333333</ele><time>2026-05-03T12:00:29.079Z</time></trkpt><trkpt lat="41.8283098" lon="13.1412438"><ele>626.6666666666666</ele><time>2026-05-03T12:00:30.082Z</time></trkpt><trkpt lat="41.8282133" lon="13.1410647"><ele>624.0</ele><time>2026-05-03T12:00:31.101Z</time></trkpt><trkpt lat="41.8281206" lon="13.1408901"><ele>618.0</ele><time>2026-05-03T12:00:32.092Z</time></trkpt><trkpt lat="41.8280274" lon="13.1407101"><ele>612.0</ele><time>2026-05-03T12:00:33.105Z</time></trkpt><trkpt lat="41.8279343" lon="13.1405454"><ele>606.0</ele><time>2026-05-03T12:00:34.079Z</time></trkpt><trkpt lat="41.8278483" lon="13.1403873"><ele>606.0</ele><time>2026-05-03T12:00:35.069Z</time></trkpt><trkpt lat="41.8277519" lon="13.1402697"><ele>606.0</ele><time>2026-05-03T12:00:36.107Z</time></trkpt><trkpt lat="41.8276686" lon="13.1402048"><ele>606.0</ele><time>2026-05-03T12:00:37.118Z</time></trkpt><trkpt lat="41.8275823" lon="13.140177"><ele>606.0</ele><time>2026-05-03T12:00:38.109Z</time></trkpt><trkpt lat="41.8274721" lon="13.1401941"><ele>606.0</ele><time>2026-05-03T12:00:39.085Z</time></trkpt><trkpt lat="41.8273584" lon="13.1402373"><ele>609.75</ele><time>2026-05-03T12:00:40.103Z</time></trkpt><trkpt lat="41.8272652" lon="13.1403071"><ele>613.5</ele><time>2026-05-03T12:00:41.095Z</time></trkpt><trkpt lat="41.8271942" lon="13.1404141"><ele>617.25</ele><time>2026-05-03T12:00:42.104Z</time></trkpt><trkpt lat="41.8271454" lon="13.1405882"><ele>621.0</ele><time>2026-05-03T12:00:43.07Z</time></trkpt><trkpt lat="41.8270826" lon="13.1407816"><ele>626.6666666666666</ele><time>2026-05-03T12:00:44.115Z</time></trkpt><trkpt lat="41.8270182" lon="13.1409772"><ele>632.3333333333333</ele><time>2026-05-03T12:00:45.098Z</time></trkpt><trkpt lat="41.8269757" lon="13.1411762"><ele>638.0</ele><time>2026-05-03T12:00:46.095Z</time></trkpt><trkpt lat="41.8269665" lon="13.1413807"><ele>641.3333333333333</ele><time>2026-05-03T12:00:47.09Z</time></trkpt><trkpt lat="41.8269689" lon="13.141591"><ele>644.6666666666666</ele><time>2026-05-03T12:00:48.109Z</time></trkpt><trkpt lat="41.826971" lon="13.1418006"><ele>648.0</ele><time>2026-05-03T12:00:49.104Z</time></trkpt><trkpt lat="41.8269862" lon="13.142013"><ele>648.0</ele><time>2026-05-03T12:00:50.107Z</time></trkpt><trkpt lat="41.8270076" lon="13.1422249"><ele>648.0</ele><time>2026-05-03T12:00:51.111Z</time></trkpt><trkpt lat="41.8270457" lon="13.1424413"><ele>648.0</ele><time>2026-05-03T12:00:52.076Z</time></trkpt><trkpt lat="41.8270973" lon="13.1426565"><ele>646.0</ele><time>2026-05-03T12:00:53.061Z</time></trkpt><trkpt lat="41.8271511" lon="13.1428776"><ele>644.0</ele><time>2026-05-03T12:00:54.105Z</time></trkpt><trkpt lat="41.8271923" lon="13.1430916"><ele>642.0</ele><time>2026-05-03T12:00:55.084Z</time></trkpt><trkpt lat="41.8272308" lon="13.1432782"><ele>639.0</ele><time>2026-05-03T12:00:56.106Z</time></trkpt><trkpt lat="41.827256" lon="13.1434433"><ele>636.0</ele><time>2026-05-03T12:00:57.091Z</time></trkpt><trkpt lat="41.827279" lon="13.1435794"><ele>633.0</ele><time>2026-05-03T12:00:58.11Z</time></trkpt><trkpt lat="41.8272921" lon="13.1436971"><ele>630.0</ele><time>2026-05-03T12:00:59.106Z</time></trkpt><trkpt lat="41.8272845" lon="13.1437965"><ele>627.0</ele><time>2026-05-03T12:01:00.108Z</time></trkpt><trkpt lat="41.8272206" lon="13.1439127"><ele>627.0</ele><time>2026-05-03T12:01:02.099Z</time></trkpt><trkpt lat="41.8271376" lon="13.1438339"><ele>627.0</ele><time>2026-05-03T12:01:04.113Z</time></trkpt><trkpt lat="41.8271059" lon="13.1437246"><ele>627.0</ele><time>2026-05-03T12:01:05.106Z</time></trkpt><trkpt lat="41.8270968" lon="13.1435594"><ele>627.0</ele><time>2026-05-03T12:01:06.106Z</time></trkpt><trkpt lat="41.8270646" lon="13.1433751"><ele>632.0</ele><time>2026-05-03T12:01:07.09Z</time></trkpt><trkpt lat="41.8269928" lon="13.1431689"><ele>637.0</ele><time>2026-05-03T12:01:08.104Z</time></trkpt><trkpt lat="41.8269156" lon="13.1429455"><ele>642.0</ele><time>2026-05-03T12:01:09.106Z</time></trkpt><trkpt lat="41.8268277" lon="13.1427181"><ele>628.0</ele><time>2026-05-03T12:01:10.101Z</time></trkpt><trkpt lat="41.826737" lon="13.1424804"><ele>614.0</ele><time>2026-05-03T12:01:11.122Z</time></trkpt><trkpt lat="41.8266522" lon="13.1422514"><ele>600.0</ele><time>2026-05-03T12:01:12.087Z</time></trkpt><trkpt lat="41.826567" lon="13.1420293"><ele>600.0</ele><time>2026-05-03T12:01:13.108Z</time></trkpt><trkpt lat="41.8264914" lon="13.1418262"><ele>600.0</ele><time>2026-05-03T12:01:14.094Z</time></trkpt><trkpt lat="41.8264257" lon="13.1416339"><ele>600.0</ele><time>2026-05-03T12:01:15.102Z</time></trkpt><trkpt lat="41.8263732" lon="13.1414294"><ele>599.6666666666666</ele><time>2026-05-03T12:01:16.111Z</time></trkpt><trkpt lat="41.8263525" lon="13.1412142"><ele>599.3333333333333</ele><time>2026-05-03T12:01:17.106Z</time></trkpt><trkpt lat="41.8263666" lon="13.140975"><ele>599.0</ele><time>2026-05-03T12:01:18.105Z</time></trkpt><trkpt lat="41.8263783" lon="13.1407279"><ele>595.3333333333333</ele><time>2026-05-03T12:01:19.097Z</time></trkpt><trkpt lat="41.8263815" lon="13.1404968"><ele>591.6666666666666</ele><time>2026-05-03T12:01:20.084Z</time></trkpt><trkpt lat="41.8263946" lon="13.1402749"><ele>588.0</ele><time>2026-05-03T12:01:21.097Z</time></trkpt><trkpt lat="41.8264219" lon="13.1400507"><ele>584.0</ele><time>2026-05-03T12:01:22.103Z</time></trkpt><trkpt lat="41.8264536" lon="13.1398362"><ele>580.0</ele><time>2026-05-03T12:01:23.075Z</time></trkpt><trkpt lat="41.8264869" lon="13.1396205"><ele>576.0</ele><time>2026-05-03T12:01:24.123Z</time></trkpt><trkpt lat="41.8265198" lon="13.1394197"><ele>576.0</ele><time>2026-05-03T12:01:25.121Z</time></trkpt><trkpt lat="41.8265463" lon="13.1392301"><ele>576.0</ele><time>2026-05-03T12:01:26.107Z</time></trkpt><trkpt lat="41.8265807" lon="13.1390531"><ele>576.0</ele><time>2026-05-03T12:01:27.106Z</time></trkpt><trkpt lat="41.8266138" lon="13.1389019"><ele>576.0</ele><time>2026-05-03T12:01:28.105Z</time></trkpt><trkpt lat="41.8266659" lon="13.1387585"><ele>574.75</ele><time>2026-05-03T12:01:29.114Z</time></trkpt><trkpt lat="41.8267395" lon="13.1386395"><ele>573.5</ele><time>2026-05-03T12:01:30.116Z</time></trkpt><trkpt lat="41.8268317" lon="13.1385361"><ele>572.25</ele><time>2026-05-03T12:01:31.068Z</time></trkpt><trkpt lat="41.8269278" lon="13.1384475"><ele>571.0</ele><time>2026-05-03T12:01:32.095Z</time></trkpt><trkpt lat="41.8270463" lon="13.1383859"><ele>571.0</ele><time>2026-05-03T12:01:33.08Z</time></trkpt><trkpt lat="41.827155" lon="13.1383671"><ele>571.0</ele><time>2026-05-03T12:01:34.071Z</time></trkpt><trkpt lat="41.8272554" lon="13.1383679"><ele>571.0</ele><time>2026-05-03T12:01:35.092Z</time></trkpt><trkpt lat="41.8273618" lon="13.1383886"><ele>571.0</ele><time>2026-05-03T12:01:36.124Z</time></trkpt><trkpt lat="41.8274453" lon="13.1383761"><ele>571.0</ele><time>2026-05-03T12:01:37.108Z</time></trkpt><trkpt lat="41.8275159" lon="13.1383385"><ele>571.0</ele><time>2026-05-03T12:01:38.11Z</time></trkpt><trkpt lat="41.8275465" lon="13.1382409"><ele>571.0</ele><time>2026-05-03T12:01:39.094Z</time></trkpt><trkpt lat="41.8275583" lon="13.1381153"><ele>571.0</ele><time>2026-05-03T12:01:40.115Z</time></trkpt><trkpt lat="41.8275081" lon="13.137999"><ele>571.0</ele><time>2026-05-03T12:01:41.11Z</time></trkpt><trkpt lat="41.8274215" lon="13.1378868"><ele>571.0</ele><time>2026-05-03T12:01:42.123Z</time></trkpt><trkpt lat="41.8273293" lon="13.1377559"><ele>569.5</ele><time>2026-05-03T12:01:43.116Z</time></trkpt><trkpt lat="41.8272417" lon="13.1376126"><ele>568.0</ele><time>2026-05-03T12:01:44.116Z</time></trkpt><trkpt lat="41.8271792" lon="13.1374658"><ele>566.5</ele><time>2026-05-03T12:01:45.082Z</time></trkpt><trkpt lat="41.8271473" lon="13.1373154"><ele>565.0</ele><time>2026-05-03T12:01:46.119Z</time></trkpt><trkpt lat="41.8271173" lon="13.1371745"><ele>564.8333333333334</ele><time>2026-05-03T12:01:47.054Z</time></trkpt><trkpt lat="41.8270786" lon="13.137075"><ele>564.6666666666667</ele><time>2026-05-03T12:01:48.052Z</time></trkpt><trkpt lat="41.8270176" lon="13.1370396"><ele>564.5</ele><time>2026-05-03T12:01:49.071Z</time></trkpt><trkpt lat="41.8269433" lon="13.1370536"><ele>564.3333333333334</ele><time>2026-05-03T12:01:50.061Z</time></trkpt><trkpt lat="41.8268744" lon="13.1371059"><ele>564.1666666666666</ele><time>2026-05-03T12:01:51.068Z</time></trkpt><trkpt lat="41.8268345" lon="13.1372132"><ele>564.0</ele><time>2026-05-03T12:01:52.065Z</time></trkpt><trkpt lat="41.8268108" lon="13.1373493"><ele>560.8</ele><time>2026-05-03T12:01:53.119Z</time></trkpt><trkpt lat="41.8267593" lon="13.1374814"><ele>557.5999999999999</ele><time>2026-05-03T12:01:54.072Z</time></trkpt><trkpt lat="41.8267017" lon="13.1376107"><ele>554.4</ele><time>2026-05-03T12:01:55.098Z</time></trkpt><trkpt lat="41.8266569" lon="13.1377241"><ele>551.1999999999999</ele><time>2026-05-03T12:01:56.108Z</time></trkpt><trkpt lat="41.8266308" lon="13.1378145"><ele>548.0</ele><time>2026-05-03T12:01:57.114Z</time></trkpt><trkpt lat="41.826591" lon="13.1379389"><ele>548.0</ele><time>2026-05-03T12:01:59.078Z</time></trkpt><trkpt lat="41.8265228" lon="13.1380096"><ele>548.0</ele><time>2026-05-03T12:02:01.067Z</time></trkpt><trkpt lat="41.8264475" lon="13.1380068"><ele>548.0</ele><time>2026-05-03T12:02:03.114Z</time></trkpt><trkpt lat="41.8264365" lon="13.1379093"><ele>548.0</ele><time>2026-05-03T12:02:08.072Z</time></trkpt><trkpt lat="41.8264362" lon="13.1377599"><ele>548.0</ele><time>2026-05-03T12:02:10.119Z</time></trkpt><trkpt lat="41.8263975" lon="13.1376631"><ele>548.0</ele><time>2026-05-03T12:02:12.114Z</time></trkpt><trkpt lat="41.826318" lon="13.1376064"><ele>548.0</ele><time>2026-05-03T12:02:14.08Z</time></trkpt><trkpt lat="41.8262355" lon="13.1376549"><ele>548.0</ele><time>2026-05-03T12:02:16.128Z</time></trkpt><trkpt lat="41.8262062" lon="13.1377421"><ele>548.0</ele><time>2026-05-03T12:02:17.1Z</time></trkpt><trkpt lat="41.8261841" lon="13.1378481"><ele>548.0</ele><time>2026-05-03T12:02:18.093Z</time></trkpt><trkpt lat="41.82616" lon="13.1379488"><ele>548.0</ele><time>2026-05-03T12:02:19.094Z</time></trkpt><trkpt lat="41.8261271" lon="13.1380596"><ele>548.0</ele><time>2026-05-03T12:02:20.109Z</time></trkpt><trkpt lat="41.8260731" lon="13.138169"><ele>545.75</ele><time>2026-05-03T12:02:21.113Z</time></trkpt><trkpt lat="41.8259737" lon="13.1382715"><ele>543.5</ele><time>2026-05-03T12:02:22.108Z</time></trkpt><trkpt lat="41.8258504" lon="13.1383532"><ele>541.25</ele><time>2026-05-03T12:02:23.117Z</time></trkpt><trkpt lat="41.8257119" lon="13.1384208"><ele>539.0</ele><time>2026-05-03T12:02:24.126Z</time></trkpt><trkpt lat="41.8255635" lon="13.1384912"><ele>539.0</ele><time>2026-05-03T12:02:25.104Z</time></trkpt><trkpt lat="41.8254128" lon="13.1385745"><ele>539.0</ele><time>2026-05-03T12:02:26.09Z</time></trkpt><trkpt lat="41.8252632" lon="13.1386626"><ele>539.0</ele><time>2026-05-03T12:02:27.09Z</time></trkpt><trkpt lat="41.8251153" lon="13.1387492"><ele>536.0</ele><time>2026-05-03T12:02:28.109Z</time></trkpt><trkpt lat="41.8249706" lon="13.138835"><ele>533.0</ele><time>2026-05-03T12:02:29.105Z</time></trkpt><trkpt lat="41.8248181" lon="13.1389175"><ele>530.0</ele><time>2026-05-03T12:02:30.116Z</time></trkpt><trkpt lat="41.8246581" lon="13.1389836"><ele>530.0</ele><time>2026-05-03T12:02:31.112Z</time></trkpt><trkpt lat="41.8244972" lon="13.1390056"><ele>530.0</ele><time>2026-05-03T12:02:32.101Z</time></trkpt><trkpt lat="41.8243262" lon="13.138977"><ele>530.0</ele><time>2026-05-03T12:02:33.134Z</time></trkpt><trkpt lat="41.8241647" lon="13.13889"><ele>529.0</ele><time>2026-05-03T12:02:34.085Z</time></trkpt><trkpt lat="41.8240058" lon="13.1387637"><ele>528.0</ele><time>2026-05-03T12:02:35.114Z</time></trkpt><trkpt lat="41.8238566" lon="13.1386019"><ele>527.0</ele><time>2026-05-03T12:02:36.126Z</time></trkpt><trkpt lat="41.8237176" lon="13.1384176"><ele>526.6666666666666</ele><time>2026-05-03T12:02:37.111Z</time></trkpt><trkpt lat="41.8235812" lon="13.1382123"><ele>526.3333333333334</ele><time>2026-05-03T12:02:38.117Z</time></trkpt><trkpt lat="41.8234599" lon="13.1379965"><ele>526.0</ele><time>2026-05-03T12:02:39.076Z</time></trkpt><trkpt lat="41.823339" lon="13.1377629"><ele>526.0</ele><time>2026-05-03T12:02:40.097Z</time></trkpt><trkpt lat="41.8232206" lon="13.1375268"><ele>526.0</ele><time>2026-05-03T12:02:41.11Z</time></trkpt><trkpt lat="41.8231118" lon="13.1372873"><ele>526.0</ele><time>2026-05-03T12:02:42.088Z</time></trkpt><trkpt lat="41.8229929" lon="13.1370537"><ele>520.3333333333334</ele><time>2026-05-03T12:02:43.086Z</time></trkpt><trkpt lat="41.8228533" lon="13.1368448"><ele>514.6666666666666</ele><time>2026-05-03T12:02:44.072Z</time></trkpt><trkpt lat="41.8226979" lon="13.1366573"><ele>509.0</ele><time>2026-05-03T12:02:45.067Z</time></trkpt><trkpt lat="41.8225299" lon="13.136488"><ele>508.0</ele><time>2026-05-03T12:02:46.092Z</time></trkpt><trkpt lat="41.8223519" lon="13.136356"><ele>507.0</ele><time>2026-05-03T12:02:47.112Z</time></trkpt><trkpt lat="41.8221558" lon="13.1362844"><ele>506.0</ele><time>2026-05-03T12:02:48.1Z</time></trkpt><trkpt lat="41.821942" lon="13.1362338"><ele>506.66666666666663</ele><time>2026-05-03T12:02:49.111Z</time></trkpt><trkpt lat="41.8217324" lon="13.136209"><ele>507.33333333333337</ele><time>2026-05-03T12:02:50.106Z</time></trkpt><trkpt lat="41.8215187" lon="13.1361992"><ele>508.0</ele><time>2026-05-03T12:02:51.101Z</time></trkpt><trkpt lat="41.8213151" lon="13.1361921"><ele>508.0</ele><time>2026-05-03T12:02:52.098Z</time></trkpt><trkpt lat="41.8211222" lon="13.1361992"><ele>508.0</ele><time>2026-05-03T12:02:53.113Z</time></trkpt><trkpt lat="41.8209357" lon="13.1362221"><ele>508.0</ele><time>2026-05-03T12:02:54.111Z</time></trkpt><trkpt lat="41.82074" lon="13.1362795"><ele>505.6666666666667</ele><time>2026-05-03T12:02:55.091Z</time></trkpt><trkpt lat="41.8205409" lon="13.1363738"><ele>503.33333333333337</ele><time>2026-05-03T12:02:56.113Z</time></trkpt><trkpt lat="41.820345" lon="13.1364869"><ele>501.0</ele><time>2026-05-03T12:02:57.086Z</time></trkpt><trkpt lat="41.8201506" lon="13.1366022"><ele>504.33333333333337</ele><time>2026-05-03T12:02:58.102Z</time></trkpt><trkpt lat="41.8199502" lon="13.1367215"><ele>507.6666666666667</ele><time>2026-05-03T12:02:59.126Z</time></trkpt><trkpt lat="41.8197523" lon="13.1368361"><ele>511.0</ele><time>2026-05-03T12:03:00.088Z</time></trkpt><trkpt lat="41.8195471" lon="13.1369406"><ele>511.0</ele><time>2026-05-03T12:03:01.106Z</time></trkpt><trkpt lat="41.8193358" lon="13.1370373"><ele>511.0</ele><time>2026-05-03T12:03:02.098Z</time></trkpt><trkpt lat="41.8191314" lon="13.1371169"><ele>511.0</ele><time>2026-05-03T12:03:03.067Z</time></trkpt><trkpt lat="41.8189322" lon="13.1371811"><ele>505.33333333333337</ele><time>2026-05-03T12:03:04.078Z</time></trkpt><trkpt lat="41.8187337" lon="13.1372261"><ele>499.66666666666663</ele><time>2026-05-03T12:03:05.103Z</time></trkpt><trkpt lat="41.8185272" lon="13.1372439"><ele>494.0</ele><time>2026-05-03T12:03:06.124Z</time></trkpt><trkpt lat="41.8183121" lon="13.1372426"><ele>486.0</ele><time>2026-05-03T12:03:07.111Z</time></trkpt><trkpt lat="41.8180875" lon="13.1372568"><ele>478.0</ele><time>2026-05-03T12:03:08.102Z</time></trkpt><trkpt lat="41.8178624" lon="13.1372765"><ele>478.0</ele><time>2026-05-03T12:03:09.11Z</time></trkpt><trkpt lat="41.8176461" lon="13.1372847"><ele>478.0</ele><time>2026-05-03T12:03:10.109Z</time></trkpt><trkpt lat="41.8174359" lon="13.1372774"><ele>478.0</ele><time>2026-05-03T12:03:11.122Z</time></trkpt><trkpt lat="41.8172342" lon="13.1372748"><ele>478.0</ele><time>2026-05-03T12:03:12.079Z</time></trkpt><trkpt lat="41.8170444" lon="13.1372837"><ele>478.0</ele><time>2026-05-03T12:03:13.116Z</time></trkpt><trkpt lat="41.8168668" lon="13.1372966"><ele>478.0</ele><time>2026-05-03T12:03:14.07Z</time></trkpt><trkpt lat="41.8167009" lon="13.1372899"><ele>479.0</ele><time>2026-05-03T12:03:15.089Z</time></trkpt><trkpt lat="41.8165488" lon="13.1372395"><ele>480.0</ele><time>2026-05-03T12:03:16.121Z</time></trkpt><trkpt lat="41.816417" lon="13.137186"><ele>481.0</ele><time>2026-05-03T12:03:17.108Z</time></trkpt><trkpt lat="41.816315" lon="13.1371298"><ele>482.0</ele><time>2026-05-03T12:03:18.103Z</time></trkpt><trkpt lat="41.8162482" lon="13.1370692"><ele>481.99999999999994</ele><time>2026-05-03T12:03:19.109Z</time></trkpt><trkpt lat="41.8162079" lon="13.1369858"><ele>482.0</ele><time>2026-05-03T12:03:20.103Z</time></trkpt><trkpt lat="41.8161743" lon="13.1369053"><ele>482.0</ele><time>2026-05-03T12:03:21.117Z</time></trkpt><trkpt lat="41.8161458" lon="13.1368231"><ele>482.0</ele><time>2026-05-03T12:03:22.106Z</time></trkpt><trkpt lat="41.8161142" lon="13.1367175"><ele>481.99999999999994</ele><time>2026-05-03T12:03:23.078Z</time></trkpt><trkpt lat="41.8160835" lon="13.1365933"><ele>482.0</ele><time>2026-05-03T12:03:24.099Z</time></trkpt><trkpt lat="41.8160568" lon="13.1364533"><ele>482.5</ele><time>2026-05-03T12:03:25.109Z</time></trkpt><trkpt lat="41.8160312" lon="13.1363019"><ele>483.0</ele><time>2026-05-03T12:03:26.064Z</time></trkpt><trkpt lat="41.8160044" lon="13.1361454"><ele>483.5</ele><time>2026-05-03T12:03:27.098Z</time></trkpt><trkpt lat="41.8159768" lon="13.1359864"><ele>484.0</ele><time>2026-05-03T12:03:28.104Z</time></trkpt><trkpt lat="41.8159527" lon="13.1358161"><ele>480.0</ele><time>2026-05-03T12:03:29.1Z</time></trkpt><trkpt lat="41.8159297" lon="13.1356419"><ele>476.0</ele><time>2026-05-03T12:03:30.113Z</time></trkpt><trkpt lat="41.8159014" lon="13.1354696"><ele>472.0</ele><time>2026-05-03T12:03:31.072Z</time></trkpt><trkpt lat="41.8158584" lon="13.1352958"><ele>468.0</ele><time>2026-05-03T12:03:32.06Z</time></trkpt><trkpt lat="41.8157991" lon="13.1351354"><ele>468.0</ele><time>2026-05-03T12:03:33.095Z</time></trkpt><trkpt lat="41.8157164" lon="13.1349884"><ele>468.0</ele><time>2026-05-03T12:03:34.104Z</time></trkpt><trkpt lat="41.8156287" lon="13.1348359"><ele>468.0</ele><time>2026-05-03T12:03:35.09Z</time></trkpt><trkpt lat="41.8155305" lon="13.1346953"><ele>468.0</ele><time>2026-05-03T12:03:36.1Z</time></trkpt><trkpt lat="41.8154116" lon="13.1345745"><ele>464.75</ele><time>2026-05-03T12:03:37.093Z</time></trkpt><trkpt lat="41.8152837" lon="13.1344729"><ele>461.5</ele><time>2026-05-03T12:03:38.091Z</time></trkpt><trkpt lat="41.8151545" lon="13.1343806"><ele>458.25</ele><time>2026-05-03T12:03:39.113Z</time></trkpt><trkpt lat="41.8150185" lon="13.1343006"><ele>455.0</ele><time>2026-05-03T12:03:40.119Z</time></trkpt><trkpt lat="41.8148816" lon="13.1342248"><ele>454.75</ele><time>2026-05-03T12:03:41.093Z</time></trkpt><trkpt lat="41.8147501" lon="13.1341597"><ele>454.5</ele><time>2026-05-03T12:03:42.087Z</time></trkpt><trkpt lat="41.8146213" lon="13.1341075"><ele>454.25</ele><time>2026-05-03T12:03:43.101Z</time></trkpt><trkpt lat="41.8144942" lon="13.1340701"><ele>454.0</ele><time>2026-05-03T12:03:44.12Z</time></trkpt><trkpt lat="41.8143613" lon="13.1340611"><ele>451.6666666666667</ele><time>2026-05-03T12:03:45.075Z</time></trkpt><trkpt lat="41.8142163" lon="13.1340893"><ele>449.33333333333337</ele><time>2026-05-03T12:03:46.1Z</time></trkpt><trkpt lat="41.8140608" lon="13.1341362"><ele>447.0</ele><time>2026-05-03T12:03:47.121Z</time></trkpt><trkpt lat="41.8139034" lon="13.1341901"><ele>447.0</ele><time>2026-05-03T12:03:48.135Z</time></trkpt><trkpt lat="41.8137484" lon="13.1342411"><ele>447.0</ele><time>2026-05-03T12:03:49.101Z</time></trkpt><trkpt lat="41.8136019" lon="13.1342924"><ele>447.0</ele><time>2026-05-03T12:03:50.122Z</time></trkpt><trkpt lat="41.8134565" lon="13.13434"><ele>443.75</ele><time>2026-05-03T12:03:51.121Z</time></trkpt><trkpt lat="41.8133068" lon="13.1343759"><ele>440.5</ele><time>2026-05-03T12:03:52.107Z</time></trkpt><trkpt lat="41.8131694" lon="13.1344056"><ele>437.25</ele><time>2026-05-03T12:03:53.126Z</time></trkpt><trkpt lat="41.8130497" lon="13.1344377"><ele>434.0</ele><time>2026-05-03T12:03:54.096Z</time></trkpt><trkpt lat="41.81295" lon="13.1344712"><ele>434.0</ele><time>2026-05-03T12:03:55.115Z</time></trkpt><trkpt lat="41.8128547" lon="13.1344886"><ele>434.0</ele><time>2026-05-03T12:03:56.075Z</time></trkpt><trkpt lat="41.8127548" lon="13.1344648"><ele>434.0</ele><time>2026-05-03T12:03:57.105Z</time></trkpt><trkpt lat="41.8126543" lon="13.1343992"><ele>434.0</ele><time>2026-05-03T12:03:58.111Z</time></trkpt><trkpt lat="41.8125405" lon="13.1342991"><ele>434.0</ele><time>2026-05-03T12:03:59.102Z</time></trkpt><trkpt lat="41.8124221" lon="13.1341994"><ele>430.3333333333333</ele><time>2026-05-03T12:04:00.088Z</time></trkpt><trkpt lat="41.8122892" lon="13.1341013"><ele>426.66666666666663</ele><time>2026-05-03T12:04:01.086Z</time></trkpt><trkpt lat="41.8121492" lon="13.1340045"><ele>423.0</ele><time>2026-05-03T12:04:02.058Z</time></trkpt><trkpt lat="41.8120161" lon="13.1339112"><ele>420.0</ele><time>2026-05-03T12:04:03.073Z</time></trkpt><trkpt lat="41.8118833" lon="13.1338211"><ele>417.0</ele><time>2026-05-03T12:04:04.051Z</time></trkpt><trkpt lat="41.8117573" lon="13.1337428"><ele>414.0</ele><time>2026-05-03T12:04:05.059Z</time></trkpt><trkpt lat="41.8116288" lon="13.1336686"><ele>411.0</ele><time>2026-05-03T12:04:06.063Z</time></trkpt><trkpt lat="41.811502" lon="13.133618"><ele>409.5</ele><time>2026-05-03T12:04:07.068Z</time></trkpt><trkpt lat="41.8113685" lon="13.1335768"><ele>408.0</ele><time>2026-05-03T12:04:08.062Z</time></trkpt><trkpt lat="41.8112359" lon="13.1335242"><ele>406.5</ele><time>2026-05-03T12:04:09.067Z</time></trkpt><trkpt lat="41.8110981" lon="13.1334617"><ele>405.0</ele><time>2026-05-03T12:04:10.074Z</time></trkpt><trkpt lat="41.8109579" lon="13.1334012"><ele>401.33333333333337</ele><time>2026-05-03T12:04:11.059Z</time></trkpt><trkpt lat="41.810816" lon="13.13335"><ele>397.6666666666667</ele><time>2026-05-03T12:04:12.071Z</time></trkpt><trkpt lat="41.8106671" lon="13.1332987"><ele>394.0</ele><time>2026-05-03T12:04:13.061Z</time></trkpt><trkpt lat="41.8105125" lon="13.1332787"><ele>394.0</ele><time>2026-05-03T12:04:14.083Z</time></trkpt><trkpt lat="41.8103389" lon="13.1332886"><ele>394.0</ele><time>2026-05-03T12:04:15.077Z</time></trkpt><trkpt lat="41.8101524" lon="13.1333042"><ele>394.0</ele><time>2026-05-03T12:04:16.084Z</time></trkpt><trkpt lat="41.8099635" lon="13.1333079"><ele>390.6666666666667</ele><time>2026-05-03T12:04:17.073Z</time></trkpt><trkpt lat="41.8097692" lon="13.1332952"><ele>387.33333333333337</ele><time>2026-05-03T12:04:18.103Z</time></trkpt><trkpt lat="41.8095707" lon="13.1332818"><ele>384.0</ele><time>2026-05-03T12:04:19.102Z</time></trkpt><trkpt lat="41.8093701" lon="13.1332697"><ele>382.3333333333333</ele><time>2026-05-03T12:04:20.097Z</time></trkpt><trkpt lat="41.8091864" lon="13.1332586"><ele>380.66666666666663</ele><time>2026-05-03T12:04:21.093Z</time></trkpt><trkpt lat="41.8090125" lon="13.1332525"><ele>379.0</ele><time>2026-05-03T12:04:22.089Z</time></trkpt><trkpt lat="41.8088523" lon="13.133237"><ele>379.0</ele><time>2026-05-03T12:04:23.096Z</time></trkpt><trkpt lat="41.8086977" lon="13.1332304"><ele>379.0</ele><time>2026-05-03T12:04:24.096Z</time></trkpt><trkpt lat="41.8085568" lon="13.1332277"><ele>379.0</ele><time>2026-05-03T12:04:25.074Z</time></trkpt><trkpt lat="41.8084138" lon="13.1332208"><ele>379.0</ele><time>2026-05-03T12:04:26.078Z</time></trkpt><trkpt lat="41.8082752" lon="13.1332023"><ele>378.25</ele><time>2026-05-03T12:04:27.08Z</time></trkpt><trkpt lat="41.8081404" lon="13.1331774"><ele>377.5</ele><time>2026-05-03T12:04:28.103Z</time></trkpt><trkpt lat="41.8079999" lon="13.1331649"><ele>376.75</ele><time>2026-05-03T12:04:29.103Z</time></trkpt><trkpt lat="41.8078468" lon="13.133168"><ele>376.0</ele><time>2026-05-03T12:04:30.1Z</time></trkpt><trkpt lat="41.8076953" lon="13.1331932"><ele>375.0</ele><time>2026-05-03T12:04:31.076Z</time></trkpt><trkpt lat="41.8075443" lon="13.1332333"><ele>374.0</ele><time>2026-05-03T12:04:32.063Z</time></trkpt><trkpt lat="41.8074021" lon="13.1332655"><ele>373.0</ele><time>2026-05-03T12:04:33.087Z</time></trkpt><trkpt lat="41.8072782" lon="13.1332965"><ele>372.0</ele><time>2026-05-03T12:04:34.084Z</time></trkpt><trkpt lat="41.8071837" lon="13.1333235"><ele>372.0</ele><time>2026-05-03T12:04:35.077Z</time></trkpt><trkpt lat="41.8070777" lon="13.1333367"><ele>372.0</ele><time>2026-05-03T12:04:37.07Z</time></trkpt><trkpt lat="41.8070057" lon="13.133339"><ele>372.0</ele><time>2026-05-03T12:04:39.097Z</time></trkpt><trkpt lat="41.8069358" lon="13.1333262"><ele>372.0</ele><time>2026-05-03T12:04:41.062Z</time></trkpt><trkpt lat="41.8068112" lon="13.1333652"><ele>372.0</ele><time>2026-05-03T12:04:43.107Z</time></trkpt><trkpt lat="41.806714" lon="13.133424"><ele>371.25</ele><time>2026-05-03T12:04:44.103Z</time></trkpt><trkpt lat="41.8066114" lon="13.1334873"><ele>370.5</ele><time>2026-05-03T12:04:45.105Z</time></trkpt><trkpt lat="41.8065003" lon="13.1335606"><ele>369.75</ele><time>2026-05-03T12:04:46.104Z</time></trkpt><trkpt lat="41.8063759" lon="13.1336365"><ele>369.0</ele><time>2026-05-03T12:04:47.102Z</time></trkpt><trkpt lat="41.8062359" lon="13.1336809"><ele>369.0</ele><time>2026-05-03T12:04:48.093Z</time></trkpt><trkpt lat="41.8060985" lon="13.1336928"><ele>369.0</ele><time>2026-05-03T12:04:49.074Z</time></trkpt><trkpt lat="41.8059636" lon="13.1336809"><ele>369.0</ele><time>2026-05-03T12:04:50.093Z</time></trkpt><trkpt lat="41.8058258" lon="13.1336479"><ele>369.0</ele><time>2026-05-03T12:04:51.115Z</time></trkpt><trkpt lat="41.8056857" lon="13.1335902"><ele>367.25</ele><time>2026-05-03T12:04:52.09Z</time></trkpt><trkpt lat="41.8055657" lon="13.1335293"><ele>365.5</ele><time>2026-05-03T12:04:53.075Z</time></trkpt><trkpt lat="41.805452" lon="13.1334799"><ele>363.75</ele><time>2026-05-03T12:04:54.105Z</time></trkpt><trkpt lat="41.8053476" lon="13.1334555"><ele>362.0</ele><time>2026-05-03T12:04:55.094Z</time></trkpt><trkpt lat="41.8052382" lon="13.1334694"><ele>359.75</ele><time>2026-05-03T12:04:56.058Z</time></trkpt><trkpt lat="41.8051383" lon="13.133529"><ele>357.5</ele><time>2026-05-03T12:04:57.063Z</time></trkpt><trkpt lat="41.8050354" lon="13.1336203"><ele>355.25</ele><time>2026-05-03T12:04:58.074Z</time></trkpt><trkpt lat="41.8049439" lon="13.133729"><ele>353.0</ele><time>2026-05-03T12:04:59.106Z</time></trkpt><trkpt lat="41.804849" lon="13.1338516"><ele>353.0</ele><time>2026-05-03T12:05:00.108Z</time></trkpt><trkpt lat="41.8047471" lon="13.1339622"><ele>353.0</ele><time>2026-05-03T12:05:01.086Z</time></trkpt><trkpt lat="41.8046318" lon="13.1340533"><ele>353.0</ele><time>2026-05-03T12:05:02.075Z</time></trkpt><trkpt lat="41.8045005" lon="13.1341323"><ele>353.0</ele><time>2026-05-03T12:05:03.076Z</time></trkpt><trkpt lat="41.8043719" lon="13.1342073"><ele>351.25</ele><time>2026-05-03T12:05:04.099Z</time></trkpt><trkpt lat="41.8042504" lon="13.1342749"><ele>349.5</ele><time>2026-05-03T12:05:05.092Z</time></trkpt><trkpt lat="41.8041296" lon="13.1343381"><ele>347.75</ele><time>2026-05-03T12:05:06.099Z</time></trkpt><trkpt lat="41.8040129" lon="13.1344042"><ele>346.0</ele><time>2026-05-03T12:05:07.097Z</time></trkpt><trkpt lat="41.803886" lon="13.1344853"><ele>346.0</ele><time>2026-05-03T12:05:08.085Z</time></trkpt><trkpt lat="41.8037388" lon="13.1345864"><ele>346.0</ele><time>2026-05-03T12:05:09.108Z</time></trkpt><trkpt lat="41.8035737" lon="13.134691"><ele>346.0</ele><time>2026-05-03T12:05:10.093Z</time></trkpt><trkpt lat="41.8034047" lon="13.1347893"><ele>344.3333333333333</ele><time>2026-05-03T12:05:11.095Z</time></trkpt><trkpt lat="41.8032342" lon="13.1348732"><ele>342.6666666666667</ele><time>2026-05-03T12:05:12.118Z</time></trkpt><trkpt lat="41.8030585" lon="13.1349754"><ele>341.0</ele><time>2026-05-03T12:05:13.081Z</time></trkpt><trkpt lat="41.8028872" lon="13.1350924"><ele>341.0</ele><time>2026-05-03T12:05:14.075Z</time></trkpt><trkpt lat="41.8027232" lon="13.1352295"><ele>341.0</ele><time>2026-05-03T12:05:15.08Z</time></trkpt><trkpt lat="41.802556" lon="13.1353641"><ele>341.0</ele><time>2026-05-03T12:05:16.11Z</time></trkpt><trkpt lat="41.8023841" lon="13.1354826"><ele>339.6666666666667</ele><time>2026-05-03T12:05:17.102Z</time></trkpt><trkpt lat="41.8021986" lon="13.1355878"><ele>338.3333333333333</ele><time>2026-05-03T12:05:18.095Z</time></trkpt><trkpt lat="41.8020089" lon="13.1356864"><ele>337.0</ele><time>2026-05-03T12:05:19.078Z</time></trkpt><trkpt lat="41.8018043" lon="13.1357582"><ele>336.66666666666663</ele><time>2026-05-03T12:05:20.106Z</time></trkpt><trkpt lat="41.8015984" lon="13.1358251"><ele>336.3333333333333</ele><time>2026-05-03T12:05:21.108Z</time></trkpt><trkpt lat="41.8013976" lon="13.1358907"><ele>336.0</ele><time>2026-05-03T12:05:22.115Z</time></trkpt><trkpt lat="41.8011982" lon="13.1359731"><ele>335.6666666666667</ele><time>2026-05-03T12:05:23.067Z</time></trkpt><trkpt lat="41.8009986" lon="13.1360541"><ele>335.33333333333337</ele><time>2026-05-03T12:05:24.113Z</time></trkpt><trkpt lat="41.8007953" lon="13.1361343"><ele>335.0</ele><time>2026-05-03T12:05:25.064Z</time></trkpt><trkpt lat="41.8005987" lon="13.1362127"><ele>335.0</ele><time>2026-05-03T12:05:26.105Z</time></trkpt><trkpt lat="41.8004197" lon="13.136288"><ele>335.0</ele><time>2026-05-03T12:05:27.099Z</time></trkpt><trkpt lat="41.8002469" lon="13.136363"><ele>335.0</ele><time>2026-05-03T12:05:28.092Z</time></trkpt><trkpt lat="41.8000722" lon="13.136431"><ele>335.6666666666667</ele><time>2026-05-03T12:05:29.109Z</time></trkpt><trkpt lat="41.7998914" lon="13.1365074"><ele>336.3333333333333</ele><time>2026-05-03T12:05:30.105Z</time></trkpt><trkpt lat="41.7997107" lon="13.1365888"><ele>337.0</ele><time>2026-05-03T12:05:31.104Z</time></trkpt><trkpt lat="41.7995289" lon="13.1366768"><ele>337.0</ele><time>2026-05-03T12:05:32.103Z</time></trkpt><trkpt lat="41.7993499" lon="13.1367791"><ele>337.0</ele><time>2026-05-03T12:05:33.093Z</time></trkpt><trkpt lat="41.7991715" lon="13.1369055"><ele>337.0</ele><time>2026-05-03T12:05:34.114Z</time></trkpt><trkpt lat="41.7989951" lon="13.1370607"><ele>336.66666666666663</ele><time>2026-05-03T12:05:35.084Z</time></trkpt><trkpt lat="41.7988309" lon="13.1372305"><ele>336.3333333333333</ele><time>2026-05-03T12:05:36.104Z</time></trkpt><trkpt lat="41.7986676" lon="13.1373981"><ele>336.0</ele><time>2026-05-03T12:05:37.095Z</time></trkpt><trkpt lat="41.7985137" lon="13.1375551"><ele>333.6666666666667</ele><time>2026-05-03T12:05:38.096Z</time></trkpt><trkpt lat="41.7983766" lon="13.1376938"><ele>331.33333333333337</ele><time>2026-05-03T12:05:39.107Z</time></trkpt><trkpt lat="41.7982462" lon="13.1378139"><ele>329.0</ele><time>2026-05-03T12:05:40.103Z</time></trkpt><trkpt lat="41.798132" lon="13.1379229"><ele>329.0</ele><time>2026-05-03T12:05:41.104Z</time></trkpt><trkpt lat="41.7980356" lon="13.138015"><ele>329.0</ele><time>2026-05-03T12:05:42.109Z</time></trkpt><trkpt lat="41.7979551" lon="13.138095"><ele>329.0</ele><time>2026-05-03T12:05:43.109Z</time></trkpt><trkpt lat="41.7978843" lon="13.1381608"><ele>329.0</ele><time>2026-05-03T12:05:44.109Z</time></trkpt><trkpt lat="41.7977857" lon="13.1382162"><ele>329.0</ele><time>2026-05-03T12:05:46.069Z</time></trkpt><trkpt lat="41.7977218" lon="13.1382363"><ele>327.79999999999995</ele><time>2026-05-03T12:05:50.108Z</time></trkpt><trkpt lat="41.7976209" lon="13.1381565"><ele>326.59999999999997</ele><time>2026-05-03T12:05:53.074Z</time></trkpt><trkpt lat="41.7975876" lon="13.1380433"><ele>325.4</ele><time>2026-05-03T12:05:54.092Z</time></trkpt><trkpt lat="41.797569" lon="13.1379051"><ele>324.2</ele><time>2026-05-03T12:05:55.075Z</time></trkpt><trkpt lat="41.7975305" lon="13.1377584"><ele>323.0</ele><time>2026-05-03T12:05:56.071Z</time></trkpt><trkpt lat="41.7974787" lon="13.137582"><ele>323.0</ele><time>2026-05-03T12:05:57.087Z</time></trkpt><trkpt lat="41.797406" lon="13.1373979"><ele>323.0</ele><time>2026-05-03T12:05:58.069Z</time></trkpt><trkpt lat="41.7973204" lon="13.1371873"><ele>323.0</ele><time>2026-05-03T12:05:59.054Z</time></trkpt><trkpt lat="41.7972224" lon="13.1369701"><ele>323.0</ele><time>2026-05-03T12:06:00.057Z</time></trkpt><trkpt lat="41.7971127" lon="13.1367688"><ele>323.0</ele><time>2026-05-03T12:06:01.065Z</time></trkpt><trkpt lat="41.7969973" lon="13.1365646"><ele>323.0</ele><time>2026-05-03T12:06:02.076Z</time></trkpt><trkpt lat="41.7965977" lon="13.1359368"><ele>323.0</ele><time>2026-05-03T12:06:05.075Z</time></trkpt><trkpt lat="41.7964438" lon="13.1357408"><ele>323.0</ele><time>2026-05-03T12:06:06.058Z</time></trkpt><trkpt lat="41.7962807" lon="13.1355523"><ele>323.0</ele><time>2026-05-03T12:06:07.083Z</time></trkpt><trkpt lat="41.7961164" lon="13.1353825"><ele>320.5</ele><time>2026-05-03T12:06:08.078Z</time></trkpt><trkpt lat="41.795934" lon="13.1352178"><ele>318.0</ele><time>2026-05-03T12:06:09.057Z</time></trkpt><trkpt lat="41.7957391" lon="13.1350531"><ele>318.0</ele><time>2026-05-03T12:06:10.082Z</time></trkpt><trkpt lat="41.7955177" lon="13.1348961"><ele>318.0</ele><time>2026-05-03T12:06:11.11Z</time></trkpt><trkpt lat="41.7952817" lon="13.1347433"><ele>315.0</ele><time>2026-05-03T12:06:12.084Z</time></trkpt><trkpt lat="41.7950211" lon="13.134601"><ele>312.0</ele><time>2026-05-03T12:06:13.1Z</time></trkpt><trkpt lat="41.7947505" lon="13.134451"><ele>312.0</ele><time>2026-05-03T12:06:14.078Z</time></trkpt><trkpt lat="41.7944953" lon="13.134309"><ele>312.0</ele><time>2026-05-03T12:06:15.077Z</time></trkpt><trkpt lat="41.7942542" lon="13.1341618"><ele>311.0</ele><time>2026-05-03T12:06:16.102Z</time></trkpt><trkpt lat="41.7940115" lon="13.1340129"><ele>310.0</ele><time>2026-05-03T12:06:17.12Z</time></trkpt><trkpt lat="41.7937653" lon="13.1338696"><ele>310.0</ele><time>2026-05-03T12:06:18.08Z</time></trkpt><trkpt lat="41.7935174" lon="13.133714"><ele>310.0</ele><time>2026-05-03T12:06:19.119Z</time></trkpt><trkpt lat="41.7932736" lon="13.1335671"><ele>312.0</ele><time>2026-05-03T12:06:20.116Z</time></trkpt><trkpt lat="41.7930297" lon="13.1334191"><ele>314.0</ele><time>2026-05-03T12:06:21.105Z</time></trkpt><trkpt lat="41.7928055" lon="13.1332717"><ele>317.0</ele><time>2026-05-03T12:06:22.131Z</time></trkpt><trkpt lat="41.7925886" lon="13.1330919"><ele>320.0</ele><time>2026-05-03T12:06:23.095Z</time></trkpt><trkpt lat="41.7923938" lon="13.132908"><ele>320.0</ele><time>2026-05-03T12:06:24.123Z</time></trkpt><trkpt lat="41.7921988" lon="13.1327112"><ele>320.0</ele><time>2026-05-03T12:06:25.076Z</time></trkpt><trkpt lat="41.7920025" lon="13.1325035"><ele>319.5</ele><time>2026-05-03T12:06:26.08Z</time></trkpt><trkpt lat="41.7918138" lon="13.1322804"><ele>319.0</ele><time>2026-05-03T12:06:27.116Z</time></trkpt><trkpt lat="41.7916339" lon="13.1320391"><ele>319.0</ele><time>2026-05-03T12:06:28.118Z</time></trkpt><trkpt lat="41.7914745" lon="13.1317687"><ele>319.0</ele><time>2026-05-03T12:06:29.08Z</time></trkpt><trkpt lat="41.7913114" lon="13.1314988"><ele>320.0</ele><time>2026-05-03T12:06:30.077Z</time></trkpt><trkpt lat="41.7911549" lon="13.1312276"><ele>321.0</ele><time>2026-05-03T12:06:31.087Z</time></trkpt><trkpt lat="41.7910033" lon="13.1309537"><ele>321.0</ele><time>2026-05-03T12:06:32.102Z</time></trkpt><trkpt lat="41.7908614" lon="13.1306758"><ele>321.0</ele><time>2026-05-03T12:06:33.116Z</time></trkpt><trkpt lat="41.790719" lon="13.1303895"><ele>321.0</ele><time>2026-05-03T12:06:34.086Z</time></trkpt><trkpt lat="41.7905732" lon="13.1301118"><ele>321.0</ele><time>2026-05-03T12:06:35.097Z</time></trkpt><trkpt lat="41.7904295" lon="13.1298363"><ele>321.5</ele><time>2026-05-03T12:06:36.097Z</time></trkpt><trkpt lat="41.7902828" lon="13.1295596"><ele>322.0</ele><time>2026-05-03T12:06:37.087Z</time></trkpt><trkpt lat="41.7901452" lon="13.1292908"><ele>323.0</ele><time>2026-05-03T12:06:38.093Z</time></trkpt><trkpt lat="41.7900179" lon="13.1290489"><ele>324.0</ele><time>2026-05-03T12:06:39.102Z</time></trkpt><trkpt lat="41.7899006" lon="13.1288222"><ele>325.0</ele><time>2026-05-03T12:06:40.107Z</time></trkpt><trkpt lat="41.7897793" lon="13.128592"><ele>325.0</ele><time>2026-05-03T12:06:41.069Z</time></trkpt><trkpt lat="41.7896491" lon="13.1283569"><ele>325.0</ele><time>2026-05-03T12:06:42.107Z</time></trkpt><trkpt lat="41.7895178" lon="13.1281123"><ele>325.0</ele><time>2026-05-03T12:06:43.099Z</time></trkpt><trkpt lat="41.7893792" lon="13.1278584"><ele>325.0</ele><time>2026-05-03T12:06:44.083Z</time></trkpt><trkpt lat="41.7892338" lon="13.127589"><ele>325.0</ele><time>2026-05-03T12:06:45.102Z</time></trkpt><trkpt lat="41.7890824" lon="13.1273204"><ele>326.0</ele><time>2026-05-03T12:06:46.095Z</time></trkpt><trkpt lat="41.7889304" lon="13.1270416"><ele>327.0</ele><time>2026-05-03T12:06:47.117Z</time></trkpt><trkpt lat="41.7887799" lon="13.1267543"><ele>328.5</ele><time>2026-05-03T12:06:48.092Z</time></trkpt><trkpt lat="41.7886339" lon="13.1264746"><ele>330.0</ele><time>2026-05-03T12:06:49.086Z</time></trkpt><trkpt lat="41.7884888" lon="13.1261914"><ele>325.5</ele><time>2026-05-03T12:06:50.102Z</time></trkpt><trkpt lat="41.788339" lon="13.1259064"><ele>321.0</ele><time>2026-05-03T12:06:51.113Z</time></trkpt><trkpt lat="41.7881874" lon="13.125624"><ele>319.0</ele><time>2026-05-03T12:06:52.111Z</time></trkpt><trkpt lat="41.7880363" lon="13.1253447"><ele>317.0</ele><time>2026-05-03T12:06:53.119Z</time></trkpt><trkpt lat="41.787882" lon="13.1250601"><ele>311.0</ele><time>2026-05-03T12:06:54.101Z</time></trkpt><trkpt lat="41.7877313" lon="13.1247773"><ele>305.0</ele><time>2026-05-03T12:06:55.115Z</time></trkpt><trkpt lat="41.7875791" lon="13.1244961"><ele>304.5</ele><time>2026-05-03T12:06:56.088Z</time></trkpt><trkpt lat="41.7874229" lon="13.1242174"><ele>304.0</ele><time>2026-05-03T12:06:57.109Z</time></trkpt><trkpt lat="41.7872584" lon="13.1239426"><ele>301.5</ele><time>2026-05-03T12:06:58.101Z</time></trkpt><trkpt lat="41.7870838" lon="13.1236809"><ele>299.0</ele><time>2026-05-03T12:06:59.106Z</time></trkpt><trkpt lat="41.7868979" lon="13.1234207"><ele>300.5</ele><time>2026-05-03T12:07:00.109Z</time></trkpt><trkpt lat="41.7866927" lon="13.1231762"><ele>302.0</ele><time>2026-05-03T12:07:01.094Z</time></trkpt><trkpt lat="41.7864853" lon="13.1229411"><ele>302.0</ele><time>2026-05-03T12:07:02.14Z</time></trkpt><trkpt lat="41.786278" lon="13.1227247"><ele>302.0</ele><time>2026-05-03T12:07:03.07Z</time></trkpt><trkpt lat="41.7860671" lon="13.1225124"><ele>305.0</ele><time>2026-05-03T12:07:04.086Z</time></trkpt><trkpt lat="41.7858566" lon="13.1223172"><ele>308.0</ele><time>2026-05-03T12:07:05.078Z</time></trkpt><trkpt lat="41.7856406" lon="13.1221386"><ele>308.0</ele><time>2026-05-03T12:07:06.058Z</time></trkpt><trkpt lat="41.7854142" lon="13.1219722"><ele>308.0</ele><time>2026-05-03T12:07:07.117Z</time></trkpt><trkpt lat="41.7852009" lon="13.1218335"><ele>305.0</ele><time>2026-05-03T12:07:08.078Z</time></trkpt><trkpt lat="41.7849794" lon="13.1217065"><ele>302.0</ele><time>2026-05-03T12:07:09.075Z</time></trkpt><trkpt lat="41.7847559" lon="13.1215912"><ele>302.5</ele><time>2026-05-03T12:07:10.119Z</time></trkpt><trkpt lat="41.7845312" lon="13.121482"><ele>303.0</ele><time>2026-05-03T12:07:11.12Z</time></trkpt><trkpt lat="41.7842928" lon="13.1213817"><ele>300.5</ele><time>2026-05-03T12:07:12.125Z</time></trkpt><trkpt lat="41.7840452" lon="13.1212952"><ele>298.0</ele><time>2026-05-03T12:07:13.134Z</time></trkpt><trkpt lat="41.7837908" lon="13.1212133"><ele>298.0</ele><time>2026-05-03T12:07:14.122Z</time></trkpt><trkpt lat="41.7835335" lon="13.1211394"><ele>298.0</ele><time>2026-05-03T12:07:15.092Z</time></trkpt><trkpt lat="41.7832651" lon="13.1210678"><ele>295.0</ele><time>2026-05-03T12:07:16.123Z</time></trkpt><trkpt lat="41.7829989" lon="13.1210001"><ele>292.0</ele><time>2026-05-03T12:07:17.137Z</time></trkpt><trkpt lat="41.7827321" lon="13.1209299"><ele>292.5</ele><time>2026-05-03T12:07:18.132Z</time></trkpt><trkpt lat="41.7824657" lon="13.1208616"><ele>293.0</ele><time>2026-05-03T12:07:19.117Z</time></trkpt><trkpt lat="41.7821958" lon="13.1207982"><ele>293.0</ele><time>2026-05-03T12:07:20.123Z</time></trkpt><trkpt lat="41.78193" lon="13.1207391"><ele>293.0</ele><time>2026-05-03T12:07:21.112Z</time></trkpt><trkpt lat="41.7816632" lon="13.1206787"><ele>298.5</ele><time>2026-05-03T12:07:22.116Z</time></trkpt><trkpt lat="41.7813959" lon="13.1206198"><ele>304.0</ele><time>2026-05-03T12:07:23.104Z</time></trkpt><trkpt lat="41.7811303" lon="13.1205572"><ele>307.0</ele><time>2026-05-03T12:07:24.069Z</time></trkpt><trkpt lat="41.7808623" lon="13.1204949"><ele>310.0</ele><time>2026-05-03T12:07:25.07Z</time></trkpt><trkpt lat="41.7805939" lon="13.1204351"><ele>310.0</ele><time>2026-05-03T12:07:26.088Z</time></trkpt><trkpt lat="41.7803316" lon="13.1203724"><ele>310.0</ele><time>2026-05-03T12:07:27.089Z</time></trkpt><trkpt lat="41.7800645" lon="13.1203056"><ele>308.5</ele><time>2026-05-03T12:07:28.121Z</time></trkpt><trkpt lat="41.779801" lon="13.1202441"><ele>307.0</ele><time>2026-05-03T12:07:29.103Z</time></trkpt><trkpt lat="41.7795321" lon="13.1201828"><ele>301.5</ele><time>2026-05-03T12:07:30.119Z</time></trkpt><trkpt lat="41.7792678" lon="13.1201164"><ele>296.0</ele><time>2026-05-03T12:07:31.118Z</time></trkpt><trkpt lat="41.7790037" lon="13.1200487"><ele>296.0</ele><time>2026-05-03T12:07:32.119Z</time></trkpt><trkpt lat="41.7787396" lon="13.1199812"><ele>296.0</ele><time>2026-05-03T12:07:33.129Z</time></trkpt><trkpt lat="41.7784782" lon="13.119913"><ele>300.5</ele><time>2026-05-03T12:07:34.107Z</time></trkpt><trkpt lat="41.7782144" lon="13.1198414"><ele>305.0</ele><time>2026-05-03T12:07:35.108Z</time></trkpt><trkpt lat="41.7779533" lon="13.1197529"><ele>305.0</ele><time>2026-05-03T12:07:36.083Z</time></trkpt><trkpt lat="41.7776928" lon="13.1196316"><ele>305.0</ele><time>2026-05-03T12:07:37.112Z</time></trkpt><trkpt lat="41.7774447" lon="13.1194813"><ele>302.0</ele><time>2026-05-03T12:07:38.118Z</time></trkpt><trkpt lat="41.77721" lon="13.119308"><ele>299.0</ele><time>2026-05-03T12:07:39.132Z</time></trkpt><trkpt lat="41.7769883" lon="13.1191237"><ele>297.5</ele><time>2026-05-03T12:07:40.102Z</time></trkpt><trkpt lat="41.7767707" lon="13.1189179"><ele>296.0</ele><time>2026-05-03T12:07:41.129Z</time></trkpt><trkpt lat="41.7765672" lon="13.1186976"><ele>296.0</ele><time>2026-05-03T12:07:42.096Z</time></trkpt><trkpt lat="41.7763723" lon="13.1184589"><ele>296.0</ele><time>2026-05-03T12:07:43.123Z</time></trkpt><trkpt lat="41.7761943" lon="13.1182129"><ele>290.5</ele><time>2026-05-03T12:07:44.131Z</time></trkpt><trkpt lat="41.7760303" lon="13.1179589"><ele>285.0</ele><time>2026-05-03T12:07:45.085Z</time></trkpt><trkpt lat="41.7758763" lon="13.1176778"><ele>291.0</ele><time>2026-05-03T12:07:46.073Z</time></trkpt><trkpt lat="41.7757412" lon="13.1173714"><ele>297.0</ele><time>2026-05-03T12:07:47.109Z</time></trkpt><trkpt lat="41.7756219" lon="13.117059"><ele>297.0</ele><time>2026-05-03T12:07:48.126Z</time></trkpt><trkpt lat="41.7755131" lon="13.1167541"><ele>297.0</ele><time>2026-05-03T12:07:49.133Z</time></trkpt><trkpt lat="41.7754053" lon="13.1164699"><ele>300.0</ele><time>2026-05-03T12:07:50.099Z</time></trkpt><trkpt lat="41.7752986" lon="13.116181"><ele>303.0</ele><time>2026-05-03T12:07:51.134Z</time></trkpt><trkpt lat="41.7751995" lon="13.1159026"><ele>297.0</ele><time>2026-05-03T12:07:52.139Z</time></trkpt><trkpt lat="41.775105" lon="13.1156374"><ele>291.0</ele><time>2026-05-03T12:07:53.136Z</time></trkpt><trkpt lat="41.7750173" lon="13.1153846"><ele>285.0</ele><time>2026-05-03T12:07:54.11Z</time></trkpt><trkpt lat="41.774923" lon="13.1151222"><ele>290.0</ele><time>2026-05-03T12:07:55.131Z</time></trkpt><trkpt lat="41.7748141" lon="13.1148524"><ele>295.0</ele><time>2026-05-03T12:07:56.135Z</time></trkpt><trkpt lat="41.7746991" lon="13.1145982"><ele>295.0</ele><time>2026-05-03T12:07:57.111Z</time></trkpt><trkpt lat="41.7745738" lon="13.1143527"><ele>295.0</ele><time>2026-05-03T12:07:58.131Z</time></trkpt><trkpt lat="41.7744426" lon="13.1141269"><ele>295.0</ele><time>2026-05-03T12:07:59.126Z</time></trkpt><trkpt lat="41.7743015" lon="13.1139193"><ele>289.3333333333333</ele><time>2026-05-03T12:08:00.147Z</time></trkpt><trkpt lat="41.7741541" lon="13.1137301"><ele>283.6666666666667</ele><time>2026-05-03T12:08:01.098Z</time></trkpt><trkpt lat="41.7739844" lon="13.1135458"><ele>278.0</ele><time>2026-05-03T12:08:02.136Z</time></trkpt><trkpt lat="41.7738089" lon="13.1133812"><ele>275.0</ele><time>2026-05-03T12:08:03.091Z</time></trkpt><trkpt lat="41.7736208" lon="13.1132145"><ele>272.0</ele><time>2026-05-03T12:08:04.111Z</time></trkpt><trkpt lat="41.7734309" lon="13.1130514"><ele>272.0</ele><time>2026-05-03T12:08:05.132Z</time></trkpt><trkpt lat="41.7732434" lon="13.1129007"><ele>272.0</ele><time>2026-05-03T12:08:06.118Z</time></trkpt><trkpt lat="41.7730533" lon="13.1127652"><ele>272.0</ele><time>2026-05-03T12:08:07.088Z</time></trkpt><trkpt lat="41.7728508" lon="13.1126434"><ele>272.33333333333337</ele><time>2026-05-03T12:08:08.113Z</time></trkpt><trkpt lat="41.7726502" lon="13.1125347"><ele>272.6666666666667</ele><time>2026-05-03T12:08:09.119Z</time></trkpt><trkpt lat="41.7724471" lon="13.112443"><ele>273.0</ele><time>2026-05-03T12:08:10.133Z</time></trkpt><trkpt lat="41.7722436" lon="13.1123626"><ele>273.0</ele><time>2026-05-03T12:08:11.117Z</time></trkpt><trkpt lat="41.772034" lon="13.1122896"><ele>273.0</ele><time>2026-05-03T12:08:12.122Z</time></trkpt><trkpt lat="41.7718253" lon="13.1122253"><ele>273.0</ele><time>2026-05-03T12:08:13.101Z</time></trkpt><trkpt lat="41.7716121" lon="13.1121783"><ele>271.0</ele><time>2026-05-03T12:08:14.081Z</time></trkpt><trkpt lat="41.7713911" lon="13.1121444"><ele>269.0</ele><time>2026-05-03T12:08:15.12Z</time></trkpt><trkpt lat="41.771176" lon="13.1121162"><ele>267.0</ele><time>2026-05-03T12:08:16.13Z</time></trkpt><trkpt lat="41.7709613" lon="13.1120844"><ele>264.3333333333333</ele><time>2026-05-03T12:08:17.121Z</time></trkpt><trkpt lat="41.7707429" lon="13.1120614"><ele>261.66666666666663</ele><time>2026-05-03T12:08:18.125Z</time></trkpt><trkpt lat="41.7705225" lon="13.1120455"><ele>259.0</ele><time>2026-05-03T12:08:19.112Z</time></trkpt><trkpt lat="41.7702985" lon="13.1120382"><ele>256.3333333333333</ele><time>2026-05-03T12:08:20.123Z</time></trkpt><trkpt lat="41.7700757" lon="13.1120388"><ele>253.66666666666669</ele><time>2026-05-03T12:08:21.102Z</time></trkpt><trkpt lat="41.7698522" lon="13.1120498"><ele>251.0</ele><time>2026-05-03T12:08:22.064Z</time></trkpt><trkpt lat="41.7696229" lon="13.1120659"><ele>251.0</ele><time>2026-05-03T12:08:23.111Z</time></trkpt><trkpt lat="41.7694009" lon="13.1120981"><ele>251.0</ele><time>2026-05-03T12:08:24.13Z</time></trkpt><trkpt lat="41.7691818" lon="13.1121417"><ele>251.0</ele><time>2026-05-03T12:08:25.113Z</time></trkpt><trkpt lat="41.7689655" lon="13.1121894"><ele>249.66666666666669</ele><time>2026-05-03T12:08:26.082Z</time></trkpt><trkpt lat="41.7687509" lon="13.1122502"><ele>248.33333333333331</ele><time>2026-05-03T12:08:27.099Z</time></trkpt><trkpt lat="41.7685402" lon="13.112316"><ele>247.0</ele><time>2026-05-03T12:08:28.146Z</time></trkpt><trkpt lat="41.7683377" lon="13.1123928"><ele>245.0</ele><time>2026-05-03T12:08:29.137Z</time></trkpt><trkpt lat="41.7681344" lon="13.1124807"><ele>243.0</ele><time>2026-05-03T12:08:30.139Z</time></trkpt><trkpt lat="41.7679346" lon="13.1125737"><ele>241.0</ele><time>2026-05-03T12:08:31.126Z</time></trkpt><trkpt lat="41.7677355" lon="13.1126759"><ele>241.0</ele><time>2026-05-03T12:08:32.107Z</time></trkpt><trkpt lat="41.7675365" lon="13.1127845"><ele>241.0</ele><time>2026-05-03T12:08:33.138Z</time></trkpt><trkpt lat="41.7673439" lon="13.1128984"><ele>241.0</ele><time>2026-05-03T12:08:34.118Z</time></trkpt><trkpt lat="41.7671516" lon="13.1130172"><ele>241.0</ele><time>2026-05-03T12:08:35.103Z</time></trkpt><trkpt lat="41.7669654" lon="13.1131429"><ele>241.0</ele><time>2026-05-03T12:08:36.117Z</time></trkpt><trkpt lat="41.766782" lon="13.1132741"><ele>241.0</ele><time>2026-05-03T12:08:37.097Z</time></trkpt><trkpt lat="41.7666005" lon="13.1134155"><ele>240.33333333333331</ele><time>2026-05-03T12:08:38.146Z</time></trkpt><trkpt lat="41.7664297" lon="13.113559"><ele>239.66666666666669</ele><time>2026-05-03T12:08:39.124Z</time></trkpt><trkpt lat="41.7662612" lon="13.1137092"><ele>239.0</ele><time>2026-05-03T12:08:40.139Z</time></trkpt><trkpt lat="41.7661028" lon="13.11387"><ele>239.0</ele><time>2026-05-03T12:08:41.12Z</time></trkpt><trkpt lat="41.7659485" lon="13.1140394"><ele>239.0</ele><time>2026-05-03T12:08:42.088Z</time></trkpt><trkpt lat="41.7657902" lon="13.1142207"><ele>239.0</ele><time>2026-05-03T12:08:43.07Z</time></trkpt><trkpt lat="41.7656271" lon="13.11441"><ele>238.66666666666669</ele><time>2026-05-03T12:08:44.057Z</time></trkpt><trkpt lat="41.7654625" lon="13.1146144"><ele>238.33333333333331</ele><time>2026-05-03T12:08:45.116Z</time></trkpt><trkpt lat="41.7653066" lon="13.1148221"><ele>238.0</ele><time>2026-05-03T12:08:46.137Z</time></trkpt><trkpt lat="41.7651564" lon="13.1150281"><ele>238.0</ele><time>2026-05-03T12:08:47.054Z</time></trkpt><trkpt lat="41.7649985" lon="13.1152486"><ele>238.0</ele><time>2026-05-03T12:08:48.056Z</time></trkpt><trkpt lat="41.7648397" lon="13.1154649"><ele>238.0</ele><time>2026-05-03T12:08:49.061Z</time></trkpt><trkpt lat="41.7646765" lon="13.1156864"><ele>238.0</ele><time>2026-05-03T12:08:50.072Z</time></trkpt><trkpt lat="41.7645067" lon="13.1159325"><ele>239.0</ele><time>2026-05-03T12:08:51.099Z</time></trkpt><trkpt lat="41.7643267" lon="13.1162048"><ele>240.0</ele><time>2026-05-03T12:08:52.065Z</time></trkpt><trkpt lat="41.7641332" lon="13.1164904"><ele>239.5</ele><time>2026-05-03T12:08:53.06Z</time></trkpt><trkpt lat="41.763918" lon="13.1167862"><ele>239.0</ele><time>2026-05-03T12:08:54.098Z</time></trkpt><trkpt lat="41.7636969" lon="13.1170762"><ele>239.0</ele><time>2026-05-03T12:08:55.085Z</time></trkpt><trkpt lat="41.7634544" lon="13.1173687"><ele>239.0</ele><time>2026-05-03T12:08:56.14Z</time></trkpt><trkpt lat="41.7632108" lon="13.1176462"><ele>237.0</ele><time>2026-05-03T12:08:57.119Z</time></trkpt><trkpt lat="41.7629592" lon="13.1179229"><ele>235.0</ele><time>2026-05-03T12:08:58.142Z</time></trkpt><trkpt lat="41.7627088" lon="13.1181884"><ele>232.0</ele><time>2026-05-03T12:08:59.112Z</time></trkpt><trkpt lat="41.7624539" lon="13.118449"><ele>229.0</ele><time>2026-05-03T12:09:00.134Z</time></trkpt><trkpt lat="41.7622093" lon="13.1186855"><ele>229.0</ele><time>2026-05-03T12:09:01.118Z</time></trkpt><trkpt lat="41.7619625" lon="13.1189166"><ele>229.0</ele><time>2026-05-03T12:09:02.148Z</time></trkpt><trkpt lat="41.7617264" lon="13.119149"><ele>230.5</ele><time>2026-05-03T12:09:03.118Z</time></trkpt><trkpt lat="41.7614892" lon="13.1193814"><ele>232.0</ele><time>2026-05-03T12:09:04.119Z</time></trkpt><trkpt lat="41.7612554" lon="13.1196126"><ele>234.0</ele><time>2026-05-03T12:09:05.115Z</time></trkpt><trkpt lat="41.7610218" lon="13.1198431"><ele>236.0</ele><time>2026-05-03T12:09:06.102Z</time></trkpt><trkpt lat="41.7607869" lon="13.1200676"><ele>236.0</ele><time>2026-05-03T12:09:07.071Z</time></trkpt><trkpt lat="41.7605489" lon="13.1202893"><ele>236.0</ele><time>2026-05-03T12:09:08.08Z</time></trkpt><trkpt lat="41.7603018" lon="13.1205177"><ele>235.0</ele><time>2026-05-03T12:09:09.109Z</time></trkpt><trkpt lat="41.7600512" lon="13.1207465"><ele>234.0</ele><time>2026-05-03T12:09:10.13Z</time></trkpt><trkpt lat="41.7597929" lon="13.1209599"><ele>234.0</ele><time>2026-05-03T12:09:11.094Z</time></trkpt><trkpt lat="41.7595268" lon="13.1211492"><ele>234.0</ele><time>2026-05-03T12:09:12.099Z</time></trkpt><trkpt lat="41.7592542" lon="13.1213292"><ele>233.0</ele><time>2026-05-03T12:09:13.093Z</time></trkpt><trkpt lat="41.7589809" lon="13.121505"><ele>232.0</ele><time>2026-05-03T12:09:14.119Z</time></trkpt><trkpt lat="41.7587074" lon="13.1216765"><ele>232.5</ele><time>2026-05-03T12:09:15.11Z</time></trkpt><trkpt lat="41.7584318" lon="13.1218344"><ele>233.0</ele><time>2026-05-03T12:09:16.118Z</time></trkpt><trkpt lat="41.7581535" lon="13.1219746"><ele>233.0</ele><time>2026-05-03T12:09:17.129Z</time></trkpt><trkpt lat="41.7578746" lon="13.1221085"><ele>233.0</ele><time>2026-05-03T12:09:18.124Z</time></trkpt><trkpt lat="41.7575901" lon="13.1222255"><ele>233.5</ele><time>2026-05-03T12:09:19.112Z</time></trkpt><trkpt lat="41.7573029" lon="13.1223183"><ele>234.0</ele><time>2026-05-03T12:09:20.115Z</time></trkpt><trkpt lat="41.7570124" lon="13.1224002"><ele>235.5</ele><time>2026-05-03T12:09:21.121Z</time></trkpt><trkpt lat="41.7567238" lon="13.122472"><ele>237.0</ele><time>2026-05-03T12:09:22.11Z</time></trkpt><trkpt lat="41.7564325" lon="13.1225409"><ele>237.0</ele><time>2026-05-03T12:09:23.123Z</time></trkpt><trkpt lat="41.756142" lon="13.1226048"><ele>237.0</ele><time>2026-05-03T12:09:24.133Z</time></trkpt><trkpt lat="41.7558594" lon="13.1226598"><ele>239.0</ele><time>2026-05-03T12:09:25.102Z</time></trkpt><trkpt lat="41.7555756" lon="13.1227089"><ele>241.0</ele><time>2026-05-03T12:09:26.132Z</time></trkpt><trkpt lat="41.7552937" lon="13.1227605"><ele>243.5</ele><time>2026-05-03T12:09:27.115Z</time></trkpt><trkpt lat="41.7550072" lon="13.1228098"><ele>246.0</ele><time>2026-05-03T12:09:28.079Z</time></trkpt><trkpt lat="41.7547203" lon="13.1228524"><ele>246.0</ele><time>2026-05-03T12:09:29.124Z</time></trkpt><trkpt lat="41.7544348" lon="13.1228914"><ele>246.0</ele><time>2026-05-03T12:09:30.12Z</time></trkpt><trkpt lat="41.7541482" lon="13.1229215"><ele>249.5</ele><time>2026-05-03T12:09:31.133Z</time></trkpt><trkpt lat="41.7538639" lon="13.1229369"><ele>253.0</ele><time>2026-05-03T12:09:32.111Z</time></trkpt><trkpt lat="41.7535804" lon="13.1229382"><ele>256.5</ele><time>2026-05-03T12:09:33.133Z</time></trkpt><trkpt lat="41.7532979" lon="13.1229315"><ele>260.0</ele><time>2026-05-03T12:09:34.136Z</time></trkpt><trkpt lat="41.7530144" lon="13.1229191"><ele>260.0</ele><time>2026-05-03T12:09:35.105Z</time></trkpt><trkpt lat="41.752736" lon="13.1229107"><ele>260.0</ele><time>2026-05-03T12:09:36.105Z</time></trkpt><trkpt lat="41.7524581" lon="13.1228965"><ele>262.5</ele><time>2026-05-03T12:09:37.072Z</time></trkpt><trkpt lat="41.7521849" lon="13.1228895"><ele>265.0</ele><time>2026-05-03T12:09:38.127Z</time></trkpt><trkpt lat="41.7519162" lon="13.1228813"><ele>266.5</ele><time>2026-05-03T12:09:39.132Z</time></trkpt><trkpt lat="41.7516533" lon="13.1228737"><ele>268.0</ele><time>2026-05-03T12:09:40.117Z</time></trkpt><trkpt lat="41.7513936" lon="13.1228655"><ele>268.0</ele><time>2026-05-03T12:09:41.136Z</time></trkpt><trkpt lat="41.751133" lon="13.1228541"><ele>268.0</ele><time>2026-05-03T12:09:42.131Z</time></trkpt><trkpt lat="41.7508725" lon="13.1228467"><ele>268.5</ele><time>2026-05-03T12:09:43.137Z</time></trkpt><trkpt lat="41.7506047" lon="13.1228336"><ele>269.0</ele><time>2026-05-03T12:09:44.121Z</time></trkpt><trkpt lat="41.7503369" lon="13.1228202"><ele>270.0</ele><time>2026-05-03T12:09:45.076Z</time></trkpt><trkpt lat="41.7500858" lon="13.1228064"><ele>271.0</ele><time>2026-05-03T12:09:46.086Z</time></trkpt><trkpt lat="41.7498645" lon="13.1227946"><ele>271.0</ele><time>2026-05-03T12:09:47.091Z</time></trkpt><trkpt lat="41.7496602" lon="13.1227845"><ele>271.0</ele><time>2026-05-03T12:09:48.094Z</time></trkpt><trkpt lat="41.749453" lon="13.1227824"><ele>271.0</ele><time>2026-05-03T12:09:49.09Z</time></trkpt><trkpt lat="41.7492312" lon="13.1227871"><ele>270.5</ele><time>2026-05-03T12:09:50.137Z</time></trkpt><trkpt lat="41.7489997" lon="13.1227818"><ele>270.0</ele><time>2026-05-03T12:09:51.112Z</time></trkpt><trkpt lat="41.7487595" lon="13.1227755"><ele>268.0</ele><time>2026-05-03T12:09:52.155Z</time></trkpt><trkpt lat="41.7485138" lon="13.1227686"><ele>266.0</ele><time>2026-05-03T12:09:53.13Z</time></trkpt><trkpt lat="41.7482583" lon="13.122759"><ele>266.0</ele><time>2026-05-03T12:09:54.094Z</time></trkpt><trkpt lat="41.7480033" lon="13.1227506"><ele>266.0</ele><time>2026-05-03T12:09:55.129Z</time></trkpt><trkpt lat="41.7477523" lon="13.1227364"><ele>265.0</ele><time>2026-05-03T12:09:56.11Z</time></trkpt><trkpt lat="41.7475082" lon="13.1227148"><ele>264.0</ele><time>2026-05-03T12:09:57.129Z</time></trkpt><trkpt lat="41.7472855" lon="13.1226756"><ele>264.0</ele><time>2026-05-03T12:09:58.08Z</time></trkpt><trkpt lat="41.7470609" lon="13.1226064"><ele>264.0</ele><time>2026-05-03T12:09:59.132Z</time></trkpt><trkpt lat="41.7468481" lon="13.1225155"><ele>262.0</ele><time>2026-05-03T12:10:00.095Z</time></trkpt><trkpt lat="41.7466246" lon="13.1224005"><ele>260.0</ele><time>2026-05-03T12:10:01.143Z</time></trkpt><trkpt lat="41.7464152" lon="13.1222643"><ele>260.0</ele><time>2026-05-03T12:10:02.156Z</time></trkpt><trkpt lat="41.7462148" lon="13.1221156"><ele>260.0</ele><time>2026-05-03T12:10:03.091Z</time></trkpt><trkpt lat="41.7460107" lon="13.1219418"><ele>257.5</ele><time>2026-05-03T12:10:04.117Z</time></trkpt><trkpt lat="41.7458255" lon="13.1217469"><ele>255.0</ele><time>2026-05-03T12:10:05.13Z</time></trkpt><trkpt lat="41.7456583" lon="13.1215336"><ele>254.5</ele><time>2026-05-03T12:10:06.13Z</time></trkpt><trkpt lat="41.7455024" lon="13.1213069"><ele>254.0</ele><time>2026-05-03T12:10:07.112Z</time></trkpt><trkpt lat="41.7453424" lon="13.1210767"><ele>252.0</ele><time>2026-05-03T12:10:08.067Z</time></trkpt><trkpt lat="41.7451755" lon="13.1208489"><ele>250.0</ele><time>2026-05-03T12:10:09.129Z</time></trkpt><trkpt lat="41.7450173" lon="13.1206418"><ele>250.0</ele><time>2026-05-03T12:10:10.129Z</time></trkpt><trkpt lat="41.7448678" lon="13.1204442"><ele>250.0</ele><time>2026-05-03T12:10:11.091Z</time></trkpt><trkpt lat="41.7447128" lon="13.1202461"><ele>250.0</ele><time>2026-05-03T12:10:12.159Z</time></trkpt><trkpt lat="41.7445617" lon="13.1200698"><ele>250.0</ele><time>2026-05-03T12:10:13.084Z</time></trkpt><trkpt lat="41.7443918" lon="13.1198876"><ele>250.0</ele><time>2026-05-03T12:10:14.119Z</time></trkpt><trkpt lat="41.7442134" lon="13.1197206"><ele>250.0</ele><time>2026-05-03T12:10:15.128Z</time></trkpt><trkpt lat="41.7440295" lon="13.1195733"><ele>249.33333333333331</ele><time>2026-05-03T12:10:16.093Z</time></trkpt><trkpt lat="41.743831" lon="13.1194308"><ele>248.66666666666669</ele><time>2026-05-03T12:10:17.126Z</time></trkpt><trkpt lat="41.7436312" lon="13.1193019"><ele>248.0</ele><time>2026-05-03T12:10:18.109Z</time></trkpt><trkpt lat="41.7434247" lon="13.1191799"><ele>248.0</ele><time>2026-05-03T12:10:19.125Z</time></trkpt><trkpt lat="41.7432199" lon="13.1190758"><ele>248.0</ele><time>2026-05-03T12:10:20.129Z</time></trkpt><trkpt lat="41.7430133" lon="13.1189917"><ele>248.0</ele><time>2026-05-03T12:10:21.127Z</time></trkpt><trkpt lat="41.7428094" lon="13.118923"><ele>247.33333333333334</ele><time>2026-05-03T12:10:22.136Z</time></trkpt><trkpt lat="41.7426106" lon="13.118864"><ele>246.66666666666669</ele><time>2026-05-03T12:10:23.128Z</time></trkpt><trkpt lat="41.7424278" lon="13.1188119"><ele>246.0</ele><time>2026-05-03T12:10:24.088Z</time></trkpt><trkpt lat="41.7422564" lon="13.1187665"><ele>246.0</ele><time>2026-05-03T12:10:25.145Z</time></trkpt><trkpt lat="41.7420968" lon="13.1187244"><ele>246.0</ele><time>2026-05-03T12:10:26.097Z</time></trkpt><trkpt lat="41.7419281" lon="13.1186874"><ele>246.0</ele><time>2026-05-03T12:10:27.124Z</time></trkpt><trkpt lat="41.7417548" lon="13.1186504"><ele>245.0</ele><time>2026-05-03T12:10:28.135Z</time></trkpt><trkpt lat="41.7415726" lon="13.1186094"><ele>244.0</ele><time>2026-05-03T12:10:29.133Z</time></trkpt><trkpt lat="41.7413885" lon="13.1185685"><ele>243.0</ele><time>2026-05-03T12:10:30.096Z</time></trkpt><trkpt lat="41.7411966" lon="13.1185188"><ele>242.0</ele><time>2026-05-03T12:10:31.135Z</time></trkpt><trkpt lat="41.741012" lon="13.1184676"><ele>241.0</ele><time>2026-05-03T12:10:32.137Z</time></trkpt><trkpt lat="41.7408307" lon="13.118419"><ele>240.0</ele><time>2026-05-03T12:10:33.123Z</time></trkpt><trkpt lat="41.7406557" lon="13.1183773"><ele>240.0</ele><time>2026-05-03T12:10:34.09Z</time></trkpt><trkpt lat="41.7404788" lon="13.1183381"><ele>240.0</ele><time>2026-05-03T12:10:35.099Z</time></trkpt><trkpt lat="41.7403041" lon="13.1182977"><ele>240.0</ele><time>2026-05-03T12:10:36.091Z</time></trkpt><trkpt lat="41.7401299" lon="13.1182535"><ele>239.0</ele><time>2026-05-03T12:10:37.078Z</time></trkpt><trkpt lat="41.7399465" lon="13.1182104"><ele>238.0</ele><time>2026-05-03T12:10:38.072Z</time></trkpt><trkpt lat="41.7397595" lon="13.1181652"><ele>237.0</ele><time>2026-05-03T12:10:39.099Z</time></trkpt><trkpt lat="41.7395674" lon="13.1181204"><ele>237.33333333333331</ele><time>2026-05-03T12:10:40.161Z</time></trkpt><trkpt lat="41.7393733" lon="13.1180685"><ele>237.66666666666666</ele><time>2026-05-03T12:10:41.125Z</time></trkpt><trkpt lat="41.7391717" lon="13.1180205"><ele>238.0</ele><time>2026-05-03T12:10:42.135Z</time></trkpt><trkpt lat="41.7389598" lon="13.1179686"><ele>238.0</ele><time>2026-05-03T12:10:43.092Z</time></trkpt><trkpt lat="41.7387389" lon="13.1179152"><ele>238.0</ele><time>2026-05-03T12:10:44.085Z</time></trkpt><trkpt lat="41.7385175" lon="13.1178611"><ele>238.0</ele><time>2026-05-03T12:10:45.131Z</time></trkpt><trkpt lat="41.7382936" lon="13.1178079"><ele>237.5</ele><time>2026-05-03T12:10:46.14Z</time></trkpt><trkpt lat="41.7380674" lon="13.1177556"><ele>237.0</ele><time>2026-05-03T12:10:47.079Z</time></trkpt><trkpt lat="41.7378439" lon="13.1177033"><ele>237.0</ele><time>2026-05-03T12:10:48.114Z</time></trkpt><trkpt lat="41.7376189" lon="13.1176499"><ele>237.0</ele><time>2026-05-03T12:10:49.116Z</time></trkpt><trkpt lat="41.7374013" lon="13.1175956"><ele>237.0</ele><time>2026-05-03T12:10:50.127Z</time></trkpt><trkpt lat="41.7371766" lon="13.117544"><ele>237.0</ele><time>2026-05-03T12:10:51.12Z</time></trkpt><trkpt lat="41.7369414" lon="13.1175007"><ele>236.5</ele><time>2026-05-03T12:10:52.108Z</time></trkpt><trkpt lat="41.7366978" lon="13.1174549"><ele>236.0</ele><time>2026-05-03T12:10:53.105Z</time></trkpt><trkpt lat="41.7364558" lon="13.1173976"><ele>235.5</ele><time>2026-05-03T12:10:54.16Z</time></trkpt><trkpt lat="41.7362099" lon="13.117335"><ele>235.0</ele><time>2026-05-03T12:10:55.122Z</time></trkpt><trkpt lat="41.7359724" lon="13.1172679"><ele>235.0</ele><time>2026-05-03T12:10:56.094Z</time></trkpt><trkpt lat="41.7357422" lon="13.1171994"><ele>235.0</ele><time>2026-05-03T12:10:57.122Z</time></trkpt><trkpt lat="41.7355192" lon="13.1171447"><ele>235.0</ele><time>2026-05-03T12:10:58.121Z</time></trkpt><trkpt lat="41.7353041" lon="13.1170924"><ele>235.0</ele><time>2026-05-03T12:10:59.124Z</time></trkpt><trkpt lat="41.7350978" lon="13.1170393"><ele>235.0</ele><time>2026-05-03T12:11:00.141Z</time></trkpt><trkpt lat="41.7348969" lon="13.1169793"><ele>232.66666666666666</ele><time>2026-05-03T12:11:01.14Z</time></trkpt><trkpt lat="41.734706" lon="13.1169194"><ele>230.33333333333331</ele><time>2026-05-03T12:11:02.128Z</time></trkpt><trkpt lat="41.7345249" lon="13.1168637"><ele>228.0</ele><time>2026-05-03T12:11:03.087Z</time></trkpt><trkpt lat="41.7343499" lon="13.1168145"><ele>227.0</ele><time>2026-05-03T12:11:04.136Z</time></trkpt><trkpt lat="41.7341768" lon="13.1167607"><ele>226.0</ele><time>2026-05-03T12:11:05.141Z</time></trkpt><trkpt lat="41.7339974" lon="13.116714"><ele>225.0</ele><time>2026-05-03T12:11:06.126Z</time></trkpt><trkpt lat="41.7338088" lon="13.1166619"><ele>225.0</ele><time>2026-05-03T12:11:07.081Z</time></trkpt><trkpt lat="41.7336182" lon="13.1166003"><ele>225.0</ele><time>2026-05-03T12:11:08.146Z</time></trkpt><trkpt lat="41.7334288" lon="13.1165306"><ele>225.0</ele><time>2026-05-03T12:11:09.126Z</time></trkpt><trkpt lat="41.7332372" lon="13.1164651"><ele>223.0</ele><time>2026-05-03T12:11:10.142Z</time></trkpt><trkpt lat="41.7330344" lon="13.1163943"><ele>221.0</ele><time>2026-05-03T12:11:11.138Z</time></trkpt><trkpt lat="41.7328335" lon="13.1163231"><ele>219.0</ele><time>2026-05-03T12:11:12.125Z</time></trkpt><trkpt lat="41.7326372" lon="13.116251"><ele>218.0</ele><time>2026-05-03T12:11:13.13Z</time></trkpt><trkpt lat="41.7324438" lon="13.1161826"><ele>217.0</ele><time>2026-05-03T12:11:14.095Z</time></trkpt><trkpt lat="41.7322502" lon="13.1161143"><ele>216.0</ele><time>2026-05-03T12:11:15.129Z</time></trkpt><trkpt lat="41.7320564" lon="13.1160437"><ele>216.0</ele><time>2026-05-03T12:11:16.147Z</time></trkpt><trkpt lat="41.7318668" lon="13.1159693"><ele>216.0</ele><time>2026-05-03T12:11:17.103Z</time></trkpt><trkpt lat="41.7316691" lon="13.1158954"><ele>216.0</ele><time>2026-05-03T12:11:18.122Z</time></trkpt><trkpt lat="41.7314749" lon="13.1158231"><ele>216.0</ele><time>2026-05-03T12:11:19.152Z</time></trkpt><trkpt lat="41.7312852" lon="13.1157476"><ele>216.0</ele><time>2026-05-03T12:11:20.139Z</time></trkpt><trkpt lat="41.731103" lon="13.1156775"><ele>216.0</ele><time>2026-05-03T12:11:21.114Z</time></trkpt><trkpt lat="41.7309268" lon="13.115602"><ele>215.33333333333331</ele><time>2026-05-03T12:11:22.14Z</time></trkpt><trkpt lat="41.730759" lon="13.1155372"><ele>214.66666666666666</ele><time>2026-05-03T12:11:23.132Z</time></trkpt><trkpt lat="41.7306002" lon="13.1154809"><ele>214.0</ele><time>2026-05-03T12:11:24.095Z</time></trkpt><trkpt lat="41.7304437" lon="13.1154265"><ele>214.0</ele><time>2026-05-03T12:11:25.137Z</time></trkpt><trkpt lat="41.7302926" lon="13.1153671"><ele>214.0</ele><time>2026-05-03T12:11:26.11Z</time></trkpt><trkpt lat="41.7301321" lon="13.115305"><ele>214.0</ele><time>2026-05-03T12:11:27.143Z</time></trkpt><trkpt lat="41.7299736" lon="13.115234"><ele>214.0</ele><time>2026-05-03T12:11:28.126Z</time></trkpt><trkpt lat="41.7298035" lon="13.1151606"><ele>214.0</ele><time>2026-05-03T12:11:29.129Z</time></trkpt><trkpt lat="41.7296305" lon="13.1150849"><ele>214.0</ele><time>2026-05-03T12:11:30.136Z</time></trkpt><trkpt lat="41.7294595" lon="13.1150123"><ele>213.33333333333331</ele><time>2026-05-03T12:11:31.13Z</time></trkpt><trkpt lat="41.7292902" lon="13.1149326"><ele>212.66666666666669</ele><time>2026-05-03T12:11:32.106Z</time></trkpt><trkpt lat="41.7291223" lon="13.1148502"><ele>212.0</ele><time>2026-05-03T12:11:33.125Z</time></trkpt><trkpt lat="41.7289468" lon="13.1147701"><ele>212.0</ele><time>2026-05-03T12:11:34.098Z</time></trkpt><trkpt lat="41.7287691" lon="13.1146892"><ele>212.0</ele><time>2026-05-03T12:11:35.129Z</time></trkpt><trkpt lat="41.7285921" lon="13.1146057"><ele>212.0</ele><time>2026-05-03T12:11:36.108Z</time></trkpt><trkpt lat="41.7284132" lon="13.1145228"><ele>212.0</ele><time>2026-05-03T12:11:37.109Z</time></trkpt><trkpt lat="41.7282421" lon="13.1144467"><ele>212.0</ele><time>2026-05-03T12:11:38.094Z</time></trkpt><trkpt lat="41.7280886" lon="13.1143688"><ele>212.0</ele><time>2026-05-03T12:11:39.133Z</time></trkpt><trkpt lat="41.7279384" lon="13.1142961"><ele>212.0</ele><time>2026-05-03T12:11:40.13Z</time></trkpt><trkpt lat="41.7277964" lon="13.114222"><ele>212.0</ele><time>2026-05-03T12:11:41.117Z</time></trkpt><trkpt lat="41.7276467" lon="13.1141555"><ele>212.0</ele><time>2026-05-03T12:11:42.126Z</time></trkpt><trkpt lat="41.7274876" lon="13.1140851"><ele>211.66666666666669</ele><time>2026-05-03T12:11:43.114Z</time></trkpt><trkpt lat="41.7273264" lon="13.1140064"><ele>211.33333333333331</ele><time>2026-05-03T12:11:44.132Z</time></trkpt><trkpt lat="41.7271558" lon="13.1139281"><ele>211.0</ele><time>2026-05-03T12:11:45.088Z</time></trkpt><trkpt lat="41.7269859" lon="13.1138443"><ele>210.0</ele><time>2026-05-03T12:11:46.136Z</time></trkpt><trkpt lat="41.7268206" lon="13.1137634"><ele>209.0</ele><time>2026-05-03T12:11:47.119Z</time></trkpt><trkpt lat="41.7266624" lon="13.1136934"><ele>208.0</ele><time>2026-05-03T12:11:48.091Z</time></trkpt><trkpt lat="41.7265202" lon="13.1136251"><ele>208.0</ele><time>2026-05-03T12:11:49.126Z</time></trkpt><trkpt lat="41.7263769" lon="13.1135523"><ele>208.0</ele><time>2026-05-03T12:11:50.133Z</time></trkpt><trkpt lat="41.7262396" lon="13.1134854"><ele>208.0</ele><time>2026-05-03T12:11:51.13Z</time></trkpt><trkpt lat="41.7261165" lon="13.1134211"><ele>208.0</ele><time>2026-05-03T12:11:52.105Z</time></trkpt><trkpt lat="41.7259976" lon="13.113364"><ele>208.0</ele><time>2026-05-03T12:11:53.122Z</time></trkpt><trkpt lat="41.7258863" lon="13.1133107"><ele>208.0</ele><time>2026-05-03T12:11:54.163Z</time></trkpt><trkpt lat="41.7257718" lon="13.1132608"><ele>208.0</ele><time>2026-05-03T12:11:55.143Z</time></trkpt><trkpt lat="41.7256646" lon="13.1132107"><ele>208.0</ele><time>2026-05-03T12:11:56.117Z</time></trkpt><trkpt lat="41.7255738" lon="13.113178"><ele>208.0</ele><time>2026-05-03T12:11:57.121Z</time></trkpt><trkpt lat="41.725501" lon="13.1131456"><ele>208.33333333333331</ele><time>2026-05-03T12:11:58.092Z</time></trkpt><trkpt lat="41.7254361" lon="13.1131185"><ele>208.66666666666666</ele><time>2026-05-03T12:11:59.141Z</time></trkpt><trkpt lat="41.7253323" lon="13.1130655"><ele>209.0</ele><time>2026-05-03T12:12:01.142Z</time></trkpt><trkpt lat="41.7252581" lon="13.1130299"><ele>209.33333333333331</ele><time>2026-05-03T12:12:03.135Z</time></trkpt><trkpt lat="41.7251779" lon="13.1130372"><ele>209.66666666666666</ele><time>2026-05-03T12:12:05.134Z</time></trkpt><trkpt lat="41.7251115" lon="13.1130993"><ele>210.0</ele><time>2026-05-03T12:12:06.125Z</time></trkpt><trkpt lat="41.7250365" lon="13.1131746"><ele>209.5</ele><time>2026-05-03T12:12:07.097Z</time></trkpt><trkpt lat="41.7249438" lon="13.1132843"><ele>209.0</ele><time>2026-05-03T12:12:08.107Z</time></trkpt><trkpt lat="41.7248434" lon="13.113387"><ele>208.5</ele><time>2026-05-03T12:12:09.124Z</time></trkpt><trkpt lat="41.7247467" lon="13.1134901"><ele>208.0</ele><time>2026-05-03T12:12:10.109Z</time></trkpt><trkpt lat="41.7246654" lon="13.113589"><ele>208.0</ele><time>2026-05-03T12:12:11.116Z</time></trkpt><trkpt lat="41.7245969" lon="13.1136685"><ele>208.0</ele><time>2026-05-03T12:12:12.102Z</time></trkpt><trkpt lat="41.7245276" lon="13.1137173"><ele>208.0</ele><time>2026-05-03T12:12:14.103Z</time></trkpt><trkpt lat="41.7244721" lon="13.1137925"><ele>208.0</ele><time>2026-05-03T12:12:30.129Z</time></trkpt><trkpt lat="41.7243915" lon="13.1139037"><ele>208.0</ele><time>2026-05-03T12:12:32.117Z</time></trkpt><trkpt lat="41.7243012" lon="13.1140101"><ele>208.4</ele><time>2026-05-03T12:12:34.109Z</time></trkpt><trkpt lat="41.7242024" lon="13.1141169"><ele>208.8</ele><time>2026-05-03T12:12:36.096Z</time></trkpt><trkpt lat="41.7241431" lon="13.1141684"><ele>209.2</ele><time>2026-05-03T12:12:37.113Z</time></trkpt><trkpt lat="41.7240652" lon="13.1142065"><ele>209.6</ele><time>2026-05-03T12:12:38.129Z</time></trkpt><trkpt lat="41.7239808" lon="13.1142162"><ele>210.0</ele><time>2026-05-03T12:12:39.113Z</time></trkpt><trkpt lat="41.7238875" lon="13.114193"><ele>210.0</ele><time>2026-05-03T12:12:40.115Z</time></trkpt><trkpt lat="41.7237895" lon="13.1141437"><ele>210.0</ele><time>2026-05-03T12:12:41.106Z</time></trkpt><trkpt lat="41.7236871" lon="13.114063"><ele>210.0</ele><time>2026-05-03T12:12:42.102Z</time></trkpt><trkpt lat="41.7236069" lon="13.113955"><ele>210.0</ele><time>2026-05-03T12:12:43.08Z</time></trkpt><trkpt lat="41.7235477" lon="13.1138079"><ele>209.75</ele><time>2026-05-03T12:12:44.109Z</time></trkpt><trkpt lat="41.7235147" lon="13.1136347"><ele>209.5</ele><time>2026-05-03T12:12:45.076Z</time></trkpt><trkpt lat="41.7234995" lon="13.1134442"><ele>209.25</ele><time>2026-05-03T12:12:46.099Z</time></trkpt><trkpt lat="41.7235113" lon="13.1132484"><ele>209.0</ele><time>2026-05-03T12:12:47.1Z</time></trkpt><trkpt lat="41.7235497" lon="13.1130572"><ele>209.33333333333334</ele><time>2026-05-03T12:12:48.093Z</time></trkpt><trkpt lat="41.7236086" lon="13.1128688"><ele>209.66666666666669</ele><time>2026-05-03T12:12:49.107Z</time></trkpt><trkpt lat="41.7236734" lon="13.1126807"><ele>210.0</ele><time>2026-05-03T12:12:50.098Z</time></trkpt><trkpt lat="41.723764" lon="13.1124785"><ele>211.33333333333331</ele><time>2026-05-03T12:12:51.12Z</time></trkpt><trkpt lat="41.7238615" lon="13.1122552"><ele>212.66666666666666</ele><time>2026-05-03T12:12:52.116Z</time></trkpt><trkpt lat="41.7239739" lon="13.1119864"><ele>214.0</ele><time>2026-05-03T12:12:53.099Z</time></trkpt><trkpt lat="41.7240981" lon="13.1117115"><ele>215.5</ele><time>2026-05-03T12:12:54.116Z</time></trkpt><trkpt lat="41.7242318" lon="13.1114275"><ele>217.0</ele><time>2026-05-03T12:12:55.086Z</time></trkpt><trkpt lat="41.7243697" lon="13.111135"><ele>218.0</ele><time>2026-05-03T12:12:56.121Z</time></trkpt><trkpt lat="41.7245173" lon="13.1108294"><ele>219.0</ele><time>2026-05-03T12:12:57.114Z</time></trkpt><trkpt lat="41.7246778" lon="13.1105046"><ele>219.0</ele><time>2026-05-03T12:12:58.111Z</time></trkpt><trkpt lat="41.7248411" lon="13.1101721"><ele>219.0</ele><time>2026-05-03T12:12:59.069Z</time></trkpt><trkpt lat="41.7250063" lon="13.1098175"><ele>218.0</ele><time>2026-05-03T12:13:00.101Z</time></trkpt><trkpt lat="41.7251763" lon="13.1094505"><ele>217.0</ele><time>2026-05-03T12:13:01.121Z</time></trkpt><trkpt lat="41.7253502" lon="13.1090888"><ele>219.0</ele><time>2026-05-03T12:13:02.126Z</time></trkpt><trkpt lat="41.7255298" lon="13.1087322"><ele>221.0</ele><time>2026-05-03T12:13:03.107Z</time></trkpt><trkpt lat="41.7257158" lon="13.1083822"><ele>220.0</ele><time>2026-05-03T12:13:04.094Z</time></trkpt><trkpt lat="41.7259089" lon="13.1080119"><ele>219.0</ele><time>2026-05-03T12:13:05.084Z</time></trkpt><trkpt lat="41.7260984" lon="13.1076224"><ele>222.5</ele><time>2026-05-03T12:13:06.128Z</time></trkpt><trkpt lat="41.7262823" lon="13.1072386"><ele>226.0</ele><time>2026-05-03T12:13:07.106Z</time></trkpt><trkpt lat="41.7264666" lon="13.1068557"><ele>226.5</ele><time>2026-05-03T12:13:08.119Z</time></trkpt><trkpt lat="41.7266559" lon="13.1064759"><ele>227.0</ele><time>2026-05-03T12:13:09.088Z</time></trkpt><trkpt lat="41.7268385" lon="13.1061025"><ele>228.0</ele><time>2026-05-03T12:13:10.111Z</time></trkpt><trkpt lat="41.7270161" lon="13.1057314"><ele>229.0</ele><time>2026-05-03T12:13:11.12Z</time></trkpt><trkpt lat="41.7271894" lon="13.1053593"><ele>229.0</ele><time>2026-05-03T12:13:12.123Z</time></trkpt><trkpt lat="41.7273637" lon="13.1049928"><ele>229.0</ele><time>2026-05-03T12:13:13.109Z</time></trkpt><trkpt lat="41.7275369" lon="13.104633"><ele>228.5</ele><time>2026-05-03T12:13:14.131Z</time></trkpt><trkpt lat="41.7277112" lon="13.1042775"><ele>228.0</ele><time>2026-05-03T12:13:15.077Z</time></trkpt><trkpt lat="41.7278884" lon="13.1039151"><ele>225.0</ele><time>2026-05-03T12:13:16.083Z</time></trkpt><trkpt lat="41.7280677" lon="13.1035561"><ele>222.0</ele><time>2026-05-03T12:13:17.115Z</time></trkpt><trkpt lat="41.7282428" lon="13.1031921"><ele>223.0</ele><time>2026-05-03T12:13:18.125Z</time></trkpt><trkpt lat="41.7284197" lon="13.1028259"><ele>224.0</ele><time>2026-05-03T12:13:19.099Z</time></trkpt><trkpt lat="41.7285959" lon="13.1024587"><ele>221.5</ele><time>2026-05-03T12:13:20.106Z</time></trkpt><trkpt lat="41.7287729" lon="13.1020905"><ele>219.0</ele><time>2026-05-03T12:13:21.121Z</time></trkpt><trkpt lat="41.7289476" lon="13.1017241"><ele>216.5</ele><time>2026-05-03T12:13:22.103Z</time></trkpt><trkpt lat="41.729121" lon="13.1013517"><ele>214.0</ele><time>2026-05-03T12:13:23.118Z</time></trkpt><trkpt lat="41.7292978" lon="13.1009725"><ele>215.5</ele><time>2026-05-03T12:13:24.116Z</time></trkpt><trkpt lat="41.7294815" lon="13.1005957"><ele>217.0</ele><time>2026-05-03T12:13:25.111Z</time></trkpt><trkpt lat="41.7296665" lon="13.1002182"><ele>218.5</ele><time>2026-05-03T12:13:26.105Z</time></trkpt><trkpt lat="41.7298518" lon="13.0998409"><ele>220.0</ele><time>2026-05-03T12:13:27.104Z</time></trkpt><trkpt lat="41.7300355" lon="13.0994638"><ele>220.0</ele><time>2026-05-03T12:13:28.103Z</time></trkpt><trkpt lat="41.7302119" lon="13.0990934"><ele>220.0</ele><time>2026-05-03T12:13:29.093Z</time></trkpt><trkpt lat="41.7303833" lon="13.0987377"><ele>217.5</ele><time>2026-05-03T12:13:30.115Z</time></trkpt><trkpt lat="41.7305596" lon="13.098384"><ele>215.0</ele><time>2026-05-03T12:13:31.073Z</time></trkpt><trkpt lat="41.7307322" lon="13.0980268"><ele>215.0</ele><time>2026-05-03T12:13:32.118Z</time></trkpt><trkpt lat="41.7309058" lon="13.097673"><ele>215.0</ele><time>2026-05-03T12:13:33.109Z</time></trkpt><trkpt lat="41.7310809" lon="13.0973217"><ele>219.5</ele><time>2026-05-03T12:13:34.116Z</time></trkpt><trkpt lat="41.7312581" lon="13.0969679"><ele>224.0</ele><time>2026-05-03T12:13:35.093Z</time></trkpt><trkpt lat="41.731436" lon="13.0966142"><ele>224.0</ele><time>2026-05-03T12:13:36.114Z</time></trkpt><trkpt lat="41.7316144" lon="13.0962568"><ele>224.0</ele><time>2026-05-03T12:13:37.113Z</time></trkpt><trkpt lat="41.7317953" lon="13.0958816"><ele>224.0</ele><time>2026-05-03T12:13:38.11Z</time></trkpt><trkpt lat="41.7319807" lon="13.0954994"><ele>224.0</ele><time>2026-05-03T12:13:39.128Z</time></trkpt><trkpt lat="41.7321684" lon="13.0951146"><ele>223.5</ele><time>2026-05-03T12:13:40.069Z</time></trkpt><trkpt lat="41.7323567" lon="13.0947218"><ele>223.0</ele><time>2026-05-03T12:13:41.107Z</time></trkpt><trkpt lat="41.7325431" lon="13.0943345"><ele>222.0</ele><time>2026-05-03T12:13:42.124Z</time></trkpt><trkpt lat="41.732729" lon="13.093947"><ele>221.0</ele><time>2026-05-03T12:13:43.1Z</time></trkpt><trkpt lat="41.7329168" lon="13.0935565"><ele>219.5</ele><time>2026-05-03T12:13:44.098Z</time></trkpt><trkpt lat="41.7331007" lon="13.0931767"><ele>218.0</ele><time>2026-05-03T12:13:45.116Z</time></trkpt><trkpt lat="41.7332861" lon="13.0927975"><ele>214.5</ele><time>2026-05-03T12:13:46.098Z</time></trkpt><trkpt lat="41.7334667" lon="13.0924209"><ele>211.0</ele><time>2026-05-03T12:13:47.104Z</time></trkpt><trkpt lat="41.7336502" lon="13.0920436"><ele>207.0</ele><time>2026-05-03T12:13:48.106Z</time></trkpt><trkpt lat="41.7338335" lon="13.0916713"><ele>203.0</ele><time>2026-05-03T12:13:49.097Z</time></trkpt><trkpt lat="41.7340149" lon="13.091297"><ele>203.0</ele><time>2026-05-03T12:13:50.134Z</time></trkpt><trkpt lat="41.7341943" lon="13.0909298"><ele>203.0</ele><time>2026-05-03T12:13:51.08Z</time></trkpt><trkpt lat="41.7343743" lon="13.0905637"><ele>200.5</ele><time>2026-05-03T12:13:52.109Z</time></trkpt><trkpt lat="41.7345573" lon="13.090199"><ele>198.0</ele><time>2026-05-03T12:13:53.114Z</time></trkpt><trkpt lat="41.7347367" lon="13.0898251"><ele>198.0</ele><time>2026-05-03T12:13:54.118Z</time></trkpt><trkpt lat="41.7349191" lon="13.0894548"><ele>198.0</ele><time>2026-05-03T12:13:55.126Z</time></trkpt><trkpt lat="41.7351026" lon="13.0890813"><ele>199.0</ele><time>2026-05-03T12:13:56.13Z</time></trkpt><trkpt lat="41.7352844" lon="13.088709"><ele>200.0</ele><time>2026-05-03T12:13:57.123Z</time></trkpt><trkpt lat="41.7354643" lon="13.0883386"><ele>199.0</ele><time>2026-05-03T12:13:58.115Z</time></trkpt><trkpt lat="41.7356387" lon="13.0879707"><ele>198.0</ele><time>2026-05-03T12:13:59.079Z</time></trkpt><trkpt lat="41.7358134" lon="13.0876017"><ele>197.5</ele><time>2026-05-03T12:14:00.119Z</time></trkpt><trkpt lat="41.7359883" lon="13.0872377"><ele>197.0</ele><time>2026-05-03T12:14:01.111Z</time></trkpt><trkpt lat="41.7361649" lon="13.0868787"><ele>199.5</ele><time>2026-05-03T12:14:02.102Z</time></trkpt><trkpt lat="41.7363425" lon="13.0865195"><ele>202.0</ele><time>2026-05-03T12:14:03.1Z</time></trkpt><trkpt lat="41.7365217" lon="13.0861576"><ele>202.0</ele><time>2026-05-03T12:14:04.086Z</time></trkpt><trkpt lat="41.7366997" lon="13.0857935"><ele>202.0</ele><time>2026-05-03T12:14:05.119Z</time></trkpt><trkpt lat="41.7368756" lon="13.0854291"><ele>201.0</ele><time>2026-05-03T12:14:06.122Z</time></trkpt><trkpt lat="41.7370561" lon="13.0850635"><ele>200.0</ele><time>2026-05-03T12:14:07.102Z</time></trkpt><trkpt lat="41.7372329" lon="13.0846994"><ele>198.0</ele><time>2026-05-03T12:14:08.11Z</time></trkpt><trkpt lat="41.7374102" lon="13.0843317"><ele>196.0</ele><time>2026-05-03T12:14:09.062Z</time></trkpt><trkpt lat="41.7375883" lon="13.0839629"><ele>194.0</ele><time>2026-05-03T12:14:10.11Z</time></trkpt><trkpt lat="41.7377659" lon="13.0835969"><ele>192.0</ele><time>2026-05-03T12:14:11.102Z</time></trkpt><trkpt lat="41.7379436" lon="13.0832357"><ele>191.5</ele><time>2026-05-03T12:14:12.087Z</time></trkpt><trkpt lat="41.7381169" lon="13.0828759"><ele>191.0</ele><time>2026-05-03T12:14:13.093Z</time></trkpt><trkpt lat="41.7382903" lon="13.0825119"><ele>191.0</ele><time>2026-05-03T12:14:14.096Z</time></trkpt><trkpt lat="41.7384645" lon="13.0821519"><ele>191.0</ele><time>2026-05-03T12:14:15.107Z</time></trkpt><trkpt lat="41.7386423" lon="13.0817905"><ele>194.0</ele><time>2026-05-03T12:14:16.106Z</time></trkpt><trkpt lat="41.7388207" lon="13.081431"><ele>197.0</ele><time>2026-05-03T12:14:17.08Z</time></trkpt><trkpt lat="41.7390003" lon="13.0810718"><ele>201.5</ele><time>2026-05-03T12:14:18.104Z</time></trkpt><trkpt lat="41.7391771" lon="13.0807046"><ele>206.0</ele><time>2026-05-03T12:14:19.09Z</time></trkpt><trkpt lat="41.7393533" lon="13.0803404"><ele>204.5</ele><time>2026-05-03T12:14:20.125Z</time></trkpt><trkpt lat="41.7395282" lon="13.0799835"><ele>203.0</ele><time>2026-05-03T12:14:21.123Z</time></trkpt><trkpt lat="41.7397071" lon="13.079625"><ele>206.5</ele><time>2026-05-03T12:14:22.127Z</time></trkpt><trkpt lat="41.7398905" lon="13.0792641"><ele>210.0</ele><time>2026-05-03T12:14:23.113Z</time></trkpt><trkpt lat="41.7400691" lon="13.0789069"><ele>213.0</ele><time>2026-05-03T12:14:24.114Z</time></trkpt><trkpt lat="41.7402419" lon="13.078545"><ele>216.0</ele><time>2026-05-03T12:14:25.106Z</time></trkpt><trkpt lat="41.740413" lon="13.0781763"><ele>218.5</ele><time>2026-05-03T12:14:26.111Z</time></trkpt><trkpt lat="41.7405855" lon="13.0778109"><ele>221.0</ele><time>2026-05-03T12:14:27.112Z</time></trkpt><trkpt lat="41.7407587" lon="13.0774526"><ele>223.0</ele><time>2026-05-03T12:14:28.118Z</time></trkpt><trkpt lat="41.7409397" lon="13.0771022"><ele>225.0</ele><time>2026-05-03T12:14:29.108Z</time></trkpt><trkpt lat="41.7411269" lon="13.0767467"><ele>228.0</ele><time>2026-05-03T12:14:30.132Z</time></trkpt><trkpt lat="41.7413111" lon="13.076387"><ele>231.0</ele><time>2026-05-03T12:14:31.078Z</time></trkpt><trkpt lat="41.7414863" lon="13.0760219"><ele>230.5</ele><time>2026-05-03T12:14:32.112Z</time></trkpt><trkpt lat="41.7416584" lon="13.0756607"><ele>230.0</ele><time>2026-05-03T12:14:33.117Z</time></trkpt><trkpt lat="41.7418314" lon="13.0752973"><ele>230.0</ele><time>2026-05-03T12:14:34.107Z</time></trkpt><trkpt lat="41.7420072" lon="13.074938"><ele>230.0</ele><time>2026-05-03T12:14:35.123Z</time></trkpt><trkpt lat="41.7421841" lon="13.0745785"><ele>230.0</ele><time>2026-05-03T12:14:36.112Z</time></trkpt><trkpt lat="41.7423616" lon="13.0742158"><ele>230.0</ele><time>2026-05-03T12:14:37.104Z</time></trkpt><trkpt lat="41.7425364" lon="13.0738538"><ele>227.5</ele><time>2026-05-03T12:14:38.136Z</time></trkpt><trkpt lat="41.7427118" lon="13.0734902"><ele>225.0</ele><time>2026-05-03T12:14:39.095Z</time></trkpt><trkpt lat="41.7428903" lon="13.0731236"><ele>225.0</ele><time>2026-05-03T12:14:40.099Z</time></trkpt><trkpt lat="41.7430706" lon="13.0727583"><ele>225.0</ele><time>2026-05-03T12:14:41.106Z</time></trkpt><trkpt lat="41.7432498" lon="13.0723917"><ele>225.5</ele><time>2026-05-03T12:14:42.131Z</time></trkpt><trkpt lat="41.7434315" lon="13.0720316"><ele>226.0</ele><time>2026-05-03T12:14:43.124Z</time></trkpt><trkpt lat="41.7436113" lon="13.0716693"><ele>228.0</ele><time>2026-05-03T12:14:44.101Z</time></trkpt><trkpt lat="41.7437887" lon="13.0713065"><ele>230.0</ele><time>2026-05-03T12:14:45.121Z</time></trkpt><trkpt lat="41.7439668" lon="13.070941"><ele>229.5</ele><time>2026-05-03T12:14:46.12Z</time></trkpt><trkpt lat="41.7441411" lon="13.0705707"><ele>229.0</ele><time>2026-05-03T12:14:47.115Z</time></trkpt><trkpt lat="41.7443198" lon="13.0701944"><ele>227.0</ele><time>2026-05-03T12:14:48.134Z</time></trkpt><trkpt lat="41.7444997" lon="13.0698203"><ele>225.0</ele><time>2026-05-03T12:14:49.09Z</time></trkpt><trkpt lat="41.7446818" lon="13.0694551"><ele>222.5</ele><time>2026-05-03T12:14:50.115Z</time></trkpt><trkpt lat="41.7448606" lon="13.0690901"><ele>220.0</ele><time>2026-05-03T12:14:51.089Z</time></trkpt><trkpt lat="41.7450392" lon="13.0687268"><ele>218.0</ele><time>2026-05-03T12:14:52.112Z</time></trkpt><trkpt lat="41.7452148" lon="13.0683675"><ele>216.0</ele><time>2026-05-03T12:14:53.107Z</time></trkpt><trkpt lat="41.7453928" lon="13.0680004"><ele>213.5</ele><time>2026-05-03T12:14:54.116Z</time></trkpt><trkpt lat="41.7455678" lon="13.0676335"><ele>211.0</ele><time>2026-05-03T12:14:55.112Z</time></trkpt><trkpt lat="41.7457421" lon="13.0672694"><ele>208.0</ele><time>2026-05-03T12:14:56.11Z</time></trkpt><trkpt lat="41.7459158" lon="13.0668998"><ele>205.0</ele><time>2026-05-03T12:14:57.083Z</time></trkpt><trkpt lat="41.7460905" lon="13.0665276"><ele>203.0</ele><time>2026-05-03T12:14:58.123Z</time></trkpt><trkpt lat="41.7462673" lon="13.0661477"><ele>201.0</ele><time>2026-05-03T12:14:59.126Z</time></trkpt><trkpt lat="41.7464422" lon="13.0657765"><ele>201.0</ele><time>2026-05-03T12:15:00.111Z</time></trkpt><trkpt lat="41.746615" lon="13.0654105"><ele>201.0</ele><time>2026-05-03T12:15:01.109Z</time></trkpt><trkpt lat="41.7467888" lon="13.0650447"><ele>205.0</ele><time>2026-05-03T12:15:02.095Z</time></trkpt><trkpt lat="41.7469646" lon="13.0646791"><ele>209.0</ele><time>2026-05-03T12:15:03.105Z</time></trkpt><trkpt lat="41.7471407" lon="13.0643094"><ele>208.0</ele><time>2026-05-03T12:15:04.135Z</time></trkpt><trkpt lat="41.7473141" lon="13.0639401"><ele>207.0</ele><time>2026-05-03T12:15:05.095Z</time></trkpt><trkpt lat="41.7474792" lon="13.0635649"><ele>206.0</ele><time>2026-05-03T12:15:06.124Z</time></trkpt><trkpt lat="41.7476318" lon="13.0631891"><ele>205.0</ele><time>2026-05-03T12:15:07.083Z</time></trkpt><trkpt lat="41.747777" lon="13.0628036"><ele>204.0</ele><time>2026-05-03T12:15:08.113Z</time></trkpt><trkpt lat="41.7479047" lon="13.0624168"><ele>203.0</ele><time>2026-05-03T12:15:09.092Z</time></trkpt><trkpt lat="41.7480232" lon="13.0620205"><ele>203.0</ele><time>2026-05-03T12:15:10.088Z</time></trkpt><trkpt lat="41.7481278" lon="13.0616215"><ele>203.0</ele><time>2026-05-03T12:15:11.123Z</time></trkpt><trkpt lat="41.7482229" lon="13.0612236"><ele>202.0</ele><time>2026-05-03T12:15:12.093Z</time></trkpt><trkpt lat="41.7483087" lon="13.060814"><ele>201.0</ele><time>2026-05-03T12:15:13.098Z</time></trkpt><trkpt lat="41.7483849" lon="13.060395"><ele>201.0</ele><time>2026-05-03T12:15:14.127Z</time></trkpt><trkpt lat="41.7484507" lon="13.0599703"><ele>201.0</ele><time>2026-05-03T12:15:15.099Z</time></trkpt><trkpt lat="41.7485098" lon="13.0595472"><ele>201.5</ele><time>2026-05-03T12:15:16.118Z</time></trkpt><trkpt lat="41.7485541" lon="13.0591171"><ele>202.0</ele><time>2026-05-03T12:15:17.131Z</time></trkpt><trkpt lat="41.7485907" lon="13.058683"><ele>202.0</ele><time>2026-05-03T12:15:18.1Z</time></trkpt><trkpt lat="41.7486106" lon="13.0582539"><ele>202.0</ele><time>2026-05-03T12:15:19.123Z</time></trkpt><trkpt lat="41.7486232" lon="13.0578166"><ele>201.0</ele><time>2026-05-03T12:15:20.101Z</time></trkpt><trkpt lat="41.7486248" lon="13.0573814"><ele>200.0</ele><time>2026-05-03T12:15:21.125Z</time></trkpt><trkpt lat="41.748627" lon="13.0569438"><ele>200.0</ele><time>2026-05-03T12:15:22.117Z</time></trkpt><trkpt lat="41.7486304" lon="13.0565077"><ele>200.0</ele><time>2026-05-03T12:15:23.107Z</time></trkpt><trkpt lat="41.7486346" lon="13.0560672"><ele>202.5</ele><time>2026-05-03T12:15:24.097Z</time></trkpt><trkpt lat="41.7486399" lon="13.055632"><ele>205.0</ele><time>2026-05-03T12:15:25.131Z</time></trkpt><trkpt lat="41.7486441" lon="13.0551999"><ele>206.0</ele><time>2026-05-03T12:15:26.111Z</time></trkpt><trkpt lat="41.7486501" lon="13.0547678"><ele>207.0</ele><time>2026-05-03T12:15:27.122Z</time></trkpt><trkpt lat="41.748654" lon="13.0543363"><ele>206.5</ele><time>2026-05-03T12:15:28.122Z</time></trkpt><trkpt lat="41.748658" lon="13.053907"><ele>206.0</ele><time>2026-05-03T12:15:29.105Z</time></trkpt><trkpt lat="41.7486658" lon="13.0534702"><ele>204.0</ele><time>2026-05-03T12:15:30.135Z</time></trkpt><trkpt lat="41.7486711" lon="13.0530313"><ele>202.0</ele><time>2026-05-03T12:15:31.124Z</time></trkpt><trkpt lat="41.7486763" lon="13.0525925"><ele>202.0</ele><time>2026-05-03T12:15:32.113Z</time></trkpt><trkpt lat="41.7486792" lon="13.0521548"><ele>202.0</ele><time>2026-05-03T12:15:33.108Z</time></trkpt><trkpt lat="41.7486774" lon="13.0517141"><ele>201.0</ele><time>2026-05-03T12:15:34.106Z</time></trkpt><trkpt lat="41.7486782" lon="13.0512772"><ele>200.0</ele><time>2026-05-03T12:15:35.105Z</time></trkpt><trkpt lat="41.7486848" lon="13.0508402"><ele>201.5</ele><time>2026-05-03T12:15:36.123Z</time></trkpt><trkpt lat="41.7486873" lon="13.0504048"><ele>203.0</ele><time>2026-05-03T12:15:37.113Z</time></trkpt><trkpt lat="41.7486941" lon="13.0499786"><ele>205.5</ele><time>2026-05-03T12:15:38.073Z</time></trkpt><trkpt lat="41.7486948" lon="13.0495524"><ele>208.0</ele><time>2026-05-03T12:15:39.109Z</time></trkpt><trkpt lat="41.7487005" lon="13.049123"><ele>208.0</ele><time>2026-05-03T12:15:40.087Z</time></trkpt><trkpt lat="41.7487089" lon="13.0486977"><ele>208.0</ele><time>2026-05-03T12:15:41.128Z</time></trkpt><trkpt lat="41.748715" lon="13.0482721"><ele>207.0</ele><time>2026-05-03T12:15:42.11Z</time></trkpt><trkpt lat="41.7487149" lon="13.0478466"><ele>206.0</ele><time>2026-05-03T12:15:43.112Z</time></trkpt><trkpt lat="41.7487165" lon="13.0474198"><ele>206.0</ele><time>2026-05-03T12:15:44.132Z</time></trkpt><trkpt lat="41.7487205" lon="13.0469971"><ele>206.0</ele><time>2026-05-03T12:15:45.131Z</time></trkpt><trkpt lat="41.7487262" lon="13.0465689"><ele>206.0</ele><time>2026-05-03T12:15:46.093Z</time></trkpt><trkpt lat="41.7487324" lon="13.0461357"><ele>206.0</ele><time>2026-05-03T12:15:47.117Z</time></trkpt><trkpt lat="41.7487359" lon="13.0457113"><ele>205.5</ele><time>2026-05-03T12:15:48.094Z</time></trkpt><trkpt lat="41.7487355" lon="13.0452824"><ele>205.0</ele><time>2026-05-03T12:15:49.133Z</time></trkpt><trkpt lat="41.7487364" lon="13.0448511"><ele>205.0</ele><time>2026-05-03T12:15:50.095Z</time></trkpt><trkpt lat="41.7487399" lon="13.0444191"><ele>205.0</ele><time>2026-05-03T12:15:51.13Z</time></trkpt><trkpt lat="41.7487451" lon="13.0439904"><ele>205.5</ele><time>2026-05-03T12:15:52.131Z</time></trkpt><trkpt lat="41.7487501" lon="13.0435639"><ele>206.0</ele><time>2026-05-03T12:15:53.111Z</time></trkpt><trkpt lat="41.7487532" lon="13.0431439"><ele>205.5</ele><time>2026-05-03T12:15:54.121Z</time></trkpt><trkpt lat="41.7487577" lon="13.0427256"><ele>205.0</ele><time>2026-05-03T12:15:55.128Z</time></trkpt><trkpt lat="41.7487593" lon="13.042305"><ele>205.0</ele><time>2026-05-03T12:15:56.124Z</time></trkpt><trkpt lat="41.7487615" lon="13.0418859"><ele>205.0</ele><time>2026-05-03T12:15:57.12Z</time></trkpt><trkpt lat="41.7487654" lon="13.041466"><ele>208.0</ele><time>2026-05-03T12:15:58.117Z</time></trkpt><trkpt lat="41.7487695" lon="13.0410505"><ele>211.0</ele><time>2026-05-03T12:15:59.088Z</time></trkpt><trkpt lat="41.7487669" lon="13.0406383"><ele>213.5</ele><time>2026-05-03T12:16:00.11Z</time></trkpt><trkpt lat="41.7487696" lon="13.0402186"><ele>216.0</ele><time>2026-05-03T12:16:01.137Z</time></trkpt><trkpt lat="41.7487712" lon="13.0397996"><ele>218.5</ele><time>2026-05-03T12:16:02.115Z</time></trkpt><trkpt lat="41.7487758" lon="13.0393839"><ele>221.0</ele><time>2026-05-03T12:16:03.114Z</time></trkpt><trkpt lat="41.7487805" lon="13.0389649"><ele>223.0</ele><time>2026-05-03T12:16:04.127Z</time></trkpt><trkpt lat="41.7487828" lon="13.0385517"><ele>225.0</ele><time>2026-05-03T12:16:05.099Z</time></trkpt><trkpt lat="41.7487869" lon="13.0381386"><ele>225.0</ele><time>2026-05-03T12:16:06.132Z</time></trkpt><trkpt lat="41.7487926" lon="13.0377255"><ele>225.0</ele><time>2026-05-03T12:16:07.089Z</time></trkpt><trkpt lat="41.7487966" lon="13.0373153"><ele>226.5</ele><time>2026-05-03T12:16:08.059Z</time></trkpt><trkpt lat="41.7487968" lon="13.0369044"><ele>228.0</ele><time>2026-05-03T12:16:09.121Z</time></trkpt><trkpt lat="41.7488015" lon="13.0364946"><ele>229.0</ele><time>2026-05-03T12:16:10.104Z</time></trkpt><trkpt lat="41.7488031" lon="13.0360835"><ele>230.0</ele><time>2026-05-03T12:16:11.112Z</time></trkpt><trkpt lat="41.7488059" lon="13.0356799"><ele>230.5</ele><time>2026-05-03T12:16:12.125Z</time></trkpt><trkpt lat="41.7488088" lon="13.0352754"><ele>231.0</ele><time>2026-05-03T12:16:13.101Z</time></trkpt><trkpt lat="41.748817" lon="13.034869"><ele>231.0</ele><time>2026-05-03T12:16:14.108Z</time></trkpt><trkpt lat="41.7488216" lon="13.03446"><ele>231.0</ele><time>2026-05-03T12:16:15.118Z</time></trkpt><trkpt lat="41.748827" lon="13.034055"><ele>232.0</ele><time>2026-05-03T12:16:16.127Z</time></trkpt><trkpt lat="41.7488328" lon="13.0336414"><ele>233.0</ele><time>2026-05-03T12:16:17.125Z</time></trkpt><trkpt lat="41.74884" lon="13.033232"><ele>233.5</ele><time>2026-05-03T12:16:18.085Z</time></trkpt><trkpt lat="41.7488494" lon="13.0328219"><ele>234.0</ele><time>2026-05-03T12:16:19.129Z</time></trkpt><trkpt lat="41.7488533" lon="13.0324148"><ele>236.0</ele><time>2026-05-03T12:16:20.106Z</time></trkpt><trkpt lat="41.7488577" lon="13.0320031"><ele>238.0</ele><time>2026-05-03T12:16:21.132Z</time></trkpt><trkpt lat="41.748859" lon="13.0315915"><ele>238.5</ele><time>2026-05-03T12:16:22.128Z</time></trkpt><trkpt lat="41.7488594" lon="13.0311877"><ele>239.0</ele><time>2026-05-03T12:16:23.136Z</time></trkpt><trkpt lat="41.7488577" lon="13.0307894"><ele>239.5</ele><time>2026-05-03T12:16:24.112Z</time></trkpt><trkpt lat="41.7488653" lon="13.0303951"><ele>240.0</ele><time>2026-05-03T12:16:25.1Z</time></trkpt><trkpt lat="41.7488703" lon="13.030007"><ele>239.5</ele><time>2026-05-03T12:16:26.114Z</time></trkpt><trkpt lat="41.7488715" lon="13.0296323"><ele>239.0</ele><time>2026-05-03T12:16:27.109Z</time></trkpt><trkpt lat="41.7488714" lon="13.0292682"><ele>237.0</ele><time>2026-05-03T12:16:28.111Z</time></trkpt><trkpt lat="41.7488779" lon="13.0289102"><ele>235.0</ele><time>2026-05-03T12:16:29.115Z</time></trkpt><trkpt lat="41.7488796" lon="13.0285572"><ele>235.5</ele><time>2026-05-03T12:16:30.113Z</time></trkpt><trkpt lat="41.7488826" lon="13.0282046"><ele>236.0</ele><time>2026-05-03T12:16:31.109Z</time></trkpt><trkpt lat="41.7488863" lon="13.0278602"><ele>236.0</ele><time>2026-05-03T12:16:32.11Z</time></trkpt><trkpt lat="41.7488916" lon="13.02751"><ele>236.0</ele><time>2026-05-03T12:16:33.122Z</time></trkpt><trkpt lat="41.7488968" lon="13.0271552"><ele>239.0</ele><time>2026-05-03T12:16:34.111Z</time></trkpt><trkpt lat="41.7489029" lon="13.0267978"><ele>242.0</ele><time>2026-05-03T12:16:35.12Z</time></trkpt><trkpt lat="41.7488974" lon="13.0264316"><ele>243.5</ele><time>2026-05-03T12:16:36.097Z</time></trkpt><trkpt lat="41.7489011" lon="13.02607"><ele>245.0</ele><time>2026-05-03T12:16:37.096Z</time></trkpt><trkpt lat="41.7489067" lon="13.0257071"><ele>245.0</ele><time>2026-05-03T12:16:38.122Z</time></trkpt><trkpt lat="41.7489084" lon="13.0253463"><ele>245.0</ele><time>2026-05-03T12:16:39.11Z</time></trkpt><trkpt lat="41.7489122" lon="13.0249914"><ele>245.0</ele><time>2026-05-03T12:16:40.106Z</time></trkpt><trkpt lat="41.7489147" lon="13.0246431"><ele>245.0</ele><time>2026-05-03T12:16:41.114Z</time></trkpt><trkpt lat="41.748916" lon="13.0242959"><ele>245.5</ele><time>2026-05-03T12:16:42.11Z</time></trkpt><trkpt lat="41.748918" lon="13.0239411"><ele>246.0</ele><time>2026-05-03T12:16:43.113Z</time></trkpt><trkpt lat="41.7489236" lon="13.023586"><ele>244.5</ele><time>2026-05-03T12:16:44.095Z</time></trkpt><trkpt lat="41.7489228" lon="13.0232313"><ele>243.0</ele><time>2026-05-03T12:16:45.114Z</time></trkpt><trkpt lat="41.7489295" lon="13.0228838"><ele>243.0</ele><time>2026-05-03T12:16:46.113Z</time></trkpt><trkpt lat="41.7489338" lon="13.0225377"><ele>243.0</ele><time>2026-05-03T12:16:47.116Z</time></trkpt><trkpt lat="41.7489349" lon="13.0221974"><ele>243.0</ele><time>2026-05-03T12:16:48.135Z</time></trkpt><trkpt lat="41.7489363" lon="13.0218586"><ele>243.0</ele><time>2026-05-03T12:16:49.12Z</time></trkpt><trkpt lat="41.7489378" lon="13.0215129"><ele>243.0</ele><time>2026-05-03T12:16:50.137Z</time></trkpt><trkpt lat="41.7489426" lon="13.0211793"><ele>243.0</ele><time>2026-05-03T12:16:51.105Z</time></trkpt><trkpt lat="41.748947" lon="13.0208476"><ele>240.5</ele><time>2026-05-03T12:16:52.119Z</time></trkpt><trkpt lat="41.7489491" lon="13.0205236"><ele>238.0</ele><time>2026-05-03T12:16:53.128Z</time></trkpt><trkpt lat="41.7489517" lon="13.0202064"><ele>235.0</ele><time>2026-05-03T12:16:54.103Z</time></trkpt><trkpt lat="41.7489565" lon="13.0198858"><ele>232.0</ele><time>2026-05-03T12:16:55.139Z</time></trkpt><trkpt lat="41.7489595" lon="13.0195667"><ele>232.0</ele><time>2026-05-03T12:16:56.114Z</time></trkpt><trkpt lat="41.7489619" lon="13.0192481"><ele>232.0</ele><time>2026-05-03T12:16:57.098Z</time></trkpt><trkpt lat="41.7489651" lon="13.0189362"><ele>228.5</ele><time>2026-05-03T12:16:58.127Z</time></trkpt><trkpt lat="41.7489657" lon="13.0186222"><ele>225.0</ele><time>2026-05-03T12:16:59.115Z</time></trkpt><trkpt lat="41.7489675" lon="13.0183073"><ele>221.0</ele><time>2026-05-03T12:17:00.129Z</time></trkpt><trkpt lat="41.7489697" lon="13.0179849"><ele>217.0</ele><time>2026-05-03T12:17:01.12Z</time></trkpt><trkpt lat="41.7489731" lon="13.0176628"><ele>214.5</ele><time>2026-05-03T12:17:02.133Z</time></trkpt><trkpt lat="41.7489766" lon="13.0173409"><ele>212.0</ele><time>2026-05-03T12:17:03.108Z</time></trkpt><trkpt lat="41.7489794" lon="13.0170237"><ele>212.0</ele><time>2026-05-03T12:17:04.082Z</time></trkpt><trkpt lat="41.7489811" lon="13.0167007"><ele>212.0</ele><time>2026-05-03T12:17:05.077Z</time></trkpt><trkpt lat="41.7489821" lon="13.0163812"><ele>215.0</ele><time>2026-05-03T12:17:06.1Z</time></trkpt><trkpt lat="41.7489843" lon="13.0160611"><ele>218.0</ele><time>2026-05-03T12:17:07.072Z</time></trkpt><trkpt lat="41.7489836" lon="13.015744"><ele>221.5</ele><time>2026-05-03T12:17:08.083Z</time></trkpt><trkpt lat="41.7489843" lon="13.0154337"><ele>225.0</ele><time>2026-05-03T12:17:09.072Z</time></trkpt><trkpt lat="41.7489826" lon="13.0151223"><ele>227.5</ele><time>2026-05-03T12:17:10.09Z</time></trkpt><trkpt lat="41.7489829" lon="13.0148095"><ele>230.0</ele><time>2026-05-03T12:17:11.084Z</time></trkpt><trkpt lat="41.7489894" lon="13.0144942"><ele>230.0</ele><time>2026-05-03T12:17:12.067Z</time></trkpt><trkpt lat="41.748996" lon="13.0141786"><ele>230.0</ele><time>2026-05-03T12:17:13.071Z</time></trkpt><trkpt lat="41.7489978" lon="13.0138647"><ele>229.0</ele><time>2026-05-03T12:17:14.071Z</time></trkpt><trkpt lat="41.749004" lon="13.0135419"><ele>228.0</ele><time>2026-05-03T12:17:15.061Z</time></trkpt><trkpt lat="41.7490097" lon="13.0132161"><ele>226.5</ele><time>2026-05-03T12:17:16.069Z</time></trkpt><trkpt lat="41.7490085" lon="13.0128805"><ele>225.0</ele><time>2026-05-03T12:17:17.066Z</time></trkpt><trkpt lat="41.7490128" lon="13.0125284"><ele>223.0</ele><time>2026-05-03T12:17:18.066Z</time></trkpt><trkpt lat="41.7490144" lon="13.0121905"><ele>221.0</ele><time>2026-05-03T12:17:19.089Z</time></trkpt><trkpt lat="41.7490172" lon="13.011854"><ele>221.0</ele><time>2026-05-03T12:17:20.134Z</time></trkpt><trkpt lat="41.7490153" lon="13.0115218"><ele>221.0</ele><time>2026-05-03T12:17:21.11Z</time></trkpt><trkpt lat="41.7490113" lon="13.0111974"><ele>221.0</ele><time>2026-05-03T12:17:22.109Z</time></trkpt><trkpt lat="41.7490143" lon="13.0108678"><ele>221.0</ele><time>2026-05-03T12:17:23.118Z</time></trkpt><trkpt lat="41.7490188" lon="13.0105359"><ele>222.0</ele><time>2026-05-03T12:17:24.114Z</time></trkpt><trkpt lat="41.7490215" lon="13.0101991"><ele>223.0</ele><time>2026-05-03T12:17:25.085Z</time></trkpt><trkpt lat="41.7490277" lon="13.0098626"><ele>224.5</ele><time>2026-05-03T12:17:26.076Z</time></trkpt><trkpt lat="41.7490315" lon="13.009522"><ele>226.0</ele><time>2026-05-03T12:17:27.121Z</time></trkpt><trkpt lat="41.7490305" lon="13.0091781"><ele>227.0</ele><time>2026-05-03T12:17:28.112Z</time></trkpt><trkpt lat="41.7490323" lon="13.0088379"><ele>228.0</ele><time>2026-05-03T12:17:29.114Z</time></trkpt><trkpt lat="41.7490359" lon="13.008495"><ele>229.0</ele><time>2026-05-03T12:17:30.109Z</time></trkpt><trkpt lat="41.7490336" lon="13.0081466"><ele>230.0</ele><time>2026-05-03T12:17:31.069Z</time></trkpt><trkpt lat="41.7490344" lon="13.0077875"><ele>232.0</ele><time>2026-05-03T12:17:32.117Z</time></trkpt><trkpt lat="41.7490356" lon="13.0074224"><ele>234.0</ele><time>2026-05-03T12:17:33.113Z</time></trkpt><trkpt lat="41.7490356" lon="13.0070444"><ele>234.0</ele><time>2026-05-03T12:17:34.069Z</time></trkpt><trkpt lat="41.749033" lon="13.0066548"><ele>234.0</ele><time>2026-05-03T12:17:35.063Z</time></trkpt><trkpt lat="41.7490319" lon="13.0058758"><ele>236.0</ele><time>2026-05-03T12:17:37.108Z</time></trkpt><trkpt lat="41.7490345" lon="13.0054881"><ele>238.0</ele><time>2026-05-03T12:17:38.1Z</time></trkpt><trkpt lat="41.7490387" lon="13.0046967"><ele>244.0</ele><time>2026-05-03T12:17:40.082Z</time></trkpt><trkpt lat="41.7490439" lon="13.0038933"><ele>244.0</ele><time>2026-05-03T12:17:42.078Z</time></trkpt><trkpt lat="41.749041" lon="13.0034808"><ele>244.0</ele><time>2026-05-03T12:17:43.084Z</time></trkpt><trkpt lat="41.7490427" lon="13.0030641"><ele>244.0</ele><time>2026-05-03T12:17:44.092Z</time></trkpt><trkpt lat="41.749048" lon="13.0026466"><ele>244.0</ele><time>2026-05-03T12:17:45.071Z</time></trkpt><trkpt lat="41.7490494" lon="13.0022263"><ele>244.0</ele><time>2026-05-03T12:17:46.081Z</time></trkpt><trkpt lat="41.7490523" lon="13.0018024"><ele>244.0</ele><time>2026-05-03T12:17:47.12Z</time></trkpt><trkpt lat="41.7490546" lon="13.0013927"><ele>244.0</ele><time>2026-05-03T12:17:48.076Z</time></trkpt><trkpt lat="41.7490582" lon="13.0009685"><ele>244.0</ele><time>2026-05-03T12:17:49.098Z</time></trkpt><trkpt lat="41.749062" lon="13.0005543"><ele>240.0</ele><time>2026-05-03T12:17:50.105Z</time></trkpt><trkpt lat="41.7490651" lon="13.0001392"><ele>236.0</ele><time>2026-05-03T12:17:51.088Z</time></trkpt><trkpt lat="41.7490689" lon="12.9997213"><ele>236.0</ele><time>2026-05-03T12:17:52.123Z</time></trkpt><trkpt lat="41.7490749" lon="12.999321"><ele>236.0</ele><time>2026-05-03T12:17:53.083Z</time></trkpt><trkpt lat="41.7490793" lon="12.9989056"><ele>230.0</ele><time>2026-05-03T12:17:54.127Z</time></trkpt><trkpt lat="41.7490792" lon="12.9985045"><ele>224.0</ele><time>2026-05-03T12:17:55.129Z</time></trkpt><trkpt lat="41.7490834" lon="12.9981028"><ele>223.5</ele><time>2026-05-03T12:17:56.117Z</time></trkpt><trkpt lat="41.7490859" lon="12.9977019"><ele>223.0</ele><time>2026-05-03T12:17:57.122Z</time></trkpt><trkpt lat="41.7490881" lon="12.9973049"><ele>225.5</ele><time>2026-05-03T12:17:58.1Z</time></trkpt><trkpt lat="41.7490895" lon="12.9969022"><ele>228.0</ele><time>2026-05-03T12:17:59.122Z</time></trkpt><trkpt lat="41.7490954" lon="12.9965064"><ele>228.0</ele><time>2026-05-03T12:18:00.139Z</time></trkpt><trkpt lat="41.7491036" lon="12.9961265"><ele>228.0</ele><time>2026-05-03T12:18:01.078Z</time></trkpt><trkpt lat="41.749112" lon="12.9957266"><ele>228.0</ele><time>2026-05-03T12:18:02.125Z</time></trkpt><trkpt lat="41.7491213" lon="12.9953464"><ele>228.0</ele><time>2026-05-03T12:18:03.106Z</time></trkpt><trkpt lat="41.7491389" lon="12.9949605"><ele>227.5</ele><time>2026-05-03T12:18:04.121Z</time></trkpt><trkpt lat="41.7491657" lon="12.9945881"><ele>227.0</ele><time>2026-05-03T12:18:05.084Z</time></trkpt><trkpt lat="41.7491976" lon="12.994211"><ele>223.5</ele><time>2026-05-03T12:18:06.068Z</time></trkpt><trkpt lat="41.7492341" lon="12.9938329"><ele>220.0</ele><time>2026-05-03T12:18:07.1Z</time></trkpt><trkpt lat="41.7492705" lon="12.9934634"><ele>219.0</ele><time>2026-05-03T12:18:08.129Z</time></trkpt><trkpt lat="41.7493135" lon="12.9930989"><ele>218.0</ele><time>2026-05-03T12:18:09.133Z</time></trkpt><trkpt lat="41.7493608" lon="12.9927339"><ele>220.5</ele><time>2026-05-03T12:18:10.092Z</time></trkpt><trkpt lat="41.7494175" lon="12.9923677"><ele>223.0</ele><time>2026-05-03T12:18:11.076Z</time></trkpt><trkpt lat="41.7494824" lon="12.9919964"><ele>226.0</ele><time>2026-05-03T12:18:12.121Z</time></trkpt><trkpt lat="41.7495567" lon="12.9916299"><ele>229.0</ele><time>2026-05-03T12:18:13.119Z</time></trkpt><trkpt lat="41.7496361" lon="12.9912623"><ele>229.0</ele><time>2026-05-03T12:18:14.107Z</time></trkpt><trkpt lat="41.7497237" lon="12.9908928"><ele>229.0</ele><time>2026-05-03T12:18:15.082Z</time></trkpt><trkpt lat="41.7498188" lon="12.9905245"><ele>229.5</ele><time>2026-05-03T12:18:16.107Z</time></trkpt><trkpt lat="41.7499138" lon="12.990159"><ele>230.0</ele><time>2026-05-03T12:18:17.114Z</time></trkpt><trkpt lat="41.7500153" lon="12.9897988"><ele>227.5</ele><time>2026-05-03T12:18:18.113Z</time></trkpt><trkpt lat="41.7501183" lon="12.9894427"><ele>225.0</ele><time>2026-05-03T12:18:19.095Z</time></trkpt><trkpt lat="41.750222" lon="12.9890868"><ele>223.5</ele><time>2026-05-03T12:18:20.094Z</time></trkpt><trkpt lat="41.7503212" lon="12.9887299"><ele>222.0</ele><time>2026-05-03T12:18:21.069Z</time></trkpt><trkpt lat="41.7504241" lon="12.9883831"><ele>217.0</ele><time>2026-05-03T12:18:22.113Z</time></trkpt><trkpt lat="41.7505275" lon="12.9880183"><ele>212.0</ele><time>2026-05-03T12:18:23.121Z</time></trkpt><trkpt lat="41.7506306" lon="12.9876505"><ele>211.5</ele><time>2026-05-03T12:18:24.095Z</time></trkpt><trkpt lat="41.7507347" lon="12.9872816"><ele>211.0</ele><time>2026-05-03T12:18:25.07Z</time></trkpt><trkpt lat="41.7508415" lon="12.9869169"><ele>210.5</ele><time>2026-05-03T12:18:26.102Z</time></trkpt><trkpt lat="41.7509513" lon="12.9865462"><ele>210.0</ele><time>2026-05-03T12:18:27.137Z</time></trkpt><trkpt lat="41.7510599" lon="12.9861772"><ele>209.5</ele><time>2026-05-03T12:18:28.124Z</time></trkpt><trkpt lat="41.751168" lon="12.9858109"><ele>209.0</ele><time>2026-05-03T12:18:29.072Z</time></trkpt><trkpt lat="41.7512744" lon="12.9854471"><ele>209.0</ele><time>2026-05-03T12:18:30.114Z</time></trkpt><trkpt lat="41.7513839" lon="12.9850783"><ele>209.0</ele><time>2026-05-03T12:18:31.083Z</time></trkpt><trkpt lat="41.7514927" lon="12.9847031"><ele>210.0</ele><time>2026-05-03T12:18:32.112Z</time></trkpt><trkpt lat="41.7516012" lon="12.9843201"><ele>211.0</ele><time>2026-05-03T12:18:33.122Z</time></trkpt><trkpt lat="41.7517112" lon="12.9839287"><ele>211.5</ele><time>2026-05-03T12:18:34.104Z</time></trkpt><trkpt lat="41.751826" lon="12.9835418"><ele>212.0</ele><time>2026-05-03T12:18:35.073Z</time></trkpt><trkpt lat="41.7519393" lon="12.983163"><ele>210.5</ele><time>2026-05-03T12:18:36.094Z</time></trkpt><trkpt lat="41.75205" lon="12.9827816"><ele>209.0</ele><time>2026-05-03T12:18:37.109Z</time></trkpt><trkpt lat="41.7521565" lon="12.9824065"><ele>209.0</ele><time>2026-05-03T12:18:38.08Z</time></trkpt><trkpt lat="41.7522649" lon="12.982033"><ele>209.0</ele><time>2026-05-03T12:18:39.065Z</time></trkpt><trkpt lat="41.7523701" lon="12.9816644"><ele>214.5</ele><time>2026-05-03T12:18:40.116Z</time></trkpt><trkpt lat="41.752477" lon="12.9812901"><ele>220.0</ele><time>2026-05-03T12:18:41.097Z</time></trkpt><trkpt lat="41.7525849" lon="12.9809117"><ele>221.5</ele><time>2026-05-03T12:18:42.061Z</time></trkpt><trkpt lat="41.7526912" lon="12.9805323"><ele>223.0</ele><time>2026-05-03T12:18:43.107Z</time></trkpt><trkpt lat="41.7528019" lon="12.9801496"><ele>226.0</ele><time>2026-05-03T12:18:44.119Z</time></trkpt><trkpt lat="41.7529115" lon="12.9797785"><ele>229.0</ele><time>2026-05-03T12:18:45.067Z</time></trkpt><trkpt lat="41.7530197" lon="12.9794115"><ele>229.0</ele><time>2026-05-03T12:18:46.098Z</time></trkpt><trkpt lat="41.7531282" lon="12.9790467"><ele>229.0</ele><time>2026-05-03T12:18:47.102Z</time></trkpt><trkpt lat="41.7532317" lon="12.9786778"><ele>228.5</ele><time>2026-05-03T12:18:48.08Z</time></trkpt><trkpt lat="41.7533382" lon="12.9783079"><ele>228.0</ele><time>2026-05-03T12:18:49.109Z</time></trkpt><trkpt lat="41.7534459" lon="12.9779413"><ele>221.5</ele><time>2026-05-03T12:18:50.124Z</time></trkpt><trkpt lat="41.7535527" lon="12.9775739"><ele>215.0</ele><time>2026-05-03T12:18:51.119Z</time></trkpt><trkpt lat="41.7536614" lon="12.9772063"><ele>215.0</ele><time>2026-05-03T12:18:52.106Z</time></trkpt><trkpt lat="41.753763" lon="12.9768413"><ele>215.0</ele><time>2026-05-03T12:18:53.089Z</time></trkpt><trkpt lat="41.7538721" lon="12.9764815"><ele>215.0</ele><time>2026-05-03T12:18:54.082Z</time></trkpt><trkpt lat="41.7539755" lon="12.9761214"><ele>215.0</ele><time>2026-05-03T12:18:55.123Z</time></trkpt><trkpt lat="41.7540796" lon="12.9757595"><ele>216.0</ele><time>2026-05-03T12:18:56.119Z</time></trkpt><trkpt lat="41.7541852" lon="12.9753997"><ele>217.0</ele><time>2026-05-03T12:18:57.114Z</time></trkpt><trkpt lat="41.7542854" lon="12.9750496"><ele>215.5</ele><time>2026-05-03T12:18:58.091Z</time></trkpt><trkpt lat="41.754383" lon="12.9747011"><ele>214.0</ele><time>2026-05-03T12:18:59.123Z</time></trkpt><trkpt lat="41.7544852" lon="12.9743491"><ele>217.0</ele><time>2026-05-03T12:19:00.123Z</time></trkpt><trkpt lat="41.7545838" lon="12.9739955"><ele>220.0</ele><time>2026-05-03T12:19:01.119Z</time></trkpt><trkpt lat="41.7546856" lon="12.9736505"><ele>225.5</ele><time>2026-05-03T12:19:02.127Z</time></trkpt><trkpt lat="41.7547891" lon="12.9733009"><ele>231.0</ele><time>2026-05-03T12:19:03.129Z</time></trkpt><trkpt lat="41.7548911" lon="12.9729512"><ele>231.0</ele><time>2026-05-03T12:19:04.126Z</time></trkpt><trkpt lat="41.7549909" lon="12.9726054"><ele>231.0</ele><time>2026-05-03T12:19:05.093Z</time></trkpt><trkpt lat="41.7550941" lon="12.9722441"><ele>235.0</ele><time>2026-05-03T12:19:06.105Z</time></trkpt><trkpt lat="41.7551946" lon="12.9718882"><ele>239.0</ele><time>2026-05-03T12:19:07.098Z</time></trkpt><trkpt lat="41.7552932" lon="12.9715395"><ele>233.0</ele><time>2026-05-03T12:19:08.078Z</time></trkpt><trkpt lat="41.7553939" lon="12.9711872"><ele>227.0</ele><time>2026-05-03T12:19:09.113Z</time></trkpt><trkpt lat="41.7554971" lon="12.9708394"><ele>227.0</ele><time>2026-05-03T12:19:10.125Z</time></trkpt><trkpt lat="41.7555988" lon="12.9704891"><ele>227.0</ele><time>2026-05-03T12:19:11.091Z</time></trkpt><trkpt lat="41.7556983" lon="12.97014"><ele>230.0</ele><time>2026-05-03T12:19:12.09Z</time></trkpt><trkpt lat="41.7557944" lon="12.9697906"><ele>233.0</ele><time>2026-05-03T12:19:13.075Z</time></trkpt><trkpt lat="41.7558955" lon="12.9694393"><ele>232.5</ele><time>2026-05-03T12:19:14.123Z</time></trkpt><trkpt lat="41.7559968" lon="12.9690933"><ele>232.0</ele><time>2026-05-03T12:19:15.107Z</time></trkpt><trkpt lat="41.7560999" lon="12.9687439"><ele>229.5</ele><time>2026-05-03T12:19:16.103Z</time></trkpt><trkpt lat="41.756205" lon="12.9683889"><ele>227.0</ele><time>2026-05-03T12:19:17.127Z</time></trkpt><trkpt lat="41.7563095" lon="12.9680415"><ele>227.0</ele><time>2026-05-03T12:19:18.149Z</time></trkpt><trkpt lat="41.7564071" lon="12.9677001"><ele>227.0</ele><time>2026-05-03T12:19:19.131Z</time></trkpt><trkpt lat="41.7564997" lon="12.9673654"><ele>232.0</ele><time>2026-05-03T12:19:20.12Z</time></trkpt><trkpt lat="41.7565932" lon="12.9670443"><ele>237.0</ele><time>2026-05-03T12:19:21.112Z</time></trkpt><trkpt lat="41.7566895" lon="12.9667242"><ele>239.5</ele><time>2026-05-03T12:19:22.118Z</time></trkpt><trkpt lat="41.756789" lon="12.9664093"><ele>242.0</ele><time>2026-05-03T12:19:23.113Z</time></trkpt><trkpt lat="41.7568941" lon="12.9660822"><ele>235.0</ele><time>2026-05-03T12:19:24.134Z</time></trkpt><trkpt lat="41.7569904" lon="12.9657468"><ele>228.0</ele><time>2026-05-03T12:19:25.118Z</time></trkpt><trkpt lat="41.7570933" lon="12.9654138"><ele>228.0</ele><time>2026-05-03T12:19:26.084Z</time></trkpt><trkpt lat="41.7571927" lon="12.9650767"><ele>228.0</ele><time>2026-05-03T12:19:27.116Z</time></trkpt><trkpt lat="41.75729" lon="12.9647404"><ele>234.0</ele><time>2026-05-03T12:19:28.13Z</time></trkpt><trkpt lat="41.7573889" lon="12.9644018"><ele>240.0</ele><time>2026-05-03T12:19:29.106Z</time></trkpt><trkpt lat="41.7574833" lon="12.9640658"><ele>243.5</ele><time>2026-05-03T12:19:30.119Z</time></trkpt><trkpt lat="41.7575761" lon="12.963725"><ele>247.0</ele><time>2026-05-03T12:19:31.122Z</time></trkpt><trkpt lat="41.7576644" lon="12.9633875"><ele>243.5</ele><time>2026-05-03T12:19:32.093Z</time></trkpt><trkpt lat="41.7577505" lon="12.9630531"><ele>240.0</ele><time>2026-05-03T12:19:33.115Z</time></trkpt><trkpt lat="41.757836" lon="12.9627164"><ele>242.0</ele><time>2026-05-03T12:19:34.119Z</time></trkpt><trkpt lat="41.7579207" lon="12.9623835"><ele>244.0</ele><time>2026-05-03T12:19:35.135Z</time></trkpt><trkpt lat="41.758006" lon="12.9620471"><ele>244.0</ele><time>2026-05-03T12:19:36.116Z</time></trkpt><trkpt lat="41.7580886" lon="12.9617088"><ele>244.0</ele><time>2026-05-03T12:19:37.102Z</time></trkpt><trkpt lat="41.758172" lon="12.9613685"><ele>245.0</ele><time>2026-05-03T12:19:38.077Z</time></trkpt><trkpt lat="41.7582499" lon="12.9610337"><ele>246.0</ele><time>2026-05-03T12:19:39.066Z</time></trkpt><trkpt lat="41.7583236" lon="12.9607003"><ele>246.0</ele><time>2026-05-03T12:19:40.064Z</time></trkpt><trkpt lat="41.758397" lon="12.960367"><ele>246.0</ele><time>2026-05-03T12:19:41.063Z</time></trkpt><trkpt lat="41.7584703" lon="12.9600341"><ele>238.5</ele><time>2026-05-03T12:19:42.098Z</time></trkpt><trkpt lat="41.7585438" lon="12.9596974"><ele>231.0</ele><time>2026-05-03T12:19:43.118Z</time></trkpt><trkpt lat="41.7586162" lon="12.9593561"><ele>234.0</ele><time>2026-05-03T12:19:44.129Z</time></trkpt><trkpt lat="41.7586871" lon="12.9590162"><ele>237.0</ele><time>2026-05-03T12:19:45.089Z</time></trkpt><trkpt lat="41.7587602" lon="12.9586694"><ele>239.0</ele><time>2026-05-03T12:19:46.096Z</time></trkpt><trkpt lat="41.758835" lon="12.9583216"><ele>241.0</ele><time>2026-05-03T12:19:47.1Z</time></trkpt><trkpt lat="41.7589103" lon="12.9579768"><ele>241.0</ele><time>2026-05-03T12:19:48.13Z</time></trkpt><trkpt lat="41.7589863" lon="12.9576269"><ele>241.0</ele><time>2026-05-03T12:19:49.082Z</time></trkpt><trkpt lat="41.7590589" lon="12.9572736"><ele>241.5</ele><time>2026-05-03T12:19:50.112Z</time></trkpt><trkpt lat="41.7591332" lon="12.9569147"><ele>242.0</ele><time>2026-05-03T12:19:51.122Z</time></trkpt><trkpt lat="41.7592072" lon="12.9565662"><ele>243.0</ele><time>2026-05-03T12:19:52.123Z</time></trkpt><trkpt lat="41.7592821" lon="12.9562102"><ele>244.0</ele><time>2026-05-03T12:19:53.099Z</time></trkpt><trkpt lat="41.7593557" lon="12.9558603"><ele>249.5</ele><time>2026-05-03T12:19:54.121Z</time></trkpt><trkpt lat="41.7594303" lon="12.9555092"><ele>255.0</ele><time>2026-05-03T12:19:55.135Z</time></trkpt><trkpt lat="41.7595031" lon="12.9551652"><ele>254.5</ele><time>2026-05-03T12:19:56.126Z</time></trkpt><trkpt lat="41.75958" lon="12.9548197"><ele>254.0</ele><time>2026-05-03T12:19:57.131Z</time></trkpt><trkpt lat="41.7596552" lon="12.9544774"><ele>252.5</ele><time>2026-05-03T12:19:58.109Z</time></trkpt><trkpt lat="41.7597296" lon="12.9541319"><ele>251.0</ele><time>2026-05-03T12:19:59.117Z</time></trkpt><trkpt lat="41.759805" lon="12.9537859"><ele>251.0</ele><time>2026-05-03T12:20:00.094Z</time></trkpt><trkpt lat="41.7598802" lon="12.9534395"><ele>251.0</ele><time>2026-05-03T12:20:01.109Z</time></trkpt><trkpt lat="41.7599544" lon="12.9530813"><ele>248.5</ele><time>2026-05-03T12:20:02.087Z</time></trkpt><trkpt lat="41.7600258" lon="12.9527262"><ele>246.0</ele><time>2026-05-03T12:20:03.137Z</time></trkpt><trkpt lat="41.7601038" lon="12.9523716"><ele>245.0</ele><time>2026-05-03T12:20:04.107Z</time></trkpt><trkpt lat="41.7601835" lon="12.952027"><ele>244.0</ele><time>2026-05-03T12:20:05.109Z</time></trkpt><trkpt lat="41.7602574" lon="12.951688"><ele>243.0</ele><time>2026-05-03T12:20:06.114Z</time></trkpt><trkpt lat="41.7603357" lon="12.9513561"><ele>242.0</ele><time>2026-05-03T12:20:07.113Z</time></trkpt><trkpt lat="41.7604144" lon="12.9510225"><ele>242.5</ele><time>2026-05-03T12:20:08.072Z</time></trkpt><trkpt lat="41.760493" lon="12.9506809"><ele>243.0</ele><time>2026-05-03T12:20:09.129Z</time></trkpt><trkpt lat="41.7605729" lon="12.9503432"><ele>246.5</ele><time>2026-05-03T12:20:10.112Z</time></trkpt><trkpt lat="41.7606524" lon="12.9499971"><ele>250.0</ele><time>2026-05-03T12:20:11.116Z</time></trkpt><trkpt lat="41.7607331" lon="12.949657"><ele>250.0</ele><time>2026-05-03T12:20:12.105Z</time></trkpt><trkpt lat="41.7608124" lon="12.9493156"><ele>250.0</ele><time>2026-05-03T12:20:13.083Z</time></trkpt><trkpt lat="41.7608943" lon="12.9489729"><ele>252.0</ele><time>2026-05-03T12:20:14.117Z</time></trkpt><trkpt lat="41.7609753" lon="12.9486209"><ele>254.0</ele><time>2026-05-03T12:20:15.127Z</time></trkpt><trkpt lat="41.7610532" lon="12.9482711"><ele>257.0</ele><time>2026-05-03T12:20:16.113Z</time></trkpt><trkpt lat="41.7611349" lon="12.9479193"><ele>260.0</ele><time>2026-05-03T12:20:17.107Z</time></trkpt><trkpt lat="41.7612163" lon="12.9475575"><ele>262.5</ele><time>2026-05-03T12:20:18.116Z</time></trkpt><trkpt lat="41.7612988" lon="12.9471869"><ele>265.0</ele><time>2026-05-03T12:20:19.117Z</time></trkpt><trkpt lat="41.7613767" lon="12.9468099"><ele>264.5</ele><time>2026-05-03T12:20:20.129Z</time></trkpt><trkpt lat="41.7614562" lon="12.9464209"><ele>264.0</ele><time>2026-05-03T12:20:21.1Z</time></trkpt><trkpt lat="41.7615364" lon="12.9460191"><ele>264.0</ele><time>2026-05-03T12:20:22.088Z</time></trkpt><trkpt lat="41.7616226" lon="12.9456133"><ele>264.0</ele><time>2026-05-03T12:20:23.117Z</time></trkpt><trkpt lat="41.7617082" lon="12.9451999"><ele>264.5</ele><time>2026-05-03T12:20:24.143Z</time></trkpt><trkpt lat="41.7617962" lon="12.944794"><ele>265.0</ele><time>2026-05-03T12:20:25.089Z</time></trkpt><trkpt lat="41.7618875" lon="12.9443822"><ele>262.5</ele><time>2026-05-03T12:20:26.08Z</time></trkpt><trkpt lat="41.7619724" lon="12.9439754"><ele>260.0</ele><time>2026-05-03T12:20:27.108Z</time></trkpt><trkpt lat="41.7620579" lon="12.9435694"><ele>260.0</ele><time>2026-05-03T12:20:28.13Z</time></trkpt><trkpt lat="41.7621463" lon="12.943168"><ele>260.0</ele><time>2026-05-03T12:20:29.105Z</time></trkpt><trkpt lat="41.7622325" lon="12.9427712"><ele>260.0</ele><time>2026-05-03T12:20:30.11Z</time></trkpt><trkpt lat="41.7623187" lon="12.9423719"><ele>260.0</ele><time>2026-05-03T12:20:31.129Z</time></trkpt><trkpt lat="41.7624037" lon="12.9419815"><ele>260.0</ele><time>2026-05-03T12:20:32.067Z</time></trkpt><trkpt lat="41.7624909" lon="12.9415958"><ele>260.0</ele><time>2026-05-03T12:20:33.14Z</time></trkpt><trkpt lat="41.7625764" lon="12.9412096"><ele>260.5</ele><time>2026-05-03T12:20:34.133Z</time></trkpt><trkpt lat="41.7626588" lon="12.9408247"><ele>261.0</ele><time>2026-05-03T12:20:35.127Z</time></trkpt><trkpt lat="41.7627422" lon="12.9404408"><ele>262.5</ele><time>2026-05-03T12:20:36.116Z</time></trkpt><trkpt lat="41.7628264" lon="12.9400565"><ele>264.0</ele><time>2026-05-03T12:20:37.087Z</time></trkpt><trkpt lat="41.7629034" lon="12.939675"><ele>265.5</ele><time>2026-05-03T12:20:38.143Z</time></trkpt><trkpt lat="41.7629838" lon="12.9392916"><ele>267.0</ele><time>2026-05-03T12:20:39.145Z</time></trkpt><trkpt lat="41.7630695" lon="12.9389094"><ele>267.5</ele><time>2026-05-03T12:20:40.127Z</time></trkpt><trkpt lat="41.7631597" lon="12.9385227"><ele>268.0</ele><time>2026-05-03T12:20:41.142Z</time></trkpt><trkpt lat="41.7632497" lon="12.9381347"><ele>268.5</ele><time>2026-05-03T12:20:42.116Z</time></trkpt><trkpt lat="41.7633386" lon="12.9377447"><ele>269.0</ele><time>2026-05-03T12:20:43.085Z</time></trkpt><trkpt lat="41.7634272" lon="12.937352"><ele>269.0</ele><time>2026-05-03T12:20:44.119Z</time></trkpt><trkpt lat="41.7635191" lon="12.9369588"><ele>269.0</ele><time>2026-05-03T12:20:45.083Z</time></trkpt><trkpt lat="41.7636084" lon="12.9365677"><ele>271.5</ele><time>2026-05-03T12:20:46.132Z</time></trkpt><trkpt lat="41.7636937" lon="12.9361758"><ele>274.0</ele><time>2026-05-03T12:20:47.09Z</time></trkpt><trkpt lat="41.7637805" lon="12.9357907"><ele>274.0</ele><time>2026-05-03T12:20:48.107Z</time></trkpt><trkpt lat="41.7638655" lon="12.9354033"><ele>274.0</ele><time>2026-05-03T12:20:49.095Z</time></trkpt><trkpt lat="41.7639535" lon="12.9350225"><ele>274.0</ele><time>2026-05-03T12:20:50.125Z</time></trkpt><trkpt lat="41.7640391" lon="12.9346326"><ele>274.0</ele><time>2026-05-03T12:20:51.109Z</time></trkpt><trkpt lat="41.7641322" lon="12.9342415"><ele>275.0</ele><time>2026-05-03T12:20:52.117Z</time></trkpt><trkpt lat="41.7642213" lon="12.9338492"><ele>276.0</ele><time>2026-05-03T12:20:53.107Z</time></trkpt><trkpt lat="41.7643086" lon="12.9334614"><ele>274.5</ele><time>2026-05-03T12:20:54.134Z</time></trkpt><trkpt lat="41.7643887" lon="12.9330743"><ele>273.0</ele><time>2026-05-03T12:20:55.1Z</time></trkpt><trkpt lat="41.764471" lon="12.9326911"><ele>273.0</ele><time>2026-05-03T12:20:56.119Z</time></trkpt><trkpt lat="41.7645518" lon="12.9323067"><ele>273.0</ele><time>2026-05-03T12:20:57.115Z</time></trkpt><trkpt lat="41.7646325" lon="12.931929"><ele>271.5</ele><time>2026-05-03T12:20:58.118Z</time></trkpt><trkpt lat="41.7647145" lon="12.9315498"><ele>270.0</ele><time>2026-05-03T12:20:59.131Z</time></trkpt><trkpt lat="41.7647978" lon="12.931176"><ele>270.5</ele><time>2026-05-03T12:21:00.126Z</time></trkpt><trkpt lat="41.7648795" lon="12.9307964"><ele>271.0</ele><time>2026-05-03T12:21:01.109Z</time></trkpt><trkpt lat="41.764957" lon="12.9304161"><ele>271.5</ele><time>2026-05-03T12:21:02.103Z</time></trkpt><trkpt lat="41.7650411" lon="12.9300376"><ele>272.0</ele><time>2026-05-03T12:21:03.077Z</time></trkpt><trkpt lat="41.7651284" lon="12.92966"><ele>272.0</ele><time>2026-05-03T12:21:04.11Z</time></trkpt><trkpt lat="41.765213" lon="12.9292717"><ele>272.0</ele><time>2026-05-03T12:21:05.123Z</time></trkpt><trkpt lat="41.7652936" lon="12.9288875"><ele>271.5</ele><time>2026-05-03T12:21:06.107Z</time></trkpt><trkpt lat="41.7653786" lon="12.9285"><ele>271.0</ele><time>2026-05-03T12:21:07.126Z</time></trkpt><trkpt lat="41.7654657" lon="12.928116"><ele>272.5</ele><time>2026-05-03T12:21:08.117Z</time></trkpt><trkpt lat="41.7655542" lon="12.9277297"><ele>274.0</ele><time>2026-05-03T12:21:09.106Z</time></trkpt><trkpt lat="41.7656349" lon="12.9273443"><ele>276.0</ele><time>2026-05-03T12:21:10.124Z</time></trkpt><trkpt lat="41.7657174" lon="12.92696"><ele>278.0</ele><time>2026-05-03T12:21:11.119Z</time></trkpt><trkpt lat="41.7658009" lon="12.9265799"><ele>280.0</ele><time>2026-05-03T12:21:12.124Z</time></trkpt><trkpt lat="41.7658866" lon="12.9262022"><ele>282.0</ele><time>2026-05-03T12:21:13.091Z</time></trkpt><trkpt lat="41.7659697" lon="12.9258218"><ele>280.0</ele><time>2026-05-03T12:21:14.119Z</time></trkpt><trkpt lat="41.7660516" lon="12.9254455"><ele>278.0</ele><time>2026-05-03T12:21:15.088Z</time></trkpt><trkpt lat="41.7661371" lon="12.9250652"><ele>278.5</ele><time>2026-05-03T12:21:16.113Z</time></trkpt><trkpt lat="41.7662177" lon="12.9246845"><ele>279.0</ele><time>2026-05-03T12:21:17.102Z</time></trkpt><trkpt lat="41.7662984" lon="12.9243017"><ele>281.0</ele><time>2026-05-03T12:21:18.131Z</time></trkpt><trkpt lat="41.7663839" lon="12.9239196"><ele>283.0</ele><time>2026-05-03T12:21:19.083Z</time></trkpt><trkpt lat="41.7664642" lon="12.9235395"><ele>284.5</ele><time>2026-05-03T12:21:20.078Z</time></trkpt><trkpt lat="41.7665443" lon="12.9231678"><ele>286.0</ele><time>2026-05-03T12:21:21.068Z</time></trkpt><trkpt lat="41.766624" lon="12.9227902"><ele>284.5</ele><time>2026-05-03T12:21:22.07Z</time></trkpt><trkpt lat="41.7667066" lon="12.9224202"><ele>283.0</ele><time>2026-05-03T12:21:23.086Z</time></trkpt><trkpt lat="41.7667852" lon="12.9220505"><ele>283.5</ele><time>2026-05-03T12:21:24.068Z</time></trkpt><trkpt lat="41.7668629" lon="12.9216905"><ele>284.0</ele><time>2026-05-03T12:21:25.061Z</time></trkpt><trkpt lat="41.7669406" lon="12.9213309"><ele>284.0</ele><time>2026-05-03T12:21:26.073Z</time></trkpt><trkpt lat="41.7670243" lon="12.9209721"><ele>284.0</ele><time>2026-05-03T12:21:27.084Z</time></trkpt><trkpt lat="41.7670983" lon="12.9206234"><ele>284.0</ele><time>2026-05-03T12:21:28.098Z</time></trkpt><trkpt lat="41.7671729" lon="12.9202689"><ele>284.0</ele><time>2026-05-03T12:21:29.112Z</time></trkpt><trkpt lat="41.7672455" lon="12.9199106"><ele>284.0</ele><time>2026-05-03T12:21:30.117Z</time></trkpt><trkpt lat="41.7673219" lon="12.9195552"><ele>284.0</ele><time>2026-05-03T12:21:31.094Z</time></trkpt><trkpt lat="41.7674036" lon="12.9192007"><ele>284.5</ele><time>2026-05-03T12:21:32.106Z</time></trkpt><trkpt lat="41.7674882" lon="12.918842"><ele>285.0</ele><time>2026-05-03T12:21:33.076Z</time></trkpt><trkpt lat="41.7675702" lon="12.9184809"><ele>285.5</ele><time>2026-05-03T12:21:34.109Z</time></trkpt><trkpt lat="41.7676504" lon="12.9181195"><ele>286.0</ele><time>2026-05-03T12:21:35.124Z</time></trkpt><trkpt lat="41.7677302" lon="12.9177541"><ele>287.0</ele><time>2026-05-03T12:21:36.089Z</time></trkpt><trkpt lat="41.7678118" lon="12.9173914"><ele>288.0</ele><time>2026-05-03T12:21:37.124Z</time></trkpt><trkpt lat="41.7678908" lon="12.9170252"><ele>289.0</ele><time>2026-05-03T12:21:38.109Z</time></trkpt><trkpt lat="41.7679694" lon="12.9166614"><ele>290.0</ele><time>2026-05-03T12:21:39.133Z</time></trkpt><trkpt lat="41.7680444" lon="12.9163042"><ele>290.0</ele><time>2026-05-03T12:21:40.106Z</time></trkpt><trkpt lat="41.7681234" lon="12.9159408"><ele>290.0</ele><time>2026-05-03T12:21:41.126Z</time></trkpt><trkpt lat="41.768206" lon="12.9155832"><ele>290.0</ele><time>2026-05-03T12:21:42.112Z</time></trkpt><trkpt lat="41.7682912" lon="12.9152224"><ele>290.0</ele><time>2026-05-03T12:21:43.089Z</time></trkpt><trkpt lat="41.7683738" lon="12.9148559"><ele>290.0</ele><time>2026-05-03T12:21:44.066Z</time></trkpt><trkpt lat="41.7684503" lon="12.9144936"><ele>290.0</ele><time>2026-05-03T12:21:45.063Z</time></trkpt><trkpt lat="41.76853" lon="12.9141319"><ele>295.5</ele><time>2026-05-03T12:21:46.058Z</time></trkpt><trkpt lat="41.7686085" lon="12.9137637"><ele>301.0</ele><time>2026-05-03T12:21:47.06Z</time></trkpt><trkpt lat="41.7686915" lon="12.9133972"><ele>302.0</ele><time>2026-05-03T12:21:48.057Z</time></trkpt><trkpt lat="41.7687728" lon="12.9130278"><ele>303.0</ele><time>2026-05-03T12:21:49.059Z</time></trkpt><trkpt lat="41.7688538" lon="12.9126704"><ele>302.5</ele><time>2026-05-03T12:21:50.067Z</time></trkpt><trkpt lat="41.7689342" lon="12.9123043"><ele>302.0</ele><time>2026-05-03T12:21:51.059Z</time></trkpt><trkpt lat="41.7690149" lon="12.9119355"><ele>299.5</ele><time>2026-05-03T12:21:52.06Z</time></trkpt><trkpt lat="41.7690977" lon="12.911565"><ele>297.0</ele><time>2026-05-03T12:21:53.058Z</time></trkpt><trkpt lat="41.769183" lon="12.9112008"><ele>297.0</ele><time>2026-05-03T12:21:54.063Z</time></trkpt><trkpt lat="41.769265" lon="12.9108292"><ele>297.0</ele><time>2026-05-03T12:21:55.062Z</time></trkpt><trkpt lat="41.7693468" lon="12.9104654"><ele>298.0</ele><time>2026-05-03T12:21:56.088Z</time></trkpt><trkpt lat="41.769425" lon="12.9100889"><ele>299.0</ele><time>2026-05-03T12:21:57.105Z</time></trkpt><trkpt lat="41.7695038" lon="12.9097208"><ele>299.0</ele><time>2026-05-03T12:21:58.099Z</time></trkpt><trkpt lat="41.7695835" lon="12.9093523"><ele>299.0</ele><time>2026-05-03T12:21:59.109Z</time></trkpt><trkpt lat="41.7696676" lon="12.9089784"><ele>298.0</ele><time>2026-05-03T12:22:00.111Z</time></trkpt><trkpt lat="41.7697475" lon="12.9086051"><ele>297.0</ele><time>2026-05-03T12:22:01.072Z</time></trkpt><trkpt lat="41.7698335" lon="12.9082345"><ele>297.0</ele><time>2026-05-03T12:22:02.112Z</time></trkpt><trkpt lat="41.7699134" lon="12.9078573"><ele>297.0</ele><time>2026-05-03T12:22:03.107Z</time></trkpt><trkpt lat="41.7699912" lon="12.9074837"><ele>299.5</ele><time>2026-05-03T12:22:04.099Z</time></trkpt><trkpt lat="41.7700723" lon="12.9071098"><ele>302.0</ele><time>2026-05-03T12:22:05.109Z</time></trkpt><trkpt lat="41.7701462" lon="12.906733"><ele>300.0</ele><time>2026-05-03T12:22:06.122Z</time></trkpt><trkpt lat="41.7702221" lon="12.9063691"><ele>298.0</ele><time>2026-05-03T12:22:07.092Z</time></trkpt><trkpt lat="41.7702986" lon="12.9060228"><ele>298.0</ele><time>2026-05-03T12:22:08.104Z</time></trkpt><trkpt lat="41.7703784" lon="12.9056711"><ele>298.0</ele><time>2026-05-03T12:22:09.092Z</time></trkpt><trkpt lat="41.7704631" lon="12.9053229"><ele>300.0</ele><time>2026-05-03T12:22:10.103Z</time></trkpt><trkpt lat="41.770547" lon="12.9049625"><ele>302.0</ele><time>2026-05-03T12:22:11.102Z</time></trkpt><trkpt lat="41.7706274" lon="12.904604"><ele>303.5</ele><time>2026-05-03T12:22:12.113Z</time></trkpt><trkpt lat="41.7707071" lon="12.9042415"><ele>305.0</ele><time>2026-05-03T12:22:13.087Z</time></trkpt><trkpt lat="41.770794" lon="12.9038815"><ele>305.0</ele><time>2026-05-03T12:22:14.096Z</time></trkpt><trkpt lat="41.7708816" lon="12.9035252"><ele>305.0</ele><time>2026-05-03T12:22:15.114Z</time></trkpt><trkpt lat="41.7709701" lon="12.9031733"><ele>307.0</ele><time>2026-05-03T12:22:16.096Z</time></trkpt><trkpt lat="41.7710557" lon="12.9028165"><ele>309.0</ele><time>2026-05-03T12:22:17.098Z</time></trkpt><trkpt lat="41.7711378" lon="12.902462"><ele>310.0</ele><time>2026-05-03T12:22:18.133Z</time></trkpt><trkpt lat="41.7712205" lon="12.9021029"><ele>311.0</ele><time>2026-05-03T12:22:19.112Z</time></trkpt><trkpt lat="41.7713023" lon="12.9017411"><ele>312.0</ele><time>2026-05-03T12:22:20.128Z</time></trkpt><trkpt lat="41.7713807" lon="12.90138"><ele>313.0</ele><time>2026-05-03T12:22:21.134Z</time></trkpt><trkpt lat="41.7714614" lon="12.9010171"><ele>314.5</ele><time>2026-05-03T12:22:22.129Z</time></trkpt><trkpt lat="41.7715399" lon="12.9006497"><ele>316.0</ele><time>2026-05-03T12:22:23.121Z</time></trkpt><trkpt lat="41.7716205" lon="12.9002879"><ele>316.5</ele><time>2026-05-03T12:22:24.128Z</time></trkpt><trkpt lat="41.7717009" lon="12.8999243"><ele>317.0</ele><time>2026-05-03T12:22:25.103Z</time></trkpt><trkpt lat="41.771781" lon="12.8995584"><ele>312.5</ele><time>2026-05-03T12:22:26.071Z</time></trkpt><trkpt lat="41.7718604" lon="12.8991916"><ele>308.0</ele><time>2026-05-03T12:22:27.122Z</time></trkpt><trkpt lat="41.7719389" lon="12.8988265"><ele>308.0</ele><time>2026-05-03T12:22:28.104Z</time></trkpt><trkpt lat="41.7720192" lon="12.8984598"><ele>308.0</ele><time>2026-05-03T12:22:29.098Z</time></trkpt><trkpt lat="41.7721001" lon="12.8980899"><ele>309.5</ele><time>2026-05-03T12:22:30.14Z</time></trkpt><trkpt lat="41.7721812" lon="12.8977183"><ele>311.0</ele><time>2026-05-03T12:22:31.119Z</time></trkpt><trkpt lat="41.7722609" lon="12.8973421"><ele>311.5</ele><time>2026-05-03T12:22:32.092Z</time></trkpt><trkpt lat="41.7723436" lon="12.8969653"><ele>312.0</ele><time>2026-05-03T12:22:33.092Z</time></trkpt><trkpt lat="41.7724285" lon="12.8965894"><ele>313.0</ele><time>2026-05-03T12:22:34.068Z</time></trkpt><trkpt lat="41.7725102" lon="12.8962179"><ele>314.0</ele><time>2026-05-03T12:22:35.099Z</time></trkpt><trkpt lat="41.7725945" lon="12.8958506"><ele>314.0</ele><time>2026-05-03T12:22:36.065Z</time></trkpt><trkpt lat="41.7726783" lon="12.8954832"><ele>314.0</ele><time>2026-05-03T12:22:37.088Z</time></trkpt><trkpt lat="41.7727596" lon="12.8951242"><ele>314.5</ele><time>2026-05-03T12:22:38.115Z</time></trkpt><trkpt lat="41.7728379" lon="12.8947661"><ele>315.0</ele><time>2026-05-03T12:22:39.062Z</time></trkpt><trkpt lat="41.772918" lon="12.8944088"><ele>314.5</ele><time>2026-05-03T12:22:40.121Z</time></trkpt><trkpt lat="41.7729962" lon="12.894058"><ele>314.0</ele><time>2026-05-03T12:22:41.107Z</time></trkpt><trkpt lat="41.7730737" lon="12.8937106"><ele>315.0</ele><time>2026-05-03T12:22:42.108Z</time></trkpt><trkpt lat="41.7731486" lon="12.8933638"><ele>316.0</ele><time>2026-05-03T12:22:43.074Z</time></trkpt><trkpt lat="41.7732191" lon="12.893014"><ele>316.0</ele><time>2026-05-03T12:22:44.106Z</time></trkpt><trkpt lat="41.7732903" lon="12.8926689"><ele>316.0</ele><time>2026-05-03T12:22:45.103Z</time></trkpt><trkpt lat="41.7733675" lon="12.8923214"><ele>317.0</ele><time>2026-05-03T12:22:46.099Z</time></trkpt><trkpt lat="41.7734448" lon="12.8919751"><ele>318.0</ele><time>2026-05-03T12:22:47.081Z</time></trkpt><trkpt lat="41.7735263" lon="12.8916247"><ele>318.0</ele><time>2026-05-03T12:22:48.09Z</time></trkpt><trkpt lat="41.7736045" lon="12.8912833"><ele>318.0</ele><time>2026-05-03T12:22:49.094Z</time></trkpt><trkpt lat="41.7736805" lon="12.8909317"><ele>319.5</ele><time>2026-05-03T12:22:50.057Z</time></trkpt><trkpt lat="41.7737613" lon="12.8905849"><ele>321.0</ele><time>2026-05-03T12:22:51.084Z</time></trkpt><trkpt lat="41.7738377" lon="12.8902349"><ele>322.5</ele><time>2026-05-03T12:22:52.105Z</time></trkpt><trkpt lat="41.7739125" lon="12.8898863"><ele>324.0</ele><time>2026-05-03T12:22:53.122Z</time></trkpt><trkpt lat="41.7739876" lon="12.8895371"><ele>324.5</ele><time>2026-05-03T12:22:54.121Z</time></trkpt><trkpt lat="41.7740647" lon="12.8891905"><ele>325.0</ele><time>2026-05-03T12:22:55.077Z</time></trkpt><trkpt lat="41.7741432" lon="12.8888412"><ele>325.0</ele><time>2026-05-03T12:22:56.118Z</time></trkpt><trkpt lat="41.7742201" lon="12.8884931"><ele>325.0</ele><time>2026-05-03T12:22:57.095Z</time></trkpt><trkpt lat="41.7742971" lon="12.8881477"><ele>324.5</ele><time>2026-05-03T12:22:58.1Z</time></trkpt><trkpt lat="41.7743705" lon="12.8878007"><ele>324.0</ele><time>2026-05-03T12:22:59.118Z</time></trkpt><trkpt lat="41.7744441" lon="12.8874559"><ele>323.0</ele><time>2026-05-03T12:23:00.086Z</time></trkpt><trkpt lat="41.7745193" lon="12.8871087"><ele>322.0</ele><time>2026-05-03T12:23:01.067Z</time></trkpt><trkpt lat="41.7745936" lon="12.8867613"><ele>322.5</ele><time>2026-05-03T12:23:02.091Z</time></trkpt><trkpt lat="41.7746679" lon="12.8864158"><ele>323.0</ele><time>2026-05-03T12:23:03.12Z</time></trkpt><trkpt lat="41.7747455" lon="12.8860646"><ele>324.5</ele><time>2026-05-03T12:23:04.124Z</time></trkpt><trkpt lat="41.7748277" lon="12.8857201"><ele>326.0</ele><time>2026-05-03T12:23:05.106Z</time></trkpt><trkpt lat="41.7749051" lon="12.8853787"><ele>328.0</ele><time>2026-05-03T12:23:06.119Z</time></trkpt><trkpt lat="41.7749817" lon="12.8850341"><ele>330.0</ele><time>2026-05-03T12:23:07.113Z</time></trkpt><trkpt lat="41.7750542" lon="12.8846917"><ele>330.0</ele><time>2026-05-03T12:23:08.107Z</time></trkpt><trkpt lat="41.7751262" lon="12.8843446"><ele>330.0</ele><time>2026-05-03T12:23:09.114Z</time></trkpt><trkpt lat="41.7752013" lon="12.8840064"><ele>333.5</ele><time>2026-05-03T12:23:10.067Z</time></trkpt><trkpt lat="41.7752715" lon="12.8836677"><ele>337.0</ele><time>2026-05-03T12:23:11.109Z</time></trkpt><trkpt lat="41.7753453" lon="12.8833271"><ele>338.0</ele><time>2026-05-03T12:23:12.132Z</time></trkpt><trkpt lat="41.7754182" lon="12.8829849"><ele>339.0</ele><time>2026-05-03T12:23:13.128Z</time></trkpt><trkpt lat="41.7754976" lon="12.8826386"><ele>339.5</ele><time>2026-05-03T12:23:14.093Z</time></trkpt><trkpt lat="41.7755735" lon="12.882292"><ele>340.0</ele><time>2026-05-03T12:23:15.088Z</time></trkpt><trkpt lat="41.7756504" lon="12.8819469"><ele>339.5</ele><time>2026-05-03T12:23:16.123Z</time></trkpt><trkpt lat="41.7757282" lon="12.8815955"><ele>339.0</ele><time>2026-05-03T12:23:17.118Z</time></trkpt><trkpt lat="41.7758013" lon="12.8812462"><ele>339.0</ele><time>2026-05-03T12:23:18.076Z</time></trkpt><trkpt lat="41.7758807" lon="12.8808961"><ele>339.0</ele><time>2026-05-03T12:23:19.117Z</time></trkpt><trkpt lat="41.7759593" lon="12.8805484"><ele>341.0</ele><time>2026-05-03T12:23:20.13Z</time></trkpt><trkpt lat="41.776039" lon="12.8802004"><ele>343.0</ele><time>2026-05-03T12:23:21.118Z</time></trkpt><trkpt lat="41.7761135" lon="12.8798533"><ele>343.5</ele><time>2026-05-03T12:23:22.119Z</time></trkpt><trkpt lat="41.7761872" lon="12.8795052"><ele>344.0</ele><time>2026-05-03T12:23:23.108Z</time></trkpt><trkpt lat="41.7762626" lon="12.8791618"><ele>344.0</ele><time>2026-05-03T12:23:24.133Z</time></trkpt><trkpt lat="41.7763394" lon="12.8788156"><ele>344.0</ele><time>2026-05-03T12:23:25.09Z</time></trkpt><trkpt lat="41.7764142" lon="12.8784769"><ele>343.5</ele><time>2026-05-03T12:23:26.114Z</time></trkpt><trkpt lat="41.7764907" lon="12.8781415"><ele>343.0</ele><time>2026-05-03T12:23:27.119Z</time></trkpt><trkpt lat="41.7765691" lon="12.8778042"><ele>342.5</ele><time>2026-05-03T12:23:28.128Z</time></trkpt><trkpt lat="41.7766464" lon="12.8774697"><ele>342.0</ele><time>2026-05-03T12:23:29.11Z</time></trkpt><trkpt lat="41.7767217" lon="12.8771347"><ele>342.0</ele><time>2026-05-03T12:23:30.103Z</time></trkpt><trkpt lat="41.7767916" lon="12.8768003"><ele>342.0</ele><time>2026-05-03T12:23:31.099Z</time></trkpt><trkpt lat="41.7768639" lon="12.8764696"><ele>345.0</ele><time>2026-05-03T12:23:32.123Z</time></trkpt><trkpt lat="41.7769333" lon="12.8761333"><ele>348.0</ele><time>2026-05-03T12:23:33.129Z</time></trkpt><trkpt lat="41.7770025" lon="12.8757943"><ele>349.0</ele><time>2026-05-03T12:23:34.066Z</time></trkpt><trkpt lat="41.7770739" lon="12.8754612"><ele>350.0</ele><time>2026-05-03T12:23:35.099Z</time></trkpt><trkpt lat="41.7771444" lon="12.8751274"><ele>349.5</ele><time>2026-05-03T12:23:36.089Z</time></trkpt><trkpt lat="41.7772186" lon="12.8747907"><ele>349.0</ele><time>2026-05-03T12:23:37.107Z</time></trkpt><trkpt lat="41.7772915" lon="12.8744595"><ele>347.5</ele><time>2026-05-03T12:23:38.12Z</time></trkpt><trkpt lat="41.7773646" lon="12.8741367"><ele>346.0</ele><time>2026-05-03T12:23:39.086Z</time></trkpt><trkpt lat="41.7774407" lon="12.8738079"><ele>346.0</ele><time>2026-05-03T12:23:40.117Z</time></trkpt><trkpt lat="41.7775134" lon="12.8734879"><ele>346.0</ele><time>2026-05-03T12:23:41.104Z</time></trkpt><trkpt lat="41.7775818" lon="12.8731633"><ele>343.0</ele><time>2026-05-03T12:23:42.096Z</time></trkpt><trkpt lat="41.7776496" lon="12.8728372"><ele>340.0</ele><time>2026-05-03T12:23:43.114Z</time></trkpt><trkpt lat="41.7777207" lon="12.8725217"><ele>340.0</ele><time>2026-05-03T12:23:44.067Z</time></trkpt><trkpt lat="41.7777951" lon="12.8722018"><ele>340.0</ele><time>2026-05-03T12:23:45.059Z</time></trkpt><trkpt lat="41.7778666" lon="12.871883"><ele>342.0</ele><time>2026-05-03T12:23:46.071Z</time></trkpt><trkpt lat="41.777938" lon="12.8715656"><ele>344.0</ele><time>2026-05-03T12:23:47.112Z</time></trkpt><trkpt lat="41.7780054" lon="12.8712545"><ele>345.5</ele><time>2026-05-03T12:23:48.073Z</time></trkpt><trkpt lat="41.778074" lon="12.870934"><ele>347.0</ele><time>2026-05-03T12:23:49.097Z</time></trkpt><trkpt lat="41.7781382" lon="12.8706158"><ele>347.0</ele><time>2026-05-03T12:23:50.099Z</time></trkpt><trkpt lat="41.7782051" lon="12.8702953"><ele>347.0</ele><time>2026-05-03T12:23:51.078Z</time></trkpt><trkpt lat="41.7782798" lon="12.869963"><ele>347.5</ele><time>2026-05-03T12:23:52.125Z</time></trkpt><trkpt lat="41.7783551" lon="12.8696391"><ele>348.0</ele><time>2026-05-03T12:23:53.129Z</time></trkpt><trkpt lat="41.7784276" lon="12.8693188"><ele>347.0</ele><time>2026-05-03T12:23:54.091Z</time></trkpt><trkpt lat="41.7785023" lon="12.8689898"><ele>346.0</ele><time>2026-05-03T12:23:55.097Z</time></trkpt><trkpt lat="41.7785723" lon="12.8686613"><ele>349.5</ele><time>2026-05-03T12:23:56.115Z</time></trkpt><trkpt lat="41.7786455" lon="12.8683363"><ele>353.0</ele><time>2026-05-03T12:23:57.125Z</time></trkpt><trkpt lat="41.7787153" lon="12.8680181"><ele>353.0</ele><time>2026-05-03T12:23:58.103Z</time></trkpt><trkpt lat="41.778786" lon="12.8676966"><ele>353.0</ele><time>2026-05-03T12:23:59.106Z</time></trkpt><trkpt lat="41.778856" lon="12.8673761"><ele>352.5</ele><time>2026-05-03T12:24:00.126Z</time></trkpt><trkpt lat="41.7789239" lon="12.8670645"><ele>352.0</ele><time>2026-05-03T12:24:01.085Z</time></trkpt><trkpt lat="41.7789992" lon="12.8667385"><ele>352.0</ele><time>2026-05-03T12:24:02.136Z</time></trkpt><trkpt lat="41.7790745" lon="12.866424"><ele>352.0</ele><time>2026-05-03T12:24:03.113Z</time></trkpt><trkpt lat="41.7791535" lon="12.8661098"><ele>354.0</ele><time>2026-05-03T12:24:04.11Z</time></trkpt><trkpt lat="41.7792385" lon="12.8657922"><ele>356.0</ele><time>2026-05-03T12:24:05.118Z</time></trkpt><trkpt lat="41.7793254" lon="12.8654839"><ele>357.5</ele><time>2026-05-03T12:24:06.066Z</time></trkpt><trkpt lat="41.7794176" lon="12.8651601"><ele>359.0</ele><time>2026-05-03T12:24:07.133Z</time></trkpt><trkpt lat="41.7795112" lon="12.8648524"><ele>359.5</ele><time>2026-05-03T12:24:08.108Z</time></trkpt><trkpt lat="41.7796109" lon="12.8645371"><ele>360.0</ele><time>2026-05-03T12:24:09.101Z</time></trkpt><trkpt lat="41.7797121" lon="12.8642194"><ele>360.5</ele><time>2026-05-03T12:24:10.114Z</time></trkpt><trkpt lat="41.7798179" lon="12.8639033"><ele>361.0</ele><time>2026-05-03T12:24:11.113Z</time></trkpt><trkpt lat="41.7799247" lon="12.863587"><ele>361.5</ele><time>2026-05-03T12:24:12.114Z</time></trkpt><trkpt lat="41.7800346" lon="12.863279"><ele>362.0</ele><time>2026-05-03T12:24:13.097Z</time></trkpt><trkpt lat="41.7801462" lon="12.8629715"><ele>361.5</ele><time>2026-05-03T12:24:14.085Z</time></trkpt><trkpt lat="41.7802617" lon="12.8626599"><ele>361.0</ele><time>2026-05-03T12:24:15.1Z</time></trkpt><trkpt lat="41.7803781" lon="12.8623516"><ele>360.5</ele><time>2026-05-03T12:24:16.103Z</time></trkpt><trkpt lat="41.7804941" lon="12.8620454"><ele>360.0</ele><time>2026-05-03T12:24:17.092Z</time></trkpt><trkpt lat="41.7806166" lon="12.8617363"><ele>359.5</ele><time>2026-05-03T12:24:18.105Z</time></trkpt><trkpt lat="41.7807438" lon="12.861429"><ele>359.0</ele><time>2026-05-03T12:24:19.121Z</time></trkpt><trkpt lat="41.7808744" lon="12.8611235"><ele>359.5</ele><time>2026-05-03T12:24:20.111Z</time></trkpt><trkpt lat="41.7810084" lon="12.8608155"><ele>360.0</ele><time>2026-05-03T12:24:21.117Z</time></trkpt><trkpt lat="41.7811436" lon="12.8605129"><ele>362.0</ele><time>2026-05-03T12:24:22.081Z</time></trkpt><trkpt lat="41.7812842" lon="12.8602069"><ele>364.0</ele><time>2026-05-03T12:24:23.121Z</time></trkpt><trkpt lat="41.7814222" lon="12.8599139"><ele>364.0</ele><time>2026-05-03T12:24:24.101Z</time></trkpt><trkpt lat="41.7815633" lon="12.8596197"><ele>364.0</ele><time>2026-05-03T12:24:25.12Z</time></trkpt><trkpt lat="41.7817042" lon="12.8593293"><ele>360.0</ele><time>2026-05-03T12:24:26.105Z</time></trkpt><trkpt lat="41.7818532" lon="12.8590386"><ele>356.0</ele><time>2026-05-03T12:24:27.106Z</time></trkpt><trkpt lat="41.7820079" lon="12.8587493"><ele>356.0</ele><time>2026-05-03T12:24:28.107Z</time></trkpt><trkpt lat="41.7821624" lon="12.8584609"><ele>356.0</ele><time>2026-05-03T12:24:29.112Z</time></trkpt><trkpt lat="41.7823196" lon="12.8581724"><ele>355.0</ele><time>2026-05-03T12:24:30.115Z</time></trkpt><trkpt lat="41.7824796" lon="12.8578831"><ele>354.0</ele><time>2026-05-03T12:24:31.111Z</time></trkpt><trkpt lat="41.7826438" lon="12.8575934"><ele>358.0</ele><time>2026-05-03T12:24:32.078Z</time></trkpt><trkpt lat="41.7828133" lon="12.857294"><ele>362.0</ele><time>2026-05-03T12:24:33.114Z</time></trkpt><trkpt lat="41.782981" lon="12.857006"><ele>363.0</ele><time>2026-05-03T12:24:34.115Z</time></trkpt><trkpt lat="41.783147" lon="12.8567162"><ele>364.0</ele><time>2026-05-03T12:24:35.122Z</time></trkpt><trkpt lat="41.7833134" lon="12.8564251"><ele>364.0</ele><time>2026-05-03T12:24:36.112Z</time></trkpt><trkpt lat="41.7834729" lon="12.856137"><ele>364.0</ele><time>2026-05-03T12:24:37.087Z</time></trkpt><trkpt lat="41.7836363" lon="12.8558426"><ele>365.0</ele><time>2026-05-03T12:24:38.12Z</time></trkpt><trkpt lat="41.783799" lon="12.8555552"><ele>366.0</ele><time>2026-05-03T12:24:39.108Z</time></trkpt><trkpt lat="41.7839638" lon="12.855265"><ele>363.5</ele><time>2026-05-03T12:24:40.111Z</time></trkpt><trkpt lat="41.7841277" lon="12.8549777"><ele>361.0</ele><time>2026-05-03T12:24:41.112Z</time></trkpt><trkpt lat="41.7842915" lon="12.8546925"><ele>360.0</ele><time>2026-05-03T12:24:42.125Z</time></trkpt><trkpt lat="41.7844567" lon="12.8544062"><ele>359.0</ele><time>2026-05-03T12:24:43.11Z</time></trkpt><trkpt lat="41.7846195" lon="12.8541155"><ele>359.0</ele><time>2026-05-03T12:24:44.095Z</time></trkpt><trkpt lat="41.7847824" lon="12.8538201"><ele>359.0</ele><time>2026-05-03T12:24:45.116Z</time></trkpt><trkpt lat="41.7849436" lon="12.8535306"><ele>356.0</ele><time>2026-05-03T12:24:46.069Z</time></trkpt><trkpt lat="41.7851146" lon="12.85324"><ele>353.0</ele><time>2026-05-03T12:24:47.061Z</time></trkpt><trkpt lat="41.7852843" lon="12.8529483"><ele>349.0</ele><time>2026-05-03T12:24:48.06Z</time></trkpt><trkpt lat="41.7854486" lon="12.8526565"><ele>345.0</ele><time>2026-05-03T12:24:49.066Z</time></trkpt><trkpt lat="41.7856086" lon="12.8523633"><ele>344.0</ele><time>2026-05-03T12:24:50.067Z</time></trkpt><trkpt lat="41.7857719" lon="12.8520676"><ele>343.0</ele><time>2026-05-03T12:24:51.114Z</time></trkpt><trkpt lat="41.7859303" lon="12.8517773"><ele>344.0</ele><time>2026-05-03T12:24:52.127Z</time></trkpt><trkpt lat="41.7860911" lon="12.8514937"><ele>345.0</ele><time>2026-05-03T12:24:53.115Z</time></trkpt><trkpt lat="41.7862535" lon="12.8512076"><ele>345.5</ele><time>2026-05-03T12:24:54.124Z</time></trkpt><trkpt lat="41.7864159" lon="12.8509256"><ele>346.0</ele><time>2026-05-03T12:24:55.099Z</time></trkpt><trkpt lat="41.7865779" lon="12.8506458"><ele>346.0</ele><time>2026-05-03T12:24:56.103Z</time></trkpt><trkpt lat="41.7867401" lon="12.8503672"><ele>346.0</ele><time>2026-05-03T12:24:57.114Z</time></trkpt><trkpt lat="41.7868969" lon="12.8500916"><ele>348.5</ele><time>2026-05-03T12:24:58.091Z</time></trkpt><trkpt lat="41.7870546" lon="12.849812"><ele>351.0</ele><time>2026-05-03T12:24:59.085Z</time></trkpt><trkpt lat="41.7872129" lon="12.8495295"><ele>350.5</ele><time>2026-05-03T12:25:00.12Z</time></trkpt><trkpt lat="41.7873724" lon="12.8492522"><ele>350.0</ele><time>2026-05-03T12:25:01.118Z</time></trkpt><trkpt lat="41.7875342" lon="12.8489737"><ele>351.5</ele><time>2026-05-03T12:25:02.096Z</time></trkpt><trkpt lat="41.7876973" lon="12.8486888"><ele>353.0</ele><time>2026-05-03T12:25:03.1Z</time></trkpt><trkpt lat="41.7878595" lon="12.8484059"><ele>353.0</ele><time>2026-05-03T12:25:04.074Z</time></trkpt><trkpt lat="41.788022" lon="12.8481128"><ele>353.0</ele><time>2026-05-03T12:25:05.103Z</time></trkpt><trkpt lat="41.7881817" lon="12.8478275"><ele>357.5</ele><time>2026-05-03T12:25:06.103Z</time></trkpt><trkpt lat="41.7883431" lon="12.8475393"><ele>362.0</ele><time>2026-05-03T12:25:07.114Z</time></trkpt><trkpt lat="41.7885066" lon="12.8472522"><ele>360.5</ele><time>2026-05-03T12:25:08.119Z</time></trkpt><trkpt lat="41.7886681" lon="12.8469665"><ele>359.0</ele><time>2026-05-03T12:25:09.12Z</time></trkpt><trkpt lat="41.7888297" lon="12.8466852"><ele>359.0</ele><time>2026-05-03T12:25:10.111Z</time></trkpt><trkpt lat="41.7889922" lon="12.8464033"><ele>359.0</ele><time>2026-05-03T12:25:11.106Z</time></trkpt><trkpt lat="41.7891532" lon="12.8461246"><ele>358.5</ele><time>2026-05-03T12:25:12.096Z</time></trkpt><trkpt lat="41.7893119" lon="12.8458457"><ele>358.0</ele><time>2026-05-03T12:25:13.07Z</time></trkpt><trkpt lat="41.7894727" lon="12.8455567"><ele>358.0</ele><time>2026-05-03T12:25:14.121Z</time></trkpt><trkpt lat="41.7896281" lon="12.8452758"><ele>358.0</ele><time>2026-05-03T12:25:15.098Z</time></trkpt><trkpt lat="41.7897881" lon="12.8449954"><ele>358.0</ele><time>2026-05-03T12:25:16.108Z</time></trkpt><trkpt lat="41.7899475" lon="12.8447147"><ele>358.0</ele><time>2026-05-03T12:25:17.083Z</time></trkpt><trkpt lat="41.7901094" lon="12.8444264"><ele>353.5</ele><time>2026-05-03T12:25:18.11Z</time></trkpt><trkpt lat="41.7902669" lon="12.8441427"><ele>349.0</ele><time>2026-05-03T12:25:19.103Z</time></trkpt><trkpt lat="41.7904282" lon="12.8438504"><ele>349.0</ele><time>2026-05-03T12:25:20.106Z</time></trkpt><trkpt lat="41.7905929" lon="12.8435544"><ele>349.0</ele><time>2026-05-03T12:25:21.08Z</time></trkpt><trkpt lat="41.7907648" lon="12.8432417"><ele>349.5</ele><time>2026-05-03T12:25:22.102Z</time></trkpt><trkpt lat="41.7909363" lon="12.8429308"><ele>350.0</ele><time>2026-05-03T12:25:23.113Z</time></trkpt><trkpt lat="41.7911031" lon="12.8426272"><ele>350.0</ele><time>2026-05-03T12:25:24.069Z</time></trkpt><trkpt lat="41.7912744" lon="12.8423112"><ele>350.0</ele><time>2026-05-03T12:25:25.12Z</time></trkpt><trkpt lat="41.7914414" lon="12.8420125"><ele>351.5</ele><time>2026-05-03T12:25:26.086Z</time></trkpt><trkpt lat="41.7916151" lon="12.8417074"><ele>353.0</ele><time>2026-05-03T12:25:27.122Z</time></trkpt><trkpt lat="41.7917875" lon="12.841414"><ele>352.5</ele><time>2026-05-03T12:25:28.107Z</time></trkpt><trkpt lat="41.7919585" lon="12.8411181"><ele>352.0</ele><time>2026-05-03T12:25:29.104Z</time></trkpt><trkpt lat="41.792125" lon="12.8408213"><ele>354.5</ele><time>2026-05-03T12:25:30.113Z</time></trkpt><trkpt lat="41.7922944" lon="12.8405223"><ele>357.0</ele><time>2026-05-03T12:25:31.12Z</time></trkpt><trkpt lat="41.7924684" lon="12.8402203"><ele>358.0</ele><time>2026-05-03T12:25:32.121Z</time></trkpt><trkpt lat="41.7926434" lon="12.839919"><ele>359.0</ele><time>2026-05-03T12:25:33.106Z</time></trkpt><trkpt lat="41.7928207" lon="12.8396151"><ele>363.5</ele><time>2026-05-03T12:25:34.119Z</time></trkpt><trkpt lat="41.7929961" lon="12.8393088"><ele>368.0</ele><time>2026-05-03T12:25:35.096Z</time></trkpt><trkpt lat="41.7931733" lon="12.8389985"><ele>368.0</ele><time>2026-05-03T12:25:36.11Z</time></trkpt><trkpt lat="41.7933509" lon="12.8386885"><ele>368.0</ele><time>2026-05-03T12:25:37.116Z</time></trkpt><trkpt lat="41.7935283" lon="12.8383848"><ele>369.0</ele><time>2026-05-03T12:25:38.11Z</time></trkpt><trkpt lat="41.7937076" lon="12.8380845"><ele>370.0</ele><time>2026-05-03T12:25:39.098Z</time></trkpt><trkpt lat="41.7938908" lon="12.8377782"><ele>370.0</ele><time>2026-05-03T12:25:40.118Z</time></trkpt><trkpt lat="41.7940711" lon="12.8374756"><ele>370.0</ele><time>2026-05-03T12:25:41.117Z</time></trkpt><trkpt lat="41.7942504" lon="12.8371714"><ele>370.5</ele><time>2026-05-03T12:25:42.107Z</time></trkpt><trkpt lat="41.7944264" lon="12.8368642"><ele>371.0</ele><time>2026-05-03T12:25:43.089Z</time></trkpt><trkpt lat="41.7946006" lon="12.8365513"><ele>371.0</ele><time>2026-05-03T12:25:44.103Z</time></trkpt><trkpt lat="41.7947699" lon="12.8362374"><ele>371.0</ele><time>2026-05-03T12:25:45.113Z</time></trkpt><trkpt lat="41.7949359" lon="12.8359272"><ele>371.0</ele><time>2026-05-03T12:25:46.128Z</time></trkpt><trkpt lat="41.7950979" lon="12.8356198"><ele>371.0</ele><time>2026-05-03T12:25:47.088Z</time></trkpt><trkpt lat="41.7952648" lon="12.8353025"><ele>368.5</ele><time>2026-05-03T12:25:48.112Z</time></trkpt><trkpt lat="41.7954272" lon="12.8349878"><ele>366.0</ele><time>2026-05-03T12:25:49.117Z</time></trkpt><trkpt lat="41.7955875" lon="12.8346735"><ele>366.0</ele><time>2026-05-03T12:25:50.073Z</time></trkpt><trkpt lat="41.7957545" lon="12.8343507"><ele>366.0</ele><time>2026-05-03T12:25:51.107Z</time></trkpt><trkpt lat="41.7959146" lon="12.8340381"><ele>362.5</ele><time>2026-05-03T12:25:52.119Z</time></trkpt><trkpt lat="41.796074" lon="12.8337311"><ele>359.0</ele><time>2026-05-03T12:25:53.093Z</time></trkpt><trkpt lat="41.7962363" lon="12.8334199"><ele>358.5</ele><time>2026-05-03T12:25:54.072Z</time></trkpt><trkpt lat="41.7964022" lon="12.8331037"><ele>358.0</ele><time>2026-05-03T12:25:55.128Z</time></trkpt><trkpt lat="41.7965613" lon="12.832797"><ele>361.0</ele><time>2026-05-03T12:25:56.1Z</time></trkpt><trkpt lat="41.7967256" lon="12.8324813"><ele>364.0</ele><time>2026-05-03T12:25:57.104Z</time></trkpt><trkpt lat="41.7968902" lon="12.8321656"><ele>367.0</ele><time>2026-05-03T12:25:58.117Z</time></trkpt><trkpt lat="41.7970527" lon="12.8318533"><ele>370.0</ele><time>2026-05-03T12:25:59.097Z</time></trkpt><trkpt lat="41.7972163" lon="12.8315302"><ele>370.0</ele><time>2026-05-03T12:26:00.122Z</time></trkpt><trkpt lat="41.7973791" lon="12.8312091"><ele>370.0</ele><time>2026-05-03T12:26:01.112Z</time></trkpt><trkpt lat="41.7975465" lon="12.8308778"><ele>373.0</ele><time>2026-05-03T12:26:02.117Z</time></trkpt><trkpt lat="41.7977185" lon="12.8305443"><ele>376.0</ele><time>2026-05-03T12:26:03.1Z</time></trkpt><trkpt lat="41.7978861" lon="12.8302165"><ele>375.5</ele><time>2026-05-03T12:26:04.118Z</time></trkpt><trkpt lat="41.7980533" lon="12.8298958"><ele>375.0</ele><time>2026-05-03T12:26:05.09Z</time></trkpt><trkpt lat="41.7982154" lon="12.8295826"><ele>373.5</ele><time>2026-05-03T12:26:06.116Z</time></trkpt><trkpt lat="41.7983776" lon="12.8292739"><ele>372.0</ele><time>2026-05-03T12:26:07.088Z</time></trkpt><trkpt lat="41.7985364" lon="12.828974"><ele>371.0</ele><time>2026-05-03T12:26:08.11Z</time></trkpt><trkpt lat="41.7986949" lon="12.8286686"><ele>370.0</ele><time>2026-05-03T12:26:09.119Z</time></trkpt><trkpt lat="41.798854" lon="12.8283634"><ele>369.0</ele><time>2026-05-03T12:26:10.096Z</time></trkpt><trkpt lat="41.7990137" lon="12.8280597"><ele>368.0</ele><time>2026-05-03T12:26:11.108Z</time></trkpt><trkpt lat="41.7991735" lon="12.8277574"><ele>367.0</ele><time>2026-05-03T12:26:12.127Z</time></trkpt><trkpt lat="41.7993331" lon="12.8274565"><ele>366.0</ele><time>2026-05-03T12:26:13.093Z</time></trkpt><trkpt lat="41.7994908" lon="12.8271516"><ele>365.0</ele><time>2026-05-03T12:26:14.11Z</time></trkpt><trkpt lat="41.7996468" lon="12.8268527"><ele>364.0</ele><time>2026-05-03T12:26:15.091Z</time></trkpt><trkpt lat="41.7998063" lon="12.8265574"><ele>363.0</ele><time>2026-05-03T12:26:16.084Z</time></trkpt><trkpt lat="41.7999641" lon="12.8262562"><ele>362.0</ele><time>2026-05-03T12:26:17.063Z</time></trkpt><trkpt lat="41.8001268" lon="12.8259489"><ele>362.5</ele><time>2026-05-03T12:26:18.065Z</time></trkpt><trkpt lat="41.8002865" lon="12.8256465"><ele>363.0</ele><time>2026-05-03T12:26:19.095Z</time></trkpt><trkpt lat="41.8004391" lon="12.8253468"><ele>360.0</ele><time>2026-05-03T12:26:20.068Z</time></trkpt><trkpt lat="41.8005955" lon="12.8250451"><ele>357.0</ele><time>2026-05-03T12:26:21.117Z</time></trkpt><trkpt lat="41.8007518" lon="12.8247434"><ele>357.0</ele><time>2026-05-03T12:26:22.092Z</time></trkpt><trkpt lat="41.8009053" lon="12.8244398"><ele>357.0</ele><time>2026-05-03T12:26:23.08Z</time></trkpt><trkpt lat="41.8010639" lon="12.8241372"><ele>353.0</ele><time>2026-05-03T12:26:24.107Z</time></trkpt><trkpt lat="41.8012259" lon="12.8238345"><ele>349.0</ele><time>2026-05-03T12:26:25.098Z</time></trkpt><trkpt lat="41.8013879" lon="12.8235314"><ele>348.5</ele><time>2026-05-03T12:26:26.082Z</time></trkpt><trkpt lat="41.8015499" lon="12.8232349"><ele>348.0</ele><time>2026-05-03T12:26:27.092Z</time></trkpt><trkpt lat="41.801706" lon="12.822942"><ele>346.5</ele><time>2026-05-03T12:26:28.107Z</time></trkpt><trkpt lat="41.8018564" lon="12.8226474"><ele>345.0</ele><time>2026-05-03T12:26:29.095Z</time></trkpt><trkpt lat="41.8020054" lon="12.8223611"><ele>345.0</ele><time>2026-05-03T12:26:30.103Z</time></trkpt><trkpt lat="41.8021522" lon="12.822075"><ele>345.0</ele><time>2026-05-03T12:26:31.117Z</time></trkpt><trkpt lat="41.8022984" lon="12.8217888"><ele>348.0</ele><time>2026-05-03T12:26:32.11Z</time></trkpt><trkpt lat="41.8024444" lon="12.8215039"><ele>351.0</ele><time>2026-05-03T12:26:33.111Z</time></trkpt><trkpt lat="41.802597" lon="12.8212233"><ele>354.0</ele><time>2026-05-03T12:26:34.112Z</time></trkpt><trkpt lat="41.8027487" lon="12.8209429"><ele>357.0</ele><time>2026-05-03T12:26:35.088Z</time></trkpt><trkpt lat="41.8029034" lon="12.8206654"><ele>357.0</ele><time>2026-05-03T12:26:36.069Z</time></trkpt><trkpt lat="41.8030594" lon="12.8203854"><ele>357.0</ele><time>2026-05-03T12:26:37.131Z</time></trkpt><trkpt lat="41.8032118" lon="12.8201173"><ele>357.0</ele><time>2026-05-03T12:26:38.098Z</time></trkpt><trkpt lat="41.8033709" lon="12.8198457"><ele>357.0</ele><time>2026-05-03T12:26:39.093Z</time></trkpt><trkpt lat="41.8035316" lon="12.8195749"><ele>358.5</ele><time>2026-05-03T12:26:40.108Z</time></trkpt><trkpt lat="41.8036894" lon="12.819301"><ele>360.0</ele><time>2026-05-03T12:26:41.112Z</time></trkpt><trkpt lat="41.803849" lon="12.8190319"><ele>360.0</ele><time>2026-05-03T12:26:42.122Z</time></trkpt><trkpt lat="41.8040108" lon="12.818765"><ele>360.0</ele><time>2026-05-03T12:26:43.115Z</time></trkpt><trkpt lat="41.80417" lon="12.8184878"><ele>361.0</ele><time>2026-05-03T12:26:44.08Z</time></trkpt><trkpt lat="41.8043292" lon="12.8182088"><ele>362.0</ele><time>2026-05-03T12:26:45.094Z</time></trkpt><trkpt lat="41.804496" lon="12.8179295"><ele>362.0</ele><time>2026-05-03T12:26:46.132Z</time></trkpt><trkpt lat="41.8046626" lon="12.8176544"><ele>362.0</ele><time>2026-05-03T12:26:47.111Z</time></trkpt><trkpt lat="41.8048372" lon="12.8173826"><ele>360.5</ele><time>2026-05-03T12:26:48.112Z</time></trkpt><trkpt lat="41.805017" lon="12.8171118"><ele>359.0</ele><time>2026-05-03T12:26:49.12Z</time></trkpt><trkpt lat="41.8051912" lon="12.8168344"><ele>358.0</ele><time>2026-05-03T12:26:50.103Z</time></trkpt><trkpt lat="41.8053609" lon="12.8165533"><ele>357.0</ele><time>2026-05-03T12:26:51.068Z</time></trkpt><trkpt lat="41.8055343" lon="12.8162639"><ele>356.5</ele><time>2026-05-03T12:26:52.098Z</time></trkpt><trkpt lat="41.8057024" lon="12.8159817"><ele>356.0</ele><time>2026-05-03T12:26:53.109Z</time></trkpt><trkpt lat="41.8058705" lon="12.8157033"><ele>354.5</ele><time>2026-05-03T12:26:54.114Z</time></trkpt><trkpt lat="41.8060363" lon="12.8154296"><ele>353.0</ele><time>2026-05-03T12:26:55.072Z</time></trkpt><trkpt lat="41.8062088" lon="12.8151488"><ele>353.0</ele><time>2026-05-03T12:26:56.095Z</time></trkpt><trkpt lat="41.8063784" lon="12.8148744"><ele>353.0</ele><time>2026-05-03T12:26:57.09Z</time></trkpt><trkpt lat="41.8065475" lon="12.8145937"><ele>353.0</ele><time>2026-05-03T12:26:58.118Z</time></trkpt><trkpt lat="41.8067122" lon="12.814317"><ele>353.0</ele><time>2026-05-03T12:26:59.109Z</time></trkpt><trkpt lat="41.8068807" lon="12.8140352"><ele>351.5</ele><time>2026-05-03T12:27:00.114Z</time></trkpt><trkpt lat="41.8070469" lon="12.8137586"><ele>350.0</ele><time>2026-05-03T12:27:01.074Z</time></trkpt><trkpt lat="41.8072172" lon="12.8134694"><ele>350.0</ele><time>2026-05-03T12:27:02.105Z</time></trkpt><trkpt lat="41.8073815" lon="12.8131846"><ele>350.0</ele><time>2026-05-03T12:27:03.097Z</time></trkpt><trkpt lat="41.8075467" lon="12.812891"><ele>348.5</ele><time>2026-05-03T12:27:04.111Z</time></trkpt><trkpt lat="41.8077072" lon="12.8126025"><ele>347.0</ele><time>2026-05-03T12:27:05.072Z</time></trkpt><trkpt lat="41.8078753" lon="12.8123028"><ele>347.0</ele><time>2026-05-03T12:27:06.093Z</time></trkpt><trkpt lat="41.8080353" lon="12.8120032"><ele>347.0</ele><time>2026-05-03T12:27:07.112Z</time></trkpt><trkpt lat="41.8081908" lon="12.8117005"><ele>347.0</ele><time>2026-05-03T12:27:08.103Z</time></trkpt><trkpt lat="41.8083401" lon="12.8113897"><ele>347.0</ele><time>2026-05-03T12:27:09.083Z</time></trkpt><trkpt lat="41.8084854" lon="12.8110762"><ele>345.5</ele><time>2026-05-03T12:27:10.104Z</time></trkpt><trkpt lat="41.8086207" lon="12.8107651"><ele>344.0</ele><time>2026-05-03T12:27:11.071Z</time></trkpt><trkpt lat="41.8087518" lon="12.8104345"><ele>343.0</ele><time>2026-05-03T12:27:12.088Z</time></trkpt><trkpt lat="41.8088714" lon="12.8101178"><ele>342.0</ele><time>2026-05-03T12:27:13.106Z</time></trkpt><trkpt lat="41.808985" lon="12.8097991"><ele>342.0</ele><time>2026-05-03T12:27:14.109Z</time></trkpt><trkpt lat="41.8091048" lon="12.8094849"><ele>342.0</ele><time>2026-05-03T12:27:15.074Z</time></trkpt><trkpt lat="41.8092278" lon="12.8091642"><ele>339.0</ele><time>2026-05-03T12:27:16.115Z</time></trkpt><trkpt lat="41.8093517" lon="12.8088509"><ele>336.0</ele><time>2026-05-03T12:27:17.087Z</time></trkpt><trkpt lat="41.8094703" lon="12.8085287"><ele>333.5</ele><time>2026-05-03T12:27:18.107Z</time></trkpt><trkpt lat="41.8095881" lon="12.808215"><ele>331.0</ele><time>2026-05-03T12:27:19.062Z</time></trkpt><trkpt lat="41.8097118" lon="12.807881"><ele>331.5</ele><time>2026-05-03T12:27:20.108Z</time></trkpt><trkpt lat="41.8098315" lon="12.8075543"><ele>332.0</ele><time>2026-05-03T12:27:21.094Z</time></trkpt><trkpt lat="41.8099577" lon="12.8072274"><ele>332.0</ele><time>2026-05-03T12:27:22.064Z</time></trkpt><trkpt lat="41.8100921" lon="12.8068954"><ele>332.0</ele><time>2026-05-03T12:27:23.066Z</time></trkpt><trkpt lat="41.8102302" lon="12.8065668"><ele>330.5</ele><time>2026-05-03T12:27:24.085Z</time></trkpt><trkpt lat="41.8103654" lon="12.8062348"><ele>329.0</ele><time>2026-05-03T12:27:25.102Z</time></trkpt><trkpt lat="41.8105018" lon="12.8059098"><ele>328.0</ele><time>2026-05-03T12:27:26.063Z</time></trkpt><trkpt lat="41.810642" lon="12.8055808"><ele>327.0</ele><time>2026-05-03T12:27:27.084Z</time></trkpt><trkpt lat="41.8107856" lon="12.8052589"><ele>327.5</ele><time>2026-05-03T12:27:28.094Z</time></trkpt><trkpt lat="41.8109281" lon="12.8049389"><ele>328.0</ele><time>2026-05-03T12:27:29.059Z</time></trkpt><trkpt lat="41.8110782" lon="12.8046187"><ele>326.5</ele><time>2026-05-03T12:27:30.061Z</time></trkpt><trkpt lat="41.8112318" lon="12.8042998"><ele>325.0</ele><time>2026-05-03T12:27:31.097Z</time></trkpt><trkpt lat="41.8113833" lon="12.8039919"><ele>325.0</ele><time>2026-05-03T12:27:32.074Z</time></trkpt><trkpt lat="41.8115468" lon="12.8036814"><ele>325.0</ele><time>2026-05-03T12:27:33.098Z</time></trkpt><trkpt lat="41.8117142" lon="12.8033793"><ele>327.0</ele><time>2026-05-03T12:27:34.102Z</time></trkpt><trkpt lat="41.8118828" lon="12.8030788"><ele>329.0</ele><time>2026-05-03T12:27:35.094Z</time></trkpt><trkpt lat="41.8120499" lon="12.8027785"><ele>330.0</ele><time>2026-05-03T12:27:36.088Z</time></trkpt><trkpt lat="41.8122147" lon="12.8024792"><ele>331.0</ele><time>2026-05-03T12:27:37.072Z</time></trkpt><trkpt lat="41.8123799" lon="12.8021714"><ele>331.0</ele><time>2026-05-03T12:27:38.077Z</time></trkpt><trkpt lat="41.8125412" lon="12.8018659"><ele>331.0</ele><time>2026-05-03T12:27:39.097Z</time></trkpt><trkpt lat="41.8126939" lon="12.8015636"><ele>333.0</ele><time>2026-05-03T12:27:40.073Z</time></trkpt><trkpt lat="41.812847" lon="12.8012595"><ele>335.0</ele><time>2026-05-03T12:27:41.075Z</time></trkpt><trkpt lat="41.8130021" lon="12.8009565"><ele>337.5</ele><time>2026-05-03T12:27:42.099Z</time></trkpt><trkpt lat="41.8131533" lon="12.8006577"><ele>340.0</ele><time>2026-05-03T12:27:43.067Z</time></trkpt><trkpt lat="41.8133101" lon="12.8003479"><ele>342.5</ele><time>2026-05-03T12:27:44.125Z</time></trkpt><trkpt lat="41.8134583" lon="12.8000515"><ele>345.0</ele><time>2026-05-03T12:27:45.085Z</time></trkpt><trkpt lat="41.8136156" lon="12.799746"><ele>345.0</ele><time>2026-05-03T12:27:46.103Z</time></trkpt><trkpt lat="41.8137701" lon="12.7994429"><ele>345.0</ele><time>2026-05-03T12:27:47.096Z</time></trkpt><trkpt lat="41.8139232" lon="12.7991394"><ele>346.5</ele><time>2026-05-03T12:27:48.097Z</time></trkpt><trkpt lat="41.8140791" lon="12.7988325"><ele>348.0</ele><time>2026-05-03T12:27:49.094Z</time></trkpt><trkpt lat="41.8142356" lon="12.7985262"><ele>348.0</ele><time>2026-05-03T12:27:50.089Z</time></trkpt><trkpt lat="41.8143928" lon="12.7982218"><ele>348.0</ele><time>2026-05-03T12:27:51.061Z</time></trkpt><trkpt lat="41.8145534" lon="12.7979131"><ele>348.5</ele><time>2026-05-03T12:27:52.076Z</time></trkpt><trkpt lat="41.8147159" lon="12.7976042"><ele>349.0</ele><time>2026-05-03T12:27:53.101Z</time></trkpt><trkpt lat="41.814877" lon="12.7973009"><ele>349.0</ele><time>2026-05-03T12:27:54.062Z</time></trkpt><trkpt lat="41.8150437" lon="12.7969932"><ele>349.0</ele><time>2026-05-03T12:27:55.094Z</time></trkpt><trkpt lat="41.8152018" lon="12.7966873"><ele>347.5</ele><time>2026-05-03T12:27:56.09Z</time></trkpt><trkpt lat="41.8153582" lon="12.7963757"><ele>346.0</ele><time>2026-05-03T12:27:57.104Z</time></trkpt><trkpt lat="41.8155148" lon="12.7960712"><ele>344.0</ele><time>2026-05-03T12:27:58.098Z</time></trkpt><trkpt lat="41.8156717" lon="12.7957646"><ele>342.0</ele><time>2026-05-03T12:27:59.11Z</time></trkpt><trkpt lat="41.8158291" lon="12.7954575"><ele>341.5</ele><time>2026-05-03T12:28:00.11Z</time></trkpt><trkpt lat="41.8159864" lon="12.7951552"><ele>341.0</ele><time>2026-05-03T12:28:01.101Z</time></trkpt><trkpt lat="41.8161442" lon="12.7948515"><ele>338.5</ele><time>2026-05-03T12:28:02.079Z</time></trkpt><trkpt lat="41.8163059" lon="12.7945457"><ele>336.0</ele><time>2026-05-03T12:28:03.093Z</time></trkpt><trkpt lat="41.8164615" lon="12.7942489"><ele>335.5</ele><time>2026-05-03T12:28:04.057Z</time></trkpt><trkpt lat="41.8166141" lon="12.7939425"><ele>335.0</ele><time>2026-05-03T12:28:05.071Z</time></trkpt><trkpt lat="41.8167553" lon="12.7936328"><ele>335.0</ele><time>2026-05-03T12:28:06.073Z</time></trkpt><trkpt lat="41.8168865" lon="12.7933157"><ele>335.0</ele><time>2026-05-03T12:28:07.058Z</time></trkpt><trkpt lat="41.817013" lon="12.7929915"><ele>338.0</ele><time>2026-05-03T12:28:08.061Z</time></trkpt><trkpt lat="41.8171338" lon="12.7926617"><ele>341.0</ele><time>2026-05-03T12:28:09.086Z</time></trkpt><trkpt lat="41.8172469" lon="12.7923313"><ele>341.0</ele><time>2026-05-03T12:28:10.081Z</time></trkpt><trkpt lat="41.8173531" lon="12.7919932"><ele>341.0</ele><time>2026-05-03T12:28:11.06Z</time></trkpt><trkpt lat="41.8174504" lon="12.79164"><ele>342.0</ele><time>2026-05-03T12:28:12.101Z</time></trkpt><trkpt lat="41.8175456" lon="12.7912935"><ele>343.0</ele><time>2026-05-03T12:28:13.075Z</time></trkpt><trkpt lat="41.8176367" lon="12.7909339"><ele>346.5</ele><time>2026-05-03T12:28:14.112Z</time></trkpt><trkpt lat="41.8177199" lon="12.7905819"><ele>350.0</ele><time>2026-05-03T12:28:15.072Z</time></trkpt><trkpt lat="41.8177983" lon="12.7902152"><ele>350.0</ele><time>2026-05-03T12:28:16.077Z</time></trkpt><trkpt lat="41.8178675" lon="12.7898491"><ele>350.0</ele><time>2026-05-03T12:28:17.101Z</time></trkpt><trkpt lat="41.8179272" lon="12.7894838"><ele>347.0</ele><time>2026-05-03T12:28:18.078Z</time></trkpt><trkpt lat="41.8179761" lon="12.7891066"><ele>344.0</ele><time>2026-05-03T12:28:19.114Z</time></trkpt><trkpt lat="41.8180119" lon="12.7887374"><ele>339.5</ele><time>2026-05-03T12:28:20.081Z</time></trkpt><trkpt lat="41.8180377" lon="12.7883616"><ele>335.0</ele><time>2026-05-03T12:28:21.1Z</time></trkpt><trkpt lat="41.8180567" lon="12.7879891"><ele>335.5</ele><time>2026-05-03T12:28:22.112Z</time></trkpt><trkpt lat="41.8180658" lon="12.7876214"><ele>336.0</ele><time>2026-05-03T12:28:23.076Z</time></trkpt><trkpt lat="41.8180738" lon="12.7872401"><ele>336.0</ele><time>2026-05-03T12:28:24.092Z</time></trkpt><trkpt lat="41.8180766" lon="12.7868646"><ele>336.0</ele><time>2026-05-03T12:28:25.085Z</time></trkpt><trkpt lat="41.8180777" lon="12.7864882"><ele>337.5</ele><time>2026-05-03T12:28:26.101Z</time></trkpt><trkpt lat="41.8180774" lon="12.7861161"><ele>339.0</ele><time>2026-05-03T12:28:27.113Z</time></trkpt><trkpt lat="41.8180779" lon="12.7857451"><ele>340.0</ele><time>2026-05-03T12:28:28.12Z</time></trkpt><trkpt lat="41.8180826" lon="12.7853774"><ele>341.0</ele><time>2026-05-03T12:28:29.153Z</time></trkpt><trkpt lat="41.8180891" lon="12.7850291"><ele>342.0</ele><time>2026-05-03T12:28:30.096Z</time></trkpt><trkpt lat="41.8180938" lon="12.7846609"><ele>343.0</ele><time>2026-05-03T12:28:31.143Z</time></trkpt><trkpt lat="41.8181011" lon="12.7843167"><ele>344.0</ele><time>2026-05-03T12:28:32.107Z</time></trkpt><trkpt lat="41.818116" lon="12.7839714"><ele>345.0</ele><time>2026-05-03T12:28:33.108Z</time></trkpt><trkpt lat="41.8181226" lon="12.783634"><ele>345.5</ele><time>2026-05-03T12:28:34.113Z</time></trkpt><trkpt lat="41.8181289" lon="12.7832935"><ele>346.0</ele><time>2026-05-03T12:28:35.111Z</time></trkpt><trkpt lat="41.8181359" lon="12.7829487"><ele>346.0</ele><time>2026-05-03T12:28:36.124Z</time></trkpt><trkpt lat="41.8181427" lon="12.7826064"><ele>346.0</ele><time>2026-05-03T12:28:37.12Z</time></trkpt><trkpt lat="41.8181486" lon="12.7822681"><ele>346.0</ele><time>2026-05-03T12:28:38.106Z</time></trkpt><trkpt lat="41.8181512" lon="12.7819224"><ele>346.0</ele><time>2026-05-03T12:28:39.113Z</time></trkpt><trkpt lat="41.8181541" lon="12.7815759"><ele>346.0</ele><time>2026-05-03T12:28:40.112Z</time></trkpt><trkpt lat="41.8181569" lon="12.781231"><ele>346.0</ele><time>2026-05-03T12:28:41.085Z</time></trkpt><trkpt lat="41.8181628" lon="12.7808772"><ele>344.5</ele><time>2026-05-03T12:28:42.113Z</time></trkpt><trkpt lat="41.8181707" lon="12.7805303"><ele>343.0</ele><time>2026-05-03T12:28:43.093Z</time></trkpt><trkpt lat="41.8181757" lon="12.7801786"><ele>342.5</ele><time>2026-05-03T12:28:44.118Z</time></trkpt><trkpt lat="41.8181832" lon="12.7798279"><ele>342.0</ele><time>2026-05-03T12:28:45.12Z</time></trkpt><trkpt lat="41.8181917" lon="12.7794734"><ele>343.5</ele><time>2026-05-03T12:28:46.106Z</time></trkpt><trkpt lat="41.8181977" lon="12.7791174"><ele>345.0</ele><time>2026-05-03T12:28:47.108Z</time></trkpt><trkpt lat="41.8182037" lon="12.7787595"><ele>346.0</ele><time>2026-05-03T12:28:48.114Z</time></trkpt><trkpt lat="41.8182051" lon="12.7784025"><ele>347.0</ele><time>2026-05-03T12:28:49.129Z</time></trkpt><trkpt lat="41.8182098" lon="12.7780489"><ele>345.5</ele><time>2026-05-03T12:28:50.088Z</time></trkpt><trkpt lat="41.818217" lon="12.7776834"><ele>344.0</ele><time>2026-05-03T12:28:51.073Z</time></trkpt><trkpt lat="41.8182247" lon="12.7773095"><ele>344.0</ele><time>2026-05-03T12:28:52.099Z</time></trkpt><trkpt lat="41.8182298" lon="12.7769405"><ele>344.0</ele><time>2026-05-03T12:28:53.114Z</time></trkpt><trkpt lat="41.8182323" lon="12.7765763"><ele>342.0</ele><time>2026-05-03T12:28:54.11Z</time></trkpt><trkpt lat="41.8182352" lon="12.7762115"><ele>340.0</ele><time>2026-05-03T12:28:55.097Z</time></trkpt><trkpt lat="41.8182391" lon="12.7758481"><ele>339.5</ele><time>2026-05-03T12:28:56.092Z</time></trkpt><trkpt lat="41.8182429" lon="12.7754839"><ele>339.0</ele><time>2026-05-03T12:28:57.093Z</time></trkpt><trkpt lat="41.8182482" lon="12.775118"><ele>338.5</ele><time>2026-05-03T12:28:58.121Z</time></trkpt><trkpt lat="41.8182521" lon="12.7747599"><ele>338.0</ele><time>2026-05-03T12:28:59.103Z</time></trkpt><trkpt lat="41.8182563" lon="12.7744029"><ele>337.0</ele><time>2026-05-03T12:29:00.088Z</time></trkpt><trkpt lat="41.8182625" lon="12.7740431"><ele>336.0</ele><time>2026-05-03T12:29:01.095Z</time></trkpt><trkpt lat="41.8182749" lon="12.7736831"><ele>336.5</ele><time>2026-05-03T12:29:02.136Z</time></trkpt><trkpt lat="41.8182893" lon="12.7733346"><ele>337.0</ele><time>2026-05-03T12:29:03.104Z</time></trkpt><trkpt lat="41.8183129" lon="12.7729769"><ele>336.5</ele><time>2026-05-03T12:29:04.098Z</time></trkpt><trkpt lat="41.8183458" lon="12.7726203"><ele>336.0</ele><time>2026-05-03T12:29:05.124Z</time></trkpt><trkpt lat="41.8183837" lon="12.7722683"><ele>336.0</ele><time>2026-05-03T12:29:06.102Z</time></trkpt><trkpt lat="41.8184303" lon="12.7719097"><ele>336.0</ele><time>2026-05-03T12:29:07.127Z</time></trkpt><trkpt lat="41.8184788" lon="12.7715559"><ele>332.5</ele><time>2026-05-03T12:29:08.104Z</time></trkpt><trkpt lat="41.8185295" lon="12.7711988"><ele>329.0</ele><time>2026-05-03T12:29:09.112Z</time></trkpt><trkpt lat="41.8185817" lon="12.770848"><ele>327.5</ele><time>2026-05-03T12:29:10.081Z</time></trkpt><trkpt lat="41.8186385" lon="12.7704913"><ele>326.0</ele><time>2026-05-03T12:29:11.101Z</time></trkpt><trkpt lat="41.8187042" lon="12.7701398"><ele>326.0</ele><time>2026-05-03T12:29:12.108Z</time></trkpt><trkpt lat="41.8187759" lon="12.7697948"><ele>326.0</ele><time>2026-05-03T12:29:13.122Z</time></trkpt><trkpt lat="41.8188504" lon="12.7694562"><ele>327.0</ele><time>2026-05-03T12:29:14.089Z</time></trkpt><trkpt lat="41.8189322" lon="12.7691079"><ele>328.0</ele><time>2026-05-03T12:29:15.113Z</time></trkpt><trkpt lat="41.8190135" lon="12.768772"><ele>329.0</ele><time>2026-05-03T12:29:16.066Z</time></trkpt><trkpt lat="41.8191005" lon="12.7684211"><ele>330.0</ele><time>2026-05-03T12:29:17.12Z</time></trkpt><trkpt lat="41.819188" lon="12.7680839"><ele>330.0</ele><time>2026-05-03T12:29:18.126Z</time></trkpt><trkpt lat="41.8192747" lon="12.7677503"><ele>330.0</ele><time>2026-05-03T12:29:19.081Z</time></trkpt><trkpt lat="41.8193567" lon="12.7674067"><ele>327.0</ele><time>2026-05-03T12:29:20.091Z</time></trkpt><trkpt lat="41.8194427" lon="12.7670633"><ele>324.0</ele><time>2026-05-03T12:29:21.113Z</time></trkpt><trkpt lat="41.8195257" lon="12.7667273"><ele>324.0</ele><time>2026-05-03T12:29:22.085Z</time></trkpt><trkpt lat="41.8196103" lon="12.7663808"><ele>324.0</ele><time>2026-05-03T12:29:23.124Z</time></trkpt><trkpt lat="41.8196962" lon="12.766043"><ele>325.0</ele><time>2026-05-03T12:29:24.123Z</time></trkpt><trkpt lat="41.8197829" lon="12.7657038"><ele>326.0</ele><time>2026-05-03T12:29:25.121Z</time></trkpt><trkpt lat="41.8198698" lon="12.76537"><ele>327.5</ele><time>2026-05-03T12:29:26.094Z</time></trkpt><trkpt lat="41.8199551" lon="12.7650262"><ele>329.0</ele><time>2026-05-03T12:29:27.12Z</time></trkpt><trkpt lat="41.8200406" lon="12.7646886"><ele>328.5</ele><time>2026-05-03T12:29:28.083Z</time></trkpt><trkpt lat="41.8201301" lon="12.7643443"><ele>328.0</ele><time>2026-05-03T12:29:29.095Z</time></trkpt><trkpt lat="41.8202151" lon="12.7639944"><ele>328.0</ele><time>2026-05-03T12:29:30.113Z</time></trkpt><trkpt lat="41.8203002" lon="12.7636479"><ele>328.0</ele><time>2026-05-03T12:29:31.138Z</time></trkpt><trkpt lat="41.8203851" lon="12.7633012"><ele>328.0</ele><time>2026-05-03T12:29:32.153Z</time></trkpt><trkpt lat="41.8204707" lon="12.7629601"><ele>328.0</ele><time>2026-05-03T12:29:33.119Z</time></trkpt><trkpt lat="41.8205565" lon="12.7626127"><ele>328.0</ele><time>2026-05-03T12:29:34.118Z</time></trkpt><trkpt lat="41.8206412" lon="12.7622642"><ele>328.0</ele><time>2026-05-03T12:29:35.109Z</time></trkpt><trkpt lat="41.8207263" lon="12.7619121"><ele>328.0</ele><time>2026-05-03T12:29:36.13Z</time></trkpt><trkpt lat="41.8208103" lon="12.7615702"><ele>328.0</ele><time>2026-05-03T12:29:37.111Z</time></trkpt><trkpt lat="41.8208958" lon="12.761226"><ele>327.5</ele><time>2026-05-03T12:29:38.115Z</time></trkpt><trkpt lat="41.8209821" lon="12.7608822"><ele>327.0</ele><time>2026-05-03T12:29:39.105Z</time></trkpt><trkpt lat="41.8210691" lon="12.7605381"><ele>326.0</ele><time>2026-05-03T12:29:40.106Z</time></trkpt><trkpt lat="41.8211523" lon="12.7602009"><ele>325.0</ele><time>2026-05-03T12:29:41.069Z</time></trkpt><trkpt lat="41.8212397" lon="12.7598532"><ele>325.0</ele><time>2026-05-03T12:29:42.077Z</time></trkpt><trkpt lat="41.8213253" lon="12.7595065"><ele>325.0</ele><time>2026-05-03T12:29:43.089Z</time></trkpt><trkpt lat="41.8214097" lon="12.7591609"><ele>325.0</ele><time>2026-05-03T12:29:44.107Z</time></trkpt><trkpt lat="41.8214954" lon="12.7588282"><ele>325.0</ele><time>2026-05-03T12:29:45.078Z</time></trkpt><trkpt lat="41.821584" lon="12.7584868"><ele>325.0</ele><time>2026-05-03T12:29:46.089Z</time></trkpt><trkpt lat="41.8216752" lon="12.7581435"><ele>325.0</ele><time>2026-05-03T12:29:47.115Z</time></trkpt><trkpt lat="41.8217608" lon="12.7578118"><ele>323.5</ele><time>2026-05-03T12:29:48.064Z</time></trkpt><trkpt lat="41.8218467" lon="12.757468"><ele>322.0</ele><time>2026-05-03T12:29:49.066Z</time></trkpt><trkpt lat="41.8219308" lon="12.757126"><ele>320.5</ele><time>2026-05-03T12:29:50.083Z</time></trkpt><trkpt lat="41.82201" lon="12.7567884"><ele>319.0</ele><time>2026-05-03T12:29:51.065Z</time></trkpt><trkpt lat="41.8220922" lon="12.7564494"><ele>319.0</ele><time>2026-05-03T12:29:52.06Z</time></trkpt><trkpt lat="41.8221806" lon="12.7561072"><ele>319.0</ele><time>2026-05-03T12:29:53.101Z</time></trkpt><trkpt lat="41.8222628" lon="12.7557736"><ele>321.0</ele><time>2026-05-03T12:29:54.083Z</time></trkpt><trkpt lat="41.8223467" lon="12.755436"><ele>323.0</ele><time>2026-05-03T12:29:55.084Z</time></trkpt><trkpt lat="41.8224316" lon="12.755094"><ele>323.5</ele><time>2026-05-03T12:29:56.119Z</time></trkpt><trkpt lat="41.8225143" lon="12.7547595"><ele>324.0</ele><time>2026-05-03T12:29:57.085Z</time></trkpt><trkpt lat="41.8225989" lon="12.7544162"><ele>321.0</ele><time>2026-05-03T12:29:58.091Z</time></trkpt><trkpt lat="41.8226831" lon="12.7540766"><ele>318.0</ele><time>2026-05-03T12:29:59.106Z</time></trkpt><trkpt lat="41.8227688" lon="12.7537383"><ele>318.5</ele><time>2026-05-03T12:30:00.12Z</time></trkpt><trkpt lat="41.8228544" lon="12.7534014"><ele>319.0</ele><time>2026-05-03T12:30:01.087Z</time></trkpt><trkpt lat="41.8229397" lon="12.7530572"><ele>319.0</ele><time>2026-05-03T12:30:02.108Z</time></trkpt><trkpt lat="41.823024" lon="12.7527203"><ele>319.0</ele><time>2026-05-03T12:30:03.101Z</time></trkpt><trkpt lat="41.8231061" lon="12.752378"><ele>318.0</ele><time>2026-05-03T12:30:04.102Z</time></trkpt><trkpt lat="41.8231855" lon="12.7520398"><ele>317.0</ele><time>2026-05-03T12:30:05.106Z</time></trkpt><trkpt lat="41.8232656" lon="12.7517059"><ele>316.5</ele><time>2026-05-03T12:30:06.1Z</time></trkpt><trkpt lat="41.8233477" lon="12.7513716"><ele>316.0</ele><time>2026-05-03T12:30:07.117Z</time></trkpt><trkpt lat="41.8234321" lon="12.7510418"><ele>313.5</ele><time>2026-05-03T12:30:08.121Z</time></trkpt><trkpt lat="41.823519" lon="12.7507073"><ele>311.0</ele><time>2026-05-03T12:30:09.13Z</time></trkpt><trkpt lat="41.8236042" lon="12.7503695"><ele>313.5</ele><time>2026-05-03T12:30:10.118Z</time></trkpt><trkpt lat="41.8236926" lon="12.7500246"><ele>316.0</ele><time>2026-05-03T12:30:11.115Z</time></trkpt><trkpt lat="41.8237802" lon="12.7496792"><ele>316.5</ele><time>2026-05-03T12:30:12.096Z</time></trkpt><trkpt lat="41.8238703" lon="12.7493251"><ele>317.0</ele><time>2026-05-03T12:30:13.105Z</time></trkpt><trkpt lat="41.8239582" lon="12.748973"><ele>317.0</ele><time>2026-05-03T12:30:14.109Z</time></trkpt><trkpt lat="41.8240432" lon="12.7486245"><ele>317.0</ele><time>2026-05-03T12:30:15.093Z</time></trkpt><trkpt lat="41.8241276" lon="12.7482702"><ele>317.0</ele><time>2026-05-03T12:30:16.107Z</time></trkpt><trkpt lat="41.8242125" lon="12.7479215"><ele>317.0</ele><time>2026-05-03T12:30:17.091Z</time></trkpt><trkpt lat="41.8243007" lon="12.7475639"><ele>314.0</ele><time>2026-05-03T12:30:18.138Z</time></trkpt><trkpt lat="41.8243861" lon="12.747217"><ele>311.0</ele><time>2026-05-03T12:30:19.119Z</time></trkpt><trkpt lat="41.8244747" lon="12.7468648"><ele>311.0</ele><time>2026-05-03T12:30:20.132Z</time></trkpt><trkpt lat="41.8245618" lon="12.746518"><ele>311.0</ele><time>2026-05-03T12:30:21.114Z</time></trkpt><trkpt lat="41.8246511" lon="12.74617"><ele>310.0</ele><time>2026-05-03T12:30:22.075Z</time></trkpt><trkpt lat="41.8247443" lon="12.7458131"><ele>309.0</ele><time>2026-05-03T12:30:23.107Z</time></trkpt><trkpt lat="41.8248312" lon="12.7454613"><ele>307.5</ele><time>2026-05-03T12:30:24.121Z</time></trkpt><trkpt lat="41.8249165" lon="12.7451079"><ele>306.0</ele><time>2026-05-03T12:30:25.109Z</time></trkpt><trkpt lat="41.825001" lon="12.7447535"><ele>306.0</ele><time>2026-05-03T12:30:26.111Z</time></trkpt><trkpt lat="41.8250877" lon="12.7444001"><ele>306.0</ele><time>2026-05-03T12:30:27.072Z</time></trkpt><trkpt lat="41.8251747" lon="12.7440407"><ele>304.0</ele><time>2026-05-03T12:30:28.072Z</time></trkpt><trkpt lat="41.8252582" lon="12.7436868"><ele>302.0</ele><time>2026-05-03T12:30:29.061Z</time></trkpt><trkpt lat="41.8253486" lon="12.7433329"><ele>302.0</ele><time>2026-05-03T12:30:30.057Z</time></trkpt><trkpt lat="41.8254414" lon="12.7429795"><ele>302.0</ele><time>2026-05-03T12:30:31.081Z</time></trkpt><trkpt lat="41.825531" lon="12.7426253"><ele>305.5</ele><time>2026-05-03T12:30:32.09Z</time></trkpt><trkpt lat="41.8256174" lon="12.7422753"><ele>309.0</ele><time>2026-05-03T12:30:33.081Z</time></trkpt><trkpt lat="41.8257044" lon="12.7419228"><ele>308.5</ele><time>2026-05-03T12:30:34.095Z</time></trkpt><trkpt lat="41.8257922" lon="12.741578"><ele>308.0</ele><time>2026-05-03T12:30:35.078Z</time></trkpt><trkpt lat="41.8258812" lon="12.7412279"><ele>310.0</ele><time>2026-05-03T12:30:36.104Z</time></trkpt><trkpt lat="41.8259674" lon="12.7408782"><ele>312.0</ele><time>2026-05-03T12:30:37.115Z</time></trkpt><trkpt lat="41.8260489" lon="12.7405339"><ele>303.0</ele><time>2026-05-03T12:30:38.06Z</time></trkpt><trkpt lat="41.8261327" lon="12.7401803"><ele>294.0</ele><time>2026-05-03T12:30:39.063Z</time></trkpt><trkpt lat="41.8262195" lon="12.7398284"><ele>294.0</ele><time>2026-05-03T12:30:40.088Z</time></trkpt><trkpt lat="41.826308" lon="12.7394861"><ele>294.0</ele><time>2026-05-03T12:30:41.062Z</time></trkpt><trkpt lat="41.8263955" lon="12.73914"><ele>292.5</ele><time>2026-05-03T12:30:42.056Z</time></trkpt><trkpt lat="41.8264813" lon="12.7387933"><ele>291.0</ele><time>2026-05-03T12:30:43.065Z</time></trkpt><trkpt lat="41.8265659" lon="12.7384528"><ele>291.0</ele><time>2026-05-03T12:30:44.07Z</time></trkpt><trkpt lat="41.8266494" lon="12.7381174"><ele>291.0</ele><time>2026-05-03T12:30:45.06Z</time></trkpt><trkpt lat="41.8267309" lon="12.7377812"><ele>291.5</ele><time>2026-05-03T12:30:46.061Z</time></trkpt><trkpt lat="41.8268043" lon="12.7374347"><ele>292.0</ele><time>2026-05-03T12:30:47.081Z</time></trkpt><trkpt lat="41.8268599" lon="12.7370916"><ele>286.5</ele><time>2026-05-03T12:30:48.072Z</time></trkpt><trkpt lat="41.8269039" lon="12.7367416"><ele>281.0</ele><time>2026-05-03T12:30:49.057Z</time></trkpt><trkpt lat="41.826945" lon="12.7363812"><ele>283.0</ele><time>2026-05-03T12:30:50.089Z</time></trkpt><trkpt lat="41.8269786" lon="12.7360218"><ele>285.0</ele><time>2026-05-03T12:30:51.094Z</time></trkpt><trkpt lat="41.8270056" lon="12.7356629"><ele>285.0</ele><time>2026-05-03T12:30:52.09Z</time></trkpt><trkpt lat="41.8270195" lon="12.7352985"><ele>285.0</ele><time>2026-05-03T12:30:53.117Z</time></trkpt><trkpt lat="41.827023" lon="12.734938"><ele>285.5</ele><time>2026-05-03T12:30:54.109Z</time></trkpt><trkpt lat="41.8270152" lon="12.7345689"><ele>286.0</ele><time>2026-05-03T12:30:55.107Z</time></trkpt><trkpt lat="41.8269963" lon="12.7342004"><ele>286.5</ele><time>2026-05-03T12:30:56.105Z</time></trkpt><trkpt lat="41.8269647" lon="12.7338393"><ele>287.0</ele><time>2026-05-03T12:30:57.059Z</time></trkpt><trkpt lat="41.8269214" lon="12.7334619"><ele>285.5</ele><time>2026-05-03T12:30:58.084Z</time></trkpt><trkpt lat="41.826878" lon="12.7330889"><ele>284.0</ele><time>2026-05-03T12:30:59.121Z</time></trkpt><trkpt lat="41.8268327" lon="12.7327292"><ele>285.0</ele><time>2026-05-03T12:31:00.085Z</time></trkpt><trkpt lat="41.8267913" lon="12.7323666"><ele>286.0</ele><time>2026-05-03T12:31:01.08Z</time></trkpt><trkpt lat="41.8267613" lon="12.7319993"><ele>284.5</ele><time>2026-05-03T12:31:02.074Z</time></trkpt><trkpt lat="41.8267295" lon="12.7316326"><ele>283.0</ele><time>2026-05-03T12:31:03.068Z</time></trkpt><trkpt lat="41.8266919" lon="12.7312639"><ele>283.5</ele><time>2026-05-03T12:31:04.072Z</time></trkpt><trkpt lat="41.8266536" lon="12.7308928"><ele>284.0</ele><time>2026-05-03T12:31:05.097Z</time></trkpt><trkpt lat="41.8266127" lon="12.730525"><ele>284.5</ele><time>2026-05-03T12:31:06.119Z</time></trkpt><trkpt lat="41.826576" lon="12.7301635"><ele>285.0</ele><time>2026-05-03T12:31:07.096Z</time></trkpt><trkpt lat="41.826537" lon="12.7297905"><ele>285.0</ele><time>2026-05-03T12:31:08.116Z</time></trkpt><trkpt lat="41.8264978" lon="12.7294287"><ele>285.0</ele><time>2026-05-03T12:31:09.06Z</time></trkpt><trkpt lat="41.8264576" lon="12.7290592"><ele>282.5</ele><time>2026-05-03T12:31:10.057Z</time></trkpt><trkpt lat="41.8264187" lon="12.7286784"><ele>280.0</ele><time>2026-05-03T12:31:11.113Z</time></trkpt><trkpt lat="41.826379" lon="12.7283083"><ele>281.0</ele><time>2026-05-03T12:31:12.107Z</time></trkpt><trkpt lat="41.8263403" lon="12.7279313"><ele>282.0</ele><time>2026-05-03T12:31:13.114Z</time></trkpt><trkpt lat="41.826305" lon="12.7275546"><ele>282.0</ele><time>2026-05-03T12:31:14.104Z</time></trkpt><trkpt lat="41.8262664" lon="12.7271844"><ele>282.0</ele><time>2026-05-03T12:31:15.067Z</time></trkpt><trkpt lat="41.8262264" lon="12.7268067"><ele>286.0</ele><time>2026-05-03T12:31:16.081Z</time></trkpt><trkpt lat="41.8261902" lon="12.7264385"><ele>290.0</ele><time>2026-05-03T12:31:17.069Z</time></trkpt><trkpt lat="41.8261579" lon="12.7260661"><ele>287.5</ele><time>2026-05-03T12:31:18.111Z</time></trkpt><trkpt lat="41.8261351" lon="12.7257067"><ele>285.0</ele><time>2026-05-03T12:31:19.067Z</time></trkpt><trkpt lat="41.8261185" lon="12.7253339"><ele>281.0</ele><time>2026-05-03T12:31:20.059Z</time></trkpt><trkpt lat="41.8261037" lon="12.7249507"><ele>277.0</ele><time>2026-05-03T12:31:21.142Z</time></trkpt><trkpt lat="41.8260902" lon="12.7245915"><ele>274.5</ele><time>2026-05-03T12:31:22.086Z</time></trkpt><trkpt lat="41.8260789" lon="12.724211"><ele>272.0</ele><time>2026-05-03T12:31:23.101Z</time></trkpt><trkpt lat="41.8260686" lon="12.7238349"><ele>273.0</ele><time>2026-05-03T12:31:24.109Z</time></trkpt><trkpt lat="41.8260599" lon="12.7234574"><ele>274.0</ele><time>2026-05-03T12:31:25.12Z</time></trkpt><trkpt lat="41.8260542" lon="12.7230871"><ele>276.0</ele><time>2026-05-03T12:31:26.103Z</time></trkpt><trkpt lat="41.8260545" lon="12.7227174"><ele>278.0</ele><time>2026-05-03T12:31:27.08Z</time></trkpt><trkpt lat="41.8260585" lon="12.7223361"><ele>278.0</ele><time>2026-05-03T12:31:28.117Z</time></trkpt><trkpt lat="41.8260661" lon="12.7219704"><ele>278.0</ele><time>2026-05-03T12:31:29.078Z</time></trkpt><trkpt lat="41.8260774" lon="12.7216001"><ele>278.5</ele><time>2026-05-03T12:31:30.059Z</time></trkpt><trkpt lat="41.8260977" lon="12.7212198"><ele>279.0</ele><time>2026-05-03T12:31:31.113Z</time></trkpt><trkpt lat="41.8261211" lon="12.7208517"><ele>274.5</ele><time>2026-05-03T12:31:32.108Z</time></trkpt><trkpt lat="41.8261485" lon="12.7204786"><ele>270.0</ele><time>2026-05-03T12:31:33.114Z</time></trkpt><trkpt lat="41.8261821" lon="12.7201049"><ele>269.0</ele><time>2026-05-03T12:31:34.107Z</time></trkpt><trkpt lat="41.8262149" lon="12.7197365"><ele>268.0</ele><time>2026-05-03T12:31:35.065Z</time></trkpt><trkpt lat="41.8262488" lon="12.719358"><ele>267.5</ele><time>2026-05-03T12:31:36.103Z</time></trkpt><trkpt lat="41.8262869" lon="12.7189934"><ele>267.0</ele><time>2026-05-03T12:31:37.102Z</time></trkpt><trkpt lat="41.8263258" lon="12.7186262"><ele>268.0</ele><time>2026-05-03T12:31:38.128Z</time></trkpt><trkpt lat="41.8263683" lon="12.7182725"><ele>269.0</ele><time>2026-05-03T12:31:39.073Z</time></trkpt><trkpt lat="41.8264124" lon="12.7179086"><ele>269.5</ele><time>2026-05-03T12:31:40.062Z</time></trkpt><trkpt lat="41.8264602" lon="12.7175431"><ele>270.0</ele><time>2026-05-03T12:31:41.073Z</time></trkpt><trkpt lat="41.826508" lon="12.7171841"><ele>274.0</ele><time>2026-05-03T12:31:42.062Z</time></trkpt><trkpt lat="41.8265583" lon="12.7168201"><ele>278.0</ele><time>2026-05-03T12:31:43.07Z</time></trkpt><trkpt lat="41.8266073" lon="12.7164571"><ele>278.0</ele><time>2026-05-03T12:31:44.087Z</time></trkpt><trkpt lat="41.8266555" lon="12.7160962"><ele>278.0</ele><time>2026-05-03T12:31:45.11Z</time></trkpt><trkpt lat="41.8267018" lon="12.7157397"><ele>279.5</ele><time>2026-05-03T12:31:46.056Z</time></trkpt><trkpt lat="41.8267483" lon="12.715371"><ele>281.0</ele><time>2026-05-03T12:31:47.075Z</time></trkpt><trkpt lat="41.8267958" lon="12.7150076"><ele>276.0</ele><time>2026-05-03T12:31:48.092Z</time></trkpt><trkpt lat="41.8268449" lon="12.7146454"><ele>271.0</ele><time>2026-05-03T12:31:49.11Z</time></trkpt><trkpt lat="41.826891" lon="12.7142853"><ele>271.0</ele><time>2026-05-03T12:31:50.113Z</time></trkpt><trkpt lat="41.8269401" lon="12.7139253"><ele>271.0</ele><time>2026-05-03T12:31:51.09Z</time></trkpt><trkpt lat="41.8269881" lon="12.7135635"><ele>273.5</ele><time>2026-05-03T12:31:52.07Z</time></trkpt><trkpt lat="41.8270379" lon="12.7131969"><ele>276.0</ele><time>2026-05-03T12:31:53.106Z</time></trkpt><trkpt lat="41.8270837" lon="12.7128334"><ele>276.0</ele><time>2026-05-03T12:31:54.101Z</time></trkpt><trkpt lat="41.8271291" lon="12.7124697"><ele>276.0</ele><time>2026-05-03T12:31:55.115Z</time></trkpt><trkpt lat="41.8271748" lon="12.7121082"><ele>273.0</ele><time>2026-05-03T12:31:56.096Z</time></trkpt><trkpt lat="41.8272193" lon="12.711746"><ele>270.0</ele><time>2026-05-03T12:31:57.097Z</time></trkpt><trkpt lat="41.8272659" lon="12.7113753"><ele>269.0</ele><time>2026-05-03T12:31:58.133Z</time></trkpt><trkpt lat="41.8273139" lon="12.7110157"><ele>268.0</ele><time>2026-05-03T12:31:59.138Z</time></trkpt><trkpt lat="41.8273626" lon="12.7106548"><ele>268.0</ele><time>2026-05-03T12:32:00.111Z</time></trkpt><trkpt lat="41.8274121" lon="12.7102914"><ele>268.0</ele><time>2026-05-03T12:32:01.098Z</time></trkpt><trkpt lat="41.8274591" lon="12.7099261"><ele>272.0</ele><time>2026-05-03T12:32:02.121Z</time></trkpt><trkpt lat="41.8275017" lon="12.7095713"><ele>276.0</ele><time>2026-05-03T12:32:03.104Z</time></trkpt><trkpt lat="41.8275411" lon="12.7092209"><ele>276.0</ele><time>2026-05-03T12:32:04.085Z</time></trkpt><trkpt lat="41.8275863" lon="12.7088687"><ele>276.0</ele><time>2026-05-03T12:32:05.124Z</time></trkpt><trkpt lat="41.827631" lon="12.7085281"><ele>272.5</ele><time>2026-05-03T12:32:06.129Z</time></trkpt><trkpt lat="41.8276785" lon="12.7081847"><ele>269.0</ele><time>2026-05-03T12:32:07.113Z</time></trkpt><trkpt lat="41.8277233" lon="12.7078395"><ele>268.0</ele><time>2026-05-03T12:32:08.085Z</time></trkpt><trkpt lat="41.8277712" lon="12.7074836"><ele>267.0</ele><time>2026-05-03T12:32:09.121Z</time></trkpt><trkpt lat="41.8278194" lon="12.7071366"><ele>264.5</ele><time>2026-05-03T12:32:10.126Z</time></trkpt><trkpt lat="41.8278604" lon="12.7067913"><ele>262.0</ele><time>2026-05-03T12:32:11.115Z</time></trkpt><trkpt lat="41.827903" lon="12.7064415"><ele>262.0</ele><time>2026-05-03T12:32:12.115Z</time></trkpt><trkpt lat="41.8279456" lon="12.7060909"><ele>262.0</ele><time>2026-05-03T12:32:13.116Z</time></trkpt><trkpt lat="41.8279891" lon="12.7057417"><ele>261.5</ele><time>2026-05-03T12:32:14.113Z</time></trkpt><trkpt lat="41.8280341" lon="12.7053909"><ele>261.0</ele><time>2026-05-03T12:32:15.091Z</time></trkpt><trkpt lat="41.8280807" lon="12.7050366"><ele>261.0</ele><time>2026-05-03T12:32:16.106Z</time></trkpt><trkpt lat="41.8281234" lon="12.704682"><ele>261.0</ele><time>2026-05-03T12:32:17.112Z</time></trkpt><trkpt lat="41.8281649" lon="12.7043263"><ele>261.5</ele><time>2026-05-03T12:32:18.103Z</time></trkpt><trkpt lat="41.8282005" lon="12.7039705"><ele>262.0</ele><time>2026-05-03T12:32:19.118Z</time></trkpt><trkpt lat="41.8282419" lon="12.7036175"><ele>260.5</ele><time>2026-05-03T12:32:20.113Z</time></trkpt><trkpt lat="41.8282873" lon="12.7032621"><ele>259.0</ele><time>2026-05-03T12:32:21.106Z</time></trkpt><trkpt lat="41.8283406" lon="12.70291"><ele>259.5</ele><time>2026-05-03T12:32:22.107Z</time></trkpt><trkpt lat="41.8283935" lon="12.7025583"><ele>260.0</ele><time>2026-05-03T12:32:23.105Z</time></trkpt><trkpt lat="41.8284403" lon="12.7022039"><ele>255.0</ele><time>2026-05-03T12:32:24.095Z</time></trkpt><trkpt lat="41.8284861" lon="12.7018441"><ele>250.0</ele><time>2026-05-03T12:32:25.119Z</time></trkpt><trkpt lat="41.8285347" lon="12.7014944"><ele>250.0</ele><time>2026-05-03T12:32:26.066Z</time></trkpt><trkpt lat="41.8285838" lon="12.7011382"><ele>250.0</ele><time>2026-05-03T12:32:27.091Z</time></trkpt><trkpt lat="41.8286241" lon="12.7007917"><ele>250.0</ele><time>2026-05-03T12:32:28.06Z</time></trkpt><trkpt lat="41.8286634" lon="12.7004467"><ele>250.0</ele><time>2026-05-03T12:32:29.065Z</time></trkpt><trkpt lat="41.8287092" lon="12.7001048"><ele>248.5</ele><time>2026-05-03T12:32:30.08Z</time></trkpt><trkpt lat="41.8287572" lon="12.6997669"><ele>247.0</ele><time>2026-05-03T12:32:31.088Z</time></trkpt><trkpt lat="41.8288032" lon="12.6994303"><ele>245.0</ele><time>2026-05-03T12:32:32.081Z</time></trkpt><trkpt lat="41.828847" lon="12.6990861"><ele>243.0</ele><time>2026-05-03T12:32:33.108Z</time></trkpt><trkpt lat="41.8288877" lon="12.6987543"><ele>239.5</ele><time>2026-05-03T12:32:34.084Z</time></trkpt><trkpt lat="41.8289316" lon="12.6984104"><ele>236.0</ele><time>2026-05-03T12:32:35.112Z</time></trkpt><trkpt lat="41.8289741" lon="12.6980671"><ele>235.5</ele><time>2026-05-03T12:32:36.144Z</time></trkpt><trkpt lat="41.829015" lon="12.6977267"><ele>235.0</ele><time>2026-05-03T12:32:37.121Z</time></trkpt><trkpt lat="41.8290551" lon="12.6973755"><ele>235.0</ele><time>2026-05-03T12:32:38.113Z</time></trkpt><trkpt lat="41.8290933" lon="12.6970222"><ele>235.0</ele><time>2026-05-03T12:32:39.115Z</time></trkpt><trkpt lat="41.8291246" lon="12.6966687"><ele>232.5</ele><time>2026-05-03T12:32:40.082Z</time></trkpt><trkpt lat="41.8291507" lon="12.696309"><ele>230.0</ele><time>2026-05-03T12:32:41.125Z</time></trkpt><trkpt lat="41.8291703" lon="12.6959559"><ele>226.5</ele><time>2026-05-03T12:32:42.123Z</time></trkpt><trkpt lat="41.8291849" lon="12.695598"><ele>223.0</ele><time>2026-05-03T12:32:43.12Z</time></trkpt><trkpt lat="41.8291962" lon="12.6952344"><ele>221.0</ele><time>2026-05-03T12:32:44.137Z</time></trkpt><trkpt lat="41.8291986" lon="12.6948783"><ele>219.0</ele><time>2026-05-03T12:32:45.099Z</time></trkpt><trkpt lat="41.8291953" lon="12.6945041"><ele>219.0</ele><time>2026-05-03T12:32:46.133Z</time></trkpt><trkpt lat="41.8291859" lon="12.6941336"><ele>219.0</ele><time>2026-05-03T12:32:47.123Z</time></trkpt><trkpt lat="41.8291739" lon="12.6937621"><ele>219.5</ele><time>2026-05-03T12:32:48.103Z</time></trkpt><trkpt lat="41.8291598" lon="12.6933906"><ele>220.0</ele><time>2026-05-03T12:32:49.088Z</time></trkpt><trkpt lat="41.8291391" lon="12.6930107"><ele>219.5</ele><time>2026-05-03T12:32:50.111Z</time></trkpt><trkpt lat="41.8291148" lon="12.692639"><ele>219.0</ele><time>2026-05-03T12:32:51.101Z</time></trkpt><trkpt lat="41.8290892" lon="12.6922634"><ele>216.5</ele><time>2026-05-03T12:32:52.104Z</time></trkpt><trkpt lat="41.8290629" lon="12.69189"><ele>214.0</ele><time>2026-05-03T12:32:53.131Z</time></trkpt><trkpt lat="41.8290302" lon="12.6915288"><ele>214.0</ele><time>2026-05-03T12:32:54.088Z</time></trkpt><trkpt lat="41.8289859" lon="12.6911612"><ele>214.0</ele><time>2026-05-03T12:32:55.114Z</time></trkpt><trkpt lat="41.8289303" lon="12.6908009"><ele>210.5</ele><time>2026-05-03T12:32:56.136Z</time></trkpt><trkpt lat="41.8288682" lon="12.6904469"><ele>207.0</ele><time>2026-05-03T12:32:57.129Z</time></trkpt><trkpt lat="41.8287982" lon="12.6900978"><ele>204.0</ele><time>2026-05-03T12:32:58.129Z</time></trkpt><trkpt lat="41.8287194" lon="12.6897495"><ele>201.0</ele><time>2026-05-03T12:32:59.135Z</time></trkpt><trkpt lat="41.8286444" lon="12.6894007"><ele>198.5</ele><time>2026-05-03T12:33:00.137Z</time></trkpt><trkpt lat="41.8285722" lon="12.6890504"><ele>196.0</ele><time>2026-05-03T12:33:01.135Z</time></trkpt><trkpt lat="41.8284994" lon="12.6886995"><ele>198.0</ele><time>2026-05-03T12:33:02.119Z</time></trkpt><trkpt lat="41.8284249" lon="12.6883434"><ele>200.0</ele><time>2026-05-03T12:33:03.127Z</time></trkpt><trkpt lat="41.8283504" lon="12.6879902"><ele>200.0</ele><time>2026-05-03T12:33:04.133Z</time></trkpt><trkpt lat="41.8282763" lon="12.6876444"><ele>200.0</ele><time>2026-05-03T12:33:05.096Z</time></trkpt><trkpt lat="41.8282023" lon="12.6872841"><ele>201.0</ele><time>2026-05-03T12:33:06.127Z</time></trkpt><trkpt lat="41.8281243" lon="12.6869255"><ele>202.0</ele><time>2026-05-03T12:33:07.147Z</time></trkpt><trkpt lat="41.8280521" lon="12.6865759"><ele>202.0</ele><time>2026-05-03T12:33:08.094Z</time></trkpt><trkpt lat="41.8279744" lon="12.68621"><ele>202.0</ele><time>2026-05-03T12:33:09.126Z</time></trkpt><trkpt lat="41.8279004" lon="12.6858512"><ele>202.0</ele><time>2026-05-03T12:33:10.139Z</time></trkpt><trkpt lat="41.8278253" lon="12.6854949"><ele>202.0</ele><time>2026-05-03T12:33:11.139Z</time></trkpt><trkpt lat="41.8277497" lon="12.6851349"><ele>201.5</ele><time>2026-05-03T12:33:12.109Z</time></trkpt><trkpt lat="41.8276709" lon="12.6847697"><ele>201.0</ele><time>2026-05-03T12:33:13.131Z</time></trkpt><trkpt lat="41.8275942" lon="12.6844072"><ele>203.0</ele><time>2026-05-03T12:33:14.14Z</time></trkpt><trkpt lat="41.8275206" lon="12.6840475"><ele>205.0</ele><time>2026-05-03T12:33:15.108Z</time></trkpt><trkpt lat="41.8274483" lon="12.6836849"><ele>205.0</ele><time>2026-05-03T12:33:16.116Z</time></trkpt><trkpt lat="41.8273765" lon="12.6833298"><ele>205.0</ele><time>2026-05-03T12:33:17.125Z</time></trkpt><trkpt lat="41.8273033" lon="12.6829818"><ele>205.0</ele><time>2026-05-03T12:33:18.1Z</time></trkpt><trkpt lat="41.8272309" lon="12.6826272"><ele>205.0</ele><time>2026-05-03T12:33:19.119Z</time></trkpt><trkpt lat="41.8271588" lon="12.6822845"><ele>205.0</ele><time>2026-05-03T12:33:20.106Z</time></trkpt><trkpt lat="41.8270853" lon="12.6819365"><ele>205.0</ele><time>2026-05-03T12:33:21.135Z</time></trkpt><trkpt lat="41.8270098" lon="12.6815958"><ele>202.5</ele><time>2026-05-03T12:33:22.119Z</time></trkpt><trkpt lat="41.8269348" lon="12.6812492"><ele>200.0</ele><time>2026-05-03T12:33:23.121Z</time></trkpt><trkpt lat="41.8268593" lon="12.6809018"><ele>203.0</ele><time>2026-05-03T12:33:24.123Z</time></trkpt><trkpt lat="41.8267871" lon="12.6805545"><ele>206.0</ele><time>2026-05-03T12:33:25.128Z</time></trkpt><trkpt lat="41.826716" lon="12.6802099"><ele>206.5</ele><time>2026-05-03T12:33:26.077Z</time></trkpt><trkpt lat="41.8266443" lon="12.6798501"><ele>207.0</ele><time>2026-05-03T12:33:27.108Z</time></trkpt><trkpt lat="41.8265758" lon="12.6795015"><ele>205.5</ele><time>2026-05-03T12:33:28.084Z</time></trkpt><trkpt lat="41.8265017" lon="12.6791441"><ele>204.0</ele><time>2026-05-03T12:33:29.114Z</time></trkpt><trkpt lat="41.8264295" lon="12.6787894"><ele>202.5</ele><time>2026-05-03T12:33:30.098Z</time></trkpt><trkpt lat="41.8263512" lon="12.6784261"><ele>201.0</ele><time>2026-05-03T12:33:31.143Z</time></trkpt><trkpt lat="41.8262771" lon="12.6780702"><ele>198.5</ele><time>2026-05-03T12:33:32.117Z</time></trkpt><trkpt lat="41.8262026" lon="12.6777058"><ele>196.0</ele><time>2026-05-03T12:33:33.111Z</time></trkpt><trkpt lat="41.8261323" lon="12.677342"><ele>196.0</ele><time>2026-05-03T12:33:34.095Z</time></trkpt><trkpt lat="41.8260668" lon="12.6769711"><ele>196.0</ele><time>2026-05-03T12:33:35.103Z</time></trkpt><trkpt lat="41.8260137" lon="12.676603"><ele>196.0</ele><time>2026-05-03T12:33:36.093Z</time></trkpt><trkpt lat="41.8259747" lon="12.6762237"><ele>196.0</ele><time>2026-05-03T12:33:37.112Z</time></trkpt><trkpt lat="41.825948" lon="12.6758455"><ele>197.5</ele><time>2026-05-03T12:33:38.081Z</time></trkpt><trkpt lat="41.8259279" lon="12.6754571"><ele>199.0</ele><time>2026-05-03T12:33:39.123Z</time></trkpt><trkpt lat="41.8259208" lon="12.6750753"><ele>199.0</ele><time>2026-05-03T12:33:40.13Z</time></trkpt><trkpt lat="41.8259264" lon="12.6746996"><ele>199.0</ele><time>2026-05-03T12:33:41.099Z</time></trkpt><trkpt lat="41.8259411" lon="12.674316"><ele>199.0</ele><time>2026-05-03T12:33:42.129Z</time></trkpt><trkpt lat="41.8259674" lon="12.6739445"><ele>199.0</ele><time>2026-05-03T12:33:43.09Z</time></trkpt><trkpt lat="41.826006" lon="12.673569"><ele>196.0</ele><time>2026-05-03T12:33:44.12Z</time></trkpt><trkpt lat="41.8260502" lon="12.6732065"><ele>193.0</ele><time>2026-05-03T12:33:45.117Z</time></trkpt><trkpt lat="41.826107" lon="12.6728424"><ele>191.5</ele><time>2026-05-03T12:33:46.135Z</time></trkpt><trkpt lat="41.8261751" lon="12.6724917"><ele>190.0</ele><time>2026-05-03T12:33:47.107Z</time></trkpt><trkpt lat="41.8262524" lon="12.6721463"><ele>188.0</ele><time>2026-05-03T12:33:48.077Z</time></trkpt><trkpt lat="41.8263409" lon="12.6717975"><ele>186.0</ele><time>2026-05-03T12:33:49.122Z</time></trkpt><trkpt lat="41.8264358" lon="12.6714646"><ele>186.0</ele><time>2026-05-03T12:33:50.104Z</time></trkpt><trkpt lat="41.8265397" lon="12.6711196"><ele>186.0</ele><time>2026-05-03T12:33:51.105Z</time></trkpt><trkpt lat="41.8266523" lon="12.6707895"><ele>184.0</ele><time>2026-05-03T12:33:52.065Z</time></trkpt><trkpt lat="41.8267742" lon="12.6704512"><ele>182.0</ele><time>2026-05-03T12:33:53.092Z</time></trkpt><trkpt lat="41.8268952" lon="12.6701247"><ele>178.0</ele><time>2026-05-03T12:33:54.081Z</time></trkpt><trkpt lat="41.8270184" lon="12.6697959"><ele>174.0</ele><time>2026-05-03T12:33:55.126Z</time></trkpt><trkpt lat="41.827137" lon="12.6694752"><ele>172.0</ele><time>2026-05-03T12:33:56.113Z</time></trkpt><trkpt lat="41.8272535" lon="12.6691542"><ele>170.0</ele><time>2026-05-03T12:33:57.123Z</time></trkpt><trkpt lat="41.8273648" lon="12.6688375"><ele>168.5</ele><time>2026-05-03T12:33:58.117Z</time></trkpt><trkpt lat="41.8274756" lon="12.6685239"><ele>167.0</ele><time>2026-05-03T12:33:59.095Z</time></trkpt><trkpt lat="41.8275892" lon="12.6681965"><ele>161.5</ele><time>2026-05-03T12:34:00.125Z</time></trkpt><trkpt lat="41.8276979" lon="12.6678639"><ele>156.0</ele><time>2026-05-03T12:34:01.106Z</time></trkpt><trkpt lat="41.8278145" lon="12.6675252"><ele>156.0</ele><time>2026-05-03T12:34:02.103Z</time></trkpt><trkpt lat="41.8279354" lon="12.6671817"><ele>156.0</ele><time>2026-05-03T12:34:03.122Z</time></trkpt><trkpt lat="41.828062" lon="12.6668385"><ele>156.5</ele><time>2026-05-03T12:34:04.127Z</time></trkpt><trkpt lat="41.8281929" lon="12.6664953"><ele>157.0</ele><time>2026-05-03T12:34:05.144Z</time></trkpt><trkpt lat="41.82832" lon="12.6661586"><ele>155.5</ele><time>2026-05-03T12:34:06.108Z</time></trkpt><trkpt lat="41.8284483" lon="12.6658114"><ele>154.0</ele><time>2026-05-03T12:34:07.105Z</time></trkpt><trkpt lat="41.8285743" lon="12.6654612"><ele>152.5</ele><time>2026-05-03T12:34:08.129Z</time></trkpt><trkpt lat="41.8286979" lon="12.6651193"><ele>151.0</ele><time>2026-05-03T12:34:09.126Z</time></trkpt><trkpt lat="41.8288201" lon="12.6647813"><ele>151.0</ele><time>2026-05-03T12:34:10.131Z</time></trkpt><trkpt lat="41.8289451" lon="12.6644399"><ele>151.0</ele><time>2026-05-03T12:34:11.121Z</time></trkpt><trkpt lat="41.8290759" lon="12.6640932"><ele>151.0</ele><time>2026-05-03T12:34:12.1Z</time></trkpt><trkpt lat="41.829216" lon="12.6637286"><ele>151.0</ele><time>2026-05-03T12:34:13.138Z</time></trkpt><trkpt lat="41.829354" lon="12.6633676"><ele>148.5</ele><time>2026-05-03T12:34:14.118Z</time></trkpt><trkpt lat="41.8294951" lon="12.6629984"><ele>146.0</ele><time>2026-05-03T12:34:15.126Z</time></trkpt><trkpt lat="41.8296341" lon="12.6626304"><ele>144.5</ele><time>2026-05-03T12:34:16.109Z</time></trkpt><trkpt lat="41.8297736" lon="12.6622554"><ele>143.0</ele><time>2026-05-03T12:34:17.13Z</time></trkpt><trkpt lat="41.8299129" lon="12.6618793"><ele>141.0</ele><time>2026-05-03T12:34:18.155Z</time></trkpt><trkpt lat="41.8300464" lon="12.6615099"><ele>139.0</ele><time>2026-05-03T12:34:19.119Z</time></trkpt><trkpt lat="41.8301796" lon="12.6611304"><ele>135.5</ele><time>2026-05-03T12:34:20.104Z</time></trkpt><trkpt lat="41.830313" lon="12.6607486"><ele>132.0</ele><time>2026-05-03T12:34:21.125Z</time></trkpt><trkpt lat="41.8304397" lon="12.6603722"><ele>130.0</ele><time>2026-05-03T12:34:22.123Z</time></trkpt><trkpt lat="41.8305694" lon="12.6599948"><ele>128.0</ele><time>2026-05-03T12:34:23.119Z</time></trkpt><trkpt lat="41.8307023" lon="12.6596139"><ele>128.0</ele><time>2026-05-03T12:34:24.126Z</time></trkpt><trkpt lat="41.8308329" lon="12.6592351"><ele>128.0</ele><time>2026-05-03T12:34:25.137Z</time></trkpt><trkpt lat="41.8309619" lon="12.6588609"><ele>128.0</ele><time>2026-05-03T12:34:26.123Z</time></trkpt><trkpt lat="41.8310852" lon="12.6584957"><ele>128.0</ele><time>2026-05-03T12:34:27.123Z</time></trkpt><trkpt lat="41.8312037" lon="12.6581552"><ele>128.0</ele><time>2026-05-03T12:34:28.131Z</time></trkpt><trkpt lat="41.8313221" lon="12.6578374"><ele>128.0</ele><time>2026-05-03T12:34:29.119Z</time></trkpt><trkpt lat="41.8314491" lon="12.6575256"><ele>130.0</ele><time>2026-05-03T12:34:30.123Z</time></trkpt><trkpt lat="41.8315834" lon="12.6571903"><ele>132.0</ele><time>2026-05-03T12:34:31.123Z</time></trkpt><trkpt lat="41.8317135" lon="12.6568504"><ele>130.5</ele><time>2026-05-03T12:34:32.088Z</time></trkpt><trkpt lat="41.831844" lon="12.6564838"><ele>129.0</ele><time>2026-05-03T12:34:33.088Z</time></trkpt><trkpt lat="41.8319704" lon="12.6561214"><ele>126.0</ele><time>2026-05-03T12:34:34.121Z</time></trkpt><trkpt lat="41.8320909" lon="12.6557732"><ele>123.0</ele><time>2026-05-03T12:34:35.12Z</time></trkpt><trkpt lat="41.8322141" lon="12.6554342"><ele>122.0</ele><time>2026-05-03T12:34:36.128Z</time></trkpt><trkpt lat="41.8323276" lon="12.6551121"><ele>121.0</ele><time>2026-05-03T12:34:37.125Z</time></trkpt><trkpt lat="41.8324265" lon="12.6548136"><ele>121.0</ele><time>2026-05-03T12:34:38.118Z</time></trkpt><trkpt lat="41.8325166" lon="12.654523"><ele>121.0</ele><time>2026-05-03T12:34:39.116Z</time></trkpt><trkpt lat="41.8325963" lon="12.6542505"><ele>121.0</ele><time>2026-05-03T12:34:40.089Z</time></trkpt><trkpt lat="41.8326705" lon="12.6539941"><ele>121.0</ele><time>2026-05-03T12:34:41.135Z</time></trkpt><trkpt lat="41.8327338" lon="12.6537574"><ele>121.0</ele><time>2026-05-03T12:34:42.127Z</time></trkpt><trkpt lat="41.8327983" lon="12.6535348"><ele>120.25</ele><time>2026-05-03T12:34:43.115Z</time></trkpt><trkpt lat="41.8328577" lon="12.65334"><ele>119.5</ele><time>2026-05-03T12:34:44.106Z</time></trkpt><trkpt lat="41.832912" lon="12.653173"><ele>118.75</ele><time>2026-05-03T12:34:45.144Z</time></trkpt><trkpt lat="41.8329558" lon="12.6530337"><ele>118.0</ele><time>2026-05-03T12:34:46.126Z</time></trkpt><trkpt lat="41.8329928" lon="12.6529278"><ele>118.00000000000001</ele><time>2026-05-03T12:34:47.113Z</time></trkpt><trkpt lat="41.8330225" lon="12.652845"><ele>118.0</ele><time>2026-05-03T12:34:48.083Z</time></trkpt><trkpt lat="41.8330567" lon="12.6527664"><ele>118.0</ele><time>2026-05-03T12:34:50.139Z</time></trkpt><trkpt lat="41.8330944" lon="12.6526848"><ele>118.0</ele><time>2026-05-03T12:35:50.141Z</time></trkpt><trkpt lat="41.8331205" lon="12.65259"><ele>118.00000000000001</ele><time>2026-05-03T12:35:51.128Z</time></trkpt><trkpt lat="41.8331762" lon="12.6524609"><ele>118.0</ele><time>2026-05-03T12:35:52.078Z</time></trkpt><trkpt lat="41.8332404" lon="12.652296"><ele>118.0</ele><time>2026-05-03T12:35:53.109Z</time></trkpt><trkpt lat="41.8333054" lon="12.6521219"><ele>118.0</ele><time>2026-05-03T12:35:54.089Z</time></trkpt><trkpt lat="41.8333646" lon="12.651961"><ele>118.0</ele><time>2026-05-03T12:35:55.125Z</time></trkpt><trkpt lat="41.8334292" lon="12.6517894"><ele>118.0</ele><time>2026-05-03T12:35:56.11Z</time></trkpt><trkpt lat="41.8335059" lon="12.6516041"><ele>117.0</ele><time>2026-05-03T12:35:57.127Z</time></trkpt><trkpt lat="41.8335882" lon="12.6513886"><ele>116.0</ele><time>2026-05-03T12:35:58.128Z</time></trkpt><trkpt lat="41.8336899" lon="12.6511577"><ele>115.0</ele><time>2026-05-03T12:35:59.078Z</time></trkpt><trkpt lat="41.8338087" lon="12.6509053"><ele>115.0</ele><time>2026-05-03T12:36:00.133Z</time></trkpt><trkpt lat="41.8339304" lon="12.6506394"><ele>115.0</ele><time>2026-05-03T12:36:01.136Z</time></trkpt><trkpt lat="41.8340506" lon="12.6503661"><ele>116.5</ele><time>2026-05-03T12:36:02.105Z</time></trkpt><trkpt lat="41.8341673" lon="12.6500892"><ele>118.0</ele><time>2026-05-03T12:36:03.128Z</time></trkpt><trkpt lat="41.8342817" lon="12.6497925"><ele>118.0</ele><time>2026-05-03T12:36:04.117Z</time></trkpt><trkpt lat="41.8343947" lon="12.6494887"><ele>118.0</ele><time>2026-05-03T12:36:05.129Z</time></trkpt><trkpt lat="41.8345038" lon="12.6491793"><ele>117.0</ele><time>2026-05-03T12:36:06.137Z</time></trkpt><trkpt lat="41.8346156" lon="12.6488706"><ele>116.0</ele><time>2026-05-03T12:36:07.124Z</time></trkpt><trkpt lat="41.8347339" lon="12.6485324"><ele>113.5</ele><time>2026-05-03T12:36:08.108Z</time></trkpt><trkpt lat="41.8348568" lon="12.6481982"><ele>111.0</ele><time>2026-05-03T12:36:09.097Z</time></trkpt><trkpt lat="41.834981" lon="12.6478614"><ele>110.5</ele><time>2026-05-03T12:36:10.117Z</time></trkpt><trkpt lat="41.8351021" lon="12.6475277"><ele>110.0</ele><time>2026-05-03T12:36:11.114Z</time></trkpt><trkpt lat="41.8352244" lon="12.6471881"><ele>107.5</ele><time>2026-05-03T12:36:12.104Z</time></trkpt><trkpt lat="41.8353463" lon="12.6468509"><ele>105.0</ele><time>2026-05-03T12:36:13.097Z</time></trkpt><trkpt lat="41.8354686" lon="12.6465054"><ele>105.0</ele><time>2026-05-03T12:36:14.112Z</time></trkpt><trkpt lat="41.8355906" lon="12.6461631"><ele>105.0</ele><time>2026-05-03T12:36:15.104Z</time></trkpt><trkpt lat="41.8357154" lon="12.6458196"><ele>104.5</ele><time>2026-05-03T12:36:16.109Z</time></trkpt><trkpt lat="41.8358411" lon="12.6454793"><ele>104.0</ele><time>2026-05-03T12:36:17.138Z</time></trkpt><trkpt lat="41.8359675" lon="12.6451337"><ele>103.0</ele><time>2026-05-03T12:36:18.136Z</time></trkpt><trkpt lat="41.8360946" lon="12.6447868"><ele>102.0</ele><time>2026-05-03T12:36:19.081Z</time></trkpt><trkpt lat="41.8362218" lon="12.6444423"><ele>102.0</ele><time>2026-05-03T12:36:20.115Z</time></trkpt><trkpt lat="41.8363505" lon="12.6440993"><ele>102.0</ele><time>2026-05-03T12:36:21.108Z</time></trkpt><trkpt lat="41.8364747" lon="12.6437579"><ele>103.0</ele><time>2026-05-03T12:36:22.123Z</time></trkpt><trkpt lat="41.8365994" lon="12.6434208"><ele>104.0</ele><time>2026-05-03T12:36:23.113Z</time></trkpt><trkpt lat="41.8367241" lon="12.6430784"><ele>104.5</ele><time>2026-05-03T12:36:24.121Z</time></trkpt><trkpt lat="41.8368471" lon="12.6427381"><ele>105.0</ele><time>2026-05-03T12:36:25.1Z</time></trkpt><trkpt lat="41.8369689" lon="12.6423952"><ele>105.0</ele><time>2026-05-03T12:36:26.123Z</time></trkpt><trkpt lat="41.8370949" lon="12.6420441"><ele>105.0</ele><time>2026-05-03T12:36:27.124Z</time></trkpt><trkpt lat="41.8372204" lon="12.6416905"><ele>105.0</ele><time>2026-05-03T12:36:28.128Z</time></trkpt><trkpt lat="41.837347" lon="12.6413422"><ele>105.0</ele><time>2026-05-03T12:36:29.111Z</time></trkpt><trkpt lat="41.8374708" lon="12.6409951"><ele>105.0</ele><time>2026-05-03T12:36:30.111Z</time></trkpt><trkpt lat="41.8375959" lon="12.6406437"><ele>105.0</ele><time>2026-05-03T12:36:31.126Z</time></trkpt><trkpt lat="41.837727" lon="12.6402937"><ele>104.0</ele><time>2026-05-03T12:36:32.107Z</time></trkpt><trkpt lat="41.8378536" lon="12.6399355"><ele>103.0</ele><time>2026-05-03T12:36:33.109Z</time></trkpt><trkpt lat="41.8379803" lon="12.6395857"><ele>103.0</ele><time>2026-05-03T12:36:34.121Z</time></trkpt><trkpt lat="41.8381054" lon="12.6392328"><ele>103.0</ele><time>2026-05-03T12:36:35.114Z</time></trkpt><trkpt lat="41.8382304" lon="12.638872"><ele>102.5</ele><time>2026-05-03T12:36:36.124Z</time></trkpt><trkpt lat="41.8383641" lon="12.6385063"><ele>102.0</ele><time>2026-05-03T12:36:37.099Z</time></trkpt><trkpt lat="41.8385009" lon="12.6381223"><ele>100.0</ele><time>2026-05-03T12:36:38.165Z</time></trkpt><trkpt lat="41.8386384" lon="12.6377196"><ele>98.0</ele><time>2026-05-03T12:36:39.089Z</time></trkpt><trkpt lat="41.838774" lon="12.6373051"><ele>97.5</ele><time>2026-05-03T12:36:40.127Z</time></trkpt><trkpt lat="41.8389096" lon="12.6369184"><ele>97.0</ele><time>2026-05-03T12:36:41.144Z</time></trkpt><trkpt lat="41.8390364" lon="12.6365649"><ele>97.0</ele><time>2026-05-03T12:36:42.107Z</time></trkpt><trkpt lat="41.8391553" lon="12.6362306"><ele>97.0</ele><time>2026-05-03T12:36:43.121Z</time></trkpt><trkpt lat="41.8392745" lon="12.6359082"><ele>97.0</ele><time>2026-05-03T12:36:44.126Z</time></trkpt><trkpt lat="41.8393953" lon="12.6355935"><ele>97.0</ele><time>2026-05-03T12:36:45.112Z</time></trkpt><trkpt lat="41.8395107" lon="12.6352727"><ele>96.0</ele><time>2026-05-03T12:36:46.133Z</time></trkpt><trkpt lat="41.8396326" lon="12.6349518"><ele>95.0</ele><time>2026-05-03T12:36:47.079Z</time></trkpt><trkpt lat="41.8397528" lon="12.6346212"><ele>92.5</ele><time>2026-05-03T12:36:48.118Z</time></trkpt><trkpt lat="41.8398797" lon="12.6342872"><ele>90.0</ele><time>2026-05-03T12:36:49.118Z</time></trkpt><trkpt lat="41.8400049" lon="12.6339546"><ele>89.5</ele><time>2026-05-03T12:36:50.121Z</time></trkpt><trkpt lat="41.8401273" lon="12.6336202"><ele>89.0</ele><time>2026-05-03T12:36:51.133Z</time></trkpt><trkpt lat="41.8402502" lon="12.6332853"><ele>88.5</ele><time>2026-05-03T12:36:52.084Z</time></trkpt><trkpt lat="41.8403727" lon="12.6329533"><ele>88.0</ele><time>2026-05-03T12:36:53.068Z</time></trkpt><trkpt lat="41.8404919" lon="12.6326183"><ele>86.5</ele><time>2026-05-03T12:36:54.094Z</time></trkpt><trkpt lat="41.8406164" lon="12.6322819"><ele>85.0</ele><time>2026-05-03T12:36:55.074Z</time></trkpt><trkpt lat="41.8407403" lon="12.6319476"><ele>85.0</ele><time>2026-05-03T12:36:56.064Z</time></trkpt><trkpt lat="41.8408637" lon="12.6316218"><ele>85.0</ele><time>2026-05-03T12:36:57.073Z</time></trkpt><trkpt lat="41.8409851" lon="12.6312823"><ele>84.0</ele><time>2026-05-03T12:36:58.119Z</time></trkpt><trkpt lat="41.841106" lon="12.6309519"><ele>83.0</ele><time>2026-05-03T12:36:59.106Z</time></trkpt><trkpt lat="41.8412232" lon="12.6306267"><ele>83.0</ele><time>2026-05-03T12:37:00.099Z</time></trkpt><trkpt lat="41.8413377" lon="12.630308"><ele>83.0</ele><time>2026-05-03T12:37:01.098Z</time></trkpt><trkpt lat="41.8414495" lon="12.6299976"><ele>83.0</ele><time>2026-05-03T12:37:02.13Z</time></trkpt><trkpt lat="41.8415575" lon="12.6297008"><ele>83.0</ele><time>2026-05-03T12:37:03.103Z</time></trkpt><trkpt lat="41.8416625" lon="12.6294084"><ele>82.5</ele><time>2026-05-03T12:37:04.065Z</time></trkpt><trkpt lat="41.8417681" lon="12.6291215"><ele>82.0</ele><time>2026-05-03T12:37:05.076Z</time></trkpt><trkpt lat="41.8418773" lon="12.6288299"><ele>81.5</ele><time>2026-05-03T12:37:06.069Z</time></trkpt><trkpt lat="41.8419837" lon="12.6285313"><ele>81.0</ele><time>2026-05-03T12:37:07.065Z</time></trkpt><trkpt lat="41.8420916" lon="12.6282264"><ele>81.0</ele><time>2026-05-03T12:37:08.073Z</time></trkpt><trkpt lat="41.8421992" lon="12.6279089"><ele>81.0</ele><time>2026-05-03T12:37:09.073Z</time></trkpt><trkpt lat="41.8423066" lon="12.6275903"><ele>81.0</ele><time>2026-05-03T12:37:10.089Z</time></trkpt><trkpt lat="41.8424242" lon="12.6272635"><ele>81.0</ele><time>2026-05-03T12:37:11.081Z</time></trkpt><trkpt lat="41.8426619" lon="12.6266072"><ele>81.0</ele><time>2026-05-03T12:37:13.066Z</time></trkpt><trkpt lat="41.8427791" lon="12.6262756"><ele>81.0</ele><time>2026-05-03T12:37:14.072Z</time></trkpt><trkpt lat="41.8428958" lon="12.6259419"><ele>79.5</ele><time>2026-05-03T12:37:15.079Z</time></trkpt><trkpt lat="41.8430176" lon="12.6256038"><ele>78.0</ele><time>2026-05-03T12:37:16.093Z</time></trkpt><trkpt lat="41.8431416" lon="12.6252652"><ele>78.0</ele><time>2026-05-03T12:37:17.083Z</time></trkpt><trkpt lat="41.8432673" lon="12.6249314"><ele>78.0</ele><time>2026-05-03T12:37:18.097Z</time></trkpt><trkpt lat="41.8433912" lon="12.6245973"><ele>77.0</ele><time>2026-05-03T12:37:19.071Z</time></trkpt><trkpt lat="41.8435174" lon="12.6242586"><ele>76.0</ele><time>2026-05-03T12:37:20.079Z</time></trkpt><trkpt lat="41.8436423" lon="12.6239199"><ele>76.5</ele><time>2026-05-03T12:37:21.109Z</time></trkpt><trkpt lat="41.8437623" lon="12.6235819"><ele>77.0</ele><time>2026-05-03T12:37:22.069Z</time></trkpt><trkpt lat="41.8438821" lon="12.6232482"><ele>77.0</ele><time>2026-05-03T12:37:23.087Z</time></trkpt><trkpt lat="41.8440019" lon="12.6229196"><ele>77.0</ele><time>2026-05-03T12:37:24.065Z</time></trkpt><trkpt lat="41.8441151" lon="12.622603"><ele>77.5</ele><time>2026-05-03T12:37:25.131Z</time></trkpt><trkpt lat="41.8442271" lon="12.622295"><ele>78.0</ele><time>2026-05-03T12:37:26.118Z</time></trkpt><trkpt lat="41.8443412" lon="12.6219844"><ele>78.5</ele><time>2026-05-03T12:37:27.086Z</time></trkpt><trkpt lat="41.8444584" lon="12.6216739"><ele>79.0</ele><time>2026-05-03T12:37:28.121Z</time></trkpt><trkpt lat="41.8445724" lon="12.6213519"><ele>77.5</ele><time>2026-05-03T12:37:29.111Z</time></trkpt><trkpt lat="41.8446863" lon="12.6210458"><ele>76.0</ele><time>2026-05-03T12:37:30.111Z</time></trkpt><trkpt lat="41.8447986" lon="12.6207344"><ele>76.0</ele><time>2026-05-03T12:37:31.083Z</time></trkpt><trkpt lat="41.8449091" lon="12.6204236"><ele>76.0</ele><time>2026-05-03T12:37:32.125Z</time></trkpt><trkpt lat="41.8450262" lon="12.6201113"><ele>75.5</ele><time>2026-05-03T12:37:33.11Z</time></trkpt><trkpt lat="41.8451428" lon="12.6197976"><ele>75.0</ele><time>2026-05-03T12:37:34.099Z</time></trkpt><trkpt lat="41.8452534" lon="12.6194874"><ele>74.0</ele><time>2026-05-03T12:37:35.112Z</time></trkpt><trkpt lat="41.8453682" lon="12.6191735"><ele>73.0</ele><time>2026-05-03T12:37:36.118Z</time></trkpt><trkpt lat="41.8454795" lon="12.6188534"><ele>73.5</ele><time>2026-05-03T12:37:37.076Z</time></trkpt><trkpt lat="41.8455938" lon="12.6185406"><ele>74.0</ele><time>2026-05-03T12:37:38.118Z</time></trkpt><trkpt lat="41.8457036" lon="12.6182247"><ele>74.0</ele><time>2026-05-03T12:37:39.122Z</time></trkpt><trkpt lat="41.8458163" lon="12.6179053"><ele>74.0</ele><time>2026-05-03T12:37:40.106Z</time></trkpt><trkpt lat="41.8459315" lon="12.6175936"><ele>72.5</ele><time>2026-05-03T12:37:41.131Z</time></trkpt><trkpt lat="41.8460486" lon="12.6172779"><ele>71.0</ele><time>2026-05-03T12:37:42.123Z</time></trkpt><trkpt lat="41.8461658" lon="12.616956"><ele>71.0</ele><time>2026-05-03T12:37:43.115Z</time></trkpt><trkpt lat="41.8462792" lon="12.6166366"><ele>71.0</ele><time>2026-05-03T12:37:44.118Z</time></trkpt><trkpt lat="41.8463988" lon="12.6163219"><ele>73.0</ele><time>2026-05-03T12:37:45.101Z</time></trkpt><trkpt lat="41.8465123" lon="12.6160117"><ele>75.0</ele><time>2026-05-03T12:37:46.116Z</time></trkpt><trkpt lat="41.8466222" lon="12.6156947"><ele>75.0</ele><time>2026-05-03T12:37:47.083Z</time></trkpt><trkpt lat="41.8467341" lon="12.6153814"><ele>75.0</ele><time>2026-05-03T12:37:48.108Z</time></trkpt><trkpt lat="41.8468444" lon="12.6150739"><ele>73.5</ele><time>2026-05-03T12:37:49.116Z</time></trkpt><trkpt lat="41.8469608" lon="12.6147621"><ele>72.0</ele><time>2026-05-03T12:37:50.095Z</time></trkpt><trkpt lat="41.8470748" lon="12.6144556"><ele>72.0</ele><time>2026-05-03T12:37:51.096Z</time></trkpt><trkpt lat="41.8471859" lon="12.6141488"><ele>72.0</ele><time>2026-05-03T12:37:52.088Z</time></trkpt><trkpt lat="41.8472992" lon="12.6138468"><ele>71.5</ele><time>2026-05-03T12:37:53.098Z</time></trkpt><trkpt lat="41.8474085" lon="12.6135495"><ele>71.0</ele><time>2026-05-03T12:37:54.125Z</time></trkpt><trkpt lat="41.847516" lon="12.6132518"><ele>71.0</ele><time>2026-05-03T12:37:55.113Z</time></trkpt><trkpt lat="41.8476215" lon="12.6129571"><ele>71.0</ele><time>2026-05-03T12:37:56.12Z</time></trkpt><trkpt lat="41.8477267" lon="12.6126572"><ele>69.5</ele><time>2026-05-03T12:37:57.078Z</time></trkpt><trkpt lat="41.8478394" lon="12.6123577"><ele>68.0</ele><time>2026-05-03T12:37:58.111Z</time></trkpt><trkpt lat="41.8479459" lon="12.6120569"><ele>69.5</ele><time>2026-05-03T12:37:59.122Z</time></trkpt><trkpt lat="41.8480568" lon="12.6117581"><ele>71.0</ele><time>2026-05-03T12:38:00.107Z</time></trkpt><trkpt lat="41.8481612" lon="12.6114622"><ele>71.0</ele><time>2026-05-03T12:38:01.13Z</time></trkpt><trkpt lat="41.8482651" lon="12.6111645"><ele>71.0</ele><time>2026-05-03T12:38:02.124Z</time></trkpt><trkpt lat="41.848369" lon="12.610879"><ele>73.5</ele><time>2026-05-03T12:38:03.08Z</time></trkpt><trkpt lat="41.8484725" lon="12.6105904"><ele>76.0</ele><time>2026-05-03T12:38:04.115Z</time></trkpt><trkpt lat="41.8485764" lon="12.6103048"><ele>76.0</ele><time>2026-05-03T12:38:05.091Z</time></trkpt><trkpt lat="41.8486836" lon="12.6100163"><ele>76.0</ele><time>2026-05-03T12:38:06.116Z</time></trkpt><trkpt lat="41.8487885" lon="12.6097242"><ele>75.0</ele><time>2026-05-03T12:38:07.12Z</time></trkpt><trkpt lat="41.8488904" lon="12.6094336"><ele>74.0</ele><time>2026-05-03T12:38:08.126Z</time></trkpt><trkpt lat="41.8489936" lon="12.6091421"><ele>74.0</ele><time>2026-05-03T12:38:09.119Z</time></trkpt><trkpt lat="41.8491024" lon="12.6088517"><ele>74.0</ele><time>2026-05-03T12:38:10.088Z</time></trkpt><trkpt lat="41.8492105" lon="12.6085586"><ele>73.5</ele><time>2026-05-03T12:38:11.122Z</time></trkpt><trkpt lat="41.8493189" lon="12.6082592"><ele>73.0</ele><time>2026-05-03T12:38:12.123Z</time></trkpt><trkpt lat="41.8494254" lon="12.6079625"><ele>71.0</ele><time>2026-05-03T12:38:13.115Z</time></trkpt><trkpt lat="41.8495323" lon="12.6076619"><ele>69.0</ele><time>2026-05-03T12:38:14.12Z</time></trkpt><trkpt lat="41.8496415" lon="12.6073587"><ele>69.0</ele><time>2026-05-03T12:38:15.115Z</time></trkpt><trkpt lat="41.8497489" lon="12.6070558"><ele>69.0</ele><time>2026-05-03T12:38:16.127Z</time></trkpt><trkpt lat="41.8498574" lon="12.6067546"><ele>69.0</ele><time>2026-05-03T12:38:17.116Z</time></trkpt><trkpt lat="41.8499667" lon="12.6064428"><ele>69.0</ele><time>2026-05-03T12:38:18.119Z</time></trkpt><trkpt lat="41.8500751" lon="12.606131"><ele>70.5</ele><time>2026-05-03T12:38:19.123Z</time></trkpt><trkpt lat="41.8501843" lon="12.6058293"><ele>72.0</ele><time>2026-05-03T12:38:20.073Z</time></trkpt><trkpt lat="41.850297" lon="12.6055177"><ele>73.5</ele><time>2026-05-03T12:38:21.125Z</time></trkpt><trkpt lat="41.8504037" lon="12.6052173"><ele>75.0</ele><time>2026-05-03T12:38:22.117Z</time></trkpt><trkpt lat="41.8505154" lon="12.6049108"><ele>75.0</ele><time>2026-05-03T12:38:23.11Z</time></trkpt><trkpt lat="41.8506288" lon="12.6046028"><ele>75.0</ele><time>2026-05-03T12:38:24.128Z</time></trkpt><trkpt lat="41.8507379" lon="12.6043013"><ele>71.5</ele><time>2026-05-03T12:38:25.118Z</time></trkpt><trkpt lat="41.8508514" lon="12.6039991"><ele>68.0</ele><time>2026-05-03T12:38:26.092Z</time></trkpt><trkpt lat="41.8509619" lon="12.6036951"><ele>65.0</ele><time>2026-05-03T12:38:27.063Z</time></trkpt><trkpt lat="41.8510723" lon="12.603387"><ele>62.0</ele><time>2026-05-03T12:38:28.075Z</time></trkpt><trkpt lat="41.8511783" lon="12.6030812"><ele>62.5</ele><time>2026-05-03T12:38:29.069Z</time></trkpt><trkpt lat="41.8512822" lon="12.6027774"><ele>63.0</ele><time>2026-05-03T12:38:30.067Z</time></trkpt><trkpt lat="41.8513917" lon="12.6024727"><ele>63.0</ele><time>2026-05-03T12:38:31.093Z</time></trkpt><trkpt lat="41.8514987" lon="12.6021763"><ele>63.0</ele><time>2026-05-03T12:38:32.08Z</time></trkpt><trkpt lat="41.8516058" lon="12.6018807"><ele>63.33333333333333</ele><time>2026-05-03T12:38:33.133Z</time></trkpt><trkpt lat="41.8516981" lon="12.6016112"><ele>63.666666666666664</ele><time>2026-05-03T12:38:34.074Z</time></trkpt><trkpt lat="41.8517938" lon="12.6013347"><ele>64.0</ele><time>2026-05-03T12:38:35.071Z</time></trkpt><trkpt lat="41.8518919" lon="12.6010628"><ele>65.33333333333333</ele><time>2026-05-03T12:38:36.1Z</time></trkpt><trkpt lat="41.8519898" lon="12.6007954"><ele>66.66666666666667</ele><time>2026-05-03T12:38:37.091Z</time></trkpt><trkpt lat="41.852085" lon="12.600529"><ele>68.0</ele><time>2026-05-03T12:38:38.075Z</time></trkpt><trkpt lat="41.8521848" lon="12.6002687"><ele>69.0</ele><time>2026-05-03T12:38:39.078Z</time></trkpt><trkpt lat="41.8522836" lon="12.6000059"><ele>70.0</ele><time>2026-05-03T12:38:40.094Z</time></trkpt><trkpt lat="41.8523811" lon="12.5997467"><ele>71.0</ele><time>2026-05-03T12:38:41.097Z</time></trkpt><trkpt lat="41.8524805" lon="12.5994907"><ele>71.0</ele><time>2026-05-03T12:38:42.111Z</time></trkpt><trkpt lat="41.8525819" lon="12.5992441"><ele>71.0</ele><time>2026-05-03T12:38:43.088Z</time></trkpt><trkpt lat="41.8526889" lon="12.5989997"><ele>71.0</ele><time>2026-05-03T12:38:44.122Z</time></trkpt><trkpt lat="41.852791" lon="12.598782"><ele>70.0</ele><time>2026-05-03T12:38:45.079Z</time></trkpt><trkpt lat="41.8528952" lon="12.5985655"><ele>69.0</ele><time>2026-05-03T12:38:46.097Z</time></trkpt><trkpt lat="41.8529924" lon="12.5983576"><ele>68.0</ele><time>2026-05-03T12:38:47.093Z</time></trkpt><trkpt lat="41.8530861" lon="12.5981524"><ele>68.0</ele><time>2026-05-03T12:38:48.089Z</time></trkpt><trkpt lat="41.853169" lon="12.597956"><ele>68.0</ele><time>2026-05-03T12:38:49.099Z</time></trkpt><trkpt lat="41.8532414" lon="12.5977721"><ele>68.0</ele><time>2026-05-03T12:38:50.115Z</time></trkpt><trkpt lat="41.8533079" lon="12.5976009"><ele>68.25</ele><time>2026-05-03T12:38:51.083Z</time></trkpt><trkpt lat="41.8533703" lon="12.5974304"><ele>68.5</ele><time>2026-05-03T12:38:52.101Z</time></trkpt><trkpt lat="41.8534316" lon="12.5972638"><ele>68.75</ele><time>2026-05-03T12:38:53.066Z</time></trkpt><trkpt lat="41.8534937" lon="12.597096"><ele>69.0</ele><time>2026-05-03T12:38:54.108Z</time></trkpt><trkpt lat="41.8535508" lon="12.5969393"><ele>68.4</ele><time>2026-05-03T12:38:55.078Z</time></trkpt><trkpt lat="41.8536048" lon="12.5967959"><ele>67.80000000000001</ele><time>2026-05-03T12:38:56.066Z</time></trkpt><trkpt lat="41.8536597" lon="12.5966582"><ele>67.19999999999999</ele><time>2026-05-03T12:38:57.09Z</time></trkpt><trkpt lat="41.8537145" lon="12.5965345"><ele>66.6</ele><time>2026-05-03T12:38:58.068Z</time></trkpt><trkpt lat="41.8537701" lon="12.5964204"><ele>66.0</ele><time>2026-05-03T12:38:59.073Z</time></trkpt><trkpt lat="41.8538287" lon="12.5963185"><ele>66.0</ele><time>2026-05-03T12:39:00.073Z</time></trkpt><trkpt lat="41.8538975" lon="12.596238"><ele>66.0</ele><time>2026-05-03T12:39:01.072Z</time></trkpt><trkpt lat="41.8539804" lon="12.5961959"><ele>66.0</ele><time>2026-05-03T12:39:02.18Z</time></trkpt><trkpt lat="41.8540711" lon="12.5961732"><ele>66.0</ele><time>2026-05-03T12:39:03.147Z</time></trkpt><trkpt lat="41.8541715" lon="12.5961732"><ele>66.0</ele><time>2026-05-03T12:39:04.138Z</time></trkpt><trkpt lat="41.8542713" lon="12.596206"><ele>64.8</ele><time>2026-05-03T12:39:05.127Z</time></trkpt><trkpt lat="41.8543692" lon="12.5962826"><ele>63.599999999999994</ele><time>2026-05-03T12:39:06.134Z</time></trkpt><trkpt lat="41.85445" lon="12.596382"><ele>62.4</ele><time>2026-05-03T12:39:07.173Z</time></trkpt><trkpt lat="41.8545028" lon="12.5964997"><ele>61.2</ele><time>2026-05-03T12:39:08.189Z</time></trkpt><trkpt lat="41.8545434" lon="12.5966323"><ele>60.0</ele><time>2026-05-03T12:39:09.162Z</time></trkpt><trkpt lat="41.854558" lon="12.5967594"><ele>60.0</ele><time>2026-05-03T12:39:10.185Z</time></trkpt><trkpt lat="41.8545481" lon="12.5968864"><ele>60.0</ele><time>2026-05-03T12:39:11.134Z</time></trkpt><trkpt lat="41.8545143" lon="12.5970057"><ele>60.0</ele><time>2026-05-03T12:39:12.156Z</time></trkpt><trkpt lat="41.8544636" lon="12.5971074"><ele>60.0</ele><time>2026-05-03T12:39:13.142Z</time></trkpt><trkpt lat="41.8544002" lon="12.5971982"><ele>60.0</ele><time>2026-05-03T12:39:14.133Z</time></trkpt><trkpt lat="41.8543161" lon="12.5972624"><ele>61.5</ele><time>2026-05-03T12:39:15.13Z</time></trkpt><trkpt lat="41.8541124" lon="12.597322"><ele>63.0</ele><time>2026-05-03T12:39:17.152Z</time></trkpt><trkpt lat="41.8536376" lon="12.5972643"><ele>65.0</ele><time>2026-05-03T12:39:20.131Z</time></trkpt><trkpt lat="41.8534321" lon="12.597215"><ele>67.0</ele><time>2026-05-03T12:39:21.146Z</time></trkpt><trkpt lat="41.8532274" lon="12.5971598"><ele>69.0</ele><time>2026-05-03T12:39:22.132Z</time></trkpt><trkpt lat="41.8530189" lon="12.5971033"><ele>69.0</ele><time>2026-05-03T12:39:23.119Z</time></trkpt><trkpt lat="41.8528" lon="12.5970445"><ele>69.0</ele><time>2026-05-03T12:39:24.124Z</time></trkpt><trkpt lat="41.8525541" lon="12.5969586"><ele>67.5</ele><time>2026-05-03T12:39:25.155Z</time></trkpt><trkpt lat="41.8522989" lon="12.5968821"><ele>66.0</ele><time>2026-05-03T12:39:26.138Z</time></trkpt><trkpt lat="41.8520517" lon="12.5968023"><ele>66.0</ele><time>2026-05-03T12:39:27.165Z</time></trkpt><trkpt lat="41.8517875" lon="12.5967271"><ele>66.0</ele><time>2026-05-03T12:39:28.162Z</time></trkpt><trkpt lat="41.8515256" lon="12.5966464"><ele>66.0</ele><time>2026-05-03T12:39:29.168Z</time></trkpt><trkpt lat="41.851255" lon="12.5965745"><ele>66.0</ele><time>2026-05-03T12:39:30.172Z</time></trkpt><trkpt lat="41.8510054" lon="12.5965041"><ele>65.5</ele><time>2026-05-03T12:39:31.149Z</time></trkpt><trkpt lat="41.8507679" lon="12.5964384"><ele>65.0</ele><time>2026-05-03T12:39:32.181Z</time></trkpt><trkpt lat="41.8505394" lon="12.5963739"><ele>65.0</ele><time>2026-05-03T12:39:33.181Z</time></trkpt><trkpt lat="41.8503049" lon="12.5963042"><ele>65.0</ele><time>2026-05-03T12:39:34.174Z</time></trkpt><trkpt lat="41.8500724" lon="12.5962362"><ele>66.5</ele><time>2026-05-03T12:39:35.153Z</time></trkpt><trkpt lat="41.8498334" lon="12.5961692"><ele>68.0</ele><time>2026-05-03T12:39:36.169Z</time></trkpt><trkpt lat="41.8495919" lon="12.5960974"><ele>68.0</ele><time>2026-05-03T12:39:37.188Z</time></trkpt><trkpt lat="41.8493444" lon="12.5960242"><ele>68.0</ele><time>2026-05-03T12:39:38.183Z</time></trkpt><trkpt lat="41.8491073" lon="12.5959566"><ele>69.5</ele><time>2026-05-03T12:39:39.165Z</time></trkpt><trkpt lat="41.8488776" lon="12.5958982"><ele>71.0</ele><time>2026-05-03T12:39:40.174Z</time></trkpt><trkpt lat="41.8486526" lon="12.5958431"><ele>70.0</ele><time>2026-05-03T12:39:41.14Z</time></trkpt><trkpt lat="41.8484185" lon="12.5957796"><ele>69.0</ele><time>2026-05-03T12:39:42.164Z</time></trkpt><trkpt lat="41.8481783" lon="12.5957126"><ele>69.0</ele><time>2026-05-03T12:39:43.158Z</time></trkpt><trkpt lat="41.8479342" lon="12.5956426"><ele>69.0</ele><time>2026-05-03T12:39:44.168Z</time></trkpt><trkpt lat="41.8477033" lon="12.5955803"><ele>70.5</ele><time>2026-05-03T12:39:45.15Z</time></trkpt><trkpt lat="41.8474936" lon="12.595496"><ele>72.0</ele><time>2026-05-03T12:39:46.155Z</time></trkpt><trkpt lat="41.8472718" lon="12.5954078"><ele>72.5</ele><time>2026-05-03T12:39:47.158Z</time></trkpt><trkpt lat="41.8470265" lon="12.5953083"><ele>73.0</ele><time>2026-05-03T12:39:48.173Z</time></trkpt><trkpt lat="41.8467746" lon="12.595194"><ele>73.0</ele><time>2026-05-03T12:39:49.174Z</time></trkpt><trkpt lat="41.8465201" lon="12.5950669"><ele>73.0</ele><time>2026-05-03T12:39:50.163Z</time></trkpt><trkpt lat="41.8462679" lon="12.5949345"><ele>73.0</ele><time>2026-05-03T12:39:51.138Z</time></trkpt><trkpt lat="41.8460349" lon="12.5948132"><ele>73.0</ele><time>2026-05-03T12:39:52.13Z</time></trkpt><trkpt lat="41.8458119" lon="12.5946975"><ele>72.0</ele><time>2026-05-03T12:39:53.158Z</time></trkpt><trkpt lat="41.8455803" lon="12.5945684"><ele>71.0</ele><time>2026-05-03T12:39:54.142Z</time></trkpt><trkpt lat="41.8453376" lon="12.5944386"><ele>70.0</ele><time>2026-05-03T12:39:55.159Z</time></trkpt><trkpt lat="41.8450936" lon="12.5942956"><ele>69.0</ele><time>2026-05-03T12:39:56.171Z</time></trkpt><trkpt lat="41.8448346" lon="12.5941601"><ele>69.0</ele><time>2026-05-03T12:39:57.165Z</time></trkpt><trkpt lat="41.8445722" lon="12.594017"><ele>69.0</ele><time>2026-05-03T12:39:58.17Z</time></trkpt><trkpt lat="41.8443038" lon="12.5938806"><ele>69.5</ele><time>2026-05-03T12:39:59.143Z</time></trkpt><trkpt lat="41.8440345" lon="12.593733"><ele>70.0</ele><time>2026-05-03T12:40:00.157Z</time></trkpt><trkpt lat="41.843771" lon="12.593594"><ele>69.0</ele><time>2026-05-03T12:40:01.165Z</time></trkpt><trkpt lat="41.8435089" lon="12.5934472"><ele>68.0</ele><time>2026-05-03T12:40:02.166Z</time></trkpt><trkpt lat="41.8432492" lon="12.5933021"><ele>70.5</ele><time>2026-05-03T12:40:03.167Z</time></trkpt><trkpt lat="41.8429871" lon="12.5931564"><ele>73.0</ele><time>2026-05-03T12:40:04.162Z</time></trkpt><trkpt lat="41.8427229" lon="12.5930163"><ele>73.5</ele><time>2026-05-03T12:40:05.191Z</time></trkpt><trkpt lat="41.8424631" lon="12.5928716"><ele>74.0</ele><time>2026-05-03T12:40:06.209Z</time></trkpt><trkpt lat="41.8422109" lon="12.5927332"><ele>74.0</ele><time>2026-05-03T12:40:07.203Z</time></trkpt><trkpt lat="41.841958" lon="12.5925914"><ele>74.0</ele><time>2026-05-03T12:40:08.158Z</time></trkpt><trkpt lat="41.841702" lon="12.5924569"><ele>74.0</ele><time>2026-05-03T12:40:09.196Z</time></trkpt><trkpt lat="41.8414437" lon="12.5923237"><ele>74.0</ele><time>2026-05-03T12:40:10.208Z</time></trkpt><trkpt lat="41.8411888" lon="12.5921946"><ele>74.5</ele><time>2026-05-03T12:40:11.163Z</time></trkpt><trkpt lat="41.8409334" lon="12.592062"><ele>75.0</ele><time>2026-05-03T12:40:12.196Z</time></trkpt><trkpt lat="41.8406781" lon="12.591932"><ele>75.0</ele><time>2026-05-03T12:40:13.148Z</time></trkpt><trkpt lat="41.8404217" lon="12.5917963"><ele>75.0</ele><time>2026-05-03T12:40:14.191Z</time></trkpt><trkpt lat="41.8401633" lon="12.5916586"><ele>75.0</ele><time>2026-05-03T12:40:15.209Z</time></trkpt><trkpt lat="41.8399075" lon="12.5915143"><ele>75.0</ele><time>2026-05-03T12:40:16.167Z</time></trkpt><trkpt lat="41.8396515" lon="12.5913713"><ele>75.0</ele><time>2026-05-03T12:40:17.162Z</time></trkpt><trkpt lat="41.8393973" lon="12.5912198"><ele>75.0</ele><time>2026-05-03T12:40:18.177Z</time></trkpt><trkpt lat="41.8391413" lon="12.5910745"><ele>74.0</ele><time>2026-05-03T12:40:19.199Z</time></trkpt><trkpt lat="41.8388873" lon="12.5909219"><ele>73.0</ele><time>2026-05-03T12:40:20.132Z</time></trkpt><trkpt lat="41.8386312" lon="12.5907789"><ele>73.0</ele><time>2026-05-03T12:40:21.181Z</time></trkpt><trkpt lat="41.8383773" lon="12.5906231"><ele>73.0</ele><time>2026-05-03T12:40:22.199Z</time></trkpt><trkpt lat="41.8381204" lon="12.5904785"><ele>72.5</ele><time>2026-05-03T12:40:23.152Z</time></trkpt><trkpt lat="41.837865" lon="12.5903194"><ele>72.0</ele><time>2026-05-03T12:40:24.172Z</time></trkpt><trkpt lat="41.8376137" lon="12.590175"><ele>74.5</ele><time>2026-05-03T12:40:25.205Z</time></trkpt><trkpt lat="41.8373652" lon="12.5900159"><ele>77.0</ele><time>2026-05-03T12:40:26.195Z</time></trkpt><trkpt lat="41.8371152" lon="12.5898685"><ele>77.0</ele><time>2026-05-03T12:40:27.198Z</time></trkpt><trkpt lat="41.836866" lon="12.589708"><ele>77.0</ele><time>2026-05-03T12:40:28.181Z</time></trkpt><trkpt lat="41.8366159" lon="12.5895622"><ele>74.5</ele><time>2026-05-03T12:40:29.175Z</time></trkpt><trkpt lat="41.8363693" lon="12.5894062"><ele>72.0</ele><time>2026-05-03T12:40:30.149Z</time></trkpt><trkpt lat="41.8361206" lon="12.5892611"><ele>73.0</ele><time>2026-05-03T12:40:31.163Z</time></trkpt><trkpt lat="41.8358711" lon="12.589098"><ele>74.0</ele><time>2026-05-03T12:40:32.197Z</time></trkpt><trkpt lat="41.8356247" lon="12.5889328"><ele>74.0</ele><time>2026-05-03T12:40:33.16Z</time></trkpt><trkpt lat="41.8353849" lon="12.5887464"><ele>74.0</ele><time>2026-05-03T12:40:34.204Z</time></trkpt><trkpt lat="41.8351493" lon="12.5885474"><ele>73.5</ele><time>2026-05-03T12:40:35.188Z</time></trkpt><trkpt lat="41.8349211" lon="12.588333"><ele>73.0</ele><time>2026-05-03T12:40:36.207Z</time></trkpt><trkpt lat="41.8347" lon="12.5881056"><ele>73.0</ele><time>2026-05-03T12:40:37.139Z</time></trkpt><trkpt lat="41.8344843" lon="12.5878648"><ele>73.0</ele><time>2026-05-03T12:40:38.198Z</time></trkpt><trkpt lat="41.8342794" lon="12.5876156"><ele>72.0</ele><time>2026-05-03T12:40:39.202Z</time></trkpt><trkpt lat="41.8340722" lon="12.5873548"><ele>71.0</ele><time>2026-05-03T12:40:40.205Z</time></trkpt><trkpt lat="41.833874" lon="12.5870909"><ele>71.0</ele><time>2026-05-03T12:40:41.148Z</time></trkpt><trkpt lat="41.8336772" lon="12.5868195"><ele>71.0</ele><time>2026-05-03T12:40:42.198Z</time></trkpt><trkpt lat="41.8334998" lon="12.5865489"><ele>71.5</ele><time>2026-05-03T12:40:43.151Z</time></trkpt><trkpt lat="41.8333204" lon="12.5862541"><ele>72.0</ele><time>2026-05-03T12:40:44.205Z</time></trkpt><trkpt lat="41.8331496" lon="12.585974"><ele>72.0</ele><time>2026-05-03T12:40:45.145Z</time></trkpt><trkpt lat="41.8329669" lon="12.5856864"><ele>72.0</ele><time>2026-05-03T12:40:46.171Z</time></trkpt><trkpt lat="41.8327846" lon="12.5854035"><ele>74.5</ele><time>2026-05-03T12:40:47.201Z</time></trkpt><trkpt lat="41.8325963" lon="12.5851336"><ele>77.0</ele><time>2026-05-03T12:40:48.204Z</time></trkpt><trkpt lat="41.8324019" lon="12.5848806"><ele>77.0</ele><time>2026-05-03T12:40:49.153Z</time></trkpt><trkpt lat="41.8321929" lon="12.5846327"><ele>77.0</ele><time>2026-05-03T12:40:50.153Z</time></trkpt><trkpt lat="41.8319738" lon="12.5844003"><ele>77.0</ele><time>2026-05-03T12:40:51.153Z</time></trkpt><trkpt lat="41.8317504" lon="12.5841761"><ele>77.0</ele><time>2026-05-03T12:40:52.19Z</time></trkpt><trkpt lat="41.8315256" lon="12.5839686"><ele>77.0</ele><time>2026-05-03T12:40:53.15Z</time></trkpt><trkpt lat="41.8312847" lon="12.5837654"><ele>77.0</ele><time>2026-05-03T12:40:54.187Z</time></trkpt><trkpt lat="41.8310466" lon="12.5835778"><ele>78.0</ele><time>2026-05-03T12:40:55.195Z</time></trkpt><trkpt lat="41.830803" lon="12.5833974"><ele>79.0</ele><time>2026-05-03T12:40:56.187Z</time></trkpt><trkpt lat="41.8305549" lon="12.5832278"><ele>79.0</ele><time>2026-05-03T12:40:57.182Z</time></trkpt><trkpt lat="41.8303052" lon="12.5830699"><ele>79.0</ele><time>2026-05-03T12:40:58.186Z</time></trkpt><trkpt lat="41.830055" lon="12.5829173"><ele>78.5</ele><time>2026-05-03T12:40:59.192Z</time></trkpt><trkpt lat="41.829801" lon="12.5827718"><ele>78.0</ele><time>2026-05-03T12:41:00.177Z</time></trkpt><trkpt lat="41.8295469" lon="12.5826281"><ele>78.0</ele><time>2026-05-03T12:41:01.163Z</time></trkpt><trkpt lat="41.8292941" lon="12.5824821"><ele>78.0</ele><time>2026-05-03T12:41:02.179Z</time></trkpt><trkpt lat="41.8290445" lon="12.5823344"><ele>78.0</ele><time>2026-05-03T12:41:03.157Z</time></trkpt><trkpt lat="41.8287873" lon="12.5821831"><ele>78.0</ele><time>2026-05-03T12:41:04.184Z</time></trkpt><trkpt lat="41.8285347" lon="12.5820336"><ele>76.5</ele><time>2026-05-03T12:41:05.184Z</time></trkpt><trkpt lat="41.8282858" lon="12.581878"><ele>75.0</ele><time>2026-05-03T12:41:06.191Z</time></trkpt><trkpt lat="41.8280388" lon="12.5817211"><ele>75.0</ele><time>2026-05-03T12:41:07.189Z</time></trkpt><trkpt lat="41.8277896" lon="12.581571"><ele>75.0</ele><time>2026-05-03T12:41:08.187Z</time></trkpt><trkpt lat="41.8275411" lon="12.5814333"><ele>77.0</ele><time>2026-05-03T12:41:09.186Z</time></trkpt><trkpt lat="41.8272869" lon="12.581311"><ele>79.0</ele><time>2026-05-03T12:41:10.195Z</time></trkpt><trkpt lat="41.8270299" lon="12.5812105"><ele>80.5</ele><time>2026-05-03T12:41:11.201Z</time></trkpt><trkpt lat="41.826773" lon="12.5811284"><ele>82.0</ele><time>2026-05-03T12:41:12.159Z</time></trkpt><trkpt lat="41.8265065" lon="12.5810604"><ele>82.0</ele><time>2026-05-03T12:41:13.154Z</time></trkpt><trkpt lat="41.8262339" lon="12.5810067"><ele>82.0</ele><time>2026-05-03T12:41:14.196Z</time></trkpt><trkpt lat="41.8259725" lon="12.5809684"><ele>80.5</ele><time>2026-05-03T12:41:15.153Z</time></trkpt><trkpt lat="41.8257008" lon="12.5809347"><ele>79.0</ele><time>2026-05-03T12:41:16.2Z</time></trkpt><trkpt lat="41.8254321" lon="12.5809085"><ele>79.0</ele><time>2026-05-03T12:41:17.193Z</time></trkpt><trkpt lat="41.8251649" lon="12.5808895"><ele>79.0</ele><time>2026-05-03T12:41:18.152Z</time></trkpt><trkpt lat="41.8248923" lon="12.5808759"><ele>80.5</ele><time>2026-05-03T12:41:19.162Z</time></trkpt><trkpt lat="41.824619" lon="12.5808581"><ele>82.0</ele><time>2026-05-03T12:41:20.175Z</time></trkpt><trkpt lat="41.8243468" lon="12.5808241"><ele>82.0</ele><time>2026-05-03T12:41:21.2Z</time></trkpt><trkpt lat="41.8240855" lon="12.5807657"><ele>82.0</ele><time>2026-05-03T12:41:22.157Z</time></trkpt><trkpt lat="41.8238173" lon="12.5806903"><ele>82.0</ele><time>2026-05-03T12:41:23.166Z</time></trkpt><trkpt lat="41.8235462" lon="12.5806145"><ele>82.0</ele><time>2026-05-03T12:41:24.197Z</time></trkpt><trkpt lat="41.8232801" lon="12.5805414"><ele>82.5</ele><time>2026-05-03T12:41:25.186Z</time></trkpt><trkpt lat="41.8230205" lon="12.5804424"><ele>83.0</ele><time>2026-05-03T12:41:26.199Z</time></trkpt><trkpt lat="41.8227621" lon="12.5803427"><ele>82.0</ele><time>2026-05-03T12:41:27.164Z</time></trkpt><trkpt lat="41.8224984" lon="12.5802222"><ele>81.0</ele><time>2026-05-03T12:41:28.192Z</time></trkpt><trkpt lat="41.8222414" lon="12.5800947"><ele>81.0</ele><time>2026-05-03T12:41:29.188Z</time></trkpt><trkpt lat="41.8219857" lon="12.5799591"><ele>81.0</ele><time>2026-05-03T12:41:30.177Z</time></trkpt><trkpt lat="41.8217313" lon="12.5798086"><ele>81.5</ele><time>2026-05-03T12:41:31.198Z</time></trkpt><trkpt lat="41.8214888" lon="12.579651"><ele>82.0</ele><time>2026-05-03T12:41:32.18Z</time></trkpt><trkpt lat="41.8212429" lon="12.5794886"><ele>82.0</ele><time>2026-05-03T12:41:33.171Z</time></trkpt><trkpt lat="41.8209928" lon="12.5793207"><ele>82.0</ele><time>2026-05-03T12:41:34.204Z</time></trkpt><trkpt lat="41.8207511" lon="12.5791566"><ele>82.0</ele><time>2026-05-03T12:41:35.192Z</time></trkpt><trkpt lat="41.8205106" lon="12.5789891"><ele>82.0</ele><time>2026-05-03T12:41:36.186Z</time></trkpt><trkpt lat="41.8202746" lon="12.5788225"><ele>84.0</ele><time>2026-05-03T12:41:37.134Z</time></trkpt><trkpt lat="41.8200318" lon="12.5786536"><ele>86.0</ele><time>2026-05-03T12:41:38.155Z</time></trkpt><trkpt lat="41.8197971" lon="12.5784947"><ele>86.0</ele><time>2026-05-03T12:41:39.15Z</time></trkpt><trkpt lat="41.8195655" lon="12.5783407"><ele>86.0</ele><time>2026-05-03T12:41:40.19Z</time></trkpt><trkpt lat="41.8193392" lon="12.5781937"><ele>85.5</ele><time>2026-05-03T12:41:41.188Z</time></trkpt><trkpt lat="41.8191084" lon="12.5780345"><ele>85.0</ele><time>2026-05-03T12:41:42.179Z</time></trkpt><trkpt lat="41.8188746" lon="12.5778769"><ele>86.0</ele><time>2026-05-03T12:41:43.176Z</time></trkpt><trkpt lat="41.8186359" lon="12.5777199"><ele>87.0</ele><time>2026-05-03T12:41:44.195Z</time></trkpt><trkpt lat="41.8184024" lon="12.5775662"><ele>88.0</ele><time>2026-05-03T12:41:45.153Z</time></trkpt><trkpt lat="41.8181664" lon="12.5774143"><ele>89.0</ele><time>2026-05-03T12:41:46.202Z</time></trkpt><trkpt lat="41.8179413" lon="12.5772725"><ele>89.0</ele><time>2026-05-03T12:41:47.152Z</time></trkpt><trkpt lat="41.8177068" lon="12.5771149"><ele>89.0</ele><time>2026-05-03T12:41:48.181Z</time></trkpt><trkpt lat="41.8174758" lon="12.5769494"><ele>89.0</ele><time>2026-05-03T12:41:49.19Z</time></trkpt><trkpt lat="41.8172401" lon="12.5767878"><ele>89.0</ele><time>2026-05-03T12:41:50.192Z</time></trkpt><trkpt lat="41.8169969" lon="12.5766332"><ele>89.0</ele><time>2026-05-03T12:41:51.213Z</time></trkpt><trkpt lat="41.8167608" lon="12.57649"><ele>89.0</ele><time>2026-05-03T12:41:52.173Z</time></trkpt><trkpt lat="41.8165192" lon="12.5763488"><ele>89.0</ele><time>2026-05-03T12:41:53.187Z</time></trkpt><trkpt lat="41.8162753" lon="12.576201"><ele>89.0</ele><time>2026-05-03T12:41:54.197Z</time></trkpt><trkpt lat="41.8160335" lon="12.5760501"><ele>88.0</ele><time>2026-05-03T12:41:55.194Z</time></trkpt><trkpt lat="41.8157935" lon="12.5758869"><ele>87.0</ele><time>2026-05-03T12:41:56.183Z</time></trkpt><trkpt lat="41.815552" lon="12.5757151"><ele>87.0</ele><time>2026-05-03T12:41:57.18Z</time></trkpt><trkpt lat="41.8153115" lon="12.5755381"><ele>87.0</ele><time>2026-05-03T12:41:58.198Z</time></trkpt><trkpt lat="41.8150754" lon="12.5753634"><ele>87.0</ele><time>2026-05-03T12:41:59.143Z</time></trkpt><trkpt lat="41.814837" lon="12.5751775"><ele>87.0</ele><time>2026-05-03T12:42:00.175Z</time></trkpt><trkpt lat="41.814603" lon="12.5749904"><ele>87.0</ele><time>2026-05-03T12:42:01.169Z</time></trkpt><trkpt lat="41.8143691" lon="12.5747917"><ele>87.0</ele><time>2026-05-03T12:42:02.202Z</time></trkpt><trkpt lat="41.8141447" lon="12.5745913"><ele>87.0</ele><time>2026-05-03T12:42:03.165Z</time></trkpt><trkpt lat="41.8139171" lon="12.5743691"><ele>87.0</ele><time>2026-05-03T12:42:04.198Z</time></trkpt><trkpt lat="41.8137013" lon="12.5741349"><ele>87.0</ele><time>2026-05-03T12:42:05.203Z</time></trkpt><trkpt lat="41.8134915" lon="12.5738927"><ele>87.0</ele><time>2026-05-03T12:42:06.205Z</time></trkpt><trkpt lat="41.8132782" lon="12.5736492"><ele>86.5</ele><time>2026-05-03T12:42:07.2Z</time></trkpt><trkpt lat="41.8130783" lon="12.5733956"><ele>86.0</ele><time>2026-05-03T12:42:08.148Z</time></trkpt><trkpt lat="41.8128841" lon="12.5731248"><ele>85.5</ele><time>2026-05-03T12:42:09.159Z</time></trkpt><trkpt lat="41.812698" lon="12.5728445"><ele>85.0</ele><time>2026-05-03T12:42:10.198Z</time></trkpt><trkpt lat="41.8125258" lon="12.5725564"><ele>84.5</ele><time>2026-05-03T12:42:11.204Z</time></trkpt><trkpt lat="41.8123615" lon="12.5722622"><ele>84.0</ele><time>2026-05-03T12:42:12.169Z</time></trkpt><trkpt lat="41.812187" lon="12.5719657"><ele>84.0</ele><time>2026-05-03T12:42:13.175Z</time></trkpt><trkpt lat="41.8120242" lon="12.571663"><ele>84.0</ele><time>2026-05-03T12:42:14.169Z</time></trkpt><trkpt lat="41.8118654" lon="12.571352"><ele>84.5</ele><time>2026-05-03T12:42:15.188Z</time></trkpt><trkpt lat="41.8117157" lon="12.57104"><ele>85.0</ele><time>2026-05-03T12:42:16.191Z</time></trkpt><trkpt lat="41.8115697" lon="12.5707287"><ele>85.0</ele><time>2026-05-03T12:42:17.183Z</time></trkpt><trkpt lat="41.8114307" lon="12.5704136"><ele>85.0</ele><time>2026-05-03T12:42:18.187Z</time></trkpt><trkpt lat="41.8112885" lon="12.5701057"><ele>86.5</ele><time>2026-05-03T12:42:19.134Z</time></trkpt><trkpt lat="41.8111453" lon="12.5697954"><ele>88.0</ele><time>2026-05-03T12:42:20.171Z</time></trkpt><trkpt lat="41.8109987" lon="12.5694921"><ele>87.5</ele><time>2026-05-03T12:42:21.194Z</time></trkpt><trkpt lat="41.8108479" lon="12.5691813"><ele>87.0</ele><time>2026-05-03T12:42:22.156Z</time></trkpt><trkpt lat="41.8106983" lon="12.5688677"><ele>88.0</ele><time>2026-05-03T12:42:23.14Z</time></trkpt><trkpt lat="41.8105464" lon="12.5685479"><ele>89.0</ele><time>2026-05-03T12:42:24.138Z</time></trkpt><trkpt lat="41.8045361" lon="12.5576143"><ele>87.0</ele><time>2026-05-03T12:43:01.067Z</time></trkpt><trkpt lat="41.8043956" lon="12.5573088"><ele>85.0</ele><time>2026-05-03T12:43:02.075Z</time></trkpt><trkpt lat="41.804242" lon="12.5570218"><ele>82.0</ele><time>2026-05-03T12:43:03.103Z</time></trkpt><trkpt lat="41.8040878" lon="12.5567388"><ele>79.0</ele><time>2026-05-03T12:43:04.113Z</time></trkpt><trkpt lat="41.8039194" lon="12.5564414"><ele>78.5</ele><time>2026-05-03T12:43:05.183Z</time></trkpt><trkpt lat="41.8037492" lon="12.5561375"><ele>78.0</ele><time>2026-05-03T12:43:06.167Z</time></trkpt><trkpt lat="41.803581" lon="12.5558436"><ele>78.0</ele><time>2026-05-03T12:43:07.183Z</time></trkpt><trkpt lat="41.8034206" lon="12.5555485"><ele>78.0</ele><time>2026-05-03T12:43:08.197Z</time></trkpt><trkpt lat="41.8032632" lon="12.5552564"><ele>78.0</ele><time>2026-05-03T12:43:09.171Z</time></trkpt><trkpt lat="41.8030997" lon="12.5549585"><ele>78.0</ele><time>2026-05-03T12:43:10.187Z</time></trkpt><trkpt lat="41.8029431" lon="12.5546626"><ele>78.0</ele><time>2026-05-03T12:43:11.199Z</time></trkpt><trkpt lat="41.8027861" lon="12.5543692"><ele>78.0</ele><time>2026-05-03T12:43:12.146Z</time></trkpt><trkpt lat="41.8026227" lon="12.5540602"><ele>78.5</ele><time>2026-05-03T12:43:13.213Z</time></trkpt><trkpt lat="41.8024708" lon="12.5537615"><ele>79.0</ele><time>2026-05-03T12:43:14.185Z</time></trkpt><trkpt lat="41.8023183" lon="12.5534562"><ele>78.0</ele><time>2026-05-03T12:43:15.168Z</time></trkpt><trkpt lat="41.8021635" lon="12.5531488"><ele>77.0</ele><time>2026-05-03T12:43:16.176Z</time></trkpt><trkpt lat="41.8020054" lon="12.5528423"><ele>76.0</ele><time>2026-05-03T12:43:17.204Z</time></trkpt><trkpt lat="41.8018602" lon="12.5525359"><ele>75.0</ele><time>2026-05-03T12:43:18.16Z</time></trkpt><trkpt lat="41.801711" lon="12.5522183"><ele>73.0</ele><time>2026-05-03T12:43:19.194Z</time></trkpt><trkpt lat="41.801566" lon="12.5519054"><ele>71.0</ele><time>2026-05-03T12:43:20.179Z</time></trkpt><trkpt lat="41.8014246" lon="12.5515895"><ele>71.0</ele><time>2026-05-03T12:43:21.192Z</time></trkpt><trkpt lat="41.8012904" lon="12.5512744"><ele>71.0</ele><time>2026-05-03T12:43:22.188Z</time></trkpt><trkpt lat="41.8011649" lon="12.5509521"><ele>70.5</ele><time>2026-05-03T12:43:23.176Z</time></trkpt><trkpt lat="41.8010439" lon="12.5506282"><ele>70.0</ele><time>2026-05-03T12:43:24.141Z</time></trkpt><trkpt lat="41.8009275" lon="12.5502919"><ele>72.5</ele><time>2026-05-03T12:43:25.167Z</time></trkpt><trkpt lat="41.8008202" lon="12.5499527"><ele>75.0</ele><time>2026-05-03T12:43:26.203Z</time></trkpt><trkpt lat="41.8007199" lon="12.549616"><ele>75.5</ele><time>2026-05-03T12:43:27.187Z</time></trkpt><trkpt lat="41.8006252" lon="12.5492683"><ele>76.0</ele><time>2026-05-03T12:43:28.191Z</time></trkpt><trkpt lat="41.8005316" lon="12.5489203"><ele>76.0</ele><time>2026-05-03T12:43:29.189Z</time></trkpt><trkpt lat="41.8004399" lon="12.5485748"><ele>76.0</ele><time>2026-05-03T12:43:30.158Z</time></trkpt><trkpt lat="41.8003477" lon="12.5482194"><ele>75.5</ele><time>2026-05-03T12:43:31.192Z</time></trkpt><trkpt lat="41.8002619" lon="12.5478718"><ele>75.0</ele><time>2026-05-03T12:43:32.193Z</time></trkpt><trkpt lat="41.8001785" lon="12.5475203"><ele>77.5</ele><time>2026-05-03T12:43:33.152Z</time></trkpt><trkpt lat="41.8000973" lon="12.5471621"><ele>80.0</ele><time>2026-05-03T12:43:34.152Z</time></trkpt><trkpt lat="41.8000186" lon="12.5468069"><ele>81.0</ele><time>2026-05-03T12:43:35.156Z</time></trkpt><trkpt lat="41.7999373" lon="12.5464536"><ele>82.0</ele><time>2026-05-03T12:43:36.181Z</time></trkpt><trkpt lat="41.7998544" lon="12.5461064"><ele>82.0</ele><time>2026-05-03T12:43:37.19Z</time></trkpt><trkpt lat="41.7997684" lon="12.5457612"><ele>82.0</ele><time>2026-05-03T12:43:38.198Z</time></trkpt><trkpt lat="41.7996869" lon="12.545414"><ele>83.5</ele><time>2026-05-03T12:43:39.196Z</time></trkpt><trkpt lat="41.7996121" lon="12.5450675"><ele>85.0</ele><time>2026-05-03T12:43:40.167Z</time></trkpt><trkpt lat="41.799533" lon="12.5447102"><ele>86.5</ele><time>2026-05-03T12:43:41.196Z</time></trkpt><trkpt lat="41.7994556" lon="12.5443618"><ele>88.0</ele><time>2026-05-03T12:43:42.175Z</time></trkpt><trkpt lat="41.7993756" lon="12.544007"><ele>88.0</ele><time>2026-05-03T12:43:43.184Z</time></trkpt><trkpt lat="41.7992963" lon="12.5436556"><ele>88.0</ele><time>2026-05-03T12:43:44.181Z</time></trkpt><trkpt lat="41.7992182" lon="12.5433031"><ele>88.0</ele><time>2026-05-03T12:43:45.171Z</time></trkpt><trkpt lat="41.7991385" lon="12.5429474"><ele>88.0</ele><time>2026-05-03T12:43:46.183Z</time></trkpt><trkpt lat="41.7990605" lon="12.5425939"><ele>86.5</ele><time>2026-05-03T12:43:47.176Z</time></trkpt><trkpt lat="41.7989805" lon="12.5422389"><ele>85.0</ele><time>2026-05-03T12:43:48.196Z</time></trkpt><trkpt lat="41.7988999" lon="12.5418915"><ele>85.0</ele><time>2026-05-03T12:43:49.184Z</time></trkpt><trkpt lat="41.7988179" lon="12.54154"><ele>85.0</ele><time>2026-05-03T12:43:50.188Z</time></trkpt><trkpt lat="41.7987342" lon="12.5411819"><ele>85.0</ele><time>2026-05-03T12:43:51.198Z</time></trkpt><trkpt lat="41.7986534" lon="12.5408225"><ele>85.0</ele><time>2026-05-03T12:43:52.189Z</time></trkpt><trkpt lat="41.7985718" lon="12.5404667"><ele>81.5</ele><time>2026-05-03T12:43:53.185Z</time></trkpt><trkpt lat="41.7984892" lon="12.5401164"><ele>78.0</ele><time>2026-05-03T12:43:54.139Z</time></trkpt><trkpt lat="41.7984061" lon="12.5397524"><ele>77.5</ele><time>2026-05-03T12:43:55.147Z</time></trkpt><trkpt lat="41.7983232" lon="12.5393934"><ele>77.0</ele><time>2026-05-03T12:43:56.139Z</time></trkpt><trkpt lat="41.7982406" lon="12.5390293"><ele>75.5</ele><time>2026-05-03T12:43:57.179Z</time></trkpt><trkpt lat="41.7981624" lon="12.5386732"><ele>74.0</ele><time>2026-05-03T12:43:58.185Z</time></trkpt><trkpt lat="41.7980888" lon="12.5383165"><ele>74.0</ele><time>2026-05-03T12:43:59.161Z</time></trkpt><trkpt lat="41.7980149" lon="12.5379494"><ele>74.0</ele><time>2026-05-03T12:44:00.185Z</time></trkpt><trkpt lat="41.7979373" lon="12.5375943"><ele>73.0</ele><time>2026-05-03T12:44:01.136Z</time></trkpt><trkpt lat="41.797858" lon="12.5372218"><ele>72.0</ele><time>2026-05-03T12:44:02.188Z</time></trkpt><trkpt lat="41.7977826" lon="12.5368664"><ele>71.5</ele><time>2026-05-03T12:44:03.129Z</time></trkpt><trkpt lat="41.7977043" lon="12.536492"><ele>71.0</ele><time>2026-05-03T12:44:04.182Z</time></trkpt><trkpt lat="41.7976299" lon="12.5361324"><ele>72.0</ele><time>2026-05-03T12:44:05.18Z</time></trkpt><trkpt lat="41.7975541" lon="12.5357782"><ele>73.0</ele><time>2026-05-03T12:44:06.144Z</time></trkpt><trkpt lat="41.7974749" lon="12.5354153"><ele>72.0</ele><time>2026-05-03T12:44:07.198Z</time></trkpt><trkpt lat="41.7973181" lon="12.5347252"><ele>73.0</ele><time>2026-05-03T12:44:09.146Z</time></trkpt><trkpt lat="41.7971727" lon="12.534037"><ele>72.0</ele><time>2026-05-03T12:44:11.134Z</time></trkpt><trkpt lat="41.797104" lon="12.5336938"><ele>71.0</ele><time>2026-05-03T12:44:12.132Z</time></trkpt><trkpt lat="41.7970321" lon="12.5333543"><ele>71.0</ele><time>2026-05-03T12:44:13.137Z</time></trkpt><trkpt lat="41.7969551" lon="12.5330156"><ele>71.0</ele><time>2026-05-03T12:44:14.151Z</time></trkpt><trkpt lat="41.7968764" lon="12.5326813"><ele>68.0</ele><time>2026-05-03T12:44:15.139Z</time></trkpt><trkpt lat="41.796796" lon="12.5323419"><ele>65.0</ele><time>2026-05-03T12:44:16.148Z</time></trkpt><trkpt lat="41.796722" lon="12.532001"><ele>64.0</ele><time>2026-05-03T12:44:17.139Z</time></trkpt><trkpt lat="41.7966509" lon="12.5316484"><ele>63.0</ele><time>2026-05-03T12:44:18.148Z</time></trkpt><trkpt lat="41.7965814" lon="12.5312919"><ele>63.0</ele><time>2026-05-03T12:44:19.128Z</time></trkpt><trkpt lat="41.7965115" lon="12.5309299"><ele>63.0</ele><time>2026-05-03T12:44:20.117Z</time></trkpt><trkpt lat="41.7964391" lon="12.5305647"><ele>63.0</ele><time>2026-05-03T12:44:21.126Z</time></trkpt><trkpt lat="41.7963661" lon="12.5302016"><ele>63.0</ele><time>2026-05-03T12:44:22.129Z</time></trkpt><trkpt lat="41.7962932" lon="12.5298371"><ele>63.0</ele><time>2026-05-03T12:44:23.135Z</time></trkpt><trkpt lat="41.7962167" lon="12.5294735"><ele>63.0</ele><time>2026-05-03T12:44:24.156Z</time></trkpt><trkpt lat="41.7961418" lon="12.5291127"><ele>63.0</ele><time>2026-05-03T12:44:25.186Z</time></trkpt><trkpt lat="41.7960655" lon="12.5287584"><ele>63.0</ele><time>2026-05-03T12:44:26.184Z</time></trkpt><trkpt lat="41.795988" lon="12.5284056"><ele>63.0</ele><time>2026-05-03T12:44:27.185Z</time></trkpt><trkpt lat="41.7959091" lon="12.5280559"><ele>63.0</ele><time>2026-05-03T12:44:28.188Z</time></trkpt><trkpt lat="41.7958305" lon="12.527709"><ele>63.5</ele><time>2026-05-03T12:44:29.167Z</time></trkpt><trkpt lat="41.795756" lon="12.527362"><ele>64.0</ele><time>2026-05-03T12:44:30.143Z</time></trkpt><trkpt lat="41.795683" lon="12.5270078"><ele>62.0</ele><time>2026-05-03T12:44:31.179Z</time></trkpt><trkpt lat="41.7956154" lon="12.5266622"><ele>60.0</ele><time>2026-05-03T12:44:32.184Z</time></trkpt><trkpt lat="41.7955505" lon="12.5263189"><ele>60.5</ele><time>2026-05-03T12:44:33.164Z</time></trkpt><trkpt lat="41.7954894" lon="12.5259686"><ele>61.0</ele><time>2026-05-03T12:44:34.179Z</time></trkpt><trkpt lat="41.7954322" lon="12.5256199"><ele>62.0</ele><time>2026-05-03T12:44:35.191Z</time></trkpt><trkpt lat="41.7953824" lon="12.5252719"><ele>63.0</ele><time>2026-05-03T12:44:36.186Z</time></trkpt><trkpt lat="41.7953382" lon="12.5249202"><ele>63.0</ele><time>2026-05-03T12:44:37.151Z</time></trkpt><trkpt lat="41.7952959" lon="12.5245637"><ele>63.0</ele><time>2026-05-03T12:44:38.131Z</time></trkpt><trkpt lat="41.7952533" lon="12.5242012"><ele>61.5</ele><time>2026-05-03T12:44:39.164Z</time></trkpt><trkpt lat="41.7952152" lon="12.5238466"><ele>60.0</ele><time>2026-05-03T12:44:40.132Z</time></trkpt><trkpt lat="41.7951804" lon="12.5234732"><ele>62.0</ele><time>2026-05-03T12:44:41.185Z</time></trkpt><trkpt lat="41.7951503" lon="12.5231111"><ele>64.0</ele><time>2026-05-03T12:44:42.175Z</time></trkpt><trkpt lat="41.7951186" lon="12.5227394"><ele>64.0</ele><time>2026-05-03T12:44:43.195Z</time></trkpt><trkpt lat="41.7950831" lon="12.5223694"><ele>64.0</ele><time>2026-05-03T12:44:44.199Z</time></trkpt><trkpt lat="41.7950458" lon="12.5220086"><ele>64.0</ele><time>2026-05-03T12:44:45.16Z</time></trkpt><trkpt lat="41.7950113" lon="12.5216321"><ele>64.0</ele><time>2026-05-03T12:44:46.191Z</time></trkpt><trkpt lat="41.7949811" lon="12.5212648"><ele>63.0</ele><time>2026-05-03T12:44:47.185Z</time></trkpt><trkpt lat="41.7949482" lon="12.5208976"><ele>62.0</ele><time>2026-05-03T12:44:48.188Z</time></trkpt><trkpt lat="41.7949148" lon="12.5205327"><ele>63.0</ele><time>2026-05-03T12:44:49.181Z</time></trkpt><trkpt lat="41.7948817" lon="12.520163"><ele>64.0</ele><time>2026-05-03T12:44:50.2Z</time></trkpt><trkpt lat="41.7948533" lon="12.5198016"><ele>64.0</ele><time>2026-05-03T12:44:51.168Z</time></trkpt><trkpt lat="41.7948313" lon="12.5194369"><ele>64.0</ele><time>2026-05-03T12:44:52.143Z</time></trkpt><trkpt lat="41.7948078" lon="12.5190643"><ele>63.5</ele><time>2026-05-03T12:44:53.18Z</time></trkpt><trkpt lat="41.7947835" lon="12.5186992"><ele>63.0</ele><time>2026-05-03T12:44:54.183Z</time></trkpt><trkpt lat="41.7947542" lon="12.5183418"><ele>63.0</ele><time>2026-05-03T12:44:55.133Z</time></trkpt><trkpt lat="41.7947214" lon="12.5179747"><ele>63.0</ele><time>2026-05-03T12:44:56.144Z</time></trkpt><trkpt lat="41.7946915" lon="12.5176141"><ele>63.0</ele><time>2026-05-03T12:44:57.138Z</time></trkpt><trkpt lat="41.7946631" lon="12.5172445"><ele>63.0</ele><time>2026-05-03T12:44:58.174Z</time></trkpt><trkpt lat="41.7946379" lon="12.516878"><ele>62.0</ele><time>2026-05-03T12:44:59.177Z</time></trkpt><trkpt lat="41.7946126" lon="12.5165097"><ele>61.0</ele><time>2026-05-03T12:45:00.174Z</time></trkpt><trkpt lat="41.7945858" lon="12.5161422"><ele>60.0</ele><time>2026-05-03T12:45:01.172Z</time></trkpt><trkpt lat="41.7945537" lon="12.5157807"><ele>59.0</ele><time>2026-05-03T12:45:02.153Z</time></trkpt><trkpt lat="41.7945211" lon="12.5154194"><ele>60.5</ele><time>2026-05-03T12:45:03.13Z</time></trkpt><trkpt lat="41.794487" lon="12.5150579"><ele>62.0</ele><time>2026-05-03T12:45:04.146Z</time></trkpt><trkpt lat="41.7944503" lon="12.5147024"><ele>65.5</ele><time>2026-05-03T12:45:05.153Z</time></trkpt><trkpt lat="41.794416" lon="12.5143409"><ele>69.0</ele><time>2026-05-03T12:45:06.175Z</time></trkpt><trkpt lat="41.7943867" lon="12.5139928"><ele>69.5</ele><time>2026-05-03T12:45:07.119Z</time></trkpt><trkpt lat="41.7943608" lon="12.5136278"><ele>70.0</ele><time>2026-05-03T12:45:08.145Z</time></trkpt><trkpt lat="41.7943426" lon="12.5132673"><ele>71.0</ele><time>2026-05-03T12:45:09.122Z</time></trkpt><trkpt lat="41.7943258" lon="12.5129064"><ele>72.0</ele><time>2026-05-03T12:45:10.13Z</time></trkpt><trkpt lat="41.7943089" lon="12.5125468"><ele>68.0</ele><time>2026-05-03T12:45:11.13Z</time></trkpt><trkpt lat="41.794274" lon="12.5114517"><ele>67.5</ele><time>2026-05-03T12:45:14.15Z</time></trkpt><trkpt lat="41.7942722" lon="12.51109"><ele>67.0</ele><time>2026-05-03T12:45:15.122Z</time></trkpt><trkpt lat="41.7942769" lon="12.5107157"><ele>65.5</ele><time>2026-05-03T12:45:16.124Z</time></trkpt><trkpt lat="41.7942858" lon="12.510347"><ele>64.0</ele><time>2026-05-03T12:45:17.156Z</time></trkpt><trkpt lat="41.7942983" lon="12.5099867"><ele>64.0</ele><time>2026-05-03T12:45:18.138Z</time></trkpt><trkpt lat="41.7943102" lon="12.5096191"><ele>64.0</ele><time>2026-05-03T12:45:19.122Z</time></trkpt><trkpt lat="41.7943265" lon="12.5092602"><ele>64.5</ele><time>2026-05-03T12:45:20.121Z</time></trkpt><trkpt lat="41.7943449" lon="12.5089007"><ele>65.0</ele><time>2026-05-03T12:45:21.143Z</time></trkpt><trkpt lat="41.7943677" lon="12.5085412"><ele>65.0</ele><time>2026-05-03T12:45:22.18Z</time></trkpt><trkpt lat="41.7943951" lon="12.5081871"><ele>65.0</ele><time>2026-05-03T12:45:23.157Z</time></trkpt><trkpt lat="41.7944255" lon="12.507826"><ele>60.5</ele><time>2026-05-03T12:45:24.151Z</time></trkpt><trkpt lat="41.7944619" lon="12.5074552"><ele>56.0</ele><time>2026-05-03T12:45:25.19Z</time></trkpt><trkpt lat="41.7945002" lon="12.5070873"><ele>54.0</ele><time>2026-05-03T12:45:26.177Z</time></trkpt><trkpt lat="41.7945428" lon="12.5067204"><ele>52.0</ele><time>2026-05-03T12:45:27.15Z</time></trkpt><trkpt lat="41.7945901" lon="12.5063475"><ele>52.0</ele><time>2026-05-03T12:45:28.175Z</time></trkpt><trkpt lat="41.7946375" lon="12.5059808"><ele>52.0</ele><time>2026-05-03T12:45:29.156Z</time></trkpt><trkpt lat="41.794684" lon="12.5056058"><ele>50.0</ele><time>2026-05-03T12:45:30.175Z</time></trkpt><trkpt lat="41.7947291" lon="12.5052399"><ele>48.0</ele><time>2026-05-03T12:45:31.138Z</time></trkpt><trkpt lat="41.7947738" lon="12.5048594"><ele>49.5</ele><time>2026-05-03T12:45:32.184Z</time></trkpt><trkpt lat="41.7948202" lon="12.5044982"><ele>51.0</ele><time>2026-05-03T12:45:33.169Z</time></trkpt><trkpt lat="41.794867" lon="12.5041301"><ele>51.0</ele><time>2026-05-03T12:45:34.169Z</time></trkpt><trkpt lat="41.7949109" lon="12.5037701"><ele>51.0</ele><time>2026-05-03T12:45:35.129Z</time></trkpt><trkpt lat="41.7949563" lon="12.5034016"><ele>52.5</ele><time>2026-05-03T12:45:36.142Z</time></trkpt><trkpt lat="41.7950026" lon="12.5030404"><ele>54.0</ele><time>2026-05-03T12:45:37.163Z</time></trkpt><trkpt lat="41.7950626" lon="12.502682"><ele>56.0</ele><time>2026-05-03T12:45:38.19Z</time></trkpt><trkpt lat="41.795119" lon="12.5023336"><ele>58.0</ele><time>2026-05-03T12:45:39.136Z</time></trkpt><trkpt lat="41.7951683" lon="12.5019664"><ele>57.5</ele><time>2026-05-03T12:45:40.159Z</time></trkpt><trkpt lat="41.7952113" lon="12.5016112"><ele>57.0</ele><time>2026-05-03T12:45:41.138Z</time></trkpt><trkpt lat="41.7952449" lon="12.5012489"><ele>57.0</ele><time>2026-05-03T12:45:42.133Z</time></trkpt><trkpt lat="41.7952796" lon="12.5008839"><ele>57.0</ele><time>2026-05-03T12:45:43.177Z</time></trkpt><trkpt lat="41.7953194" lon="12.5005309"><ele>57.5</ele><time>2026-05-03T12:45:44.179Z</time></trkpt><trkpt lat="41.7953623" lon="12.5001826"><ele>58.0</ele><time>2026-05-03T12:45:45.144Z</time></trkpt><trkpt lat="41.7954102" lon="12.4998287"><ele>59.5</ele><time>2026-05-03T12:45:46.195Z</time></trkpt><trkpt lat="41.795459" lon="12.4994833"><ele>61.0</ele><time>2026-05-03T12:45:47.179Z</time></trkpt><trkpt lat="41.7955103" lon="12.4991363"><ele>61.0</ele><time>2026-05-03T12:45:48.139Z</time></trkpt><trkpt lat="41.7955609" lon="12.4987753"><ele>61.0</ele><time>2026-05-03T12:45:49.197Z</time></trkpt><trkpt lat="41.7956041" lon="12.4984314"><ele>60.5</ele><time>2026-05-03T12:45:50.142Z</time></trkpt><trkpt lat="41.7956422" lon="12.4980738"><ele>60.0</ele><time>2026-05-03T12:45:51.188Z</time></trkpt><trkpt lat="41.7956747" lon="12.4977264"><ele>59.5</ele><time>2026-05-03T12:45:52.195Z</time></trkpt><trkpt lat="41.7957072" lon="12.4973835"><ele>59.0</ele><time>2026-05-03T12:45:53.176Z</time></trkpt><trkpt lat="41.7957435" lon="12.4970341"><ele>61.0</ele><time>2026-05-03T12:45:54.181Z</time></trkpt><trkpt lat="41.7957805" lon="12.4966931"><ele>63.0</ele><time>2026-05-03T12:45:55.133Z</time></trkpt><trkpt lat="41.7958252" lon="12.4963444"><ele>60.5</ele><time>2026-05-03T12:45:56.139Z</time></trkpt><trkpt lat="41.7958729" lon="12.4959907"><ele>58.0</ele><time>2026-05-03T12:45:57.186Z</time></trkpt><trkpt lat="41.7959155" lon="12.4956422"><ele>57.5</ele><time>2026-05-03T12:45:58.188Z</time></trkpt><trkpt lat="41.7959561" lon="12.4952956"><ele>57.0</ele><time>2026-05-03T12:45:59.155Z</time></trkpt><trkpt lat="41.7959981" lon="12.4949399"><ele>57.5</ele><time>2026-05-03T12:46:00.191Z</time></trkpt><trkpt lat="41.7960408" lon="12.4945969"><ele>58.0</ele><time>2026-05-03T12:46:01.136Z</time></trkpt><trkpt lat="41.7960812" lon="12.4942324"><ele>56.0</ele><time>2026-05-03T12:46:02.205Z</time></trkpt><trkpt lat="41.7961196" lon="12.4938821"><ele>54.0</ele><time>2026-05-03T12:46:03.177Z</time></trkpt><trkpt lat="41.7961592" lon="12.4935319"><ele>53.5</ele><time>2026-05-03T12:46:04.161Z</time></trkpt><trkpt lat="41.7961974" lon="12.4931695"><ele>53.0</ele><time>2026-05-03T12:46:05.201Z</time></trkpt><trkpt lat="41.7962323" lon="12.4928119"><ele>51.5</ele><time>2026-05-03T12:46:06.212Z</time></trkpt><trkpt lat="41.7962728" lon="12.4924642"><ele>50.0</ele><time>2026-05-03T12:46:07.151Z</time></trkpt><trkpt lat="41.796318" lon="12.4921031"><ele>52.0</ele><time>2026-05-03T12:46:08.159Z</time></trkpt><trkpt lat="41.7963622" lon="12.4917432"><ele>54.0</ele><time>2026-05-03T12:46:09.191Z</time></trkpt><trkpt lat="41.7964041" lon="12.4913889"><ele>54.5</ele><time>2026-05-03T12:46:10.199Z</time></trkpt><trkpt lat="41.7964474" lon="12.4910356"><ele>55.0</ele><time>2026-05-03T12:46:11.202Z</time></trkpt><trkpt lat="41.7964884" lon="12.4906826"><ele>52.0</ele><time>2026-05-03T12:46:12.167Z</time></trkpt><trkpt lat="41.7965332" lon="12.4903193"><ele>49.0</ele><time>2026-05-03T12:46:13.193Z</time></trkpt><trkpt lat="41.7965789" lon="12.4899657"><ele>49.0</ele><time>2026-05-03T12:46:14.167Z</time></trkpt><trkpt lat="41.7966265" lon="12.4896117"><ele>49.0</ele><time>2026-05-03T12:46:15.167Z</time></trkpt><trkpt lat="41.796667" lon="12.4892593"><ele>50.0</ele><time>2026-05-03T12:46:16.14Z</time></trkpt><trkpt lat="41.7967078" lon="12.4888988"><ele>51.0</ele><time>2026-05-03T12:46:17.191Z</time></trkpt><trkpt lat="41.7967472" lon="12.4885562"><ele>51.0</ele><time>2026-05-03T12:46:18.134Z</time></trkpt><trkpt lat="41.7967937" lon="12.4881897"><ele>51.0</ele><time>2026-05-03T12:46:19.186Z</time></trkpt><trkpt lat="41.7968365" lon="12.4878396"><ele>50.5</ele><time>2026-05-03T12:46:20.139Z</time></trkpt><trkpt lat="41.7968812" lon="12.4874741"><ele>50.0</ele><time>2026-05-03T12:46:21.159Z</time></trkpt><trkpt lat="41.7969267" lon="12.4871159"><ele>49.5</ele><time>2026-05-03T12:46:22.178Z</time></trkpt><trkpt lat="41.7969747" lon="12.4867616"><ele>49.0</ele><time>2026-05-03T12:46:23.182Z</time></trkpt><trkpt lat="41.7970209" lon="12.4864152"><ele>48.5</ele><time>2026-05-03T12:46:24.167Z</time></trkpt><trkpt lat="41.7970671" lon="12.4860698"><ele>48.0</ele><time>2026-05-03T12:46:25.182Z</time></trkpt><trkpt lat="41.7971096" lon="12.485729"><ele>47.5</ele><time>2026-05-03T12:46:26.18Z</time></trkpt><trkpt lat="41.7971548" lon="12.4853968"><ele>47.0</ele><time>2026-05-03T12:46:27.151Z</time></trkpt><trkpt lat="41.7971976" lon="12.4850569"><ele>47.0</ele><time>2026-05-03T12:46:28.173Z</time></trkpt><trkpt lat="41.797238" lon="12.4847306"><ele>47.0</ele><time>2026-05-03T12:46:29.159Z</time></trkpt><trkpt lat="41.7972775" lon="12.4844158"><ele>46.33333333333333</ele><time>2026-05-03T12:46:30.159Z</time></trkpt><trkpt lat="41.7973171" lon="12.4841154"><ele>45.666666666666664</ele><time>2026-05-03T12:46:31.169Z</time></trkpt><trkpt lat="41.7973545" lon="12.4838372"><ele>45.0</ele><time>2026-05-03T12:46:32.184Z</time></trkpt><trkpt lat="41.7974035" lon="12.4835801"><ele>45.0</ele><time>2026-05-03T12:46:33.198Z</time></trkpt><trkpt lat="41.7974656" lon="12.4833403"><ele>45.0</ele><time>2026-05-03T12:46:34.163Z</time></trkpt><trkpt lat="41.7975561" lon="12.4831005"><ele>45.0</ele><time>2026-05-03T12:46:35.18Z</time></trkpt><trkpt lat="41.7976669" lon="12.4828702"><ele>45.0</ele><time>2026-05-03T12:46:36.167Z</time></trkpt><trkpt lat="41.7977967" lon="12.4826502"><ele>45.0</ele><time>2026-05-03T12:46:37.18Z</time></trkpt><trkpt lat="41.7979379" lon="12.4824495"><ele>45.0</ele><time>2026-05-03T12:46:38.176Z</time></trkpt><trkpt lat="41.7980937" lon="12.4822641"><ele>44.333333333333336</ele><time>2026-05-03T12:46:39.191Z</time></trkpt><trkpt lat="41.7982541" lon="12.482088"><ele>43.66666666666667</ele><time>2026-05-03T12:46:40.182Z</time></trkpt><trkpt lat="41.7983932" lon="12.4819026"><ele>43.0</ele><time>2026-05-03T12:46:41.096Z</time></trkpt><trkpt lat="41.7985349" lon="12.4817121"><ele>42.0</ele><time>2026-05-03T12:46:42.114Z</time></trkpt><trkpt lat="41.7986664" lon="12.4815515"><ele>41.0</ele><time>2026-05-03T12:46:43.112Z</time></trkpt><trkpt lat="41.7987957" lon="12.4814146"><ele>40.0</ele><time>2026-05-03T12:46:44.096Z</time></trkpt><trkpt lat="41.7989341" lon="12.4812958"><ele>40.0</ele><time>2026-05-03T12:46:45.101Z</time></trkpt><trkpt lat="41.7990736" lon="12.4812056"><ele>40.0</ele><time>2026-05-03T12:46:46.111Z</time></trkpt><trkpt lat="41.7992203" lon="12.4811465"><ele>40.0</ele><time>2026-05-03T12:46:47.109Z</time></trkpt><trkpt lat="41.7993776" lon="12.4811148"><ele>40.0</ele><time>2026-05-03T12:46:48.101Z</time></trkpt><trkpt lat="41.7995369" lon="12.4811023"><ele>40.0</ele><time>2026-05-03T12:46:49.084Z</time></trkpt><trkpt lat="41.799692" lon="12.4811021"><ele>40.0</ele><time>2026-05-03T12:46:50.099Z</time></trkpt><trkpt lat="41.7998502" lon="12.4811086"><ele>40.0</ele><time>2026-05-03T12:46:51.065Z</time></trkpt><trkpt lat="41.8000272" lon="12.481123"><ele>40.0</ele><time>2026-05-03T12:46:52.088Z</time></trkpt><trkpt lat="41.8001978" lon="12.4811342"><ele>40.0</ele><time>2026-05-03T12:46:53.104Z</time></trkpt><trkpt lat="41.8003542" lon="12.4811423"><ele>39.25</ele><time>2026-05-03T12:46:54.081Z</time></trkpt><trkpt lat="41.8005004" lon="12.4811436"><ele>38.5</ele><time>2026-05-03T12:46:55.063Z</time></trkpt><trkpt lat="41.8006313" lon="12.4811477"><ele>37.75</ele><time>2026-05-03T12:46:56.058Z</time></trkpt><trkpt lat="41.8007446" lon="12.4811574"><ele>37.0</ele><time>2026-05-03T12:46:57.119Z</time></trkpt><trkpt lat="41.8008324" lon="12.4811739"><ele>37.0</ele><time>2026-05-03T12:46:58.076Z</time></trkpt><trkpt lat="41.8009059" lon="12.4811901"><ele>37.0</ele><time>2026-05-03T12:46:59.083Z</time></trkpt><trkpt lat="41.8009956" lon="12.4812314"><ele>37.0</ele><time>2026-05-03T12:47:01.104Z</time></trkpt><trkpt lat="41.8010923" lon="12.4812601"><ele>37.0</ele><time>2026-05-03T12:47:15.091Z</time></trkpt><trkpt lat="41.8011663" lon="12.4812763"><ele>37.0</ele><time>2026-05-03T12:47:16.108Z</time></trkpt><trkpt lat="41.8012604" lon="12.4813004"><ele>37.0</ele><time>2026-05-03T12:47:17.075Z</time></trkpt><trkpt lat="41.8013563" lon="12.4813398"><ele>37.0</ele><time>2026-05-03T12:47:18.099Z</time></trkpt><trkpt lat="41.8014685" lon="12.4813831"><ele>37.0</ele><time>2026-05-03T12:47:19.11Z</time></trkpt><trkpt lat="41.8015958" lon="12.4814387"><ele>37.0</ele><time>2026-05-03T12:47:20.101Z</time></trkpt><trkpt lat="41.8017286" lon="12.4814921"><ele>37.0</ele><time>2026-05-03T12:47:21.109Z</time></trkpt><trkpt lat="41.8018708" lon="12.4815468"><ele>37.333333333333336</ele><time>2026-05-03T12:47:22.096Z</time></trkpt><trkpt lat="41.8020257" lon="12.4815985"><ele>37.666666666666664</ele><time>2026-05-03T12:47:23.107Z</time></trkpt><trkpt lat="41.8021835" lon="12.4816534"><ele>38.0</ele><time>2026-05-03T12:47:24.102Z</time></trkpt><trkpt lat="41.8023372" lon="12.4817052"><ele>38.0</ele><time>2026-05-03T12:47:25.088Z</time></trkpt><trkpt lat="41.8024895" lon="12.4817609"><ele>38.0</ele><time>2026-05-03T12:47:26.079Z</time></trkpt><trkpt lat="41.8026464" lon="12.4818151"><ele>38.0</ele><time>2026-05-03T12:47:27.11Z</time></trkpt><trkpt lat="41.8027996" lon="12.4818711"><ele>38.0</ele><time>2026-05-03T12:47:28.103Z</time></trkpt><trkpt lat="41.8029483" lon="12.4819257"><ele>38.0</ele><time>2026-05-03T12:47:29.098Z</time></trkpt><trkpt lat="41.8030879" lon="12.4819809"><ele>38.0</ele><time>2026-05-03T12:47:30.083Z</time></trkpt><trkpt lat="41.8032205" lon="12.482032"><ele>38.0</ele><time>2026-05-03T12:47:31.12Z</time></trkpt><trkpt lat="41.8033276" lon="12.4821097"><ele>38.0</ele><time>2026-05-03T12:47:32.084Z</time></trkpt><trkpt lat="41.8034078" lon="12.4822148"><ele>38.0</ele><time>2026-05-03T12:47:33.104Z</time></trkpt><trkpt lat="41.8034665" lon="12.4823579"><ele>38.0</ele><time>2026-05-03T12:47:34.123Z</time></trkpt><trkpt lat="41.8035326" lon="12.4824838"><ele>38.0</ele><time>2026-05-03T12:47:35.096Z</time></trkpt><trkpt lat="41.8036152" lon="12.4825661"><ele>38.4</ele><time>2026-05-03T12:47:36.108Z</time></trkpt><trkpt lat="41.8037068" lon="12.4825969"><ele>38.8</ele><time>2026-05-03T12:47:37.063Z</time></trkpt><trkpt lat="41.8038005" lon="12.4826102"><ele>39.2</ele><time>2026-05-03T12:47:38.092Z</time></trkpt><trkpt lat="41.8038957" lon="12.4826156"><ele>39.6</ele><time>2026-05-03T12:47:39.087Z</time></trkpt><trkpt lat="41.8040104" lon="12.482641"><ele>40.0</ele><time>2026-05-03T12:47:40.109Z</time></trkpt><trkpt lat="41.8041405" lon="12.482731"><ele>40.0</ele><time>2026-05-03T12:47:41.128Z</time></trkpt><trkpt lat="41.8042667" lon="12.4828667"><ele>40.0</ele><time>2026-05-03T12:47:42.131Z</time></trkpt><trkpt lat="41.8044092" lon="12.4830044"><ele>40.0</ele><time>2026-05-03T12:47:43.112Z</time></trkpt><trkpt lat="41.8045652" lon="12.4831432"><ele>40.333333333333336</ele><time>2026-05-03T12:47:44.097Z</time></trkpt><trkpt lat="41.8047287" lon="12.483291"><ele>40.666666666666664</ele><time>2026-05-03T12:47:45.094Z</time></trkpt><trkpt lat="41.8048848" lon="12.4834392"><ele>41.0</ele><time>2026-05-03T12:47:46.109Z</time></trkpt><trkpt lat="41.8050415" lon="12.483577"><ele>42.666666666666664</ele><time>2026-05-03T12:47:47.102Z</time></trkpt><trkpt lat="41.8052072" lon="12.4837124"><ele>44.333333333333336</ele><time>2026-05-03T12:47:48.101Z</time></trkpt><trkpt lat="41.8053866" lon="12.4838426"><ele>46.0</ele><time>2026-05-03T12:47:49.111Z</time></trkpt><trkpt lat="41.8055771" lon="12.4839598"><ele>46.333333333333336</ele><time>2026-05-03T12:47:50.099Z</time></trkpt><trkpt lat="41.8057793" lon="12.4840704"><ele>46.666666666666664</ele><time>2026-05-03T12:47:51.103Z</time></trkpt><trkpt lat="41.8059821" lon="12.4841693"><ele>47.0</ele><time>2026-05-03T12:47:52.097Z</time></trkpt><trkpt lat="41.806186" lon="12.4842602"><ele>49.0</ele><time>2026-05-03T12:47:53.099Z</time></trkpt><trkpt lat="41.8063827" lon="12.4843393"><ele>51.0</ele><time>2026-05-03T12:47:54.086Z</time></trkpt><trkpt lat="41.8065611" lon="12.484403"><ele>53.0</ele><time>2026-05-03T12:47:55.079Z</time></trkpt><trkpt lat="41.8067205" lon="12.4844749"><ele>52.66666666666667</ele><time>2026-05-03T12:47:56.101Z</time></trkpt><trkpt lat="41.8068784" lon="12.4845408"><ele>52.33333333333333</ele><time>2026-05-03T12:47:57.107Z</time></trkpt><trkpt lat="41.8070357" lon="12.484591"><ele>52.0</ele><time>2026-05-03T12:47:58.08Z</time></trkpt><trkpt lat="41.8071717" lon="12.4846363"><ele>51.6</ele><time>2026-05-03T12:47:59.117Z</time></trkpt><trkpt lat="41.8072818" lon="12.4846747"><ele>51.2</ele><time>2026-05-03T12:48:00.101Z</time></trkpt><trkpt lat="41.8073876" lon="12.484694"><ele>50.8</ele><time>2026-05-03T12:48:01.105Z</time></trkpt><trkpt lat="41.8074605" lon="12.4847262"><ele>50.4</ele><time>2026-05-03T12:48:02.123Z</time></trkpt><trkpt lat="41.8075339" lon="12.4847398"><ele>50.0</ele><time>2026-05-03T12:48:04.098Z</time></trkpt><trkpt lat="41.8076118" lon="12.4847685"><ele>50.0</ele><time>2026-05-03T12:48:21.109Z</time></trkpt><trkpt lat="41.807708" lon="12.4847859"><ele>50.0</ele><time>2026-05-03T12:48:22.12Z</time></trkpt><trkpt lat="41.8077921" lon="12.4848112"><ele>50.0</ele><time>2026-05-03T12:48:23.111Z</time></trkpt><trkpt lat="41.8078757" lon="12.4848419"><ele>50.0</ele><time>2026-05-03T12:48:24.105Z</time></trkpt><trkpt lat="41.807965" lon="12.4848555"><ele>50.0</ele><time>2026-05-03T12:48:25.1Z</time></trkpt><trkpt lat="41.8080587" lon="12.4848734"><ele>50.00000000000001</ele><time>2026-05-03T12:48:26.111Z</time></trkpt><trkpt lat="41.8081498" lon="12.4848785"><ele>50.0</ele><time>2026-05-03T12:48:27.107Z</time></trkpt><trkpt lat="41.8082463" lon="12.4848867"><ele>50.0</ele><time>2026-05-03T12:48:28.108Z</time></trkpt><trkpt lat="41.8083355" lon="12.4848931"><ele>50.0</ele><time>2026-05-03T12:48:29.109Z</time></trkpt><trkpt lat="41.8084185" lon="12.4849029"><ele>50.00000000000001</ele><time>2026-05-03T12:48:30.122Z</time></trkpt><trkpt lat="41.8084963" lon="12.4849143"><ele>50.0</ele><time>2026-05-03T12:48:31.106Z</time></trkpt><trkpt lat="41.8085611" lon="12.4849301"><ele>50.4</ele><time>2026-05-03T12:48:32.117Z</time></trkpt><trkpt lat="41.8086555" lon="12.484946"><ele>50.8</ele><time>2026-05-03T12:48:34.108Z</time></trkpt><trkpt lat="41.8087264" lon="12.4848998"><ele>51.2</ele><time>2026-05-03T12:49:17.09Z</time></trkpt><trkpt lat="41.8088205" lon="12.4848273"><ele>51.6</ele><time>2026-05-03T12:49:19.126Z</time></trkpt><trkpt lat="41.8089014" lon="12.4847408"><ele>52.0</ele><time>2026-05-03T12:49:20.09Z</time></trkpt><trkpt lat="41.8089637" lon="12.484638"><ele>52.5</ele><time>2026-05-03T12:49:21.118Z</time></trkpt><trkpt lat="41.8090281" lon="12.4845131"><ele>53.0</ele><time>2026-05-03T12:49:22.093Z</time></trkpt><trkpt lat="41.8090908" lon="12.4843873"><ele>53.5</ele><time>2026-05-03T12:49:23.109Z</time></trkpt><trkpt lat="41.8091607" lon="12.4842595"><ele>54.0</ele><time>2026-05-03T12:49:24.112Z</time></trkpt><trkpt lat="41.8092299" lon="12.4841299"><ele>54.0</ele><time>2026-05-03T12:49:25.092Z</time></trkpt><trkpt lat="41.8093017" lon="12.4839923"><ele>54.0</ele><time>2026-05-03T12:49:26.117Z</time></trkpt><trkpt lat="41.809373" lon="12.4838502"><ele>54.0</ele><time>2026-05-03T12:49:27.106Z</time></trkpt><trkpt lat="41.8094428" lon="12.4837162"><ele>54.0</ele><time>2026-05-03T12:49:28.114Z</time></trkpt><trkpt lat="41.8095101" lon="12.4835898"><ele>53.400000000000006</ele><time>2026-05-03T12:49:29.096Z</time></trkpt><trkpt lat="41.8095755" lon="12.4834762"><ele>52.800000000000004</ele><time>2026-05-03T12:49:30.124Z</time></trkpt><trkpt lat="41.8096659" lon="12.4833893"><ele>52.2</ele><time>2026-05-03T12:49:31.109Z</time></trkpt><trkpt lat="41.8097649" lon="12.4833411"><ele>51.599999999999994</ele><time>2026-05-03T12:49:32.11Z</time></trkpt><trkpt lat="41.8098742" lon="12.4833221"><ele>51.0</ele><time>2026-05-03T12:49:33.105Z</time></trkpt><trkpt lat="41.8099808" lon="12.4833492"><ele>51.0</ele><time>2026-05-03T12:49:34.104Z</time></trkpt><trkpt lat="41.8100833" lon="12.4834167"><ele>51.0</ele><time>2026-05-03T12:49:35.085Z</time></trkpt><trkpt lat="41.8101813" lon="12.4835076"><ele>51.0</ele><time>2026-05-03T12:49:36.104Z</time></trkpt><trkpt lat="41.8102751" lon="12.483618"><ele>51.0</ele><time>2026-05-03T12:49:37.111Z</time></trkpt><trkpt lat="41.8103781" lon="12.483726"><ele>51.25</ele><time>2026-05-03T12:49:38.089Z</time></trkpt><trkpt lat="41.8104885" lon="12.4838138"><ele>51.5</ele><time>2026-05-03T12:49:39.132Z</time></trkpt><trkpt lat="41.8106037" lon="12.4839089"><ele>51.75</ele><time>2026-05-03T12:49:40.108Z</time></trkpt><trkpt lat="41.8107174" lon="12.4840054"><ele>52.0</ele><time>2026-05-03T12:49:41.095Z</time></trkpt><trkpt lat="41.8108381" lon="12.4841092"><ele>51.0</ele><time>2026-05-03T12:49:42.069Z</time></trkpt><trkpt lat="41.8110791" lon="12.4843186"><ele>50.0</ele><time>2026-05-03T12:49:44.104Z</time></trkpt><trkpt lat="41.8111951" lon="12.4844294"><ele>49.0</ele><time>2026-05-03T12:49:45.085Z</time></trkpt><trkpt lat="41.8113116" lon="12.4845299"><ele>48.75</ele><time>2026-05-03T12:49:46.079Z</time></trkpt><trkpt lat="41.8114202" lon="12.484624"><ele>48.5</ele><time>2026-05-03T12:49:47.08Z</time></trkpt><trkpt lat="41.8115284" lon="12.4847258"><ele>48.25</ele><time>2026-05-03T12:49:48.092Z</time></trkpt><trkpt lat="41.8116296" lon="12.4848257"><ele>48.0</ele><time>2026-05-03T12:49:49.073Z</time></trkpt><trkpt lat="41.8117316" lon="12.4849207"><ele>48.5</ele><time>2026-05-03T12:49:50.077Z</time></trkpt><trkpt lat="41.8118342" lon="12.4850074"><ele>49.0</ele><time>2026-05-03T12:49:51.117Z</time></trkpt><trkpt lat="41.8119389" lon="12.4851054"><ele>49.5</ele><time>2026-05-03T12:49:52.084Z</time></trkpt><trkpt lat="41.8120559" lon="12.4851908"><ele>50.0</ele><time>2026-05-03T12:49:53.116Z</time></trkpt><trkpt lat="41.8121926" lon="12.4852274"><ele>50.0</ele><time>2026-05-03T12:49:54.1Z</time></trkpt><trkpt lat="41.8123212" lon="12.4852549"><ele>50.0</ele><time>2026-05-03T12:49:55.108Z</time></trkpt><trkpt lat="41.8124463" lon="12.4852569"><ele>50.0</ele><time>2026-05-03T12:49:56.076Z</time></trkpt><trkpt lat="41.8125719" lon="12.4852425"><ele>50.0</ele><time>2026-05-03T12:49:57.08Z</time></trkpt><trkpt lat="41.8126952" lon="12.4852199"><ele>50.0</ele><time>2026-05-03T12:49:58.108Z</time></trkpt><trkpt lat="41.8128051" lon="12.4851641"><ele>50.0</ele><time>2026-05-03T12:49:59.101Z</time></trkpt><trkpt lat="41.8128971" lon="12.4850605"><ele>50.0</ele><time>2026-05-03T12:50:00.086Z</time></trkpt><trkpt lat="41.8129596" lon="12.4849321"><ele>50.0</ele><time>2026-05-03T12:50:01.078Z</time></trkpt><trkpt lat="41.8130354" lon="12.4847863"><ele>50.0</ele><time>2026-05-03T12:50:02.077Z</time></trkpt><trkpt lat="41.8131195" lon="12.484635"><ele>50.0</ele><time>2026-05-03T12:50:03.084Z</time></trkpt><trkpt lat="41.8131989" lon="12.4844744"><ele>50.0</ele><time>2026-05-03T12:50:04.099Z</time></trkpt><trkpt lat="41.8132831" lon="12.4843161"><ele>50.0</ele><time>2026-05-03T12:50:05.074Z</time></trkpt><trkpt lat="41.8133631" lon="12.4841596"><ele>50.75</ele><time>2026-05-03T12:50:06.145Z</time></trkpt><trkpt lat="41.8134421" lon="12.4840062"><ele>51.5</ele><time>2026-05-03T12:50:07.073Z</time></trkpt><trkpt lat="41.8135202" lon="12.4838562"><ele>52.25</ele><time>2026-05-03T12:50:08.07Z</time></trkpt><trkpt lat="41.8136027" lon="12.4836968"><ele>53.0</ele><time>2026-05-03T12:50:09.084Z</time></trkpt><trkpt lat="41.8136815" lon="12.4835465"><ele>53.5</ele><time>2026-05-03T12:50:10.078Z</time></trkpt><trkpt lat="41.8137485" lon="12.4833929"><ele>54.0</ele><time>2026-05-03T12:50:11.091Z</time></trkpt><trkpt lat="41.8138228" lon="12.4832446"><ele>54.5</ele><time>2026-05-03T12:50:12.075Z</time></trkpt><trkpt lat="41.8138959" lon="12.4831033"><ele>55.0</ele><time>2026-05-03T12:50:13.07Z</time></trkpt><trkpt lat="41.8139645" lon="12.4829671"><ele>55.0</ele><time>2026-05-03T12:50:14.089Z</time></trkpt><trkpt lat="41.8141028" lon="12.4826972"><ele>55.0</ele><time>2026-05-03T12:50:16.11Z</time></trkpt><trkpt lat="41.8141551" lon="12.4825217"><ele>55.0</ele><time>2026-05-03T12:50:17.097Z</time></trkpt><trkpt lat="41.8142219" lon="12.4823779"><ele>55.0</ele><time>2026-05-03T12:50:18.092Z</time></trkpt><trkpt lat="41.8142978" lon="12.4822434"><ele>55.0</ele><time>2026-05-03T12:50:19.077Z</time></trkpt><trkpt lat="41.8143759" lon="12.482106"><ele>55.0</ele><time>2026-05-03T12:50:20.079Z</time></trkpt><trkpt lat="41.8144369" lon="12.481939"><ele>55.0</ele><time>2026-05-03T12:50:21.074Z</time></trkpt><trkpt lat="41.8145066" lon="12.4817791"><ele>55.0</ele><time>2026-05-03T12:50:22.067Z</time></trkpt><trkpt lat="41.8146536" lon="12.4814541"><ele>55.0</ele><time>2026-05-03T12:50:24.07Z</time></trkpt><trkpt lat="41.8147407" lon="12.4813056"><ele>55.0</ele><time>2026-05-03T12:50:25.062Z</time></trkpt><trkpt lat="41.8148304" lon="12.4811586"><ele>54.0</ele><time>2026-05-03T12:50:26.067Z</time></trkpt><trkpt lat="41.814907" lon="12.4810139"><ele>53.0</ele><time>2026-05-03T12:50:27.064Z</time></trkpt><trkpt lat="41.8149671" lon="12.4808541"><ele>52.0</ele><time>2026-05-03T12:50:28.06Z</time></trkpt><trkpt lat="41.8150045" lon="12.4806822"><ele>51.0</ele><time>2026-05-03T12:50:29.064Z</time></trkpt><trkpt lat="41.8150061" lon="12.4805055"><ele>52.0</ele><time>2026-05-03T12:50:30.069Z</time></trkpt><trkpt lat="41.8149897" lon="12.4803244"><ele>53.0</ele><time>2026-05-03T12:50:31.064Z</time></trkpt><trkpt lat="41.8149436" lon="12.4801619"><ele>54.0</ele><time>2026-05-03T12:50:32.07Z</time></trkpt><trkpt lat="41.8148881" lon="12.4800031"><ele>55.0</ele><time>2026-05-03T12:50:33.185Z</time></trkpt><trkpt lat="41.8148414" lon="12.4798451"><ele>55.0</ele><time>2026-05-03T12:50:34.155Z</time></trkpt><trkpt lat="41.8147835" lon="12.4796928"><ele>55.0</ele><time>2026-05-03T12:50:35.131Z</time></trkpt><trkpt lat="41.8147295" lon="12.4795477"><ele>55.0</ele><time>2026-05-03T12:50:36.114Z</time></trkpt><trkpt lat="41.814688" lon="12.4794053"><ele>55.0</ele><time>2026-05-03T12:50:37.113Z</time></trkpt><trkpt lat="41.8146472" lon="12.4792582"><ele>55.0</ele><time>2026-05-03T12:50:38.121Z</time></trkpt><trkpt lat="41.8146071" lon="12.4791134"><ele>55.0</ele><time>2026-05-03T12:50:39.131Z</time></trkpt><trkpt lat="41.8145552" lon="12.4789594"><ele>55.0</ele><time>2026-05-03T12:50:40.115Z</time></trkpt><trkpt lat="41.8145037" lon="12.4787985"><ele>55.0</ele><time>2026-05-03T12:50:41.119Z</time></trkpt><trkpt lat="41.8144435" lon="12.4786315"><ele>54.5</ele><time>2026-05-03T12:50:42.133Z</time></trkpt><trkpt lat="41.8143678" lon="12.4784474"><ele>54.0</ele><time>2026-05-03T12:50:43.141Z</time></trkpt><trkpt lat="41.8142851" lon="12.4782926"><ele>53.5</ele><time>2026-05-03T12:50:44.141Z</time></trkpt><trkpt lat="41.8142067" lon="12.4781316"><ele>53.0</ele><time>2026-05-03T12:50:45.146Z</time></trkpt><trkpt lat="41.8141576" lon="12.4779652"><ele>55.0</ele><time>2026-05-03T12:50:46.14Z</time></trkpt><trkpt lat="41.8141168" lon="12.4778044"><ele>57.0</ele><time>2026-05-03T12:50:47.13Z</time></trkpt><trkpt lat="41.8140573" lon="12.4776346"><ele>59.0</ele><time>2026-05-03T12:50:48.144Z</time></trkpt><trkpt lat="41.8140031" lon="12.4774739"><ele>61.0</ele><time>2026-05-03T12:50:49.104Z</time></trkpt><trkpt lat="41.8139427" lon="12.4773058"><ele>61.0</ele><time>2026-05-03T12:50:50.116Z</time></trkpt><trkpt lat="41.8138966" lon="12.4771557"><ele>61.0</ele><time>2026-05-03T12:50:51.127Z</time></trkpt><trkpt lat="41.8138247" lon="12.4769987"><ele>61.0</ele><time>2026-05-03T12:50:52.106Z</time></trkpt><trkpt lat="41.8137693" lon="12.4768365"><ele>61.0</ele><time>2026-05-03T12:50:53.132Z</time></trkpt><trkpt lat="41.8137182" lon="12.4766942"><ele>60.666666666666664</ele><time>2026-05-03T12:50:54.118Z</time></trkpt><trkpt lat="41.8136722" lon="12.4765852"><ele>60.33333333333333</ele><time>2026-05-03T12:50:55.11Z</time></trkpt><trkpt lat="41.8136294" lon="12.4764998"><ele>60.0</ele><time>2026-05-03T12:50:56.136Z</time></trkpt><trkpt lat="41.8135786" lon="12.4763609"><ele>59.66666666666667</ele><time>2026-05-03T12:50:58.123Z</time></trkpt><trkpt lat="41.8135621" lon="12.4762733"><ele>59.333333333333336</ele><time>2026-05-03T12:50:59.122Z</time></trkpt><trkpt lat="41.8135159" lon="12.4761675"><ele>59.0</ele><time>2026-05-03T12:51:00.118Z</time></trkpt><trkpt lat="41.8134545" lon="12.4760408"><ele>56.333333333333336</ele><time>2026-05-03T12:51:01.121Z</time></trkpt><trkpt lat="41.8133958" lon="12.4758794"><ele>53.66666666666667</ele><time>2026-05-03T12:51:02.151Z</time></trkpt><trkpt lat="41.8133265" lon="12.475702"><ele>51.0</ele><time>2026-05-03T12:51:03.15Z</time></trkpt><trkpt lat="41.8132315" lon="12.4755008"><ele>50.0</ele><time>2026-05-03T12:51:04.147Z</time></trkpt><trkpt lat="41.8131449" lon="12.4752698"><ele>49.0</ele><time>2026-05-03T12:51:05.141Z</time></trkpt><trkpt lat="41.8130757" lon="12.4750582"><ele>48.0</ele><time>2026-05-03T12:51:06.114Z</time></trkpt><trkpt lat="41.8130106" lon="12.4748643"><ele>48.0</ele><time>2026-05-03T12:51:07.143Z</time></trkpt><trkpt lat="41.81295" lon="12.4746852"><ele>48.0</ele><time>2026-05-03T12:51:08.147Z</time></trkpt><trkpt lat="41.8128929" lon="12.4745211"><ele>48.0</ele><time>2026-05-03T12:51:09.135Z</time></trkpt><trkpt lat="41.8128467" lon="12.474363"><ele>48.0</ele><time>2026-05-03T12:51:10.136Z</time></trkpt><trkpt lat="41.8128189" lon="12.47421"><ele>49.0</ele><time>2026-05-03T12:51:11.144Z</time></trkpt><trkpt lat="41.8128211" lon="12.474061"><ele>50.0</ele><time>2026-05-03T12:51:12.127Z</time></trkpt><trkpt lat="41.8128459" lon="12.4739225"><ele>51.0</ele><time>2026-05-03T12:51:13.145Z</time></trkpt><trkpt lat="41.81289" lon="12.4737909"><ele>52.0</ele><time>2026-05-03T12:51:14.136Z</time></trkpt><trkpt lat="41.8129453" lon="12.4736843"><ele>53.0</ele><time>2026-05-03T12:51:15.15Z</time></trkpt><trkpt lat="41.8130028" lon="12.4735771"><ele>55.0</ele><time>2026-05-03T12:51:16.129Z</time></trkpt><trkpt lat="41.8130606" lon="12.4734786"><ele>55.0</ele><time>2026-05-03T12:51:17.145Z</time></trkpt><trkpt lat="41.8130715" lon="12.473392"><ele>55.0</ele><time>2026-05-03T12:51:18.173Z</time></trkpt><trkpt lat="41.813139" lon="12.4733919"><ele>55.0</ele><time>2026-05-03T12:51:22.117Z</time></trkpt></trkseg></trk></gpx>